<?xml version='1.0' encoding='UTF-8'?><gpx version="1.1" creator="JPX - https://github.com/jenetics/jpx" xmlns="http://www.topografix.com/GPX/1/1"><trk><trkseg><trkpt lat="39.515285" lon="8.5121683"><ele>330.0</ele><time>2026-05-02T08:13:27.383Z</time></trkpt><trkpt lat="39.5152917" lon="8.512295"><ele>330.0</ele><time>2026-05-02T08:13:29.386Z</time></trkpt><trkpt lat="39.5153" lon="8.51238"><ele>330.0</ele><time>2026-05-02T08:13:30.384Z</time></trkpt><trkpt lat="39.5153083" lon="8.5124983"><ele>330.0</ele><time>2026-05-02T08:13:31.385Z</time></trkpt><trkpt lat="39.5153167" lon="8.51264"><ele>330.0</ele><time>2026-05-02T08:13:32.385Z</time></trkpt><trkpt lat="39.5153217" lon="8.5127867"><ele>332.75</ele><time>2026-05-02T08:13:33.382Z</time></trkpt><trkpt lat="39.5153283" lon="8.5129433"><ele>335.5</ele><time>2026-05-02T08:13:34.381Z</time></trkpt><trkpt lat="39.5153333" lon="8.513115"><ele>338.25</ele><time>2026-05-02T08:13:35.379Z</time></trkpt><trkpt lat="39.5153383" lon="8.51327"><ele>341.0</ele><time>2026-05-02T08:13:36.385Z</time></trkpt><trkpt lat="39.51534" lon="8.513415"><ele>341.0</ele><time>2026-05-02T08:13:37.387Z</time></trkpt><trkpt lat="39.5153317" lon="8.513545"><ele>341.0</ele><time>2026-05-02T08:13:38.383Z</time></trkpt><trkpt lat="39.5153133" lon="8.5136667"><ele>341.0</ele><time>2026-05-02T08:13:39.382Z</time></trkpt><trkpt lat="39.51529" lon="8.5137833"><ele>341.0</ele><time>2026-05-02T08:13:40.385Z</time></trkpt><trkpt lat="39.5152467" lon="8.5138867"><ele>341.0</ele><time>2026-05-02T08:13:41.387Z</time></trkpt><trkpt lat="39.51518" lon="8.5139583"><ele>343.4</ele><time>2026-05-02T08:13:42.382Z</time></trkpt><trkpt lat="39.5151017" lon="8.5140167"><ele>345.8</ele><time>2026-05-02T08:13:43.384Z</time></trkpt><trkpt lat="39.5150133" lon="8.5140483"><ele>348.2</ele><time>2026-05-02T08:13:44.385Z</time></trkpt><trkpt lat="39.5149167" lon="8.51406"><ele>350.59999999999997</ele><time>2026-05-02T08:13:45.385Z</time></trkpt><trkpt lat="39.51483" lon="8.5140767"><ele>353.0</ele><time>2026-05-02T08:13:46.384Z</time></trkpt><trkpt lat="39.5147367" lon="8.5140633"><ele>353.0</ele><time>2026-05-02T08:13:47.386Z</time></trkpt><trkpt lat="39.51464" lon="8.514025"><ele>353.0</ele><time>2026-05-02T08:13:48.388Z</time></trkpt><trkpt lat="39.51456" lon="8.513985"><ele>353.0</ele><time>2026-05-02T08:13:49.387Z</time></trkpt><trkpt lat="39.5144917" lon="8.5139433"><ele>353.0</ele><time>2026-05-02T08:13:50.384Z</time></trkpt><trkpt lat="39.5144333" lon="8.513905"><ele>353.0</ele><time>2026-05-02T08:13:51.383Z</time></trkpt><trkpt lat="39.5143117" lon="8.513895"><ele>354.6666666666667</ele><time>2026-05-02T08:13:53.385Z</time></trkpt><trkpt lat="39.514225" lon="8.5139533"><ele>356.33333333333337</ele><time>2026-05-02T08:13:55.383Z</time></trkpt><trkpt lat="39.5141917" lon="8.5140533"><ele>358.0</ele><time>2026-05-02T08:13:57.385Z</time></trkpt><trkpt lat="39.5141133" lon="8.5140617"><ele>359.6666666666667</ele><time>2026-05-02T08:14:25.385Z</time></trkpt><trkpt lat="39.514035" lon="8.5139917"><ele>361.3333333333333</ele><time>2026-05-02T08:14:27.385Z</time></trkpt><trkpt lat="39.5139617" lon="8.5139267"><ele>363.0</ele><time>2026-05-02T08:14:29.388Z</time></trkpt><trkpt lat="39.5139" lon="8.51389"><ele>363.0</ele><time>2026-05-02T08:14:31.386Z</time></trkpt><trkpt lat="39.5138167" lon="8.5138667"><ele>363.0</ele><time>2026-05-02T08:14:33.387Z</time></trkpt><trkpt lat="39.5137183" lon="8.5138467"><ele>363.0</ele><time>2026-05-02T08:14:35.385Z</time></trkpt><trkpt lat="39.5136067" lon="8.51382"><ele>363.0</ele><time>2026-05-02T08:14:37.386Z</time></trkpt><trkpt lat="39.51348" lon="8.5137883"><ele>363.0</ele><time>2026-05-02T08:14:39.385Z</time></trkpt><trkpt lat="39.5134083" lon="8.51377"><ele>363.0</ele><time>2026-05-02T08:14:40.382Z</time></trkpt><trkpt lat="39.5133317" lon="8.5137483"><ele>363.0</ele><time>2026-05-02T08:14:41.383Z</time></trkpt><trkpt lat="39.513255" lon="8.5137217"><ele>363.0</ele><time>2026-05-02T08:14:42.385Z</time></trkpt><trkpt lat="39.5131833" lon="8.51369"><ele>363.0</ele><time>2026-05-02T08:14:43.386Z</time></trkpt><trkpt lat="39.513115" lon="8.5136517"><ele>363.0</ele><time>2026-05-02T08:14:44.385Z</time></trkpt><trkpt lat="39.5130483" lon="8.5136017"><ele>363.0</ele><time>2026-05-02T08:14:45.384Z</time></trkpt><trkpt lat="39.5129867" lon="8.5135417"><ele>363.0</ele><time>2026-05-02T08:14:46.381Z</time></trkpt><trkpt lat="39.5129317" lon="8.5134667"><ele>363.0</ele><time>2026-05-02T08:14:47.382Z</time></trkpt><trkpt lat="39.5128783" lon="8.5133917"><ele>363.0</ele><time>2026-05-02T08:14:48.387Z</time></trkpt><trkpt lat="39.5128267" lon="8.5133233"><ele>363.0</ele><time>2026-05-02T08:14:49.383Z</time></trkpt><trkpt lat="39.5127667" lon="8.5132517"><ele>363.0</ele><time>2026-05-02T08:14:50.383Z</time></trkpt><trkpt lat="39.512705" lon="8.5131867"><ele>363.0</ele><time>2026-05-02T08:14:51.385Z</time></trkpt><trkpt lat="39.51264" lon="8.5131167"><ele>365.5</ele><time>2026-05-02T08:14:52.383Z</time></trkpt><trkpt lat="39.5125733" lon="8.5130483"><ele>368.0</ele><time>2026-05-02T08:14:53.384Z</time></trkpt><trkpt lat="39.512505" lon="8.5129783"><ele>370.5</ele><time>2026-05-02T08:14:54.385Z</time></trkpt><trkpt lat="39.512445" lon="8.5129033"><ele>373.0</ele><time>2026-05-02T08:14:55.382Z</time></trkpt><trkpt lat="39.5123767" lon="8.5128367"><ele>375.5</ele><time>2026-05-02T08:14:56.381Z</time></trkpt><trkpt lat="39.5123133" lon="8.5127683"><ele>378.0</ele><time>2026-05-02T08:14:57.381Z</time></trkpt><trkpt lat="39.5122567" lon="8.5126933"><ele>378.0</ele><time>2026-05-02T08:14:58.381Z</time></trkpt><trkpt lat="39.5122117" lon="8.5126183"><ele>378.0</ele><time>2026-05-02T08:14:59.381Z</time></trkpt><trkpt lat="39.5121717" lon="8.512545"><ele>378.0</ele><time>2026-05-02T08:15:00.383Z</time></trkpt><trkpt lat="39.51213" lon="8.512475"><ele>378.0</ele><time>2026-05-02T08:15:01.386Z</time></trkpt><trkpt lat="39.5120467" lon="8.5123633"><ele>378.0</ele><time>2026-05-02T08:15:03.381Z</time></trkpt><trkpt lat="39.5119633" lon="8.5122517"><ele>380.3333333333333</ele><time>2026-05-02T08:15:05.383Z</time></trkpt><trkpt lat="39.5119133" lon="8.5121967"><ele>382.66666666666663</ele><time>2026-05-02T08:15:06.385Z</time></trkpt><trkpt lat="39.51182" lon="8.5121133"><ele>385.0</ele><time>2026-05-02T08:15:08.384Z</time></trkpt><trkpt lat="39.5117583" lon="8.512075"><ele>387.3333333333333</ele><time>2026-05-02T08:15:10.383Z</time></trkpt><trkpt lat="39.5116933" lon="8.5121017"><ele>389.66666666666663</ele><time>2026-05-02T08:15:12.39Z</time></trkpt><trkpt lat="39.5116083" lon="8.5122033"><ele>392.0</ele><time>2026-05-02T08:15:14.386Z</time></trkpt><trkpt lat="39.5115033" lon="8.5122833"><ele>392.0</ele><time>2026-05-02T08:15:16.382Z</time></trkpt><trkpt lat="39.5114" lon="8.5123633"><ele>392.0</ele><time>2026-05-02T08:15:18.382Z</time></trkpt><trkpt lat="39.5113017" lon="8.51244"><ele>392.0</ele><time>2026-05-02T08:15:20.384Z</time></trkpt><trkpt lat="39.5112" lon="8.512505"><ele>392.0</ele><time>2026-05-02T08:15:22.384Z</time></trkpt><trkpt lat="39.5110983" lon="8.5125783"><ele>391.8333333333333</ele><time>2026-05-02T08:15:24.383Z</time></trkpt><trkpt lat="39.5109917" lon="8.5126367"><ele>391.66666666666663</ele><time>2026-05-02T08:15:26.384Z</time></trkpt><trkpt lat="39.510875" lon="8.51269"><ele>391.5</ele><time>2026-05-02T08:15:28.382Z</time></trkpt><trkpt lat="39.51081" lon="8.5127067"><ele>391.33333333333337</ele><time>2026-05-02T08:15:29.383Z</time></trkpt><trkpt lat="39.51074" lon="8.51272"><ele>391.1666666666667</ele><time>2026-05-02T08:15:30.379Z</time></trkpt><trkpt lat="39.51067" lon="8.5127333"><ele>391.0</ele><time>2026-05-02T08:15:31.385Z</time></trkpt><trkpt lat="39.5105967" lon="8.512745"><ele>391.00000000000006</ele><time>2026-05-02T08:15:32.382Z</time></trkpt><trkpt lat="39.5105217" lon="8.5127617"><ele>391.0</ele><time>2026-05-02T08:15:33.385Z</time></trkpt><trkpt lat="39.5104433" lon="8.5127817"><ele>391.0</ele><time>2026-05-02T08:15:34.381Z</time></trkpt><trkpt lat="39.5103633" lon="8.5127983"><ele>391.0</ele><time>2026-05-02T08:15:35.385Z</time></trkpt><trkpt lat="39.5102817" lon="8.5128133"><ele>391.00000000000006</ele><time>2026-05-02T08:15:36.384Z</time></trkpt><trkpt lat="39.5101983" lon="8.5128317"><ele>391.0</ele><time>2026-05-02T08:15:37.382Z</time></trkpt><trkpt lat="39.51012" lon="8.5128567"><ele>391.00000000000006</ele><time>2026-05-02T08:15:38.384Z</time></trkpt><trkpt lat="39.5100417" lon="8.5128867"><ele>391.0</ele><time>2026-05-02T08:15:39.386Z</time></trkpt><trkpt lat="39.509965" lon="8.5129217"><ele>391.0</ele><time>2026-05-02T08:15:40.381Z</time></trkpt><trkpt lat="39.5098817" lon="8.512965"><ele>391.0</ele><time>2026-05-02T08:15:41.382Z</time></trkpt><trkpt lat="39.509815" lon="8.512995"><ele>391.00000000000006</ele><time>2026-05-02T08:15:42.383Z</time></trkpt><trkpt lat="39.5097433" lon="8.513035"><ele>391.0</ele><time>2026-05-02T08:15:43.382Z</time></trkpt><trkpt lat="39.50968" lon="8.5130533"><ele>393.1428571428571</ele><time>2026-05-02T08:15:44.379Z</time></trkpt><trkpt lat="39.5096167" lon="8.5130617"><ele>395.2857142857143</ele><time>2026-05-02T08:15:45.385Z</time></trkpt><trkpt lat="39.5095517" lon="8.5130583"><ele>397.42857142857144</ele><time>2026-05-02T08:15:46.382Z</time></trkpt><trkpt lat="39.5094783" lon="8.51304"><ele>399.57142857142856</ele><time>2026-05-02T08:15:47.385Z</time></trkpt><trkpt lat="39.509405" lon="8.51301"><ele>401.7142857142857</ele><time>2026-05-02T08:15:48.385Z</time></trkpt><trkpt lat="39.5093317" lon="8.5129733"><ele>403.85714285714283</ele><time>2026-05-02T08:15:49.386Z</time></trkpt><trkpt lat="39.5092583" lon="8.5129317"><ele>406.0</ele><time>2026-05-02T08:15:50.382Z</time></trkpt><trkpt lat="39.5091867" lon="8.5128833"><ele>406.00000000000006</ele><time>2026-05-02T08:15:51.385Z</time></trkpt><trkpt lat="39.509115" lon="8.5128283"><ele>406.0</ele><time>2026-05-02T08:15:52.383Z</time></trkpt><trkpt lat="39.5090467" lon="8.51277"><ele>406.0</ele><time>2026-05-02T08:15:53.383Z</time></trkpt><trkpt lat="39.5089783" lon="8.5127067"><ele>406.0</ele><time>2026-05-02T08:15:54.384Z</time></trkpt><trkpt lat="39.5089233" lon="8.512635"><ele>406.00000000000006</ele><time>2026-05-02T08:15:55.385Z</time></trkpt><trkpt lat="39.50887" lon="8.512555"><ele>406.0</ele><time>2026-05-02T08:15:56.385Z</time></trkpt><trkpt lat="39.50882" lon="8.512475"><ele>406.0</ele><time>2026-05-02T08:15:57.382Z</time></trkpt><trkpt lat="39.5087667" lon="8.5123783"><ele>406.0</ele><time>2026-05-02T08:15:58.381Z</time></trkpt><trkpt lat="39.50872" lon="8.5122783"><ele>406.0</ele><time>2026-05-02T08:15:59.386Z</time></trkpt><trkpt lat="39.5086717" lon="8.51218"><ele>406.0</ele><time>2026-05-02T08:16:00.386Z</time></trkpt><trkpt lat="39.508615" lon="8.5120883"><ele>406.0</ele><time>2026-05-02T08:16:01.383Z</time></trkpt><trkpt lat="39.5085583" lon="8.51199"><ele>408.1666666666667</ele><time>2026-05-02T08:16:02.383Z</time></trkpt><trkpt lat="39.5085" lon="8.5119067"><ele>410.33333333333337</ele><time>2026-05-02T08:16:03.386Z</time></trkpt><trkpt lat="39.5084383" lon="8.5118283"><ele>412.5</ele><time>2026-05-02T08:16:04.385Z</time></trkpt><trkpt lat="39.5083717" lon="8.51175"><ele>414.66666666666663</ele><time>2026-05-02T08:16:05.38Z</time></trkpt><trkpt lat="39.5083017" lon="8.5116733"><ele>416.8333333333333</ele><time>2026-05-02T08:16:06.383Z</time></trkpt><trkpt lat="39.5082267" lon="8.51161"><ele>419.0</ele><time>2026-05-02T08:16:07.383Z</time></trkpt><trkpt lat="39.5081517" lon="8.5115533"><ele>418.99999999999994</ele><time>2026-05-02T08:16:08.383Z</time></trkpt><trkpt lat="39.508075" lon="8.51148"><ele>419.0</ele><time>2026-05-02T08:16:09.385Z</time></trkpt><trkpt lat="39.5079983" lon="8.511425"><ele>419.0</ele><time>2026-05-02T08:16:10.384Z</time></trkpt><trkpt lat="39.5079183" lon="8.511375"><ele>419.0</ele><time>2026-05-02T08:16:11.386Z</time></trkpt><trkpt lat="39.507835" lon="8.5113333"><ele>418.99999999999994</ele><time>2026-05-02T08:16:12.382Z</time></trkpt><trkpt lat="39.5077517" lon="8.511295"><ele>419.0</ele><time>2026-05-02T08:16:13.382Z</time></trkpt><trkpt lat="39.507665" lon="8.51126"><ele>416.49999999999994</ele><time>2026-05-02T08:16:14.384Z</time></trkpt><trkpt lat="39.507575" lon="8.5112267"><ele>414.0</ele><time>2026-05-02T08:16:15.385Z</time></trkpt><trkpt lat="39.5074883" lon="8.5111883"><ele>411.5</ele><time>2026-05-02T08:16:16.384Z</time></trkpt><trkpt lat="39.5074067" lon="8.51115"><ele>409.0</ele><time>2026-05-02T08:16:17.381Z</time></trkpt><trkpt lat="39.50733" lon="8.5111083"><ele>406.49999999999994</ele><time>2026-05-02T08:16:18.385Z</time></trkpt><trkpt lat="39.5072517" lon="8.5110617"><ele>404.0</ele><time>2026-05-02T08:16:19.386Z</time></trkpt><trkpt lat="39.5071767" lon="8.5110133"><ele>403.99999999999994</ele><time>2026-05-02T08:16:20.385Z</time></trkpt><trkpt lat="39.5071017" lon="8.510965"><ele>404.0</ele><time>2026-05-02T08:16:21.385Z</time></trkpt><trkpt lat="39.50703" lon="8.5109083"><ele>404.0</ele><time>2026-05-02T08:16:22.384Z</time></trkpt><trkpt lat="39.506965" lon="8.51085"><ele>404.0</ele><time>2026-05-02T08:16:23.383Z</time></trkpt><trkpt lat="39.5069067" lon="8.5107883"><ele>403.99999999999994</ele><time>2026-05-02T08:16:24.386Z</time></trkpt><trkpt lat="39.5068533" lon="8.5107183"><ele>404.0</ele><time>2026-05-02T08:16:25.386Z</time></trkpt><trkpt lat="39.50681" lon="8.5106183"><ele>405.1428571428571</ele><time>2026-05-02T08:16:26.38Z</time></trkpt><trkpt lat="39.5067817" lon="8.51052"><ele>406.2857142857143</ele><time>2026-05-02T08:16:27.382Z</time></trkpt><trkpt lat="39.5067583" lon="8.510435"><ele>407.42857142857144</ele><time>2026-05-02T08:16:28.386Z</time></trkpt><trkpt lat="39.5067367" lon="8.5103583"><ele>408.57142857142856</ele><time>2026-05-02T08:16:29.385Z</time></trkpt><trkpt lat="39.506715" lon="8.5102733"><ele>409.7142857142857</ele><time>2026-05-02T08:16:30.384Z</time></trkpt><trkpt lat="39.50669" lon="8.510185"><ele>410.85714285714283</ele><time>2026-05-02T08:16:31.38Z</time></trkpt><trkpt lat="39.5066617" lon="8.5101017"><ele>412.0</ele><time>2026-05-02T08:16:32.382Z</time></trkpt><trkpt lat="39.5066333" lon="8.510025"><ele>412.00000000000006</ele><time>2026-05-02T08:16:33.382Z</time></trkpt><trkpt lat="39.5066017" lon="8.5099417"><ele>412.0</ele><time>2026-05-02T08:16:34.386Z</time></trkpt><trkpt lat="39.5065767" lon="8.5098633"><ele>412.0</ele><time>2026-05-02T08:16:35.383Z</time></trkpt><trkpt lat="39.5065283" lon="8.5097233"><ele>412.0</ele><time>2026-05-02T08:16:37.384Z</time></trkpt><trkpt lat="39.5064883" lon="8.5096083"><ele>412.00000000000006</ele><time>2026-05-02T08:16:39.382Z</time></trkpt><trkpt lat="39.5064583" lon="8.5095167"><ele>412.0</ele><time>2026-05-02T08:16:42.38Z</time></trkpt><trkpt lat="39.5064467" lon="8.5093883"><ele>412.99999999999994</ele><time>2026-05-02T08:16:59.383Z</time></trkpt><trkpt lat="39.5064317" lon="8.5092933"><ele>414.0</ele><time>2026-05-02T08:17:01.383Z</time></trkpt><trkpt lat="39.5064033" lon="8.50922"><ele>415.0</ele><time>2026-05-02T08:17:02.38Z</time></trkpt><trkpt lat="39.5063717" lon="8.5091417"><ele>416.0</ele><time>2026-05-02T08:17:03.383Z</time></trkpt><trkpt lat="39.5063333" lon="8.5090633"><ele>417.0</ele><time>2026-05-02T08:17:04.387Z</time></trkpt><trkpt lat="39.50629" lon="8.5089867"><ele>417.99999999999994</ele><time>2026-05-02T08:17:05.379Z</time></trkpt><trkpt lat="39.50624" lon="8.5089167"><ele>419.0</ele><time>2026-05-02T08:17:06.381Z</time></trkpt><trkpt lat="39.5061867" lon="8.5088383"><ele>418.99999999999994</ele><time>2026-05-02T08:17:07.382Z</time></trkpt><trkpt lat="39.5061467" lon="8.50877"><ele>419.0</ele><time>2026-05-02T08:17:08.383Z</time></trkpt><trkpt lat="39.50609" lon="8.508635"><ele>419.0</ele><time>2026-05-02T08:17:10.385Z</time></trkpt><trkpt lat="39.5060717" lon="8.5085117"><ele>419.0</ele><time>2026-05-02T08:17:12.383Z</time></trkpt><trkpt lat="39.5060517" lon="8.5084183"><ele>418.99999999999994</ele><time>2026-05-02T08:17:14.38Z</time></trkpt><trkpt lat="39.5060667" lon="8.50833"><ele>419.0</ele><time>2026-05-02T08:17:16.381Z</time></trkpt><trkpt lat="39.5062533" lon="8.5082"><ele>415.79999999999995</ele><time>2026-05-02T08:17:18.386Z</time></trkpt><trkpt lat="39.506345" lon="8.5081433"><ele>412.59999999999997</ele><time>2026-05-02T08:17:19.388Z</time></trkpt><trkpt lat="39.5064433" lon="8.508065"><ele>409.4</ele><time>2026-05-02T08:17:20.383Z</time></trkpt><trkpt lat="39.5065567" lon="8.5079783"><ele>406.2</ele><time>2026-05-02T08:17:21.384Z</time></trkpt><trkpt lat="39.5066383" lon="8.50791"><ele>403.0</ele><time>2026-05-02T08:17:22.384Z</time></trkpt><trkpt lat="39.506705" lon="8.50785"><ele>403.00000000000006</ele><time>2026-05-02T08:17:23.384Z</time></trkpt><trkpt lat="39.5067617" lon="8.50779"><ele>403.0</ele><time>2026-05-02T08:17:24.384Z</time></trkpt><trkpt lat="39.5068133" lon="8.507725"><ele>403.0</ele><time>2026-05-02T08:17:25.383Z</time></trkpt><trkpt lat="39.5068583" lon="8.50765"><ele>403.0</ele><time>2026-05-02T08:17:26.383Z</time></trkpt><trkpt lat="39.5068967" lon="8.50758"><ele>403.00000000000006</ele><time>2026-05-02T08:17:27.382Z</time></trkpt><trkpt lat="39.506925" lon="8.5075017"><ele>403.0</ele><time>2026-05-02T08:17:28.385Z</time></trkpt><trkpt lat="39.5069367" lon="8.50735"><ele>403.0</ele><time>2026-05-02T08:17:30.385Z</time></trkpt><trkpt lat="39.50693" lon="8.5072667"><ele>403.0</ele><time>2026-05-02T08:17:31.382Z</time></trkpt><trkpt lat="39.5068967" lon="8.5071167"><ele>403.0</ele><time>2026-05-02T08:17:33.382Z</time></trkpt><trkpt lat="39.5068083" lon="8.5070067"><ele>403.0</ele><time>2026-05-02T08:17:35.387Z</time></trkpt><trkpt lat="39.506725" lon="8.50698"><ele>403.0</ele><time>2026-05-02T08:17:36.385Z</time></trkpt><trkpt lat="39.5066283" lon="8.5069567"><ele>404.0</ele><time>2026-05-02T08:17:37.38Z</time></trkpt><trkpt lat="39.5065217" lon="8.506935"><ele>405.0</ele><time>2026-05-02T08:17:38.383Z</time></trkpt><trkpt lat="39.5064233" lon="8.5069083"><ele>406.0</ele><time>2026-05-02T08:17:39.383Z</time></trkpt><trkpt lat="39.50633" lon="8.5068833"><ele>407.0</ele><time>2026-05-02T08:17:40.382Z</time></trkpt><trkpt lat="39.5062567" lon="8.5068483"><ele>408.0</ele><time>2026-05-02T08:17:41.385Z</time></trkpt><trkpt lat="39.506195" lon="8.5068017"><ele>408.0</ele><time>2026-05-02T08:17:42.384Z</time></trkpt><trkpt lat="39.5061183" lon="8.50668"><ele>408.0</ele><time>2026-05-02T08:17:44.384Z</time></trkpt><trkpt lat="39.5060767" lon="8.506525"><ele>408.0</ele><time>2026-05-02T08:17:46.385Z</time></trkpt><trkpt lat="39.5060867" lon="8.5064083"><ele>408.0</ele><time>2026-05-02T08:17:47.383Z</time></trkpt><trkpt lat="39.5060817" lon="8.5062933"><ele>408.0</ele><time>2026-05-02T08:17:48.387Z</time></trkpt><trkpt lat="39.506085" lon="8.506165"><ele>405.5</ele><time>2026-05-02T08:17:49.382Z</time></trkpt><trkpt lat="39.5060867" lon="8.506035"><ele>403.0</ele><time>2026-05-02T08:17:50.385Z</time></trkpt><trkpt lat="39.5060967" lon="8.505925"><ele>400.5</ele><time>2026-05-02T08:17:51.382Z</time></trkpt><trkpt lat="39.50608" lon="8.5058367"><ele>398.0</ele><time>2026-05-02T08:17:52.381Z</time></trkpt><trkpt lat="39.50606" lon="8.5057067"><ele>395.5</ele><time>2026-05-02T08:17:54.382Z</time></trkpt><trkpt lat="39.5059733" lon="8.5056767"><ele>393.0</ele><time>2026-05-02T08:17:56.383Z</time></trkpt><trkpt lat="39.5058517" lon="8.5057183"><ele>393.00000000000006</ele><time>2026-05-02T08:17:58.384Z</time></trkpt><trkpt lat="39.5057833" lon="8.50574"><ele>393.0</ele><time>2026-05-02T08:17:59.385Z</time></trkpt><trkpt lat="39.50571" lon="8.5057583"><ele>393.0</ele><time>2026-05-02T08:18:00.38Z</time></trkpt><trkpt lat="39.5056367" lon="8.5057717"><ele>393.0</ele><time>2026-05-02T08:18:01.387Z</time></trkpt><trkpt lat="39.5055667" lon="8.5057833"><ele>393.0</ele><time>2026-05-02T08:18:02.383Z</time></trkpt><trkpt lat="39.5055" lon="8.505785"><ele>393.00000000000006</ele><time>2026-05-02T08:18:03.385Z</time></trkpt><trkpt lat="39.5054367" lon="8.5057883"><ele>393.0</ele><time>2026-05-02T08:18:04.384Z</time></trkpt><trkpt lat="39.5053233" lon="8.505825"><ele>395.0</ele><time>2026-05-02T08:18:06.384Z</time></trkpt><trkpt lat="39.5052467" lon="8.50589"><ele>397.0</ele><time>2026-05-02T08:18:08.383Z</time></trkpt><trkpt lat="39.5051833" lon="8.5060017"><ele>399.0</ele><time>2026-05-02T08:18:10.385Z</time></trkpt><trkpt lat="39.5051517" lon="8.5061367"><ele>401.0</ele><time>2026-05-02T08:18:12.382Z</time></trkpt><trkpt lat="39.5051017" lon="8.5062633"><ele>403.0</ele><time>2026-05-02T08:18:14.38Z</time></trkpt><trkpt lat="39.5050317" lon="8.5063533"><ele>403.0</ele><time>2026-05-02T08:18:16.384Z</time></trkpt><trkpt lat="39.5049717" lon="8.506385"><ele>403.0</ele><time>2026-05-02T08:18:17.383Z</time></trkpt><trkpt lat="39.5049083" lon="8.5063867"><ele>403.0</ele><time>2026-05-02T08:18:18.384Z</time></trkpt><trkpt lat="39.5048367" lon="8.5063883"><ele>403.0</ele><time>2026-05-02T08:18:19.383Z</time></trkpt><trkpt lat="39.5047683" lon="8.506375"><ele>403.0</ele><time>2026-05-02T08:18:20.384Z</time></trkpt><trkpt lat="39.5046933" lon="8.5063483"><ele>403.0</ele><time>2026-05-02T08:18:21.383Z</time></trkpt><trkpt lat="39.5046283" lon="8.5063067"><ele>403.0</ele><time>2026-05-02T08:18:22.386Z</time></trkpt><trkpt lat="39.50451" lon="8.50624"><ele>402.59999999999997</ele><time>2026-05-02T08:18:24.385Z</time></trkpt><trkpt lat="39.5043883" lon="8.5061933"><ele>402.2</ele><time>2026-05-02T08:18:26.386Z</time></trkpt><trkpt lat="39.5042667" lon="8.506205"><ele>401.8</ele><time>2026-05-02T08:18:28.381Z</time></trkpt><trkpt lat="39.504205" lon="8.5062383"><ele>401.4</ele><time>2026-05-02T08:18:29.384Z</time></trkpt><trkpt lat="39.504145" lon="8.50628"><ele>401.0</ele><time>2026-05-02T08:18:30.384Z</time></trkpt><trkpt lat="39.5040817" lon="8.506325"><ele>401.0</ele><time>2026-05-02T08:18:31.383Z</time></trkpt><trkpt lat="39.50402" lon="8.5063567"><ele>401.0</ele><time>2026-05-02T08:18:32.385Z</time></trkpt><trkpt lat="39.5039533" lon="8.506375"><ele>401.0</ele><time>2026-05-02T08:18:33.382Z</time></trkpt><trkpt lat="39.5038817" lon="8.5063817"><ele>401.0</ele><time>2026-05-02T08:18:34.383Z</time></trkpt><trkpt lat="39.50381" lon="8.5063783"><ele>401.0</ele><time>2026-05-02T08:18:35.381Z</time></trkpt><trkpt lat="39.5037383" lon="8.5063617"><ele>401.0</ele><time>2026-05-02T08:18:36.382Z</time></trkpt><trkpt lat="39.50367" lon="8.5063183"><ele>401.0</ele><time>2026-05-02T08:18:37.386Z</time></trkpt><trkpt lat="39.5036133" lon="8.50625"><ele>400.16666666666663</ele><time>2026-05-02T08:18:38.387Z</time></trkpt><trkpt lat="39.5035683" lon="8.50616"><ele>399.3333333333333</ele><time>2026-05-02T08:18:39.38Z</time></trkpt><trkpt lat="39.5035267" lon="8.5060667"><ele>398.5</ele><time>2026-05-02T08:18:40.382Z</time></trkpt><trkpt lat="39.5034717" lon="8.50598"><ele>397.66666666666663</ele><time>2026-05-02T08:18:41.382Z</time></trkpt><trkpt lat="39.503415" lon="8.50591"><ele>396.8333333333333</ele><time>2026-05-02T08:18:42.385Z</time></trkpt><trkpt lat="39.5033567" lon="8.5058533"><ele>396.0</ele><time>2026-05-02T08:18:43.385Z</time></trkpt><trkpt lat="39.5033033" lon="8.5057917"><ele>396.0</ele><time>2026-05-02T08:18:44.381Z</time></trkpt><trkpt lat="39.503265" lon="8.50572"><ele>396.0</ele><time>2026-05-02T08:18:45.38Z</time></trkpt><trkpt lat="39.5032333" lon="8.50564"><ele>396.0</ele><time>2026-05-02T08:18:46.384Z</time></trkpt><trkpt lat="39.503215" lon="8.5055517"><ele>396.0</ele><time>2026-05-02T08:18:47.382Z</time></trkpt><trkpt lat="39.503195" lon="8.5054617"><ele>396.0</ele><time>2026-05-02T08:18:48.385Z</time></trkpt><trkpt lat="39.5031667" lon="8.505385"><ele>396.0</ele><time>2026-05-02T08:18:49.387Z</time></trkpt><trkpt lat="39.50313" lon="8.5053083"><ele>396.0</ele><time>2026-05-02T08:18:50.382Z</time></trkpt><trkpt lat="39.5030883" lon="8.5052333"><ele>396.0</ele><time>2026-05-02T08:18:51.38Z</time></trkpt><trkpt lat="39.5030433" lon="8.5051633"><ele>396.0</ele><time>2026-05-02T08:18:52.381Z</time></trkpt><trkpt lat="39.5029917" lon="8.5051017"><ele>396.0</ele><time>2026-05-02T08:18:53.383Z</time></trkpt><trkpt lat="39.5029383" lon="8.5050467"><ele>396.0</ele><time>2026-05-02T08:18:54.385Z</time></trkpt><trkpt lat="39.50288" lon="8.5050017"><ele>396.0</ele><time>2026-05-02T08:18:55.387Z</time></trkpt><trkpt lat="39.502815" lon="8.5049683"><ele>396.0</ele><time>2026-05-02T08:18:56.382Z</time></trkpt><trkpt lat="39.5027417" lon="8.5049417"><ele>396.0</ele><time>2026-05-02T08:18:57.385Z</time></trkpt><trkpt lat="39.5026683" lon="8.5049133"><ele>396.0</ele><time>2026-05-02T08:18:58.383Z</time></trkpt><trkpt lat="39.5025883" lon="8.504885"><ele>396.0</ele><time>2026-05-02T08:18:59.386Z</time></trkpt><trkpt lat="39.5025067" lon="8.504855"><ele>396.0</ele><time>2026-05-02T08:19:00.384Z</time></trkpt><trkpt lat="39.5024233" lon="8.5048283"><ele>396.0</ele><time>2026-05-02T08:19:01.386Z</time></trkpt><trkpt lat="39.502345" lon="8.5047967"><ele>396.0</ele><time>2026-05-02T08:19:02.379Z</time></trkpt><trkpt lat="39.50227" lon="8.504765"><ele>396.0</ele><time>2026-05-02T08:19:03.38Z</time></trkpt><trkpt lat="39.5021967" lon="8.5047367"><ele>396.0</ele><time>2026-05-02T08:19:04.385Z</time></trkpt><trkpt lat="39.5021267" lon="8.5047133"><ele>396.0</ele><time>2026-05-02T08:19:05.379Z</time></trkpt><trkpt lat="39.502065" lon="8.504695"><ele>396.0</ele><time>2026-05-02T08:19:06.386Z</time></trkpt><trkpt lat="39.5019467" lon="8.5046783"><ele>396.0</ele><time>2026-05-02T08:19:08.385Z</time></trkpt><trkpt lat="39.5018367" lon="8.50469"><ele>396.0</ele><time>2026-05-02T08:19:10.382Z</time></trkpt><trkpt lat="39.501725" lon="8.5047467"><ele>395.8333333333333</ele><time>2026-05-02T08:19:12.383Z</time></trkpt><trkpt lat="39.501665" lon="8.5047883"><ele>395.66666666666663</ele><time>2026-05-02T08:19:13.386Z</time></trkpt><trkpt lat="39.5015983" lon="8.5048233"><ele>395.5</ele><time>2026-05-02T08:19:14.384Z</time></trkpt><trkpt lat="39.5015267" lon="8.5048483"><ele>395.3333333333333</ele><time>2026-05-02T08:19:15.383Z</time></trkpt><trkpt lat="39.5014467" lon="8.5048767"><ele>395.16666666666663</ele><time>2026-05-02T08:19:16.381Z</time></trkpt><trkpt lat="39.50137" lon="8.5048967"><ele>395.0</ele><time>2026-05-02T08:19:17.382Z</time></trkpt><trkpt lat="39.5012933" lon="8.504915"><ele>397.16666666666663</ele><time>2026-05-02T08:19:18.384Z</time></trkpt><trkpt lat="39.5012183" lon="8.504935"><ele>399.3333333333333</ele><time>2026-05-02T08:19:19.385Z</time></trkpt><trkpt lat="39.501145" lon="8.5049533"><ele>401.5</ele><time>2026-05-02T08:19:20.384Z</time></trkpt><trkpt lat="39.50108" lon="8.50498"><ele>403.66666666666663</ele><time>2026-05-02T08:19:21.388Z</time></trkpt><trkpt lat="39.50097" lon="8.5050083"><ele>405.8333333333333</ele><time>2026-05-02T08:19:23.385Z</time></trkpt><trkpt lat="39.5009033" lon="8.5049683"><ele>408.0</ele><time>2026-05-02T08:19:25.383Z</time></trkpt><trkpt lat="39.5008717" lon="8.5048817"><ele>408.0</ele><time>2026-05-02T08:19:28.382Z</time></trkpt><trkpt lat="39.500855" lon="8.5047967"><ele>408.0</ele><time>2026-05-02T08:23:12.386Z</time></trkpt><trkpt lat="39.5008683" lon="8.5046633"><ele>408.0</ele><time>2026-05-02T08:23:15.383Z</time></trkpt><trkpt lat="39.50089" lon="8.5045633"><ele>408.0</ele><time>2026-05-02T08:23:17.384Z</time></trkpt><trkpt lat="39.500915" lon="8.504455"><ele>408.0</ele><time>2026-05-02T08:23:19.384Z</time></trkpt><trkpt lat="39.5009317" lon="8.5043683"><ele>408.0</ele><time>2026-05-02T08:23:21.384Z</time></trkpt><trkpt lat="39.5009283" lon="8.504285"><ele>406.2</ele><time>2026-05-02T08:23:24.383Z</time></trkpt><trkpt lat="39.5009533" lon="8.5041567"><ele>404.4</ele><time>2026-05-02T08:23:35.385Z</time></trkpt><trkpt lat="39.5009233" lon="8.504015"><ele>402.59999999999997</ele><time>2026-05-02T08:23:37.387Z</time></trkpt><trkpt lat="39.5008667" lon="8.503875"><ele>400.79999999999995</ele><time>2026-05-02T08:23:39.384Z</time></trkpt><trkpt lat="39.5008267" lon="8.5038117"><ele>399.0</ele><time>2026-05-02T08:23:40.381Z</time></trkpt><trkpt lat="39.500785" lon="8.5037467"><ele>398.1666666666667</ele><time>2026-05-02T08:23:41.385Z</time></trkpt><trkpt lat="39.5007383" lon="8.50368"><ele>397.33333333333337</ele><time>2026-05-02T08:23:42.385Z</time></trkpt><trkpt lat="39.50067" lon="8.5035483"><ele>396.5</ele><time>2026-05-02T08:23:44.391Z</time></trkpt><trkpt lat="39.5006417" lon="8.5034733"><ele>395.6666666666667</ele><time>2026-05-02T08:23:45.384Z</time></trkpt><trkpt lat="39.5006233" lon="8.5033867"><ele>394.83333333333337</ele><time>2026-05-02T08:23:46.385Z</time></trkpt><trkpt lat="39.5006167" lon="8.5033033"><ele>394.0</ele><time>2026-05-02T08:23:47.385Z</time></trkpt><trkpt lat="39.5006333" lon="8.5031567"><ele>394.0</ele><time>2026-05-02T08:23:49.386Z</time></trkpt><trkpt lat="39.5006783" lon="8.5030333"><ele>394.0</ele><time>2026-05-02T08:23:51.383Z</time></trkpt><trkpt lat="39.50071" lon="8.5029033"><ele>394.0</ele><time>2026-05-02T08:23:53.384Z</time></trkpt><trkpt lat="39.50074" lon="8.5027617"><ele>394.0</ele><time>2026-05-02T08:23:55.382Z</time></trkpt><trkpt lat="39.5007333" lon="8.5025933"><ele>392.6666666666667</ele><time>2026-05-02T08:23:57.387Z</time></trkpt><trkpt lat="39.5007233" lon="8.502505"><ele>391.33333333333337</ele><time>2026-05-02T08:23:58.386Z</time></trkpt><trkpt lat="39.5007117" lon="8.502415"><ele>390.0</ele><time>2026-05-02T08:23:59.385Z</time></trkpt><trkpt lat="39.5007017" lon="8.502325"><ele>388.66666666666663</ele><time>2026-05-02T08:24:00.385Z</time></trkpt><trkpt lat="39.5006867" lon="8.5022433"><ele>387.3333333333333</ele><time>2026-05-02T08:24:01.386Z</time></trkpt><trkpt lat="39.5006483" lon="8.502105"><ele>386.0</ele><time>2026-05-02T08:24:03.384Z</time></trkpt><trkpt lat="39.5006" lon="8.5020083"><ele>386.66666666666663</ele><time>2026-05-02T08:24:05.383Z</time></trkpt><trkpt lat="39.5005217" lon="8.5019733"><ele>387.3333333333333</ele><time>2026-05-02T08:24:07.382Z</time></trkpt><trkpt lat="39.5004367" lon="8.5019917"><ele>388.0</ele><time>2026-05-02T08:24:09.385Z</time></trkpt><trkpt lat="39.5003483" lon="8.502065"><ele>388.66666666666663</ele><time>2026-05-02T08:24:11.381Z</time></trkpt><trkpt lat="39.5003" lon="8.5021183"><ele>389.3333333333333</ele><time>2026-05-02T08:24:12.383Z</time></trkpt><trkpt lat="39.500245" lon="8.5021917"><ele>390.0</ele><time>2026-05-02T08:24:13.384Z</time></trkpt><trkpt lat="39.5001933" lon="8.5022783"><ele>390.0</ele><time>2026-05-02T08:24:14.387Z</time></trkpt><trkpt lat="39.5001417" lon="8.5023667"><ele>390.0</ele><time>2026-05-02T08:24:15.382Z</time></trkpt><trkpt lat="39.500085" lon="8.5024533"><ele>390.0</ele><time>2026-05-02T08:24:16.383Z</time></trkpt><trkpt lat="39.500025" lon="8.5025283"><ele>390.0</ele><time>2026-05-02T08:24:17.384Z</time></trkpt><trkpt lat="39.499955" lon="8.50259"><ele>390.0</ele><time>2026-05-02T08:24:18.381Z</time></trkpt><trkpt lat="39.499885" lon="8.5026417"><ele>390.0</ele><time>2026-05-02T08:24:19.384Z</time></trkpt><trkpt lat="39.499815" lon="8.5026833"><ele>390.0</ele><time>2026-05-02T08:24:20.388Z</time></trkpt><trkpt lat="39.4997467" lon="8.502715"><ele>390.0</ele><time>2026-05-02T08:24:21.382Z</time></trkpt><trkpt lat="39.4996733" lon="8.50275"><ele>390.0</ele><time>2026-05-02T08:24:22.383Z</time></trkpt><trkpt lat="39.4996033" lon="8.50278"><ele>390.0</ele><time>2026-05-02T08:24:23.383Z</time></trkpt><trkpt lat="39.4995383" lon="8.5028083"><ele>390.0</ele><time>2026-05-02T08:24:24.384Z</time></trkpt><trkpt lat="39.4994767" lon="8.5028517"><ele>390.0</ele><time>2026-05-02T08:24:25.38Z</time></trkpt><trkpt lat="39.4994217" lon="8.5029083"><ele>390.0</ele><time>2026-05-02T08:24:26.38Z</time></trkpt><trkpt lat="39.4993683" lon="8.5029717"><ele>392.2857142857143</ele><time>2026-05-02T08:24:27.383Z</time></trkpt><trkpt lat="39.49931" lon="8.50303"><ele>394.57142857142856</ele><time>2026-05-02T08:24:28.383Z</time></trkpt><trkpt lat="39.49925" lon="8.5030733"><ele>396.8571428571429</ele><time>2026-05-02T08:24:29.384Z</time></trkpt><trkpt lat="39.49919" lon="8.5031033"><ele>399.1428571428571</ele><time>2026-05-02T08:24:30.384Z</time></trkpt><trkpt lat="39.499125" lon="8.5031233"><ele>401.42857142857144</ele><time>2026-05-02T08:24:31.382Z</time></trkpt><trkpt lat="39.4990617" lon="8.5031417"><ele>403.7142857142857</ele><time>2026-05-02T08:24:32.386Z</time></trkpt><trkpt lat="39.499" lon="8.5031617"><ele>406.0</ele><time>2026-05-02T08:24:33.383Z</time></trkpt><trkpt lat="39.4988833" lon="8.50322"><ele>406.00000000000006</ele><time>2026-05-02T08:24:35.384Z</time></trkpt><trkpt lat="39.49883" lon="8.503265"><ele>406.0</ele><time>2026-05-02T08:24:36.383Z</time></trkpt><trkpt lat="39.4987733" lon="8.5033167"><ele>406.0</ele><time>2026-05-02T08:24:37.383Z</time></trkpt><trkpt lat="39.4987183" lon="8.5033733"><ele>406.0</ele><time>2026-05-02T08:24:38.39Z</time></trkpt><trkpt lat="39.4986617" lon="8.5034167"><ele>406.00000000000006</ele><time>2026-05-02T08:24:39.383Z</time></trkpt><trkpt lat="39.498545" lon="8.503475"><ele>406.0</ele><time>2026-05-02T08:24:41.383Z</time></trkpt><trkpt lat="39.4984283" lon="8.5034683"><ele>405.33333333333337</ele><time>2026-05-02T08:24:43.383Z</time></trkpt><trkpt lat="39.4983417" lon="8.5033883"><ele>404.6666666666667</ele><time>2026-05-02T08:24:45.381Z</time></trkpt><trkpt lat="39.4982967" lon="8.503325"><ele>404.0</ele><time>2026-05-02T08:24:46.382Z</time></trkpt><trkpt lat="39.498255" lon="8.503255"><ele>403.33333333333337</ele><time>2026-05-02T08:24:47.384Z</time></trkpt><trkpt lat="39.4982033" lon="8.5031833"><ele>402.6666666666667</ele><time>2026-05-02T08:24:48.381Z</time></trkpt><trkpt lat="39.4981117" lon="8.5030817"><ele>402.0</ele><time>2026-05-02T08:24:50.385Z</time></trkpt><trkpt lat="39.4980533" lon="8.50304"><ele>402.0</ele><time>2026-05-02T08:24:51.381Z</time></trkpt><trkpt lat="39.4979883" lon="8.5030167"><ele>402.0</ele><time>2026-05-02T08:24:52.382Z</time></trkpt><trkpt lat="39.4979217" lon="8.5030067"><ele>402.0</ele><time>2026-05-02T08:24:53.383Z</time></trkpt><trkpt lat="39.4978483" lon="8.5030217"><ele>402.0</ele><time>2026-05-02T08:24:54.385Z</time></trkpt><trkpt lat="39.4977717" lon="8.5030383"><ele>402.0</ele><time>2026-05-02T08:24:55.383Z</time></trkpt><trkpt lat="39.4976933" lon="8.50306"><ele>402.0</ele><time>2026-05-02T08:24:56.451Z</time></trkpt><trkpt lat="39.4976183" lon="8.5030867"><ele>402.0</ele><time>2026-05-02T08:24:57.384Z</time></trkpt><trkpt lat="39.497545" lon="8.50311"><ele>403.0</ele><time>2026-05-02T08:24:58.382Z</time></trkpt><trkpt lat="39.4974783" lon="8.5031233"><ele>404.0</ele><time>2026-05-02T08:24:59.384Z</time></trkpt><trkpt lat="39.49741" lon="8.50313"><ele>405.0</ele><time>2026-05-02T08:25:00.388Z</time></trkpt><trkpt lat="39.4973433" lon="8.5031167"><ele>406.0</ele><time>2026-05-02T08:25:01.38Z</time></trkpt><trkpt lat="39.4972767" lon="8.503085"><ele>407.0</ele><time>2026-05-02T08:25:02.382Z</time></trkpt><trkpt lat="39.4972133" lon="8.503055"><ele>408.0</ele><time>2026-05-02T08:25:03.384Z</time></trkpt><trkpt lat="39.4971517" lon="8.50301"><ele>409.0</ele><time>2026-05-02T08:25:04.383Z</time></trkpt><trkpt lat="39.4970933" lon="8.5029583"><ele>404.85714285714283</ele><time>2026-05-02T08:25:05.384Z</time></trkpt><trkpt lat="39.4970317" lon="8.5029067"><ele>400.7142857142857</ele><time>2026-05-02T08:25:06.383Z</time></trkpt><trkpt lat="39.49697" lon="8.50286"><ele>396.57142857142856</ele><time>2026-05-02T08:25:07.383Z</time></trkpt><trkpt lat="39.496905" lon="8.5028233"><ele>392.42857142857144</ele><time>2026-05-02T08:25:08.385Z</time></trkpt><trkpt lat="39.49684" lon="8.5027967"><ele>388.28571428571433</ele><time>2026-05-02T08:25:09.38Z</time></trkpt><trkpt lat="39.49677" lon="8.502785"><ele>384.14285714285717</ele><time>2026-05-02T08:25:10.382Z</time></trkpt><trkpt lat="39.496695" lon="8.5027833"><ele>380.0</ele><time>2026-05-02T08:25:11.385Z</time></trkpt><trkpt lat="39.4966183" lon="8.502785"><ele>380.0</ele><time>2026-05-02T08:25:12.382Z</time></trkpt><trkpt lat="39.4965417" lon="8.5027883"><ele>380.0</ele><time>2026-05-02T08:25:13.383Z</time></trkpt><trkpt lat="39.4964667" lon="8.5027917"><ele>380.0</ele><time>2026-05-02T08:25:14.389Z</time></trkpt><trkpt lat="39.49639" lon="8.5027983"><ele>380.0</ele><time>2026-05-02T08:25:15.384Z</time></trkpt><trkpt lat="39.496315" lon="8.5028033"><ele>380.0</ele><time>2026-05-02T08:25:16.383Z</time></trkpt><trkpt lat="39.4962433" lon="8.5028"><ele>380.0</ele><time>2026-05-02T08:25:17.385Z</time></trkpt><trkpt lat="39.4961717" lon="8.5027933"><ele>380.0</ele><time>2026-05-02T08:25:18.384Z</time></trkpt><trkpt lat="39.4960983" lon="8.50277"><ele>380.33333333333337</ele><time>2026-05-02T08:25:19.384Z</time></trkpt><trkpt lat="39.4960217" lon="8.5027383"><ele>380.6666666666667</ele><time>2026-05-02T08:25:20.386Z</time></trkpt><trkpt lat="39.49595" lon="8.5027083"><ele>381.0</ele><time>2026-05-02T08:25:21.38Z</time></trkpt><trkpt lat="39.4958817" lon="8.5026833"><ele>381.3333333333333</ele><time>2026-05-02T08:25:22.384Z</time></trkpt><trkpt lat="39.495815" lon="8.5026617"><ele>381.66666666666663</ele><time>2026-05-02T08:25:23.383Z</time></trkpt><trkpt lat="39.49575" lon="8.5026383"><ele>382.0</ele><time>2026-05-02T08:25:24.382Z</time></trkpt><trkpt lat="39.4956317" lon="8.5026233"><ele>382.0</ele><time>2026-05-02T08:25:26.38Z</time></trkpt><trkpt lat="39.495525" lon="8.5026517"><ele>382.0</ele><time>2026-05-02T08:25:28.381Z</time></trkpt><trkpt lat="39.4954217" lon="8.50273"><ele>382.0</ele><time>2026-05-02T08:25:30.379Z</time></trkpt><trkpt lat="39.495365" lon="8.5027717"><ele>382.0</ele><time>2026-05-02T08:25:31.384Z</time></trkpt><trkpt lat="39.495255" lon="8.50282"><ele>382.0</ele><time>2026-05-02T08:25:33.38Z</time></trkpt><trkpt lat="39.49514" lon="8.50283"><ele>382.20000000000005</ele><time>2026-05-02T08:25:35.385Z</time></trkpt><trkpt lat="39.4950367" lon="8.5028083"><ele>382.4</ele><time>2026-05-02T08:25:37.384Z</time></trkpt><trkpt lat="39.4949667" lon="8.50274"><ele>382.6</ele><time>2026-05-02T08:25:39.385Z</time></trkpt><trkpt lat="39.4948867" lon="8.5027083"><ele>382.79999999999995</ele><time>2026-05-02T08:25:41.381Z</time></trkpt><trkpt lat="39.4947733" lon="8.5027217"><ele>383.0</ele><time>2026-05-02T08:25:43.383Z</time></trkpt><trkpt lat="39.494645" lon="8.50275"><ele>386.79999999999995</ele><time>2026-05-02T08:25:45.386Z</time></trkpt><trkpt lat="39.4945833" lon="8.50277"><ele>390.6</ele><time>2026-05-02T08:25:46.382Z</time></trkpt><trkpt lat="39.4944717" lon="8.5027783"><ele>394.4</ele><time>2026-05-02T08:25:48.385Z</time></trkpt><trkpt lat="39.4943667" lon="8.5027617"><ele>398.20000000000005</ele><time>2026-05-02T08:25:50.39Z</time></trkpt><trkpt lat="39.494265" lon="8.5027083"><ele>402.0</ele><time>2026-05-02T08:25:52.379Z</time></trkpt><trkpt lat="39.4941917" lon="8.5026"><ele>402.0</ele><time>2026-05-02T08:25:54.383Z</time></trkpt><trkpt lat="39.4941617" lon="8.5024467"><ele>402.0</ele><time>2026-05-02T08:25:56.399Z</time></trkpt><trkpt lat="39.4941733" lon="8.5023483"><ele>402.0</ele><time>2026-05-02T08:25:57.382Z</time></trkpt><trkpt lat="39.4941717" lon="8.5022633"><ele>402.0</ele><time>2026-05-02T08:25:58.378Z</time></trkpt><trkpt lat="39.4941867" lon="8.5021617"><ele>402.0</ele><time>2026-05-02T08:25:59.383Z</time></trkpt><trkpt lat="39.4942067" lon="8.5020567"><ele>402.0</ele><time>2026-05-02T08:26:00.384Z</time></trkpt><trkpt lat="39.494225" lon="8.5019567"><ele>399.6666666666667</ele><time>2026-05-02T08:26:01.387Z</time></trkpt><trkpt lat="39.4942483" lon="8.5018617"><ele>397.33333333333337</ele><time>2026-05-02T08:26:02.384Z</time></trkpt><trkpt lat="39.4942583" lon="8.5017717"><ele>395.0</ele><time>2026-05-02T08:26:03.383Z</time></trkpt><trkpt lat="39.4942567" lon="8.501685"><ele>392.6666666666667</ele><time>2026-05-02T08:26:04.386Z</time></trkpt><trkpt lat="39.4942483" lon="8.5016"><ele>390.33333333333337</ele><time>2026-05-02T08:26:05.383Z</time></trkpt><trkpt lat="39.4942083" lon="8.5014633"><ele>388.0</ele><time>2026-05-02T08:26:07.384Z</time></trkpt><trkpt lat="39.49412" lon="8.5013783"><ele>388.0</ele><time>2026-05-02T08:26:09.383Z</time></trkpt><trkpt lat="39.4940083" lon="8.501335"><ele>388.0</ele><time>2026-05-02T08:26:11.385Z</time></trkpt><trkpt lat="39.4938917" lon="8.50134"><ele>388.0</ele><time>2026-05-02T08:26:13.385Z</time></trkpt><trkpt lat="39.4938067" lon="8.5014083"><ele>388.0</ele><time>2026-05-02T08:26:15.383Z</time></trkpt><trkpt lat="39.4937367" lon="8.501525"><ele>388.0</ele><time>2026-05-02T08:26:17.382Z</time></trkpt><trkpt lat="39.4937017" lon="8.5015967"><ele>388.4285714285714</ele><time>2026-05-02T08:26:18.385Z</time></trkpt><trkpt lat="39.4936617" lon="8.50167"><ele>388.8571428571429</ele><time>2026-05-02T08:26:19.385Z</time></trkpt><trkpt lat="39.4936133" lon="8.501735"><ele>389.2857142857143</ele><time>2026-05-02T08:26:20.39Z</time></trkpt><trkpt lat="39.4935583" lon="8.5017883"><ele>389.71428571428567</ele><time>2026-05-02T08:26:21.382Z</time></trkpt><trkpt lat="39.4934967" lon="8.5018317"><ele>390.1428571428571</ele><time>2026-05-02T08:26:22.388Z</time></trkpt><trkpt lat="39.4934233" lon="8.5018633"><ele>390.57142857142856</ele><time>2026-05-02T08:26:23.384Z</time></trkpt><trkpt lat="39.4933533" lon="8.5018883"><ele>391.0</ele><time>2026-05-02T08:26:24.384Z</time></trkpt><trkpt lat="39.49328" lon="8.501905"><ele>391.00000000000006</ele><time>2026-05-02T08:26:25.383Z</time></trkpt><trkpt lat="39.4932083" lon="8.5019233"><ele>391.0</ele><time>2026-05-02T08:26:26.445Z</time></trkpt><trkpt lat="39.4931383" lon="8.5019317"><ele>391.0</ele><time>2026-05-02T08:26:27.382Z</time></trkpt><trkpt lat="39.49307" lon="8.5019333"><ele>391.0</ele><time>2026-05-02T08:26:28.384Z</time></trkpt><trkpt lat="39.493005" lon="8.5019233"><ele>391.00000000000006</ele><time>2026-05-02T08:26:29.381Z</time></trkpt><trkpt lat="39.492945" lon="8.5018967"><ele>391.0</ele><time>2026-05-02T08:26:30.382Z</time></trkpt><trkpt lat="39.4928367" lon="8.50181"><ele>393.50000000000006</ele><time>2026-05-02T08:26:32.407Z</time></trkpt><trkpt lat="39.4927767" lon="8.5017567"><ele>396.0</ele><time>2026-05-02T08:26:33.383Z</time></trkpt><trkpt lat="39.4927117" lon="8.5016983"><ele>398.5</ele><time>2026-05-02T08:26:34.379Z</time></trkpt><trkpt lat="39.49265" lon="8.50163"><ele>401.0</ele><time>2026-05-02T08:26:35.385Z</time></trkpt><trkpt lat="39.4925867" lon="8.5015667"><ele>403.50000000000006</ele><time>2026-05-02T08:26:36.385Z</time></trkpt><trkpt lat="39.49252" lon="8.5015117"><ele>406.0</ele><time>2026-05-02T08:26:37.383Z</time></trkpt><trkpt lat="39.4924517" lon="8.5014583"><ele>406.0</ele><time>2026-05-02T08:26:38.386Z</time></trkpt><trkpt lat="39.49239" lon="8.5014117"><ele>406.0</ele><time>2026-05-02T08:26:39.383Z</time></trkpt><trkpt lat="39.492325" lon="8.5013667"><ele>406.0</ele><time>2026-05-02T08:26:40.382Z</time></trkpt><trkpt lat="39.4922633" lon="8.5013383"><ele>406.0</ele><time>2026-05-02T08:26:41.382Z</time></trkpt><trkpt lat="39.4921983" lon="8.501335"><ele>406.0</ele><time>2026-05-02T08:26:42.38Z</time></trkpt><trkpt lat="39.49213" lon="8.501345"><ele>406.0</ele><time>2026-05-02T08:26:43.379Z</time></trkpt><trkpt lat="39.4920617" lon="8.5013667"><ele>406.0</ele><time>2026-05-02T08:26:44.385Z</time></trkpt><trkpt lat="39.491985" lon="8.5013883"><ele>407.6666666666667</ele><time>2026-05-02T08:26:45.384Z</time></trkpt><trkpt lat="39.491905" lon="8.50141"><ele>409.33333333333337</ele><time>2026-05-02T08:26:46.381Z</time></trkpt><trkpt lat="39.4918283" lon="8.5014333"><ele>411.0</ele><time>2026-05-02T08:26:47.382Z</time></trkpt><trkpt lat="39.4917533" lon="8.501445"><ele>412.66666666666663</ele><time>2026-05-02T08:26:48.383Z</time></trkpt><trkpt lat="39.49168" lon="8.501445"><ele>414.3333333333333</ele><time>2026-05-02T08:26:49.379Z</time></trkpt><trkpt lat="39.4916067" lon="8.5014367"><ele>416.0</ele><time>2026-05-02T08:26:50.389Z</time></trkpt><trkpt lat="39.4915367" lon="8.5014183"><ele>416.0</ele><time>2026-05-02T08:26:51.379Z</time></trkpt><trkpt lat="39.491475" lon="8.50138"><ele>416.0</ele><time>2026-05-02T08:26:52.381Z</time></trkpt><trkpt lat="39.4913683" lon="8.5013133"><ele>416.0</ele><time>2026-05-02T08:26:54.384Z</time></trkpt><trkpt lat="39.4912533" lon="8.501305"><ele>416.0</ele><time>2026-05-02T08:26:56.384Z</time></trkpt><trkpt lat="39.491135" lon="8.5013117"><ele>416.0</ele><time>2026-05-02T08:26:58.382Z</time></trkpt><trkpt lat="39.4910333" lon="8.5012833"><ele>413.8</ele><time>2026-05-02T08:27:00.387Z</time></trkpt><trkpt lat="39.4909533" lon="8.5012133"><ele>411.6</ele><time>2026-05-02T08:27:02.383Z</time></trkpt><trkpt lat="39.4908883" lon="8.5011133"><ele>409.4</ele><time>2026-05-02T08:27:04.383Z</time></trkpt><trkpt lat="39.4908233" lon="8.5009783"><ele>407.2</ele><time>2026-05-02T08:27:06.384Z</time></trkpt><trkpt lat="39.4907967" lon="8.5008933"><ele>405.0</ele><time>2026-05-02T08:27:07.381Z</time></trkpt><trkpt lat="39.49077" lon="8.5008117"><ele>405.0</ele><time>2026-05-02T08:27:08.388Z</time></trkpt><trkpt lat="39.4907483" lon="8.5007183"><ele>405.0</ele><time>2026-05-02T08:27:09.381Z</time></trkpt><trkpt lat="39.4907333" lon="8.50062"><ele>405.0</ele><time>2026-05-02T08:27:10.38Z</time></trkpt><trkpt lat="39.4907283" lon="8.50053"><ele>405.0</ele><time>2026-05-02T08:27:11.385Z</time></trkpt><trkpt lat="39.4907267" lon="8.5004083"><ele>405.0</ele><time>2026-05-02T08:27:12.387Z</time></trkpt><trkpt lat="39.49074" lon="8.5003167"><ele>405.0</ele><time>2026-05-02T08:27:13.382Z</time></trkpt><trkpt lat="39.4907567" lon="8.5002283"><ele>404.1428571428571</ele><time>2026-05-02T08:27:14.387Z</time></trkpt><trkpt lat="39.49078" lon="8.50014"><ele>403.2857142857143</ele><time>2026-05-02T08:27:15.385Z</time></trkpt><trkpt lat="39.4908083" lon="8.500045"><ele>402.42857142857144</ele><time>2026-05-02T08:27:16.378Z</time></trkpt><trkpt lat="39.4908333" lon="8.49996"><ele>401.57142857142856</ele><time>2026-05-02T08:27:17.382Z</time></trkpt><trkpt lat="39.490855" lon="8.4998817"><ele>400.7142857142857</ele><time>2026-05-02T08:27:18.383Z</time></trkpt><trkpt lat="39.4908767" lon="8.4998"><ele>399.85714285714283</ele><time>2026-05-02T08:27:19.381Z</time></trkpt><trkpt lat="39.4908867" lon="8.4997167"><ele>399.0</ele><time>2026-05-02T08:27:20.388Z</time></trkpt><trkpt lat="39.4908917" lon="8.49959"><ele>397.7142857142857</ele><time>2026-05-02T08:27:22.383Z</time></trkpt><trkpt lat="39.49088" lon="8.4994983"><ele>396.42857142857144</ele><time>2026-05-02T08:27:24.383Z</time></trkpt><trkpt lat="39.4908917" lon="8.4994167"><ele>395.1428571428571</ele><time>2026-05-02T08:27:26.448Z</time></trkpt><trkpt lat="39.490845" lon="8.49936"><ele>393.8571428571429</ele><time>2026-05-02T08:27:28.382Z</time></trkpt><trkpt lat="39.4907867" lon="8.4993283"><ele>392.57142857142856</ele><time>2026-05-02T08:27:30.386Z</time></trkpt><trkpt lat="39.4907067" lon="8.4993567"><ele>391.2857142857143</ele><time>2026-05-02T08:27:33.381Z</time></trkpt><trkpt lat="39.490625" lon="8.4993783"><ele>390.0</ele><time>2026-05-02T08:27:35.38Z</time></trkpt><trkpt lat="39.4905133" lon="8.499415"><ele>393.4</ele><time>2026-05-02T08:27:37.385Z</time></trkpt><trkpt lat="39.4904133" lon="8.49945"><ele>396.8</ele><time>2026-05-02T08:27:39.386Z</time></trkpt><trkpt lat="39.49031" lon="8.499455"><ele>400.20000000000005</ele><time>2026-05-02T08:27:41.385Z</time></trkpt><trkpt lat="39.490215" lon="8.4994167"><ele>403.6</ele><time>2026-05-02T08:27:43.384Z</time></trkpt><trkpt lat="39.4901183" lon="8.4993383"><ele>407.0</ele><time>2026-05-02T08:27:45.378Z</time></trkpt><trkpt lat="39.4900283" lon="8.4992417"><ele>407.0</ele><time>2026-05-02T08:27:47.384Z</time></trkpt><trkpt lat="39.48994" lon="8.4991867"><ele>407.0</ele><time>2026-05-02T08:27:49.385Z</time></trkpt><trkpt lat="39.4898417" lon="8.4991383"><ele>407.0</ele><time>2026-05-02T08:27:51.38Z</time></trkpt><trkpt lat="39.489735" lon="8.4990917"><ele>407.0</ele><time>2026-05-02T08:27:53.385Z</time></trkpt><trkpt lat="39.4896333" lon="8.499025"><ele>407.0</ele><time>2026-05-02T08:27:55.385Z</time></trkpt><trkpt lat="39.48952" lon="8.49897"><ele>411.0</ele><time>2026-05-02T08:27:57.381Z</time></trkpt><trkpt lat="39.4894033" lon="8.4989317"><ele>415.0</ele><time>2026-05-02T08:27:59.384Z</time></trkpt><trkpt lat="39.4893" lon="8.4989017"><ele>419.0</ele><time>2026-05-02T08:28:01.385Z</time></trkpt><trkpt lat="39.48919" lon="8.4988533"><ele>423.0</ele><time>2026-05-02T08:28:03.384Z</time></trkpt><trkpt lat="39.4890817" lon="8.498805"><ele>423.0</ele><time>2026-05-02T08:28:05.38Z</time></trkpt><trkpt lat="39.488985" lon="8.49876"><ele>423.0</ele><time>2026-05-02T08:28:07.385Z</time></trkpt><trkpt lat="39.4889167" lon="8.4987317"><ele>423.0</ele><time>2026-05-02T08:28:09.382Z</time></trkpt><trkpt lat="39.4888533" lon="8.4986383"><ele>423.0</ele><time>2026-05-02T08:28:11.383Z</time></trkpt><trkpt lat="39.48878" lon="8.49849"><ele>423.0</ele><time>2026-05-02T08:28:13.381Z</time></trkpt><trkpt lat="39.4887433" lon="8.4983933"><ele>421.5</ele><time>2026-05-02T08:28:14.389Z</time></trkpt><trkpt lat="39.4887017" lon="8.4983083"><ele>420.0</ele><time>2026-05-02T08:28:15.379Z</time></trkpt><trkpt lat="39.48865" lon="8.49823"><ele>418.5</ele><time>2026-05-02T08:28:16.38Z</time></trkpt><trkpt lat="39.4885867" lon="8.4981783"><ele>417.0</ele><time>2026-05-02T08:28:17.386Z</time></trkpt><trkpt lat="39.488505" lon="8.498145"><ele>415.5</ele><time>2026-05-02T08:28:18.383Z</time></trkpt><trkpt lat="39.4884083" lon="8.4981317"><ele>414.0</ele><time>2026-05-02T08:28:19.38Z</time></trkpt><trkpt lat="39.4883117" lon="8.4981333"><ele>414.0</ele><time>2026-05-02T08:28:20.385Z</time></trkpt><trkpt lat="39.488225" lon="8.4981583"><ele>414.0</ele><time>2026-05-02T08:28:21.378Z</time></trkpt><trkpt lat="39.4881217" lon="8.4982033"><ele>414.0</ele><time>2026-05-02T08:28:22.381Z</time></trkpt><trkpt lat="39.4880083" lon="8.4982433"><ele>414.0</ele><time>2026-05-02T08:28:23.383Z</time></trkpt><trkpt lat="39.4879267" lon="8.4982483"><ele>414.0</ele><time>2026-05-02T08:28:24.38Z</time></trkpt><trkpt lat="39.48785" lon="8.49826"><ele>412.3333333333333</ele><time>2026-05-02T08:28:25.379Z</time></trkpt><trkpt lat="39.4877867" lon="8.4982617"><ele>410.66666666666663</ele><time>2026-05-02T08:28:26.382Z</time></trkpt><trkpt lat="39.48772" lon="8.498275"><ele>409.0</ele><time>2026-05-02T08:28:27.379Z</time></trkpt><trkpt lat="39.48765" lon="8.4983"><ele>407.3333333333333</ele><time>2026-05-02T08:28:28.378Z</time></trkpt><trkpt lat="39.48757" lon="8.49834"><ele>405.66666666666663</ele><time>2026-05-02T08:28:29.381Z</time></trkpt><trkpt lat="39.4874883" lon="8.4983883"><ele>404.0</ele><time>2026-05-02T08:28:30.383Z</time></trkpt><trkpt lat="39.4874017" lon="8.49845"><ele>404.0</ele><time>2026-05-02T08:28:31.382Z</time></trkpt><trkpt lat="39.4873167" lon="8.498505"><ele>404.0</ele><time>2026-05-02T08:28:32.382Z</time></trkpt><trkpt lat="39.4872317" lon="8.4985633"><ele>404.0</ele><time>2026-05-02T08:28:33.383Z</time></trkpt><trkpt lat="39.4871317" lon="8.49862"><ele>404.0</ele><time>2026-05-02T08:28:34.382Z</time></trkpt><trkpt lat="39.4870283" lon="8.4986767"><ele>404.0</ele><time>2026-05-02T08:28:35.382Z</time></trkpt><trkpt lat="39.48691" lon="8.4986683"><ele>401.0</ele><time>2026-05-02T08:28:36.383Z</time></trkpt><trkpt lat="39.4867933" lon="8.4986283"><ele>398.0</ele><time>2026-05-02T08:28:37.382Z</time></trkpt><trkpt lat="39.4866517" lon="8.49861"><ele>395.0</ele><time>2026-05-02T08:28:38.385Z</time></trkpt><trkpt lat="39.4865183" lon="8.4985717"><ele>392.0</ele><time>2026-05-02T08:28:39.381Z</time></trkpt><trkpt lat="39.4863383" lon="8.49854"><ele>392.66666666666663</ele><time>2026-05-02T08:28:40.381Z</time></trkpt><trkpt lat="39.4861917" lon="8.49851"><ele>393.33333333333337</ele><time>2026-05-02T08:28:41.381Z</time></trkpt><trkpt lat="39.4860367" lon="8.4984567"><ele>394.0</ele><time>2026-05-02T08:28:42.379Z</time></trkpt><trkpt lat="39.4858767" lon="8.4983933"><ele>394.0</ele><time>2026-05-02T08:28:43.383Z</time></trkpt><trkpt lat="39.485725" lon="8.4983283"><ele>394.0</ele><time>2026-05-02T08:28:44.386Z</time></trkpt><trkpt lat="39.4855867" lon="8.4982633"><ele>394.0</ele><time>2026-05-02T08:28:45.379Z</time></trkpt><trkpt lat="39.48547" lon="8.4982117"><ele>394.0</ele><time>2026-05-02T08:28:46.381Z</time></trkpt><trkpt lat="39.48536" lon="8.4981633"><ele>391.6</ele><time>2026-05-02T08:28:47.379Z</time></trkpt><trkpt lat="39.4852583" lon="8.4980817"><ele>389.2</ele><time>2026-05-02T08:28:48.382Z</time></trkpt><trkpt lat="39.485175" lon="8.4980283"><ele>386.8</ele><time>2026-05-02T08:28:49.383Z</time></trkpt><trkpt lat="39.4851117" lon="8.497945"><ele>384.40000000000003</ele><time>2026-05-02T08:28:50.39Z</time></trkpt><trkpt lat="39.4850533" lon="8.497845"><ele>382.0</ele><time>2026-05-02T08:28:51.383Z</time></trkpt><trkpt lat="39.4850817" lon="8.4977067"><ele>382.0</ele><time>2026-05-02T08:28:52.383Z</time></trkpt><trkpt lat="39.4851083" lon="8.4975783"><ele>382.0</ele><time>2026-05-02T08:28:53.382Z</time></trkpt><trkpt lat="39.4851433" lon="8.4974333"><ele>382.0</ele><time>2026-05-02T08:28:54.38Z</time></trkpt><trkpt lat="39.4851533" lon="8.4973167"><ele>382.0</ele><time>2026-05-02T08:28:55.381Z</time></trkpt><trkpt lat="39.4851433" lon="8.4972183"><ele>382.0</ele><time>2026-05-02T08:28:56.383Z</time></trkpt><trkpt lat="39.4851217" lon="8.4971383"><ele>379.20000000000005</ele><time>2026-05-02T08:28:57.381Z</time></trkpt><trkpt lat="39.4850317" lon="8.497055"><ele>376.4</ele><time>2026-05-02T08:28:59.379Z</time></trkpt><trkpt lat="39.4849417" lon="8.49703"><ele>373.6</ele><time>2026-05-02T08:29:00.38Z</time></trkpt><trkpt lat="39.4848333" lon="8.4970067"><ele>370.79999999999995</ele><time>2026-05-02T08:29:01.378Z</time></trkpt><trkpt lat="39.48472" lon="8.4969767"><ele>368.0</ele><time>2026-05-02T08:29:02.383Z</time></trkpt><trkpt lat="39.4846" lon="8.49694"><ele>367.5</ele><time>2026-05-02T08:29:03.381Z</time></trkpt><trkpt lat="39.4844667" lon="8.496905"><ele>367.0</ele><time>2026-05-02T08:29:04.382Z</time></trkpt><trkpt lat="39.4843317" lon="8.496865"><ele>366.5</ele><time>2026-05-02T08:29:05.378Z</time></trkpt><trkpt lat="39.48419" lon="8.4968233"><ele>366.0</ele><time>2026-05-02T08:29:06.383Z</time></trkpt><trkpt lat="39.4840483" lon="8.4967867"><ele>366.0</ele><time>2026-05-02T08:29:07.38Z</time></trkpt><trkpt lat="39.4839133" lon="8.496755"><ele>366.0</ele><time>2026-05-02T08:29:08.387Z</time></trkpt><trkpt lat="39.4837883" lon="8.49672"><ele>366.0</ele><time>2026-05-02T08:29:09.378Z</time></trkpt><trkpt lat="39.483665" lon="8.49668"><ele>366.0</ele><time>2026-05-02T08:29:10.378Z</time></trkpt><trkpt lat="39.48355" lon="8.4966183"><ele>364.75</ele><time>2026-05-02T08:29:11.386Z</time></trkpt><trkpt lat="39.4834383" lon="8.4965417"><ele>363.5</ele><time>2026-05-02T08:29:12.379Z</time></trkpt><trkpt lat="39.4833283" lon="8.49645"><ele>362.25</ele><time>2026-05-02T08:29:13.381Z</time></trkpt><trkpt lat="39.4832267" lon="8.4963417"><ele>361.0</ele><time>2026-05-02T08:29:14.386Z</time></trkpt><trkpt lat="39.4831333" lon="8.49623"><ele>361.0</ele><time>2026-05-02T08:29:15.383Z</time></trkpt><trkpt lat="39.4830433" lon="8.4961383"><ele>361.0</ele><time>2026-05-02T08:29:16.384Z</time></trkpt><trkpt lat="39.48295" lon="8.4960683"><ele>361.0</ele><time>2026-05-02T08:29:17.383Z</time></trkpt><trkpt lat="39.4828567" lon="8.4960117"><ele>361.0</ele><time>2026-05-02T08:29:18.377Z</time></trkpt><trkpt lat="39.4827617" lon="8.4959783"><ele>361.0</ele><time>2026-05-02T08:29:19.383Z</time></trkpt><trkpt lat="39.482645" lon="8.49595"><ele>362.0</ele><time>2026-05-02T08:29:20.386Z</time></trkpt><trkpt lat="39.4825367" lon="8.4959267"><ele>363.0</ele><time>2026-05-02T08:29:21.384Z</time></trkpt><trkpt lat="39.4824433" lon="8.495875"><ele>364.0</ele><time>2026-05-02T08:29:22.384Z</time></trkpt><trkpt lat="39.4823717" lon="8.4958067"><ele>365.0</ele><time>2026-05-02T08:29:23.38Z</time></trkpt><trkpt lat="39.4823133" lon="8.495745"><ele>366.0</ele><time>2026-05-02T08:29:24.382Z</time></trkpt><trkpt lat="39.4822633" lon="8.4956733"><ele>366.0</ele><time>2026-05-02T08:29:25.38Z</time></trkpt><trkpt lat="39.48229" lon="8.4955517"><ele>366.0</ele><time>2026-05-02T08:29:26.38Z</time></trkpt><trkpt lat="39.4823433" lon="8.495405"><ele>366.0</ele><time>2026-05-02T08:29:27.38Z</time></trkpt><trkpt lat="39.4824167" lon="8.4952367"><ele>366.0</ele><time>2026-05-02T08:29:28.382Z</time></trkpt><trkpt lat="39.4824933" lon="8.4950517"><ele>370.3333333333333</ele><time>2026-05-02T08:29:29.383Z</time></trkpt><trkpt lat="39.4825683" lon="8.4948617"><ele>374.66666666666663</ele><time>2026-05-02T08:29:30.383Z</time></trkpt><trkpt lat="39.482625" lon="8.4946883"><ele>379.0</ele><time>2026-05-02T08:29:31.383Z</time></trkpt><trkpt lat="39.4826817" lon="8.4945167"><ele>381.0</ele><time>2026-05-02T08:29:32.384Z</time></trkpt><trkpt lat="39.482765" lon="8.4943183"><ele>383.0</ele><time>2026-05-02T08:29:33.384Z</time></trkpt><trkpt lat="39.4828083" lon="8.49419"><ele>385.0</ele><time>2026-05-02T08:29:34.383Z</time></trkpt><trkpt lat="39.48283" lon="8.4940783"><ele>387.0</ele><time>2026-05-02T08:29:35.377Z</time></trkpt><trkpt lat="39.4828017" lon="8.493975"><ele>387.0</ele><time>2026-05-02T08:29:36.387Z</time></trkpt><trkpt lat="39.4827383" lon="8.4938733"><ele>387.0</ele><time>2026-05-02T08:29:37.381Z</time></trkpt><trkpt lat="39.4826567" lon="8.49378"><ele>387.0</ele><time>2026-05-02T08:29:38.389Z</time></trkpt><trkpt lat="39.48256" lon="8.4936783"><ele>387.0</ele><time>2026-05-02T08:29:39.378Z</time></trkpt><trkpt lat="39.4824433" lon="8.493595"><ele>388.5</ele><time>2026-05-02T08:29:40.383Z</time></trkpt><trkpt lat="39.48231" lon="8.493525"><ele>390.0</ele><time>2026-05-02T08:29:41.377Z</time></trkpt><trkpt lat="39.4821733" lon="8.493455"><ele>391.5</ele><time>2026-05-02T08:29:42.383Z</time></trkpt><trkpt lat="39.48205" lon="8.4933767"><ele>393.0</ele><time>2026-05-02T08:29:43.379Z</time></trkpt><trkpt lat="39.481935" lon="8.4933017"><ele>393.0</ele><time>2026-05-02T08:29:44.388Z</time></trkpt><trkpt lat="39.4818217" lon="8.4932333"><ele>393.0</ele><time>2026-05-02T08:29:45.38Z</time></trkpt><trkpt lat="39.4817067" lon="8.493185"><ele>393.0</ele><time>2026-05-02T08:29:46.382Z</time></trkpt><trkpt lat="39.481595" lon="8.4931517"><ele>393.0</ele><time>2026-05-02T08:29:47.382Z</time></trkpt><trkpt lat="39.4814683" lon="8.4931417"><ele>393.0</ele><time>2026-05-02T08:29:48.377Z</time></trkpt><trkpt lat="39.4813417" lon="8.49312"><ele>393.0</ele><time>2026-05-02T08:29:49.384Z</time></trkpt><trkpt lat="39.481215" lon="8.49308"><ele>393.0</ele><time>2026-05-02T08:29:50.383Z</time></trkpt><trkpt lat="39.4810867" lon="8.49302"><ele>393.0</ele><time>2026-05-02T08:29:51.381Z</time></trkpt><trkpt lat="39.4809633" lon="8.492945"><ele>393.0</ele><time>2026-05-02T08:29:52.382Z</time></trkpt><trkpt lat="39.4808367" lon="8.4928717"><ele>393.0</ele><time>2026-05-02T08:29:53.381Z</time></trkpt><trkpt lat="39.480705" lon="8.4928"><ele>393.0</ele><time>2026-05-02T08:29:54.384Z</time></trkpt><trkpt lat="39.480575" lon="8.4927267"><ele>393.0</ele><time>2026-05-02T08:29:55.378Z</time></trkpt><trkpt lat="39.4804533" lon="8.492645"><ele>393.25</ele><time>2026-05-02T08:29:56.447Z</time></trkpt><trkpt lat="39.48034" lon="8.4925583"><ele>393.5</ele><time>2026-05-02T08:29:57.382Z</time></trkpt><trkpt lat="39.48024" lon="8.4924633"><ele>393.75</ele><time>2026-05-02T08:29:58.38Z</time></trkpt><trkpt lat="39.4801567" lon="8.4923533"><ele>394.0</ele><time>2026-05-02T08:29:59.381Z</time></trkpt><trkpt lat="39.4800867" lon="8.4922333"><ele>394.0</ele><time>2026-05-02T08:30:00.381Z</time></trkpt><trkpt lat="39.480025" lon="8.4920917"><ele>394.0</ele><time>2026-05-02T08:30:01.378Z</time></trkpt><trkpt lat="39.479975" lon="8.4919383"><ele>394.0</ele><time>2026-05-02T08:30:02.383Z</time></trkpt><trkpt lat="39.479925" lon="8.4917867"><ele>394.0</ele><time>2026-05-02T08:30:03.379Z</time></trkpt><trkpt lat="39.4798733" lon="8.49164"><ele>394.5</ele><time>2026-05-02T08:30:04.381Z</time></trkpt><trkpt lat="39.479815" lon="8.4915017"><ele>395.0</ele><time>2026-05-02T08:30:05.384Z</time></trkpt><trkpt lat="39.4797433" lon="8.491375"><ele>395.5</ele><time>2026-05-02T08:30:06.381Z</time></trkpt><trkpt lat="39.4796583" lon="8.4912683"><ele>396.0</ele><time>2026-05-02T08:30:07.38Z</time></trkpt><trkpt lat="39.479565" lon="8.4911767"><ele>395.0</ele><time>2026-05-02T08:30:08.384Z</time></trkpt><trkpt lat="39.479455" lon="8.491105"><ele>394.0</ele><time>2026-05-02T08:30:09.381Z</time></trkpt><trkpt lat="39.479325" lon="8.4910433"><ele>393.0</ele><time>2026-05-02T08:30:10.383Z</time></trkpt><trkpt lat="39.4791833" lon="8.4909933"><ele>392.0</ele><time>2026-05-02T08:30:11.382Z</time></trkpt><trkpt lat="39.4790367" lon="8.4909467"><ele>392.0</ele><time>2026-05-02T08:30:12.381Z</time></trkpt><trkpt lat="39.4788917" lon="8.4908983"><ele>392.0</ele><time>2026-05-02T08:30:13.381Z</time></trkpt><trkpt lat="39.478745" lon="8.49085"><ele>392.0</ele><time>2026-05-02T08:30:14.386Z</time></trkpt><trkpt lat="39.478595" lon="8.4908017"><ele>390.66666666666663</ele><time>2026-05-02T08:30:15.378Z</time></trkpt><trkpt lat="39.4784467" lon="8.4907567"><ele>389.33333333333337</ele><time>2026-05-02T08:30:16.381Z</time></trkpt><trkpt lat="39.4782983" lon="8.4907133"><ele>388.0</ele><time>2026-05-02T08:30:17.383Z</time></trkpt><trkpt lat="39.478155" lon="8.4906733"><ele>388.0</ele><time>2026-05-02T08:30:18.378Z</time></trkpt><trkpt lat="39.4780133" lon="8.4906367"><ele>388.0</ele><time>2026-05-02T08:30:19.383Z</time></trkpt><trkpt lat="39.477875" lon="8.4905967"><ele>388.0</ele><time>2026-05-02T08:30:20.389Z</time></trkpt><trkpt lat="39.4777383" lon="8.490555"><ele>388.0</ele><time>2026-05-02T08:30:21.381Z</time></trkpt><trkpt lat="39.4776017" lon="8.4905133"><ele>388.25</ele><time>2026-05-02T08:30:22.381Z</time></trkpt><trkpt lat="39.4774633" lon="8.49047"><ele>388.5</ele><time>2026-05-02T08:30:23.38Z</time></trkpt><trkpt lat="39.477325" lon="8.4904233"><ele>388.75</ele><time>2026-05-02T08:30:24.38Z</time></trkpt><trkpt lat="39.47719" lon="8.4903717"><ele>389.0</ele><time>2026-05-02T08:30:25.381Z</time></trkpt><trkpt lat="39.47706" lon="8.4903117"><ele>389.0</ele><time>2026-05-02T08:30:26.383Z</time></trkpt><trkpt lat="39.4769367" lon="8.490235"><ele>389.0</ele><time>2026-05-02T08:30:27.379Z</time></trkpt><trkpt lat="39.476815" lon="8.4901467"><ele>389.0</ele><time>2026-05-02T08:30:28.381Z</time></trkpt><trkpt lat="39.4766967" lon="8.4900317"><ele>389.0</ele><time>2026-05-02T08:30:29.383Z</time></trkpt><trkpt lat="39.4765883" lon="8.4899"><ele>389.0</ele><time>2026-05-02T08:30:30.382Z</time></trkpt><trkpt lat="39.4764767" lon="8.4897633"><ele>389.0</ele><time>2026-05-02T08:30:31.384Z</time></trkpt><trkpt lat="39.4763583" lon="8.48962"><ele>389.0</ele><time>2026-05-02T08:30:32.384Z</time></trkpt><trkpt lat="39.476245" lon="8.4894817"><ele>388.0</ele><time>2026-05-02T08:30:33.382Z</time></trkpt><trkpt lat="39.47614" lon="8.489345"><ele>387.0</ele><time>2026-05-02T08:30:34.383Z</time></trkpt><trkpt lat="39.476055" lon="8.4892"><ele>386.0</ele><time>2026-05-02T08:30:35.383Z</time></trkpt><trkpt lat="39.475985" lon="8.4890483"><ele>385.0</ele><time>2026-05-02T08:30:36.38Z</time></trkpt><trkpt lat="39.47593" lon="8.488895"><ele>385.2</ele><time>2026-05-02T08:30:37.382Z</time></trkpt><trkpt lat="39.4758967" lon="8.4887317"><ele>385.4</ele><time>2026-05-02T08:30:38.384Z</time></trkpt><trkpt lat="39.4758683" lon="8.4885883"><ele>385.6</ele><time>2026-05-02T08:30:39.382Z</time></trkpt><trkpt lat="39.47584" lon="8.48845"><ele>385.8</ele><time>2026-05-02T08:30:40.381Z</time></trkpt><trkpt lat="39.4758117" lon="8.4883417"><ele>386.0</ele><time>2026-05-02T08:30:41.383Z</time></trkpt><trkpt lat="39.47573" lon="8.4882417"><ele>386.0</ele><time>2026-05-02T08:30:42.386Z</time></trkpt><trkpt lat="39.4756433" lon="8.4881533"><ele>386.0</ele><time>2026-05-02T08:30:43.383Z</time></trkpt><trkpt lat="39.4755483" lon="8.4880617"><ele>386.0</ele><time>2026-05-02T08:30:44.389Z</time></trkpt><trkpt lat="39.4754633" lon="8.487955"><ele>386.0</ele><time>2026-05-02T08:30:45.381Z</time></trkpt><trkpt lat="39.4754117" lon="8.4878417"><ele>386.0</ele><time>2026-05-02T08:30:46.378Z</time></trkpt><trkpt lat="39.475385" lon="8.4876933"><ele>386.5</ele><time>2026-05-02T08:30:47.378Z</time></trkpt><trkpt lat="39.4753417" lon="8.4875417"><ele>387.0</ele><time>2026-05-02T08:30:48.384Z</time></trkpt><trkpt lat="39.4753" lon="8.4873683"><ele>387.5</ele><time>2026-05-02T08:30:49.382Z</time></trkpt><trkpt lat="39.4752483" lon="8.4872067"><ele>388.0</ele><time>2026-05-02T08:30:50.387Z</time></trkpt><trkpt lat="39.4752033" lon="8.48704"><ele>388.0</ele><time>2026-05-02T08:30:51.383Z</time></trkpt><trkpt lat="39.4751367" lon="8.4868733"><ele>388.0</ele><time>2026-05-02T08:30:52.38Z</time></trkpt><trkpt lat="39.4750617" lon="8.48672"><ele>388.0</ele><time>2026-05-02T08:30:53.383Z</time></trkpt><trkpt lat="39.4749767" lon="8.4865867"><ele>388.0</ele><time>2026-05-02T08:30:54.381Z</time></trkpt><trkpt lat="39.474865" lon="8.4864667"><ele>388.0</ele><time>2026-05-02T08:30:55.382Z</time></trkpt><trkpt lat="39.4747633" lon="8.4863617"><ele>388.0</ele><time>2026-05-02T08:30:56.379Z</time></trkpt><trkpt lat="39.47465" lon="8.4862367"><ele>388.0</ele><time>2026-05-02T08:30:57.379Z</time></trkpt><trkpt lat="39.4745183" lon="8.48612"><ele>388.0</ele><time>2026-05-02T08:30:58.378Z</time></trkpt><trkpt lat="39.4744133" lon="8.4859933"><ele>389.5</ele><time>2026-05-02T08:30:59.382Z</time></trkpt><trkpt lat="39.47431" lon="8.4858683"><ele>391.0</ele><time>2026-05-02T08:31:00.383Z</time></trkpt><trkpt lat="39.4742" lon="8.4857567"><ele>392.5</ele><time>2026-05-02T08:31:01.383Z</time></trkpt><trkpt lat="39.474085" lon="8.48564"><ele>394.0</ele><time>2026-05-02T08:31:02.382Z</time></trkpt><trkpt lat="39.4739767" lon="8.4855267"><ele>392.6666666666667</ele><time>2026-05-02T08:31:03.378Z</time></trkpt><trkpt lat="39.4738383" lon="8.4853967"><ele>391.33333333333337</ele><time>2026-05-02T08:31:04.381Z</time></trkpt><trkpt lat="39.47371" lon="8.4852617"><ele>390.0</ele><time>2026-05-02T08:31:05.381Z</time></trkpt><trkpt lat="39.473585" lon="8.4851317"><ele>393.0</ele><time>2026-05-02T08:31:06.382Z</time></trkpt><trkpt lat="39.4734633" lon="8.4850167"><ele>396.0</ele><time>2026-05-02T08:31:07.38Z</time></trkpt><trkpt lat="39.4733483" lon="8.4848967"><ele>399.0</ele><time>2026-05-02T08:31:08.388Z</time></trkpt><trkpt lat="39.4732417" lon="8.4847717"><ele>402.0</ele><time>2026-05-02T08:31:09.383Z</time></trkpt><trkpt lat="39.4731433" lon="8.4846733"><ele>403.0</ele><time>2026-05-02T08:31:10.381Z</time></trkpt><trkpt lat="39.4730567" lon="8.4845767"><ele>404.0</ele><time>2026-05-02T08:31:11.38Z</time></trkpt><trkpt lat="39.4729817" lon="8.4844767"><ele>405.0</ele><time>2026-05-02T08:31:12.382Z</time></trkpt><trkpt lat="39.47293" lon="8.4843683"><ele>406.0</ele><time>2026-05-02T08:31:13.378Z</time></trkpt><trkpt lat="39.472925" lon="8.4842717"><ele>407.0</ele><time>2026-05-02T08:31:14.387Z</time></trkpt><trkpt lat="39.4729333" lon="8.4841583"><ele>407.0</ele><time>2026-05-02T08:31:15.382Z</time></trkpt><trkpt lat="39.47295" lon="8.4840417"><ele>407.0</ele><time>2026-05-02T08:31:16.377Z</time></trkpt><trkpt lat="39.4729583" lon="8.4839267"><ele>407.0</ele><time>2026-05-02T08:31:17.379Z</time></trkpt><trkpt lat="39.473005" lon="8.4838017"><ele>407.0</ele><time>2026-05-02T08:31:18.38Z</time></trkpt><trkpt lat="39.47307" lon="8.48364"><ele>407.0</ele><time>2026-05-02T08:31:19.382Z</time></trkpt><trkpt lat="39.4730967" lon="8.483485"><ele>408.0</ele><time>2026-05-02T08:31:20.387Z</time></trkpt><trkpt lat="39.4731117" lon="8.48333"><ele>409.0</ele><time>2026-05-02T08:31:21.382Z</time></trkpt><trkpt lat="39.4731117" lon="8.48317"><ele>410.0</ele><time>2026-05-02T08:31:22.38Z</time></trkpt><trkpt lat="39.473105" lon="8.4830083"><ele>411.0</ele><time>2026-05-02T08:31:23.381Z</time></trkpt><trkpt lat="39.4730683" lon="8.48282"><ele>408.33333333333337</ele><time>2026-05-02T08:31:24.382Z</time></trkpt><trkpt lat="39.4730017" lon="8.4826467"><ele>405.6666666666667</ele><time>2026-05-02T08:31:25.381Z</time></trkpt><trkpt lat="39.47293" lon="8.4824467"><ele>403.0</ele><time>2026-05-02T08:31:26.38Z</time></trkpt><trkpt lat="39.4728533" lon="8.4823033"><ele>405.33333333333337</ele><time>2026-05-02T08:31:27.382Z</time></trkpt><trkpt lat="39.472745" lon="8.4821717"><ele>407.66666666666663</ele><time>2026-05-02T08:31:28.377Z</time></trkpt><trkpt lat="39.4726133" lon="8.4820233"><ele>410.0</ele><time>2026-05-02T08:31:29.379Z</time></trkpt><trkpt lat="39.4724833" lon="8.481885"><ele>410.0</ele><time>2026-05-02T08:31:30.376Z</time></trkpt><trkpt lat="39.4723583" lon="8.4817367"><ele>410.0</ele><time>2026-05-02T08:31:31.381Z</time></trkpt><trkpt lat="39.4722583" lon="8.4815483"><ele>410.0</ele><time>2026-05-02T08:31:32.385Z</time></trkpt><trkpt lat="39.472145" lon="8.4814217"><ele>409.75</ele><time>2026-05-02T08:31:33.378Z</time></trkpt><trkpt lat="39.4720383" lon="8.4812817"><ele>409.5</ele><time>2026-05-02T08:31:34.38Z</time></trkpt><trkpt lat="39.4719617" lon="8.48116"><ele>409.25</ele><time>2026-05-02T08:31:35.382Z</time></trkpt><trkpt lat="39.471875" lon="8.4810517"><ele>409.0</ele><time>2026-05-02T08:31:36.382Z</time></trkpt><trkpt lat="39.4718067" lon="8.48095"><ele>408.79999999999995</ele><time>2026-05-02T08:31:37.381Z</time></trkpt><trkpt lat="39.4717517" lon="8.48085"><ele>408.59999999999997</ele><time>2026-05-02T08:31:38.383Z</time></trkpt><trkpt lat="39.4717117" lon="8.480745"><ele>408.4</ele><time>2026-05-02T08:31:39.382Z</time></trkpt><trkpt lat="39.4716817" lon="8.4806567"><ele>408.2</ele><time>2026-05-02T08:31:40.38Z</time></trkpt><trkpt lat="39.47167" lon="8.4805683"><ele>408.0</ele><time>2026-05-02T08:31:41.376Z</time></trkpt><trkpt lat="39.4717617" lon="8.4804433"><ele>409.25</ele><time>2026-05-02T08:31:43.377Z</time></trkpt><trkpt lat="39.47183" lon="8.4803567"><ele>410.5</ele><time>2026-05-02T08:31:44.384Z</time></trkpt><trkpt lat="39.4719267" lon="8.480245"><ele>411.75</ele><time>2026-05-02T08:31:45.376Z</time></trkpt><trkpt lat="39.4720517" lon="8.480105"><ele>413.0</ele><time>2026-05-02T08:31:46.381Z</time></trkpt><trkpt lat="39.4721383" lon="8.4799767"><ele>413.0</ele><time>2026-05-02T08:31:47.38Z</time></trkpt><trkpt lat="39.472225" lon="8.4798367"><ele>413.0</ele><time>2026-05-02T08:31:48.379Z</time></trkpt><trkpt lat="39.4723033" lon="8.4797017"><ele>413.0</ele><time>2026-05-02T08:31:49.377Z</time></trkpt><trkpt lat="39.4723817" lon="8.4795733"><ele>413.0</ele><time>2026-05-02T08:31:50.386Z</time></trkpt><trkpt lat="39.4724683" lon="8.479455"><ele>417.66666666666663</ele><time>2026-05-02T08:31:51.382Z</time></trkpt><trkpt lat="39.472555" lon="8.479355"><ele>422.33333333333337</ele><time>2026-05-02T08:31:52.376Z</time></trkpt><trkpt lat="39.472675" lon="8.4792667"><ele>427.0</ele><time>2026-05-02T08:31:53.38Z</time></trkpt><trkpt lat="39.4728783" lon="8.4791483"><ele>425.0</ele><time>2026-05-02T08:31:54.379Z</time></trkpt><trkpt lat="39.4730467" lon="8.479125"><ele>423.0</ele><time>2026-05-02T08:31:55.378Z</time></trkpt><trkpt lat="39.4732117" lon="8.47913"><ele>421.0</ele><time>2026-05-02T08:31:56.383Z</time></trkpt><trkpt lat="39.4733867" lon="8.4791433"><ele>421.0</ele><time>2026-05-02T08:31:57.382Z</time></trkpt><trkpt lat="39.4735417" lon="8.4791567"><ele>421.0</ele><time>2026-05-02T08:31:58.375Z</time></trkpt><trkpt lat="39.47368" lon="8.479165"><ele>421.0</ele><time>2026-05-02T08:31:59.379Z</time></trkpt><trkpt lat="39.4737967" lon="8.4791633"><ele>421.0</ele><time>2026-05-02T08:32:00.378Z</time></trkpt><trkpt lat="39.4739" lon="8.4791367"><ele>418.8</ele><time>2026-05-02T08:32:01.378Z</time></trkpt><trkpt lat="39.4739933" lon="8.4790983"><ele>416.6</ele><time>2026-05-02T08:32:02.379Z</time></trkpt><trkpt lat="39.4740917" lon="8.4790417"><ele>414.4</ele><time>2026-05-02T08:32:03.38Z</time></trkpt><trkpt lat="39.4741817" lon="8.4789683"><ele>412.2</ele><time>2026-05-02T08:32:04.38Z</time></trkpt><trkpt lat="39.474245" lon="8.4788483"><ele>410.0</ele><time>2026-05-02T08:32:05.381Z</time></trkpt><trkpt lat="39.47429" lon="8.4787267"><ele>409.8</ele><time>2026-05-02T08:32:06.379Z</time></trkpt><trkpt lat="39.474315" lon="8.4785967"><ele>409.6</ele><time>2026-05-02T08:32:07.38Z</time></trkpt><trkpt lat="39.4743367" lon="8.4784767"><ele>409.4</ele><time>2026-05-02T08:32:08.389Z</time></trkpt><trkpt lat="39.4743367" lon="8.4783683"><ele>409.2</ele><time>2026-05-02T08:32:09.383Z</time></trkpt><trkpt lat="39.4743117" lon="8.478265"><ele>409.0</ele><time>2026-05-02T08:32:10.379Z</time></trkpt><trkpt lat="39.4742733" lon="8.4781333"><ele>409.0</ele><time>2026-05-02T08:32:11.378Z</time></trkpt><trkpt lat="39.4742317" lon="8.4780033"><ele>409.0</ele><time>2026-05-02T08:32:12.378Z</time></trkpt><trkpt lat="39.4741867" lon="8.4778517"><ele>409.0</ele><time>2026-05-02T08:32:13.381Z</time></trkpt><trkpt lat="39.47412" lon="8.47771"><ele>409.0</ele><time>2026-05-02T08:32:14.386Z</time></trkpt><trkpt lat="39.4740383" lon="8.477585"><ele>410.75</ele><time>2026-05-02T08:32:15.383Z</time></trkpt><trkpt lat="39.47393" lon="8.4774733"><ele>412.5</ele><time>2026-05-02T08:32:16.383Z</time></trkpt><trkpt lat="39.473815" lon="8.4773483"><ele>414.25</ele><time>2026-05-02T08:32:17.379Z</time></trkpt><trkpt lat="39.47371" lon="8.4772033"><ele>416.0</ele><time>2026-05-02T08:32:18.382Z</time></trkpt><trkpt lat="39.4736" lon="8.4770617"><ele>410.66666666666663</ele><time>2026-05-02T08:32:19.383Z</time></trkpt><trkpt lat="39.4734883" lon="8.4769267"><ele>405.33333333333337</ele><time>2026-05-02T08:32:20.389Z</time></trkpt><trkpt lat="39.4733667" lon="8.4768017"><ele>400.0</ele><time>2026-05-02T08:32:21.379Z</time></trkpt><trkpt lat="39.4732433" lon="8.476685"><ele>400.0</ele><time>2026-05-02T08:32:22.376Z</time></trkpt><trkpt lat="39.47313" lon="8.4765783"><ele>400.0</ele><time>2026-05-02T08:32:23.382Z</time></trkpt><trkpt lat="39.47302" lon="8.47649"><ele>400.0</ele><time>2026-05-02T08:32:24.38Z</time></trkpt><trkpt lat="39.4729" lon="8.4764117"><ele>400.0</ele><time>2026-05-02T08:32:25.38Z</time></trkpt><trkpt lat="39.4727517" lon="8.4763683"><ele>402.6666666666667</ele><time>2026-05-02T08:32:26.447Z</time></trkpt><trkpt lat="39.4726033" lon="8.4763367"><ele>405.33333333333337</ele><time>2026-05-02T08:32:27.381Z</time></trkpt><trkpt lat="39.4724517" lon="8.4763"><ele>408.0</ele><time>2026-05-02T08:32:28.381Z</time></trkpt><trkpt lat="39.4722917" lon="8.4762667"><ele>401.0</ele><time>2026-05-02T08:32:29.38Z</time></trkpt><trkpt lat="39.4721233" lon="8.4762367"><ele>394.0</ele><time>2026-05-02T08:32:30.38Z</time></trkpt><trkpt lat="39.4719517" lon="8.4762083"><ele>387.0</ele><time>2026-05-02T08:32:31.382Z</time></trkpt><trkpt lat="39.4717933" lon="8.4761883"><ele>387.0</ele><time>2026-05-02T08:32:32.397Z</time></trkpt><trkpt lat="39.47163" lon="8.4761633"><ele>387.0</ele><time>2026-05-02T08:32:33.383Z</time></trkpt><trkpt lat="39.4714767" lon="8.4761417"><ele>387.0</ele><time>2026-05-02T08:32:34.379Z</time></trkpt><trkpt lat="39.4713233" lon="8.47613"><ele>386.0</ele><time>2026-05-02T08:32:35.384Z</time></trkpt><trkpt lat="39.4711767" lon="8.4761183"><ele>385.0</ele><time>2026-05-02T08:32:36.378Z</time></trkpt><trkpt lat="39.4710483" lon="8.4760967"><ele>384.0</ele><time>2026-05-02T08:32:37.379Z</time></trkpt><trkpt lat="39.47093" lon="8.4760667"><ele>383.0</ele><time>2026-05-02T08:32:38.388Z</time></trkpt><trkpt lat="39.4708317" lon="8.4760333"><ele>383.0</ele><time>2026-05-02T08:32:39.382Z</time></trkpt><trkpt lat="39.470755" lon="8.4759883"><ele>383.0</ele><time>2026-05-02T08:32:40.381Z</time></trkpt><trkpt lat="39.470665" lon="8.47585"><ele>383.0</ele><time>2026-05-02T08:32:42.382Z</time></trkpt><trkpt lat="39.4706083" lon="8.4757717"><ele>383.0</ele><time>2026-05-02T08:32:43.382Z</time></trkpt><trkpt lat="39.470545" lon="8.475675"><ele>383.0</ele><time>2026-05-02T08:32:44.386Z</time></trkpt><trkpt lat="39.4704833" lon="8.47557"><ele>381.25</ele><time>2026-05-02T08:32:45.382Z</time></trkpt><trkpt lat="39.47043" lon="8.4754483"><ele>379.5</ele><time>2026-05-02T08:32:46.383Z</time></trkpt><trkpt lat="39.4704067" lon="8.4753117"><ele>377.75</ele><time>2026-05-02T08:32:47.379Z</time></trkpt><trkpt lat="39.4704817" lon="8.4750667"><ele>376.0</ele><time>2026-05-02T08:32:48.382Z</time></trkpt><trkpt lat="39.4705533" lon="8.4748667"><ele>376.0</ele><time>2026-05-02T08:32:49.382Z</time></trkpt><trkpt lat="39.4706317" lon="8.4746833"><ele>376.0</ele><time>2026-05-02T08:32:50.388Z</time></trkpt><trkpt lat="39.4707317" lon="8.4745"><ele>376.0</ele><time>2026-05-02T08:32:51.378Z</time></trkpt><trkpt lat="39.4708133" lon="8.4743317"><ele>376.75</ele><time>2026-05-02T08:32:52.378Z</time></trkpt><trkpt lat="39.4709133" lon="8.4741833"><ele>377.5</ele><time>2026-05-02T08:32:53.38Z</time></trkpt><trkpt lat="39.4710283" lon="8.47406"><ele>378.25</ele><time>2026-05-02T08:32:54.383Z</time></trkpt><trkpt lat="39.4711333" lon="8.4739283"><ele>379.0</ele><time>2026-05-02T08:32:55.38Z</time></trkpt><trkpt lat="39.471245" lon="8.4737883"><ele>381.5</ele><time>2026-05-02T08:32:56.378Z</time></trkpt><trkpt lat="39.47134" lon="8.4736517"><ele>384.0</ele><time>2026-05-02T08:32:57.38Z</time></trkpt><trkpt lat="39.47142" lon="8.4735"><ele>386.5</ele><time>2026-05-02T08:32:58.381Z</time></trkpt><trkpt lat="39.471485" lon="8.4733467"><ele>389.0</ele><time>2026-05-02T08:32:59.379Z</time></trkpt><trkpt lat="39.4715367" lon="8.4731867"><ele>389.0</ele><time>2026-05-02T08:33:00.381Z</time></trkpt><trkpt lat="39.4715733" lon="8.4730233"><ele>389.0</ele><time>2026-05-02T08:33:01.382Z</time></trkpt><trkpt lat="39.4715883" lon="8.4728567"><ele>389.0</ele><time>2026-05-02T08:33:02.376Z</time></trkpt><trkpt lat="39.47156" lon="8.4726917"><ele>389.0</ele><time>2026-05-02T08:33:03.377Z</time></trkpt><trkpt lat="39.47153" lon="8.4725317"><ele>388.25</ele><time>2026-05-02T08:33:04.383Z</time></trkpt><trkpt lat="39.4714867" lon="8.4723817"><ele>387.5</ele><time>2026-05-02T08:33:05.382Z</time></trkpt><trkpt lat="39.47144" lon="8.4722167"><ele>386.75</ele><time>2026-05-02T08:33:06.382Z</time></trkpt><trkpt lat="39.4713917" lon="8.4720467"><ele>386.0</ele><time>2026-05-02T08:33:07.377Z</time></trkpt><trkpt lat="39.4712983" lon="8.471925"><ele>388.25</ele><time>2026-05-02T08:33:08.388Z</time></trkpt><trkpt lat="39.4711867" lon="8.4718683"><ele>390.5</ele><time>2026-05-02T08:33:09.38Z</time></trkpt><trkpt lat="39.4710683" lon="8.471785"><ele>392.75</ele><time>2026-05-02T08:33:10.381Z</time></trkpt><trkpt lat="39.47095" lon="8.4716967"><ele>395.0</ele><time>2026-05-02T08:33:11.38Z</time></trkpt><trkpt lat="39.4708517" lon="8.47158"><ele>395.0</ele><time>2026-05-02T08:33:12.382Z</time></trkpt><trkpt lat="39.4707317" lon="8.471485"><ele>395.0</ele><time>2026-05-02T08:33:13.381Z</time></trkpt><trkpt lat="39.4706067" lon="8.47145"><ele>395.0</ele><time>2026-05-02T08:33:14.386Z</time></trkpt><trkpt lat="39.4705133" lon="8.47139"><ele>395.0</ele><time>2026-05-02T08:33:15.38Z</time></trkpt><trkpt lat="39.470445" lon="8.47131"><ele>395.16666666666663</ele><time>2026-05-02T08:33:16.381Z</time></trkpt><trkpt lat="39.4703967" lon="8.4712367"><ele>395.3333333333333</ele><time>2026-05-02T08:33:17.384Z</time></trkpt><trkpt lat="39.4703617" lon="8.4711633"><ele>395.5</ele><time>2026-05-02T08:33:18.383Z</time></trkpt><trkpt lat="39.470405" lon="8.47102"><ele>395.66666666666663</ele><time>2026-05-02T08:33:20.386Z</time></trkpt><trkpt lat="39.47047" lon="8.4708983"><ele>395.8333333333333</ele><time>2026-05-02T08:33:22.377Z</time></trkpt><trkpt lat="39.470525" lon="8.4708317"><ele>396.0</ele><time>2026-05-02T08:33:23.38Z</time></trkpt><trkpt lat="39.4706183" lon="8.4707483"><ele>396.0</ele><time>2026-05-02T08:33:24.38Z</time></trkpt><trkpt lat="39.4707317" lon="8.4706567"><ele>396.0</ele><time>2026-05-02T08:33:25.382Z</time></trkpt><trkpt lat="39.4708683" lon="8.4705567"><ele>396.0</ele><time>2026-05-02T08:33:26.381Z</time></trkpt><trkpt lat="39.4710117" lon="8.4704633"><ele>397.25</ele><time>2026-05-02T08:33:27.378Z</time></trkpt><trkpt lat="39.47114" lon="8.4703717"><ele>398.5</ele><time>2026-05-02T08:33:28.377Z</time></trkpt><trkpt lat="39.4712533" lon="8.47028"><ele>399.75</ele><time>2026-05-02T08:33:29.38Z</time></trkpt><trkpt lat="39.4713483" lon="8.4701783"><ele>401.0</ele><time>2026-05-02T08:33:30.379Z</time></trkpt><trkpt lat="39.4714383" lon="8.4700633"><ele>397.5</ele><time>2026-05-02T08:33:31.381Z</time></trkpt><trkpt lat="39.4715517" lon="8.4699533"><ele>394.0</ele><time>2026-05-02T08:33:32.382Z</time></trkpt><trkpt lat="39.4716017" lon="8.4698083"><ele>390.5</ele><time>2026-05-02T08:33:33.381Z</time></trkpt><trkpt lat="39.4716367" lon="8.4696817"><ele>387.0</ele><time>2026-05-02T08:33:34.38Z</time></trkpt><trkpt lat="39.4716567" lon="8.4695383"><ele>385.8</ele><time>2026-05-02T08:33:35.382Z</time></trkpt><trkpt lat="39.4716683" lon="8.4694217"><ele>384.6</ele><time>2026-05-02T08:33:36.383Z</time></trkpt><trkpt lat="39.4716033" lon="8.4693033"><ele>383.40000000000003</ele><time>2026-05-02T08:33:37.379Z</time></trkpt><trkpt lat="39.471555" lon="8.4692033"><ele>382.20000000000005</ele><time>2026-05-02T08:33:38.385Z</time></trkpt><trkpt lat="39.47151" lon="8.4691167"><ele>381.0</ele><time>2026-05-02T08:33:39.376Z</time></trkpt><trkpt lat="39.47145" lon="8.4690383"><ele>381.0</ele><time>2026-05-02T08:33:40.381Z</time></trkpt><trkpt lat="39.4713767" lon="8.4689767"><ele>381.0</ele><time>2026-05-02T08:33:41.378Z</time></trkpt><trkpt lat="39.4713133" lon="8.4689117"><ele>381.0</ele><time>2026-05-02T08:33:42.381Z</time></trkpt><trkpt lat="39.471265" lon="8.46883"><ele>381.0</ele><time>2026-05-02T08:33:43.38Z</time></trkpt><trkpt lat="39.4712133" lon="8.46876"><ele>381.0</ele><time>2026-05-02T08:33:44.388Z</time></trkpt><trkpt lat="39.471235" lon="8.4686383"><ele>381.0</ele><time>2026-05-02T08:33:45.382Z</time></trkpt><trkpt lat="39.47126" lon="8.468535"><ele>380.4</ele><time>2026-05-02T08:33:46.381Z</time></trkpt><trkpt lat="39.4712983" lon="8.4684367"><ele>379.8</ele><time>2026-05-02T08:33:47.383Z</time></trkpt><trkpt lat="39.4713567" lon="8.46833"><ele>379.2</ele><time>2026-05-02T08:33:48.38Z</time></trkpt><trkpt lat="39.471435" lon="8.4682233"><ele>378.59999999999997</ele><time>2026-05-02T08:33:49.38Z</time></trkpt><trkpt lat="39.4715483" lon="8.46811"><ele>378.0</ele><time>2026-05-02T08:33:50.388Z</time></trkpt><trkpt lat="39.4716233" lon="8.468"><ele>379.5</ele><time>2026-05-02T08:33:51.381Z</time></trkpt><trkpt lat="39.4717" lon="8.4678767"><ele>381.0</ele><time>2026-05-02T08:33:52.381Z</time></trkpt><trkpt lat="39.4717617" lon="8.46773"><ele>382.5</ele><time>2026-05-02T08:33:53.381Z</time></trkpt><trkpt lat="39.4717883" lon="8.4675667"><ele>384.0</ele><time>2026-05-02T08:33:54.382Z</time></trkpt><trkpt lat="39.4718133" lon="8.4673967"><ele>384.0</ele><time>2026-05-02T08:33:55.384Z</time></trkpt><trkpt lat="39.4718067" lon="8.4672217"><ele>384.0</ele><time>2026-05-02T08:33:56.395Z</time></trkpt><trkpt lat="39.4717983" lon="8.4670617"><ele>384.0</ele><time>2026-05-02T08:33:57.383Z</time></trkpt><trkpt lat="39.4717933" lon="8.4668983"><ele>384.0</ele><time>2026-05-02T08:33:58.383Z</time></trkpt><trkpt lat="39.4717483" lon="8.4667483"><ele>383.0</ele><time>2026-05-02T08:33:59.38Z</time></trkpt><trkpt lat="39.4717" lon="8.4665883"><ele>382.0</ele><time>2026-05-02T08:34:00.384Z</time></trkpt><trkpt lat="39.4716367" lon="8.4664383"><ele>381.0</ele><time>2026-05-02T08:34:01.38Z</time></trkpt><trkpt lat="39.471565" lon="8.4663067"><ele>380.0</ele><time>2026-05-02T08:34:02.401Z</time></trkpt><trkpt lat="39.4715017" lon="8.4661917"><ele>379.8</ele><time>2026-05-02T08:34:03.381Z</time></trkpt><trkpt lat="39.471455" lon="8.4660817"><ele>379.6</ele><time>2026-05-02T08:34:04.382Z</time></trkpt><trkpt lat="39.4714283" lon="8.465975"><ele>379.4</ele><time>2026-05-02T08:34:05.382Z</time></trkpt><trkpt lat="39.4714133" lon="8.4658833"><ele>379.2</ele><time>2026-05-02T08:34:06.378Z</time></trkpt><trkpt lat="39.4714967" lon="8.4657583"><ele>379.0</ele><time>2026-05-02T08:34:08.388Z</time></trkpt><trkpt lat="39.471585" lon="8.4656967"><ele>379.0</ele><time>2026-05-02T08:34:09.381Z</time></trkpt><trkpt lat="39.4716633" lon="8.465615"><ele>379.0</ele><time>2026-05-02T08:34:10.38Z</time></trkpt><trkpt lat="39.471745" lon="8.4655017"><ele>379.0</ele><time>2026-05-02T08:34:11.384Z</time></trkpt><trkpt lat="39.47181" lon="8.4653717"><ele>379.0</ele><time>2026-05-02T08:34:12.38Z</time></trkpt><trkpt lat="39.471845" lon="8.4652267"><ele>379.25</ele><time>2026-05-02T08:34:13.379Z</time></trkpt><trkpt lat="39.4718567" lon="8.4650533"><ele>379.5</ele><time>2026-05-02T08:34:14.388Z</time></trkpt><trkpt lat="39.4718633" lon="8.46486"><ele>379.75</ele><time>2026-05-02T08:34:15.38Z</time></trkpt><trkpt lat="39.47186" lon="8.4646633"><ele>380.0</ele><time>2026-05-02T08:34:16.383Z</time></trkpt><trkpt lat="39.4718467" lon="8.4644817"><ele>379.25</ele><time>2026-05-02T08:34:17.382Z</time></trkpt><trkpt lat="39.4718083" lon="8.46432"><ele>378.5</ele><time>2026-05-02T08:34:18.383Z</time></trkpt><trkpt lat="39.4717483" lon="8.464165"><ele>377.75</ele><time>2026-05-02T08:34:19.38Z</time></trkpt><trkpt lat="39.47168" lon="8.4640683"><ele>377.0</ele><time>2026-05-02T08:34:20.388Z</time></trkpt><trkpt lat="39.4716117" lon="8.4639783"><ele>377.0</ele><time>2026-05-02T08:34:21.381Z</time></trkpt><trkpt lat="39.47155" lon="8.463895"><ele>377.0</ele><time>2026-05-02T08:34:22.383Z</time></trkpt><trkpt lat="39.4715117" lon="8.4638117"><ele>377.0</ele><time>2026-05-02T08:34:23.381Z</time></trkpt><trkpt lat="39.4714867" lon="8.4637333"><ele>377.0</ele><time>2026-05-02T08:34:24.378Z</time></trkpt><trkpt lat="39.47149" lon="8.463615"><ele>377.0</ele><time>2026-05-02T08:34:26.383Z</time></trkpt><trkpt lat="39.4715617" lon="8.463495"><ele>377.0</ele><time>2026-05-02T08:34:29.385Z</time></trkpt><trkpt lat="39.4716617" lon="8.4634033"><ele>377.5</ele><time>2026-05-02T08:34:30.38Z</time></trkpt><trkpt lat="39.4717333" lon="8.4633067"><ele>378.0</ele><time>2026-05-02T08:34:31.379Z</time></trkpt><trkpt lat="39.4718033" lon="8.4631867"><ele>378.5</ele><time>2026-05-02T08:34:32.401Z</time></trkpt><trkpt lat="39.4718633" lon="8.4630517"><ele>379.0</ele><time>2026-05-02T08:34:33.382Z</time></trkpt><trkpt lat="39.4718767" lon="8.4628917"><ele>377.79999999999995</ele><time>2026-05-02T08:34:34.382Z</time></trkpt><trkpt lat="39.4718733" lon="8.4627417"><ele>376.59999999999997</ele><time>2026-05-02T08:34:35.382Z</time></trkpt><trkpt lat="39.4718833" lon="8.462615"><ele>375.4</ele><time>2026-05-02T08:34:36.384Z</time></trkpt><trkpt lat="39.4718283" lon="8.4625067"><ele>374.2</ele><time>2026-05-02T08:34:37.383Z</time></trkpt><trkpt lat="39.4717633" lon="8.4624083"><ele>373.0</ele><time>2026-05-02T08:34:38.387Z</time></trkpt><trkpt lat="39.471695" lon="8.46232"><ele>373.0</ele><time>2026-05-02T08:34:39.384Z</time></trkpt><trkpt lat="39.4716267" lon="8.4622367"><ele>373.0</ele><time>2026-05-02T08:34:40.382Z</time></trkpt><trkpt lat="39.47156" lon="8.4621567"><ele>373.0</ele><time>2026-05-02T08:34:41.38Z</time></trkpt><trkpt lat="39.4715217" lon="8.4620633"><ele>373.0</ele><time>2026-05-02T08:34:42.383Z</time></trkpt><trkpt lat="39.4714967" lon="8.4619667"><ele>373.0</ele><time>2026-05-02T08:34:43.382Z</time></trkpt><trkpt lat="39.471485" lon="8.4618683"><ele>373.0</ele><time>2026-05-02T08:34:44.384Z</time></trkpt><trkpt lat="39.4714883" lon="8.461785"><ele>374.0</ele><time>2026-05-02T08:34:45.383Z</time></trkpt><trkpt lat="39.4715117" lon="8.4617017"><ele>375.0</ele><time>2026-05-02T08:34:46.38Z</time></trkpt><trkpt lat="39.47156" lon="8.4616067"><ele>376.0</ele><time>2026-05-02T08:34:47.377Z</time></trkpt><trkpt lat="39.471695" lon="8.4615067"><ele>377.0</ele><time>2026-05-02T08:34:48.382Z</time></trkpt><trkpt lat="39.4718033" lon="8.46142"><ele>378.0</ele><time>2026-05-02T08:34:49.378Z</time></trkpt><trkpt lat="39.4719233" lon="8.46134"><ele>378.25</ele><time>2026-05-02T08:34:50.386Z</time></trkpt><trkpt lat="39.4720667" lon="8.4612717"><ele>378.5</ele><time>2026-05-02T08:34:51.382Z</time></trkpt><trkpt lat="39.472215" lon="8.4612583"><ele>378.75</ele><time>2026-05-02T08:34:52.381Z</time></trkpt><trkpt lat="39.4723517" lon="8.461255"><ele>379.0</ele><time>2026-05-02T08:34:53.383Z</time></trkpt><trkpt lat="39.47249" lon="8.46127"><ele>379.0</ele><time>2026-05-02T08:34:54.377Z</time></trkpt><trkpt lat="39.4726233" lon="8.4612633"><ele>379.0</ele><time>2026-05-02T08:34:55.38Z</time></trkpt><trkpt lat="39.4727667" lon="8.4612633"><ele>379.0</ele><time>2026-05-02T08:34:56.443Z</time></trkpt><trkpt lat="39.47291" lon="8.4612483"><ele>379.0</ele><time>2026-05-02T08:34:57.382Z</time></trkpt><trkpt lat="39.473065" lon="8.4612283"><ele>374.25</ele><time>2026-05-02T08:34:58.382Z</time></trkpt><trkpt lat="39.47321" lon="8.4611917"><ele>369.5</ele><time>2026-05-02T08:34:59.38Z</time></trkpt><trkpt lat="39.4733483" lon="8.461145"><ele>364.75</ele><time>2026-05-02T08:35:00.383Z</time></trkpt><trkpt lat="39.47348" lon="8.4610767"><ele>360.0</ele><time>2026-05-02T08:35:01.376Z</time></trkpt><trkpt lat="39.4736017" lon="8.461"><ele>360.0</ele><time>2026-05-02T08:35:02.398Z</time></trkpt><trkpt lat="39.4737467" lon="8.46091"><ele>360.0</ele><time>2026-05-02T08:35:03.378Z</time></trkpt><trkpt lat="39.4738517" lon="8.460805"><ele>360.0</ele><time>2026-05-02T08:35:04.38Z</time></trkpt><trkpt lat="39.473955" lon="8.4606933"><ele>360.0</ele><time>2026-05-02T08:35:05.379Z</time></trkpt><trkpt lat="39.474055" lon="8.46059"><ele>357.5</ele><time>2026-05-02T08:35:06.382Z</time></trkpt><trkpt lat="39.47417" lon="8.4605017"><ele>355.0</ele><time>2026-05-02T08:35:07.381Z</time></trkpt><trkpt lat="39.4743017" lon="8.46042"><ele>352.5</ele><time>2026-05-02T08:35:08.388Z</time></trkpt><trkpt lat="39.4744233" lon="8.4603517"><ele>350.0</ele><time>2026-05-02T08:35:09.38Z</time></trkpt><trkpt lat="39.4745517" lon="8.4602783"><ele>345.25</ele><time>2026-05-02T08:35:10.38Z</time></trkpt><trkpt lat="39.47468" lon="8.460195"><ele>340.5</ele><time>2026-05-02T08:35:11.382Z</time></trkpt><trkpt lat="39.474795" lon="8.4601167"><ele>335.75</ele><time>2026-05-02T08:35:12.382Z</time></trkpt><trkpt lat="39.474905" lon="8.4600483"><ele>331.0</ele><time>2026-05-02T08:35:13.379Z</time></trkpt><trkpt lat="39.47501" lon="8.459985"><ele>331.0</ele><time>2026-05-02T08:35:14.385Z</time></trkpt><trkpt lat="39.475115" lon="8.4599083"><ele>331.0</ele><time>2026-05-02T08:35:15.38Z</time></trkpt><trkpt lat="39.4752317" lon="8.4598167"><ele>331.0</ele><time>2026-05-02T08:35:16.382Z</time></trkpt><trkpt lat="39.475355" lon="8.45973"><ele>331.0</ele><time>2026-05-02T08:35:17.384Z</time></trkpt><trkpt lat="39.4754833" lon="8.4596433"><ele>328.5</ele><time>2026-05-02T08:35:18.384Z</time></trkpt><trkpt lat="39.4756" lon="8.4595717"><ele>326.0</ele><time>2026-05-02T08:35:19.38Z</time></trkpt><trkpt lat="39.4757283" lon="8.45951"><ele>323.5</ele><time>2026-05-02T08:35:20.387Z</time></trkpt><trkpt lat="39.4758617" lon="8.4594733"><ele>321.0</ele><time>2026-05-02T08:35:21.382Z</time></trkpt><trkpt lat="39.47599" lon="8.4594467"><ele>321.0</ele><time>2026-05-02T08:35:22.382Z</time></trkpt><trkpt lat="39.4761167" lon="8.459435"><ele>321.0</ele><time>2026-05-02T08:35:23.379Z</time></trkpt><trkpt lat="39.4762417" lon="8.4594467"><ele>321.0</ele><time>2026-05-02T08:35:24.38Z</time></trkpt><trkpt lat="39.4763617" lon="8.4594467"><ele>321.0</ele><time>2026-05-02T08:35:25.382Z</time></trkpt><trkpt lat="39.4764833" lon="8.4594933"><ele>320.2</ele><time>2026-05-02T08:35:26.446Z</time></trkpt><trkpt lat="39.476575" lon="8.4595583"><ele>319.40000000000003</ele><time>2026-05-02T08:35:27.378Z</time></trkpt><trkpt lat="39.476675" lon="8.4596283"><ele>318.6</ele><time>2026-05-02T08:35:28.38Z</time></trkpt><trkpt lat="39.4767633" lon="8.4596867"><ele>317.8</ele><time>2026-05-02T08:35:29.382Z</time></trkpt><trkpt lat="39.4768433" lon="8.4597183"><ele>317.0</ele><time>2026-05-02T08:35:30.38Z</time></trkpt><trkpt lat="39.4769633" lon="8.4597"><ele>315.4</ele><time>2026-05-02T08:35:31.382Z</time></trkpt><trkpt lat="39.4770683" lon="8.4596867"><ele>313.79999999999995</ele><time>2026-05-02T08:35:32.382Z</time></trkpt><trkpt lat="39.4771633" lon="8.4596433"><ele>312.2</ele><time>2026-05-02T08:35:33.381Z</time></trkpt><trkpt lat="39.4772733" lon="8.4595967"><ele>310.59999999999997</ele><time>2026-05-02T08:35:34.382Z</time></trkpt><trkpt lat="39.477375" lon="8.4595517"><ele>309.0</ele><time>2026-05-02T08:35:35.381Z</time></trkpt><trkpt lat="39.4775017" lon="8.4594867"><ele>308.3333333333333</ele><time>2026-05-02T08:35:36.382Z</time></trkpt><trkpt lat="39.4776417" lon="8.4594133"><ele>307.66666666666663</ele><time>2026-05-02T08:35:37.379Z</time></trkpt><trkpt lat="39.4778233" lon="8.4593333"><ele>307.0</ele><time>2026-05-02T08:35:38.382Z</time></trkpt><trkpt lat="39.4780067" lon="8.4592533"><ele>302.66666666666663</ele><time>2026-05-02T08:35:39.38Z</time></trkpt><trkpt lat="39.4781767" lon="8.459195"><ele>298.3333333333333</ele><time>2026-05-02T08:35:40.381Z</time></trkpt><trkpt lat="39.478345" lon="8.45912"><ele>294.0</ele><time>2026-05-02T08:35:41.381Z</time></trkpt><trkpt lat="39.4785183" lon="8.45906"><ele>294.0</ele><time>2026-05-02T08:35:42.381Z</time></trkpt><trkpt lat="39.478695" lon="8.4590033"><ele>294.0</ele><time>2026-05-02T08:35:43.383Z</time></trkpt><trkpt lat="39.478865" lon="8.458955"><ele>294.0</ele><time>2026-05-02T08:35:44.386Z</time></trkpt><trkpt lat="39.4790483" lon="8.4589017"><ele>293.0</ele><time>2026-05-02T08:35:45.381Z</time></trkpt><trkpt lat="39.4792117" lon="8.458865"><ele>292.0</ele><time>2026-05-02T08:35:46.382Z</time></trkpt><trkpt lat="39.4793733" lon="8.458825"><ele>291.0</ele><time>2026-05-02T08:35:47.381Z</time></trkpt><trkpt lat="39.4795383" lon="8.45878"><ele>287.6666666666667</ele><time>2026-05-02T08:35:48.381Z</time></trkpt><trkpt lat="39.4797" lon="8.4587267"><ele>284.33333333333337</ele><time>2026-05-02T08:35:49.383Z</time></trkpt><trkpt lat="39.479855" lon="8.4586783"><ele>281.0</ele><time>2026-05-02T08:35:50.384Z</time></trkpt><trkpt lat="39.4800117" lon="8.4586217"><ele>281.0</ele><time>2026-05-02T08:35:51.379Z</time></trkpt><trkpt lat="39.4801817" lon="8.4585683"><ele>281.0</ele><time>2026-05-02T08:35:52.383Z</time></trkpt><trkpt lat="39.48034" lon="8.45854"><ele>281.0</ele><time>2026-05-02T08:35:53.379Z</time></trkpt><trkpt lat="39.4804983" lon="8.4585233"><ele>278.6666666666667</ele><time>2026-05-02T08:35:54.383Z</time></trkpt><trkpt lat="39.4806583" lon="8.4585067"><ele>276.3333333333333</ele><time>2026-05-02T08:35:55.382Z</time></trkpt><trkpt lat="39.4808067" lon="8.4584917"><ele>274.0</ele><time>2026-05-02T08:35:56.38Z</time></trkpt><trkpt lat="39.4809717" lon="8.4584683"><ele>274.0</ele><time>2026-05-02T08:35:57.383Z</time></trkpt><trkpt lat="39.4811233" lon="8.458465"><ele>274.0</ele><time>2026-05-02T08:35:58.38Z</time></trkpt><trkpt lat="39.48128" lon="8.458455"><ele>274.0</ele><time>2026-05-02T08:35:59.38Z</time></trkpt><trkpt lat="39.4814433" lon="8.458445"><ele>273.0</ele><time>2026-05-02T08:36:00.38Z</time></trkpt><trkpt lat="39.4816083" lon="8.45843"><ele>272.0</ele><time>2026-05-02T08:36:01.382Z</time></trkpt><trkpt lat="39.48178" lon="8.4584167"><ele>271.0</ele><time>2026-05-02T08:36:02.381Z</time></trkpt><trkpt lat="39.48196" lon="8.4583983"><ele>269.0</ele><time>2026-05-02T08:36:03.382Z</time></trkpt><trkpt lat="39.48214" lon="8.45838"><ele>267.0</ele><time>2026-05-02T08:36:04.381Z</time></trkpt><trkpt lat="39.482325" lon="8.45837"><ele>265.0</ele><time>2026-05-02T08:36:05.376Z</time></trkpt><trkpt lat="39.4825083" lon="8.4583667"><ele>265.0</ele><time>2026-05-02T08:36:06.381Z</time></trkpt><trkpt lat="39.482685" lon="8.4583517"><ele>265.0</ele><time>2026-05-02T08:36:07.379Z</time></trkpt><trkpt lat="39.4828667" lon="8.4583417"><ele>265.0</ele><time>2026-05-02T08:36:08.387Z</time></trkpt><trkpt lat="39.4830433" lon="8.4583367"><ele>263.3333333333333</ele><time>2026-05-02T08:36:09.383Z</time></trkpt><trkpt lat="39.48324" lon="8.4583183"><ele>261.6666666666667</ele><time>2026-05-02T08:36:10.381Z</time></trkpt><trkpt lat="39.4834083" lon="8.4583083"><ele>260.0</ele><time>2026-05-02T08:36:11.383Z</time></trkpt><trkpt lat="39.4835917" lon="8.458295"><ele>260.0</ele><time>2026-05-02T08:36:12.382Z</time></trkpt><trkpt lat="39.48375" lon="8.4582967"><ele>260.0</ele><time>2026-05-02T08:36:13.382Z</time></trkpt><trkpt lat="39.48392" lon="8.4582783"><ele>260.0</ele><time>2026-05-02T08:36:14.386Z</time></trkpt><trkpt lat="39.4840833" lon="8.4582683"><ele>258.0</ele><time>2026-05-02T08:36:15.382Z</time></trkpt><trkpt lat="39.48424" lon="8.4582467"><ele>256.0</ele><time>2026-05-02T08:36:16.381Z</time></trkpt><trkpt lat="39.4843933" lon="8.4582383"><ele>254.0</ele><time>2026-05-02T08:36:17.382Z</time></trkpt><trkpt lat="39.484525" lon="8.4581717"><ele>253.33333333333334</ele><time>2026-05-02T08:36:18.377Z</time></trkpt><trkpt lat="39.4846817" lon="8.4581983"><ele>252.66666666666669</ele><time>2026-05-02T08:36:19.382Z</time></trkpt><trkpt lat="39.4848267" lon="8.458195"><ele>252.0</ele><time>2026-05-02T08:36:20.388Z</time></trkpt><trkpt lat="39.4849767" lon="8.4581733"><ele>252.0</ele><time>2026-05-02T08:36:21.382Z</time></trkpt><trkpt lat="39.4851383" lon="8.4581483"><ele>252.0</ele><time>2026-05-02T08:36:22.382Z</time></trkpt><trkpt lat="39.4852917" lon="8.4581417"><ele>252.0</ele><time>2026-05-02T08:36:23.378Z</time></trkpt><trkpt lat="39.4854267" lon="8.45812"><ele>251.75</ele><time>2026-05-02T08:36:24.381Z</time></trkpt><trkpt lat="39.48556" lon="8.458105"><ele>251.5</ele><time>2026-05-02T08:36:25.382Z</time></trkpt><trkpt lat="39.485705" lon="8.4580817"><ele>251.25</ele><time>2026-05-02T08:36:26.378Z</time></trkpt><trkpt lat="39.4858617" lon="8.458065"><ele>251.0</ele><time>2026-05-02T08:36:27.379Z</time></trkpt><trkpt lat="39.4860033" lon="8.4580367"><ele>251.0</ele><time>2026-05-02T08:36:28.378Z</time></trkpt><trkpt lat="39.48615" lon="8.45803"><ele>251.0</ele><time>2026-05-02T08:36:29.382Z</time></trkpt><trkpt lat="39.4862967" lon="8.4580133"><ele>251.0</ele><time>2026-05-02T08:36:30.38Z</time></trkpt><trkpt lat="39.4864217" lon="8.458025"><ele>251.0</ele><time>2026-05-02T08:36:31.381Z</time></trkpt><trkpt lat="39.4865567" lon="8.4580117"><ele>250.0</ele><time>2026-05-02T08:36:32.379Z</time></trkpt><trkpt lat="39.4866833" lon="8.4580017"><ele>249.0</ele><time>2026-05-02T08:36:33.381Z</time></trkpt><trkpt lat="39.486805" lon="8.45799"><ele>248.0</ele><time>2026-05-02T08:36:34.379Z</time></trkpt><trkpt lat="39.4869217" lon="8.4579767"><ele>247.0</ele><time>2026-05-02T08:36:35.381Z</time></trkpt><trkpt lat="39.4870367" lon="8.4579617"><ele>246.0</ele><time>2026-05-02T08:36:36.377Z</time></trkpt><trkpt lat="39.4871533" lon="8.4579467"><ele>245.0</ele><time>2026-05-02T08:36:37.38Z</time></trkpt><trkpt lat="39.4872733" lon="8.4579283"><ele>244.0</ele><time>2026-05-02T08:36:38.387Z</time></trkpt><trkpt lat="39.4873983" lon="8.45791"><ele>243.0</ele><time>2026-05-02T08:36:39.379Z</time></trkpt><trkpt lat="39.4875283" lon="8.45789"><ele>243.0</ele><time>2026-05-02T08:36:40.381Z</time></trkpt><trkpt lat="39.48766" lon="8.4578683"><ele>243.0</ele><time>2026-05-02T08:36:41.38Z</time></trkpt><trkpt lat="39.487795" lon="8.4578417"><ele>243.0</ele><time>2026-05-02T08:36:42.379Z</time></trkpt><trkpt lat="39.48793" lon="8.4578217"><ele>243.0</ele><time>2026-05-02T08:36:43.381Z</time></trkpt><trkpt lat="39.488065" lon="8.4578033"><ele>241.75</ele><time>2026-05-02T08:36:44.388Z</time></trkpt><trkpt lat="39.4882" lon="8.4577783"><ele>240.5</ele><time>2026-05-02T08:36:45.381Z</time></trkpt><trkpt lat="39.488335" lon="8.457765"><ele>239.25</ele><time>2026-05-02T08:36:46.378Z</time></trkpt><trkpt lat="39.4884733" lon="8.4577567"><ele>238.0</ele><time>2026-05-02T08:36:47.381Z</time></trkpt><trkpt lat="39.48861" lon="8.4577483"><ele>238.0</ele><time>2026-05-02T08:36:48.382Z</time></trkpt><trkpt lat="39.488745" lon="8.4577333"><ele>238.0</ele><time>2026-05-02T08:36:49.38Z</time></trkpt><trkpt lat="39.488875" lon="8.457725"><ele>238.0</ele><time>2026-05-02T08:36:50.387Z</time></trkpt><trkpt lat="39.4889967" lon="8.4577167"><ele>238.0</ele><time>2026-05-02T08:36:51.375Z</time></trkpt><trkpt lat="39.4891167" lon="8.457705"><ele>236.2</ele><time>2026-05-02T08:36:52.38Z</time></trkpt><trkpt lat="39.48923" lon="8.4576933"><ele>234.4</ele><time>2026-05-02T08:36:53.377Z</time></trkpt><trkpt lat="39.4893383" lon="8.4576783"><ele>232.59999999999997</ele><time>2026-05-02T08:36:54.379Z</time></trkpt><trkpt lat="39.4894383" lon="8.4576633"><ele>230.79999999999998</ele><time>2026-05-02T08:36:55.381Z</time></trkpt><trkpt lat="39.4895283" lon="8.45765"><ele>229.0</ele><time>2026-05-02T08:36:56.381Z</time></trkpt><trkpt lat="39.4896" lon="8.4576383"><ele>228.0</ele><time>2026-05-02T08:36:57.379Z</time></trkpt><trkpt lat="39.4896983" lon="8.4575833"><ele>226.99999999999997</ele><time>2026-05-02T08:36:59.378Z</time></trkpt><trkpt lat="39.4896817" lon="8.4574467"><ele>225.99999999999997</ele><time>2026-05-02T08:37:01.379Z</time></trkpt><trkpt lat="39.489665" lon="8.457355"><ele>225.0</ele><time>2026-05-02T08:37:02.376Z</time></trkpt><trkpt lat="39.4896383" lon="8.45725"><ele>224.0</ele><time>2026-05-02T08:37:03.379Z</time></trkpt><trkpt lat="39.4896083" lon="8.457135"><ele>225.5</ele><time>2026-05-02T08:37:04.377Z</time></trkpt><trkpt lat="39.4895667" lon="8.4569933"><ele>227.0</ele><time>2026-05-02T08:37:05.382Z</time></trkpt><trkpt lat="39.4895217" lon="8.456835"><ele>228.5</ele><time>2026-05-02T08:37:06.382Z</time></trkpt><trkpt lat="39.4894717" lon="8.4566767"><ele>230.0</ele><time>2026-05-02T08:37:07.381Z</time></trkpt><trkpt lat="39.4893967" lon="8.4564833"><ele>230.0</ele><time>2026-05-02T08:37:08.381Z</time></trkpt><trkpt lat="39.4893367" lon="8.4562933"><ele>230.0</ele><time>2026-05-02T08:37:09.383Z</time></trkpt><trkpt lat="39.48928" lon="8.4561033"><ele>230.0</ele><time>2026-05-02T08:37:10.379Z</time></trkpt><trkpt lat="39.4892367" lon="8.455905"><ele>229.33333333333334</ele><time>2026-05-02T08:37:11.382Z</time></trkpt><trkpt lat="39.4891917" lon="8.4557167"><ele>228.66666666666669</ele><time>2026-05-02T08:37:12.382Z</time></trkpt><trkpt lat="39.4891367" lon="8.4555283"><ele>228.0</ele><time>2026-05-02T08:37:13.38Z</time></trkpt><trkpt lat="39.489075" lon="8.4553367"><ele>227.5</ele><time>2026-05-02T08:37:14.384Z</time></trkpt><trkpt lat="39.4890283" lon="8.4551483"><ele>227.0</ele><time>2026-05-02T08:37:15.381Z</time></trkpt><trkpt lat="39.488965" lon="8.4549767"><ele>226.5</ele><time>2026-05-02T08:37:16.381Z</time></trkpt><trkpt lat="39.4888967" lon="8.45482"><ele>226.0</ele><time>2026-05-02T08:37:17.378Z</time></trkpt><trkpt lat="39.4888467" lon="8.4546517"><ele>224.66666666666666</ele><time>2026-05-02T08:37:18.381Z</time></trkpt><trkpt lat="39.4887817" lon="8.4544517"><ele>223.33333333333331</ele><time>2026-05-02T08:37:19.375Z</time></trkpt><trkpt lat="39.48872" lon="8.4542717"><ele>222.0</ele><time>2026-05-02T08:37:20.383Z</time></trkpt><trkpt lat="39.4886567" lon="8.4541167"><ele>222.0</ele><time>2026-05-02T08:37:21.38Z</time></trkpt><trkpt lat="39.4886167" lon="8.45395"><ele>222.0</ele><time>2026-05-02T08:37:22.382Z</time></trkpt><trkpt lat="39.488585" lon="8.4537767"><ele>222.0</ele><time>2026-05-02T08:37:23.38Z</time></trkpt><trkpt lat="39.4885617" lon="8.4536017"><ele>222.0</ele><time>2026-05-02T08:37:24.378Z</time></trkpt><trkpt lat="39.488505" lon="8.4534083"><ele>220.75</ele><time>2026-05-02T08:37:25.381Z</time></trkpt><trkpt lat="39.4885133" lon="8.453235"><ele>219.5</ele><time>2026-05-02T08:37:26.443Z</time></trkpt><trkpt lat="39.4884833" lon="8.4530783"><ele>218.25</ele><time>2026-05-02T08:37:27.378Z</time></trkpt><trkpt lat="39.4884483" lon="8.4529233"><ele>217.0</ele><time>2026-05-02T08:37:28.38Z</time></trkpt><trkpt lat="39.4884233" lon="8.4527617"><ele>216.5</ele><time>2026-05-02T08:37:29.381Z</time></trkpt><trkpt lat="39.4883967" lon="8.4526117"><ele>216.0</ele><time>2026-05-02T08:37:30.379Z</time></trkpt><trkpt lat="39.488375" lon="8.452465"><ele>215.5</ele><time>2026-05-02T08:37:31.375Z</time></trkpt><trkpt lat="39.4883767" lon="8.4523017"><ele>215.0</ele><time>2026-05-02T08:37:32.38Z</time></trkpt><trkpt lat="39.4883733" lon="8.4521467"><ele>214.25</ele><time>2026-05-02T08:37:33.38Z</time></trkpt><trkpt lat="39.4883783" lon="8.4520017"><ele>213.5</ele><time>2026-05-02T08:37:34.38Z</time></trkpt><trkpt lat="39.488355" lon="8.4518133"><ele>212.75</ele><time>2026-05-02T08:37:35.381Z</time></trkpt><trkpt lat="39.48838" lon="8.4515967"><ele>212.0</ele><time>2026-05-02T08:37:36.381Z</time></trkpt><trkpt lat="39.4884083" lon="8.4514483"><ele>212.0</ele><time>2026-05-02T08:37:37.38Z</time></trkpt><trkpt lat="39.4884467" lon="8.4512683"><ele>212.0</ele><time>2026-05-02T08:37:38.384Z</time></trkpt><trkpt lat="39.4884717" lon="8.451095"><ele>212.0</ele><time>2026-05-02T08:37:39.381Z</time></trkpt><trkpt lat="39.4885067" lon="8.4509067"><ele>212.0</ele><time>2026-05-02T08:37:40.381Z</time></trkpt><trkpt lat="39.4885433" lon="8.4507133"><ele>212.0</ele><time>2026-05-02T08:37:41.377Z</time></trkpt><trkpt lat="39.4885883" lon="8.45051"><ele>212.0</ele><time>2026-05-02T08:37:42.381Z</time></trkpt><trkpt lat="39.4886433" lon="8.450305"><ele>212.0</ele><time>2026-05-02T08:37:43.378Z</time></trkpt><trkpt lat="39.4887017" lon="8.4500783"><ele>211.0</ele><time>2026-05-02T08:37:44.387Z</time></trkpt><trkpt lat="39.4887667" lon="8.4498633"><ele>210.0</ele><time>2026-05-02T08:37:45.38Z</time></trkpt><trkpt lat="39.4888483" lon="8.4496567"><ele>209.0</ele><time>2026-05-02T08:37:46.381Z</time></trkpt><trkpt lat="39.488915" lon="8.4494517"><ele>207.66666666666669</ele><time>2026-05-02T08:37:47.381Z</time></trkpt><trkpt lat="39.48897" lon="8.4492417"><ele>206.33333333333331</ele><time>2026-05-02T08:37:48.381Z</time></trkpt><trkpt lat="39.489015" lon="8.4490333"><ele>205.0</ele><time>2026-05-02T08:37:49.382Z</time></trkpt><trkpt lat="39.4890717" lon="8.4488267"><ele>204.33333333333331</ele><time>2026-05-02T08:37:50.393Z</time></trkpt><trkpt lat="39.4891167" lon="8.448625"><ele>203.66666666666669</ele><time>2026-05-02T08:37:51.381Z</time></trkpt><trkpt lat="39.4891617" lon="8.4484067"><ele>203.0</ele><time>2026-05-02T08:37:52.378Z</time></trkpt><trkpt lat="39.4891967" lon="8.44819"><ele>203.0</ele><time>2026-05-02T08:37:53.38Z</time></trkpt><trkpt lat="39.48924" lon="8.44797"><ele>203.0</ele><time>2026-05-02T08:37:54.381Z</time></trkpt><trkpt lat="39.4892817" lon="8.44776"><ele>203.0</ele><time>2026-05-02T08:37:55.376Z</time></trkpt><trkpt lat="39.4893183" lon="8.447555"><ele>202.66666666666669</ele><time>2026-05-02T08:37:56.381Z</time></trkpt><trkpt lat="39.489355" lon="8.4473533"><ele>202.33333333333331</ele><time>2026-05-02T08:37:57.381Z</time></trkpt><trkpt lat="39.48939" lon="8.44714"><ele>202.0</ele><time>2026-05-02T08:37:58.379Z</time></trkpt><trkpt lat="39.48943" lon="8.44693"><ele>201.0</ele><time>2026-05-02T08:37:59.382Z</time></trkpt><trkpt lat="39.489475" lon="8.44672"><ele>200.0</ele><time>2026-05-02T08:38:00.382Z</time></trkpt><trkpt lat="39.4895183" lon="8.44651"><ele>199.0</ele><time>2026-05-02T08:38:01.381Z</time></trkpt><trkpt lat="39.4895617" lon="8.4463033"><ele>198.33333333333331</ele><time>2026-05-02T08:38:02.395Z</time></trkpt><trkpt lat="39.4896017" lon="8.446095"><ele>197.66666666666669</ele><time>2026-05-02T08:38:03.381Z</time></trkpt><trkpt lat="39.489635" lon="8.44588"><ele>197.0</ele><time>2026-05-02T08:38:04.379Z</time></trkpt><trkpt lat="39.4896783" lon="8.4456767"><ele>197.0</ele><time>2026-05-02T08:38:05.382Z</time></trkpt><trkpt lat="39.48972" lon="8.44548"><ele>197.0</ele><time>2026-05-02T08:38:06.382Z</time></trkpt><trkpt lat="39.4897533" lon="8.4452867"><ele>197.0</ele><time>2026-05-02T08:38:07.38Z</time></trkpt><trkpt lat="39.489785" lon="8.445085"><ele>195.33333333333334</ele><time>2026-05-02T08:38:08.387Z</time></trkpt><trkpt lat="39.4898117" lon="8.4448933"><ele>193.66666666666669</ele><time>2026-05-02T08:38:09.378Z</time></trkpt><trkpt lat="39.48983" lon="8.4446983"><ele>192.0</ele><time>2026-05-02T08:38:10.38Z</time></trkpt><trkpt lat="39.4898467" lon="8.4444983"><ele>191.5</ele><time>2026-05-02T08:38:11.382Z</time></trkpt><trkpt lat="39.48986" lon="8.4443167"><ele>191.0</ele><time>2026-05-02T08:38:12.383Z</time></trkpt><trkpt lat="39.489875" lon="8.4441417"><ele>190.5</ele><time>2026-05-02T08:38:13.379Z</time></trkpt><trkpt lat="39.4898783" lon="8.4439633"><ele>190.0</ele><time>2026-05-02T08:38:14.394Z</time></trkpt><trkpt lat="39.4898967" lon="8.4437817"><ele>189.25</ele><time>2026-05-02T08:38:15.381Z</time></trkpt><trkpt lat="39.4899067" lon="8.443595"><ele>188.5</ele><time>2026-05-02T08:38:16.38Z</time></trkpt><trkpt lat="39.4899067" lon="8.443425"><ele>187.75</ele><time>2026-05-02T08:38:17.38Z</time></trkpt><trkpt lat="39.4899" lon="8.4432267"><ele>187.0</ele><time>2026-05-02T08:38:18.381Z</time></trkpt><trkpt lat="39.4898983" lon="8.4430317"><ele>185.0</ele><time>2026-05-02T08:38:19.383Z</time></trkpt><trkpt lat="39.489895" lon="8.4428283"><ele>183.0</ele><time>2026-05-02T08:38:20.391Z</time></trkpt><trkpt lat="39.4898717" lon="8.44263"><ele>181.0</ele><time>2026-05-02T08:38:21.382Z</time></trkpt><trkpt lat="39.48986" lon="8.44243"><ele>181.0</ele><time>2026-05-02T08:38:22.381Z</time></trkpt><trkpt lat="39.4898383" lon="8.442215"><ele>181.0</ele><time>2026-05-02T08:38:23.38Z</time></trkpt><trkpt lat="39.4897983" lon="8.442"><ele>181.0</ele><time>2026-05-02T08:38:24.381Z</time></trkpt><trkpt lat="39.4897533" lon="8.4417767"><ele>179.0</ele><time>2026-05-02T08:38:25.382Z</time></trkpt><trkpt lat="39.4897017" lon="8.441555"><ele>177.0</ele><time>2026-05-02T08:38:26.391Z</time></trkpt><trkpt lat="39.489665" lon="8.4413367"><ele>175.0</ele><time>2026-05-02T08:38:27.375Z</time></trkpt><trkpt lat="39.4896083" lon="8.4411217"><ele>174.0</ele><time>2026-05-02T08:38:28.38Z</time></trkpt><trkpt lat="39.4895633" lon="8.4409067"><ele>173.0</ele><time>2026-05-02T08:38:29.382Z</time></trkpt><trkpt lat="39.4895217" lon="8.440695"><ele>172.0</ele><time>2026-05-02T08:38:30.384Z</time></trkpt><trkpt lat="39.4894683" lon="8.44048"><ele>170.33333333333334</ele><time>2026-05-02T08:38:31.381Z</time></trkpt><trkpt lat="39.4894233" lon="8.440275"><ele>168.66666666666666</ele><time>2026-05-02T08:38:32.382Z</time></trkpt><trkpt lat="39.4893867" lon="8.440075"><ele>167.0</ele><time>2026-05-02T08:38:33.381Z</time></trkpt><trkpt lat="39.4893483" lon="8.4398583"><ele>167.0</ele><time>2026-05-02T08:38:34.38Z</time></trkpt><trkpt lat="39.4893267" lon="8.43965"><ele>167.0</ele><time>2026-05-02T08:38:35.38Z</time></trkpt><trkpt lat="39.4893" lon="8.43942"><ele>167.0</ele><time>2026-05-02T08:38:36.38Z</time></trkpt><trkpt lat="39.4892367" lon="8.4392117"><ele>166.0</ele><time>2026-05-02T08:38:37.379Z</time></trkpt><trkpt lat="39.4891983" lon="8.4389833"><ele>165.0</ele><time>2026-05-02T08:38:38.392Z</time></trkpt><trkpt lat="39.489195" lon="8.4387583"><ele>164.0</ele><time>2026-05-02T08:38:39.383Z</time></trkpt><trkpt lat="39.4891967" lon="8.4385383"><ele>163.0</ele><time>2026-05-02T08:38:40.379Z</time></trkpt><trkpt lat="39.489185" lon="8.4383267"><ele>162.0</ele><time>2026-05-02T08:38:41.381Z</time></trkpt><trkpt lat="39.4891817" lon="8.4381117"><ele>161.0</ele><time>2026-05-02T08:38:42.379Z</time></trkpt><trkpt lat="39.489175" lon="8.4379133"><ele>160.0</ele><time>2026-05-02T08:38:43.381Z</time></trkpt><trkpt lat="39.4891667" lon="8.4377217"><ele>159.0</ele><time>2026-05-02T08:38:44.387Z</time></trkpt><trkpt lat="39.4891583" lon="8.43753"><ele>158.0</ele><time>2026-05-02T08:38:45.377Z</time></trkpt><trkpt lat="39.489135" lon="8.4373333"><ele>157.66666666666666</ele><time>2026-05-02T08:38:46.38Z</time></trkpt><trkpt lat="39.489115" lon="8.43713"><ele>157.33333333333334</ele><time>2026-05-02T08:38:47.38Z</time></trkpt><trkpt lat="39.4890983" lon="8.4369233"><ele>157.0</ele><time>2026-05-02T08:38:48.379Z</time></trkpt><trkpt lat="39.4890933" lon="8.4367283"><ele>157.0</ele><time>2026-05-02T08:38:49.378Z</time></trkpt><trkpt lat="39.4890917" lon="8.436525"><ele>157.0</ele><time>2026-05-02T08:38:50.392Z</time></trkpt><trkpt lat="39.4891" lon="8.4363217"><ele>157.0</ele><time>2026-05-02T08:38:51.381Z</time></trkpt><trkpt lat="39.489085" lon="8.4361367"><ele>155.66666666666669</ele><time>2026-05-02T08:38:52.38Z</time></trkpt><trkpt lat="39.4890833" lon="8.4359417"><ele>154.33333333333334</ele><time>2026-05-02T08:38:53.38Z</time></trkpt><trkpt lat="39.4890867" lon="8.4357483"><ele>153.0</ele><time>2026-05-02T08:38:54.38Z</time></trkpt><trkpt lat="39.4890933" lon="8.4355517"><ele>152.75</ele><time>2026-05-02T08:38:55.379Z</time></trkpt><trkpt lat="39.48912" lon="8.4353833"><ele>152.5</ele><time>2026-05-02T08:38:56.445Z</time></trkpt><trkpt lat="39.489145" lon="8.4352283"><ele>152.25</ele><time>2026-05-02T08:38:57.378Z</time></trkpt><trkpt lat="39.4892" lon="8.4351"><ele>152.0</ele><time>2026-05-02T08:38:58.379Z</time></trkpt><trkpt lat="39.4892517" lon="8.43495"><ele>152.0</ele><time>2026-05-02T08:38:59.377Z</time></trkpt><trkpt lat="39.4893" lon="8.4348117"><ele>152.0</ele><time>2026-05-02T08:39:00.38Z</time></trkpt><trkpt lat="39.48939" lon="8.4346917"><ele>152.0</ele><time>2026-05-02T08:39:01.381Z</time></trkpt><trkpt lat="39.4894833" lon="8.4345733"><ele>152.0</ele><time>2026-05-02T08:39:02.413Z</time></trkpt><trkpt lat="39.489565" lon="8.4344383"><ele>148.5</ele><time>2026-05-02T08:39:03.381Z</time></trkpt><trkpt lat="39.4896567" lon="8.434295"><ele>145.0</ele><time>2026-05-02T08:39:04.378Z</time></trkpt><trkpt lat="39.4897467" lon="8.43416"><ele>141.5</ele><time>2026-05-02T08:39:05.375Z</time></trkpt><trkpt lat="39.4898217" lon="8.4340467"><ele>138.0</ele><time>2026-05-02T08:39:06.382Z</time></trkpt><trkpt lat="39.489905" lon="8.43393"><ele>138.0</ele><time>2026-05-02T08:39:07.379Z</time></trkpt><trkpt lat="39.4900167" lon="8.4338367"><ele>138.0</ele><time>2026-05-02T08:39:08.391Z</time></trkpt><trkpt lat="39.4901583" lon="8.4337417"><ele>138.0</ele><time>2026-05-02T08:39:09.382Z</time></trkpt><trkpt lat="39.4902883" lon="8.4336433"><ele>138.0</ele><time>2026-05-02T08:39:10.381Z</time></trkpt><trkpt lat="39.4904383" lon="8.4335617"><ele>136.33333333333334</ele><time>2026-05-02T08:39:11.381Z</time></trkpt><trkpt lat="39.4905933" lon="8.43348"><ele>134.66666666666669</ele><time>2026-05-02T08:39:12.381Z</time></trkpt><trkpt lat="39.4907533" lon="8.4333867"><ele>133.0</ele><time>2026-05-02T08:39:13.381Z</time></trkpt><trkpt lat="39.490915" lon="8.4332867"><ele>133.0</ele><time>2026-05-02T08:39:14.393Z</time></trkpt><trkpt lat="39.49108" lon="8.4331867"><ele>133.0</ele><time>2026-05-02T08:39:15.381Z</time></trkpt><trkpt lat="39.491225" lon="8.4330917"><ele>133.0</ele><time>2026-05-02T08:39:16.38Z</time></trkpt><trkpt lat="39.49138" lon="8.4330017"><ele>131.0</ele><time>2026-05-02T08:39:17.378Z</time></trkpt><trkpt lat="39.49153" lon="8.4329033"><ele>129.0</ele><time>2026-05-02T08:39:18.381Z</time></trkpt><trkpt lat="39.4916817" lon="8.4328"><ele>127.0</ele><time>2026-05-02T08:39:19.381Z</time></trkpt><trkpt lat="39.49183" lon="8.4326833"><ele>127.0</ele><time>2026-05-02T08:39:20.393Z</time></trkpt><trkpt lat="39.4919717" lon="8.43257"><ele>127.0</ele><time>2026-05-02T08:39:21.376Z</time></trkpt><trkpt lat="39.4921183" lon="8.43246"><ele>127.0</ele><time>2026-05-02T08:39:22.379Z</time></trkpt><trkpt lat="39.49226" lon="8.432355"><ele>125.0</ele><time>2026-05-02T08:39:23.381Z</time></trkpt><trkpt lat="39.4923983" lon="8.4322717"><ele>123.0</ele><time>2026-05-02T08:39:24.382Z</time></trkpt><trkpt lat="39.492525" lon="8.4321717"><ele>121.0</ele><time>2026-05-02T08:39:25.379Z</time></trkpt><trkpt lat="39.4926333" lon="8.4320867"><ele>119.0</ele><time>2026-05-02T08:39:26.379Z</time></trkpt><trkpt lat="39.4927283" lon="8.4320233"><ele>118.80000000000001</ele><time>2026-05-02T08:39:27.38Z</time></trkpt><trkpt lat="39.4927917" lon="8.43195"><ele>118.60000000000001</ele><time>2026-05-02T08:39:28.381Z</time></trkpt><trkpt lat="39.4928417" lon="8.4318433"><ele>118.4</ele><time>2026-05-02T08:39:29.382Z</time></trkpt><trkpt lat="39.4928717" lon="8.4317"><ele>118.2</ele><time>2026-05-02T08:39:30.379Z</time></trkpt><trkpt lat="39.4928733" lon="8.4315367"><ele>118.0</ele><time>2026-05-02T08:39:31.379Z</time></trkpt><trkpt lat="39.49287" lon="8.4313533"><ele>117.33333333333334</ele><time>2026-05-02T08:39:32.381Z</time></trkpt><trkpt lat="39.4928533" lon="8.4311383"><ele>116.66666666666666</ele><time>2026-05-02T08:39:33.377Z</time></trkpt><trkpt lat="39.492855" lon="8.4309383"><ele>116.0</ele><time>2026-05-02T08:39:34.379Z</time></trkpt><trkpt lat="39.4928317" lon="8.4307383"><ele>116.0</ele><time>2026-05-02T08:39:35.382Z</time></trkpt><trkpt lat="39.4928083" lon="8.43054"><ele>116.0</ele><time>2026-05-02T08:39:36.379Z</time></trkpt><trkpt lat="39.4927883" lon="8.4303433"><ele>116.0</ele><time>2026-05-02T08:39:37.38Z</time></trkpt><trkpt lat="39.4927633" lon="8.430175"><ele>116.0</ele><time>2026-05-02T08:39:38.391Z</time></trkpt><trkpt lat="39.49272" lon="8.430015"><ele>114.75</ele><time>2026-05-02T08:39:39.38Z</time></trkpt><trkpt lat="39.492655" lon="8.4298667"><ele>113.5</ele><time>2026-05-02T08:39:40.38Z</time></trkpt><trkpt lat="39.492565" lon="8.4297217"><ele>112.25</ele><time>2026-05-02T08:39:41.379Z</time></trkpt><trkpt lat="39.4924617" lon="8.4295817"><ele>111.0</ele><time>2026-05-02T08:39:42.376Z</time></trkpt><trkpt lat="39.4923433" lon="8.4294633"><ele>109.75</ele><time>2026-05-02T08:39:43.379Z</time></trkpt><trkpt lat="39.4922317" lon="8.4293483"><ele>108.5</ele><time>2026-05-02T08:39:44.387Z</time></trkpt><trkpt lat="39.4921083" lon="8.429245"><ele>107.25</ele><time>2026-05-02T08:39:45.378Z</time></trkpt><trkpt lat="39.4919783" lon="8.4291533"><ele>106.0</ele><time>2026-05-02T08:39:46.38Z</time></trkpt><trkpt lat="39.491825" lon="8.42908"><ele>106.0</ele><time>2026-05-02T08:39:47.381Z</time></trkpt><trkpt lat="39.4916667" lon="8.429025"><ele>106.0</ele><time>2026-05-02T08:39:48.382Z</time></trkpt><trkpt lat="39.4915017" lon="8.4289933"><ele>106.0</ele><time>2026-05-02T08:39:49.378Z</time></trkpt><trkpt lat="39.4913117" lon="8.428985"><ele>106.66666666666667</ele><time>2026-05-02T08:39:50.395Z</time></trkpt><trkpt lat="39.491135" lon="8.4289917"><ele>107.33333333333334</ele><time>2026-05-02T08:39:51.377Z</time></trkpt><trkpt lat="39.4909767" lon="8.428995"><ele>108.0</ele><time>2026-05-02T08:39:52.38Z</time></trkpt><trkpt lat="39.4908117" lon="8.429"><ele>108.0</ele><time>2026-05-02T08:39:53.382Z</time></trkpt><trkpt lat="39.490685" lon="8.4289933"><ele>108.0</ele><time>2026-05-02T08:39:54.376Z</time></trkpt><trkpt lat="39.4905567" lon="8.4289717"><ele>108.0</ele><time>2026-05-02T08:39:55.383Z</time></trkpt><trkpt lat="39.4904133" lon="8.42893"><ele>108.0</ele><time>2026-05-02T08:39:56.447Z</time></trkpt><trkpt lat="39.4902917" lon="8.4288817"><ele>108.2</ele><time>2026-05-02T08:39:57.377Z</time></trkpt><trkpt lat="39.4901817" lon="8.42882"><ele>108.4</ele><time>2026-05-02T08:39:58.379Z</time></trkpt><trkpt lat="39.4900933" lon="8.4287617"><ele>108.60000000000001</ele><time>2026-05-02T08:39:59.38Z</time></trkpt><trkpt lat="39.4900133" lon="8.42868"><ele>108.80000000000001</ele><time>2026-05-02T08:40:00.379Z</time></trkpt><trkpt lat="39.4899417" lon="8.4285933"><ele>109.0</ele><time>2026-05-02T08:40:01.376Z</time></trkpt><trkpt lat="39.4898883" lon="8.4284767"><ele>107.25</ele><time>2026-05-02T08:40:02.381Z</time></trkpt><trkpt lat="39.4898367" lon="8.4283333"><ele>105.5</ele><time>2026-05-02T08:40:03.375Z</time></trkpt><trkpt lat="39.4897683" lon="8.42819"><ele>103.75</ele><time>2026-05-02T08:40:04.38Z</time></trkpt><trkpt lat="39.4897133" lon="8.4280317"><ele>102.0</ele><time>2026-05-02T08:40:05.378Z</time></trkpt><trkpt lat="39.489665" lon="8.4278517"><ele>99.66666666666667</ele><time>2026-05-02T08:40:06.382Z</time></trkpt><trkpt lat="39.4896317" lon="8.4276383"><ele>97.33333333333334</ele><time>2026-05-02T08:40:07.38Z</time></trkpt><trkpt lat="39.48959" lon="8.4274567"><ele>95.0</ele><time>2026-05-02T08:40:08.388Z</time></trkpt><trkpt lat="39.48953" lon="8.4272767"><ele>94.5</ele><time>2026-05-02T08:40:09.382Z</time></trkpt><trkpt lat="39.4894833" lon="8.4271033"><ele>94.0</ele><time>2026-05-02T08:40:10.378Z</time></trkpt><trkpt lat="39.48943" lon="8.4269383"><ele>93.5</ele><time>2026-05-02T08:40:11.381Z</time></trkpt><trkpt lat="39.4893733" lon="8.4267733"><ele>93.0</ele><time>2026-05-02T08:40:12.378Z</time></trkpt><trkpt lat="39.48932" lon="8.4266033"><ele>93.0</ele><time>2026-05-02T08:40:13.382Z</time></trkpt><trkpt lat="39.4892567" lon="8.4264333"><ele>93.0</ele><time>2026-05-02T08:40:14.389Z</time></trkpt><trkpt lat="39.489185" lon="8.4262483"><ele>93.0</ele><time>2026-05-02T08:40:15.378Z</time></trkpt><trkpt lat="39.4891183" lon="8.4260767"><ele>92.33333333333333</ele><time>2026-05-02T08:40:16.38Z</time></trkpt><trkpt lat="39.4890367" lon="8.425915"><ele>91.66666666666666</ele><time>2026-05-02T08:40:17.376Z</time></trkpt><trkpt lat="39.4889517" lon="8.4257267"><ele>91.0</ele><time>2026-05-02T08:40:18.379Z</time></trkpt><trkpt lat="39.4888783" lon="8.4255533"><ele>91.66666666666666</ele><time>2026-05-02T08:40:19.381Z</time></trkpt><trkpt lat="39.4887867" lon="8.4253933"><ele>92.33333333333333</ele><time>2026-05-02T08:40:20.39Z</time></trkpt><trkpt lat="39.4886833" lon="8.4252383"><ele>93.0</ele><time>2026-05-02T08:40:21.381Z</time></trkpt><trkpt lat="39.4885867" lon="8.4250767"><ele>92.75</ele><time>2026-05-02T08:40:22.382Z</time></trkpt><trkpt lat="39.4885083" lon="8.424935"><ele>92.5</ele><time>2026-05-02T08:40:23.383Z</time></trkpt><trkpt lat="39.4884667" lon="8.4247783"><ele>92.25</ele><time>2026-05-02T08:40:24.38Z</time></trkpt><trkpt lat="39.4883967" lon="8.4246383"><ele>92.0</ele><time>2026-05-02T08:40:25.382Z</time></trkpt><trkpt lat="39.4883217" lon="8.4244917"><ele>92.0</ele><time>2026-05-02T08:40:26.378Z</time></trkpt><trkpt lat="39.4882467" lon="8.4243667"><ele>92.0</ele><time>2026-05-02T08:40:27.381Z</time></trkpt><trkpt lat="39.4881883" lon="8.4242433"><ele>92.0</ele><time>2026-05-02T08:40:28.376Z</time></trkpt><trkpt lat="39.4881133" lon="8.424115"><ele>92.0</ele><time>2026-05-02T08:40:29.382Z</time></trkpt><trkpt lat="39.48803" lon="8.424"><ele>92.0</ele><time>2026-05-02T08:40:30.377Z</time></trkpt><trkpt lat="39.4879717" lon="8.4239017"><ele>92.0</ele><time>2026-05-02T08:40:31.377Z</time></trkpt><trkpt lat="39.4879333" lon="8.4238083"><ele>92.0</ele><time>2026-05-02T08:40:32.377Z</time></trkpt><trkpt lat="39.4878883" lon="8.4237367"><ele>92.0</ele><time>2026-05-02T08:40:33.379Z</time></trkpt><trkpt lat="39.487815" lon="8.42363"><ele>92.0</ele><time>2026-05-02T08:40:35.382Z</time></trkpt><trkpt lat="39.487735" lon="8.4235467"><ele>91.8</ele><time>2026-05-02T08:40:37.381Z</time></trkpt><trkpt lat="39.4876433" lon="8.4234317"><ele>91.6</ele><time>2026-05-02T08:40:39.381Z</time></trkpt><trkpt lat="39.4875883" lon="8.4233617"><ele>91.39999999999999</ele><time>2026-05-02T08:40:40.382Z</time></trkpt><trkpt lat="39.4875317" lon="8.4232917"><ele>91.19999999999999</ele><time>2026-05-02T08:40:41.378Z</time></trkpt><trkpt lat="39.48747" lon="8.4232183"><ele>91.0</ele><time>2026-05-02T08:40:42.377Z</time></trkpt><trkpt lat="39.48741" lon="8.4231417"><ele>91.0</ele><time>2026-05-02T08:40:43.38Z</time></trkpt><trkpt lat="39.4873483" lon="8.423055"><ele>91.0</ele><time>2026-05-02T08:40:44.392Z</time></trkpt><trkpt lat="39.4872933" lon="8.4229733"><ele>91.0</ele><time>2026-05-02T08:40:45.38Z</time></trkpt><trkpt lat="39.487235" lon="8.4228733"><ele>91.0</ele><time>2026-05-02T08:40:46.378Z</time></trkpt><trkpt lat="39.4871833" lon="8.4227617"><ele>91.0</ele><time>2026-05-02T08:40:47.378Z</time></trkpt><trkpt lat="39.4871367" lon="8.42264"><ele>91.5</ele><time>2026-05-02T08:40:48.383Z</time></trkpt><trkpt lat="39.48709" lon="8.4225217"><ele>92.0</ele><time>2026-05-02T08:40:49.382Z</time></trkpt><trkpt lat="39.48706" lon="8.42243"><ele>92.5</ele><time>2026-05-02T08:40:50.391Z</time></trkpt><trkpt lat="39.48703" lon="8.4223517"><ele>93.0</ele><time>2026-05-02T08:40:51.383Z</time></trkpt><trkpt lat="39.4869933" lon="8.422285"><ele>93.5</ele><time>2026-05-02T08:40:52.381Z</time></trkpt><trkpt lat="39.4869333" lon="8.422175"><ele>94.0</ele><time>2026-05-02T08:40:54.383Z</time></trkpt><trkpt lat="39.4868867" lon="8.4220933"><ele>94.33333333333333</ele><time>2026-05-02T08:40:56.378Z</time></trkpt><trkpt lat="39.4868417" lon="8.42202"><ele>94.66666666666666</ele><time>2026-05-02T08:41:27.378Z</time></trkpt><trkpt lat="39.4868133" lon="8.4219133"><ele>95.0</ele><time>2026-05-02T08:41:29.379Z</time></trkpt><trkpt lat="39.4867917" lon="8.4218217"><ele>95.33333333333333</ele><time>2026-05-02T08:41:30.378Z</time></trkpt><trkpt lat="39.486765" lon="8.421705"><ele>95.66666666666667</ele><time>2026-05-02T08:41:31.38Z</time></trkpt><trkpt lat="39.48674" lon="8.421555"><ele>96.0</ele><time>2026-05-02T08:41:32.398Z</time></trkpt><trkpt lat="39.4867133" lon="8.421415"><ele>96.19999999999999</ele><time>2026-05-02T08:41:33.382Z</time></trkpt><trkpt lat="39.4866817" lon="8.4212517"><ele>96.39999999999999</ele><time>2026-05-02T08:41:34.382Z</time></trkpt><trkpt lat="39.4866583" lon="8.421135"><ele>96.6</ele><time>2026-05-02T08:41:35.383Z</time></trkpt><trkpt lat="39.4866133" lon="8.4210417"><ele>96.8</ele><time>2026-05-02T08:41:36.376Z</time></trkpt><trkpt lat="39.486555" lon="8.420975"><ele>97.0</ele><time>2026-05-02T08:41:37.379Z</time></trkpt><trkpt lat="39.4864933" lon="8.4209367"><ele>97.00000000000001</ele><time>2026-05-02T08:41:38.389Z</time></trkpt><trkpt lat="39.486405" lon="8.4209517"><ele>97.0</ele><time>2026-05-02T08:41:40.381Z</time></trkpt><trkpt lat="39.4863733" lon="8.4210267"><ele>97.0</ele><time>2026-05-02T08:41:41.381Z</time></trkpt><trkpt lat="39.486345" lon="8.4211067"><ele>97.0</ele><time>2026-05-02T08:41:42.382Z</time></trkpt><trkpt lat="39.48632" lon="8.4212067"><ele>97.00000000000001</ele><time>2026-05-02T08:41:43.379Z</time></trkpt><trkpt lat="39.4863" lon="8.42134"><ele>97.0</ele><time>2026-05-02T08:41:44.39Z</time></trkpt><trkpt lat="39.4862733" lon="8.4214817"><ele>98.5</ele><time>2026-05-02T08:41:45.381Z</time></trkpt><trkpt lat="39.4862467" lon="8.42167"><ele>100.0</ele><time>2026-05-02T08:41:46.379Z</time></trkpt><trkpt lat="39.486205" lon="8.4218633"><ele>101.5</ele><time>2026-05-02T08:41:47.377Z</time></trkpt><trkpt lat="39.4861867" lon="8.4220233"><ele>103.0</ele><time>2026-05-02T08:41:48.381Z</time></trkpt><trkpt lat="39.4861567" lon="8.4221567"><ele>103.00000000000001</ele><time>2026-05-02T08:41:49.38Z</time></trkpt><trkpt lat="39.48616" lon="8.42227"><ele>103.0</ele><time>2026-05-02T08:41:50.391Z</time></trkpt><trkpt lat="39.486155" lon="8.4223767"><ele>103.0</ele><time>2026-05-02T08:41:51.381Z</time></trkpt><trkpt lat="39.4861417" lon="8.422485"><ele>103.0</ele><time>2026-05-02T08:41:52.38Z</time></trkpt><trkpt lat="39.48613" lon="8.4225933"><ele>103.00000000000001</ele><time>2026-05-02T08:41:53.381Z</time></trkpt><trkpt lat="39.4861233" lon="8.4227083"><ele>103.0</ele><time>2026-05-02T08:41:54.375Z</time></trkpt><trkpt lat="39.4861117" lon="8.42283"><ele>103.0</ele><time>2026-05-02T08:41:55.381Z</time></trkpt><trkpt lat="39.4861033" lon="8.4229583"><ele>103.0</ele><time>2026-05-02T08:41:56.383Z</time></trkpt><trkpt lat="39.4861017" lon="8.4231083"><ele>103.0</ele><time>2026-05-02T08:41:57.38Z</time></trkpt><trkpt lat="39.4860817" lon="8.4232233"><ele>103.0</ele><time>2026-05-02T08:41:58.379Z</time></trkpt><trkpt lat="39.48607" lon="8.423365"><ele>103.0</ele><time>2026-05-02T08:41:59.378Z</time></trkpt><trkpt lat="39.4860517" lon="8.4234967"><ele>103.2</ele><time>2026-05-02T08:42:00.381Z</time></trkpt><trkpt lat="39.4860233" lon="8.4235733"><ele>103.4</ele><time>2026-05-02T08:42:01.377Z</time></trkpt><trkpt lat="39.4860383" lon="8.4237667"><ele>103.60000000000001</ele><time>2026-05-02T08:42:02.38Z</time></trkpt><trkpt lat="39.4860483" lon="8.4239133"><ele>103.80000000000001</ele><time>2026-05-02T08:42:03.382Z</time></trkpt><trkpt lat="39.4860667" lon="8.4240517"><ele>104.0</ele><time>2026-05-02T08:42:04.378Z</time></trkpt><trkpt lat="39.4861" lon="8.4242783"><ele>104.0</ele><time>2026-05-02T08:42:05.379Z</time></trkpt><trkpt lat="39.4861417" lon="8.4244483"><ele>104.0</ele><time>2026-05-02T08:42:06.382Z</time></trkpt><trkpt lat="39.48618" lon="8.4246133"><ele>104.0</ele><time>2026-05-02T08:42:07.378Z</time></trkpt><trkpt lat="39.4862283" lon="8.42475"><ele>104.0</ele><time>2026-05-02T08:42:08.392Z</time></trkpt><trkpt lat="39.48626" lon="8.4248933"><ele>103.25</ele><time>2026-05-02T08:42:09.382Z</time></trkpt><trkpt lat="39.4862783" lon="8.4250333"><ele>102.5</ele><time>2026-05-02T08:42:10.38Z</time></trkpt><trkpt lat="39.4863" lon="8.4251733"><ele>101.75</ele><time>2026-05-02T08:42:11.379Z</time></trkpt><trkpt lat="39.48629" lon="8.425325"><ele>101.0</ele><time>2026-05-02T08:42:12.381Z</time></trkpt><trkpt lat="39.4862733" lon="8.4254767"><ele>101.6</ele><time>2026-05-02T08:42:13.38Z</time></trkpt><trkpt lat="39.4862633" lon="8.4256183"><ele>102.19999999999999</ele><time>2026-05-02T08:42:14.389Z</time></trkpt><trkpt lat="39.486235" lon="8.4257433"><ele>102.80000000000001</ele><time>2026-05-02T08:42:15.381Z</time></trkpt><trkpt lat="39.486205" lon="8.4258683"><ele>103.4</ele><time>2026-05-02T08:42:16.378Z</time></trkpt><trkpt lat="39.4861317" lon="8.426005"><ele>104.0</ele><time>2026-05-02T08:42:17.379Z</time></trkpt><trkpt lat="39.486075" lon="8.426075"><ele>104.75</ele><time>2026-05-02T08:42:18.38Z</time></trkpt><trkpt lat="39.4859617" lon="8.42613"><ele>105.5</ele><time>2026-05-02T08:42:19.381Z</time></trkpt><trkpt lat="39.485865" lon="8.4262217"><ele>106.25</ele><time>2026-05-02T08:42:20.39Z</time></trkpt><trkpt lat="39.4857683" lon="8.42635"><ele>107.0</ele><time>2026-05-02T08:42:21.375Z</time></trkpt><trkpt lat="39.4856717" lon="8.4264217"><ele>107.25</ele><time>2026-05-02T08:42:22.38Z</time></trkpt><trkpt lat="39.4855917" lon="8.4265583"><ele>107.5</ele><time>2026-05-02T08:42:23.378Z</time></trkpt><trkpt lat="39.4854967" lon="8.426685"><ele>107.75</ele><time>2026-05-02T08:42:24.379Z</time></trkpt><trkpt lat="39.4853967" lon="8.4267967"><ele>108.0</ele><time>2026-05-02T08:42:25.376Z</time></trkpt><trkpt lat="39.4852917" lon="8.4269"><ele>109.0</ele><time>2026-05-02T08:42:26.444Z</time></trkpt><trkpt lat="39.485175" lon="8.4270083"><ele>110.0</ele><time>2026-05-02T08:42:27.379Z</time></trkpt><trkpt lat="39.48506" lon="8.427105"><ele>111.0</ele><time>2026-05-02T08:42:28.376Z</time></trkpt><trkpt lat="39.48495" lon="8.42723"><ele>112.0</ele><time>2026-05-02T08:42:29.38Z</time></trkpt><trkpt lat="39.4848517" lon="8.427335"><ele>113.33333333333334</ele><time>2026-05-02T08:42:30.378Z</time></trkpt><trkpt lat="39.48474" lon="8.4274633"><ele>114.66666666666666</ele><time>2026-05-02T08:42:31.378Z</time></trkpt><trkpt lat="39.4846367" lon="8.4276033"><ele>116.0</ele><time>2026-05-02T08:42:32.396Z</time></trkpt><trkpt lat="39.4845417" lon="8.4277617"><ele>117.25</ele><time>2026-05-02T08:42:33.379Z</time></trkpt><trkpt lat="39.4844317" lon="8.4278767"><ele>118.5</ele><time>2026-05-02T08:42:34.379Z</time></trkpt><trkpt lat="39.4843317" lon="8.4279883"><ele>119.75</ele><time>2026-05-02T08:42:35.381Z</time></trkpt><trkpt lat="39.48424" lon="8.4281133"><ele>121.0</ele><time>2026-05-02T08:42:36.381Z</time></trkpt><trkpt lat="39.48413" lon="8.4282167"><ele>121.0</ele><time>2026-05-02T08:42:37.377Z</time></trkpt><trkpt lat="39.4840233" lon="8.42836"><ele>121.0</ele><time>2026-05-02T08:42:38.39Z</time></trkpt><trkpt lat="39.4839" lon="8.42848"><ele>121.0</ele><time>2026-05-02T08:42:39.378Z</time></trkpt><trkpt lat="39.483775" lon="8.4285817"><ele>123.0</ele><time>2026-05-02T08:42:40.379Z</time></trkpt><trkpt lat="39.4836267" lon="8.42869"><ele>125.0</ele><time>2026-05-02T08:42:41.382Z</time></trkpt><trkpt lat="39.4834717" lon="8.4287833"><ele>127.0</ele><time>2026-05-02T08:42:42.377Z</time></trkpt><trkpt lat="39.483315" lon="8.4288583"><ele>127.66666666666667</ele><time>2026-05-02T08:42:43.379Z</time></trkpt><trkpt lat="39.48318" lon="8.4289617"><ele>128.33333333333334</ele><time>2026-05-02T08:42:44.386Z</time></trkpt><trkpt lat="39.4830483" lon="8.4290817"><ele>129.0</ele><time>2026-05-02T08:42:45.378Z</time></trkpt><trkpt lat="39.482895" lon="8.4291983"><ele>131.0</ele><time>2026-05-02T08:42:46.381Z</time></trkpt><trkpt lat="39.482735" lon="8.429325"><ele>133.0</ele><time>2026-05-02T08:42:47.378Z</time></trkpt><trkpt lat="39.4826" lon="8.429455"><ele>135.0</ele><time>2026-05-02T08:42:48.382Z</time></trkpt><trkpt lat="39.4824617" lon="8.4295783"><ele>135.33333333333334</ele><time>2026-05-02T08:42:49.382Z</time></trkpt><trkpt lat="39.48234" lon="8.4296867"><ele>135.66666666666669</ele><time>2026-05-02T08:42:50.39Z</time></trkpt><trkpt lat="39.4822083" lon="8.4298117"><ele>136.0</ele><time>2026-05-02T08:42:51.38Z</time></trkpt><trkpt lat="39.4820467" lon="8.4299333"><ele>137.33333333333334</ele><time>2026-05-02T08:42:52.38Z</time></trkpt><trkpt lat="39.4819" lon="8.4300417"><ele>138.66666666666666</ele><time>2026-05-02T08:42:53.381Z</time></trkpt><trkpt lat="39.481745" lon="8.43015"><ele>140.0</ele><time>2026-05-02T08:42:54.377Z</time></trkpt><trkpt lat="39.4815983" lon="8.4302617"><ele>140.0</ele><time>2026-05-02T08:42:55.376Z</time></trkpt><trkpt lat="39.4814467" lon="8.4303633"><ele>140.0</ele><time>2026-05-02T08:42:56.394Z</time></trkpt><trkpt lat="39.481305" lon="8.4304667"><ele>140.0</ele><time>2026-05-02T08:42:57.377Z</time></trkpt><trkpt lat="39.4811733" lon="8.4305683"><ele>141.33333333333331</ele><time>2026-05-02T08:42:58.376Z</time></trkpt><trkpt lat="39.481045" lon="8.4306817"><ele>142.66666666666666</ele><time>2026-05-02T08:42:59.377Z</time></trkpt><trkpt lat="39.48093" lon="8.4307983"><ele>144.0</ele><time>2026-05-02T08:43:00.378Z</time></trkpt><trkpt lat="39.4808117" lon="8.4309167"><ele>144.0</ele><time>2026-05-02T08:43:01.375Z</time></trkpt><trkpt lat="39.4807283" lon="8.4310217"><ele>144.0</ele><time>2026-05-02T08:43:02.378Z</time></trkpt><trkpt lat="39.4806433" lon="8.43114"><ele>144.0</ele><time>2026-05-02T08:43:03.382Z</time></trkpt><trkpt lat="39.480565" lon="8.4312417"><ele>144.0</ele><time>2026-05-02T08:43:04.376Z</time></trkpt><trkpt lat="39.4804783" lon="8.4313367"><ele>145.4</ele><time>2026-05-02T08:43:05.378Z</time></trkpt><trkpt lat="39.480385" lon="8.4314033"><ele>146.8</ele><time>2026-05-02T08:43:06.377Z</time></trkpt><trkpt lat="39.48028" lon="8.4314683"><ele>148.2</ele><time>2026-05-02T08:43:07.378Z</time></trkpt><trkpt lat="39.48015" lon="8.4314933"><ele>149.6</ele><time>2026-05-02T08:43:08.389Z</time></trkpt><trkpt lat="39.480065" lon="8.4315467"><ele>151.0</ele><time>2026-05-02T08:43:09.38Z</time></trkpt><trkpt lat="39.4799767" lon="8.4315833"><ele>151.0</ele><time>2026-05-02T08:43:10.379Z</time></trkpt><trkpt lat="39.479905" lon="8.43162"><ele>151.0</ele><time>2026-05-02T08:43:11.377Z</time></trkpt><trkpt lat="39.479825" lon="8.4316417"><ele>151.0</ele><time>2026-05-02T08:43:12.379Z</time></trkpt><trkpt lat="39.4797583" lon="8.4316833"><ele>151.0</ele><time>2026-05-02T08:43:13.378Z</time></trkpt><trkpt lat="39.4796883" lon="8.4317483"><ele>151.0</ele><time>2026-05-02T08:43:14.396Z</time></trkpt><trkpt lat="39.47963" lon="8.4318233"><ele>151.0</ele><time>2026-05-02T08:43:15.376Z</time></trkpt><trkpt lat="39.4795833" lon="8.43192"><ele>151.16666666666669</ele><time>2026-05-02T08:43:16.38Z</time></trkpt><trkpt lat="39.4795233" lon="8.432"><ele>151.33333333333334</ele><time>2026-05-02T08:43:17.385Z</time></trkpt><trkpt lat="39.4794567" lon="8.4320767"><ele>151.5</ele><time>2026-05-02T08:43:18.376Z</time></trkpt><trkpt lat="39.4793883" lon="8.4321417"><ele>151.66666666666666</ele><time>2026-05-02T08:43:19.375Z</time></trkpt><trkpt lat="39.4793233" lon="8.432195"><ele>151.83333333333331</ele><time>2026-05-02T08:43:20.389Z</time></trkpt><trkpt lat="39.4792567" lon="8.4322317"><ele>152.0</ele><time>2026-05-02T08:43:21.376Z</time></trkpt><trkpt lat="39.47919" lon="8.4322733"><ele>152.16666666666666</ele><time>2026-05-02T08:43:22.375Z</time></trkpt><trkpt lat="39.4791283" lon="8.4323267"><ele>152.33333333333331</ele><time>2026-05-02T08:43:23.382Z</time></trkpt><trkpt lat="39.4790717" lon="8.4323967"><ele>152.5</ele><time>2026-05-02T08:43:24.378Z</time></trkpt><trkpt lat="39.4790183" lon="8.4324783"><ele>152.66666666666666</ele><time>2026-05-02T08:43:25.379Z</time></trkpt><trkpt lat="39.4789633" lon="8.43257"><ele>152.83333333333334</ele><time>2026-05-02T08:43:26.397Z</time></trkpt><trkpt lat="39.4789083" lon="8.43266"><ele>153.0</ele><time>2026-05-02T08:43:27.375Z</time></trkpt><trkpt lat="39.4788433" lon="8.4327617"><ele>153.0</ele><time>2026-05-02T08:43:28.377Z</time></trkpt><trkpt lat="39.4787733" lon="8.4328667"><ele>153.0</ele><time>2026-05-02T08:43:29.381Z</time></trkpt><trkpt lat="39.478705" lon="8.432965"><ele>153.0</ele><time>2026-05-02T08:43:30.379Z</time></trkpt><trkpt lat="39.4786217" lon="8.4331233"><ele>153.0</ele><time>2026-05-02T08:43:31.38Z</time></trkpt><trkpt lat="39.478555" lon="8.4332067"><ele>155.5</ele><time>2026-05-02T08:43:32.382Z</time></trkpt><trkpt lat="39.4784433" lon="8.4332917"><ele>158.0</ele><time>2026-05-02T08:43:33.379Z</time></trkpt><trkpt lat="39.4783567" lon="8.433375"><ele>160.5</ele><time>2026-05-02T08:43:34.382Z</time></trkpt><trkpt lat="39.4782367" lon="8.4334433"><ele>163.0</ele><time>2026-05-02T08:43:35.38Z</time></trkpt><trkpt lat="39.4781083" lon="8.4334967"><ele>163.0</ele><time>2026-05-02T08:43:36.379Z</time></trkpt><trkpt lat="39.47798" lon="8.4335717"><ele>163.0</ele><time>2026-05-02T08:43:37.375Z</time></trkpt><trkpt lat="39.47784" lon="8.4336667"><ele>163.0</ele><time>2026-05-02T08:43:38.389Z</time></trkpt><trkpt lat="39.47769" lon="8.4337433"><ele>164.25</ele><time>2026-05-02T08:43:39.384Z</time></trkpt><trkpt lat="39.477545" lon="8.4337817"><ele>165.5</ele><time>2026-05-02T08:43:40.38Z</time></trkpt><trkpt lat="39.4773983" lon="8.4338167"><ele>166.75</ele><time>2026-05-02T08:43:41.376Z</time></trkpt><trkpt lat="39.47726" lon="8.43386"><ele>168.0</ele><time>2026-05-02T08:43:42.38Z</time></trkpt><trkpt lat="39.477125" lon="8.433935"><ele>170.33333333333334</ele><time>2026-05-02T08:43:43.379Z</time></trkpt><trkpt lat="39.476975" lon="8.4340283"><ele>172.66666666666669</ele><time>2026-05-02T08:43:44.387Z</time></trkpt><trkpt lat="39.4768283" lon="8.4341283"><ele>175.0</ele><time>2026-05-02T08:43:45.379Z</time></trkpt><trkpt lat="39.4766833" lon="8.43424"><ele>175.0</ele><time>2026-05-02T08:43:46.378Z</time></trkpt><trkpt lat="39.476535" lon="8.4343617"><ele>175.0</ele><time>2026-05-02T08:43:47.376Z</time></trkpt><trkpt lat="39.4763833" lon="8.4344767"><ele>175.0</ele><time>2026-05-02T08:43:48.381Z</time></trkpt><trkpt lat="39.4762383" lon="8.4345917"><ele>176.0</ele><time>2026-05-02T08:43:49.38Z</time></trkpt><trkpt lat="39.4760983" lon="8.434715"><ele>177.0</ele><time>2026-05-02T08:43:50.39Z</time></trkpt><trkpt lat="39.4759867" lon="8.4348333"><ele>178.0</ele><time>2026-05-02T08:43:51.376Z</time></trkpt><trkpt lat="39.4758767" lon="8.43496"><ele>178.0</ele><time>2026-05-02T08:43:52.378Z</time></trkpt><trkpt lat="39.4757683" lon="8.4350617"><ele>178.0</ele><time>2026-05-02T08:43:53.38Z</time></trkpt><trkpt lat="39.4756783" lon="8.43517"><ele>178.0</ele><time>2026-05-02T08:43:54.38Z</time></trkpt><trkpt lat="39.47559" lon="8.4352783"><ele>178.0</ele><time>2026-05-02T08:43:55.376Z</time></trkpt><trkpt lat="39.47551" lon="8.4354017"><ele>179.0</ele><time>2026-05-02T08:43:56.395Z</time></trkpt><trkpt lat="39.47545" lon="8.43552"><ele>180.0</ele><time>2026-05-02T08:43:57.374Z</time></trkpt><trkpt lat="39.475365" lon="8.4356017"><ele>181.0</ele><time>2026-05-02T08:43:58.375Z</time></trkpt><trkpt lat="39.4752667" lon="8.43566"><ele>182.0</ele><time>2026-05-02T08:43:59.38Z</time></trkpt><trkpt lat="39.47516" lon="8.4357083"><ele>183.0</ele><time>2026-05-02T08:44:00.376Z</time></trkpt><trkpt lat="39.4750517" lon="8.435745"><ele>183.5</ele><time>2026-05-02T08:44:01.378Z</time></trkpt><trkpt lat="39.4749283" lon="8.43577"><ele>184.0</ele><time>2026-05-02T08:44:02.375Z</time></trkpt><trkpt lat="39.4748183" lon="8.4358083"><ele>184.5</ele><time>2026-05-02T08:44:03.378Z</time></trkpt><trkpt lat="39.4747083" lon="8.43587"><ele>185.0</ele><time>2026-05-02T08:44:04.38Z</time></trkpt><trkpt lat="39.4745967" lon="8.4359467"><ele>187.0</ele><time>2026-05-02T08:44:05.38Z</time></trkpt><trkpt lat="39.4744783" lon="8.436025"><ele>189.0</ele><time>2026-05-02T08:44:06.377Z</time></trkpt><trkpt lat="39.47436" lon="8.4361033"><ele>191.0</ele><time>2026-05-02T08:44:07.382Z</time></trkpt><trkpt lat="39.4742417" lon="8.4361933"><ele>193.0</ele><time>2026-05-02T08:44:08.399Z</time></trkpt><trkpt lat="39.4741217" lon="8.4363"><ele>192.66666666666666</ele><time>2026-05-02T08:44:09.377Z</time></trkpt><trkpt lat="39.4740033" lon="8.4364133"><ele>192.33333333333331</ele><time>2026-05-02T08:44:10.379Z</time></trkpt><trkpt lat="39.4738783" lon="8.43653"><ele>192.0</ele><time>2026-05-02T08:44:11.381Z</time></trkpt><trkpt lat="39.47375" lon="8.4366433"><ele>196.0</ele><time>2026-05-02T08:44:12.381Z</time></trkpt><trkpt lat="39.473615" lon="8.4367483"><ele>200.0</ele><time>2026-05-02T08:44:13.377Z</time></trkpt><trkpt lat="39.4734717" lon="8.436845"><ele>204.0</ele><time>2026-05-02T08:44:14.397Z</time></trkpt><trkpt lat="39.4733233" lon="8.4369383"><ele>204.0</ele><time>2026-05-02T08:44:15.379Z</time></trkpt><trkpt lat="39.4731733" lon="8.43703"><ele>204.0</ele><time>2026-05-02T08:44:16.382Z</time></trkpt><trkpt lat="39.4730233" lon="8.4371133"><ele>204.0</ele><time>2026-05-02T08:44:17.375Z</time></trkpt><trkpt lat="39.4728767" lon="8.4371867"><ele>205.66666666666669</ele><time>2026-05-02T08:44:18.381Z</time></trkpt><trkpt lat="39.4727317" lon="8.4372417"><ele>207.33333333333334</ele><time>2026-05-02T08:44:19.383Z</time></trkpt><trkpt lat="39.4725817" lon="8.4372867"><ele>209.0</ele><time>2026-05-02T08:44:20.396Z</time></trkpt><trkpt lat="39.4724333" lon="8.4373233"><ele>209.0</ele><time>2026-05-02T08:44:21.376Z</time></trkpt><trkpt lat="39.4722917" lon="8.4373633"><ele>209.0</ele><time>2026-05-02T08:44:22.375Z</time></trkpt><trkpt lat="39.4721583" lon="8.43741"><ele>209.0</ele><time>2026-05-02T08:44:23.376Z</time></trkpt><trkpt lat="39.4720183" lon="8.437465"><ele>209.0</ele><time>2026-05-02T08:44:24.38Z</time></trkpt><trkpt lat="39.471895" lon="8.4375183"><ele>210.6</ele><time>2026-05-02T08:44:25.377Z</time></trkpt><trkpt lat="39.471795" lon="8.437575"><ele>212.2</ele><time>2026-05-02T08:44:26.381Z</time></trkpt><trkpt lat="39.471715" lon="8.4376317"><ele>213.79999999999998</ele><time>2026-05-02T08:44:27.38Z</time></trkpt><trkpt lat="39.4716433" lon="8.4376517"><ele>215.39999999999998</ele><time>2026-05-02T08:44:28.379Z</time></trkpt><trkpt lat="39.4715683" lon="8.4376533"><ele>217.0</ele><time>2026-05-02T08:44:29.378Z</time></trkpt><trkpt lat="39.4714783" lon="8.4375717"><ele>217.0</ele><time>2026-05-02T08:44:31.376Z</time></trkpt><trkpt lat="39.4714133" lon="8.43746"><ele>217.0</ele><time>2026-05-02T08:44:33.375Z</time></trkpt><trkpt lat="39.4714083" lon="8.43734"><ele>217.0</ele><time>2026-05-02T08:44:35.378Z</time></trkpt><trkpt lat="39.4714183" lon="8.4372233"><ele>217.0</ele><time>2026-05-02T08:44:37.377Z</time></trkpt><trkpt lat="39.4714483" lon="8.4371083"><ele>217.0</ele><time>2026-05-02T08:44:39.381Z</time></trkpt><trkpt lat="39.4714883" lon="8.4369883"><ele>218.2</ele><time>2026-05-02T08:44:41.38Z</time></trkpt><trkpt lat="39.47153" lon="8.4368533"><ele>219.39999999999998</ele><time>2026-05-02T08:44:43.381Z</time></trkpt><trkpt lat="39.4715483" lon="8.436775"><ele>220.60000000000002</ele><time>2026-05-02T08:44:44.4Z</time></trkpt><trkpt lat="39.4715783" lon="8.4366233"><ele>221.8</ele><time>2026-05-02T08:44:46.38Z</time></trkpt><trkpt lat="39.4715917" lon="8.4364683"><ele>223.0</ele><time>2026-05-02T08:44:48.377Z</time></trkpt><trkpt lat="39.47159" lon="8.436325"><ele>225.25</ele><time>2026-05-02T08:44:50.398Z</time></trkpt><trkpt lat="39.4715883" lon="8.4361833"><ele>227.5</ele><time>2026-05-02T08:44:52.379Z</time></trkpt><trkpt lat="39.471595" lon="8.4360383"><ele>229.75</ele><time>2026-05-02T08:44:54.38Z</time></trkpt><trkpt lat="39.4716183" lon="8.43589"><ele>232.0</ele><time>2026-05-02T08:44:56.446Z</time></trkpt><trkpt lat="39.4716533" lon="8.435745"><ele>232.0</ele><time>2026-05-02T08:44:58.379Z</time></trkpt><trkpt lat="39.471695" lon="8.4356017"><ele>232.0</ele><time>2026-05-02T08:45:00.38Z</time></trkpt><trkpt lat="39.4717433" lon="8.4354583"><ele>232.0</ele><time>2026-05-02T08:45:02.397Z</time></trkpt><trkpt lat="39.4717667" lon="8.43538"><ele>232.0</ele><time>2026-05-02T08:45:03.38Z</time></trkpt><trkpt lat="39.47181" lon="8.4352367"><ele>232.0</ele><time>2026-05-02T08:45:05.379Z</time></trkpt><trkpt lat="39.4718583" lon="8.4350967"><ele>232.8</ele><time>2026-05-02T08:45:07.38Z</time></trkpt><trkpt lat="39.4718983" lon="8.4349517"><ele>233.6</ele><time>2026-05-02T08:45:09.375Z</time></trkpt><trkpt lat="39.4719083" lon="8.434815"><ele>234.40000000000003</ele><time>2026-05-02T08:45:11.376Z</time></trkpt><trkpt lat="39.47188" lon="8.434695"><ele>235.20000000000002</ele><time>2026-05-02T08:45:13.379Z</time></trkpt><trkpt lat="39.4718067" lon="8.4346283"><ele>236.0</ele><time>2026-05-02T08:45:15.376Z</time></trkpt><trkpt lat="39.4716817" lon="8.43465"><ele>236.00000000000003</ele><time>2026-05-02T08:45:17.377Z</time></trkpt><trkpt lat="39.4716117" lon="8.4346717"><ele>236.0</ele><time>2026-05-02T08:45:18.377Z</time></trkpt><trkpt lat="39.4715417" lon="8.434685"><ele>236.0</ele><time>2026-05-02T08:45:19.38Z</time></trkpt><trkpt lat="39.471475" lon="8.4346883"><ele>236.0</ele><time>2026-05-02T08:45:20.394Z</time></trkpt><trkpt lat="39.4714083" lon="8.4346967"><ele>236.00000000000003</ele><time>2026-05-02T08:45:21.379Z</time></trkpt><trkpt lat="39.4713433" lon="8.4347067"><ele>236.0</ele><time>2026-05-02T08:45:22.378Z</time></trkpt><trkpt lat="39.4712267" lon="8.4347667"><ele>234.60000000000002</ele><time>2026-05-02T08:45:24.38Z</time></trkpt><trkpt lat="39.4711567" lon="8.434825"><ele>233.20000000000002</ele><time>2026-05-02T08:45:25.382Z</time></trkpt><trkpt lat="39.4710817" lon="8.4349"><ele>231.79999999999998</ele><time>2026-05-02T08:45:26.38Z</time></trkpt><trkpt lat="39.4710033" lon="8.4349667"><ele>230.39999999999998</ele><time>2026-05-02T08:45:27.381Z</time></trkpt><trkpt lat="39.4709167" lon="8.4350383"><ele>229.0</ele><time>2026-05-02T08:45:28.377Z</time></trkpt><trkpt lat="39.4708383" lon="8.4351217"><ele>229.0</ele><time>2026-05-02T08:45:29.379Z</time></trkpt><trkpt lat="39.4707483" lon="8.4352167"><ele>228.99999999999997</ele><time>2026-05-02T08:45:30.378Z</time></trkpt><trkpt lat="39.4706633" lon="8.4353017"><ele>228.99999999999997</ele><time>2026-05-02T08:45:31.38Z</time></trkpt><trkpt lat="39.47057" lon="8.4353867"><ele>229.0</ele><time>2026-05-02T08:45:32.379Z</time></trkpt><trkpt lat="39.470485" lon="8.435465"><ele>229.0</ele><time>2026-05-02T08:45:33.38Z</time></trkpt><trkpt lat="39.470385" lon="8.4355633"><ele>227.2</ele><time>2026-05-02T08:45:34.379Z</time></trkpt><trkpt lat="39.4702933" lon="8.4356217"><ele>225.39999999999998</ele><time>2026-05-02T08:45:35.378Z</time></trkpt><trkpt lat="39.470185" lon="8.43563"><ele>223.6</ele><time>2026-05-02T08:45:36.379Z</time></trkpt><trkpt lat="39.47008" lon="8.4356583"><ele>221.8</ele><time>2026-05-02T08:45:37.381Z</time></trkpt><trkpt lat="39.4699833" lon="8.43569"><ele>220.0</ele><time>2026-05-02T08:45:38.398Z</time></trkpt><trkpt lat="39.4699" lon="8.4357333"><ele>219.99999999999997</ele><time>2026-05-02T08:45:39.38Z</time></trkpt><trkpt lat="39.46983" lon="8.4357783"><ele>220.0</ele><time>2026-05-02T08:45:40.38Z</time></trkpt><trkpt lat="39.4697667" lon="8.435835"><ele>220.0</ele><time>2026-05-02T08:45:41.379Z</time></trkpt><trkpt lat="39.4697117" lon="8.4358983"><ele>220.0</ele><time>2026-05-02T08:45:42.377Z</time></trkpt><trkpt lat="39.4696633" lon="8.4359667"><ele>219.99999999999997</ele><time>2026-05-02T08:45:43.38Z</time></trkpt><trkpt lat="39.4696083" lon="8.4360367"><ele>220.0</ele><time>2026-05-02T08:45:44.394Z</time></trkpt><trkpt lat="39.469545" lon="8.4361033"><ele>220.0</ele><time>2026-05-02T08:45:45.379Z</time></trkpt><trkpt lat="39.4694633" lon="8.4361667"><ele>220.0</ele><time>2026-05-02T08:45:46.38Z</time></trkpt><trkpt lat="39.4693833" lon="8.4362283"><ele>220.0</ele><time>2026-05-02T08:45:47.379Z</time></trkpt><trkpt lat="39.4693033" lon="8.4362883"><ele>220.0</ele><time>2026-05-02T08:45:48.381Z</time></trkpt><trkpt lat="39.4692267" lon="8.4363433"><ele>220.0</ele><time>2026-05-02T08:45:49.377Z</time></trkpt><trkpt lat="39.4691567" lon="8.4364017"><ele>219.99999999999997</ele><time>2026-05-02T08:45:50.396Z</time></trkpt><trkpt lat="39.46909" lon="8.4364567"><ele>220.0</ele><time>2026-05-02T08:45:51.381Z</time></trkpt><trkpt lat="39.4690283" lon="8.4365"><ele>220.0</ele><time>2026-05-02T08:45:52.379Z</time></trkpt><trkpt lat="39.46897" lon="8.43654"><ele>220.0</ele><time>2026-05-02T08:45:53.379Z</time></trkpt><trkpt lat="39.4689083" lon="8.43657"><ele>219.99999999999997</ele><time>2026-05-02T08:45:54.377Z</time></trkpt><trkpt lat="39.4688" lon="8.4365783"><ele>220.0</ele><time>2026-05-02T08:45:56.396Z</time></trkpt><trkpt lat="39.4686967" lon="8.4364883"><ele>217.99999999999997</ele><time>2026-05-02T08:45:58.378Z</time></trkpt><trkpt lat="39.4686433" lon="8.4364233"><ele>216.0</ele><time>2026-05-02T08:45:59.382Z</time></trkpt><trkpt lat="39.4685917" lon="8.4363633"><ele>214.0</ele><time>2026-05-02T08:46:00.381Z</time></trkpt><trkpt lat="39.46854" lon="8.4363033"><ele>212.0</ele><time>2026-05-02T08:46:01.381Z</time></trkpt><trkpt lat="39.4684933" lon="8.4362433"><ele>209.99999999999997</ele><time>2026-05-02T08:46:02.38Z</time></trkpt><trkpt lat="39.468405" lon="8.4361483"><ele>208.0</ele><time>2026-05-02T08:46:04.375Z</time></trkpt><trkpt lat="39.4683133" lon="8.4360767"><ele>206.0</ele><time>2026-05-02T08:46:06.38Z</time></trkpt><trkpt lat="39.4682183" lon="8.436015"><ele>204.0</ele><time>2026-05-02T08:46:08.398Z</time></trkpt><trkpt lat="39.4681167" lon="8.4359633"><ele>202.0</ele><time>2026-05-02T08:46:10.38Z</time></trkpt><trkpt lat="39.4680183" lon="8.4359167"><ele>200.0</ele><time>2026-05-02T08:46:12.378Z</time></trkpt><trkpt lat="39.4679233" lon="8.435865"><ele>198.0</ele><time>2026-05-02T08:46:14.397Z</time></trkpt><trkpt lat="39.4678283" lon="8.43581"><ele>195.5</ele><time>2026-05-02T08:46:16.381Z</time></trkpt><trkpt lat="39.46773" lon="8.4357583"><ele>193.0</ele><time>2026-05-02T08:46:18.38Z</time></trkpt><trkpt lat="39.4676233" lon="8.4357"><ele>190.5</ele><time>2026-05-02T08:46:20.394Z</time></trkpt><trkpt lat="39.4675117" lon="8.43563"><ele>188.0</ele><time>2026-05-02T08:46:22.378Z</time></trkpt><trkpt lat="39.4673933" lon="8.4355633"><ele>188.0</ele><time>2026-05-02T08:46:24.383Z</time></trkpt><trkpt lat="39.4673233" lon="8.4355283"><ele>188.0</ele><time>2026-05-02T08:46:25.378Z</time></trkpt><trkpt lat="39.467255" lon="8.4355167"><ele>188.0</ele><time>2026-05-02T08:46:26.402Z</time></trkpt><trkpt lat="39.4671817" lon="8.4355167"><ele>188.0</ele><time>2026-05-02T08:46:27.374Z</time></trkpt><trkpt lat="39.4671017" lon="8.4355283"><ele>188.0</ele><time>2026-05-02T08:46:28.379Z</time></trkpt><trkpt lat="39.467015" lon="8.4355383"><ele>188.0</ele><time>2026-05-02T08:46:29.374Z</time></trkpt><trkpt lat="39.4669267" lon="8.435545"><ele>186.0</ele><time>2026-05-02T08:46:30.379Z</time></trkpt><trkpt lat="39.4668383" lon="8.43555"><ele>184.0</ele><time>2026-05-02T08:46:31.377Z</time></trkpt><trkpt lat="39.4667467" lon="8.4355633"><ele>182.0</ele><time>2026-05-02T08:46:32.398Z</time></trkpt><trkpt lat="39.46665" lon="8.435565"><ele>180.0</ele><time>2026-05-02T08:46:33.38Z</time></trkpt><trkpt lat="39.4665633" lon="8.4355667"><ele>178.0</ele><time>2026-05-02T08:46:34.377Z</time></trkpt><trkpt lat="39.46648" lon="8.43556"><ele>176.0</ele><time>2026-05-02T08:46:35.377Z</time></trkpt><trkpt lat="39.466395" lon="8.43557"><ele>176.0</ele><time>2026-05-02T08:46:36.377Z</time></trkpt><trkpt lat="39.4663067" lon="8.4355933"><ele>176.0</ele><time>2026-05-02T08:46:37.38Z</time></trkpt><trkpt lat="39.4662133" lon="8.4356267"><ele>176.0</ele><time>2026-05-02T08:46:38.396Z</time></trkpt><trkpt lat="39.4661217" lon="8.43566"><ele>176.0</ele><time>2026-05-02T08:46:39.376Z</time></trkpt><trkpt lat="39.4660283" lon="8.4357083"><ele>176.0</ele><time>2026-05-02T08:46:40.38Z</time></trkpt><trkpt lat="39.46595" lon="8.4357683"><ele>174.0</ele><time>2026-05-02T08:46:41.376Z</time></trkpt><trkpt lat="39.4658783" lon="8.43582"><ele>172.0</ele><time>2026-05-02T08:46:42.38Z</time></trkpt><trkpt lat="39.4657933" lon="8.4358733"><ele>170.0</ele><time>2026-05-02T08:46:43.38Z</time></trkpt><trkpt lat="39.4657217" lon="8.4359217"><ele>168.0</ele><time>2026-05-02T08:46:44.397Z</time></trkpt><trkpt lat="39.4656483" lon="8.4359667"><ele>166.0</ele><time>2026-05-02T08:46:45.374Z</time></trkpt><trkpt lat="39.46557" lon="8.43602"><ele>164.0</ele><time>2026-05-02T08:46:46.381Z</time></trkpt><trkpt lat="39.465495" lon="8.436075"><ele>162.5</ele><time>2026-05-02T08:46:47.38Z</time></trkpt><trkpt lat="39.4654233" lon="8.43614"><ele>161.0</ele><time>2026-05-02T08:46:48.38Z</time></trkpt><trkpt lat="39.4653567" lon="8.4362033"><ele>159.5</ele><time>2026-05-02T08:46:49.38Z</time></trkpt><trkpt lat="39.4652917" lon="8.43626"><ele>158.0</ele><time>2026-05-02T08:46:50.397Z</time></trkpt><trkpt lat="39.4652233" lon="8.4363117"><ele>156.5</ele><time>2026-05-02T08:46:51.379Z</time></trkpt><trkpt lat="39.4651533" lon="8.4363533"><ele>155.0</ele><time>2026-05-02T08:46:52.38Z</time></trkpt><trkpt lat="39.46508" lon="8.43639"><ele>155.0</ele><time>2026-05-02T08:46:53.374Z</time></trkpt><trkpt lat="39.46501" lon="8.4364317"><ele>155.0</ele><time>2026-05-02T08:46:54.378Z</time></trkpt><trkpt lat="39.464945" lon="8.4364833"><ele>155.0</ele><time>2026-05-02T08:46:55.379Z</time></trkpt><trkpt lat="39.4648817" lon="8.4365467"><ele>155.0</ele><time>2026-05-02T08:46:56.379Z</time></trkpt><trkpt lat="39.464825" lon="8.4366117"><ele>155.0</ele><time>2026-05-02T08:46:57.379Z</time></trkpt><trkpt lat="39.464765" lon="8.4366717"><ele>155.0</ele><time>2026-05-02T08:46:58.374Z</time></trkpt><trkpt lat="39.4646983" lon="8.4367217"><ele>155.0</ele><time>2026-05-02T08:46:59.379Z</time></trkpt><trkpt lat="39.4646217" lon="8.436765"><ele>155.0</ele><time>2026-05-02T08:47:00.376Z</time></trkpt><trkpt lat="39.4645367" lon="8.43681"><ele>155.0</ele><time>2026-05-02T08:47:01.381Z</time></trkpt><trkpt lat="39.464445" lon="8.43688"><ele>155.0</ele><time>2026-05-02T08:47:02.399Z</time></trkpt><trkpt lat="39.4643367" lon="8.4369633"><ele>155.0</ele><time>2026-05-02T08:47:03.376Z</time></trkpt><trkpt lat="39.464245" lon="8.43703"><ele>152.75</ele><time>2026-05-02T08:47:04.38Z</time></trkpt><trkpt lat="39.4641383" lon="8.437095"><ele>150.5</ele><time>2026-05-02T08:47:05.38Z</time></trkpt><trkpt lat="39.464025" lon="8.4371283"><ele>148.25</ele><time>2026-05-02T08:47:06.377Z</time></trkpt><trkpt lat="39.4639183" lon="8.4371883"><ele>146.0</ele><time>2026-05-02T08:47:07.38Z</time></trkpt><trkpt lat="39.4638133" lon="8.4372417"><ele>143.5</ele><time>2026-05-02T08:47:08.395Z</time></trkpt><trkpt lat="39.463705" lon="8.4373017"><ele>141.0</ele><time>2026-05-02T08:47:09.379Z</time></trkpt><trkpt lat="39.46361" lon="8.4373667"><ele>138.5</ele><time>2026-05-02T08:47:10.382Z</time></trkpt><trkpt lat="39.4634983" lon="8.4374383"><ele>136.0</ele><time>2026-05-02T08:47:11.38Z</time></trkpt><trkpt lat="39.4633817" lon="8.43751"><ele>136.0</ele><time>2026-05-02T08:47:12.374Z</time></trkpt><trkpt lat="39.4632733" lon="8.4375817"><ele>136.0</ele><time>2026-05-02T08:47:13.374Z</time></trkpt><trkpt lat="39.46316" lon="8.43766"><ele>136.0</ele><time>2026-05-02T08:47:14.399Z</time></trkpt><trkpt lat="39.4630567" lon="8.437735"><ele>136.0</ele><time>2026-05-02T08:47:15.379Z</time></trkpt><trkpt lat="39.4629617" lon="8.437805"><ele>135.5</ele><time>2026-05-02T08:47:16.376Z</time></trkpt><trkpt lat="39.4628683" lon="8.4378817"><ele>135.0</ele><time>2026-05-02T08:47:17.38Z</time></trkpt><trkpt lat="39.4627717" lon="8.4379767"><ele>134.5</ele><time>2026-05-02T08:47:18.377Z</time></trkpt><trkpt lat="39.4626717" lon="8.4380683"><ele>134.0</ele><time>2026-05-02T08:47:19.38Z</time></trkpt><trkpt lat="39.4625717" lon="8.4381583"><ele>134.0</ele><time>2026-05-02T08:47:20.395Z</time></trkpt><trkpt lat="39.46247" lon="8.4382517"><ele>134.0</ele><time>2026-05-02T08:47:21.38Z</time></trkpt><trkpt lat="39.4623683" lon="8.4383433"><ele>134.0</ele><time>2026-05-02T08:47:22.377Z</time></trkpt><trkpt lat="39.462275" lon="8.4384317"><ele>134.0</ele><time>2026-05-02T08:47:23.379Z</time></trkpt><trkpt lat="39.462185" lon="8.43852"><ele>132.8</ele><time>2026-05-02T08:47:24.38Z</time></trkpt><trkpt lat="39.4621" lon="8.4386267"><ele>131.60000000000002</ele><time>2026-05-02T08:47:25.376Z</time></trkpt><trkpt lat="39.4620183" lon="8.4387333"><ele>130.4</ele><time>2026-05-02T08:47:26.442Z</time></trkpt><trkpt lat="39.46194" lon="8.438825"><ele>129.20000000000002</ele><time>2026-05-02T08:47:27.379Z</time></trkpt><trkpt lat="39.4618567" lon="8.4389017"><ele>128.0</ele><time>2026-05-02T08:47:28.381Z</time></trkpt><trkpt lat="39.4617733" lon="8.4389733"><ele>127.99999999999999</ele><time>2026-05-02T08:47:29.376Z</time></trkpt><trkpt lat="39.4617033" lon="8.439035"><ele>128.0</ele><time>2026-05-02T08:47:30.374Z</time></trkpt><trkpt lat="39.4616433" lon="8.43911"><ele>128.0</ele><time>2026-05-02T08:47:31.382Z</time></trkpt><trkpt lat="39.4615883" lon="8.4391967"><ele>128.0</ele><time>2026-05-02T08:47:32.402Z</time></trkpt><trkpt lat="39.4615317" lon="8.43929"><ele>127.99999999999999</ele><time>2026-05-02T08:47:33.379Z</time></trkpt><trkpt lat="39.46147" lon="8.43938"><ele>128.0</ele><time>2026-05-02T08:47:34.378Z</time></trkpt><trkpt lat="39.4614033" lon="8.43946"><ele>128.0</ele><time>2026-05-02T08:47:35.376Z</time></trkpt><trkpt lat="39.4613217" lon="8.439525"><ele>128.0</ele><time>2026-05-02T08:47:36.38Z</time></trkpt><trkpt lat="39.4612417" lon="8.4395917"><ele>128.0</ele><time>2026-05-02T08:47:37.38Z</time></trkpt><trkpt lat="39.4611467" lon="8.439685"><ele>128.0</ele><time>2026-05-02T08:47:38.397Z</time></trkpt><trkpt lat="39.4610633" lon="8.439805"><ele>128.0</ele><time>2026-05-02T08:47:39.377Z</time></trkpt><trkpt lat="39.4609933" lon="8.439925"><ele>126.75</ele><time>2026-05-02T08:47:40.378Z</time></trkpt><trkpt lat="39.4609183" lon="8.4400383"><ele>125.5</ele><time>2026-05-02T08:47:41.382Z</time></trkpt><trkpt lat="39.4608267" lon="8.4401783"><ele>124.25</ele><time>2026-05-02T08:47:42.377Z</time></trkpt><trkpt lat="39.46074" lon="8.4403133"><ele>123.0</ele><time>2026-05-02T08:47:43.381Z</time></trkpt><trkpt lat="39.4606583" lon="8.4404433"><ele>122.25</ele><time>2026-05-02T08:47:44.397Z</time></trkpt><trkpt lat="39.4605783" lon="8.4405833"><ele>121.5</ele><time>2026-05-02T08:47:45.377Z</time></trkpt><trkpt lat="39.46049" lon="8.4407117"><ele>120.75</ele><time>2026-05-02T08:47:46.375Z</time></trkpt><trkpt lat="39.4603933" lon="8.440835"><ele>120.0</ele><time>2026-05-02T08:47:47.379Z</time></trkpt><trkpt lat="39.4603033" lon="8.4409717"><ele>120.0</ele><time>2026-05-02T08:47:48.381Z</time></trkpt><trkpt lat="39.4602133" lon="8.4411"><ele>120.0</ele><time>2026-05-02T08:47:49.376Z</time></trkpt><trkpt lat="39.4601367" lon="8.441225"><ele>120.0</ele><time>2026-05-02T08:47:50.398Z</time></trkpt><trkpt lat="39.4600667" lon="8.4413333"><ele>120.0</ele><time>2026-05-02T08:47:51.377Z</time></trkpt><trkpt lat="39.4600167" lon="8.44142"><ele>120.8</ele><time>2026-05-02T08:47:52.379Z</time></trkpt><trkpt lat="39.459965" lon="8.441485"><ele>121.6</ele><time>2026-05-02T08:47:53.378Z</time></trkpt><trkpt lat="39.4598733" lon="8.44161"><ele>122.4</ele><time>2026-05-02T08:47:55.378Z</time></trkpt><trkpt lat="39.459835" lon="8.441685"><ele>123.2</ele><time>2026-05-02T08:47:56.443Z</time></trkpt><trkpt lat="39.4598067" lon="8.4417683"><ele>124.0</ele><time>2026-05-02T08:47:57.376Z</time></trkpt><trkpt lat="39.459775" lon="8.4419183"><ele>124.0</ele><time>2026-05-02T08:47:59.38Z</time></trkpt><trkpt lat="39.459765" lon="8.442"><ele>124.0</ele><time>2026-05-02T08:48:00.374Z</time></trkpt><trkpt lat="39.459745" lon="8.4421617"><ele>124.0</ele><time>2026-05-02T08:48:02.377Z</time></trkpt><trkpt lat="39.459725" lon="8.4423117"><ele>124.0</ele><time>2026-05-02T08:48:04.377Z</time></trkpt><trkpt lat="39.4597" lon="8.442445"><ele>124.0</ele><time>2026-05-02T08:48:06.381Z</time></trkpt><trkpt lat="39.4596667" lon="8.4425517"><ele>122.66666666666667</ele><time>2026-05-02T08:48:08.393Z</time></trkpt><trkpt lat="39.459605" lon="8.4426133"><ele>121.33333333333334</ele><time>2026-05-02T08:48:11.374Z</time></trkpt><trkpt lat="39.45955" lon="8.4425583"><ele>120.0</ele><time>2026-05-02T08:48:14.392Z</time></trkpt><trkpt lat="39.459515" lon="8.4424883"><ele>118.66666666666666</ele><time>2026-05-02T08:48:16.374Z</time></trkpt><trkpt lat="39.459485" lon="8.44239"><ele>117.33333333333333</ele><time>2026-05-02T08:48:18.376Z</time></trkpt><trkpt lat="39.4594633" lon="8.4422667"><ele>116.0</ele><time>2026-05-02T08:48:20.395Z</time></trkpt><trkpt lat="39.459435" lon="8.4421417"><ele>116.33333333333333</ele><time>2026-05-02T08:48:22.38Z</time></trkpt><trkpt lat="39.459385" lon="8.4420283"><ele>116.66666666666666</ele><time>2026-05-02T08:48:24.376Z</time></trkpt><trkpt lat="39.459305" lon="8.441925"><ele>117.0</ele><time>2026-05-02T08:48:26.383Z</time></trkpt><trkpt lat="39.4592583" lon="8.44187"><ele>117.33333333333334</ele><time>2026-05-02T08:48:27.38Z</time></trkpt><trkpt lat="39.4592183" lon="8.4418067"><ele>117.66666666666667</ele><time>2026-05-02T08:48:28.378Z</time></trkpt><trkpt lat="39.45918" lon="8.4417367"><ele>118.0</ele><time>2026-05-02T08:48:29.38Z</time></trkpt><trkpt lat="39.45914" lon="8.4416683"><ele>118.0</ele><time>2026-05-02T08:48:30.377Z</time></trkpt><trkpt lat="39.4590933" lon="8.44161"><ele>118.0</ele><time>2026-05-02T08:48:31.379Z</time></trkpt><trkpt lat="39.459035" lon="8.4415567"><ele>118.0</ele><time>2026-05-02T08:48:32.402Z</time></trkpt><trkpt lat="39.4589717" lon="8.441505"><ele>118.0</ele><time>2026-05-02T08:48:33.377Z</time></trkpt><trkpt lat="39.4589033" lon="8.441455"><ele>118.0</ele><time>2026-05-02T08:48:34.381Z</time></trkpt><trkpt lat="39.4588367" lon="8.4414183"><ele>118.0</ele><time>2026-05-02T08:48:35.374Z</time></trkpt><trkpt lat="39.4587633" lon="8.441405"><ele>118.0</ele><time>2026-05-02T08:48:36.376Z</time></trkpt><trkpt lat="39.4586883" lon="8.4414117"><ele>118.42857142857142</ele><time>2026-05-02T08:48:37.376Z</time></trkpt><trkpt lat="39.458615" lon="8.441435"><ele>118.85714285714286</ele><time>2026-05-02T08:48:38.394Z</time></trkpt><trkpt lat="39.4585483" lon="8.4414667"><ele>119.28571428571428</ele><time>2026-05-02T08:48:39.38Z</time></trkpt><trkpt lat="39.4584833" lon="8.4415117"><ele>119.71428571428571</ele><time>2026-05-02T08:48:40.376Z</time></trkpt><trkpt lat="39.45842" lon="8.44156"><ele>120.14285714285714</ele><time>2026-05-02T08:48:41.377Z</time></trkpt><trkpt lat="39.4583617" lon="8.4416083"><ele>120.57142857142857</ele><time>2026-05-02T08:48:42.376Z</time></trkpt><trkpt lat="39.4583017" lon="8.4416567"><ele>121.0</ele><time>2026-05-02T08:48:43.376Z</time></trkpt><trkpt lat="39.4582417" lon="8.441705"><ele>121.0</ele><time>2026-05-02T08:48:44.395Z</time></trkpt><trkpt lat="39.4581817" lon="8.4417567"><ele>120.99999999999999</ele><time>2026-05-02T08:48:45.376Z</time></trkpt><trkpt lat="39.4581217" lon="8.4418017"><ele>121.0</ele><time>2026-05-02T08:48:46.379Z</time></trkpt><trkpt lat="39.4580567" lon="8.4418433"><ele>121.0</ele><time>2026-05-02T08:48:47.378Z</time></trkpt><trkpt lat="39.45799" lon="8.4418833"><ele>120.99999999999999</ele><time>2026-05-02T08:48:48.374Z</time></trkpt><trkpt lat="39.4579267" lon="8.4419233"><ele>121.0</ele><time>2026-05-02T08:48:49.381Z</time></trkpt><trkpt lat="39.4578583" lon="8.44197"><ele>121.0</ele><time>2026-05-02T08:48:50.394Z</time></trkpt><trkpt lat="39.457795" lon="8.4420233"><ele>120.28571428571428</ele><time>2026-05-02T08:48:51.38Z</time></trkpt><trkpt lat="39.4577333" lon="8.4420783"><ele>119.57142857142856</ele><time>2026-05-02T08:48:52.378Z</time></trkpt><trkpt lat="39.4576717" lon="8.4421333"><ele>118.85714285714286</ele><time>2026-05-02T08:48:53.376Z</time></trkpt><trkpt lat="39.4576117" lon="8.4421867"><ele>118.14285714285714</ele><time>2026-05-02T08:48:54.379Z</time></trkpt><trkpt lat="39.4575517" lon="8.442235"><ele>117.42857142857143</ele><time>2026-05-02T08:48:55.376Z</time></trkpt><trkpt lat="39.4574933" lon="8.4422883"><ele>116.71428571428572</ele><time>2026-05-02T08:48:56.441Z</time></trkpt><trkpt lat="39.4574383" lon="8.44234"><ele>116.00000000000001</ele><time>2026-05-02T08:48:57.381Z</time></trkpt><trkpt lat="39.457385" lon="8.4423917"><ele>115.99999999999999</ele><time>2026-05-02T08:48:58.376Z</time></trkpt><trkpt lat="39.45733" lon="8.442445"><ele>116.0</ele><time>2026-05-02T08:48:59.381Z</time></trkpt><trkpt lat="39.4572767" lon="8.4424967"><ele>116.0</ele><time>2026-05-02T08:49:00.378Z</time></trkpt><trkpt lat="39.4572233" lon="8.44255"><ele>116.0</ele><time>2026-05-02T08:49:01.38Z</time></trkpt><trkpt lat="39.45717" lon="8.4426017"><ele>115.99999999999999</ele><time>2026-05-02T08:49:02.397Z</time></trkpt><trkpt lat="39.457075" lon="8.442705"><ele>116.0</ele><time>2026-05-02T08:49:04.38Z</time></trkpt><trkpt lat="39.4570217" lon="8.4427583"><ele>115.19999999999999</ele><time>2026-05-02T08:49:05.38Z</time></trkpt><trkpt lat="39.45692" lon="8.4428183"><ele>114.39999999999999</ele><time>2026-05-02T08:49:07.377Z</time></trkpt><trkpt lat="39.4568133" lon="8.44281"><ele>113.6</ele><time>2026-05-02T08:49:09.38Z</time></trkpt><trkpt lat="39.4567267" lon="8.4427467"><ele>112.8</ele><time>2026-05-02T08:49:11.38Z</time></trkpt><trkpt lat="39.4566317" lon="8.4427133"><ele>112.0</ele><time>2026-05-02T08:49:13.379Z</time></trkpt><trkpt lat="39.45653" lon="8.442725"><ele>112.00000000000001</ele><time>2026-05-02T08:49:15.377Z</time></trkpt><trkpt lat="39.456415" lon="8.442785"><ele>112.0</ele><time>2026-05-02T08:49:17.377Z</time></trkpt><trkpt lat="39.4563517" lon="8.4428117"><ele>112.0</ele><time>2026-05-02T08:49:18.378Z</time></trkpt><trkpt lat="39.4562833" lon="8.4428317"><ele>112.0</ele><time>2026-05-02T08:49:19.381Z</time></trkpt><trkpt lat="39.4562167" lon="8.442845"><ele>112.00000000000001</ele><time>2026-05-02T08:49:20.397Z</time></trkpt><trkpt lat="39.4561533" lon="8.4428567"><ele>112.0</ele><time>2026-05-02T08:49:21.378Z</time></trkpt><trkpt lat="39.45609" lon="8.44287"><ele>108.8</ele><time>2026-05-02T08:49:22.378Z</time></trkpt><trkpt lat="39.4560283" lon="8.44289"><ele>105.6</ele><time>2026-05-02T08:49:23.376Z</time></trkpt><trkpt lat="39.4559183" lon="8.4429233"><ele>102.39999999999999</ele><time>2026-05-02T08:49:25.374Z</time></trkpt><trkpt lat="39.4558067" lon="8.4429217"><ele>99.19999999999999</ele><time>2026-05-02T08:49:27.378Z</time></trkpt><trkpt lat="39.4557083" lon="8.4428617"><ele>96.0</ele><time>2026-05-02T08:49:29.378Z</time></trkpt><trkpt lat="39.45564" lon="8.4427617"><ele>96.0</ele><time>2026-05-02T08:49:31.382Z</time></trkpt><trkpt lat="39.4555967" lon="8.44266"><ele>96.0</ele><time>2026-05-02T08:49:33.379Z</time></trkpt><trkpt lat="39.4555367" lon="8.442595"><ele>96.0</ele><time>2026-05-02T08:49:35.378Z</time></trkpt><trkpt lat="39.4554567" lon="8.4425733"><ele>96.0</ele><time>2026-05-02T08:49:37.376Z</time></trkpt><trkpt lat="39.4553533" lon="8.4425583"><ele>96.0</ele><time>2026-05-02T08:49:39.376Z</time></trkpt><trkpt lat="39.455235" lon="8.4425333"><ele>93.66666666666667</ele><time>2026-05-02T08:49:41.377Z</time></trkpt><trkpt lat="39.4551717" lon="8.442515"><ele>91.33333333333333</ele><time>2026-05-02T08:49:42.376Z</time></trkpt><trkpt lat="39.4551017" lon="8.4424917"><ele>89.0</ele><time>2026-05-02T08:49:43.379Z</time></trkpt><trkpt lat="39.455025" lon="8.442465"><ele>86.66666666666666</ele><time>2026-05-02T08:49:44.402Z</time></trkpt><trkpt lat="39.4549383" lon="8.442435"><ele>84.33333333333333</ele><time>2026-05-02T08:49:45.377Z</time></trkpt><trkpt lat="39.45485" lon="8.4424017"><ele>82.0</ele><time>2026-05-02T08:49:46.379Z</time></trkpt><trkpt lat="39.45476" lon="8.44237"><ele>82.0</ele><time>2026-05-02T08:49:47.376Z</time></trkpt><trkpt lat="39.45467" lon="8.4423383"><ele>82.0</ele><time>2026-05-02T08:49:48.377Z</time></trkpt><trkpt lat="39.4545767" lon="8.4423033"><ele>82.0</ele><time>2026-05-02T08:49:49.378Z</time></trkpt><trkpt lat="39.4544817" lon="8.4422717"><ele>82.0</ele><time>2026-05-02T08:49:50.397Z</time></trkpt><trkpt lat="39.4543883" lon="8.44223"><ele>82.0</ele><time>2026-05-02T08:49:51.379Z</time></trkpt><trkpt lat="39.4542867" lon="8.4421817"><ele>80.8</ele><time>2026-05-02T08:49:52.38Z</time></trkpt><trkpt lat="39.45419" lon="8.44215"><ele>79.6</ele><time>2026-05-02T08:49:53.379Z</time></trkpt><trkpt lat="39.4541017" lon="8.442115"><ele>78.39999999999999</ele><time>2026-05-02T08:49:54.379Z</time></trkpt><trkpt lat="39.45402" lon="8.4420783"><ele>77.19999999999999</ele><time>2026-05-02T08:49:55.381Z</time></trkpt><trkpt lat="39.45393" lon="8.4420567"><ele>76.0</ele><time>2026-05-02T08:49:56.442Z</time></trkpt><trkpt lat="39.4538467" lon="8.442035"><ele>73.83333333333333</ele><time>2026-05-02T08:49:57.373Z</time></trkpt><trkpt lat="39.4537667" lon="8.442005"><ele>71.66666666666666</ele><time>2026-05-02T08:49:58.379Z</time></trkpt><trkpt lat="39.4536883" lon="8.44197"><ele>69.5</ele><time>2026-05-02T08:49:59.378Z</time></trkpt><trkpt lat="39.4536117" lon="8.4419317"><ele>67.33333333333333</ele><time>2026-05-02T08:50:00.376Z</time></trkpt><trkpt lat="39.4535367" lon="8.4418917"><ele>65.16666666666667</ele><time>2026-05-02T08:50:01.374Z</time></trkpt><trkpt lat="39.4534617" lon="8.44186"><ele>63.0</ele><time>2026-05-02T08:50:02.378Z</time></trkpt><trkpt lat="39.4533833" lon="8.44184"><ele>63.0</ele><time>2026-05-02T08:50:03.379Z</time></trkpt><trkpt lat="39.4533117" lon="8.4418267"><ele>63.0</ele><time>2026-05-02T08:50:04.38Z</time></trkpt><trkpt lat="39.453245" lon="8.44181"><ele>63.0</ele><time>2026-05-02T08:50:05.381Z</time></trkpt><trkpt lat="39.4531783" lon="8.4417983"><ele>63.0</ele><time>2026-05-02T08:50:06.38Z</time></trkpt><trkpt lat="39.4531117" lon="8.44178"><ele>63.0</ele><time>2026-05-02T08:50:07.381Z</time></trkpt><trkpt lat="39.4530517" lon="8.44175"><ele>63.0</ele><time>2026-05-02T08:50:08.401Z</time></trkpt><trkpt lat="39.4529917" lon="8.4417183"><ele>63.0</ele><time>2026-05-02T08:50:09.376Z</time></trkpt><trkpt lat="39.4529317" lon="8.4416883"><ele>60.4</ele><time>2026-05-02T08:50:10.379Z</time></trkpt><trkpt lat="39.4528267" lon="8.4416333"><ele>57.8</ele><time>2026-05-02T08:50:12.379Z</time></trkpt><trkpt lat="39.4527283" lon="8.4415633"><ele>55.2</ele><time>2026-05-02T08:50:14.4Z</time></trkpt><trkpt lat="39.4526267" lon="8.4414667"><ele>52.6</ele><time>2026-05-02T08:50:16.381Z</time></trkpt><trkpt lat="39.452575" lon="8.4414133"><ele>50.0</ele><time>2026-05-02T08:50:17.381Z</time></trkpt><trkpt lat="39.4525183" lon="8.4413617"><ele>50.00000000000001</ele><time>2026-05-02T08:50:18.379Z</time></trkpt><trkpt lat="39.4524617" lon="8.441315"><ele>50.0</ele><time>2026-05-02T08:50:19.379Z</time></trkpt><trkpt lat="39.4524067" lon="8.44127"><ele>50.0</ele><time>2026-05-02T08:50:20.403Z</time></trkpt><trkpt lat="39.452355" lon="8.4412233"><ele>50.0</ele><time>2026-05-02T08:50:21.376Z</time></trkpt><trkpt lat="39.4522633" lon="8.4411367"><ele>50.00000000000001</ele><time>2026-05-02T08:50:23.376Z</time></trkpt><trkpt lat="39.45219" lon="8.441035"><ele>50.0</ele><time>2026-05-02T08:50:25.381Z</time></trkpt><trkpt lat="39.4521283" lon="8.4409183"><ele>49.4</ele><time>2026-05-02T08:50:27.377Z</time></trkpt><trkpt lat="39.4520717" lon="8.4407983"><ele>48.8</ele><time>2026-05-02T08:50:29.375Z</time></trkpt><trkpt lat="39.4520133" lon="8.44072"><ele>48.2</ele><time>2026-05-02T08:50:31.38Z</time></trkpt><trkpt lat="39.4519383" lon="8.4406983"><ele>47.6</ele><time>2026-05-02T08:50:34.38Z</time></trkpt><trkpt lat="39.451855" lon="8.4407333"><ele>47.0</ele><time>2026-05-02T08:50:36.379Z</time></trkpt><trkpt lat="39.451745" lon="8.440795"><ele>47.0</ele><time>2026-05-02T08:50:38.402Z</time></trkpt><trkpt lat="39.4516333" lon="8.4408483"><ele>47.0</ele><time>2026-05-02T08:50:40.381Z</time></trkpt><trkpt lat="39.4515233" lon="8.44086"><ele>47.0</ele><time>2026-05-02T08:50:42.377Z</time></trkpt><trkpt lat="39.451415" lon="8.44081"><ele>47.0</ele><time>2026-05-02T08:50:44.402Z</time></trkpt><trkpt lat="39.4513117" lon="8.4407283"><ele>45.57142857142857</ele><time>2026-05-02T08:50:46.38Z</time></trkpt><trkpt lat="39.4512017" lon="8.4406767"><ele>44.14285714285714</ele><time>2026-05-02T08:50:48.378Z</time></trkpt><trkpt lat="39.4511383" lon="8.4406683"><ele>42.714285714285715</ele><time>2026-05-02T08:50:49.381Z</time></trkpt><trkpt lat="39.4510717" lon="8.4406683"><ele>41.285714285714285</ele><time>2026-05-02T08:50:50.4Z</time></trkpt><trkpt lat="39.451005" lon="8.4406717"><ele>39.857142857142854</ele><time>2026-05-02T08:50:51.38Z</time></trkpt><trkpt lat="39.4509383" lon="8.44067"><ele>38.42857142857143</ele><time>2026-05-02T08:50:52.378Z</time></trkpt><trkpt lat="39.4508733" lon="8.44066"><ele>37.0</ele><time>2026-05-02T08:50:53.377Z</time></trkpt><trkpt lat="39.4507633" lon="8.4406"><ele>37.0</ele><time>2026-05-02T08:50:55.374Z</time></trkpt><trkpt lat="39.4506767" lon="8.4405033"><ele>37.0</ele><time>2026-05-02T08:50:57.382Z</time></trkpt><trkpt lat="39.450595" lon="8.44039"><ele>37.0</ele><time>2026-05-02T08:50:59.379Z</time></trkpt><trkpt lat="39.4505433" lon="8.4403367"><ele>37.0</ele><time>2026-05-02T08:51:00.377Z</time></trkpt><trkpt lat="39.4504867" lon="8.4402933"><ele>37.0</ele><time>2026-05-02T08:51:01.38Z</time></trkpt><trkpt lat="39.45043" lon="8.44025"><ele>37.0</ele><time>2026-05-02T08:51:02.392Z</time></trkpt><trkpt lat="39.4503217" lon="8.4401817"><ele>37.0</ele><time>2026-05-02T08:51:04.379Z</time></trkpt><trkpt lat="39.4502583" lon="8.44016"><ele>37.0</ele><time>2026-05-02T08:51:05.377Z</time></trkpt><trkpt lat="39.45019" lon="8.440145"><ele>37.0</ele><time>2026-05-02T08:51:06.378Z</time></trkpt><trkpt lat="39.4501217" lon="8.4401367"><ele>37.0</ele><time>2026-05-02T08:51:07.378Z</time></trkpt><trkpt lat="39.4500567" lon="8.4401333"><ele>37.0</ele><time>2026-05-02T08:51:08.404Z</time></trkpt><trkpt lat="39.4499833" lon="8.4401433"><ele>37.0</ele><time>2026-05-02T08:51:09.383Z</time></trkpt><trkpt lat="39.4499117" lon="8.4401567"><ele>37.0</ele><time>2026-05-02T08:51:10.377Z</time></trkpt><trkpt lat="39.44984" lon="8.4401667"><ele>37.0</ele><time>2026-05-02T08:51:11.379Z</time></trkpt><trkpt lat="39.4497667" lon="8.4401617"><ele>37.0</ele><time>2026-05-02T08:51:12.377Z</time></trkpt><trkpt lat="39.4496867" lon="8.4401483"><ele>37.0</ele><time>2026-05-02T08:51:13.38Z</time></trkpt><trkpt lat="39.4496033" lon="8.4401317"><ele>37.0</ele><time>2026-05-02T08:51:14.406Z</time></trkpt><trkpt lat="39.4495217" lon="8.4401067"><ele>37.0</ele><time>2026-05-02T08:51:15.377Z</time></trkpt><trkpt lat="39.4494533" lon="8.4400717"><ele>37.0</ele><time>2026-05-02T08:51:16.38Z</time></trkpt><trkpt lat="39.44939" lon="8.4400283"><ele>35.833333333333336</ele><time>2026-05-02T08:51:17.377Z</time></trkpt><trkpt lat="39.4493267" lon="8.4399817"><ele>34.66666666666667</ele><time>2026-05-02T08:51:18.381Z</time></trkpt><trkpt lat="39.4492733" lon="8.43993"><ele>33.5</ele><time>2026-05-02T08:51:19.379Z</time></trkpt><trkpt lat="39.4492267" lon="8.439875"><ele>32.333333333333336</ele><time>2026-05-02T08:51:20.401Z</time></trkpt><trkpt lat="39.4491417" lon="8.4397617"><ele>31.166666666666668</ele><time>2026-05-02T08:51:22.377Z</time></trkpt><trkpt lat="39.449055" lon="8.439655"><ele>30.0</ele><time>2026-05-02T08:51:24.379Z</time></trkpt><trkpt lat="39.4489567" lon="8.4396033"><ele>30.0</ele><time>2026-05-02T08:51:26.446Z</time></trkpt><trkpt lat="39.4488883" lon="8.4396133"><ele>30.0</ele><time>2026-05-02T08:51:27.377Z</time></trkpt><trkpt lat="39.44882" lon="8.4396317"><ele>30.0</ele><time>2026-05-02T08:51:28.377Z</time></trkpt><trkpt lat="39.4487517" lon="8.4396633"><ele>30.0</ele><time>2026-05-02T08:51:29.38Z</time></trkpt><trkpt lat="39.4486833" lon="8.4396967"><ele>30.0</ele><time>2026-05-02T08:51:30.383Z</time></trkpt><trkpt lat="39.44862" lon="8.4397267"><ele>30.0</ele><time>2026-05-02T08:51:31.379Z</time></trkpt><trkpt lat="39.4484967" lon="8.439775"><ele>27.4</ele><time>2026-05-02T08:51:33.374Z</time></trkpt><trkpt lat="39.4483817" lon="8.43981"><ele>24.8</ele><time>2026-05-02T08:51:35.377Z</time></trkpt><trkpt lat="39.4482983" lon="8.439825"><ele>22.2</ele><time>2026-05-02T08:51:37.377Z</time></trkpt><trkpt lat="39.448225" lon="8.439755"><ele>19.6</ele><time>2026-05-02T08:51:40.379Z</time></trkpt><trkpt lat="39.4482167" lon="8.439645"><ele>17.0</ele><time>2026-05-02T08:51:42.378Z</time></trkpt><trkpt lat="39.4482583" lon="8.4394667"><ele>17.0</ele><time>2026-05-02T08:51:44.401Z</time></trkpt><trkpt lat="39.4483017" lon="8.4393417"><ele>17.0</ele><time>2026-05-02T08:51:45.381Z</time></trkpt><trkpt lat="39.4483417" lon="8.4392"><ele>17.0</ele><time>2026-05-02T08:51:46.376Z</time></trkpt><trkpt lat="39.4483783" lon="8.4390267"><ele>17.0</ele><time>2026-05-02T08:51:47.377Z</time></trkpt><trkpt lat="39.44839" lon="8.43888"><ele>17.2</ele><time>2026-05-02T08:51:48.38Z</time></trkpt><trkpt lat="39.44837" lon="8.4387317"><ele>17.4</ele><time>2026-05-02T08:51:49.379Z</time></trkpt><trkpt lat="39.44836" lon="8.4385967"><ele>17.6</ele><time>2026-05-02T08:51:50.404Z</time></trkpt><trkpt lat="39.4483267" lon="8.4384883"><ele>17.8</ele><time>2026-05-02T08:51:51.38Z</time></trkpt><trkpt lat="39.4482933" lon="8.4383733"><ele>18.0</ele><time>2026-05-02T08:51:52.38Z</time></trkpt><trkpt lat="39.448245" lon="8.438285"><ele>18.0</ele><time>2026-05-02T08:51:53.38Z</time></trkpt><trkpt lat="39.4481883" lon="8.4381867"><ele>18.0</ele><time>2026-05-02T08:51:54.378Z</time></trkpt><trkpt lat="39.4481183" lon="8.4380817"><ele>18.0</ele><time>2026-05-02T08:51:55.381Z</time></trkpt><trkpt lat="39.4480267" lon="8.4379533"><ele>18.0</ele><time>2026-05-02T08:51:56.381Z</time></trkpt><trkpt lat="39.4479233" lon="8.4378083"><ele>16.75</ele><time>2026-05-02T08:51:57.381Z</time></trkpt><trkpt lat="39.44782" lon="8.437655"><ele>15.5</ele><time>2026-05-02T08:51:58.382Z</time></trkpt><trkpt lat="39.44773" lon="8.4375"><ele>14.25</ele><time>2026-05-02T08:51:59.377Z</time></trkpt><trkpt lat="39.4476483" lon="8.4373617"><ele>13.0</ele><time>2026-05-02T08:52:00.377Z</time></trkpt><trkpt lat="39.4475717" lon="8.43724"><ele>12.999999999999998</ele><time>2026-05-02T08:52:01.378Z</time></trkpt><trkpt lat="39.4475017" lon="8.4371383"><ele>13.0</ele><time>2026-05-02T08:52:02.376Z</time></trkpt><trkpt lat="39.447445" lon="8.43705"><ele>13.0</ele><time>2026-05-02T08:52:03.38Z</time></trkpt><trkpt lat="39.4473883" lon="8.4369883"><ele>13.0</ele><time>2026-05-02T08:52:04.379Z</time></trkpt><trkpt lat="39.4473283" lon="8.4369517"><ele>12.999999999999998</ele><time>2026-05-02T08:52:05.379Z</time></trkpt><trkpt lat="39.4472517" lon="8.4369467"><ele>13.0</ele><time>2026-05-02T08:52:06.375Z</time></trkpt><trkpt lat="39.4471667" lon="8.4369433"><ele>12.5</ele><time>2026-05-02T08:52:07.381Z</time></trkpt><trkpt lat="39.4470583" lon="8.4369633"><ele>12.0</ele><time>2026-05-02T08:52:08.403Z</time></trkpt><trkpt lat="39.4469317" lon="8.4369917"><ele>11.5</ele><time>2026-05-02T08:52:09.383Z</time></trkpt><trkpt lat="39.4468067" lon="8.4370117"><ele>11.0</ele><time>2026-05-02T08:52:10.38Z</time></trkpt><trkpt lat="39.4466717" lon="8.4370417"><ele>11.0</ele><time>2026-05-02T08:52:11.377Z</time></trkpt><trkpt lat="39.4465217" lon="8.4370917"><ele>11.0</ele><time>2026-05-02T08:52:12.379Z</time></trkpt><trkpt lat="39.4463717" lon="8.437155"><ele>11.0</ele><time>2026-05-02T08:52:13.38Z</time></trkpt><trkpt lat="39.44622" lon="8.4372133"><ele>10.0</ele><time>2026-05-02T08:52:14.402Z</time></trkpt><trkpt lat="39.4460717" lon="8.4372783"><ele>9.0</ele><time>2026-05-02T08:52:15.379Z</time></trkpt><trkpt lat="39.4459333" lon="8.437345"><ele>8.0</ele><time>2026-05-02T08:52:16.379Z</time></trkpt><trkpt lat="39.4457883" lon="8.4374067"><ele>8.0</ele><time>2026-05-02T08:52:17.378Z</time></trkpt><trkpt lat="39.4456517" lon="8.4374783"><ele>8.0</ele><time>2026-05-02T08:52:18.377Z</time></trkpt><trkpt lat="39.4455033" lon="8.4375567"><ele>8.0</ele><time>2026-05-02T08:52:19.379Z</time></trkpt><trkpt lat="39.445365" lon="8.4376417"><ele>7.333333333333333</ele><time>2026-05-02T08:52:20.401Z</time></trkpt><trkpt lat="39.445215" lon="8.4377167"><ele>6.666666666666666</ele><time>2026-05-02T08:52:21.38Z</time></trkpt><trkpt lat="39.4450683" lon="8.4378"><ele>6.0</ele><time>2026-05-02T08:52:22.379Z</time></trkpt><trkpt lat="39.4449217" lon="8.4378683"><ele>6.0</ele><time>2026-05-02T08:52:23.377Z</time></trkpt><trkpt lat="39.4447983" lon="8.4379367"><ele>6.0</ele><time>2026-05-02T08:52:24.377Z</time></trkpt><trkpt lat="39.4446733" lon="8.438"><ele>6.0</ele><time>2026-05-02T08:52:25.377Z</time></trkpt><trkpt lat="39.4445467" lon="8.43806"><ele>6.0</ele><time>2026-05-02T08:52:26.449Z</time></trkpt><trkpt lat="39.44443" lon="8.4381183"><ele>6.666666666666667</ele><time>2026-05-02T08:52:27.376Z</time></trkpt><trkpt lat="39.44433" lon="8.438165"><ele>7.333333333333334</ele><time>2026-05-02T08:52:28.38Z</time></trkpt><trkpt lat="39.4442433" lon="8.4381883"><ele>8.0</ele><time>2026-05-02T08:52:29.378Z</time></trkpt><trkpt lat="39.4441467" lon="8.4382133"><ele>8.666666666666668</ele><time>2026-05-02T08:52:31.375Z</time></trkpt><trkpt lat="39.4441233" lon="8.4383033"><ele>9.333333333333334</ele><time>2026-05-02T08:52:41.379Z</time></trkpt><trkpt lat="39.4441367" lon="8.438395"><ele>10.0</ele><time>2026-05-02T08:52:42.376Z</time></trkpt><trkpt lat="39.444165" lon="8.4385217"><ele>10.0</ele><time>2026-05-02T08:52:43.378Z</time></trkpt><trkpt lat="39.4441867" lon="8.4386717"><ele>10.0</ele><time>2026-05-02T08:52:44.4Z</time></trkpt><trkpt lat="39.4442267" lon="8.43886"><ele>10.0</ele><time>2026-05-02T08:52:45.378Z</time></trkpt><trkpt lat="39.4442517" lon="8.4390783"><ele>10.0</ele><time>2026-05-02T08:52:46.377Z</time></trkpt><trkpt lat="39.4442833" lon="8.4392933"><ele>10.666666666666668</ele><time>2026-05-02T08:52:47.378Z</time></trkpt><trkpt lat="39.44433" lon="8.43952"><ele>11.333333333333334</ele><time>2026-05-02T08:52:48.378Z</time></trkpt><trkpt lat="39.444365" lon="8.43975"><ele>12.0</ele><time>2026-05-02T08:52:49.376Z</time></trkpt><trkpt lat="39.4443867" lon="8.4399817"><ele>13.333333333333332</ele><time>2026-05-02T08:52:50.404Z</time></trkpt><trkpt lat="39.4444133" lon="8.4402117"><ele>14.666666666666666</ele><time>2026-05-02T08:52:51.374Z</time></trkpt><trkpt lat="39.44444" lon="8.44044"><ele>16.0</ele><time>2026-05-02T08:52:52.38Z</time></trkpt><trkpt lat="39.4444717" lon="8.4406633"><ele>18.333333333333332</ele><time>2026-05-02T08:52:53.378Z</time></trkpt><trkpt lat="39.4444983" lon="8.44087"><ele>20.666666666666668</ele><time>2026-05-02T08:52:54.379Z</time></trkpt><trkpt lat="39.444525" lon="8.4410867"><ele>23.0</ele><time>2026-05-02T08:52:55.38Z</time></trkpt><trkpt lat="39.44456" lon="8.4412883"><ele>24.0</ele><time>2026-05-02T08:52:56.444Z</time></trkpt><trkpt lat="39.4445817" lon="8.441475"><ele>25.0</ele><time>2026-05-02T08:52:57.378Z</time></trkpt><trkpt lat="39.4446117" lon="8.4416483"><ele>26.0</ele><time>2026-05-02T08:52:58.379Z</time></trkpt><trkpt lat="39.444575" lon="8.4419567"><ele>26.0</ele><time>2026-05-02T08:53:00.374Z</time></trkpt><trkpt lat="39.4445333" lon="8.44213"><ele>26.0</ele><time>2026-05-02T08:53:01.377Z</time></trkpt><trkpt lat="39.4444667" lon="8.442295"><ele>26.0</ele><time>2026-05-02T08:53:02.375Z</time></trkpt><trkpt lat="39.4443783" lon="8.442465"><ele>26.0</ele><time>2026-05-02T08:53:03.378Z</time></trkpt><trkpt lat="39.4443033" lon="8.44265"><ele>23.0</ele><time>2026-05-02T08:53:04.379Z</time></trkpt><trkpt lat="39.4442167" lon="8.442825"><ele>20.0</ele><time>2026-05-02T08:53:05.377Z</time></trkpt><trkpt lat="39.444125" lon="8.4429867"><ele>17.0</ele><time>2026-05-02T08:53:06.38Z</time></trkpt><trkpt lat="39.4440417" lon="8.4431367"><ele>15.75</ele><time>2026-05-02T08:53:07.38Z</time></trkpt><trkpt lat="39.4439667" lon="8.4432833"><ele>14.5</ele><time>2026-05-02T08:53:08.404Z</time></trkpt><trkpt lat="39.443905" lon="8.443425"><ele>13.25</ele><time>2026-05-02T08:53:09.377Z</time></trkpt><trkpt lat="39.44387" lon="8.443565"><ele>12.0</ele><time>2026-05-02T08:53:10.38Z</time></trkpt><trkpt lat="39.4438683" lon="8.4436967"><ele>12.399999999999999</ele><time>2026-05-02T08:53:11.378Z</time></trkpt><trkpt lat="39.4438833" lon="8.4438317"><ele>12.799999999999999</ele><time>2026-05-02T08:53:12.377Z</time></trkpt><trkpt lat="39.4439217" lon="8.44395"><ele>13.2</ele><time>2026-05-02T08:53:13.379Z</time></trkpt><trkpt lat="39.4439683" lon="8.4440667"><ele>13.6</ele><time>2026-05-02T08:53:14.404Z</time></trkpt><trkpt lat="39.4440267" lon="8.4441733"><ele>14.0</ele><time>2026-05-02T08:53:15.381Z</time></trkpt><trkpt lat="39.4440717" lon="8.4442533"><ele>14.000000000000002</ele><time>2026-05-02T08:53:16.377Z</time></trkpt><trkpt lat="39.4441083" lon="8.44435"><ele>14.0</ele><time>2026-05-02T08:53:17.379Z</time></trkpt><trkpt lat="39.4441383" lon="8.4444383"><ele>14.0</ele><time>2026-05-02T08:53:18.377Z</time></trkpt><trkpt lat="39.444165" lon="8.4445167"><ele>14.0</ele><time>2026-05-02T08:53:19.379Z</time></trkpt><trkpt lat="39.444155" lon="8.4446517"><ele>14.000000000000002</ele><time>2026-05-02T08:53:21.377Z</time></trkpt><trkpt lat="39.44408" lon="8.4447167"><ele>14.0</ele><time>2026-05-02T08:53:23.374Z</time></trkpt><trkpt lat="39.4439467" lon="8.444695"><ele>14.0</ele><time>2026-05-02T08:53:25.38Z</time></trkpt><trkpt lat="39.4438783" lon="8.44466"><ele>13.999999999999998</ele><time>2026-05-02T08:53:26.378Z</time></trkpt><trkpt lat="39.4438133" lon="8.4446017"><ele>13.999999999999998</ele><time>2026-05-02T08:53:27.374Z</time></trkpt><trkpt lat="39.4437533" lon="8.4444917"><ele>14.0</ele><time>2026-05-02T08:53:28.377Z</time></trkpt><trkpt lat="39.4436767" lon="8.44438"><ele>14.0</ele><time>2026-05-02T08:53:29.377Z</time></trkpt><trkpt lat="39.4436067" lon="8.444275"><ele>14.25</ele><time>2026-05-02T08:53:30.377Z</time></trkpt><trkpt lat="39.443515" lon="8.4441483"><ele>14.5</ele><time>2026-05-02T08:53:31.377Z</time></trkpt><trkpt lat="39.4434267" lon="8.4440217"><ele>14.75</ele><time>2026-05-02T08:53:32.379Z</time></trkpt><trkpt lat="39.44334" lon="8.44389"><ele>15.0</ele><time>2026-05-02T08:53:33.377Z</time></trkpt><trkpt lat="39.4432567" lon="8.443765"><ele>15.333333333333334</ele><time>2026-05-02T08:53:34.377Z</time></trkpt><trkpt lat="39.443185" lon="8.44365"><ele>15.666666666666668</ele><time>2026-05-02T08:53:35.378Z</time></trkpt><trkpt lat="39.4431167" lon="8.4435567"><ele>16.0</ele><time>2026-05-02T08:53:36.379Z</time></trkpt><trkpt lat="39.4430633" lon="8.44348"><ele>16.333333333333336</ele><time>2026-05-02T08:53:37.377Z</time></trkpt><trkpt lat="39.4430083" lon="8.4434183"><ele>16.666666666666668</ele><time>2026-05-02T08:53:38.396Z</time></trkpt><trkpt lat="39.4429483" lon="8.4433817"><ele>17.0</ele><time>2026-05-02T08:53:39.377Z</time></trkpt><trkpt lat="39.4428217" lon="8.443355"><ele>18.166666666666668</ele><time>2026-05-02T08:53:41.377Z</time></trkpt><trkpt lat="39.442715" lon="8.44337"><ele>19.333333333333336</ele><time>2026-05-02T08:53:43.377Z</time></trkpt><trkpt lat="39.4426533" lon="8.4433517"><ele>20.5</ele><time>2026-05-02T08:53:44.397Z</time></trkpt><trkpt lat="39.4425433" lon="8.4432683"><ele>21.666666666666668</ele><time>2026-05-02T08:53:46.378Z</time></trkpt><trkpt lat="39.442495" lon="8.4431967"><ele>22.833333333333332</ele><time>2026-05-02T08:53:47.376Z</time></trkpt><trkpt lat="39.44246" lon="8.4431267"><ele>24.0</ele><time>2026-05-02T08:53:48.377Z</time></trkpt><trkpt lat="39.4424317" lon="8.4429867"><ele>27.0</ele><time>2026-05-02T08:53:50.398Z</time></trkpt><trkpt lat="39.4424567" lon="8.4428733"><ele>30.0</ele><time>2026-05-02T08:53:52.377Z</time></trkpt><trkpt lat="39.4426617" lon="8.44285"><ele>33.0</ele><time>2026-05-02T08:53:54.378Z</time></trkpt><trkpt lat="39.4427533" lon="8.4428817"><ele>36.0</ele><time>2026-05-02T08:53:55.378Z</time></trkpt><trkpt lat="39.44284" lon="8.4429"><ele>36.0</ele><time>2026-05-02T08:53:56.441Z</time></trkpt><trkpt lat="39.442925" lon="8.4429"><ele>36.0</ele><time>2026-05-02T08:53:57.376Z</time></trkpt><trkpt lat="39.44301" lon="8.4428867"><ele>36.0</ele><time>2026-05-02T08:53:58.376Z</time></trkpt><trkpt lat="39.4430883" lon="8.4428417"><ele>36.0</ele><time>2026-05-02T08:53:59.374Z</time></trkpt><trkpt lat="39.4431583" lon="8.442785"><ele>36.0</ele><time>2026-05-02T08:54:00.378Z</time></trkpt><trkpt lat="39.443225" lon="8.4427133"><ele>36.0</ele><time>2026-05-02T08:54:01.379Z</time></trkpt><trkpt lat="39.4432833" lon="8.442625"><ele>36.8</ele><time>2026-05-02T08:54:02.399Z</time></trkpt><trkpt lat="39.4433267" lon="8.4425217"><ele>37.6</ele><time>2026-05-02T08:54:03.379Z</time></trkpt><trkpt lat="39.443345" lon="8.4424083"><ele>38.4</ele><time>2026-05-02T08:54:04.374Z</time></trkpt><trkpt lat="39.44337" lon="8.4422967"><ele>39.2</ele><time>2026-05-02T08:54:05.376Z</time></trkpt><trkpt lat="39.4434" lon="8.4421433"><ele>40.0</ele><time>2026-05-02T08:54:06.378Z</time></trkpt><trkpt lat="39.4434533" lon="8.4420267"><ele>40.0</ele><time>2026-05-02T08:54:07.378Z</time></trkpt><trkpt lat="39.4435133" lon="8.44191"><ele>40.0</ele><time>2026-05-02T08:54:08.399Z</time></trkpt><trkpt lat="39.443575" lon="8.441805"><ele>40.0</ele><time>2026-05-02T08:54:09.379Z</time></trkpt><trkpt lat="39.4436317" lon="8.44171"><ele>40.0</ele><time>2026-05-02T08:54:10.378Z</time></trkpt><trkpt lat="39.443685" lon="8.4416167"><ele>40.0</ele><time>2026-05-02T08:54:11.376Z</time></trkpt><trkpt lat="39.4437217" lon="8.4415233"><ele>40.0</ele><time>2026-05-02T08:54:12.378Z</time></trkpt><trkpt lat="39.44375" lon="8.44143"><ele>40.0</ele><time>2026-05-02T08:54:13.38Z</time></trkpt><trkpt lat="39.4437417" lon="8.44133"><ele>40.0</ele><time>2026-05-02T08:54:14.401Z</time></trkpt><trkpt lat="39.44372" lon="8.44124"><ele>40.0</ele><time>2026-05-02T08:54:15.378Z</time></trkpt><trkpt lat="39.4436833" lon="8.4411567"><ele>40.0</ele><time>2026-05-02T08:54:16.378Z</time></trkpt><trkpt lat="39.4436017" lon="8.44112"><ele>40.0</ele><time>2026-05-02T08:54:17.373Z</time></trkpt><trkpt lat="39.443525" lon="8.4411067"><ele>40.0</ele><time>2026-05-02T08:54:18.379Z</time></trkpt><trkpt lat="39.44344" lon="8.44112"><ele>40.0</ele><time>2026-05-02T08:54:19.38Z</time></trkpt><trkpt lat="39.4433433" lon="8.4411583"><ele>40.0</ele><time>2026-05-02T08:54:20.398Z</time></trkpt><trkpt lat="39.44325" lon="8.4412167"><ele>40.0</ele><time>2026-05-02T08:54:21.374Z</time></trkpt><trkpt lat="39.4431567" lon="8.441295"><ele>40.0</ele><time>2026-05-02T08:54:22.379Z</time></trkpt><trkpt lat="39.4430617" lon="8.4413817"><ele>41.6</ele><time>2026-05-02T08:54:23.375Z</time></trkpt><trkpt lat="39.4429467" lon="8.4414933"><ele>43.2</ele><time>2026-05-02T08:54:24.378Z</time></trkpt><trkpt lat="39.4428667" lon="8.4415817"><ele>44.8</ele><time>2026-05-02T08:54:25.373Z</time></trkpt><trkpt lat="39.4427967" lon="8.4416567"><ele>46.4</ele><time>2026-05-02T08:54:26.441Z</time></trkpt><trkpt lat="39.4427283" lon="8.4417117"><ele>48.0</ele><time>2026-05-02T08:54:27.376Z</time></trkpt><trkpt lat="39.4426583" lon="8.4417483"><ele>47.99999999999999</ele><time>2026-05-02T08:54:28.378Z</time></trkpt><trkpt lat="39.4425883" lon="8.44173"><ele>48.0</ele><time>2026-05-02T08:54:29.373Z</time></trkpt><trkpt lat="39.4425233" lon="8.4416883"><ele>48.0</ele><time>2026-05-02T08:54:30.378Z</time></trkpt><trkpt lat="39.44246" lon="8.4416183"><ele>48.0</ele><time>2026-05-02T08:54:31.378Z</time></trkpt><trkpt lat="39.4424083" lon="8.44155"><ele>48.0</ele><time>2026-05-02T08:54:32.376Z</time></trkpt><trkpt lat="39.4423733" lon="8.441475"><ele>47.99999999999999</ele><time>2026-05-02T08:54:33.377Z</time></trkpt><trkpt lat="39.4423667" lon="8.4413783"><ele>48.0</ele><time>2026-05-02T08:54:34.375Z</time></trkpt><trkpt lat="39.4423783" lon="8.4412717"><ele>47.57142857142857</ele><time>2026-05-02T08:54:35.375Z</time></trkpt><trkpt lat="39.4424067" lon="8.4411533"><ele>47.14285714285714</ele><time>2026-05-02T08:54:36.377Z</time></trkpt><trkpt lat="39.4424083" lon="8.4410533"><ele>46.71428571428571</ele><time>2026-05-02T08:54:37.376Z</time></trkpt><trkpt lat="39.4423967" lon="8.44096"><ele>46.285714285714285</ele><time>2026-05-02T08:54:38.401Z</time></trkpt><trkpt lat="39.4423717" lon="8.4408817"><ele>45.85714285714286</ele><time>2026-05-02T08:54:39.377Z</time></trkpt><trkpt lat="39.442325" lon="8.44082"><ele>45.42857142857142</ele><time>2026-05-02T08:54:40.379Z</time></trkpt><trkpt lat="39.44227" lon="8.4407683"><ele>45.0</ele><time>2026-05-02T08:54:41.379Z</time></trkpt><trkpt lat="39.4422" lon="8.4407267"><ele>47.8</ele><time>2026-05-02T08:54:42.378Z</time></trkpt><trkpt lat="39.4421083" lon="8.4406967"><ele>50.6</ele><time>2026-05-02T08:54:43.377Z</time></trkpt><trkpt lat="39.4420083" lon="8.44067"><ele>53.400000000000006</ele><time>2026-05-02T08:54:44.4Z</time></trkpt><trkpt lat="39.4419067" lon="8.4406333"><ele>56.2</ele><time>2026-05-02T08:54:45.378Z</time></trkpt><trkpt lat="39.4418" lon="8.440645"><ele>59.0</ele><time>2026-05-02T08:54:46.375Z</time></trkpt><trkpt lat="39.4416767" lon="8.44066"><ele>59.0</ele><time>2026-05-02T08:54:47.378Z</time></trkpt><trkpt lat="39.4415783" lon="8.4406867"><ele>59.00000000000001</ele><time>2026-05-02T08:54:48.379Z</time></trkpt><trkpt lat="39.4414933" lon="8.4407233"><ele>59.00000000000001</ele><time>2026-05-02T08:54:49.375Z</time></trkpt><trkpt lat="39.441405" lon="8.4407483"><ele>59.0</ele><time>2026-05-02T08:54:50.401Z</time></trkpt><trkpt lat="39.441315" lon="8.44075"><ele>59.0</ele><time>2026-05-02T08:54:51.377Z</time></trkpt><trkpt lat="39.441235" lon="8.4407283"><ele>60.66666666666667</ele><time>2026-05-02T08:54:52.378Z</time></trkpt><trkpt lat="39.44115" lon="8.4407033"><ele>62.333333333333336</ele><time>2026-05-02T08:54:53.374Z</time></trkpt><trkpt lat="39.44108" lon="8.44065"><ele>64.0</ele><time>2026-05-02T08:54:54.378Z</time></trkpt><trkpt lat="39.441015" lon="8.4405667"><ele>65.66666666666667</ele><time>2026-05-02T08:54:55.377Z</time></trkpt><trkpt lat="39.440945" lon="8.440485"><ele>67.33333333333333</ele><time>2026-05-02T08:54:56.442Z</time></trkpt><trkpt lat="39.4408817" lon="8.4404017"><ele>69.0</ele><time>2026-05-02T08:54:57.379Z</time></trkpt><trkpt lat="39.4408317" lon="8.4403233"><ele>69.0</ele><time>2026-05-02T08:54:58.375Z</time></trkpt><trkpt lat="39.440795" lon="8.44024"><ele>69.0</ele><time>2026-05-02T08:54:59.378Z</time></trkpt><trkpt lat="39.4407683" lon="8.44016"><ele>69.0</ele><time>2026-05-02T08:55:00.375Z</time></trkpt><trkpt lat="39.44076" lon="8.4400733"><ele>69.0</ele><time>2026-05-02T08:55:01.379Z</time></trkpt><trkpt lat="39.440775" lon="8.4399667"><ele>69.0</ele><time>2026-05-02T08:55:02.4Z</time></trkpt><trkpt lat="39.440795" lon="8.4398633"><ele>69.0</ele><time>2026-05-02T08:55:03.378Z</time></trkpt><trkpt lat="39.4408167" lon="8.4397583"><ele>69.0</ele><time>2026-05-02T08:55:04.376Z</time></trkpt><trkpt lat="39.44084" lon="8.43965"><ele>69.0</ele><time>2026-05-02T08:55:05.377Z</time></trkpt><trkpt lat="39.4408733" lon="8.43955"><ele>69.0</ele><time>2026-05-02T08:55:06.378Z</time></trkpt><trkpt lat="39.4409333" lon="8.4394233"><ele>69.0</ele><time>2026-05-02T08:55:07.377Z</time></trkpt><trkpt lat="39.4409933" lon="8.4393367"><ele>69.0</ele><time>2026-05-02T08:55:08.399Z</time></trkpt><trkpt lat="39.4410617" lon="8.4392517"><ele>70.16666666666667</ele><time>2026-05-02T08:55:09.376Z</time></trkpt><trkpt lat="39.4411367" lon="8.4391833"><ele>71.33333333333333</ele><time>2026-05-02T08:55:10.378Z</time></trkpt><trkpt lat="39.4412167" lon="8.4391333"><ele>72.5</ele><time>2026-05-02T08:55:11.377Z</time></trkpt><trkpt lat="39.4412883" lon="8.4390683"><ele>73.66666666666666</ele><time>2026-05-02T08:55:12.38Z</time></trkpt><trkpt lat="39.441345" lon="8.439"><ele>74.83333333333333</ele><time>2026-05-02T08:55:13.375Z</time></trkpt><trkpt lat="39.4413883" lon="8.4389267"><ele>76.0</ele><time>2026-05-02T08:55:14.4Z</time></trkpt><trkpt lat="39.4414283" lon="8.4388283"><ele>74.2</ele><time>2026-05-02T08:55:15.374Z</time></trkpt><trkpt lat="39.4414683" lon="8.438705"><ele>72.39999999999999</ele><time>2026-05-02T08:55:16.378Z</time></trkpt><trkpt lat="39.4415083" lon="8.4385817"><ele>70.6</ele><time>2026-05-02T08:55:17.378Z</time></trkpt><trkpt lat="39.4415467" lon="8.4384517"><ele>68.8</ele><time>2026-05-02T08:55:18.376Z</time></trkpt><trkpt lat="39.4415583" lon="8.4383317"><ele>67.0</ele><time>2026-05-02T08:55:19.378Z</time></trkpt><trkpt lat="39.441565" lon="8.43821"><ele>67.0</ele><time>2026-05-02T08:55:20.404Z</time></trkpt><trkpt lat="39.44155" lon="8.4380933"><ele>67.0</ele><time>2026-05-02T08:55:21.374Z</time></trkpt><trkpt lat="39.44153" lon="8.4379917"><ele>67.0</ele><time>2026-05-02T08:55:22.375Z</time></trkpt><trkpt lat="39.4414933" lon="8.43791"><ele>67.0</ele><time>2026-05-02T08:55:23.377Z</time></trkpt><trkpt lat="39.441455" lon="8.437835"><ele>67.0</ele><time>2026-05-02T08:55:24.378Z</time></trkpt><trkpt lat="39.4414" lon="8.4377733"><ele>67.0</ele><time>2026-05-02T08:55:25.377Z</time></trkpt><trkpt lat="39.4413467" lon="8.4377183"><ele>66.16666666666666</ele><time>2026-05-02T08:55:26.398Z</time></trkpt><trkpt lat="39.441285" lon="8.4376783"><ele>65.33333333333333</ele><time>2026-05-02T08:55:27.373Z</time></trkpt><trkpt lat="39.4412083" lon="8.4376717"><ele>64.5</ele><time>2026-05-02T08:55:28.375Z</time></trkpt><trkpt lat="39.4411317" lon="8.43769"><ele>63.66666666666667</ele><time>2026-05-02T08:55:29.377Z</time></trkpt><trkpt lat="39.4410683" lon="8.4377117"><ele>62.833333333333336</ele><time>2026-05-02T08:55:30.378Z</time></trkpt><trkpt lat="39.4410117" lon="8.4377667"><ele>62.0</ele><time>2026-05-02T08:55:31.375Z</time></trkpt><trkpt lat="39.44095" lon="8.4379133"><ele>64.25</ele><time>2026-05-02T08:55:33.377Z</time></trkpt><trkpt lat="39.4409067" lon="8.4380267"><ele>66.5</ele><time>2026-05-02T08:55:34.376Z</time></trkpt><trkpt lat="39.44087" lon="8.438155"><ele>68.75</ele><time>2026-05-02T08:55:35.378Z</time></trkpt><trkpt lat="39.4408617" lon="8.4383117"><ele>71.0</ele><time>2026-05-02T08:55:36.377Z</time></trkpt><trkpt lat="39.4408617" lon="8.43848"><ele>71.0</ele><time>2026-05-02T08:55:37.378Z</time></trkpt><trkpt lat="39.440845" lon="8.4386033"><ele>71.0</ele><time>2026-05-02T08:55:38.402Z</time></trkpt><trkpt lat="39.4408133" lon="8.4387033"><ele>71.0</ele><time>2026-05-02T08:55:39.375Z</time></trkpt><trkpt lat="39.4407683" lon="8.438795"><ele>71.0</ele><time>2026-05-02T08:55:40.377Z</time></trkpt><trkpt lat="39.4407183" lon="8.4388833"><ele>71.0</ele><time>2026-05-02T08:55:41.379Z</time></trkpt><trkpt lat="39.4406617" lon="8.4389683"><ele>71.0</ele><time>2026-05-02T08:55:42.377Z</time></trkpt><trkpt lat="39.440565" lon="8.4389617"><ele>71.83333333333334</ele><time>2026-05-02T08:55:43.378Z</time></trkpt><trkpt lat="39.4404817" lon="8.4389767"><ele>72.66666666666667</ele><time>2026-05-02T08:55:44.4Z</time></trkpt><trkpt lat="39.4404083" lon="8.439"><ele>73.5</ele><time>2026-05-02T08:55:45.376Z</time></trkpt><trkpt lat="39.440335" lon="8.43903"><ele>74.33333333333333</ele><time>2026-05-02T08:55:46.376Z</time></trkpt><trkpt lat="39.440275" lon="8.4390783"><ele>75.16666666666666</ele><time>2026-05-02T08:55:47.379Z</time></trkpt><trkpt lat="39.44022" lon="8.4391417"><ele>76.0</ele><time>2026-05-02T08:55:48.374Z</time></trkpt><trkpt lat="39.4401833" lon="8.4392233"><ele>76.16666666666666</ele><time>2026-05-02T08:55:49.378Z</time></trkpt><trkpt lat="39.4401517" lon="8.439305"><ele>76.33333333333333</ele><time>2026-05-02T08:55:50.4Z</time></trkpt><trkpt lat="39.4401183" lon="8.43938"><ele>76.5</ele><time>2026-05-02T08:55:51.374Z</time></trkpt><trkpt lat="39.4400733" lon="8.4394433"><ele>76.66666666666667</ele><time>2026-05-02T08:55:52.379Z</time></trkpt><trkpt lat="39.43997" lon="8.4394867"><ele>76.83333333333334</ele><time>2026-05-02T08:55:54.377Z</time></trkpt><trkpt lat="39.4399067" lon="8.43949"><ele>77.0</ele><time>2026-05-02T08:55:55.379Z</time></trkpt><trkpt lat="39.439795" lon="8.4395517"><ele>77.0</ele><time>2026-05-02T08:55:57.375Z</time></trkpt><trkpt lat="39.43975" lon="8.4396217"><ele>77.0</ele><time>2026-05-02T08:55:58.377Z</time></trkpt><trkpt lat="39.43971" lon="8.4397017"><ele>77.0</ele><time>2026-05-02T08:55:59.378Z</time></trkpt><trkpt lat="39.4396617" lon="8.4397683"><ele>77.0</ele><time>2026-05-02T08:56:00.375Z</time></trkpt><trkpt lat="39.439595" lon="8.4398117"><ele>77.0</ele><time>2026-05-02T08:56:01.378Z</time></trkpt><trkpt lat="39.4395183" lon="8.439835"><ele>77.0</ele><time>2026-05-02T08:56:02.392Z</time></trkpt><trkpt lat="39.439435" lon="8.43984"><ele>79.0</ele><time>2026-05-02T08:56:03.375Z</time></trkpt><trkpt lat="39.4393467" lon="8.4398133"><ele>81.0</ele><time>2026-05-02T08:56:04.377Z</time></trkpt><trkpt lat="39.43926" lon="8.4397683"><ele>83.0</ele><time>2026-05-02T08:56:05.378Z</time></trkpt><trkpt lat="39.4391667" lon="8.43969"><ele>85.0</ele><time>2026-05-02T08:56:06.377Z</time></trkpt><trkpt lat="39.4391033" lon="8.43961"><ele>87.0</ele><time>2026-05-02T08:56:07.378Z</time></trkpt><trkpt lat="39.4390533" lon="8.4395167"><ele>87.0</ele><time>2026-05-02T08:56:08.402Z</time></trkpt><trkpt lat="39.43901" lon="8.4393967"><ele>87.0</ele><time>2026-05-02T08:56:09.374Z</time></trkpt><trkpt lat="39.4389683" lon="8.43928"><ele>87.0</ele><time>2026-05-02T08:56:10.377Z</time></trkpt><trkpt lat="39.4389333" lon="8.4391583"><ele>87.0</ele><time>2026-05-02T08:56:11.372Z</time></trkpt><trkpt lat="39.4389117" lon="8.4390417"><ele>87.0</ele><time>2026-05-02T08:56:12.379Z</time></trkpt><trkpt lat="39.4389017" lon="8.4388933"><ele>86.25</ele><time>2026-05-02T08:56:13.375Z</time></trkpt><trkpt lat="39.4389117" lon="8.4387483"><ele>85.5</ele><time>2026-05-02T08:56:14.401Z</time></trkpt><trkpt lat="39.43894" lon="8.4385583"><ele>84.75</ele><time>2026-05-02T08:56:15.373Z</time></trkpt><trkpt lat="39.4389683" lon="8.43838"><ele>84.0</ele><time>2026-05-02T08:56:16.376Z</time></trkpt><trkpt lat="39.4389667" lon="8.43822"><ele>84.0</ele><time>2026-05-02T08:56:17.38Z</time></trkpt><trkpt lat="39.4389633" lon="8.4380883"><ele>84.0</ele><time>2026-05-02T08:56:18.378Z</time></trkpt><trkpt lat="39.4389433" lon="8.437985"><ele>84.0</ele><time>2026-05-02T08:56:19.376Z</time></trkpt><trkpt lat="39.4389117" lon="8.4379017"><ele>84.0</ele><time>2026-05-02T08:56:20.402Z</time></trkpt><trkpt lat="39.4388583" lon="8.43784"><ele>84.0</ele><time>2026-05-02T08:56:21.376Z</time></trkpt><trkpt lat="39.438755" lon="8.4378167"><ele>84.0</ele><time>2026-05-02T08:56:23.377Z</time></trkpt><trkpt lat="39.4386783" lon="8.4378383"><ele>84.6</ele><time>2026-05-02T08:56:24.374Z</time></trkpt><trkpt lat="39.438595" lon="8.437855"><ele>85.2</ele><time>2026-05-02T08:56:25.378Z</time></trkpt><trkpt lat="39.438485" lon="8.4378983"><ele>85.8</ele><time>2026-05-02T08:56:26.402Z</time></trkpt><trkpt lat="39.4383917" lon="8.4379233"><ele>86.39999999999999</ele><time>2026-05-02T08:56:27.379Z</time></trkpt><trkpt lat="39.4383033" lon="8.437955"><ele>87.0</ele><time>2026-05-02T08:56:28.378Z</time></trkpt><trkpt lat="39.4382083" lon="8.4380067"><ele>88.0</ele><time>2026-05-02T08:56:29.374Z</time></trkpt><trkpt lat="39.4381133" lon="8.4380733"><ele>89.0</ele><time>2026-05-02T08:56:30.376Z</time></trkpt><trkpt lat="39.4380183" lon="8.4381533"><ele>90.0</ele><time>2026-05-02T08:56:31.374Z</time></trkpt><trkpt lat="39.437925" lon="8.438235"><ele>91.0</ele><time>2026-05-02T08:56:32.377Z</time></trkpt><trkpt lat="39.4378367" lon="8.4383133"><ele>92.0</ele><time>2026-05-02T08:56:33.375Z</time></trkpt><trkpt lat="39.4377583" lon="8.43839"><ele>92.0</ele><time>2026-05-02T08:56:34.376Z</time></trkpt><trkpt lat="39.437695" lon="8.4384683"><ele>92.0</ele><time>2026-05-02T08:56:35.374Z</time></trkpt><trkpt lat="39.4376433" lon="8.43855"><ele>92.0</ele><time>2026-05-02T08:56:36.378Z</time></trkpt><trkpt lat="39.437615" lon="8.4386433"><ele>92.0</ele><time>2026-05-02T08:56:37.377Z</time></trkpt><trkpt lat="39.4375983" lon="8.43873"><ele>92.0</ele><time>2026-05-02T08:56:38.399Z</time></trkpt><trkpt lat="39.43761" lon="8.43882"><ele>92.0</ele><time>2026-05-02T08:56:39.377Z</time></trkpt><trkpt lat="39.4376483" lon="8.4389217"><ele>91.39999999999999</ele><time>2026-05-02T08:56:40.375Z</time></trkpt><trkpt lat="39.4377067" lon="8.43902"><ele>90.8</ele><time>2026-05-02T08:56:41.374Z</time></trkpt><trkpt lat="39.4377667" lon="8.4391233"><ele>90.2</ele><time>2026-05-02T08:56:42.374Z</time></trkpt><trkpt lat="39.4378183" lon="8.4392333"><ele>89.6</ele><time>2026-05-02T08:56:43.379Z</time></trkpt><trkpt lat="39.4378683" lon="8.43936"><ele>89.0</ele><time>2026-05-02T08:56:44.399Z</time></trkpt><trkpt lat="39.43795" lon="8.4395467"><ele>93.75</ele><time>2026-05-02T08:56:45.377Z</time></trkpt><trkpt lat="39.4380033" lon="8.43973"><ele>98.5</ele><time>2026-05-02T08:56:46.379Z</time></trkpt><trkpt lat="39.43801" lon="8.439895"><ele>103.25</ele><time>2026-05-02T08:56:47.372Z</time></trkpt><trkpt lat="39.438015" lon="8.4400483"><ele>108.0</ele><time>2026-05-02T08:56:48.377Z</time></trkpt><trkpt lat="39.43803" lon="8.440195"><ele>108.0</ele><time>2026-05-02T08:56:49.378Z</time></trkpt><trkpt lat="39.438055" lon="8.4403333"><ele>108.00000000000001</ele><time>2026-05-02T08:56:50.399Z</time></trkpt><trkpt lat="39.438095" lon="8.4404567"><ele>108.00000000000001</ele><time>2026-05-02T08:56:51.376Z</time></trkpt><trkpt lat="39.4381483" lon="8.4405533"><ele>108.0</ele><time>2026-05-02T08:56:52.376Z</time></trkpt><trkpt lat="39.4382083" lon="8.4406817"><ele>108.0</ele><time>2026-05-02T08:56:53.377Z</time></trkpt><trkpt lat="39.4382883" lon="8.440785"><ele>107.83333333333333</ele><time>2026-05-02T08:56:54.377Z</time></trkpt><trkpt lat="39.438365" lon="8.4408683"><ele>107.66666666666666</ele><time>2026-05-02T08:56:55.374Z</time></trkpt><trkpt lat="39.4384133" lon="8.4409783"><ele>107.5</ele><time>2026-05-02T08:56:56.378Z</time></trkpt><trkpt lat="39.43844" lon="8.4410733"><ele>107.33333333333333</ele><time>2026-05-02T08:56:57.38Z</time></trkpt><trkpt lat="39.4384583" lon="8.4411833"><ele>107.16666666666666</ele><time>2026-05-02T08:56:58.376Z</time></trkpt><trkpt lat="39.4384533" lon="8.4412933"><ele>107.0</ele><time>2026-05-02T08:56:59.378Z</time></trkpt><trkpt lat="39.4384317" lon="8.4414067"><ele>107.0</ele><time>2026-05-02T08:57:00.376Z</time></trkpt><trkpt lat="39.4383933" lon="8.44152"><ele>106.99999999999999</ele><time>2026-05-02T08:57:01.38Z</time></trkpt><trkpt lat="39.43833" lon="8.441635"><ele>106.99999999999999</ele><time>2026-05-02T08:57:02.401Z</time></trkpt><trkpt lat="39.4382717" lon="8.44175"><ele>107.0</ele><time>2026-05-02T08:57:03.376Z</time></trkpt><trkpt lat="39.4382083" lon="8.441855"><ele>107.0</ele><time>2026-05-02T08:57:04.377Z</time></trkpt><trkpt lat="39.4381617" lon="8.4419483"><ele>106.99999999999999</ele><time>2026-05-02T08:57:05.374Z</time></trkpt><trkpt lat="39.438105" lon="8.4420083"><ele>107.0</ele><time>2026-05-02T08:57:06.378Z</time></trkpt><trkpt lat="39.43804" lon="8.4420367"><ele>107.0</ele><time>2026-05-02T08:57:07.373Z</time></trkpt><trkpt lat="39.4379583" lon="8.442075"><ele>107.0</ele><time>2026-05-02T08:57:08.402Z</time></trkpt><trkpt lat="39.4378783" lon="8.4421317"><ele>106.99999999999999</ele><time>2026-05-02T08:57:09.377Z</time></trkpt><trkpt lat="39.4377883" lon="8.442175"><ele>107.0</ele><time>2026-05-02T08:57:10.378Z</time></trkpt><trkpt lat="39.4376933" lon="8.4421983"><ele>105.6</ele><time>2026-05-02T08:57:11.379Z</time></trkpt><trkpt lat="39.4376033" lon="8.4421983"><ele>104.19999999999999</ele><time>2026-05-02T08:57:12.378Z</time></trkpt><trkpt lat="39.4375133" lon="8.442175"><ele>102.8</ele><time>2026-05-02T08:57:13.374Z</time></trkpt><trkpt lat="39.437425" lon="8.44207"><ele>101.4</ele><time>2026-05-02T08:57:14.403Z</time></trkpt><trkpt lat="39.4373217" lon="8.4419717"><ele>100.0</ele><time>2026-05-02T08:57:15.375Z</time></trkpt><trkpt lat="39.4372033" lon="8.4418433"><ele>101.4</ele><time>2026-05-02T08:57:16.375Z</time></trkpt><trkpt lat="39.4371" lon="8.441735"><ele>102.8</ele><time>2026-05-02T08:57:17.378Z</time></trkpt><trkpt lat="39.4370183" lon="8.4416567"><ele>104.19999999999999</ele><time>2026-05-02T08:57:18.378Z</time></trkpt><trkpt lat="39.4369483" lon="8.4416033"><ele>105.6</ele><time>2026-05-02T08:57:19.378Z</time></trkpt><trkpt lat="39.436875" lon="8.4415733"><ele>107.0</ele><time>2026-05-02T08:57:20.4Z</time></trkpt><trkpt lat="39.4367967" lon="8.4415433"><ele>106.99999999999999</ele><time>2026-05-02T08:57:21.375Z</time></trkpt><trkpt lat="39.43671" lon="8.4415433"><ele>107.0</ele><time>2026-05-02T08:57:22.377Z</time></trkpt><trkpt lat="39.4366183" lon="8.4415567"><ele>107.0</ele><time>2026-05-02T08:57:23.378Z</time></trkpt><trkpt lat="39.4365267" lon="8.4416"><ele>107.0</ele><time>2026-05-02T08:57:24.379Z</time></trkpt><trkpt lat="39.43646" lon="8.4416433"><ele>106.99999999999999</ele><time>2026-05-02T08:57:25.378Z</time></trkpt><trkpt lat="39.4363983" lon="8.4417317"><ele>107.0</ele><time>2026-05-02T08:57:26.444Z</time></trkpt><trkpt lat="39.436355" lon="8.4418217"><ele>106.99999999999999</ele><time>2026-05-02T08:57:27.379Z</time></trkpt><trkpt lat="39.436325" lon="8.441915"><ele>107.0</ele><time>2026-05-02T08:57:28.378Z</time></trkpt><trkpt lat="39.4363117" lon="8.4420067"><ele>107.0</ele><time>2026-05-02T08:57:29.373Z</time></trkpt><trkpt lat="39.436305" lon="8.442115"><ele>107.0</ele><time>2026-05-02T08:57:30.376Z</time></trkpt><trkpt lat="39.436265" lon="8.442185"><ele>106.99999999999999</ele><time>2026-05-02T08:57:31.378Z</time></trkpt><trkpt lat="39.4361717" lon="8.4423017"><ele>107.0</ele><time>2026-05-02T08:57:33.375Z</time></trkpt><trkpt lat="39.4360983" lon="8.4423333"><ele>109.14285714285715</ele><time>2026-05-02T08:57:34.378Z</time></trkpt><trkpt lat="39.4360217" lon="8.4423517"><ele>111.28571428571428</ele><time>2026-05-02T08:57:35.379Z</time></trkpt><trkpt lat="39.43595" lon="8.44236"><ele>113.42857142857142</ele><time>2026-05-02T08:57:36.375Z</time></trkpt><trkpt lat="39.435885" lon="8.4423567"><ele>115.57142857142857</ele><time>2026-05-02T08:57:37.376Z</time></trkpt><trkpt lat="39.43582" lon="8.4423367"><ele>117.71428571428571</ele><time>2026-05-02T08:57:38.402Z</time></trkpt><trkpt lat="39.43575" lon="8.4422867"><ele>119.85714285714285</ele><time>2026-05-02T08:57:39.376Z</time></trkpt><trkpt lat="39.4356983" lon="8.4422117"><ele>121.99999999999999</ele><time>2026-05-02T08:57:40.378Z</time></trkpt><trkpt lat="39.43564" lon="8.4421383"><ele>117.8</ele><time>2026-05-02T08:57:41.379Z</time></trkpt><trkpt lat="39.43557" lon="8.44207"><ele>113.6</ele><time>2026-05-02T08:57:42.377Z</time></trkpt><trkpt lat="39.4354883" lon="8.44201"><ele>109.39999999999999</ele><time>2026-05-02T08:57:43.377Z</time></trkpt><trkpt lat="39.4353967" lon="8.4419617"><ele>105.19999999999999</ele><time>2026-05-02T08:57:44.402Z</time></trkpt><trkpt lat="39.435325" lon="8.441905"><ele>101.0</ele><time>2026-05-02T08:57:45.377Z</time></trkpt><trkpt lat="39.4352317" lon="8.44184"><ele>101.0</ele><time>2026-05-02T08:57:46.379Z</time></trkpt><trkpt lat="39.4351317" lon="8.4418283"><ele>101.0</ele><time>2026-05-02T08:57:47.379Z</time></trkpt><trkpt lat="39.4350383" lon="8.4418367"><ele>101.0</ele><time>2026-05-02T08:57:48.375Z</time></trkpt><trkpt lat="39.43495" lon="8.4418583"><ele>101.0</ele><time>2026-05-02T08:57:49.376Z</time></trkpt><trkpt lat="39.4348583" lon="8.4419767"><ele>101.0</ele><time>2026-05-02T08:57:50.402Z</time></trkpt><trkpt lat="39.4347983" lon="8.4420717"><ele>104.19999999999999</ele><time>2026-05-02T08:57:51.375Z</time></trkpt><trkpt lat="39.4347533" lon="8.44218"><ele>107.39999999999999</ele><time>2026-05-02T08:57:52.378Z</time></trkpt><trkpt lat="39.4347183" lon="8.4423133"><ele>110.6</ele><time>2026-05-02T08:57:53.377Z</time></trkpt><trkpt lat="39.4346933" lon="8.4424667"><ele>113.8</ele><time>2026-05-02T08:57:54.374Z</time></trkpt><trkpt lat="39.4346733" lon="8.4426183"><ele>117.0</ele><time>2026-05-02T08:57:55.378Z</time></trkpt><trkpt lat="39.4346583" lon="8.4427717"><ele>117.0</ele><time>2026-05-02T08:57:56.378Z</time></trkpt><trkpt lat="39.4346383" lon="8.4429167"><ele>116.99999999999999</ele><time>2026-05-02T08:57:57.377Z</time></trkpt><trkpt lat="39.4346133" lon="8.4430583"><ele>116.99999999999999</ele><time>2026-05-02T08:57:58.379Z</time></trkpt><trkpt lat="39.4345817" lon="8.4431933"><ele>117.0</ele><time>2026-05-02T08:57:59.377Z</time></trkpt><trkpt lat="39.4345417" lon="8.4433167"><ele>117.0</ele><time>2026-05-02T08:58:00.376Z</time></trkpt><trkpt lat="39.434505" lon="8.4434433"><ele>116.16666666666667</ele><time>2026-05-02T08:58:01.378Z</time></trkpt><trkpt lat="39.434455" lon="8.4435517"><ele>115.33333333333334</ele><time>2026-05-02T08:58:02.378Z</time></trkpt><trkpt lat="39.4343933" lon="8.44364"><ele>114.5</ele><time>2026-05-02T08:58:03.378Z</time></trkpt><trkpt lat="39.4343333" lon="8.4437067"><ele>113.66666666666667</ele><time>2026-05-02T08:58:04.378Z</time></trkpt><trkpt lat="39.4342683" lon="8.4437633"><ele>112.83333333333334</ele><time>2026-05-02T08:58:05.378Z</time></trkpt><trkpt lat="39.4342083" lon="8.44379"><ele>112.0</ele><time>2026-05-02T08:58:06.379Z</time></trkpt><trkpt lat="39.434075" lon="8.443755"><ele>112.0</ele><time>2026-05-02T08:58:08.401Z</time></trkpt><trkpt lat="39.4339933" lon="8.4436883"><ele>111.99999999999999</ele><time>2026-05-02T08:58:09.38Z</time></trkpt><trkpt lat="39.4339217" lon="8.4435833"><ele>111.99999999999999</ele><time>2026-05-02T08:58:10.377Z</time></trkpt><trkpt lat="39.4338667" lon="8.44347"><ele>112.0</ele><time>2026-05-02T08:58:11.379Z</time></trkpt><trkpt lat="39.4338183" lon="8.443315"><ele>112.0</ele><time>2026-05-02T08:58:12.378Z</time></trkpt><trkpt lat="39.4337617" lon="8.4431883"><ele>112.50000000000001</ele><time>2026-05-02T08:58:13.377Z</time></trkpt><trkpt lat="39.4336967" lon="8.44309"><ele>113.0</ele><time>2026-05-02T08:58:14.401Z</time></trkpt><trkpt lat="39.433625" lon="8.44301"><ele>113.5</ele><time>2026-05-02T08:58:15.38Z</time></trkpt><trkpt lat="39.4335533" lon="8.4429383"><ele>114.0</ele><time>2026-05-02T08:58:16.374Z</time></trkpt><trkpt lat="39.4334767" lon="8.442895"><ele>114.50000000000001</ele><time>2026-05-02T08:58:17.377Z</time></trkpt><trkpt lat="39.433405" lon="8.4429183"><ele>115.0</ele><time>2026-05-02T08:58:18.376Z</time></trkpt><trkpt lat="39.43334" lon="8.4429517"><ele>115.0</ele><time>2026-05-02T08:58:19.377Z</time></trkpt><trkpt lat="39.4332667" lon="8.4430217"><ele>115.0</ele><time>2026-05-02T08:58:20.401Z</time></trkpt><trkpt lat="39.4331933" lon="8.4431033"><ele>115.0</ele><time>2026-05-02T08:58:21.378Z</time></trkpt><trkpt lat="39.4331217" lon="8.4431983"><ele>115.0</ele><time>2026-05-02T08:58:22.378Z</time></trkpt><trkpt lat="39.4330217" lon="8.4432783"><ele>115.0</ele><time>2026-05-02T08:58:23.378Z</time></trkpt><trkpt lat="39.4329083" lon="8.44336"><ele>113.0</ele><time>2026-05-02T08:58:24.375Z</time></trkpt><trkpt lat="39.43279" lon="8.4434317"><ele>111.0</ele><time>2026-05-02T08:58:25.378Z</time></trkpt><trkpt lat="39.4326833" lon="8.4434933"><ele>109.0</ele><time>2026-05-02T08:58:26.402Z</time></trkpt><trkpt lat="39.432575" lon="8.4435433"><ele>107.0</ele><time>2026-05-02T08:58:27.376Z</time></trkpt><trkpt lat="39.4324867" lon="8.4435867"><ele>107.0</ele><time>2026-05-02T08:58:28.376Z</time></trkpt><trkpt lat="39.4323933" lon="8.443645"><ele>106.99999999999999</ele><time>2026-05-02T08:58:29.377Z</time></trkpt><trkpt lat="39.4323167" lon="8.4437333"><ele>106.99999999999999</ele><time>2026-05-02T08:58:30.376Z</time></trkpt><trkpt lat="39.4322517" lon="8.44383"><ele>107.0</ele><time>2026-05-02T08:58:31.38Z</time></trkpt><trkpt lat="39.432205" lon="8.44398"><ele>107.0</ele><time>2026-05-02T08:58:32.418Z</time></trkpt><trkpt lat="39.4321333" lon="8.4440917"><ele>107.5</ele><time>2026-05-02T08:58:33.378Z</time></trkpt><trkpt lat="39.432055" lon="8.444205"><ele>108.0</ele><time>2026-05-02T08:58:34.377Z</time></trkpt><trkpt lat="39.4319733" lon="8.4443083"><ele>108.5</ele><time>2026-05-02T08:58:35.379Z</time></trkpt><trkpt lat="39.43188" lon="8.4443983"><ele>109.0</ele><time>2026-05-02T08:58:36.373Z</time></trkpt><trkpt lat="39.4317833" lon="8.44449"><ele>109.0</ele><time>2026-05-02T08:58:37.378Z</time></trkpt><trkpt lat="39.4317033" lon="8.444555"><ele>109.0</ele><time>2026-05-02T08:58:38.398Z</time></trkpt><trkpt lat="39.4316033" lon="8.4446183"><ele>109.0</ele><time>2026-05-02T08:58:39.378Z</time></trkpt><trkpt lat="39.4314817" lon="8.4446883"><ele>109.0</ele><time>2026-05-02T08:58:40.378Z</time></trkpt><trkpt lat="39.43138" lon="8.444765"><ele>109.2</ele><time>2026-05-02T08:58:41.375Z</time></trkpt><trkpt lat="39.4312817" lon="8.44483"><ele>109.4</ele><time>2026-05-02T08:58:42.372Z</time></trkpt><trkpt lat="39.4311983" lon="8.4449117"><ele>109.6</ele><time>2026-05-02T08:58:43.376Z</time></trkpt><trkpt lat="39.4311183" lon="8.444975"><ele>109.8</ele><time>2026-05-02T08:58:44.4Z</time></trkpt><trkpt lat="39.4310483" lon="8.4450317"><ele>110.0</ele><time>2026-05-02T08:58:45.373Z</time></trkpt><trkpt lat="39.4309867" lon="8.4450817"><ele>109.99999999999999</ele><time>2026-05-02T08:58:46.378Z</time></trkpt><trkpt lat="39.4309317" lon="8.4451333"><ele>110.0</ele><time>2026-05-02T08:58:47.374Z</time></trkpt><trkpt lat="39.43088" lon="8.4451867"><ele>110.0</ele><time>2026-05-02T08:58:48.378Z</time></trkpt><trkpt lat="39.430825" lon="8.4452333"><ele>110.0</ele><time>2026-05-02T08:58:49.378Z</time></trkpt><trkpt lat="39.4307683" lon="8.4452733"><ele>110.0</ele><time>2026-05-02T08:58:50.402Z</time></trkpt><trkpt lat="39.4307117" lon="8.44532"><ele>109.99999999999999</ele><time>2026-05-02T08:58:51.376Z</time></trkpt><trkpt lat="39.4306517" lon="8.44537"><ele>110.0</ele><time>2026-05-02T08:58:52.377Z</time></trkpt><trkpt lat="39.4305967" lon="8.445425"><ele>107.83333333333333</ele><time>2026-05-02T08:58:53.376Z</time></trkpt><trkpt lat="39.4305483" lon="8.4454783"><ele>105.66666666666666</ele><time>2026-05-02T08:58:54.377Z</time></trkpt><trkpt lat="39.430465" lon="8.4455983"><ele>103.5</ele><time>2026-05-02T08:58:56.397Z</time></trkpt><trkpt lat="39.4304333" lon="8.445675"><ele>101.33333333333334</ele><time>2026-05-02T08:58:57.378Z</time></trkpt><trkpt lat="39.430405" lon="8.4457617"><ele>99.16666666666667</ele><time>2026-05-02T08:58:58.378Z</time></trkpt><trkpt lat="39.4303817" lon="8.44585"><ele>97.0</ele><time>2026-05-02T08:58:59.378Z</time></trkpt><trkpt lat="39.4303583" lon="8.4459417"><ele>97.0</ele><time>2026-05-02T08:59:00.375Z</time></trkpt><trkpt lat="39.4303333" lon="8.44603"><ele>97.0</ele><time>2026-05-02T08:59:01.376Z</time></trkpt><trkpt lat="39.4303033" lon="8.4461183"><ele>97.0</ele><time>2026-05-02T08:59:02.401Z</time></trkpt><trkpt lat="39.43027" lon="8.4462017"><ele>97.0</ele><time>2026-05-02T08:59:03.376Z</time></trkpt><trkpt lat="39.4302333" lon="8.446285"><ele>97.0</ele><time>2026-05-02T08:59:04.376Z</time></trkpt><trkpt lat="39.4301967" lon="8.446375"><ele>97.0</ele><time>2026-05-02T08:59:05.38Z</time></trkpt><trkpt lat="39.430175" lon="8.4464667"><ele>97.0</ele><time>2026-05-02T08:59:06.377Z</time></trkpt><trkpt lat="39.4301533" lon="8.44656"><ele>98.71428571428571</ele><time>2026-05-02T08:59:07.378Z</time></trkpt><trkpt lat="39.4301267" lon="8.44665"><ele>100.42857142857143</ele><time>2026-05-02T08:59:08.399Z</time></trkpt><trkpt lat="39.4300917" lon="8.4467317"><ele>102.14285714285714</ele><time>2026-05-02T08:59:09.377Z</time></trkpt><trkpt lat="39.4300533" lon="8.4468133"><ele>103.85714285714286</ele><time>2026-05-02T08:59:10.377Z</time></trkpt><trkpt lat="39.43002" lon="8.4468933"><ele>105.57142857142858</ele><time>2026-05-02T08:59:11.377Z</time></trkpt><trkpt lat="39.4299917" lon="8.44698"><ele>107.28571428571429</ele><time>2026-05-02T08:59:12.374Z</time></trkpt><trkpt lat="39.4299667" lon="8.4470733"><ele>109.0</ele><time>2026-05-02T08:59:13.377Z</time></trkpt><trkpt lat="39.42994" lon="8.4471617"><ele>107.85714285714286</ele><time>2026-05-02T08:59:14.399Z</time></trkpt><trkpt lat="39.4299083" lon="8.447245"><ele>106.71428571428572</ele><time>2026-05-02T08:59:15.377Z</time></trkpt><trkpt lat="39.4298717" lon="8.4473217"><ele>105.57142857142857</ele><time>2026-05-02T08:59:16.377Z</time></trkpt><trkpt lat="39.4298333" lon="8.4473933"><ele>104.42857142857143</ele><time>2026-05-02T08:59:17.378Z</time></trkpt><trkpt lat="39.429785" lon="8.44745"><ele>103.28571428571428</ele><time>2026-05-02T08:59:18.377Z</time></trkpt><trkpt lat="39.4297333" lon="8.4474983"><ele>102.14285714285714</ele><time>2026-05-02T08:59:19.377Z</time></trkpt><trkpt lat="39.4296733" lon="8.4475233"><ele>101.0</ele><time>2026-05-02T08:59:20.4Z</time></trkpt><trkpt lat="39.4295483" lon="8.4475167"><ele>101.0</ele><time>2026-05-02T08:59:22.377Z</time></trkpt><trkpt lat="39.4294933" lon="8.4474767"><ele>101.0</ele><time>2026-05-02T08:59:23.374Z</time></trkpt><trkpt lat="39.42944" lon="8.4474283"><ele>101.0</ele><time>2026-05-02T08:59:24.379Z</time></trkpt><trkpt lat="39.4293967" lon="8.4473617"><ele>101.0</ele><time>2026-05-02T08:59:25.376Z</time></trkpt><trkpt lat="39.4293617" lon="8.4472917"><ele>101.0</ele><time>2026-05-02T08:59:26.374Z</time></trkpt><trkpt lat="39.42932" lon="8.447225"><ele>101.0</ele><time>2026-05-02T08:59:27.374Z</time></trkpt><trkpt lat="39.42927" lon="8.44717"><ele>101.0</ele><time>2026-05-02T08:59:28.372Z</time></trkpt><trkpt lat="39.42916" lon="8.447135"><ele>100.99999999999999</ele><time>2026-05-02T08:59:30.377Z</time></trkpt><trkpt lat="39.4291" lon="8.447165"><ele>101.0</ele><time>2026-05-02T08:59:31.376Z</time></trkpt><trkpt lat="39.4290367" lon="8.4472233"><ele>101.0</ele><time>2026-05-02T08:59:32.398Z</time></trkpt><trkpt lat="39.4289717" lon="8.4472967"><ele>101.0</ele><time>2026-05-02T08:59:33.372Z</time></trkpt><trkpt lat="39.4289117" lon="8.4473917"><ele>100.99999999999999</ele><time>2026-05-02T08:59:34.376Z</time></trkpt><trkpt lat="39.4288583" lon="8.4474867"><ele>101.0</ele><time>2026-05-02T08:59:35.379Z</time></trkpt><trkpt lat="39.428805" lon="8.447575"><ele>97.33333333333333</ele><time>2026-05-02T08:59:36.374Z</time></trkpt><trkpt lat="39.42875" lon="8.4476567"><ele>93.66666666666666</ele><time>2026-05-02T08:59:37.376Z</time></trkpt><trkpt lat="39.4287033" lon="8.4477333"><ele>90.0</ele><time>2026-05-02T08:59:38.401Z</time></trkpt><trkpt lat="39.4286567" lon="8.44781"><ele>86.33333333333333</ele><time>2026-05-02T08:59:39.375Z</time></trkpt><trkpt lat="39.428615" lon="8.4478933"><ele>82.66666666666666</ele><time>2026-05-02T08:59:40.378Z</time></trkpt><trkpt lat="39.4285883" lon="8.4479767"><ele>79.0</ele><time>2026-05-02T08:59:41.374Z</time></trkpt><trkpt lat="39.428575" lon="8.4480717"><ele>79.0</ele><time>2026-05-02T08:59:42.378Z</time></trkpt><trkpt lat="39.4285683" lon="8.448165"><ele>79.0</ele><time>2026-05-02T08:59:43.378Z</time></trkpt><trkpt lat="39.4285867" lon="8.4482617"><ele>79.0</ele><time>2026-05-02T08:59:44.397Z</time></trkpt><trkpt lat="39.4286267" lon="8.4483517"><ele>79.0</ele><time>2026-05-02T08:59:45.377Z</time></trkpt><trkpt lat="39.4286517" lon="8.448445"><ele>79.0</ele><time>2026-05-02T08:59:46.375Z</time></trkpt><trkpt lat="39.4286683" lon="8.448545"><ele>79.0</ele><time>2026-05-02T08:59:47.376Z</time></trkpt><trkpt lat="39.42868" lon="8.4486467"><ele>79.0</ele><time>2026-05-02T08:59:48.373Z</time></trkpt><trkpt lat="39.42869" lon="8.448755"><ele>79.0</ele><time>2026-05-02T08:59:49.376Z</time></trkpt><trkpt lat="39.4287017" lon="8.4488567"><ele>79.0</ele><time>2026-05-02T08:59:50.398Z</time></trkpt><trkpt lat="39.42872" lon="8.448955"><ele>79.0</ele><time>2026-05-02T08:59:51.373Z</time></trkpt><trkpt lat="39.42874" lon="8.4490533"><ele>79.0</ele><time>2026-05-02T08:59:52.377Z</time></trkpt><trkpt lat="39.42876" lon="8.4491483"><ele>79.0</ele><time>2026-05-02T08:59:53.374Z</time></trkpt><trkpt lat="39.4287667" lon="8.4492433"><ele>79.0</ele><time>2026-05-02T08:59:54.378Z</time></trkpt><trkpt lat="39.4287567" lon="8.4493417"><ele>79.0</ele><time>2026-05-02T08:59:55.374Z</time></trkpt><trkpt lat="39.4287267" lon="8.4494383"><ele>79.0</ele><time>2026-05-02T08:59:56.442Z</time></trkpt><trkpt lat="39.4286817" lon="8.449525"><ele>79.0</ele><time>2026-05-02T08:59:57.377Z</time></trkpt><trkpt lat="39.4286317" lon="8.4496067"><ele>79.0</ele><time>2026-05-02T08:59:58.373Z</time></trkpt><trkpt lat="39.42858" lon="8.449685"><ele>79.0</ele><time>2026-05-02T08:59:59.373Z</time></trkpt><trkpt lat="39.4285267" lon="8.44975"><ele>79.66666666666666</ele><time>2026-05-02T09:00:00.378Z</time></trkpt><trkpt lat="39.4284717" lon="8.449795"><ele>80.33333333333333</ele><time>2026-05-02T09:00:01.377Z</time></trkpt><trkpt lat="39.4283533" lon="8.44983"><ele>81.0</ele><time>2026-05-02T09:00:03.378Z</time></trkpt><trkpt lat="39.4282883" lon="8.4498017"><ele>81.66666666666667</ele><time>2026-05-02T09:00:04.376Z</time></trkpt><trkpt lat="39.4282233" lon="8.4497617"><ele>82.33333333333334</ele><time>2026-05-02T09:00:05.377Z</time></trkpt><trkpt lat="39.4281583" lon="8.449705"><ele>83.0</ele><time>2026-05-02T09:00:06.375Z</time></trkpt><trkpt lat="39.4280967" lon="8.449635"><ele>82.33333333333334</ele><time>2026-05-02T09:00:07.378Z</time></trkpt><trkpt lat="39.42805" lon="8.4495667"><ele>81.66666666666667</ele><time>2026-05-02T09:00:08.402Z</time></trkpt><trkpt lat="39.4280167" lon="8.4494867"><ele>81.0</ele><time>2026-05-02T09:00:09.377Z</time></trkpt><trkpt lat="39.4279933" lon="8.44938"><ele>80.33333333333333</ele><time>2026-05-02T09:00:10.377Z</time></trkpt><trkpt lat="39.4279617" lon="8.4492817"><ele>79.66666666666666</ele><time>2026-05-02T09:00:11.374Z</time></trkpt><trkpt lat="39.4279217" lon="8.4491817"><ele>79.0</ele><time>2026-05-02T09:00:12.374Z</time></trkpt><trkpt lat="39.4278767" lon="8.4491017"><ele>80.0</ele><time>2026-05-02T09:00:13.377Z</time></trkpt><trkpt lat="39.4278167" lon="8.449025"><ele>81.0</ele><time>2026-05-02T09:00:14.402Z</time></trkpt><trkpt lat="39.42775" lon="8.4489617"><ele>82.0</ele><time>2026-05-02T09:00:15.376Z</time></trkpt><trkpt lat="39.4276917" lon="8.4488967"><ele>83.0</ele><time>2026-05-02T09:00:16.373Z</time></trkpt><trkpt lat="39.4276417" lon="8.44883"><ele>84.0</ele><time>2026-05-02T09:00:17.379Z</time></trkpt><trkpt lat="39.4275967" lon="8.4487583"><ele>85.0</ele><time>2026-05-02T09:00:18.378Z</time></trkpt><trkpt lat="39.427555" lon="8.4486817"><ele>85.0</ele><time>2026-05-02T09:00:19.376Z</time></trkpt><trkpt lat="39.427515" lon="8.4486"><ele>85.0</ele><time>2026-05-02T09:00:20.399Z</time></trkpt><trkpt lat="39.4274667" lon="8.4485233"><ele>85.0</ele><time>2026-05-02T09:00:21.38Z</time></trkpt><trkpt lat="39.427405" lon="8.448445"><ele>85.0</ele><time>2026-05-02T09:00:22.377Z</time></trkpt><trkpt lat="39.4273383" lon="8.4483683"><ele>85.0</ele><time>2026-05-02T09:00:23.378Z</time></trkpt><trkpt lat="39.4272617" lon="8.4482933"><ele>85.0</ele><time>2026-05-02T09:00:24.379Z</time></trkpt><trkpt lat="39.4271833" lon="8.4481933"><ele>87.33333333333333</ele><time>2026-05-02T09:00:25.374Z</time></trkpt><trkpt lat="39.427105" lon="8.4480983"><ele>89.66666666666666</ele><time>2026-05-02T09:00:26.439Z</time></trkpt><trkpt lat="39.4270133" lon="8.4480317"><ele>92.0</ele><time>2026-05-02T09:00:27.377Z</time></trkpt><trkpt lat="39.4269383" lon="8.4480083"><ele>94.33333333333333</ele><time>2026-05-02T09:00:28.377Z</time></trkpt><trkpt lat="39.4268583" lon="8.4479867"><ele>96.66666666666667</ele><time>2026-05-02T09:00:29.374Z</time></trkpt><trkpt lat="39.4267883" lon="8.4479583"><ele>99.0</ele><time>2026-05-02T09:00:30.379Z</time></trkpt><trkpt lat="39.426725" lon="8.44791"><ele>99.0</ele><time>2026-05-02T09:00:31.374Z</time></trkpt><trkpt lat="39.4266733" lon="8.4478433"><ele>99.0</ele><time>2026-05-02T09:00:32.376Z</time></trkpt><trkpt lat="39.4266283" lon="8.4477733"><ele>99.0</ele><time>2026-05-02T09:00:33.378Z</time></trkpt><trkpt lat="39.4265983" lon="8.4476983"><ele>99.0</ele><time>2026-05-02T09:00:34.375Z</time></trkpt><trkpt lat="39.4265883" lon="8.4476133"><ele>99.0</ele><time>2026-05-02T09:00:35.374Z</time></trkpt><trkpt lat="39.4265933" lon="8.44751"><ele>99.0</ele><time>2026-05-02T09:00:36.375Z</time></trkpt><trkpt lat="39.4265983" lon="8.4474033"><ele>99.0</ele><time>2026-05-02T09:00:37.379Z</time></trkpt><trkpt lat="39.4265917" lon="8.4472883"><ele>99.0</ele><time>2026-05-02T09:00:38.4Z</time></trkpt><trkpt lat="39.4265867" lon="8.4471617"><ele>99.0</ele><time>2026-05-02T09:00:39.373Z</time></trkpt><trkpt lat="39.42659" lon="8.4470267"><ele>99.0</ele><time>2026-05-02T09:00:40.375Z</time></trkpt><trkpt lat="39.42659" lon="8.4468883"><ele>99.0</ele><time>2026-05-02T09:00:41.375Z</time></trkpt><trkpt lat="39.42658" lon="8.4467567"><ele>99.0</ele><time>2026-05-02T09:00:42.377Z</time></trkpt><trkpt lat="39.426565" lon="8.44663"><ele>99.4</ele><time>2026-05-02T09:00:43.375Z</time></trkpt><trkpt lat="39.4265383" lon="8.44651"><ele>99.80000000000001</ele><time>2026-05-02T09:00:44.398Z</time></trkpt><trkpt lat="39.4265183" lon="8.446385"><ele>100.19999999999999</ele><time>2026-05-02T09:00:45.376Z</time></trkpt><trkpt lat="39.4265067" lon="8.4462733"><ele>100.6</ele><time>2026-05-02T09:00:46.378Z</time></trkpt><trkpt lat="39.4265117" lon="8.446165"><ele>101.0</ele><time>2026-05-02T09:00:47.377Z</time></trkpt><trkpt lat="39.42653" lon="8.446055"><ele>101.33333333333333</ele><time>2026-05-02T09:00:48.375Z</time></trkpt><trkpt lat="39.426565" lon="8.44594"><ele>101.66666666666666</ele><time>2026-05-02T09:00:49.371Z</time></trkpt><trkpt lat="39.4265633" lon="8.445835"><ele>102.0</ele><time>2026-05-02T09:00:50.399Z</time></trkpt><trkpt lat="39.4265517" lon="8.4457333"><ele>102.33333333333334</ele><time>2026-05-02T09:00:51.373Z</time></trkpt><trkpt lat="39.4265333" lon="8.4456217"><ele>102.66666666666667</ele><time>2026-05-02T09:00:52.375Z</time></trkpt><trkpt lat="39.4264967" lon="8.4454967"><ele>103.0</ele><time>2026-05-02T09:00:53.378Z</time></trkpt><trkpt lat="39.426465" lon="8.4453617"><ele>103.2</ele><time>2026-05-02T09:00:54.378Z</time></trkpt><trkpt lat="39.4264433" lon="8.4452217"><ele>103.4</ele><time>2026-05-02T09:00:55.376Z</time></trkpt><trkpt lat="39.4264167" lon="8.4450833"><ele>103.60000000000001</ele><time>2026-05-02T09:00:56.382Z</time></trkpt><trkpt lat="39.4263917" lon="8.4449533"><ele>103.80000000000001</ele><time>2026-05-02T09:00:57.376Z</time></trkpt><trkpt lat="39.426385" lon="8.4448267"><ele>104.0</ele><time>2026-05-02T09:00:58.377Z</time></trkpt><trkpt lat="39.426375" lon="8.44471"><ele>104.49999999999999</ele><time>2026-05-02T09:00:59.376Z</time></trkpt><trkpt lat="39.4263567" lon="8.4446"><ele>105.0</ele><time>2026-05-02T09:01:00.375Z</time></trkpt><trkpt lat="39.426335" lon="8.4444967"><ele>105.5</ele><time>2026-05-02T09:01:01.376Z</time></trkpt><trkpt lat="39.4263117" lon="8.4444"><ele>106.0</ele><time>2026-05-02T09:01:02.397Z</time></trkpt><trkpt lat="39.4262917" lon="8.4442983"><ele>106.49999999999999</ele><time>2026-05-02T09:01:03.374Z</time></trkpt><trkpt lat="39.4262667" lon="8.4442083"><ele>107.0</ele><time>2026-05-02T09:01:04.376Z</time></trkpt><trkpt lat="39.4262233" lon="8.4441483"><ele>107.75</ele><time>2026-05-02T09:01:05.375Z</time></trkpt><trkpt lat="39.42607" lon="8.4441467"><ele>108.5</ele><time>2026-05-02T09:01:07.373Z</time></trkpt><trkpt lat="39.4259583" lon="8.4441917"><ele>109.25</ele><time>2026-05-02T09:01:08.4Z</time></trkpt><trkpt lat="39.4258583" lon="8.4442217"><ele>110.0</ele><time>2026-05-02T09:01:09.378Z</time></trkpt><trkpt lat="39.42577" lon="8.4442367"><ele>109.99999999999999</ele><time>2026-05-02T09:01:10.373Z</time></trkpt><trkpt lat="39.4257017" lon="8.4442217"><ele>110.0</ele><time>2026-05-02T09:01:11.377Z</time></trkpt><trkpt lat="39.4256383" lon="8.4441833"><ele>110.0</ele><time>2026-05-02T09:01:12.376Z</time></trkpt><trkpt lat="39.4255767" lon="8.4441433"><ele>110.0</ele><time>2026-05-02T09:01:13.378Z</time></trkpt><trkpt lat="39.4255167" lon="8.4440233"><ele>109.99999999999999</ele><time>2026-05-02T09:01:15.372Z</time></trkpt><trkpt lat="39.4254983" lon="8.44391"><ele>110.0</ele><time>2026-05-02T09:01:17.378Z</time></trkpt><trkpt lat="39.4255583" lon="8.4437683"><ele>112.8</ele><time>2026-05-02T09:01:19.378Z</time></trkpt><trkpt lat="39.42565" lon="8.443655"><ele>115.6</ele><time>2026-05-02T09:01:21.375Z</time></trkpt><trkpt lat="39.425765" lon="8.4436167"><ele>118.4</ele><time>2026-05-02T09:01:23.377Z</time></trkpt><trkpt lat="39.42585" lon="8.4436383"><ele>121.2</ele><time>2026-05-02T09:01:24.376Z</time></trkpt><trkpt lat="39.42594" lon="8.44367"><ele>124.0</ele><time>2026-05-02T09:01:25.374Z</time></trkpt><trkpt lat="39.4260317" lon="8.4436783"><ele>124.0</ele><time>2026-05-02T09:01:26.439Z</time></trkpt><trkpt lat="39.4261617" lon="8.443675"><ele>124.0</ele><time>2026-05-02T09:01:27.377Z</time></trkpt><trkpt lat="39.4262533" lon="8.4436633"><ele>124.0</ele><time>2026-05-02T09:01:28.377Z</time></trkpt><trkpt lat="39.4263367" lon="8.4436383"><ele>124.0</ele><time>2026-05-02T09:01:29.374Z</time></trkpt><trkpt lat="39.4264183" lon="8.4435967"><ele>124.0</ele><time>2026-05-02T09:01:30.378Z</time></trkpt><trkpt lat="39.4265017" lon="8.4435483"><ele>123.00000000000001</ele><time>2026-05-02T09:01:31.379Z</time></trkpt><trkpt lat="39.4265833" lon="8.4435183"><ele>122.0</ele><time>2026-05-02T09:01:32.394Z</time></trkpt><trkpt lat="39.4266567" lon="8.4434683"><ele>121.0</ele><time>2026-05-02T09:01:33.373Z</time></trkpt><trkpt lat="39.426725" lon="8.443405"><ele>120.0</ele><time>2026-05-02T09:01:34.375Z</time></trkpt><trkpt lat="39.426785" lon="8.4433283"><ele>119.00000000000001</ele><time>2026-05-02T09:01:35.374Z</time></trkpt><trkpt lat="39.4268317" lon="8.4432333"><ele>118.0</ele><time>2026-05-02T09:01:36.378Z</time></trkpt><trkpt lat="39.4268633" lon="8.4431383"><ele>118.00000000000001</ele><time>2026-05-02T09:01:37.377Z</time></trkpt><trkpt lat="39.4268767" lon="8.44304"><ele>118.0</ele><time>2026-05-02T09:01:38.4Z</time></trkpt><trkpt lat="39.4268717" lon="8.4429367"><ele>118.0</ele><time>2026-05-02T09:01:39.374Z</time></trkpt><trkpt lat="39.4268617" lon="8.4428333"><ele>118.0</ele><time>2026-05-02T09:01:40.378Z</time></trkpt><trkpt lat="39.4268467" lon="8.442735"><ele>118.00000000000001</ele><time>2026-05-02T09:01:41.378Z</time></trkpt><trkpt lat="39.4268233" lon="8.4426517"><ele>118.0</ele><time>2026-05-02T09:01:42.378Z</time></trkpt><trkpt lat="39.42675" lon="8.44255"><ele>119.33333333333334</ele><time>2026-05-02T09:01:44.401Z</time></trkpt><trkpt lat="39.426655" lon="8.44253"><ele>120.66666666666667</ele><time>2026-05-02T09:01:46.373Z</time></trkpt><trkpt lat="39.4265933" lon="8.4425567"><ele>122.0</ele><time>2026-05-02T09:01:47.374Z</time></trkpt><trkpt lat="39.4265267" lon="8.44261"><ele>123.33333333333334</ele><time>2026-05-02T09:01:48.378Z</time></trkpt><trkpt lat="39.4264583" lon="8.4426767"><ele>124.66666666666667</ele><time>2026-05-02T09:01:49.374Z</time></trkpt><trkpt lat="39.426405" lon="8.4427667"><ele>126.0</ele><time>2026-05-02T09:01:50.398Z</time></trkpt><trkpt lat="39.4263617" lon="8.44287"><ele>126.0</ele><time>2026-05-02T09:01:51.375Z</time></trkpt><trkpt lat="39.4263167" lon="8.4429617"><ele>126.0</ele><time>2026-05-02T09:01:52.372Z</time></trkpt><trkpt lat="39.42627" lon="8.4430383"><ele>126.0</ele><time>2026-05-02T09:01:53.375Z</time></trkpt><trkpt lat="39.4262283" lon="8.4431"><ele>126.0</ele><time>2026-05-02T09:01:54.378Z</time></trkpt><trkpt lat="39.42616" lon="8.4431583"><ele>126.0</ele><time>2026-05-02T09:01:56.376Z</time></trkpt><trkpt lat="39.4261267" lon="8.443045"><ele>126.0</ele><time>2026-05-02T09:01:59.373Z</time></trkpt><trkpt lat="39.4261367" lon="8.442955"><ele>128.66666666666666</ele><time>2026-05-02T09:02:00.379Z</time></trkpt><trkpt lat="39.4261517" lon="8.4428667"><ele>131.33333333333334</ele><time>2026-05-02T09:02:01.378Z</time></trkpt><trkpt lat="39.4261633" lon="8.4427717"><ele>134.0</ele><time>2026-05-02T09:02:02.378Z</time></trkpt><trkpt lat="39.4261783" lon="8.442675"><ele>136.66666666666669</ele><time>2026-05-02T09:02:03.374Z</time></trkpt><trkpt lat="39.42618" lon="8.4425817"><ele>139.33333333333334</ele><time>2026-05-02T09:02:04.375Z</time></trkpt><trkpt lat="39.4261533" lon="8.442445"><ele>142.0</ele><time>2026-05-02T09:02:06.379Z</time></trkpt><trkpt lat="39.4260983" lon="8.4423967"><ele>142.0</ele><time>2026-05-02T09:02:08.401Z</time></trkpt><trkpt lat="39.4260183" lon="8.4424617"><ele>142.0</ele><time>2026-05-02T09:02:10.378Z</time></trkpt><trkpt lat="39.42599" lon="8.442595"><ele>142.0</ele><time>2026-05-02T09:02:12.375Z</time></trkpt><trkpt lat="39.425965" lon="8.4427467"><ele>142.0</ele><time>2026-05-02T09:02:14.401Z</time></trkpt><trkpt lat="39.4259017" lon="8.4428517"><ele>142.0</ele><time>2026-05-02T09:02:16.375Z</time></trkpt><trkpt lat="39.4258283" lon="8.442865"><ele>142.0</ele><time>2026-05-02T09:02:18.377Z</time></trkpt><trkpt lat="39.425775" lon="8.4427817"><ele>142.0</ele><time>2026-05-02T09:02:20.398Z</time></trkpt><trkpt lat="39.4257483" lon="8.4426267"><ele>142.0</ele><time>2026-05-02T09:02:22.378Z</time></trkpt><trkpt lat="39.4257533" lon="8.4425183"><ele>142.0</ele><time>2026-05-02T09:02:23.376Z</time></trkpt><trkpt lat="39.4257583" lon="8.442405"><ele>142.0</ele><time>2026-05-02T09:02:24.376Z</time></trkpt><trkpt lat="39.4257633" lon="8.442295"><ele>142.0</ele><time>2026-05-02T09:02:25.379Z</time></trkpt><trkpt lat="39.4257683" lon="8.4421933"><ele>142.0</ele><time>2026-05-02T09:02:26.443Z</time></trkpt><trkpt lat="39.4257783" lon="8.4420967"><ele>142.0</ele><time>2026-05-02T09:02:27.376Z</time></trkpt><trkpt lat="39.425785" lon="8.4420117"><ele>142.0</ele><time>2026-05-02T09:02:28.375Z</time></trkpt><trkpt lat="39.4257467" lon="8.4418767"><ele>142.0</ele><time>2026-05-02T09:02:30.372Z</time></trkpt><trkpt lat="39.4256767" lon="8.44182"><ele>142.0</ele><time>2026-05-02T09:02:32.377Z</time></trkpt><trkpt lat="39.4256" lon="8.441825"><ele>142.0</ele><time>2026-05-02T09:02:34.376Z</time></trkpt><trkpt lat="39.425585" lon="8.441965"><ele>142.0</ele><time>2026-05-02T09:02:36.374Z</time></trkpt><trkpt lat="39.4255883" lon="8.4420767"><ele>142.0</ele><time>2026-05-02T09:02:37.373Z</time></trkpt><trkpt lat="39.4255867" lon="8.4421783"><ele>142.0</ele><time>2026-05-02T09:02:38.398Z</time></trkpt><trkpt lat="39.4255717" lon="8.4422667"><ele>142.0</ele><time>2026-05-02T09:02:39.377Z</time></trkpt><trkpt lat="39.4255483" lon="8.4423467"><ele>142.0</ele><time>2026-05-02T09:02:40.375Z</time></trkpt><trkpt lat="39.4254917" lon="8.4424583"><ele>142.0</ele><time>2026-05-02T09:02:42.373Z</time></trkpt><trkpt lat="39.42545" lon="8.442355"><ele>142.0</ele><time>2026-05-02T09:02:48.376Z</time></trkpt><trkpt lat="39.4254867" lon="8.44224"><ele>142.0</ele><time>2026-05-02T09:02:50.404Z</time></trkpt><trkpt lat="39.425535" lon="8.4420867"><ele>142.0</ele><time>2026-05-02T09:02:52.377Z</time></trkpt><trkpt lat="39.4255517" lon="8.4419933"><ele>142.0</ele><time>2026-05-02T09:02:53.379Z</time></trkpt><trkpt lat="39.425565" lon="8.44189"><ele>143.83333333333334</ele><time>2026-05-02T09:02:54.379Z</time></trkpt><trkpt lat="39.4255817" lon="8.441785"><ele>145.66666666666669</ele><time>2026-05-02T09:02:55.376Z</time></trkpt><trkpt lat="39.4255933" lon="8.4416717"><ele>147.5</ele><time>2026-05-02T09:02:56.445Z</time></trkpt><trkpt lat="39.4255983" lon="8.44157"><ele>149.33333333333334</ele><time>2026-05-02T09:02:57.377Z</time></trkpt><trkpt lat="39.425595" lon="8.4414717"><ele>151.16666666666666</ele><time>2026-05-02T09:02:58.378Z</time></trkpt><trkpt lat="39.4255833" lon="8.4413767"><ele>153.0</ele><time>2026-05-02T09:02:59.38Z</time></trkpt><trkpt lat="39.425555" lon="8.4412883"><ele>156.16666666666666</ele><time>2026-05-02T09:03:00.384Z</time></trkpt><trkpt lat="39.4255133" lon="8.4412067"><ele>159.33333333333334</ele><time>2026-05-02T09:03:01.376Z</time></trkpt><trkpt lat="39.4254567" lon="8.4411383"><ele>162.5</ele><time>2026-05-02T09:03:02.403Z</time></trkpt><trkpt lat="39.4253817" lon="8.44108"><ele>165.66666666666669</ele><time>2026-05-02T09:03:03.377Z</time></trkpt><trkpt lat="39.42531" lon="8.4410233"><ele>168.83333333333334</ele><time>2026-05-02T09:03:04.378Z</time></trkpt><trkpt lat="39.4252383" lon="8.4409633"><ele>172.0</ele><time>2026-05-02T09:03:05.375Z</time></trkpt><trkpt lat="39.4251833" lon="8.4408983"><ele>172.16666666666669</ele><time>2026-05-02T09:03:06.377Z</time></trkpt><trkpt lat="39.4251367" lon="8.4408267"><ele>172.33333333333334</ele><time>2026-05-02T09:03:07.375Z</time></trkpt><trkpt lat="39.42509" lon="8.4407583"><ele>172.5</ele><time>2026-05-02T09:03:08.401Z</time></trkpt><trkpt lat="39.4250417" lon="8.440705"><ele>172.66666666666666</ele><time>2026-05-02T09:03:09.377Z</time></trkpt><trkpt lat="39.42493" lon="8.4406617"><ele>172.83333333333331</ele><time>2026-05-02T09:03:11.377Z</time></trkpt><trkpt lat="39.4248467" lon="8.440705"><ele>173.0</ele><time>2026-05-02T09:03:13.377Z</time></trkpt><trkpt lat="39.4248367" lon="8.4407933"><ele>173.0</ele><time>2026-05-02T09:03:14.399Z</time></trkpt><trkpt lat="39.4248783" lon="8.44091"><ele>173.0</ele><time>2026-05-02T09:03:15.378Z</time></trkpt><trkpt lat="39.424915" lon="8.4410017"><ele>173.0</ele><time>2026-05-02T09:03:16.377Z</time></trkpt><trkpt lat="39.4249533" lon="8.4410883"><ele>173.0</ele><time>2026-05-02T09:03:17.374Z</time></trkpt><trkpt lat="39.4249867" lon="8.441175"><ele>173.0</ele><time>2026-05-02T09:03:18.377Z</time></trkpt><trkpt lat="39.4250067" lon="8.441255"><ele>173.0</ele><time>2026-05-02T09:03:19.377Z</time></trkpt><trkpt lat="39.4250017" lon="8.4413933"><ele>173.0</ele><time>2026-05-02T09:03:21.375Z</time></trkpt><trkpt lat="39.424915" lon="8.4413867"><ele>173.0</ele><time>2026-05-02T09:03:24.377Z</time></trkpt><trkpt lat="39.4248433" lon="8.44126"><ele>173.0</ele><time>2026-05-02T09:03:26.391Z</time></trkpt><trkpt lat="39.4248033" lon="8.44118"><ele>173.0</ele><time>2026-05-02T09:03:27.378Z</time></trkpt><trkpt lat="39.4247567" lon="8.4410867"><ele>173.0</ele><time>2026-05-02T09:03:28.378Z</time></trkpt><trkpt lat="39.4247133" lon="8.4409983"><ele>173.0</ele><time>2026-05-02T09:03:29.374Z</time></trkpt><trkpt lat="39.4246717" lon="8.4409083"><ele>175.28571428571428</ele><time>2026-05-02T09:03:30.376Z</time></trkpt><trkpt lat="39.424635" lon="8.440815"><ele>177.57142857142858</ele><time>2026-05-02T09:03:31.375Z</time></trkpt><trkpt lat="39.4246133" lon="8.4407167"><ele>179.85714285714286</ele><time>2026-05-02T09:03:32.392Z</time></trkpt><trkpt lat="39.4246017" lon="8.4406283"><ele>182.14285714285714</ele><time>2026-05-02T09:03:33.374Z</time></trkpt><trkpt lat="39.4245983" lon="8.440545"><ele>184.42857142857144</ele><time>2026-05-02T09:03:34.377Z</time></trkpt><trkpt lat="39.4246017" lon="8.4404583"><ele>186.71428571428572</ele><time>2026-05-02T09:03:35.375Z</time></trkpt><trkpt lat="39.424615" lon="8.4403733"><ele>189.0</ele><time>2026-05-02T09:03:36.378Z</time></trkpt><trkpt lat="39.42464" lon="8.44029"><ele>189.0</ele><time>2026-05-02T09:03:37.377Z</time></trkpt><trkpt lat="39.42468" lon="8.4402033"><ele>189.0</ele><time>2026-05-02T09:03:38.401Z</time></trkpt><trkpt lat="39.4247267" lon="8.4401267"><ele>189.0</ele><time>2026-05-02T09:03:39.375Z</time></trkpt><trkpt lat="39.4247717" lon="8.440065"><ele>189.0</ele><time>2026-05-02T09:03:40.377Z</time></trkpt><trkpt lat="39.4248233" lon="8.44001"><ele>189.0</ele><time>2026-05-02T09:03:41.375Z</time></trkpt><trkpt lat="39.4248867" lon="8.4399733"><ele>189.0</ele><time>2026-05-02T09:03:42.376Z</time></trkpt><trkpt lat="39.4249533" lon="8.4399383"><ele>189.0</ele><time>2026-05-02T09:03:43.378Z</time></trkpt><trkpt lat="39.425025" lon="8.4399133"><ele>189.0</ele><time>2026-05-02T09:03:44.398Z</time></trkpt><trkpt lat="39.425095" lon="8.4398767"><ele>189.0</ele><time>2026-05-02T09:03:45.374Z</time></trkpt><trkpt lat="39.4251617" lon="8.43985"><ele>189.0</ele><time>2026-05-02T09:03:46.377Z</time></trkpt><trkpt lat="39.4252883" lon="8.4398317"><ele>189.0</ele><time>2026-05-02T09:03:48.376Z</time></trkpt><trkpt lat="39.4253633" lon="8.4398433"><ele>189.0</ele><time>2026-05-02T09:03:49.376Z</time></trkpt><trkpt lat="39.4254417" lon="8.4398617"><ele>189.0</ele><time>2026-05-02T09:03:50.404Z</time></trkpt><trkpt lat="39.4255217" lon="8.4398883"><ele>190.0</ele><time>2026-05-02T09:03:51.374Z</time></trkpt><trkpt lat="39.4256017" lon="8.4399283"><ele>191.0</ele><time>2026-05-02T09:03:52.377Z</time></trkpt><trkpt lat="39.4256867" lon="8.43998"><ele>192.0</ele><time>2026-05-02T09:03:53.378Z</time></trkpt><trkpt lat="39.4257917" lon="8.4400417"><ele>193.0</ele><time>2026-05-02T09:03:54.378Z</time></trkpt><trkpt lat="39.4259267" lon="8.440135"><ele>194.0</ele><time>2026-05-02T09:03:55.377Z</time></trkpt><trkpt lat="39.4260267" lon="8.4401967"><ele>194.00000000000003</ele><time>2026-05-02T09:03:56.443Z</time></trkpt><trkpt lat="39.4261083" lon="8.4402533"><ele>194.0</ele><time>2026-05-02T09:03:57.377Z</time></trkpt><trkpt lat="39.42618" lon="8.4403"><ele>194.0</ele><time>2026-05-02T09:03:58.378Z</time></trkpt><trkpt lat="39.426245" lon="8.4403383"><ele>194.0</ele><time>2026-05-02T09:03:59.378Z</time></trkpt><trkpt lat="39.4263083" lon="8.4403533"><ele>194.00000000000003</ele><time>2026-05-02T09:04:00.376Z</time></trkpt><trkpt lat="39.426385" lon="8.4403333"><ele>194.0</ele><time>2026-05-02T09:04:02.417Z</time></trkpt><trkpt lat="39.4263683" lon="8.4402317"><ele>194.00000000000003</ele><time>2026-05-02T09:04:05.375Z</time></trkpt><trkpt lat="39.4262817" lon="8.4401317"><ele>194.0</ele><time>2026-05-02T09:04:07.375Z</time></trkpt><trkpt lat="39.42622" lon="8.4400817"><ele>194.0</ele><time>2026-05-02T09:04:08.402Z</time></trkpt><trkpt lat="39.4261583" lon="8.440035"><ele>194.0</ele><time>2026-05-02T09:04:09.379Z</time></trkpt><trkpt lat="39.4260817" lon="8.43998"><ele>194.00000000000003</ele><time>2026-05-02T09:04:10.377Z</time></trkpt><trkpt lat="39.4260167" lon="8.4399167"><ele>194.0</ele><time>2026-05-02T09:04:11.378Z</time></trkpt><trkpt lat="39.4259583" lon="8.4398417"><ele>194.00000000000003</ele><time>2026-05-02T09:04:12.374Z</time></trkpt><trkpt lat="39.4259017" lon="8.4397633"><ele>194.0</ele><time>2026-05-02T09:04:13.378Z</time></trkpt><trkpt lat="39.425865" lon="8.4396667"><ele>194.0</ele><time>2026-05-02T09:04:14.401Z</time></trkpt><trkpt lat="39.4258333" lon="8.43956"><ele>194.0</ele><time>2026-05-02T09:04:15.383Z</time></trkpt><trkpt lat="39.4258017" lon="8.43946"><ele>194.00000000000003</ele><time>2026-05-02T09:04:16.377Z</time></trkpt><trkpt lat="39.425765" lon="8.43937"><ele>194.0</ele><time>2026-05-02T09:04:17.379Z</time></trkpt><trkpt lat="39.4257233" lon="8.4392917"><ele>199.2</ele><time>2026-05-02T09:04:18.378Z</time></trkpt><trkpt lat="39.42568" lon="8.4392283"><ele>204.39999999999998</ele><time>2026-05-02T09:04:19.376Z</time></trkpt><trkpt lat="39.42553" lon="8.4392433"><ele>209.6</ele><time>2026-05-02T09:04:21.376Z</time></trkpt><trkpt lat="39.42545" lon="8.4392733"><ele>214.8</ele><time>2026-05-02T09:04:22.375Z</time></trkpt><trkpt lat="39.4253683" lon="8.4393167"><ele>220.0</ele><time>2026-05-02T09:04:23.378Z</time></trkpt><trkpt lat="39.4252833" lon="8.4393517"><ele>219.99999999999997</ele><time>2026-05-02T09:04:24.378Z</time></trkpt><trkpt lat="39.4252033" lon="8.4393767"><ele>220.0</ele><time>2026-05-02T09:04:25.374Z</time></trkpt><trkpt lat="39.4251217" lon="8.439385"><ele>220.0</ele><time>2026-05-02T09:04:26.372Z</time></trkpt><trkpt lat="39.42504" lon="8.439375"><ele>220.0</ele><time>2026-05-02T09:04:27.378Z</time></trkpt><trkpt lat="39.4249617" lon="8.439355"><ele>219.99999999999997</ele><time>2026-05-02T09:04:28.376Z</time></trkpt><trkpt lat="39.42489" lon="8.4393333"><ele>220.0</ele><time>2026-05-02T09:04:29.377Z</time></trkpt><trkpt lat="39.4247933" lon="8.4392867"><ele>219.99999999999997</ele><time>2026-05-02T09:04:31.374Z</time></trkpt><trkpt lat="39.42473" lon="8.4392617"><ele>220.0</ele><time>2026-05-02T09:04:33.372Z</time></trkpt><trkpt lat="39.42462" lon="8.4392833"><ele>220.0</ele><time>2026-05-02T09:09:38.406Z</time></trkpt><trkpt lat="39.4245617" lon="8.4392183"><ele>220.0</ele><time>2026-05-02T09:10:31.37Z</time></trkpt><trkpt lat="39.4245333" lon="8.439145"><ele>219.99999999999997</ele><time>2026-05-02T09:10:33.373Z</time></trkpt><trkpt lat="39.4245183" lon="8.43906"><ele>220.0</ele><time>2026-05-02T09:10:35.375Z</time></trkpt><trkpt lat="39.4244817" lon="8.4389683"><ele>220.49999999999997</ele><time>2026-05-02T09:10:38.407Z</time></trkpt><trkpt lat="39.4244683" lon="8.4388733"><ele>221.0</ele><time>2026-05-02T09:10:40.375Z</time></trkpt><trkpt lat="39.4244483" lon="8.43877"><ele>221.5</ele><time>2026-05-02T09:10:42.376Z</time></trkpt><trkpt lat="39.4244283" lon="8.4386567"><ele>222.0</ele><time>2026-05-02T09:10:44.404Z</time></trkpt><trkpt lat="39.42443" lon="8.4385483"><ele>222.49999999999997</ele><time>2026-05-02T09:10:46.376Z</time></trkpt><trkpt lat="39.4244117" lon="8.4384617"><ele>223.0</ele><time>2026-05-02T09:10:48.376Z</time></trkpt><trkpt lat="39.424395" lon="8.4383667"><ele>223.0</ele><time>2026-05-02T09:10:50.402Z</time></trkpt><trkpt lat="39.4243783" lon="8.438275"><ele>223.0</ele><time>2026-05-02T09:10:52.377Z</time></trkpt><trkpt lat="39.4243567" lon="8.4381917"><ele>223.0</ele><time>2026-05-02T09:10:54.375Z</time></trkpt><trkpt lat="39.4243417" lon="8.4381067"><ele>223.0</ele><time>2026-05-02T09:10:56.398Z</time></trkpt><trkpt lat="39.424335" lon="8.438015"><ele>223.0</ele><time>2026-05-02T09:10:58.373Z</time></trkpt><trkpt lat="39.42434" lon="8.43792"><ele>223.0</ele><time>2026-05-02T09:11:00.376Z</time></trkpt><trkpt lat="39.4243483" lon="8.437825"><ele>223.0</ele><time>2026-05-02T09:11:02.42Z</time></trkpt><trkpt lat="39.42435" lon="8.4377267"><ele>218.99999999999997</ele><time>2026-05-02T09:11:04.375Z</time></trkpt><trkpt lat="39.4243533" lon="8.437635"><ele>215.0</ele><time>2026-05-02T09:11:06.377Z</time></trkpt><trkpt lat="39.4243583" lon="8.4375367"><ele>211.0</ele><time>2026-05-02T09:11:08.404Z</time></trkpt><trkpt lat="39.4243767" lon="8.4374433"><ele>207.0</ele><time>2026-05-02T09:11:10.376Z</time></trkpt><trkpt lat="39.424405" lon="8.4373433"><ele>202.99999999999997</ele><time>2026-05-02T09:11:12.374Z</time></trkpt><trkpt lat="39.424435" lon="8.43726"><ele>199.0</ele><time>2026-05-02T09:11:14.405Z</time></trkpt><trkpt lat="39.4244783" lon="8.4371783"><ele>198.99999999999997</ele><time>2026-05-02T09:11:16.375Z</time></trkpt><trkpt lat="39.4245267" lon="8.4370917"><ele>199.0</ele><time>2026-05-02T09:11:18.377Z</time></trkpt><trkpt lat="39.4245867" lon="8.4370033"><ele>199.0</ele><time>2026-05-02T09:11:20.405Z</time></trkpt><trkpt lat="39.42466" lon="8.4369233"><ele>199.0</ele><time>2026-05-02T09:11:22.376Z</time></trkpt><trkpt lat="39.42473" lon="8.4368483"><ele>198.99999999999997</ele><time>2026-05-02T09:11:24.374Z</time></trkpt><trkpt lat="39.424775" lon="8.43676"><ele>199.0</ele><time>2026-05-02T09:11:26.399Z</time></trkpt><trkpt lat="39.4247333" lon="8.4366767"><ele>198.99999999999997</ele><time>2026-05-02T09:11:29.376Z</time></trkpt><trkpt lat="39.4246733" lon="8.4367017"><ele>199.0</ele><time>2026-05-02T09:11:31.378Z</time></trkpt><trkpt lat="39.4246133" lon="8.436795"><ele>199.0</ele><time>2026-05-02T09:11:34.375Z</time></trkpt><trkpt lat="39.4245733" lon="8.4368683"><ele>199.0</ele><time>2026-05-02T09:11:36.377Z</time></trkpt><trkpt lat="39.42453" lon="8.4369433"><ele>199.0</ele><time>2026-05-02T09:11:38.404Z</time></trkpt><trkpt lat="39.4244767" lon="8.4370167"><ele>198.99999999999997</ele><time>2026-05-02T09:11:40.376Z</time></trkpt><trkpt lat="39.4244217" lon="8.437075"><ele>199.0</ele><time>2026-05-02T09:11:42.377Z</time></trkpt><trkpt lat="39.4243633" lon="8.43713"><ele>198.99999999999997</ele><time>2026-05-02T09:11:44.407Z</time></trkpt><trkpt lat="39.4243067" lon="8.4372"><ele>199.0</ele><time>2026-05-02T09:11:46.375Z</time></trkpt><trkpt lat="39.4242533" lon="8.4372717"><ele>199.0</ele><time>2026-05-02T09:11:48.378Z</time></trkpt><trkpt lat="39.424215" lon="8.4373517"><ele>199.0</ele><time>2026-05-02T09:11:50.407Z</time></trkpt><trkpt lat="39.42418" lon="8.4374417"><ele>199.0</ele><time>2026-05-02T09:11:52.375Z</time></trkpt><trkpt lat="39.4241433" lon="8.4375233"><ele>198.99999999999997</ele><time>2026-05-02T09:11:54.376Z</time></trkpt><trkpt lat="39.4240917" lon="8.4375733"><ele>199.0</ele><time>2026-05-02T09:11:56.377Z</time></trkpt><trkpt lat="39.4240083" lon="8.4375267"><ele>198.99999999999997</ele><time>2026-05-02T09:11:59.373Z</time></trkpt><trkpt lat="39.4239967" lon="8.437415"><ele>199.0</ele><time>2026-05-02T09:12:02.401Z</time></trkpt><trkpt lat="39.4240383" lon="8.43734"><ele>199.0</ele><time>2026-05-02T09:12:04.377Z</time></trkpt><trkpt lat="39.424105" lon="8.43727"><ele>199.0</ele><time>2026-05-02T09:12:06.374Z</time></trkpt><trkpt lat="39.4241717" lon="8.4372017"><ele>198.99999999999997</ele><time>2026-05-02T09:12:08.405Z</time></trkpt><trkpt lat="39.4242333" lon="8.4371217"><ele>199.0</ele><time>2026-05-02T09:12:10.375Z</time></trkpt><trkpt lat="39.424285" lon="8.43704"><ele>195.2</ele><time>2026-05-02T09:12:12.377Z</time></trkpt><trkpt lat="39.4243433" lon="8.4369583"><ele>191.39999999999998</ele><time>2026-05-02T09:12:14.405Z</time></trkpt><trkpt lat="39.424395" lon="8.436845"><ele>187.6</ele><time>2026-05-02T09:12:16.373Z</time></trkpt><trkpt lat="39.4244367" lon="8.4367067"><ele>183.8</ele><time>2026-05-02T09:12:18.373Z</time></trkpt><trkpt lat="39.4244817" lon="8.4365667"><ele>180.0</ele><time>2026-05-02T09:12:20.407Z</time></trkpt><trkpt lat="39.4245683" lon="8.4364483"><ele>178.8</ele><time>2026-05-02T09:12:22.375Z</time></trkpt><trkpt lat="39.4246767" lon="8.4363583"><ele>177.6</ele><time>2026-05-02T09:12:24.376Z</time></trkpt><trkpt lat="39.4247367" lon="8.4363117"><ele>176.39999999999998</ele><time>2026-05-02T09:12:25.372Z</time></trkpt><trkpt lat="39.424785" lon="8.4362567"><ele>175.2</ele><time>2026-05-02T09:12:26.442Z</time></trkpt><trkpt lat="39.42486" lon="8.4361283"><ele>174.0</ele><time>2026-05-02T09:12:28.373Z</time></trkpt><trkpt lat="39.4249367" lon="8.4359817"><ele>174.0</ele><time>2026-05-02T09:12:30.376Z</time></trkpt><trkpt lat="39.42498" lon="8.4359017"><ele>174.0</ele><time>2026-05-02T09:12:31.372Z</time></trkpt><trkpt lat="39.4250333" lon="8.435825"><ele>174.0</ele><time>2026-05-02T09:12:32.397Z</time></trkpt><trkpt lat="39.4250917" lon="8.435755"><ele>174.0</ele><time>2026-05-02T09:12:33.372Z</time></trkpt><trkpt lat="39.425155" lon="8.435685"><ele>174.0</ele><time>2026-05-02T09:12:34.374Z</time></trkpt><trkpt lat="39.4252267" lon="8.4356283"><ele>174.0</ele><time>2026-05-02T09:12:35.378Z</time></trkpt><trkpt lat="39.4253017" lon="8.4355733"><ele>174.0</ele><time>2026-05-02T09:12:36.376Z</time></trkpt><trkpt lat="39.4253733" lon="8.4355233"><ele>174.0</ele><time>2026-05-02T09:12:37.374Z</time></trkpt><trkpt lat="39.4254367" lon="8.4354767"><ele>174.0</ele><time>2026-05-02T09:12:38.407Z</time></trkpt><trkpt lat="39.4254917" lon="8.4354317"><ele>174.0</ele><time>2026-05-02T09:12:39.374Z</time></trkpt><trkpt lat="39.425565" lon="8.435305"><ele>174.0</ele><time>2026-05-02T09:12:41.374Z</time></trkpt><trkpt lat="39.4255933" lon="8.435165"><ele>177.25</ele><time>2026-05-02T09:12:43.375Z</time></trkpt><trkpt lat="39.4255683" lon="8.4350333"><ele>180.5</ele><time>2026-05-02T09:12:45.374Z</time></trkpt><trkpt lat="39.4255067" lon="8.434895"><ele>183.75</ele><time>2026-05-02T09:12:47.375Z</time></trkpt><trkpt lat="39.4254633" lon="8.4347483"><ele>187.0</ele><time>2026-05-02T09:12:49.375Z</time></trkpt><trkpt lat="39.42546" lon="8.4346067"><ele>187.0</ele><time>2026-05-02T09:12:51.377Z</time></trkpt><trkpt lat="39.42554" lon="8.434475"><ele>187.0</ele><time>2026-05-02T09:12:53.376Z</time></trkpt><trkpt lat="39.4255633" lon="8.4343983"><ele>187.0</ele><time>2026-05-02T09:12:54.376Z</time></trkpt><trkpt lat="39.42557" lon="8.434245"><ele>187.0</ele><time>2026-05-02T09:12:56.445Z</time></trkpt><trkpt lat="39.4255167" lon="8.43409"><ele>187.0</ele><time>2026-05-02T09:12:58.374Z</time></trkpt><trkpt lat="39.4254683" lon="8.4340183"><ele>184.42857142857142</ele><time>2026-05-02T09:12:59.376Z</time></trkpt><trkpt lat="39.425415" lon="8.4339483"><ele>181.85714285714286</ele><time>2026-05-02T09:13:00.377Z</time></trkpt><trkpt lat="39.42535" lon="8.4338833"><ele>179.28571428571428</ele><time>2026-05-02T09:13:01.378Z</time></trkpt><trkpt lat="39.4252933" lon="8.43382"><ele>176.71428571428572</ele><time>2026-05-02T09:13:02.375Z</time></trkpt><trkpt lat="39.4252417" lon="8.4337567"><ele>174.14285714285714</ele><time>2026-05-02T09:13:03.375Z</time></trkpt><trkpt lat="39.4251867" lon="8.433695"><ele>171.57142857142858</ele><time>2026-05-02T09:13:04.376Z</time></trkpt><trkpt lat="39.42513" lon="8.4336433"><ele>169.0</ele><time>2026-05-02T09:13:05.373Z</time></trkpt><trkpt lat="39.4250633" lon="8.4336067"><ele>169.0</ele><time>2026-05-02T09:13:06.376Z</time></trkpt><trkpt lat="39.42499" lon="8.433595"><ele>169.0</ele><time>2026-05-02T09:13:07.379Z</time></trkpt><trkpt lat="39.42492" lon="8.433585"><ele>169.0</ele><time>2026-05-02T09:13:08.403Z</time></trkpt><trkpt lat="39.42485" lon="8.4335833"><ele>169.0</ele><time>2026-05-02T09:13:09.373Z</time></trkpt><trkpt lat="39.42478" lon="8.4335817"><ele>169.0</ele><time>2026-05-02T09:13:10.372Z</time></trkpt><trkpt lat="39.4247133" lon="8.4335783"><ele>169.0</ele><time>2026-05-02T09:13:11.378Z</time></trkpt><trkpt lat="39.4246483" lon="8.433565"><ele>169.0</ele><time>2026-05-02T09:13:12.376Z</time></trkpt><trkpt lat="39.424585" lon="8.4335383"><ele>165.71428571428572</ele><time>2026-05-02T09:13:13.377Z</time></trkpt><trkpt lat="39.4245233" lon="8.4335017"><ele>162.42857142857142</ele><time>2026-05-02T09:13:14.406Z</time></trkpt><trkpt lat="39.4244583" lon="8.4334583"><ele>159.14285714285714</ele><time>2026-05-02T09:13:15.375Z</time></trkpt><trkpt lat="39.4244033" lon="8.4334033"><ele>155.85714285714286</ele><time>2026-05-02T09:13:16.375Z</time></trkpt><trkpt lat="39.4243467" lon="8.4333417"><ele>152.57142857142858</ele><time>2026-05-02T09:13:17.382Z</time></trkpt><trkpt lat="39.4242983" lon="8.433285"><ele>149.28571428571428</ele><time>2026-05-02T09:13:18.377Z</time></trkpt><trkpt lat="39.4242483" lon="8.4332183"><ele>146.0</ele><time>2026-05-02T09:13:19.376Z</time></trkpt><trkpt lat="39.4242" lon="8.4331567"><ele>146.0</ele><time>2026-05-02T09:13:20.41Z</time></trkpt><trkpt lat="39.4241467" lon="8.43311"><ele>146.0</ele><time>2026-05-02T09:13:21.378Z</time></trkpt><trkpt lat="39.4240867" lon="8.4330783"><ele>146.0</ele><time>2026-05-02T09:13:22.376Z</time></trkpt><trkpt lat="39.4239883" lon="8.4330117"><ele>146.0</ele><time>2026-05-02T09:13:24.381Z</time></trkpt><trkpt lat="39.4239167" lon="8.4329217"><ele>146.0</ele><time>2026-05-02T09:13:26.384Z</time></trkpt><trkpt lat="39.4238983" lon="8.432825"><ele>146.0</ele><time>2026-05-02T09:13:28.375Z</time></trkpt><trkpt lat="39.4239733" lon="8.4327533"><ele>145.2</ele><time>2026-05-02T09:13:31.376Z</time></trkpt><trkpt lat="39.42407" lon="8.432775"><ele>144.39999999999998</ele><time>2026-05-02T09:13:33.381Z</time></trkpt><trkpt lat="39.42413" lon="8.4328017"><ele>143.6</ele><time>2026-05-02T09:13:34.377Z</time></trkpt><trkpt lat="39.4242333" lon="8.4328217"><ele>142.79999999999998</ele><time>2026-05-02T09:13:36.378Z</time></trkpt><trkpt lat="39.4243217" lon="8.4327933"><ele>142.0</ele><time>2026-05-02T09:13:38.425Z</time></trkpt><trkpt lat="39.4243767" lon="8.4326833"><ele>142.0</ele><time>2026-05-02T09:13:40.375Z</time></trkpt><trkpt lat="39.424375" lon="8.4325933"><ele>142.0</ele><time>2026-05-02T09:13:41.38Z</time></trkpt><trkpt lat="39.4243667" lon="8.4325"><ele>142.0</ele><time>2026-05-02T09:13:42.379Z</time></trkpt><trkpt lat="39.4243583" lon="8.4323933"><ele>142.0</ele><time>2026-05-02T09:13:43.377Z</time></trkpt><trkpt lat="39.424345" lon="8.4322867"><ele>142.0</ele><time>2026-05-02T09:13:44.405Z</time></trkpt><trkpt lat="39.4243283" lon="8.4321867"><ele>142.0</ele><time>2026-05-02T09:13:45.378Z</time></trkpt><trkpt lat="39.42431" lon="8.4320833"><ele>139.66666666666669</ele><time>2026-05-02T09:13:46.377Z</time></trkpt><trkpt lat="39.42429" lon="8.431985"><ele>137.33333333333334</ele><time>2026-05-02T09:13:47.373Z</time></trkpt><trkpt lat="39.424275" lon="8.4318933"><ele>135.0</ele><time>2026-05-02T09:13:48.376Z</time></trkpt><trkpt lat="39.4242683" lon="8.4318067"><ele>132.66666666666666</ele><time>2026-05-02T09:13:49.375Z</time></trkpt><trkpt lat="39.4242783" lon="8.4316683"><ele>130.33333333333331</ele><time>2026-05-02T09:13:51.379Z</time></trkpt><trkpt lat="39.4243183" lon="8.431585"><ele>128.0</ele><time>2026-05-02T09:13:53.375Z</time></trkpt><trkpt lat="39.424395" lon="8.43153"><ele>128.0</ele><time>2026-05-02T09:13:55.376Z</time></trkpt><trkpt lat="39.4244767" lon="8.4314733"><ele>128.0</ele><time>2026-05-02T09:13:57.374Z</time></trkpt><trkpt lat="39.424535" lon="8.431385"><ele>128.0</ele><time>2026-05-02T09:13:59.374Z</time></trkpt><trkpt lat="39.4245333" lon="8.4312667"><ele>128.0</ele><time>2026-05-02T09:14:01.378Z</time></trkpt><trkpt lat="39.424485" lon="8.4311383"><ele>128.0</ele><time>2026-05-02T09:14:03.373Z</time></trkpt><trkpt lat="39.4244467" lon="8.4310683"><ele>126.66666666666666</ele><time>2026-05-02T09:14:04.377Z</time></trkpt><trkpt lat="39.4244" lon="8.4310033"><ele>125.33333333333333</ele><time>2026-05-02T09:14:05.375Z</time></trkpt><trkpt lat="39.4243517" lon="8.4309283"><ele>124.0</ele><time>2026-05-02T09:14:06.376Z</time></trkpt><trkpt lat="39.4243017" lon="8.4308467"><ele>122.66666666666666</ele><time>2026-05-02T09:14:07.375Z</time></trkpt><trkpt lat="39.4242617" lon="8.430775"><ele>121.33333333333333</ele><time>2026-05-02T09:14:08.405Z</time></trkpt><trkpt lat="39.4242283" lon="8.4307033"><ele>120.0</ele><time>2026-05-02T09:14:09.376Z</time></trkpt><trkpt lat="39.4242" lon="8.4305633"><ele>118.2</ele><time>2026-05-02T09:14:11.379Z</time></trkpt><trkpt lat="39.42421" lon="8.43043"><ele>116.4</ele><time>2026-05-02T09:14:13.376Z</time></trkpt><trkpt lat="39.4242667" lon="8.4303133"><ele>114.6</ele><time>2026-05-02T09:14:15.38Z</time></trkpt><trkpt lat="39.42432" lon="8.430185"><ele>112.8</ele><time>2026-05-02T09:14:17.377Z</time></trkpt><trkpt lat="39.424325" lon="8.4300267"><ele>111.0</ele><time>2026-05-02T09:14:19.378Z</time></trkpt><trkpt lat="39.4243067" lon="8.4299483"><ele>111.0</ele><time>2026-05-02T09:14:20.407Z</time></trkpt><trkpt lat="39.4242633" lon="8.4298117"><ele>111.0</ele><time>2026-05-02T09:14:22.377Z</time></trkpt><trkpt lat="39.4242217" lon="8.429675"><ele>111.0</ele><time>2026-05-02T09:14:24.379Z</time></trkpt><trkpt lat="39.4242117" lon="8.4295267"><ele>111.0</ele><time>2026-05-02T09:14:26.374Z</time></trkpt><trkpt lat="39.4242033" lon="8.4293917"><ele>111.0</ele><time>2026-05-02T09:14:28.378Z</time></trkpt><trkpt lat="39.424155" lon="8.4293083"><ele>111.0</ele><time>2026-05-02T09:14:30.378Z</time></trkpt><trkpt lat="39.4240683" lon="8.429325"><ele>111.0</ele><time>2026-05-02T09:14:32.377Z</time></trkpt><trkpt lat="39.42404" lon="8.4294367"><ele>111.0</ele><time>2026-05-02T09:14:34.377Z</time></trkpt><trkpt lat="39.4240633" lon="8.4295467"><ele>111.0</ele><time>2026-05-02T09:14:35.378Z</time></trkpt><trkpt lat="39.4240917" lon="8.4296433"><ele>111.0</ele><time>2026-05-02T09:14:36.375Z</time></trkpt><trkpt lat="39.4241283" lon="8.429745"><ele>111.0</ele><time>2026-05-02T09:14:37.375Z</time></trkpt><trkpt lat="39.424155" lon="8.4298367"><ele>111.0</ele><time>2026-05-02T09:14:38.407Z</time></trkpt><trkpt lat="39.424175" lon="8.4299283"><ele>111.0</ele><time>2026-05-02T09:14:39.373Z</time></trkpt><trkpt lat="39.424185" lon="8.43002"><ele>111.0</ele><time>2026-05-02T09:14:40.374Z</time></trkpt><trkpt lat="39.42418" lon="8.4301033"><ele>111.0</ele><time>2026-05-02T09:14:41.376Z</time></trkpt><trkpt lat="39.42414" lon="8.430245"><ele>111.0</ele><time>2026-05-02T09:14:43.375Z</time></trkpt><trkpt lat="39.4240417" lon="8.430335"><ele>111.0</ele><time>2026-05-02T09:14:45.377Z</time></trkpt><trkpt lat="39.4239683" lon="8.43035"><ele>111.0</ele><time>2026-05-02T09:14:46.375Z</time></trkpt><trkpt lat="39.423905" lon="8.43038"><ele>111.0</ele><time>2026-05-02T09:14:47.382Z</time></trkpt><trkpt lat="39.42381" lon="8.4304567"><ele>111.0</ele><time>2026-05-02T09:14:49.376Z</time></trkpt><trkpt lat="39.42378" lon="8.4305967"><ele>111.0</ele><time>2026-05-02T09:14:51.378Z</time></trkpt><trkpt lat="39.4238067" lon="8.4306767"><ele>111.0</ele><time>2026-05-02T09:14:52.375Z</time></trkpt><trkpt lat="39.423845" lon="8.4307567"><ele>111.0</ele><time>2026-05-02T09:14:53.374Z</time></trkpt><trkpt lat="39.4238833" lon="8.43084"><ele>110.0</ele><time>2026-05-02T09:14:54.374Z</time></trkpt><trkpt lat="39.4239133" lon="8.4309217"><ele>109.0</ele><time>2026-05-02T09:14:55.376Z</time></trkpt><trkpt lat="39.4239267" lon="8.4310017"><ele>108.0</ele><time>2026-05-02T09:14:56.443Z</time></trkpt><trkpt lat="39.4239083" lon="8.4311433"><ele>107.0</ele><time>2026-05-02T09:14:58.376Z</time></trkpt><trkpt lat="39.4238467" lon="8.4312517"><ele>106.0</ele><time>2026-05-02T09:15:00.377Z</time></trkpt><trkpt lat="39.423755" lon="8.43131"><ele>106.00000000000001</ele><time>2026-05-02T09:15:02.373Z</time></trkpt><trkpt lat="39.4236967" lon="8.4314033"><ele>106.0</ele><time>2026-05-02T09:15:04.374Z</time></trkpt><trkpt lat="39.4236283" lon="8.4315067"><ele>106.0</ele><time>2026-05-02T09:15:06.377Z</time></trkpt><trkpt lat="39.423535" lon="8.43159"><ele>106.0</ele><time>2026-05-02T09:15:08.406Z</time></trkpt><trkpt lat="39.423475" lon="8.43162"><ele>106.00000000000001</ele><time>2026-05-02T09:15:09.375Z</time></trkpt><trkpt lat="39.42341" lon="8.43164"><ele>106.0</ele><time>2026-05-02T09:15:10.376Z</time></trkpt><trkpt lat="39.4233483" lon="8.431675"><ele>106.00000000000001</ele><time>2026-05-02T09:15:11.377Z</time></trkpt><trkpt lat="39.4232883" lon="8.431715"><ele>106.0</ele><time>2026-05-02T09:15:12.376Z</time></trkpt><trkpt lat="39.4232267" lon="8.4317617"><ele>106.0</ele><time>2026-05-02T09:15:13.374Z</time></trkpt><trkpt lat="39.4231483" lon="8.4317983"><ele>106.0</ele><time>2026-05-02T09:15:14.404Z</time></trkpt><trkpt lat="39.4230717" lon="8.4318183"><ele>106.00000000000001</ele><time>2026-05-02T09:15:15.377Z</time></trkpt><trkpt lat="39.4229817" lon="8.4318333"><ele>106.0</ele><time>2026-05-02T09:15:16.375Z</time></trkpt><trkpt lat="39.4229033" lon="8.4318383"><ele>105.33333333333334</ele><time>2026-05-02T09:15:17.377Z</time></trkpt><trkpt lat="39.422825" lon="8.431825"><ele>104.66666666666667</ele><time>2026-05-02T09:15:18.375Z</time></trkpt><trkpt lat="39.422755" lon="8.4318033"><ele>104.0</ele><time>2026-05-02T09:15:19.377Z</time></trkpt><trkpt lat="39.42268" lon="8.4317633"><ele>103.33333333333334</ele><time>2026-05-02T09:15:20.404Z</time></trkpt><trkpt lat="39.4226233" lon="8.4317067"><ele>102.66666666666667</ele><time>2026-05-02T09:15:21.374Z</time></trkpt><trkpt lat="39.4225567" lon="8.431645"><ele>102.0</ele><time>2026-05-02T09:15:22.377Z</time></trkpt><trkpt lat="39.4225033" lon="8.431595"><ele>102.0</ele><time>2026-05-02T09:15:23.373Z</time></trkpt><trkpt lat="39.4224467" lon="8.431555"><ele>102.0</ele><time>2026-05-02T09:15:24.377Z</time></trkpt><trkpt lat="39.4223817" lon="8.4315217"><ele>102.0</ele><time>2026-05-02T09:15:25.375Z</time></trkpt><trkpt lat="39.4223183" lon="8.431505"><ele>102.0</ele><time>2026-05-02T09:15:26.438Z</time></trkpt><trkpt lat="39.42225" lon="8.4314883"><ele>102.0</ele><time>2026-05-02T09:15:27.372Z</time></trkpt><trkpt lat="39.4221883" lon="8.4314583"><ele>102.0</ele><time>2026-05-02T09:15:28.373Z</time></trkpt><trkpt lat="39.422125" lon="8.4314117"><ele>102.0</ele><time>2026-05-02T09:15:29.373Z</time></trkpt><trkpt lat="39.4220633" lon="8.4313567"><ele>100.0</ele><time>2026-05-02T09:15:30.371Z</time></trkpt><trkpt lat="39.4220117" lon="8.431295"><ele>98.0</ele><time>2026-05-02T09:15:31.374Z</time></trkpt><trkpt lat="39.4219667" lon="8.431145"><ele>96.0</ele><time>2026-05-02T09:15:33.373Z</time></trkpt><trkpt lat="39.422" lon="8.43097"><ele>94.0</ele><time>2026-05-02T09:15:35.375Z</time></trkpt><trkpt lat="39.4220517" lon="8.4308633"><ele>92.0</ele><time>2026-05-02T09:15:36.372Z</time></trkpt><trkpt lat="39.4221533" lon="8.43073"><ele>92.0</ele><time>2026-05-02T09:15:37.373Z</time></trkpt><trkpt lat="39.42224" lon="8.4306317"><ele>92.0</ele><time>2026-05-02T09:15:38.406Z</time></trkpt><trkpt lat="39.4223333" lon="8.4305283"><ele>92.0</ele><time>2026-05-02T09:15:39.375Z</time></trkpt><trkpt lat="39.4224533" lon="8.430455"><ele>92.0</ele><time>2026-05-02T09:15:40.38Z</time></trkpt><trkpt lat="39.422545" lon="8.4304133"><ele>93.0</ele><time>2026-05-02T09:15:41.376Z</time></trkpt><trkpt lat="39.4226133" lon="8.4303617"><ele>94.0</ele><time>2026-05-02T09:15:42.377Z</time></trkpt><trkpt lat="39.42267" lon="8.430295"><ele>95.0</ele><time>2026-05-02T09:15:43.374Z</time></trkpt><trkpt lat="39.4227183" lon="8.4302033"><ele>96.0</ele><time>2026-05-02T09:15:44.406Z</time></trkpt><trkpt lat="39.42275" lon="8.4300917"><ele>96.99999999999999</ele><time>2026-05-02T09:15:45.369Z</time></trkpt><trkpt lat="39.4227633" lon="8.429965"><ele>98.0</ele><time>2026-05-02T09:15:46.372Z</time></trkpt><trkpt lat="39.4227783" lon="8.42984"><ele>97.99999999999999</ele><time>2026-05-02T09:15:47.373Z</time></trkpt><trkpt lat="39.4228217" lon="8.4297117"><ele>98.0</ele><time>2026-05-02T09:15:48.377Z</time></trkpt><trkpt lat="39.42286" lon="8.4296117"><ele>98.0</ele><time>2026-05-02T09:15:49.374Z</time></trkpt><trkpt lat="39.4228933" lon="8.4295233"><ele>98.0</ele><time>2026-05-02T09:15:50.4Z</time></trkpt><trkpt lat="39.4229283" lon="8.4294267"><ele>97.99999999999999</ele><time>2026-05-02T09:15:51.372Z</time></trkpt><trkpt lat="39.4229483" lon="8.4293283"><ele>98.0</ele><time>2026-05-02T09:15:52.376Z</time></trkpt><trkpt lat="39.4229567" lon="8.429225"><ele>99.16666666666666</ele><time>2026-05-02T09:15:53.374Z</time></trkpt><trkpt lat="39.422955" lon="8.4291217"><ele>100.33333333333333</ele><time>2026-05-02T09:15:54.375Z</time></trkpt><trkpt lat="39.4229617" lon="8.4290167"><ele>101.5</ele><time>2026-05-02T09:15:55.371Z</time></trkpt><trkpt lat="39.422975" lon="8.428915"><ele>102.66666666666666</ele><time>2026-05-02T09:15:56.385Z</time></trkpt><trkpt lat="39.423" lon="8.4288133"><ele>103.83333333333333</ele><time>2026-05-02T09:15:57.38Z</time></trkpt><trkpt lat="39.4230433" lon="8.428725"><ele>105.0</ele><time>2026-05-02T09:15:58.372Z</time></trkpt><trkpt lat="39.4230967" lon="8.4286417"><ele>99.4</ele><time>2026-05-02T09:15:59.372Z</time></trkpt><trkpt lat="39.4231617" lon="8.4285633"><ele>93.8</ele><time>2026-05-02T09:16:00.375Z</time></trkpt><trkpt lat="39.4232217" lon="8.4284867"><ele>88.2</ele><time>2026-05-02T09:16:01.374Z</time></trkpt><trkpt lat="39.4232767" lon="8.428395"><ele>82.6</ele><time>2026-05-02T09:16:02.403Z</time></trkpt><trkpt lat="39.4233383" lon="8.428285"><ele>77.0</ele><time>2026-05-02T09:16:03.373Z</time></trkpt><trkpt lat="39.4234117" lon="8.428165"><ele>77.0</ele><time>2026-05-02T09:16:04.373Z</time></trkpt><trkpt lat="39.4234767" lon="8.4280467"><ele>77.0</ele><time>2026-05-02T09:16:05.375Z</time></trkpt><trkpt lat="39.42354" lon="8.4279383"><ele>77.0</ele><time>2026-05-02T09:16:06.376Z</time></trkpt><trkpt lat="39.42361" lon="8.4278367"><ele>77.0</ele><time>2026-05-02T09:16:07.373Z</time></trkpt><trkpt lat="39.423675" lon="8.4277283"><ele>77.0</ele><time>2026-05-02T09:16:08.401Z</time></trkpt><trkpt lat="39.4237183" lon="8.4276317"><ele>77.2</ele><time>2026-05-02T09:16:09.371Z</time></trkpt><trkpt lat="39.4237733" lon="8.4275317"><ele>77.4</ele><time>2026-05-02T09:16:10.372Z</time></trkpt><trkpt lat="39.4237817" lon="8.4274133"><ele>77.6</ele><time>2026-05-02T09:16:11.372Z</time></trkpt><trkpt lat="39.423765" lon="8.4272633"><ele>77.8</ele><time>2026-05-02T09:16:12.374Z</time></trkpt><trkpt lat="39.423755" lon="8.4270983"><ele>78.0</ele><time>2026-05-02T09:16:13.373Z</time></trkpt><trkpt lat="39.4237433" lon="8.42689"><ele>77.0</ele><time>2026-05-02T09:16:14.404Z</time></trkpt><trkpt lat="39.4237333" lon="8.4267333"><ele>76.0</ele><time>2026-05-02T09:16:15.374Z</time></trkpt><trkpt lat="39.4237133" lon="8.42657"><ele>75.0</ele><time>2026-05-02T09:16:16.374Z</time></trkpt><trkpt lat="39.4236817" lon="8.4264033"><ele>74.0</ele><time>2026-05-02T09:16:17.373Z</time></trkpt><trkpt lat="39.42366" lon="8.4262167"><ele>72.5</ele><time>2026-05-02T09:16:18.373Z</time></trkpt><trkpt lat="39.4236367" lon="8.42605"><ele>71.0</ele><time>2026-05-02T09:16:19.372Z</time></trkpt><trkpt lat="39.4236167" lon="8.425875"><ele>69.5</ele><time>2026-05-02T09:16:20.404Z</time></trkpt><trkpt lat="39.423585" lon="8.425685"><ele>68.0</ele><time>2026-05-02T09:16:21.375Z</time></trkpt><trkpt lat="39.42359" lon="8.4255033"><ele>67.0</ele><time>2026-05-02T09:16:22.375Z</time></trkpt><trkpt lat="39.423555" lon="8.42533"><ele>66.0</ele><time>2026-05-02T09:16:23.374Z</time></trkpt><trkpt lat="39.4235433" lon="8.4251633"><ele>65.0</ele><time>2026-05-02T09:16:24.37Z</time></trkpt><trkpt lat="39.423535" lon="8.4249967"><ele>64.0</ele><time>2026-05-02T09:16:25.374Z</time></trkpt><trkpt lat="39.4235283" lon="8.424835"><ele>64.0</ele><time>2026-05-02T09:16:26.439Z</time></trkpt><trkpt lat="39.4235383" lon="8.4246783"><ele>64.0</ele><time>2026-05-02T09:16:27.376Z</time></trkpt><trkpt lat="39.423575" lon="8.4245133"><ele>64.0</ele><time>2026-05-02T09:16:28.372Z</time></trkpt><trkpt lat="39.4236083" lon="8.4243433"><ele>64.0</ele><time>2026-05-02T09:16:29.378Z</time></trkpt><trkpt lat="39.42364" lon="8.4241867"><ele>64.4</ele><time>2026-05-02T09:16:30.374Z</time></trkpt><trkpt lat="39.4236817" lon="8.4240767"><ele>64.80000000000001</ele><time>2026-05-02T09:16:31.373Z</time></trkpt><trkpt lat="39.4237333" lon="8.4239667"><ele>65.19999999999999</ele><time>2026-05-02T09:16:32.431Z</time></trkpt><trkpt lat="39.4237683" lon="8.4238617"><ele>65.6</ele><time>2026-05-02T09:16:33.375Z</time></trkpt><trkpt lat="39.4237483" lon="8.4237283"><ele>66.0</ele><time>2026-05-02T09:16:34.373Z</time></trkpt><trkpt lat="39.4237183" lon="8.4235883"><ele>65.0</ele><time>2026-05-02T09:16:35.375Z</time></trkpt><trkpt lat="39.42368" lon="8.4234367"><ele>64.0</ele><time>2026-05-02T09:16:36.373Z</time></trkpt><trkpt lat="39.4236317" lon="8.4232733"><ele>63.0</ele><time>2026-05-02T09:16:37.376Z</time></trkpt><trkpt lat="39.423575" lon="8.4231033"><ele>62.0</ele><time>2026-05-02T09:16:38.4Z</time></trkpt><trkpt lat="39.4235217" lon="8.4229233"><ele>59.0</ele><time>2026-05-02T09:16:39.373Z</time></trkpt><trkpt lat="39.4234633" lon="8.422725"><ele>56.0</ele><time>2026-05-02T09:16:40.374Z</time></trkpt><trkpt lat="39.4234133" lon="8.4225183"><ele>53.0</ele><time>2026-05-02T09:16:41.375Z</time></trkpt><trkpt lat="39.423355" lon="8.422325"><ele>51.66666666666667</ele><time>2026-05-02T09:16:42.374Z</time></trkpt><trkpt lat="39.4232833" lon="8.4221017"><ele>50.33333333333333</ele><time>2026-05-02T09:16:43.374Z</time></trkpt><trkpt lat="39.4232183" lon="8.42188"><ele>49.0</ele><time>2026-05-02T09:16:44.403Z</time></trkpt><trkpt lat="39.4231467" lon="8.4216617"><ele>49.0</ele><time>2026-05-02T09:16:45.375Z</time></trkpt><trkpt lat="39.4230983" lon="8.4214567"><ele>49.0</ele><time>2026-05-02T09:16:46.372Z</time></trkpt><trkpt lat="39.423055" lon="8.4212633"><ele>49.0</ele><time>2026-05-02T09:16:47.376Z</time></trkpt><trkpt lat="39.4230083" lon="8.4210767"><ele>48.33333333333333</ele><time>2026-05-02T09:16:48.376Z</time></trkpt><trkpt lat="39.4229733" lon="8.4209083"><ele>47.666666666666664</ele><time>2026-05-02T09:16:49.376Z</time></trkpt><trkpt lat="39.4229" lon="8.4207183"><ele>47.0</ele><time>2026-05-02T09:16:50.404Z</time></trkpt><trkpt lat="39.4228367" lon="8.42053"><ele>45.0</ele><time>2026-05-02T09:16:51.374Z</time></trkpt><trkpt lat="39.4227683" lon="8.4203383"><ele>43.0</ele><time>2026-05-02T09:16:52.372Z</time></trkpt><trkpt lat="39.4227017" lon="8.420145"><ele>41.0</ele><time>2026-05-02T09:16:53.374Z</time></trkpt><trkpt lat="39.4226367" lon="8.4199717"><ele>41.0</ele><time>2026-05-02T09:16:54.376Z</time></trkpt><trkpt lat="39.42257" lon="8.4197983"><ele>41.0</ele><time>2026-05-02T09:16:55.374Z</time></trkpt><trkpt lat="39.4224933" lon="8.41966"><ele>41.0</ele><time>2026-05-02T09:16:56.374Z</time></trkpt><trkpt lat="39.42243" lon="8.4195067"><ele>41.0</ele><time>2026-05-02T09:16:57.374Z</time></trkpt><trkpt lat="39.4223483" lon="8.41934"><ele>40.33333333333333</ele><time>2026-05-02T09:16:58.373Z</time></trkpt><trkpt lat="39.4222633" lon="8.4191767"><ele>39.666666666666664</ele><time>2026-05-02T09:16:59.371Z</time></trkpt><trkpt lat="39.422165" lon="8.4190133"><ele>39.0</ele><time>2026-05-02T09:17:00.375Z</time></trkpt><trkpt lat="39.4220683" lon="8.4188533"><ele>37.25</ele><time>2026-05-02T09:17:01.377Z</time></trkpt><trkpt lat="39.4219783" lon="8.4186983"><ele>35.5</ele><time>2026-05-02T09:17:02.427Z</time></trkpt><trkpt lat="39.4218833" lon="8.4185817"><ele>33.75</ele><time>2026-05-02T09:17:03.375Z</time></trkpt><trkpt lat="39.4217867" lon="8.4184833"><ele>32.0</ele><time>2026-05-02T09:17:04.373Z</time></trkpt><trkpt lat="39.42168" lon="8.41837"><ele>32.0</ele><time>2026-05-02T09:17:05.37Z</time></trkpt><trkpt lat="39.42153" lon="8.4182817"><ele>32.0</ele><time>2026-05-02T09:17:06.375Z</time></trkpt><trkpt lat="39.42142" lon="8.418215"><ele>32.0</ele><time>2026-05-02T09:17:07.376Z</time></trkpt><trkpt lat="39.4213117" lon="8.4181817"><ele>32.0</ele><time>2026-05-02T09:17:08.401Z</time></trkpt><trkpt lat="39.42121" lon="8.4181617"><ele>31.666666666666664</ele><time>2026-05-02T09:17:09.374Z</time></trkpt><trkpt lat="39.4211" lon="8.4181233"><ele>31.333333333333332</ele><time>2026-05-02T09:17:10.375Z</time></trkpt><trkpt lat="39.420995" lon="8.4181017"><ele>31.0</ele><time>2026-05-02T09:17:11.376Z</time></trkpt><trkpt lat="39.4209233" lon="8.418055"><ele>30.666666666666664</ele><time>2026-05-02T09:17:12.372Z</time></trkpt><trkpt lat="39.4208583" lon="8.4180133"><ele>30.333333333333332</ele><time>2026-05-02T09:17:13.374Z</time></trkpt><trkpt lat="39.4207917" lon="8.4179667"><ele>30.0</ele><time>2026-05-02T09:17:14.4Z</time></trkpt><trkpt lat="39.4207283" lon="8.4179117"><ele>30.0</ele><time>2026-05-02T09:17:15.374Z</time></trkpt><trkpt lat="39.4206633" lon="8.4178417"><ele>30.0</ele><time>2026-05-02T09:17:16.373Z</time></trkpt><trkpt lat="39.4206" lon="8.4177567"><ele>30.0</ele><time>2026-05-02T09:17:17.371Z</time></trkpt><trkpt lat="39.4205333" lon="8.4176617"><ele>30.0</ele><time>2026-05-02T09:17:18.374Z</time></trkpt><trkpt lat="39.4204617" lon="8.4175583"><ele>30.0</ele><time>2026-05-02T09:17:19.373Z</time></trkpt><trkpt lat="39.4204067" lon="8.4174533"><ele>31.25</ele><time>2026-05-02T09:17:20.404Z</time></trkpt><trkpt lat="39.42035" lon="8.4173417"><ele>32.5</ele><time>2026-05-02T09:17:21.373Z</time></trkpt><trkpt lat="39.4202933" lon="8.4172167"><ele>33.75</ele><time>2026-05-02T09:17:22.374Z</time></trkpt><trkpt lat="39.4202483" lon="8.417085"><ele>35.0</ele><time>2026-05-02T09:17:23.373Z</time></trkpt><trkpt lat="39.420215" lon="8.4169267"><ele>35.0</ele><time>2026-05-02T09:17:24.373Z</time></trkpt><trkpt lat="39.4201817" lon="8.4167717"><ele>35.0</ele><time>2026-05-02T09:17:25.376Z</time></trkpt><trkpt lat="39.4201467" lon="8.41664"><ele>35.0</ele><time>2026-05-02T09:17:26.439Z</time></trkpt><trkpt lat="39.4201083" lon="8.416515"><ele>35.0</ele><time>2026-05-02T09:17:27.372Z</time></trkpt><trkpt lat="39.42006" lon="8.4164033"><ele>35.0</ele><time>2026-05-02T09:17:28.374Z</time></trkpt><trkpt lat="39.420005" lon="8.416305"><ele>34.0</ele><time>2026-05-02T09:17:29.373Z</time></trkpt><trkpt lat="39.419955" lon="8.41623"><ele>33.0</ele><time>2026-05-02T09:17:30.375Z</time></trkpt><trkpt lat="39.4198767" lon="8.4161633"><ele>32.0</ele><time>2026-05-02T09:17:31.369Z</time></trkpt><trkpt lat="39.4197983" lon="8.4161017"><ele>31.0</ele><time>2026-05-02T09:17:32.426Z</time></trkpt><trkpt lat="39.4197067" lon="8.416055"><ele>30.0</ele><time>2026-05-02T09:17:33.376Z</time></trkpt><trkpt lat="39.4196083" lon="8.4160183"><ele>30.0</ele><time>2026-05-02T09:17:34.373Z</time></trkpt><trkpt lat="39.4195017" lon="8.4159867"><ele>30.0</ele><time>2026-05-02T09:17:35.371Z</time></trkpt><trkpt lat="39.4193983" lon="8.4159533"><ele>30.0</ele><time>2026-05-02T09:17:36.369Z</time></trkpt><trkpt lat="39.4193083" lon="8.4159067"><ele>30.0</ele><time>2026-05-02T09:17:37.374Z</time></trkpt><trkpt lat="39.4192167" lon="8.41586"><ele>30.0</ele><time>2026-05-02T09:17:38.4Z</time></trkpt><trkpt lat="39.419135" lon="8.4157817"><ele>30.0</ele><time>2026-05-02T09:17:39.371Z</time></trkpt><trkpt lat="39.419075" lon="8.4156733"><ele>30.0</ele><time>2026-05-02T09:17:40.373Z</time></trkpt><trkpt lat="39.4190317" lon="8.41556"><ele>30.0</ele><time>2026-05-02T09:17:41.377Z</time></trkpt><trkpt lat="39.4189933" lon="8.4154283"><ele>30.0</ele><time>2026-05-02T09:17:42.374Z</time></trkpt><trkpt lat="39.41896" lon="8.4152883"><ele>30.0</ele><time>2026-05-02T09:17:43.374Z</time></trkpt><trkpt lat="39.4189417" lon="8.4151267"><ele>28.4</ele><time>2026-05-02T09:17:44.402Z</time></trkpt><trkpt lat="39.4188967" lon="8.4149783"><ele>26.8</ele><time>2026-05-02T09:17:45.377Z</time></trkpt><trkpt lat="39.4188933" lon="8.4148267"><ele>25.200000000000003</ele><time>2026-05-02T09:17:46.377Z</time></trkpt><trkpt lat="39.4189" lon="8.4147"><ele>23.6</ele><time>2026-05-02T09:17:47.38Z</time></trkpt><trkpt lat="39.418875" lon="8.4146017"><ele>22.0</ele><time>2026-05-02T09:17:48.373Z</time></trkpt><trkpt lat="39.4188317" lon="8.4145283"><ele>23.200000000000003</ele><time>2026-05-02T09:17:49.375Z</time></trkpt><trkpt lat="39.4187733" lon="8.4144583"><ele>24.4</ele><time>2026-05-02T09:17:50.402Z</time></trkpt><trkpt lat="39.4187067" lon="8.4143783"><ele>25.599999999999998</ele><time>2026-05-02T09:17:51.372Z</time></trkpt><trkpt lat="39.4186317" lon="8.414295"><ele>26.799999999999997</ele><time>2026-05-02T09:17:52.375Z</time></trkpt><trkpt lat="39.4185417" lon="8.4141917"><ele>28.0</ele><time>2026-05-02T09:17:53.374Z</time></trkpt><trkpt lat="39.4184233" lon="8.4140683"><ele>28.0</ele><time>2026-05-02T09:17:54.375Z</time></trkpt><trkpt lat="39.418325" lon="8.41393"><ele>28.0</ele><time>2026-05-02T09:17:55.374Z</time></trkpt><trkpt lat="39.418225" lon="8.413795"><ele>28.0</ele><time>2026-05-02T09:17:56.44Z</time></trkpt><trkpt lat="39.4181183" lon="8.4136933"><ele>28.0</ele><time>2026-05-02T09:17:57.374Z</time></trkpt><trkpt lat="39.4180317" lon="8.4135667"><ele>29.25</ele><time>2026-05-02T09:17:58.377Z</time></trkpt><trkpt lat="39.4179567" lon="8.4134633"><ele>30.5</ele><time>2026-05-02T09:17:59.373Z</time></trkpt><trkpt lat="39.4178667" lon="8.4133717"><ele>31.75</ele><time>2026-05-02T09:18:00.376Z</time></trkpt><trkpt lat="39.4177667" lon="8.4133"><ele>33.0</ele><time>2026-05-02T09:18:01.374Z</time></trkpt><trkpt lat="39.4176667" lon="8.413205"><ele>33.0</ele><time>2026-05-02T09:18:02.402Z</time></trkpt><trkpt lat="39.4175633" lon="8.413145"><ele>33.0</ele><time>2026-05-02T09:18:03.375Z</time></trkpt><trkpt lat="39.4174567" lon="8.413075"><ele>33.0</ele><time>2026-05-02T09:18:04.373Z</time></trkpt><trkpt lat="39.4173583" lon="8.41298"><ele>33.0</ele><time>2026-05-02T09:18:05.374Z</time></trkpt><trkpt lat="39.41726" lon="8.4128933"><ele>32.4</ele><time>2026-05-02T09:18:06.372Z</time></trkpt><trkpt lat="39.4171683" lon="8.4127967"><ele>31.799999999999997</ele><time>2026-05-02T09:18:07.372Z</time></trkpt><trkpt lat="39.4170917" lon="8.4126933"><ele>31.2</ele><time>2026-05-02T09:18:08.408Z</time></trkpt><trkpt lat="39.4170283" lon="8.4125933"><ele>30.6</ele><time>2026-05-02T09:18:09.378Z</time></trkpt><trkpt lat="39.4169517" lon="8.4125"><ele>30.0</ele><time>2026-05-02T09:18:10.371Z</time></trkpt><trkpt lat="39.4168983" lon="8.4124333"><ele>31.5</ele><time>2026-05-02T09:18:11.371Z</time></trkpt><trkpt lat="39.416875" lon="8.4123233"><ele>33.0</ele><time>2026-05-02T09:18:12.374Z</time></trkpt><trkpt lat="39.4168517" lon="8.4122267"><ele>34.5</ele><time>2026-05-02T09:18:13.374Z</time></trkpt><trkpt lat="39.4168583" lon="8.41212"><ele>36.0</ele><time>2026-05-02T09:18:14.406Z</time></trkpt><trkpt lat="39.416855" lon="8.4120333"><ele>37.5</ele><time>2026-05-02T09:18:15.374Z</time></trkpt><trkpt lat="39.416845" lon="8.4119433"><ele>39.0</ele><time>2026-05-02T09:18:16.373Z</time></trkpt><trkpt lat="39.4168117" lon="8.4118"><ele>39.0</ele><time>2026-05-02T09:18:18.375Z</time></trkpt><trkpt lat="39.416815" lon="8.4116917"><ele>39.0</ele><time>2026-05-02T09:18:20.405Z</time></trkpt><trkpt lat="39.4168717" lon="8.4116517"><ele>39.0</ele><time>2026-05-02T09:18:23.374Z</time></trkpt><trkpt lat="39.41697" lon="8.4115983"><ele>39.0</ele><time>2026-05-02T09:18:31.373Z</time></trkpt><trkpt lat="39.416965" lon="8.411515"><ele>39.0</ele><time>2026-05-02T09:19:47.376Z</time></trkpt><trkpt lat="39.4168483" lon="8.411445"><ele>39.0</ele><time>2026-05-02T09:19:49.374Z</time></trkpt><trkpt lat="39.4167533" lon="8.4114017"><ele>39.0</ele><time>2026-05-02T09:19:50.409Z</time></trkpt><trkpt lat="39.4166433" lon="8.411365"><ele>39.0</ele><time>2026-05-02T09:19:51.372Z</time></trkpt><trkpt lat="39.4165183" lon="8.4113133"><ele>39.0</ele><time>2026-05-02T09:19:52.37Z</time></trkpt><trkpt lat="39.416375" lon="8.4112733"><ele>39.0</ele><time>2026-05-02T09:19:53.369Z</time></trkpt><trkpt lat="39.41622" lon="8.4112183"><ele>38.333333333333336</ele><time>2026-05-02T09:19:54.374Z</time></trkpt><trkpt lat="39.4160567" lon="8.411175"><ele>37.66666666666667</ele><time>2026-05-02T09:19:55.372Z</time></trkpt><trkpt lat="39.4158833" lon="8.411105"><ele>37.0</ele><time>2026-05-02T09:19:56.439Z</time></trkpt><trkpt lat="39.415725" lon="8.4110467"><ele>37.0</ele><time>2026-05-02T09:19:57.371Z</time></trkpt><trkpt lat="39.41557" lon="8.4110083"><ele>37.0</ele><time>2026-05-02T09:19:58.372Z</time></trkpt><trkpt lat="39.415405" lon="8.41097"><ele>37.0</ele><time>2026-05-02T09:19:59.374Z</time></trkpt><trkpt lat="39.4152417" lon="8.4109367"><ele>40.0</ele><time>2026-05-02T09:20:00.372Z</time></trkpt><trkpt lat="39.4150767" lon="8.4108967"><ele>43.0</ele><time>2026-05-02T09:20:01.371Z</time></trkpt><trkpt lat="39.4149133" lon="8.41087"><ele>46.0</ele><time>2026-05-02T09:20:02.429Z</time></trkpt><trkpt lat="39.4147583" lon="8.4108483"><ele>49.25</ele><time>2026-05-02T09:20:03.374Z</time></trkpt><trkpt lat="39.4146067" lon="8.41082"><ele>52.5</ele><time>2026-05-02T09:20:04.374Z</time></trkpt><trkpt lat="39.4144883" lon="8.4107783"><ele>55.75</ele><time>2026-05-02T09:20:05.373Z</time></trkpt><trkpt lat="39.41437" lon="8.4107217"><ele>59.0</ele><time>2026-05-02T09:20:06.372Z</time></trkpt><trkpt lat="39.41426" lon="8.4106233"><ele>59.0</ele><time>2026-05-02T09:20:07.371Z</time></trkpt><trkpt lat="39.4141817" lon="8.410525"><ele>59.0</ele><time>2026-05-02T09:20:08.408Z</time></trkpt><trkpt lat="39.414115" lon="8.4104017"><ele>59.0</ele><time>2026-05-02T09:20:09.372Z</time></trkpt><trkpt lat="39.413995" lon="8.41021"><ele>59.0</ele><time>2026-05-02T09:20:10.371Z</time></trkpt><trkpt lat="39.4139317" lon="8.4100817"><ele>59.0</ele><time>2026-05-02T09:20:11.37Z</time></trkpt><trkpt lat="39.4138383" lon="8.4099883"><ele>59.0</ele><time>2026-05-02T09:20:12.374Z</time></trkpt><trkpt lat="39.413735" lon="8.4099133"><ele>59.0</ele><time>2026-05-02T09:20:13.374Z</time></trkpt><trkpt lat="39.4136217" lon="8.4098633"><ele>59.0</ele><time>2026-05-02T09:20:14.409Z</time></trkpt><trkpt lat="39.413505" lon="8.4098167"><ele>59.0</ele><time>2026-05-02T09:20:15.372Z</time></trkpt><trkpt lat="39.413385" lon="8.40977"><ele>59.0</ele><time>2026-05-02T09:20:16.374Z</time></trkpt><trkpt lat="39.4132583" lon="8.409725"><ele>59.0</ele><time>2026-05-02T09:20:17.373Z</time></trkpt><trkpt lat="39.41314" lon="8.4096717"><ele>59.0</ele><time>2026-05-02T09:20:18.373Z</time></trkpt><trkpt lat="39.4130217" lon="8.40962"><ele>60.5</ele><time>2026-05-02T09:20:19.372Z</time></trkpt><trkpt lat="39.4129167" lon="8.4095567"><ele>62.0</ele><time>2026-05-02T09:20:20.407Z</time></trkpt><trkpt lat="39.4128167" lon="8.4094667"><ele>63.5</ele><time>2026-05-02T09:20:21.372Z</time></trkpt><trkpt lat="39.412745" lon="8.4093417"><ele>65.0</ele><time>2026-05-02T09:20:22.371Z</time></trkpt><trkpt lat="39.4126867" lon="8.4091833"><ele>65.0</ele><time>2026-05-02T09:20:23.373Z</time></trkpt><trkpt lat="39.412645" lon="8.4090133"><ele>65.0</ele><time>2026-05-02T09:20:24.374Z</time></trkpt><trkpt lat="39.4125917" lon="8.408855"><ele>65.0</ele><time>2026-05-02T09:20:25.384Z</time></trkpt><trkpt lat="39.41257" lon="8.408665"><ele>65.0</ele><time>2026-05-02T09:20:26.424Z</time></trkpt><trkpt lat="39.4125467" lon="8.4084617"><ele>64.25</ele><time>2026-05-02T09:20:27.372Z</time></trkpt><trkpt lat="39.4125183" lon="8.40828"><ele>63.5</ele><time>2026-05-02T09:20:28.372Z</time></trkpt><trkpt lat="39.4124733" lon="8.4081"><ele>62.75</ele><time>2026-05-02T09:20:29.368Z</time></trkpt><trkpt lat="39.4124117" lon="8.40793"><ele>62.0</ele><time>2026-05-02T09:20:30.373Z</time></trkpt><trkpt lat="39.412335" lon="8.4077683"><ele>60.75</ele><time>2026-05-02T09:20:31.372Z</time></trkpt><trkpt lat="39.4122533" lon="8.407615"><ele>59.5</ele><time>2026-05-02T09:20:32.428Z</time></trkpt><trkpt lat="39.41217" lon="8.4074733"><ele>58.25</ele><time>2026-05-02T09:20:33.373Z</time></trkpt><trkpt lat="39.4121" lon="8.4073333"><ele>57.0</ele><time>2026-05-02T09:20:34.371Z</time></trkpt><trkpt lat="39.4120233" lon="8.4072067"><ele>58.0</ele><time>2026-05-02T09:20:35.371Z</time></trkpt><trkpt lat="39.4119433" lon="8.40709"><ele>59.0</ele><time>2026-05-02T09:20:36.371Z</time></trkpt><trkpt lat="39.4118633" lon="8.4069767"><ele>60.0</ele><time>2026-05-02T09:20:37.372Z</time></trkpt><trkpt lat="39.4117917" lon="8.40688"><ele>61.0</ele><time>2026-05-02T09:20:38.408Z</time></trkpt><trkpt lat="39.411715" lon="8.4067967"><ele>62.0</ele><time>2026-05-02T09:20:39.374Z</time></trkpt><trkpt lat="39.4116317" lon="8.4067083"><ele>62.0</ele><time>2026-05-02T09:20:40.374Z</time></trkpt><trkpt lat="39.4115517" lon="8.4066467"><ele>62.0</ele><time>2026-05-02T09:20:41.373Z</time></trkpt><trkpt lat="39.4114433" lon="8.4066"><ele>62.0</ele><time>2026-05-02T09:20:42.375Z</time></trkpt><trkpt lat="39.4113433" lon="8.406545"><ele>62.0</ele><time>2026-05-02T09:20:43.375Z</time></trkpt><trkpt lat="39.4112433" lon="8.4064933"><ele>62.0</ele><time>2026-05-02T09:20:44.408Z</time></trkpt><trkpt lat="39.4111483" lon="8.40643"><ele>62.5</ele><time>2026-05-02T09:20:45.372Z</time></trkpt><trkpt lat="39.4110367" lon="8.40638"><ele>63.0</ele><time>2026-05-02T09:20:46.373Z</time></trkpt><trkpt lat="39.4109333" lon="8.4063217"><ele>63.5</ele><time>2026-05-02T09:20:47.37Z</time></trkpt><trkpt lat="39.41083" lon="8.406265"><ele>64.0</ele><time>2026-05-02T09:20:48.369Z</time></trkpt><trkpt lat="39.41073" lon="8.4062033"><ele>64.0</ele><time>2026-05-02T09:20:49.37Z</time></trkpt><trkpt lat="39.4106267" lon="8.4061517"><ele>64.0</ele><time>2026-05-02T09:20:50.415Z</time></trkpt><trkpt lat="39.4105383" lon="8.4061133"><ele>64.0</ele><time>2026-05-02T09:20:51.37Z</time></trkpt><trkpt lat="39.410435" lon="8.406085"><ele>64.0</ele><time>2026-05-02T09:20:52.374Z</time></trkpt><trkpt lat="39.4103233" lon="8.4060733"><ele>64.0</ele><time>2026-05-02T09:20:53.373Z</time></trkpt><trkpt lat="39.4102017" lon="8.40608"><ele>65.0</ele><time>2026-05-02T09:20:54.37Z</time></trkpt><trkpt lat="39.410075" lon="8.4060817"><ele>66.0</ele><time>2026-05-02T09:20:55.375Z</time></trkpt><trkpt lat="39.4099383" lon="8.4060867"><ele>67.0</ele><time>2026-05-02T09:20:56.426Z</time></trkpt><trkpt lat="39.4098" lon="8.4060833"><ele>68.0</ele><time>2026-05-02T09:20:57.374Z</time></trkpt><trkpt lat="39.4096667" lon="8.40608"><ele>67.75</ele><time>2026-05-02T09:20:58.373Z</time></trkpt><trkpt lat="39.4095233" lon="8.4060967"><ele>67.5</ele><time>2026-05-02T09:20:59.375Z</time></trkpt><trkpt lat="39.4093817" lon="8.4060967"><ele>67.25</ele><time>2026-05-02T09:21:00.372Z</time></trkpt><trkpt lat="39.40925" lon="8.4061033"><ele>67.0</ele><time>2026-05-02T09:21:01.372Z</time></trkpt><trkpt lat="39.4091133" lon="8.40611"><ele>67.0</ele><time>2026-05-02T09:21:02.424Z</time></trkpt><trkpt lat="39.4089767" lon="8.406115"><ele>67.0</ele><time>2026-05-02T09:21:03.372Z</time></trkpt><trkpt lat="39.4088467" lon="8.406105"><ele>67.0</ele><time>2026-05-02T09:21:04.371Z</time></trkpt><trkpt lat="39.4087" lon="8.4060817"><ele>67.0</ele><time>2026-05-02T09:21:05.372Z</time></trkpt><trkpt lat="39.40856" lon="8.4060267"><ele>69.66666666666666</ele><time>2026-05-02T09:21:06.373Z</time></trkpt><trkpt lat="39.4084133" lon="8.4059583"><ele>72.33333333333333</ele><time>2026-05-02T09:21:07.372Z</time></trkpt><trkpt lat="39.4082667" lon="8.4058917"><ele>75.0</ele><time>2026-05-02T09:21:08.418Z</time></trkpt><trkpt lat="39.40812" lon="8.4057933"><ele>78.66666666666667</ele><time>2026-05-02T09:21:09.373Z</time></trkpt><trkpt lat="39.4079717" lon="8.405695"><ele>82.33333333333334</ele><time>2026-05-02T09:21:10.374Z</time></trkpt><trkpt lat="39.4078317" lon="8.405615"><ele>86.0</ele><time>2026-05-02T09:21:11.374Z</time></trkpt><trkpt lat="39.4076967" lon="8.4055417"><ele>80.5</ele><time>2026-05-02T09:21:12.376Z</time></trkpt><trkpt lat="39.407565" lon="8.4054567"><ele>75.0</ele><time>2026-05-02T09:21:13.371Z</time></trkpt><trkpt lat="39.4074333" lon="8.405375"><ele>69.5</ele><time>2026-05-02T09:21:14.416Z</time></trkpt><trkpt lat="39.4073067" lon="8.405295"><ele>64.0</ele><time>2026-05-02T09:21:15.373Z</time></trkpt><trkpt lat="39.4071783" lon="8.4052183"><ele>66.75</ele><time>2026-05-02T09:21:16.371Z</time></trkpt><trkpt lat="39.40705" lon="8.4051433"><ele>69.5</ele><time>2026-05-02T09:21:17.37Z</time></trkpt><trkpt lat="39.406925" lon="8.4050683"><ele>72.25</ele><time>2026-05-02T09:21:18.371Z</time></trkpt><trkpt lat="39.4068017" lon="8.4049933"><ele>75.0</ele><time>2026-05-02T09:21:19.374Z</time></trkpt><trkpt lat="39.4066817" lon="8.4049233"><ele>75.0</ele><time>2026-05-02T09:21:20.415Z</time></trkpt><trkpt lat="39.4065633" lon="8.4048583"><ele>75.0</ele><time>2026-05-02T09:21:21.371Z</time></trkpt><trkpt lat="39.4064467" lon="8.4047917"><ele>75.0</ele><time>2026-05-02T09:21:22.371Z</time></trkpt><trkpt lat="39.406335" lon="8.404735"><ele>75.0</ele><time>2026-05-02T09:21:23.373Z</time></trkpt><trkpt lat="39.4062217" lon="8.4046933"><ele>77.0</ele><time>2026-05-02T09:21:24.374Z</time></trkpt><trkpt lat="39.4061067" lon="8.4046733"><ele>79.0</ele><time>2026-05-02T09:21:25.374Z</time></trkpt><trkpt lat="39.40599" lon="8.40468"><ele>81.0</ele><time>2026-05-02T09:21:26.427Z</time></trkpt><trkpt lat="39.4058717" lon="8.4047217"><ele>83.0</ele><time>2026-05-02T09:21:27.371Z</time></trkpt><trkpt lat="39.4057483" lon="8.4047717"><ele>83.0</ele><time>2026-05-02T09:21:28.374Z</time></trkpt><trkpt lat="39.4056183" lon="8.4048233"><ele>83.0</ele><time>2026-05-02T09:21:29.373Z</time></trkpt><trkpt lat="39.405465" lon="8.40488"><ele>83.0</ele><time>2026-05-02T09:21:30.373Z</time></trkpt><trkpt lat="39.4053033" lon="8.4049"><ele>80.0</ele><time>2026-05-02T09:21:31.373Z</time></trkpt><trkpt lat="39.4051267" lon="8.4049167"><ele>77.0</ele><time>2026-05-02T09:21:32.429Z</time></trkpt><trkpt lat="39.4049533" lon="8.4049083"><ele>74.0</ele><time>2026-05-02T09:21:33.377Z</time></trkpt><trkpt lat="39.40478" lon="8.4048833"><ele>81.33333333333334</ele><time>2026-05-02T09:21:34.372Z</time></trkpt><trkpt lat="39.404595" lon="8.4048367"><ele>88.66666666666667</ele><time>2026-05-02T09:21:35.37Z</time></trkpt><trkpt lat="39.4044183" lon="8.4047683"><ele>96.0</ele><time>2026-05-02T09:21:36.37Z</time></trkpt><trkpt lat="39.40423" lon="8.404705"><ele>85.0</ele><time>2026-05-02T09:21:37.371Z</time></trkpt><trkpt lat="39.4040517" lon="8.4046367"><ele>74.0</ele><time>2026-05-02T09:21:38.41Z</time></trkpt><trkpt lat="39.4038867" lon="8.404545"><ele>63.0</ele><time>2026-05-02T09:21:39.373Z</time></trkpt><trkpt lat="39.4037233" lon="8.4044683"><ele>63.0</ele><time>2026-05-02T09:21:40.371Z</time></trkpt><trkpt lat="39.40358" lon="8.404385"><ele>63.0</ele><time>2026-05-02T09:21:41.373Z</time></trkpt><trkpt lat="39.4034433" lon="8.40427"><ele>63.0</ele><time>2026-05-02T09:21:42.373Z</time></trkpt><trkpt lat="39.4033083" lon="8.404185"><ele>63.0</ele><time>2026-05-02T09:21:43.373Z</time></trkpt><trkpt lat="39.403185" lon="8.4040883"><ele>63.0</ele><time>2026-05-02T09:21:44.413Z</time></trkpt><trkpt lat="39.403065" lon="8.403965"><ele>63.0</ele><time>2026-05-02T09:21:45.371Z</time></trkpt><trkpt lat="39.40294" lon="8.4037983"><ele>63.0</ele><time>2026-05-02T09:21:46.373Z</time></trkpt><trkpt lat="39.4028283" lon="8.403625"><ele>63.0</ele><time>2026-05-02T09:21:47.371Z</time></trkpt><trkpt lat="39.4027233" lon="8.4034433"><ele>63.0</ele><time>2026-05-02T09:21:48.371Z</time></trkpt><trkpt lat="39.402615" lon="8.4032833"><ele>63.0</ele><time>2026-05-02T09:21:49.374Z</time></trkpt><trkpt lat="39.4026233" lon="8.4031"><ele>63.0</ele><time>2026-05-02T09:21:50.415Z</time></trkpt><trkpt lat="39.402545" lon="8.4029533"><ele>63.0</ele><time>2026-05-02T09:21:51.372Z</time></trkpt><trkpt lat="39.4024433" lon="8.4028483"><ele>63.0</ele><time>2026-05-02T09:21:52.371Z</time></trkpt><trkpt lat="39.40234" lon="8.4027667"><ele>57.5</ele><time>2026-05-02T09:21:53.372Z</time></trkpt><trkpt lat="39.4022" lon="8.40273"><ele>52.0</ele><time>2026-05-02T09:21:54.374Z</time></trkpt><trkpt lat="39.4020867" lon="8.4027033"><ele>46.5</ele><time>2026-05-02T09:21:55.374Z</time></trkpt><trkpt lat="39.40194" lon="8.4026733"><ele>41.0</ele><time>2026-05-02T09:21:56.427Z</time></trkpt><trkpt lat="39.4018" lon="8.4026517"><ele>41.0</ele><time>2026-05-02T09:21:57.369Z</time></trkpt><trkpt lat="39.4016633" lon="8.40264"><ele>41.0</ele><time>2026-05-02T09:21:58.373Z</time></trkpt><trkpt lat="39.4015333" lon="8.4026267"><ele>41.0</ele><time>2026-05-02T09:21:59.372Z</time></trkpt><trkpt lat="39.40141" lon="8.4026033"><ele>41.0</ele><time>2026-05-02T09:22:00.374Z</time></trkpt><trkpt lat="39.4012883" lon="8.4025733"><ele>45.75</ele><time>2026-05-02T09:22:01.371Z</time></trkpt><trkpt lat="39.4011683" lon="8.4025467"><ele>50.5</ele><time>2026-05-02T09:22:02.427Z</time></trkpt><trkpt lat="39.40105" lon="8.4025117"><ele>55.25</ele><time>2026-05-02T09:22:03.371Z</time></trkpt><trkpt lat="39.4009367" lon="8.4024633"><ele>60.0</ele><time>2026-05-02T09:22:04.373Z</time></trkpt><trkpt lat="39.4008067" lon="8.40241"><ele>60.0</ele><time>2026-05-02T09:22:05.373Z</time></trkpt><trkpt lat="39.400705" lon="8.402335"><ele>60.0</ele><time>2026-05-02T09:22:06.373Z</time></trkpt><trkpt lat="39.40059" lon="8.402255"><ele>60.0</ele><time>2026-05-02T09:22:07.372Z</time></trkpt><trkpt lat="39.400495" lon="8.4021783"><ele>60.0</ele><time>2026-05-02T09:22:08.415Z</time></trkpt><trkpt lat="39.4004" lon="8.4021433"><ele>61.2</ele><time>2026-05-02T09:22:09.37Z</time></trkpt><trkpt lat="39.400295" lon="8.4020767"><ele>62.4</ele><time>2026-05-02T09:22:10.373Z</time></trkpt><trkpt lat="39.400195" lon="8.4020917"><ele>63.599999999999994</ele><time>2026-05-02T09:22:11.373Z</time></trkpt><trkpt lat="39.4001033" lon="8.4021183"><ele>64.8</ele><time>2026-05-02T09:22:12.372Z</time></trkpt><trkpt lat="39.4000067" lon="8.4021517"><ele>66.0</ele><time>2026-05-02T09:22:13.371Z</time></trkpt><trkpt lat="39.39992" lon="8.40219"><ele>66.0</ele><time>2026-05-02T09:22:14.414Z</time></trkpt><trkpt lat="39.399835" lon="8.4022217"><ele>66.0</ele><time>2026-05-02T09:22:15.371Z</time></trkpt><trkpt lat="39.39976" lon="8.4022617"><ele>66.0</ele><time>2026-05-02T09:22:16.373Z</time></trkpt><trkpt lat="39.3996833" lon="8.40231"><ele>66.0</ele><time>2026-05-02T09:22:17.373Z</time></trkpt><trkpt lat="39.3996" lon="8.4023683"><ele>66.0</ele><time>2026-05-02T09:22:18.373Z</time></trkpt><trkpt lat="39.3995017" lon="8.4024367"><ele>63.0</ele><time>2026-05-02T09:22:19.373Z</time></trkpt><trkpt lat="39.399395" lon="8.4025067"><ele>60.0</ele><time>2026-05-02T09:22:20.416Z</time></trkpt><trkpt lat="39.3992733" lon="8.4025833"><ele>57.0</ele><time>2026-05-02T09:22:21.368Z</time></trkpt><trkpt lat="39.3991433" lon="8.4026533"><ele>54.0</ele><time>2026-05-02T09:22:22.375Z</time></trkpt><trkpt lat="39.3990067" lon="8.4027183"><ele>54.0</ele><time>2026-05-02T09:22:23.375Z</time></trkpt><trkpt lat="39.398865" lon="8.4027833"><ele>54.0</ele><time>2026-05-02T09:22:24.371Z</time></trkpt><trkpt lat="39.3987167" lon="8.4028533"><ele>54.0</ele><time>2026-05-02T09:22:25.374Z</time></trkpt><trkpt lat="39.39857" lon="8.402945"><ele>59.33333333333333</ele><time>2026-05-02T09:22:26.433Z</time></trkpt><trkpt lat="39.39843" lon="8.4030267"><ele>64.66666666666666</ele><time>2026-05-02T09:22:27.375Z</time></trkpt><trkpt lat="39.3982833" lon="8.4031"><ele>70.0</ele><time>2026-05-02T09:22:28.373Z</time></trkpt><trkpt lat="39.39812" lon="8.4031517"><ele>69.66666666666666</ele><time>2026-05-02T09:22:29.369Z</time></trkpt><trkpt lat="39.3979417" lon="8.4031983"><ele>69.33333333333333</ele><time>2026-05-02T09:22:30.373Z</time></trkpt><trkpt lat="39.39776" lon="8.4032383"><ele>69.0</ele><time>2026-05-02T09:22:31.374Z</time></trkpt><trkpt lat="39.3975967" lon="8.4032883"><ele>69.0</ele><time>2026-05-02T09:22:32.424Z</time></trkpt><trkpt lat="39.3974333" lon="8.4033383"><ele>69.0</ele><time>2026-05-02T09:22:33.381Z</time></trkpt><trkpt lat="39.3972683" lon="8.4033783"><ele>69.0</ele><time>2026-05-02T09:22:34.373Z</time></trkpt><trkpt lat="39.39711" lon="8.4034183"><ele>70.33333333333333</ele><time>2026-05-02T09:22:35.371Z</time></trkpt><trkpt lat="39.3969517" lon="8.40345"><ele>71.66666666666666</ele><time>2026-05-02T09:22:36.373Z</time></trkpt><trkpt lat="39.396785" lon="8.4034783"><ele>73.0</ele><time>2026-05-02T09:22:37.371Z</time></trkpt><trkpt lat="39.3966183" lon="8.403485"><ele>73.0</ele><time>2026-05-02T09:22:38.415Z</time></trkpt><trkpt lat="39.3964533" lon="8.4034933"><ele>73.0</ele><time>2026-05-02T09:22:39.369Z</time></trkpt><trkpt lat="39.3962983" lon="8.403485"><ele>73.0</ele><time>2026-05-02T09:22:40.373Z</time></trkpt><trkpt lat="39.39616" lon="8.403495"><ele>72.0</ele><time>2026-05-02T09:22:41.37Z</time></trkpt><trkpt lat="39.39602" lon="8.4035283"><ele>71.0</ele><time>2026-05-02T09:22:42.374Z</time></trkpt><trkpt lat="39.3959033" lon="8.40357"><ele>70.0</ele><time>2026-05-02T09:22:43.37Z</time></trkpt><trkpt lat="39.3957767" lon="8.403645"><ele>69.0</ele><time>2026-05-02T09:22:44.415Z</time></trkpt><trkpt lat="39.39564" lon="8.40375"><ele>70.25</ele><time>2026-05-02T09:22:45.373Z</time></trkpt><trkpt lat="39.395515" lon="8.4038517"><ele>71.5</ele><time>2026-05-02T09:22:46.371Z</time></trkpt><trkpt lat="39.39541" lon="8.40393"><ele>72.75</ele><time>2026-05-02T09:22:47.375Z</time></trkpt><trkpt lat="39.3952717" lon="8.40402"><ele>74.0</ele><time>2026-05-02T09:22:48.373Z</time></trkpt><trkpt lat="39.39513" lon="8.4040833"><ele>74.0</ele><time>2026-05-02T09:22:49.371Z</time></trkpt><trkpt lat="39.3949833" lon="8.4041283"><ele>74.0</ele><time>2026-05-02T09:22:50.416Z</time></trkpt><trkpt lat="39.394855" lon="8.404155"><ele>74.0</ele><time>2026-05-02T09:22:51.37Z</time></trkpt><trkpt lat="39.3947183" lon="8.40416"><ele>74.0</ele><time>2026-05-02T09:22:52.369Z</time></trkpt><trkpt lat="39.3945617" lon="8.4041333"><ele>71.75</ele><time>2026-05-02T09:22:53.38Z</time></trkpt><trkpt lat="39.3944433" lon="8.4041"><ele>69.5</ele><time>2026-05-02T09:22:54.372Z</time></trkpt><trkpt lat="39.3943783" lon="8.4040183"><ele>67.25</ele><time>2026-05-02T09:22:55.37Z</time></trkpt><trkpt lat="39.39426" lon="8.403965"><ele>65.0</ele><time>2026-05-02T09:22:56.374Z</time></trkpt><trkpt lat="39.3941333" lon="8.4039467"><ele>65.0</ele><time>2026-05-02T09:22:57.372Z</time></trkpt><trkpt lat="39.3940033" lon="8.4039467"><ele>65.0</ele><time>2026-05-02T09:22:58.376Z</time></trkpt><trkpt lat="39.3938733" lon="8.4039783"><ele>65.0</ele><time>2026-05-02T09:22:59.375Z</time></trkpt><trkpt lat="39.393745" lon="8.4040383"><ele>65.0</ele><time>2026-05-02T09:23:00.375Z</time></trkpt><trkpt lat="39.3936183" lon="8.4041417"><ele>61.66666666666667</ele><time>2026-05-02T09:23:01.376Z</time></trkpt><trkpt lat="39.3935" lon="8.40426"><ele>58.33333333333333</ele><time>2026-05-02T09:23:02.375Z</time></trkpt><trkpt lat="39.3933867" lon="8.4043917"><ele>55.0</ele><time>2026-05-02T09:23:03.372Z</time></trkpt><trkpt lat="39.3932617" lon="8.4045317"><ele>55.0</ele><time>2026-05-02T09:23:04.371Z</time></trkpt><trkpt lat="39.39314" lon="8.40463"><ele>55.0</ele><time>2026-05-02T09:23:05.372Z</time></trkpt><trkpt lat="39.39302" lon="8.4047217"><ele>55.0</ele><time>2026-05-02T09:23:06.372Z</time></trkpt><trkpt lat="39.3928917" lon="8.4047883"><ele>55.0</ele><time>2026-05-02T09:23:07.371Z</time></trkpt><trkpt lat="39.392765" lon="8.4048583"><ele>57.75</ele><time>2026-05-02T09:23:08.419Z</time></trkpt><trkpt lat="39.39264" lon="8.40492"><ele>60.5</ele><time>2026-05-02T09:23:09.372Z</time></trkpt><trkpt lat="39.392515" lon="8.404975"><ele>63.25</ele><time>2026-05-02T09:23:10.371Z</time></trkpt><trkpt lat="39.3924" lon="8.4050167"><ele>66.0</ele><time>2026-05-02T09:23:11.373Z</time></trkpt><trkpt lat="39.3922917" lon="8.4050483"><ele>66.0</ele><time>2026-05-02T09:23:12.374Z</time></trkpt><trkpt lat="39.3921867" lon="8.405095"><ele>66.0</ele><time>2026-05-02T09:23:13.373Z</time></trkpt><trkpt lat="39.3920833" lon="8.4051383"><ele>66.0</ele><time>2026-05-02T09:23:14.415Z</time></trkpt><trkpt lat="39.3919733" lon="8.405175"><ele>66.0</ele><time>2026-05-02T09:23:15.374Z</time></trkpt><trkpt lat="39.3918733" lon="8.4052017"><ele>66.0</ele><time>2026-05-02T09:23:16.374Z</time></trkpt><trkpt lat="39.3917733" lon="8.405235"><ele>66.16666666666667</ele><time>2026-05-02T09:23:17.374Z</time></trkpt><trkpt lat="39.3916683" lon="8.40526"><ele>66.33333333333333</ele><time>2026-05-02T09:23:18.372Z</time></trkpt><trkpt lat="39.3915733" lon="8.4052633"><ele>66.5</ele><time>2026-05-02T09:23:19.371Z</time></trkpt><trkpt lat="39.39151" lon="8.405265"><ele>66.66666666666666</ele><time>2026-05-02T09:23:20.415Z</time></trkpt><trkpt lat="39.39144" lon="8.4052183"><ele>66.83333333333333</ele><time>2026-05-02T09:23:22.373Z</time></trkpt><trkpt lat="39.3913783" lon="8.40518"><ele>67.0</ele><time>2026-05-02T09:23:26.394Z</time></trkpt><trkpt lat="39.3913183" lon="8.4052133"><ele>70.2</ele><time>2026-05-02T09:23:27.371Z</time></trkpt><trkpt lat="39.391245" lon="8.40524"><ele>73.4</ele><time>2026-05-02T09:23:28.372Z</time></trkpt><trkpt lat="39.39116" lon="8.4052783"><ele>76.60000000000001</ele><time>2026-05-02T09:23:29.374Z</time></trkpt><trkpt lat="39.3910567" lon="8.4053767"><ele>79.80000000000001</ele><time>2026-05-02T09:23:30.375Z</time></trkpt><trkpt lat="39.3909567" lon="8.4054583"><ele>83.0</ele><time>2026-05-02T09:23:31.372Z</time></trkpt><trkpt lat="39.3908533" lon="8.40556"><ele>83.0</ele><time>2026-05-02T09:23:32.423Z</time></trkpt><trkpt lat="39.390775" lon="8.4056483"><ele>83.0</ele><time>2026-05-02T09:23:33.373Z</time></trkpt><trkpt lat="39.3906583" lon="8.4057333"><ele>83.0</ele><time>2026-05-02T09:23:34.373Z</time></trkpt><trkpt lat="39.390535" lon="8.4057967"><ele>83.0</ele><time>2026-05-02T09:23:35.374Z</time></trkpt><trkpt lat="39.3904133" lon="8.4058733"><ele>84.5</ele><time>2026-05-02T09:23:36.374Z</time></trkpt><trkpt lat="39.390305" lon="8.4059517"><ele>86.0</ele><time>2026-05-02T09:23:37.374Z</time></trkpt><trkpt lat="39.3901883" lon="8.40603"><ele>87.5</ele><time>2026-05-02T09:23:38.415Z</time></trkpt><trkpt lat="39.3900917" lon="8.4060767"><ele>89.0</ele><time>2026-05-02T09:23:39.372Z</time></trkpt><trkpt lat="39.3899867" lon="8.4061283"><ele>89.0</ele><time>2026-05-02T09:23:40.37Z</time></trkpt><trkpt lat="39.3898783" lon="8.4061417"><ele>89.0</ele><time>2026-05-02T09:23:41.374Z</time></trkpt><trkpt lat="39.389765" lon="8.4061483"><ele>89.0</ele><time>2026-05-02T09:23:42.369Z</time></trkpt><trkpt lat="39.3896533" lon="8.4061333"><ele>89.0</ele><time>2026-05-02T09:23:43.374Z</time></trkpt><trkpt lat="39.3895183" lon="8.4060467"><ele>92.75</ele><time>2026-05-02T09:23:44.417Z</time></trkpt><trkpt lat="39.38939" lon="8.4060267"><ele>96.5</ele><time>2026-05-02T09:23:45.37Z</time></trkpt><trkpt lat="39.38926" lon="8.40602"><ele>100.25</ele><time>2026-05-02T09:23:46.374Z</time></trkpt><trkpt lat="39.389125" lon="8.4060483"><ele>104.0</ele><time>2026-05-02T09:23:47.371Z</time></trkpt><trkpt lat="39.3889867" lon="8.406085"><ele>104.0</ele><time>2026-05-02T09:23:48.373Z</time></trkpt><trkpt lat="39.388845" lon="8.4061283"><ele>104.0</ele><time>2026-05-02T09:23:49.369Z</time></trkpt><trkpt lat="39.388705" lon="8.4062083"><ele>104.0</ele><time>2026-05-02T09:23:50.412Z</time></trkpt><trkpt lat="39.388565" lon="8.406295"><ele>103.75</ele><time>2026-05-02T09:23:51.373Z</time></trkpt><trkpt lat="39.3884333" lon="8.4063883"><ele>103.5</ele><time>2026-05-02T09:23:52.368Z</time></trkpt><trkpt lat="39.3883067" lon="8.4064683"><ele>103.25</ele><time>2026-05-02T09:23:53.375Z</time></trkpt><trkpt lat="39.3881883" lon="8.40652"><ele>103.0</ele><time>2026-05-02T09:23:54.373Z</time></trkpt><trkpt lat="39.3880583" lon="8.4065283"><ele>106.0</ele><time>2026-05-02T09:23:55.373Z</time></trkpt><trkpt lat="39.3879183" lon="8.406495"><ele>109.0</ele><time>2026-05-02T09:23:56.395Z</time></trkpt><trkpt lat="39.3877517" lon="8.4064567"><ele>112.0</ele><time>2026-05-02T09:23:57.369Z</time></trkpt><trkpt lat="39.38758" lon="8.4064167"><ele>112.0</ele><time>2026-05-02T09:23:58.369Z</time></trkpt><trkpt lat="39.3874183" lon="8.4064"><ele>112.0</ele><time>2026-05-02T09:23:59.375Z</time></trkpt><trkpt lat="39.3872467" lon="8.4064083"><ele>112.0</ele><time>2026-05-02T09:24:00.371Z</time></trkpt><trkpt lat="39.3870683" lon="8.4064417"><ele>115.33333333333334</ele><time>2026-05-02T09:24:01.372Z</time></trkpt><trkpt lat="39.3868917" lon="8.4065"><ele>118.66666666666666</ele><time>2026-05-02T09:24:02.427Z</time></trkpt><trkpt lat="39.3867117" lon="8.4065667"><ele>122.0</ele><time>2026-05-02T09:24:03.374Z</time></trkpt><trkpt lat="39.3865467" lon="8.406625"><ele>122.0</ele><time>2026-05-02T09:24:04.373Z</time></trkpt><trkpt lat="39.38639" lon="8.4066833"><ele>122.0</ele><time>2026-05-02T09:24:05.368Z</time></trkpt><trkpt lat="39.3862467" lon="8.4067467"><ele>122.0</ele><time>2026-05-02T09:24:06.372Z</time></trkpt><trkpt lat="39.3861217" lon="8.406805"><ele>122.0</ele><time>2026-05-02T09:24:07.368Z</time></trkpt><trkpt lat="39.3860067" lon="8.4068617"><ele>125.25</ele><time>2026-05-02T09:24:08.412Z</time></trkpt><trkpt lat="39.3858933" lon="8.406875"><ele>128.5</ele><time>2026-05-02T09:24:09.371Z</time></trkpt><trkpt lat="39.3857583" lon="8.4068567"><ele>131.75</ele><time>2026-05-02T09:24:10.372Z</time></trkpt><trkpt lat="39.38565" lon="8.4068083"><ele>135.0</ele><time>2026-05-02T09:24:11.37Z</time></trkpt><trkpt lat="39.3855567" lon="8.4067367"><ele>139.8</ele><time>2026-05-02T09:24:12.373Z</time></trkpt><trkpt lat="39.3854467" lon="8.4066667"><ele>144.6</ele><time>2026-05-02T09:24:13.375Z</time></trkpt><trkpt lat="39.385385" lon="8.4065967"><ele>149.4</ele><time>2026-05-02T09:24:14.416Z</time></trkpt><trkpt lat="39.385325" lon="8.4064717"><ele>154.2</ele><time>2026-05-02T09:24:15.374Z</time></trkpt><trkpt lat="39.3852883" lon="8.4063267"><ele>159.0</ele><time>2026-05-02T09:24:16.374Z</time></trkpt><trkpt lat="39.3853117" lon="8.406175"><ele>156.66666666666666</ele><time>2026-05-02T09:24:17.376Z</time></trkpt><trkpt lat="39.3853833" lon="8.4060167"><ele>154.33333333333331</ele><time>2026-05-02T09:24:18.371Z</time></trkpt><trkpt lat="39.385475" lon="8.40585"><ele>152.0</ele><time>2026-05-02T09:24:19.369Z</time></trkpt><trkpt lat="39.3855833" lon="8.4056867"><ele>152.0</ele><time>2026-05-02T09:24:20.415Z</time></trkpt><trkpt lat="39.385695" lon="8.40555"><ele>152.0</ele><time>2026-05-02T09:24:21.367Z</time></trkpt><trkpt lat="39.3858333" lon="8.4054267"><ele>152.0</ele><time>2026-05-02T09:24:22.371Z</time></trkpt><trkpt lat="39.3859733" lon="8.4053217"><ele>153.33333333333331</ele><time>2026-05-02T09:24:23.371Z</time></trkpt><trkpt lat="39.3861117" lon="8.4052233"><ele>154.66666666666666</ele><time>2026-05-02T09:24:24.371Z</time></trkpt><trkpt lat="39.3862617" lon="8.405145"><ele>156.0</ele><time>2026-05-02T09:24:25.372Z</time></trkpt><trkpt lat="39.386405" lon="8.4050783"><ele>156.0</ele><time>2026-05-02T09:24:26.373Z</time></trkpt><trkpt lat="39.3865667" lon="8.4050133"><ele>156.0</ele><time>2026-05-02T09:24:27.371Z</time></trkpt><trkpt lat="39.386735" lon="8.4049583"><ele>156.0</ele><time>2026-05-02T09:24:28.373Z</time></trkpt><trkpt lat="39.386905" lon="8.40491"><ele>156.0</ele><time>2026-05-02T09:24:29.372Z</time></trkpt><trkpt lat="39.3870767" lon="8.4048633"><ele>156.0</ele><time>2026-05-02T09:24:30.375Z</time></trkpt><trkpt lat="39.3872317" lon="8.404825"><ele>156.0</ele><time>2026-05-02T09:24:31.369Z</time></trkpt><trkpt lat="39.3874283" lon="8.404785"><ele>152.5</ele><time>2026-05-02T09:24:32.398Z</time></trkpt><trkpt lat="39.38777" lon="8.40471"><ele>149.0</ele><time>2026-05-02T09:24:34.371Z</time></trkpt><trkpt lat="39.38791" lon="8.4046817"><ele>159.0</ele><time>2026-05-02T09:24:35.374Z</time></trkpt><trkpt lat="39.38805" lon="8.40466"><ele>169.0</ele><time>2026-05-02T09:24:36.37Z</time></trkpt><trkpt lat="39.3882117" lon="8.4046433"><ele>179.0</ele><time>2026-05-02T09:24:37.373Z</time></trkpt><trkpt lat="39.3884117" lon="8.404615"><ele>179.0</ele><time>2026-05-02T09:24:38.415Z</time></trkpt><trkpt lat="39.388585" lon="8.4045917"><ele>179.0</ele><time>2026-05-02T09:24:39.376Z</time></trkpt><trkpt lat="39.3887217" lon="8.40458"><ele>179.0</ele><time>2026-05-02T09:24:40.374Z</time></trkpt><trkpt lat="39.3888717" lon="8.4045517"><ele>176.66666666666666</ele><time>2026-05-02T09:24:41.372Z</time></trkpt><trkpt lat="39.3890317" lon="8.4045067"><ele>174.33333333333334</ele><time>2026-05-02T09:24:42.374Z</time></trkpt><trkpt lat="39.3891833" lon="8.404475"><ele>172.0</ele><time>2026-05-02T09:24:43.373Z</time></trkpt><trkpt lat="39.3893233" lon="8.40442"><ele>172.0</ele><time>2026-05-02T09:24:44.414Z</time></trkpt><trkpt lat="39.3894633" lon="8.40435"><ele>172.0</ele><time>2026-05-02T09:24:45.371Z</time></trkpt><trkpt lat="39.389605" lon="8.40429"><ele>172.0</ele><time>2026-05-02T09:24:46.373Z</time></trkpt><trkpt lat="39.3897433" lon="8.4042"><ele>165.0</ele><time>2026-05-02T09:24:47.37Z</time></trkpt><trkpt lat="39.38988" lon="8.4041117"><ele>158.0</ele><time>2026-05-02T09:24:48.374Z</time></trkpt><trkpt lat="39.390025" lon="8.4040217"><ele>151.0</ele><time>2026-05-02T09:24:49.369Z</time></trkpt><trkpt lat="39.39015" lon="8.403945"><ele>151.0</ele><time>2026-05-02T09:24:50.409Z</time></trkpt><trkpt lat="39.3902633" lon="8.4038617"><ele>151.0</ele><time>2026-05-02T09:24:51.371Z</time></trkpt><trkpt lat="39.3903683" lon="8.4037683"><ele>151.0</ele><time>2026-05-02T09:24:52.372Z</time></trkpt><trkpt lat="39.39047" lon="8.4036717"><ele>151.0</ele><time>2026-05-02T09:24:53.374Z</time></trkpt><trkpt lat="39.39057" lon="8.4035867"><ele>153.0</ele><time>2026-05-02T09:24:54.375Z</time></trkpt><trkpt lat="39.3906717" lon="8.40352"><ele>155.0</ele><time>2026-05-02T09:24:55.37Z</time></trkpt><trkpt lat="39.3907883" lon="8.4034517"><ele>157.0</ele><time>2026-05-02T09:24:56.432Z</time></trkpt><trkpt lat="39.3909067" lon="8.4033867"><ele>159.0</ele><time>2026-05-02T09:24:57.371Z</time></trkpt><trkpt lat="39.3910233" lon="8.4033283"><ele>159.0</ele><time>2026-05-02T09:24:58.372Z</time></trkpt><trkpt lat="39.3911233" lon="8.403295"><ele>159.0</ele><time>2026-05-02T09:24:59.371Z</time></trkpt><trkpt lat="39.3912217" lon="8.40324"><ele>159.0</ele><time>2026-05-02T09:25:00.372Z</time></trkpt><trkpt lat="39.3913017" lon="8.4031733"><ele>159.0</ele><time>2026-05-02T09:25:01.371Z</time></trkpt><trkpt lat="39.3913633" lon="8.4030933"><ele>159.0</ele><time>2026-05-02T09:25:02.397Z</time></trkpt><trkpt lat="39.3914217" lon="8.4030233"><ele>158.28571428571428</ele><time>2026-05-02T09:25:03.369Z</time></trkpt><trkpt lat="39.3914767" lon="8.4029483"><ele>157.57142857142858</ele><time>2026-05-02T09:25:04.37Z</time></trkpt><trkpt lat="39.3915283" lon="8.4028683"><ele>156.85714285714286</ele><time>2026-05-02T09:25:05.369Z</time></trkpt><trkpt lat="39.391575" lon="8.4027917"><ele>156.14285714285714</ele><time>2026-05-02T09:25:06.372Z</time></trkpt><trkpt lat="39.3916083" lon="8.40272"><ele>155.42857142857144</ele><time>2026-05-02T09:25:07.372Z</time></trkpt><trkpt lat="39.39164" lon="8.4026333"><ele>154.71428571428572</ele><time>2026-05-02T09:25:09.369Z</time></trkpt><trkpt lat="39.3915767" lon="8.4026667"><ele>154.0</ele><time>2026-05-02T09:25:11.373Z</time></trkpt><trkpt lat="39.3915217" lon="8.4027317"><ele>154.0</ele><time>2026-05-02T09:25:12.371Z</time></trkpt><trkpt lat="39.391455" lon="8.4028317"><ele>154.0</ele><time>2026-05-02T09:25:13.374Z</time></trkpt><trkpt lat="39.3913967" lon="8.4029417"><ele>154.0</ele><time>2026-05-02T09:25:14.414Z</time></trkpt><trkpt lat="39.3913217" lon="8.4030533"><ele>154.0</ele><time>2026-05-02T09:25:15.369Z</time></trkpt><trkpt lat="39.3912333" lon="8.4031583"><ele>154.0</ele><time>2026-05-02T09:25:16.372Z</time></trkpt><trkpt lat="39.3911283" lon="8.4032583"><ele>155.25</ele><time>2026-05-02T09:25:17.367Z</time></trkpt><trkpt lat="39.3910067" lon="8.403345"><ele>156.5</ele><time>2026-05-02T09:25:18.373Z</time></trkpt><trkpt lat="39.3908633" lon="8.4034267"><ele>157.75</ele><time>2026-05-02T09:25:19.371Z</time></trkpt><trkpt lat="39.3907317" lon="8.4035017"><ele>159.0</ele><time>2026-05-02T09:25:20.414Z</time></trkpt><trkpt lat="39.3906" lon="8.4035817"><ele>156.33333333333334</ele><time>2026-05-02T09:25:21.37Z</time></trkpt><trkpt lat="39.3904617" lon="8.40367"><ele>153.66666666666669</ele><time>2026-05-02T09:25:22.371Z</time></trkpt><trkpt lat="39.3903217" lon="8.4037867"><ele>151.0</ele><time>2026-05-02T09:25:23.374Z</time></trkpt><trkpt lat="39.3901733" lon="8.4039017"><ele>151.0</ele><time>2026-05-02T09:25:24.37Z</time></trkpt><trkpt lat="39.3900417" lon="8.4040367"><ele>151.0</ele><time>2026-05-02T09:25:25.372Z</time></trkpt><trkpt lat="39.38991" lon="8.4041317"><ele>151.0</ele><time>2026-05-02T09:25:26.432Z</time></trkpt><trkpt lat="39.38977" lon="8.4042383"><ele>158.0</ele><time>2026-05-02T09:25:27.371Z</time></trkpt><trkpt lat="39.3896217" lon="8.4043367"><ele>165.0</ele><time>2026-05-02T09:25:28.372Z</time></trkpt><trkpt lat="39.3894833" lon="8.40441"><ele>172.0</ele><time>2026-05-02T09:25:29.372Z</time></trkpt><trkpt lat="39.3893433" lon="8.4044833"><ele>172.0</ele><time>2026-05-02T09:25:30.373Z</time></trkpt><trkpt lat="39.3892033" lon="8.4045533"><ele>172.0</ele><time>2026-05-02T09:25:31.372Z</time></trkpt><trkpt lat="39.389065" lon="8.4046183"><ele>172.0</ele><time>2026-05-02T09:25:32.374Z</time></trkpt><trkpt lat="39.3889267" lon="8.40467"><ele>172.0</ele><time>2026-05-02T09:25:33.372Z</time></trkpt><trkpt lat="39.388785" lon="8.40472"><ele>164.75</ele><time>2026-05-02T09:25:34.373Z</time></trkpt><trkpt lat="39.3886433" lon="8.4047533"><ele>157.5</ele><time>2026-05-02T09:25:35.37Z</time></trkpt><trkpt lat="39.3885033" lon="8.4047783"><ele>150.25</ele><time>2026-05-02T09:25:36.374Z</time></trkpt><trkpt lat="39.38837" lon="8.4048033"><ele>143.0</ele><time>2026-05-02T09:25:37.374Z</time></trkpt><trkpt lat="39.3882417" lon="8.404815"><ele>143.0</ele><time>2026-05-02T09:25:38.414Z</time></trkpt><trkpt lat="39.388125" lon="8.4048317"><ele>143.0</ele><time>2026-05-02T09:25:39.372Z</time></trkpt><trkpt lat="39.38801" lon="8.40484"><ele>143.0</ele><time>2026-05-02T09:25:40.373Z</time></trkpt><trkpt lat="39.387895" lon="8.4048283"><ele>143.0</ele><time>2026-05-02T09:25:41.369Z</time></trkpt><trkpt lat="39.3877917" lon="8.4048433"><ele>144.20000000000002</ele><time>2026-05-02T09:25:42.371Z</time></trkpt><trkpt lat="39.3876817" lon="8.4048517"><ele>145.4</ele><time>2026-05-02T09:25:43.372Z</time></trkpt><trkpt lat="39.3875817" lon="8.4048683"><ele>146.60000000000002</ele><time>2026-05-02T09:25:44.415Z</time></trkpt><trkpt lat="39.38748" lon="8.40488"><ele>147.8</ele><time>2026-05-02T09:25:45.371Z</time></trkpt><trkpt lat="39.387385" lon="8.4049"><ele>149.0</ele><time>2026-05-02T09:25:46.372Z</time></trkpt><trkpt lat="39.387295" lon="8.4048983"><ele>149.0</ele><time>2026-05-02T09:25:47.372Z</time></trkpt><trkpt lat="39.3872167" lon="8.4049017"><ele>149.0</ele><time>2026-05-02T09:25:48.372Z</time></trkpt><trkpt lat="39.3871517" lon="8.4049083"><ele>149.0</ele><time>2026-05-02T09:25:49.372Z</time></trkpt><trkpt lat="39.38705" lon="8.4049317"><ele>149.0</ele><time>2026-05-02T09:25:51.373Z</time></trkpt><trkpt lat="39.3869783" lon="8.4049383"><ele>149.0</ele><time>2026-05-02T09:25:53.371Z</time></trkpt><trkpt lat="39.3869" lon="8.40493"><ele>149.0</ele><time>2026-05-02T09:25:55.374Z</time></trkpt><trkpt lat="39.3867917" lon="8.4049183"><ele>150.0</ele><time>2026-05-02T09:25:57.372Z</time></trkpt><trkpt lat="39.3867267" lon="8.4049133"><ele>151.0</ele><time>2026-05-02T09:25:58.372Z</time></trkpt><trkpt lat="39.38666" lon="8.4049133"><ele>152.0</ele><time>2026-05-02T09:25:59.37Z</time></trkpt><trkpt lat="39.38659" lon="8.40493"><ele>153.0</ele><time>2026-05-02T09:26:00.373Z</time></trkpt><trkpt lat="39.3865217" lon="8.4049367"><ele>154.0</ele><time>2026-05-02T09:26:01.373Z</time></trkpt><trkpt lat="39.3864567" lon="8.404935"><ele>155.0</ele><time>2026-05-02T09:26:02.396Z</time></trkpt><trkpt lat="39.3863933" lon="8.404955"><ele>156.0</ele><time>2026-05-02T09:26:03.372Z</time></trkpt><trkpt lat="39.386335" lon="8.4049917"><ele>160.4</ele><time>2026-05-02T09:26:04.367Z</time></trkpt><trkpt lat="39.3862817" lon="8.4050433"><ele>164.8</ele><time>2026-05-02T09:26:05.374Z</time></trkpt><trkpt lat="39.38623" lon="8.4051"><ele>169.20000000000002</ele><time>2026-05-02T09:26:06.373Z</time></trkpt><trkpt lat="39.3861833" lon="8.4051633"><ele>173.6</ele><time>2026-05-02T09:26:07.374Z</time></trkpt><trkpt lat="39.3861" lon="8.4052783"><ele>178.0</ele><time>2026-05-02T09:26:09.367Z</time></trkpt><trkpt lat="39.3860117" lon="8.405395"><ele>177.99999999999997</ele><time>2026-05-02T09:26:11.372Z</time></trkpt><trkpt lat="39.3859617" lon="8.4054467"><ele>178.0</ele><time>2026-05-02T09:26:12.373Z</time></trkpt><trkpt lat="39.3859067" lon="8.4054917"><ele>178.0</ele><time>2026-05-02T09:26:13.371Z</time></trkpt><trkpt lat="39.385845" lon="8.405535"><ele>178.0</ele><time>2026-05-02T09:26:14.413Z</time></trkpt><trkpt lat="39.38578" lon="8.4055767"><ele>178.0</ele><time>2026-05-02T09:26:15.374Z</time></trkpt><trkpt lat="39.38571" lon="8.40562"><ele>177.99999999999997</ele><time>2026-05-02T09:26:16.372Z</time></trkpt><trkpt lat="39.3856367" lon="8.405665"><ele>178.0</ele><time>2026-05-02T09:26:17.371Z</time></trkpt><trkpt lat="39.38556" lon="8.40571"><ele>178.5</ele><time>2026-05-02T09:26:18.372Z</time></trkpt><trkpt lat="39.38548" lon="8.40576"><ele>179.0</ele><time>2026-05-02T09:26:19.372Z</time></trkpt><trkpt lat="39.3854017" lon="8.405805"><ele>179.5</ele><time>2026-05-02T09:26:20.414Z</time></trkpt><trkpt lat="39.385325" lon="8.4058417"><ele>180.0</ele><time>2026-05-02T09:26:21.367Z</time></trkpt><trkpt lat="39.3852533" lon="8.4058733"><ele>180.5</ele><time>2026-05-02T09:26:22.372Z</time></trkpt><trkpt lat="39.38518" lon="8.405905"><ele>181.0</ele><time>2026-05-02T09:26:23.374Z</time></trkpt><trkpt lat="39.3851083" lon="8.405935"><ele>181.0</ele><time>2026-05-02T09:26:24.374Z</time></trkpt><trkpt lat="39.3850367" lon="8.4059633"><ele>181.0</ele><time>2026-05-02T09:26:25.371Z</time></trkpt><trkpt lat="39.3849683" lon="8.40599"><ele>181.0</ele><time>2026-05-02T09:26:26.437Z</time></trkpt><trkpt lat="39.3849033" lon="8.4060167"><ele>181.0</ele><time>2026-05-02T09:26:27.375Z</time></trkpt><trkpt lat="39.3848383" lon="8.4060433"><ele>181.0</ele><time>2026-05-02T09:26:28.372Z</time></trkpt><trkpt lat="39.3847717" lon="8.40607"><ele>181.0</ele><time>2026-05-02T09:26:29.368Z</time></trkpt><trkpt lat="39.3847067" lon="8.406105"><ele>181.0</ele><time>2026-05-02T09:26:30.372Z</time></trkpt><trkpt lat="39.3846433" lon="8.4061433"><ele>181.0</ele><time>2026-05-02T09:26:31.373Z</time></trkpt><trkpt lat="39.3845833" lon="8.4061833"><ele>181.0</ele><time>2026-05-02T09:26:32.396Z</time></trkpt><trkpt lat="39.3845267" lon="8.4062267"><ele>181.0</ele><time>2026-05-02T09:26:33.369Z</time></trkpt><trkpt lat="39.3844317" lon="8.406305"><ele>181.0</ele><time>2026-05-02T09:26:35.371Z</time></trkpt><trkpt lat="39.3843633" lon="8.4063483"><ele>181.0</ele><time>2026-05-02T09:26:37.374Z</time></trkpt><trkpt lat="39.3843033" lon="8.4063233"><ele>181.0</ele><time>2026-05-02T09:26:39.373Z</time></trkpt><trkpt lat="39.384265" lon="8.4062533"><ele>185.5</ele><time>2026-05-02T09:26:41.372Z</time></trkpt><trkpt lat="39.3842817" lon="8.4061633"><ele>190.0</ele><time>2026-05-02T09:26:43.374Z</time></trkpt><trkpt lat="39.3843367" lon="8.4060817"><ele>194.5</ele><time>2026-05-02T09:26:45.374Z</time></trkpt><trkpt lat="39.3843417" lon="8.406"><ele>199.0</ele><time>2026-05-02T09:26:47.371Z</time></trkpt><trkpt lat="39.3842583" lon="8.405955"><ele>203.49999999999997</ele><time>2026-05-02T09:26:59.37Z</time></trkpt><trkpt lat="39.3841383" lon="8.406025"><ele>208.0</ele><time>2026-05-02T09:27:01.373Z</time></trkpt><trkpt lat="39.3840717" lon="8.4060767"><ele>207.99999999999997</ele><time>2026-05-02T09:27:02.372Z</time></trkpt><trkpt lat="39.384" lon="8.4061467"><ele>208.0</ele><time>2026-05-02T09:27:03.369Z</time></trkpt><trkpt lat="39.3839433" lon="8.4062233"><ele>208.0</ele><time>2026-05-02T09:27:04.372Z</time></trkpt><trkpt lat="39.3838933" lon="8.4062967"><ele>208.0</ele><time>2026-05-02T09:27:05.372Z</time></trkpt><trkpt lat="39.38384" lon="8.4063483"><ele>207.99999999999997</ele><time>2026-05-02T09:27:06.371Z</time></trkpt><trkpt lat="39.3837683" lon="8.406275"><ele>208.0</ele><time>2026-05-02T09:27:09.37Z</time></trkpt><trkpt lat="39.3837517" lon="8.4061133"><ele>208.0</ele><time>2026-05-02T09:27:11.372Z</time></trkpt><trkpt lat="39.3837617" lon="8.4060233"><ele>208.0</ele><time>2026-05-02T09:27:12.368Z</time></trkpt><trkpt lat="39.3837917" lon="8.4059367"><ele>208.0</ele><time>2026-05-02T09:27:13.372Z</time></trkpt><trkpt lat="39.3838333" lon="8.405875"><ele>208.0</ele><time>2026-05-02T09:27:14.411Z</time></trkpt><trkpt lat="39.3838833" lon="8.4057633"><ele>208.0</ele><time>2026-05-02T09:27:16.37Z</time></trkpt><trkpt lat="39.38387" lon="8.40568"><ele>208.0</ele><time>2026-05-02T09:27:18.369Z</time></trkpt><trkpt lat="39.3838033" lon="8.4056867"><ele>208.0</ele><time>2026-05-02T09:27:19.371Z</time></trkpt><trkpt lat="39.3836817" lon="8.4057183"><ele>214.0</ele><time>2026-05-02T09:27:21.37Z</time></trkpt><trkpt lat="39.383595" lon="8.40577"><ele>220.0</ele><time>2026-05-02T09:27:22.37Z</time></trkpt><trkpt lat="39.3835017" lon="8.405845"><ele>226.0</ele><time>2026-05-02T09:27:23.372Z</time></trkpt><trkpt lat="39.3834183" lon="8.40594"><ele>232.0</ele><time>2026-05-02T09:27:24.371Z</time></trkpt><trkpt lat="39.3833117" lon="8.4060433"><ele>232.0</ele><time>2026-05-02T09:27:25.371Z</time></trkpt><trkpt lat="39.383195" lon="8.4060983"><ele>232.0</ele><time>2026-05-02T09:27:26.437Z</time></trkpt><trkpt lat="39.383075" lon="8.4061533"><ele>232.0</ele><time>2026-05-02T09:27:27.37Z</time></trkpt><trkpt lat="39.3829733" lon="8.4061633"><ele>232.0</ele><time>2026-05-02T09:27:28.372Z</time></trkpt><trkpt lat="39.3828767" lon="8.406205"><ele>232.25</ele><time>2026-05-02T09:27:29.371Z</time></trkpt><trkpt lat="39.3827583" lon="8.4062983"><ele>232.5</ele><time>2026-05-02T09:27:30.373Z</time></trkpt><trkpt lat="39.38266" lon="8.406375"><ele>232.75</ele><time>2026-05-02T09:27:31.373Z</time></trkpt><trkpt lat="39.3825383" lon="8.40646"><ele>233.0</ele><time>2026-05-02T09:27:32.374Z</time></trkpt><trkpt lat="39.3824117" lon="8.4065467"><ele>233.0</ele><time>2026-05-02T09:27:33.37Z</time></trkpt><trkpt lat="39.382285" lon="8.40663"><ele>233.0</ele><time>2026-05-02T09:27:34.373Z</time></trkpt><trkpt lat="39.3821583" lon="8.4067233"><ele>233.0</ele><time>2026-05-02T09:27:35.373Z</time></trkpt><trkpt lat="39.3820533" lon="8.4068333"><ele>233.0</ele><time>2026-05-02T09:27:36.373Z</time></trkpt><trkpt lat="39.3819517" lon="8.4069283"><ele>238.75</ele><time>2026-05-02T09:27:37.369Z</time></trkpt><trkpt lat="39.38186" lon="8.4070283"><ele>244.5</ele><time>2026-05-02T09:27:38.414Z</time></trkpt><trkpt lat="39.3817883" lon="8.4071567"><ele>250.25</ele><time>2026-05-02T09:27:39.374Z</time></trkpt><trkpt lat="39.3817217" lon="8.4072683"><ele>256.0</ele><time>2026-05-02T09:27:40.373Z</time></trkpt><trkpt lat="39.3816617" lon="8.40737"><ele>256.0</ele><time>2026-05-02T09:27:41.373Z</time></trkpt><trkpt lat="39.3816133" lon="8.407445"><ele>256.0</ele><time>2026-05-02T09:27:42.374Z</time></trkpt><trkpt lat="39.3815217" lon="8.407505"><ele>256.0</ele><time>2026-05-02T09:27:44.415Z</time></trkpt><trkpt lat="39.38151" lon="8.4074083"><ele>256.0</ele><time>2026-05-02T09:27:46.372Z</time></trkpt><trkpt lat="39.381545" lon="8.40723"><ele>256.0</ele><time>2026-05-02T09:27:48.373Z</time></trkpt><trkpt lat="39.3815733" lon="8.40714"><ele>257.3333333333333</ele><time>2026-05-02T09:27:49.373Z</time></trkpt><trkpt lat="39.38162" lon="8.40704"><ele>258.66666666666663</ele><time>2026-05-02T09:27:50.413Z</time></trkpt><trkpt lat="39.38164" lon="8.4069617"><ele>260.0</ele><time>2026-05-02T09:27:51.37Z</time></trkpt><trkpt lat="39.381645" lon="8.4068567"><ele>261.3333333333333</ele><time>2026-05-02T09:27:53.374Z</time></trkpt><trkpt lat="39.3815367" lon="8.4069417"><ele>262.6666666666667</ele><time>2026-05-02T09:27:57.372Z</time></trkpt><trkpt lat="39.3814783" lon="8.4070217"><ele>264.0</ele><time>2026-05-02T09:27:58.37Z</time></trkpt><trkpt lat="39.3813867" lon="8.4071317"><ele>266.25</ele><time>2026-05-02T09:27:59.372Z</time></trkpt><trkpt lat="39.3812867" lon="8.407235"><ele>268.5</ele><time>2026-05-02T09:28:00.374Z</time></trkpt><trkpt lat="39.3811933" lon="8.4073167"><ele>270.75</ele><time>2026-05-02T09:28:01.37Z</time></trkpt><trkpt lat="39.3811067" lon="8.40739"><ele>273.0</ele><time>2026-05-02T09:28:02.394Z</time></trkpt><trkpt lat="39.3810183" lon="8.4074883"><ele>273.0</ele><time>2026-05-02T09:28:03.369Z</time></trkpt><trkpt lat="39.3809433" lon="8.4075567"><ele>273.0</ele><time>2026-05-02T09:28:04.372Z</time></trkpt><trkpt lat="39.3808717" lon="8.4076117"><ele>273.0</ele><time>2026-05-02T09:28:05.37Z</time></trkpt><trkpt lat="39.380805" lon="8.4076533"><ele>273.0</ele><time>2026-05-02T09:28:06.373Z</time></trkpt><trkpt lat="39.3807367" lon="8.4076833"><ele>273.0</ele><time>2026-05-02T09:28:07.373Z</time></trkpt><trkpt lat="39.38066" lon="8.40771"><ele>273.0</ele><time>2026-05-02T09:28:08.416Z</time></trkpt><trkpt lat="39.3805817" lon="8.40773"><ele>276.6</ele><time>2026-05-02T09:28:09.371Z</time></trkpt><trkpt lat="39.3804917" lon="8.40775"><ele>280.20000000000005</ele><time>2026-05-02T09:28:10.372Z</time></trkpt><trkpt lat="39.3803983" lon="8.4077633"><ele>283.8</ele><time>2026-05-02T09:28:11.371Z</time></trkpt><trkpt lat="39.38029" lon="8.4077767"><ele>287.40000000000003</ele><time>2026-05-02T09:28:12.37Z</time></trkpt><trkpt lat="39.3801783" lon="8.407805"><ele>291.0</ele><time>2026-05-02T09:28:13.37Z</time></trkpt><trkpt lat="39.3800633" lon="8.407845"><ele>291.0</ele><time>2026-05-02T09:28:14.414Z</time></trkpt><trkpt lat="39.379945" lon="8.4079033"><ele>291.0</ele><time>2026-05-02T09:28:15.367Z</time></trkpt><trkpt lat="39.3798283" lon="8.4079667"><ele>291.0</ele><time>2026-05-02T09:28:16.372Z</time></trkpt><trkpt lat="39.3797067" lon="8.4080283"><ele>291.0</ele><time>2026-05-02T09:28:17.371Z</time></trkpt><trkpt lat="39.3795867" lon="8.4081083"><ele>291.0</ele><time>2026-05-02T09:28:18.372Z</time></trkpt><trkpt lat="39.3795" lon="8.40822"><ele>291.0</ele><time>2026-05-02T09:28:19.37Z</time></trkpt><trkpt lat="39.379405" lon="8.4083183"><ele>291.0</ele><time>2026-05-02T09:28:20.409Z</time></trkpt><trkpt lat="39.3793067" lon="8.4083967"><ele>291.0</ele><time>2026-05-02T09:28:21.371Z</time></trkpt><trkpt lat="39.3792133" lon="8.4084617"><ele>291.0</ele><time>2026-05-02T09:28:22.373Z</time></trkpt><trkpt lat="39.37911" lon="8.4085183"><ele>291.0</ele><time>2026-05-02T09:28:23.372Z</time></trkpt><trkpt lat="39.379025" lon="8.408565"><ele>291.0</ele><time>2026-05-02T09:28:24.369Z</time></trkpt><trkpt lat="39.37895" lon="8.4085983"><ele>291.0</ele><time>2026-05-02T09:28:25.371Z</time></trkpt><trkpt lat="39.37889" lon="8.4086367"><ele>291.0</ele><time>2026-05-02T09:28:26.382Z</time></trkpt><trkpt lat="39.3788" lon="8.40872"><ele>288.8</ele><time>2026-05-02T09:28:28.37Z</time></trkpt><trkpt lat="39.37872" lon="8.4088167"><ele>286.6</ele><time>2026-05-02T09:28:30.371Z</time></trkpt><trkpt lat="39.378655" lon="8.4089433"><ele>284.4</ele><time>2026-05-02T09:28:32.406Z</time></trkpt><trkpt lat="39.378635" lon="8.4090217"><ele>282.2</ele><time>2026-05-02T09:28:33.372Z</time></trkpt><trkpt lat="39.37861" lon="8.409165"><ele>280.0</ele><time>2026-05-02T09:28:35.373Z</time></trkpt><trkpt lat="39.3786067" lon="8.409325"><ele>279.6</ele><time>2026-05-02T09:28:37.372Z</time></trkpt><trkpt lat="39.3786183" lon="8.4094183"><ele>279.2</ele><time>2026-05-02T09:28:38.416Z</time></trkpt><trkpt lat="39.3786483" lon="8.4095233"><ele>278.8</ele><time>2026-05-02T09:28:39.374Z</time></trkpt><trkpt lat="39.3786817" lon="8.4096333"><ele>278.4</ele><time>2026-05-02T09:28:40.374Z</time></trkpt><trkpt lat="39.3787367" lon="8.4097683"><ele>278.0</ele><time>2026-05-02T09:28:41.374Z</time></trkpt><trkpt lat="39.3788" lon="8.4099"><ele>282.6</ele><time>2026-05-02T09:28:42.377Z</time></trkpt><trkpt lat="39.3788533" lon="8.4100333"><ele>287.20000000000005</ele><time>2026-05-02T09:28:43.373Z</time></trkpt><trkpt lat="39.3789117" lon="8.4101667"><ele>291.8</ele><time>2026-05-02T09:28:44.414Z</time></trkpt><trkpt lat="39.3789667" lon="8.41029"><ele>296.40000000000003</ele><time>2026-05-02T09:28:45.367Z</time></trkpt><trkpt lat="39.3790183" lon="8.4104067"><ele>301.0</ele><time>2026-05-02T09:28:46.372Z</time></trkpt><trkpt lat="39.3790783" lon="8.4105267"><ele>301.0</ele><time>2026-05-02T09:28:47.372Z</time></trkpt><trkpt lat="39.3791317" lon="8.4106417"><ele>301.0</ele><time>2026-05-02T09:28:48.371Z</time></trkpt><trkpt lat="39.3791717" lon="8.410755"><ele>301.0</ele><time>2026-05-02T09:28:49.371Z</time></trkpt><trkpt lat="39.3792017" lon="8.4108717"><ele>301.0</ele><time>2026-05-02T09:28:50.412Z</time></trkpt><trkpt lat="39.3792233" lon="8.4109933"><ele>301.0</ele><time>2026-05-02T09:28:51.37Z</time></trkpt><trkpt lat="39.3792433" lon="8.4111217"><ele>301.0</ele><time>2026-05-02T09:28:52.374Z</time></trkpt><trkpt lat="39.3792517" lon="8.4112533"><ele>301.0</ele><time>2026-05-02T09:28:53.37Z</time></trkpt><trkpt lat="39.3792667" lon="8.4113817"><ele>301.0</ele><time>2026-05-02T09:28:54.372Z</time></trkpt><trkpt lat="39.379285" lon="8.4114783"><ele>301.0</ele><time>2026-05-02T09:28:55.375Z</time></trkpt><trkpt lat="39.3793117" lon="8.4115883"><ele>301.0</ele><time>2026-05-02T09:28:56.437Z</time></trkpt><trkpt lat="39.3793433" lon="8.4116867"><ele>301.66666666666663</ele><time>2026-05-02T09:28:57.372Z</time></trkpt><trkpt lat="39.3793583" lon="8.4117683"><ele>302.3333333333333</ele><time>2026-05-02T09:28:58.369Z</time></trkpt><trkpt lat="39.3793417" lon="8.4119067"><ele>303.0</ele><time>2026-05-02T09:29:00.374Z</time></trkpt><trkpt lat="39.3792767" lon="8.4119783"><ele>303.6666666666667</ele><time>2026-05-02T09:29:02.424Z</time></trkpt><trkpt lat="39.3791983" lon="8.4119383"><ele>304.33333333333337</ele><time>2026-05-02T09:29:03.374Z</time></trkpt><trkpt lat="39.3791367" lon="8.4119033"><ele>305.0</ele><time>2026-05-02T09:29:04.372Z</time></trkpt><trkpt lat="39.379075" lon="8.4118517"><ele>305.0</ele><time>2026-05-02T09:29:05.373Z</time></trkpt><trkpt lat="39.3790217" lon="8.41178"><ele>305.0</ele><time>2026-05-02T09:29:06.373Z</time></trkpt><trkpt lat="39.3789633" lon="8.4116967"><ele>305.0</ele><time>2026-05-02T09:29:07.37Z</time></trkpt><trkpt lat="39.3789017" lon="8.4115917"><ele>305.0</ele><time>2026-05-02T09:29:08.414Z</time></trkpt><trkpt lat="39.37884" lon="8.4115017"><ele>305.0</ele><time>2026-05-02T09:29:09.373Z</time></trkpt><trkpt lat="39.3787783" lon="8.4114267"><ele>305.0</ele><time>2026-05-02T09:29:10.372Z</time></trkpt><trkpt lat="39.37871" lon="8.4113633"><ele>303.5</ele><time>2026-05-02T09:29:11.37Z</time></trkpt><trkpt lat="39.3786183" lon="8.411295"><ele>302.0</ele><time>2026-05-02T09:29:12.372Z</time></trkpt><trkpt lat="39.3785183" lon="8.4112383"><ele>300.5</ele><time>2026-05-02T09:29:13.373Z</time></trkpt><trkpt lat="39.3784" lon="8.4111717"><ele>299.0</ele><time>2026-05-02T09:29:14.409Z</time></trkpt><trkpt lat="39.378265" lon="8.41113"><ele>299.0</ele><time>2026-05-02T09:29:15.374Z</time></trkpt><trkpt lat="39.3781517" lon="8.4111"><ele>299.0</ele><time>2026-05-02T09:29:16.372Z</time></trkpt><trkpt lat="39.37807" lon="8.4110417"><ele>299.0</ele><time>2026-05-02T09:29:17.371Z</time></trkpt><trkpt lat="39.3779783" lon="8.4109467"><ele>299.0</ele><time>2026-05-02T09:29:18.368Z</time></trkpt><trkpt lat="39.3779017" lon="8.4108733"><ele>299.0</ele><time>2026-05-02T09:29:19.374Z</time></trkpt><trkpt lat="39.3778083" lon="8.4108"><ele>297.0</ele><time>2026-05-02T09:29:20.412Z</time></trkpt><trkpt lat="39.3777183" lon="8.4107317"><ele>295.0</ele><time>2026-05-02T09:29:21.374Z</time></trkpt><trkpt lat="39.3776283" lon="8.410675"><ele>293.0</ele><time>2026-05-02T09:29:22.373Z</time></trkpt><trkpt lat="39.37754" lon="8.41061"><ele>291.0</ele><time>2026-05-02T09:29:23.374Z</time></trkpt><trkpt lat="39.3774517" lon="8.4105483"><ele>289.0</ele><time>2026-05-02T09:29:24.374Z</time></trkpt><trkpt lat="39.3773633" lon="8.4104883"><ele>289.0</ele><time>2026-05-02T09:29:25.371Z</time></trkpt><trkpt lat="39.3772783" lon="8.4104367"><ele>289.0</ele><time>2026-05-02T09:29:26.37Z</time></trkpt><trkpt lat="39.3771917" lon="8.4104017"><ele>289.0</ele><time>2026-05-02T09:29:27.373Z</time></trkpt><trkpt lat="39.3771033" lon="8.4103767"><ele>289.0</ele><time>2026-05-02T09:29:28.372Z</time></trkpt><trkpt lat="39.37702" lon="8.4103717"><ele>289.0</ele><time>2026-05-02T09:29:29.366Z</time></trkpt><trkpt lat="39.37694" lon="8.4103783"><ele>289.0</ele><time>2026-05-02T09:29:30.37Z</time></trkpt><trkpt lat="39.376855" lon="8.4103967"><ele>290.66666666666663</ele><time>2026-05-02T09:29:31.368Z</time></trkpt><trkpt lat="39.3767633" lon="8.4104417"><ele>292.3333333333333</ele><time>2026-05-02T09:29:32.428Z</time></trkpt><trkpt lat="39.3767033" lon="8.4105033"><ele>294.0</ele><time>2026-05-02T09:29:33.374Z</time></trkpt><trkpt lat="39.37664" lon="8.4105617"><ele>295.6666666666667</ele><time>2026-05-02T09:29:34.373Z</time></trkpt><trkpt lat="39.376565" lon="8.41066"><ele>297.33333333333337</ele><time>2026-05-02T09:29:35.372Z</time></trkpt><trkpt lat="39.3764967" lon="8.4107267"><ele>299.0</ele><time>2026-05-02T09:29:36.37Z</time></trkpt><trkpt lat="39.3763983" lon="8.410775"><ele>304.0</ele><time>2026-05-02T09:29:37.372Z</time></trkpt><trkpt lat="39.3762917" lon="8.4108183"><ele>309.0</ele><time>2026-05-02T09:29:38.416Z</time></trkpt><trkpt lat="39.3761783" lon="8.4108233"><ele>314.0</ele><time>2026-05-02T09:29:39.372Z</time></trkpt><trkpt lat="39.376065" lon="8.410805"><ele>319.0</ele><time>2026-05-02T09:29:40.373Z</time></trkpt><trkpt lat="39.375955" lon="8.4108117"><ele>324.0</ele><time>2026-05-02T09:29:41.375Z</time></trkpt><trkpt lat="39.375855" lon="8.4108533"><ele>324.0</ele><time>2026-05-02T09:29:42.371Z</time></trkpt><trkpt lat="39.375765" lon="8.4108817"><ele>324.0</ele><time>2026-05-02T09:29:43.374Z</time></trkpt><trkpt lat="39.375695" lon="8.410915"><ele>324.0</ele><time>2026-05-02T09:29:44.414Z</time></trkpt><trkpt lat="39.3756083" lon="8.4109817"><ele>324.0</ele><time>2026-05-02T09:29:46.37Z</time></trkpt><trkpt lat="39.3756567" lon="8.4110817"><ele>324.0</ele><time>2026-05-02T09:29:49.368Z</time></trkpt><trkpt lat="39.37576" lon="8.411125"><ele>324.0</ele><time>2026-05-02T09:29:51.367Z</time></trkpt><trkpt lat="39.3758217" lon="8.4111417"><ele>324.0</ele><time>2026-05-02T09:29:52.373Z</time></trkpt><trkpt lat="39.3758933" lon="8.4111633"><ele>324.0</ele><time>2026-05-02T09:29:53.367Z</time></trkpt><trkpt lat="39.3759667" lon="8.4111967"><ele>324.0</ele><time>2026-05-02T09:29:54.37Z</time></trkpt><trkpt lat="39.376045" lon="8.4112383"><ele>324.0</ele><time>2026-05-02T09:29:55.374Z</time></trkpt><trkpt lat="39.3761267" lon="8.4112883"><ele>324.0</ele><time>2026-05-02T09:29:56.435Z</time></trkpt><trkpt lat="39.37621" lon="8.4113433"><ele>324.4</ele><time>2026-05-02T09:29:57.369Z</time></trkpt><trkpt lat="39.376315" lon="8.4113933"><ele>324.79999999999995</ele><time>2026-05-02T09:29:58.368Z</time></trkpt><trkpt lat="39.3764267" lon="8.41143"><ele>325.20000000000005</ele><time>2026-05-02T09:29:59.373Z</time></trkpt><trkpt lat="39.3765267" lon="8.4114817"><ele>325.6</ele><time>2026-05-02T09:30:00.373Z</time></trkpt><trkpt lat="39.3766217" lon="8.411525"><ele>326.0</ele><time>2026-05-02T09:30:01.372Z</time></trkpt><trkpt lat="39.3767" lon="8.411575"><ele>328.5714285714286</ele><time>2026-05-02T09:30:02.425Z</time></trkpt><trkpt lat="39.3767683" lon="8.4115983"><ele>331.1428571428571</ele><time>2026-05-02T09:30:03.374Z</time></trkpt><trkpt lat="39.3768383" lon="8.4116133"><ele>333.7142857142857</ele><time>2026-05-02T09:30:04.37Z</time></trkpt><trkpt lat="39.3769133" lon="8.41162"><ele>336.28571428571433</ele><time>2026-05-02T09:30:05.371Z</time></trkpt><trkpt lat="39.3769817" lon="8.4116117"><ele>338.8571428571429</ele><time>2026-05-02T09:30:06.371Z</time></trkpt><trkpt lat="39.37705" lon="8.4115917"><ele>341.42857142857144</ele><time>2026-05-02T09:30:07.37Z</time></trkpt><trkpt lat="39.3771167" lon="8.4115717"><ele>344.0</ele><time>2026-05-02T09:30:08.411Z</time></trkpt><trkpt lat="39.37719" lon="8.4115583"><ele>344.33333333333337</ele><time>2026-05-02T09:30:09.369Z</time></trkpt><trkpt lat="39.3772667" lon="8.411555"><ele>344.6666666666667</ele><time>2026-05-02T09:30:10.371Z</time></trkpt><trkpt lat="39.3773433" lon="8.411565"><ele>345.0</ele><time>2026-05-02T09:30:11.368Z</time></trkpt><trkpt lat="39.377425" lon="8.411585"><ele>345.3333333333333</ele><time>2026-05-02T09:30:12.369Z</time></trkpt><trkpt lat="39.3775117" lon="8.4116267"><ele>345.66666666666663</ele><time>2026-05-02T09:30:13.369Z</time></trkpt><trkpt lat="39.37762" lon="8.41167"><ele>346.0</ele><time>2026-05-02T09:30:14.414Z</time></trkpt><trkpt lat="39.3777117" lon="8.4116983"><ele>346.0</ele><time>2026-05-02T09:30:15.369Z</time></trkpt><trkpt lat="39.3777917" lon="8.4117467"><ele>346.0</ele><time>2026-05-02T09:30:16.37Z</time></trkpt><trkpt lat="39.3778933" lon="8.4118333"><ele>346.0</ele><time>2026-05-02T09:30:17.372Z</time></trkpt><trkpt lat="39.3779883" lon="8.4119133"><ele>346.0</ele><time>2026-05-02T09:30:18.372Z</time></trkpt><trkpt lat="39.3780717" lon="8.4119883"><ele>346.0</ele><time>2026-05-02T09:30:19.372Z</time></trkpt><trkpt lat="39.3781467" lon="8.4120683"><ele>347.20000000000005</ele><time>2026-05-02T09:30:20.413Z</time></trkpt><trkpt lat="39.3782117" lon="8.4121667"><ele>348.40000000000003</ele><time>2026-05-02T09:30:21.368Z</time></trkpt><trkpt lat="39.3782833" lon="8.41226"><ele>349.6</ele><time>2026-05-02T09:30:22.371Z</time></trkpt><trkpt lat="39.3783467" lon="8.4123633"><ele>350.8</ele><time>2026-05-02T09:30:23.371Z</time></trkpt><trkpt lat="39.3784017" lon="8.41247"><ele>352.0</ele><time>2026-05-02T09:30:24.373Z</time></trkpt><trkpt lat="39.3784517" lon="8.4125867"><ele>352.0</ele><time>2026-05-02T09:30:25.372Z</time></trkpt><trkpt lat="39.3784983" lon="8.4127067"><ele>352.0</ele><time>2026-05-02T09:30:26.438Z</time></trkpt><trkpt lat="39.3785383" lon="8.412835"><ele>352.0</ele><time>2026-05-02T09:30:27.376Z</time></trkpt><trkpt lat="39.3785783" lon="8.4129683"><ele>352.0</ele><time>2026-05-02T09:30:28.371Z</time></trkpt><trkpt lat="39.3786117" lon="8.413095"><ele>352.0</ele><time>2026-05-02T09:30:29.369Z</time></trkpt><trkpt lat="39.37864" lon="8.413225"><ele>356.5</ele><time>2026-05-02T09:30:30.37Z</time></trkpt><trkpt lat="39.3786767" lon="8.4133633"><ele>361.0</ele><time>2026-05-02T09:30:31.373Z</time></trkpt><trkpt lat="39.3787267" lon="8.413515"><ele>365.5</ele><time>2026-05-02T09:30:32.396Z</time></trkpt><trkpt lat="39.3787833" lon="8.4136583"><ele>370.0</ele><time>2026-05-02T09:30:33.368Z</time></trkpt><trkpt lat="39.37883" lon="8.4137933"><ele>369.8</ele><time>2026-05-02T09:30:34.371Z</time></trkpt><trkpt lat="39.3788583" lon="8.4139317"><ele>369.6</ele><time>2026-05-02T09:30:35.367Z</time></trkpt><trkpt lat="39.3789283" lon="8.4140583"><ele>369.4</ele><time>2026-05-02T09:30:36.37Z</time></trkpt><trkpt lat="39.3789933" lon="8.4141767"><ele>369.2</ele><time>2026-05-02T09:30:37.37Z</time></trkpt><trkpt lat="39.3790633" lon="8.41428"><ele>369.0</ele><time>2026-05-02T09:30:38.414Z</time></trkpt><trkpt lat="39.3791583" lon="8.4143917"><ele>369.0</ele><time>2026-05-02T09:30:39.367Z</time></trkpt><trkpt lat="39.3792283" lon="8.41447"><ele>369.0</ele><time>2026-05-02T09:30:40.37Z</time></trkpt><trkpt lat="39.3793083" lon="8.4145467"><ele>369.0</ele><time>2026-05-02T09:30:41.372Z</time></trkpt><trkpt lat="39.3793833" lon="8.4146117"><ele>369.0</ele><time>2026-05-02T09:30:42.37Z</time></trkpt><trkpt lat="39.3794633" lon="8.4146567"><ele>369.0</ele><time>2026-05-02T09:30:43.37Z</time></trkpt><trkpt lat="39.3795483" lon="8.4146667"><ele>371.6666666666667</ele><time>2026-05-02T09:30:44.409Z</time></trkpt><trkpt lat="39.3796383" lon="8.4146817"><ele>374.33333333333337</ele><time>2026-05-02T09:30:45.368Z</time></trkpt><trkpt lat="39.3797267" lon="8.41469"><ele>377.0</ele><time>2026-05-02T09:30:46.368Z</time></trkpt><trkpt lat="39.3798133" lon="8.4146983"><ele>379.6666666666667</ele><time>2026-05-02T09:30:47.37Z</time></trkpt><trkpt lat="39.3799017" lon="8.4147133"><ele>382.33333333333337</ele><time>2026-05-02T09:30:48.369Z</time></trkpt><trkpt lat="39.3799767" lon="8.4147467"><ele>385.0</ele><time>2026-05-02T09:30:49.369Z</time></trkpt><trkpt lat="39.3800517" lon="8.414805"><ele>385.1666666666667</ele><time>2026-05-02T09:30:50.416Z</time></trkpt><trkpt lat="39.380115" lon="8.41488"><ele>385.33333333333337</ele><time>2026-05-02T09:30:51.371Z</time></trkpt><trkpt lat="39.38017" lon="8.4149683"><ele>385.5</ele><time>2026-05-02T09:30:52.371Z</time></trkpt><trkpt lat="39.3802333" lon="8.415055"><ele>385.66666666666663</ele><time>2026-05-02T09:30:53.371Z</time></trkpt><trkpt lat="39.3803" lon="8.4151267"><ele>385.8333333333333</ele><time>2026-05-02T09:30:54.372Z</time></trkpt><trkpt lat="39.380365" lon="8.415175"><ele>386.0</ele><time>2026-05-02T09:30:55.372Z</time></trkpt><trkpt lat="39.3804333" lon="8.4151983"><ele>385.99999999999994</ele><time>2026-05-02T09:30:56.436Z</time></trkpt><trkpt lat="39.380505" lon="8.4151917"><ele>386.0</ele><time>2026-05-02T09:30:57.366Z</time></trkpt><trkpt lat="39.38058" lon="8.4151783"><ele>386.0</ele><time>2026-05-02T09:30:58.37Z</time></trkpt><trkpt lat="39.3806667" lon="8.4151683"><ele>386.0</ele><time>2026-05-02T09:30:59.371Z</time></trkpt><trkpt lat="39.3807467" lon="8.4151833"><ele>385.99999999999994</ele><time>2026-05-02T09:31:00.369Z</time></trkpt><trkpt lat="39.38083" lon="8.41521"><ele>386.0</ele><time>2026-05-02T09:31:01.372Z</time></trkpt><trkpt lat="39.3809133" lon="8.415245"><ele>385.8333333333333</ele><time>2026-05-02T09:31:02.423Z</time></trkpt><trkpt lat="39.380995" lon="8.415285"><ele>385.66666666666663</ele><time>2026-05-02T09:31:03.372Z</time></trkpt><trkpt lat="39.3810633" lon="8.4153383"><ele>385.5</ele><time>2026-05-02T09:31:04.367Z</time></trkpt><trkpt lat="39.38113" lon="8.4154"><ele>385.33333333333337</ele><time>2026-05-02T09:31:05.37Z</time></trkpt><trkpt lat="39.3811917" lon="8.4154817"><ele>385.1666666666667</ele><time>2026-05-02T09:31:06.375Z</time></trkpt><trkpt lat="39.3812433" lon="8.4155833"><ele>385.0</ele><time>2026-05-02T09:31:07.369Z</time></trkpt><trkpt lat="39.3812683" lon="8.4157133"><ele>388.8</ele><time>2026-05-02T09:31:08.414Z</time></trkpt><trkpt lat="39.381275" lon="8.4158717"><ele>392.6</ele><time>2026-05-02T09:31:09.371Z</time></trkpt><trkpt lat="39.3813067" lon="8.4159683"><ele>396.4</ele><time>2026-05-02T09:31:10.371Z</time></trkpt><trkpt lat="39.3813483" lon="8.4160433"><ele>400.2</ele><time>2026-05-02T09:31:11.372Z</time></trkpt><trkpt lat="39.3814267" lon="8.4161233"><ele>404.0</ele><time>2026-05-02T09:31:13.372Z</time></trkpt><trkpt lat="39.381525" lon="8.4160817"><ele>405.2</ele><time>2026-05-02T09:31:15.37Z</time></trkpt><trkpt lat="39.3816033" lon="8.4159583"><ele>406.4</ele><time>2026-05-02T09:31:17.371Z</time></trkpt><trkpt lat="39.381715" lon="8.4158917"><ele>407.6</ele><time>2026-05-02T09:31:19.369Z</time></trkpt><trkpt lat="39.38178" lon="8.41588"><ele>408.8</ele><time>2026-05-02T09:31:20.411Z</time></trkpt><trkpt lat="39.3818467" lon="8.4158767"><ele>410.0</ele><time>2026-05-02T09:31:21.368Z</time></trkpt><trkpt lat="39.3819217" lon="8.4158633"><ele>409.99999999999994</ele><time>2026-05-02T09:31:22.371Z</time></trkpt><trkpt lat="39.3820067" lon="8.4158417"><ele>410.0</ele><time>2026-05-02T09:31:23.369Z</time></trkpt><trkpt lat="39.3821" lon="8.4158067"><ele>410.0</ele><time>2026-05-02T09:31:24.373Z</time></trkpt><trkpt lat="39.38218" lon="8.415785"><ele>410.0</ele><time>2026-05-02T09:31:25.374Z</time></trkpt><trkpt lat="39.3822517" lon="8.4157667"><ele>409.99999999999994</ele><time>2026-05-02T09:31:26.436Z</time></trkpt><trkpt lat="39.3823533" lon="8.4157517"><ele>410.0</ele><time>2026-05-02T09:31:28.37Z</time></trkpt><trkpt lat="39.382355" lon="8.4158517"><ele>411.8</ele><time>2026-05-02T09:31:30.371Z</time></trkpt><trkpt lat="39.382305" lon="8.41601"><ele>413.6</ele><time>2026-05-02T09:31:32.424Z</time></trkpt><trkpt lat="39.382275" lon="8.4161067"><ele>415.4</ele><time>2026-05-02T09:31:33.369Z</time></trkpt><trkpt lat="39.3822533" lon="8.41621"><ele>417.2</ele><time>2026-05-02T09:31:34.37Z</time></trkpt><trkpt lat="39.3822333" lon="8.4163183"><ele>419.0</ele><time>2026-05-02T09:31:35.368Z</time></trkpt><trkpt lat="39.3822167" lon="8.4164217"><ele>419.8333333333333</ele><time>2026-05-02T09:31:36.367Z</time></trkpt><trkpt lat="39.3821933" lon="8.4165233"><ele>420.66666666666663</ele><time>2026-05-02T09:31:37.371Z</time></trkpt><trkpt lat="39.382165" lon="8.4166183"><ele>421.5</ele><time>2026-05-02T09:31:38.41Z</time></trkpt><trkpt lat="39.38213" lon="8.4167117"><ele>422.33333333333337</ele><time>2026-05-02T09:31:39.366Z</time></trkpt><trkpt lat="39.3820733" lon="8.41681"><ele>423.1666666666667</ele><time>2026-05-02T09:31:40.371Z</time></trkpt><trkpt lat="39.382005" lon="8.4169117"><ele>424.0</ele><time>2026-05-02T09:31:41.367Z</time></trkpt><trkpt lat="39.3819183" lon="8.4170233"><ele>424.0</ele><time>2026-05-02T09:31:42.37Z</time></trkpt><trkpt lat="39.381805" lon="8.41713"><ele>424.0</ele><time>2026-05-02T09:31:43.371Z</time></trkpt><trkpt lat="39.3816817" lon="8.4172383"><ele>424.0</ele><time>2026-05-02T09:31:44.41Z</time></trkpt><trkpt lat="39.3815633" lon="8.4172667"><ele>424.0</ele><time>2026-05-02T09:31:45.374Z</time></trkpt><trkpt lat="39.3814767" lon="8.4173183"><ele>424.6666666666667</ele><time>2026-05-02T09:31:46.371Z</time></trkpt><trkpt lat="39.381385" lon="8.41737"><ele>425.33333333333337</ele><time>2026-05-02T09:31:47.368Z</time></trkpt><trkpt lat="39.3813067" lon="8.4174217"><ele>426.0</ele><time>2026-05-02T09:31:48.372Z</time></trkpt><trkpt lat="39.3812317" lon="8.4174817"><ele>426.66666666666663</ele><time>2026-05-02T09:31:49.371Z</time></trkpt><trkpt lat="39.3811733" lon="8.4175483"><ele>427.3333333333333</ele><time>2026-05-02T09:31:50.414Z</time></trkpt><trkpt lat="39.3811317" lon="8.417625"><ele>428.0</ele><time>2026-05-02T09:31:51.371Z</time></trkpt><trkpt lat="39.381105" lon="8.4177217"><ele>428.0</ele><time>2026-05-02T09:31:52.369Z</time></trkpt><trkpt lat="39.3810883" lon="8.4178317"><ele>427.99999999999994</ele><time>2026-05-02T09:31:53.371Z</time></trkpt><trkpt lat="39.3810917" lon="8.4179683"><ele>427.99999999999994</ele><time>2026-05-02T09:31:54.37Z</time></trkpt><trkpt lat="39.381105" lon="8.4180833"><ele>428.0</ele><time>2026-05-02T09:31:55.372Z</time></trkpt><trkpt lat="39.381095" lon="8.4182033"><ele>428.0</ele><time>2026-05-02T09:31:56.437Z</time></trkpt><trkpt lat="39.3810883" lon="8.41833"><ele>428.3333333333333</ele><time>2026-05-02T09:31:57.37Z</time></trkpt><trkpt lat="39.381085" lon="8.418505"><ele>428.66666666666663</ele><time>2026-05-02T09:31:59.373Z</time></trkpt><trkpt lat="39.3811" lon="8.418595"><ele>429.0</ele><time>2026-05-02T09:32:00.371Z</time></trkpt><trkpt lat="39.3811167" lon="8.4186833"><ele>429.33333333333337</ele><time>2026-05-02T09:32:01.372Z</time></trkpt><trkpt lat="39.3811433" lon="8.41877"><ele>429.6666666666667</ele><time>2026-05-02T09:32:02.436Z</time></trkpt><trkpt lat="39.3811533" lon="8.418855"><ele>430.0</ele><time>2026-05-02T09:32:03.367Z</time></trkpt><trkpt lat="39.3811533" lon="8.4189367"><ele>430.00000000000006</ele><time>2026-05-02T09:32:04.371Z</time></trkpt><trkpt lat="39.3811383" lon="8.41902"><ele>430.0</ele><time>2026-05-02T09:32:05.371Z</time></trkpt><trkpt lat="39.3811217" lon="8.4191117"><ele>430.0</ele><time>2026-05-02T09:32:06.371Z</time></trkpt><trkpt lat="39.3811033" lon="8.4192167"><ele>430.0</ele><time>2026-05-02T09:32:07.369Z</time></trkpt><trkpt lat="39.38109" lon="8.4193233"><ele>430.00000000000006</ele><time>2026-05-02T09:32:08.411Z</time></trkpt><trkpt lat="39.3810817" lon="8.4194283"><ele>430.0</ele><time>2026-05-02T09:32:09.371Z</time></trkpt><trkpt lat="39.3810783" lon="8.41952"><ele>429.6</ele><time>2026-05-02T09:32:10.372Z</time></trkpt><trkpt lat="39.38106" lon="8.419675"><ele>429.2</ele><time>2026-05-02T09:32:12.371Z</time></trkpt><trkpt lat="39.3810483" lon="8.419785"><ele>428.79999999999995</ele><time>2026-05-02T09:32:14.407Z</time></trkpt><trkpt lat="39.3810883" lon="8.419855"><ele>428.4</ele><time>2026-05-02T09:32:16.371Z</time></trkpt><trkpt lat="39.3811683" lon="8.4199017"><ele>428.0</ele><time>2026-05-02T09:32:18.372Z</time></trkpt><trkpt lat="39.3812883" lon="8.4199233"><ele>428.3333333333333</ele><time>2026-05-02T09:32:20.414Z</time></trkpt><trkpt lat="39.38136" lon="8.4199217"><ele>428.66666666666663</ele><time>2026-05-02T09:32:21.368Z</time></trkpt><trkpt lat="39.3814317" lon="8.419925"><ele>429.0</ele><time>2026-05-02T09:32:22.373Z</time></trkpt><trkpt lat="39.3815033" lon="8.4199267"><ele>429.33333333333337</ele><time>2026-05-02T09:32:23.371Z</time></trkpt><trkpt lat="39.3815817" lon="8.41994"><ele>429.6666666666667</ele><time>2026-05-02T09:32:24.37Z</time></trkpt><trkpt lat="39.38166" lon="8.41996"><ele>430.0</ele><time>2026-05-02T09:32:25.369Z</time></trkpt><trkpt lat="39.3817367" lon="8.419995"><ele>430.00000000000006</ele><time>2026-05-02T09:32:26.436Z</time></trkpt><trkpt lat="39.3818133" lon="8.4200467"><ele>430.0</ele><time>2026-05-02T09:32:27.369Z</time></trkpt><trkpt lat="39.3818883" lon="8.4201117"><ele>430.0</ele><time>2026-05-02T09:32:28.369Z</time></trkpt><trkpt lat="39.3819533" lon="8.4201833"><ele>430.0</ele><time>2026-05-02T09:32:29.366Z</time></trkpt><trkpt lat="39.3820183" lon="8.420255"><ele>430.00000000000006</ele><time>2026-05-02T09:32:30.372Z</time></trkpt><trkpt lat="39.38208" lon="8.4203267"><ele>430.0</ele><time>2026-05-02T09:32:31.365Z</time></trkpt><trkpt lat="39.3821383" lon="8.4204017"><ele>430.50000000000006</ele><time>2026-05-02T09:32:32.424Z</time></trkpt><trkpt lat="39.3821933" lon="8.4204867"><ele>431.0</ele><time>2026-05-02T09:32:33.372Z</time></trkpt><trkpt lat="39.3822367" lon="8.4205783"><ele>431.5</ele><time>2026-05-02T09:32:34.371Z</time></trkpt><trkpt lat="39.3822767" lon="8.4206767"><ele>432.0</ele><time>2026-05-02T09:32:35.372Z</time></trkpt><trkpt lat="39.3823033" lon="8.42078"><ele>432.50000000000006</ele><time>2026-05-02T09:32:36.371Z</time></trkpt><trkpt lat="39.382315" lon="8.4208933"><ele>433.0</ele><time>2026-05-02T09:32:37.373Z</time></trkpt><trkpt lat="39.3823233" lon="8.4210117"><ele>433.0</ele><time>2026-05-02T09:32:38.41Z</time></trkpt><trkpt lat="39.3823333" lon="8.4211317"><ele>432.99999999999994</ele><time>2026-05-02T09:32:39.372Z</time></trkpt><trkpt lat="39.3823267" lon="8.4212917"><ele>432.99999999999994</ele><time>2026-05-02T09:32:40.372Z</time></trkpt><trkpt lat="39.38232" lon="8.4214483"><ele>433.0</ele><time>2026-05-02T09:32:41.373Z</time></trkpt><trkpt lat="39.3823067" lon="8.4215717"><ele>433.0</ele><time>2026-05-02T09:32:42.375Z</time></trkpt><trkpt lat="39.38231" lon="8.421705"><ele>432.00000000000006</ele><time>2026-05-02T09:32:43.374Z</time></trkpt><trkpt lat="39.38233" lon="8.4218367"><ele>431.0</ele><time>2026-05-02T09:32:44.414Z</time></trkpt><trkpt lat="39.382345" lon="8.42196"><ele>430.0</ele><time>2026-05-02T09:32:45.368Z</time></trkpt><trkpt lat="39.382355" lon="8.4220533"><ele>429.0</ele><time>2026-05-02T09:32:46.369Z</time></trkpt><trkpt lat="39.38236" lon="8.42215"><ele>428.00000000000006</ele><time>2026-05-02T09:32:47.372Z</time></trkpt><trkpt lat="39.3823533" lon="8.4222483"><ele>427.0</ele><time>2026-05-02T09:32:48.37Z</time></trkpt><trkpt lat="39.3823317" lon="8.4223467"><ele>426.1666666666667</ele><time>2026-05-02T09:32:49.371Z</time></trkpt><trkpt lat="39.3823117" lon="8.4224517"><ele>425.33333333333337</ele><time>2026-05-02T09:32:50.41Z</time></trkpt><trkpt lat="39.382285" lon="8.422555"><ele>424.5</ele><time>2026-05-02T09:32:51.371Z</time></trkpt><trkpt lat="39.382265" lon="8.4226617"><ele>423.66666666666663</ele><time>2026-05-02T09:32:52.373Z</time></trkpt><trkpt lat="39.382255" lon="8.4227783"><ele>422.8333333333333</ele><time>2026-05-02T09:32:53.369Z</time></trkpt><trkpt lat="39.3822367" lon="8.42291"><ele>422.0</ele><time>2026-05-02T09:32:54.367Z</time></trkpt><trkpt lat="39.3822333" lon="8.4230633"><ele>421.8333333333333</ele><time>2026-05-02T09:32:55.368Z</time></trkpt><trkpt lat="39.38222" lon="8.4231683"><ele>421.66666666666663</ele><time>2026-05-02T09:32:56.424Z</time></trkpt><trkpt lat="39.3822083" lon="8.423275"><ele>421.5</ele><time>2026-05-02T09:32:57.368Z</time></trkpt><trkpt lat="39.3822033" lon="8.4233867"><ele>421.33333333333337</ele><time>2026-05-02T09:32:58.373Z</time></trkpt><trkpt lat="39.3822" lon="8.42348"><ele>421.1666666666667</ele><time>2026-05-02T09:32:59.369Z</time></trkpt><trkpt lat="39.3821933" lon="8.423565"><ele>421.0</ele><time>2026-05-02T09:33:00.37Z</time></trkpt><trkpt lat="39.3822" lon="8.4236483"><ele>421.00000000000006</ele><time>2026-05-02T09:33:01.369Z</time></trkpt><trkpt lat="39.38225" lon="8.4237917"><ele>421.0</ele><time>2026-05-02T09:33:03.372Z</time></trkpt><trkpt lat="39.3822867" lon="8.423865"><ele>421.0</ele><time>2026-05-02T09:33:04.369Z</time></trkpt><trkpt lat="39.3823233" lon="8.423945"><ele>421.0</ele><time>2026-05-02T09:33:05.369Z</time></trkpt><trkpt lat="39.382355" lon="8.424025"><ele>421.00000000000006</ele><time>2026-05-02T09:33:06.374Z</time></trkpt><trkpt lat="39.3823867" lon="8.4240967"><ele>421.0</ele><time>2026-05-02T09:33:07.368Z</time></trkpt><trkpt lat="39.3824267" lon="8.4241617"><ele>419.28571428571433</ele><time>2026-05-02T09:33:08.411Z</time></trkpt><trkpt lat="39.3824733" lon="8.42422"><ele>417.57142857142856</ele><time>2026-05-02T09:33:09.368Z</time></trkpt><trkpt lat="39.3825267" lon="8.4242717"><ele>415.8571428571429</ele><time>2026-05-02T09:33:10.368Z</time></trkpt><trkpt lat="39.382585" lon="8.424315"><ele>414.14285714285717</ele><time>2026-05-02T09:33:11.371Z</time></trkpt><trkpt lat="39.3826383" lon="8.42436"><ele>412.42857142857144</ele><time>2026-05-02T09:33:12.368Z</time></trkpt><trkpt lat="39.3826933" lon="8.4244017"><ele>410.7142857142857</ele><time>2026-05-02T09:33:13.372Z</time></trkpt><trkpt lat="39.3827533" lon="8.4244367"><ele>409.0</ele><time>2026-05-02T09:33:14.409Z</time></trkpt><trkpt lat="39.3828133" lon="8.4244733"><ele>409.00000000000006</ele><time>2026-05-02T09:33:15.368Z</time></trkpt><trkpt lat="39.3828767" lon="8.4245083"><ele>409.0</ele><time>2026-05-02T09:33:16.373Z</time></trkpt><trkpt lat="39.3829467" lon="8.4245367"><ele>409.0</ele><time>2026-05-02T09:33:17.378Z</time></trkpt><trkpt lat="39.3830133" lon="8.4245733"><ele>409.0</ele><time>2026-05-02T09:33:18.373Z</time></trkpt><trkpt lat="39.3830883" lon="8.424615"><ele>409.00000000000006</ele><time>2026-05-02T09:33:19.372Z</time></trkpt><trkpt lat="39.3831683" lon="8.424655"><ele>409.0</ele><time>2026-05-02T09:33:20.414Z</time></trkpt><trkpt lat="39.383245" lon="8.4246933"><ele>407.50000000000006</ele><time>2026-05-02T09:33:21.37Z</time></trkpt><trkpt lat="39.3833233" lon="8.4247283"><ele>406.0</ele><time>2026-05-02T09:33:22.374Z</time></trkpt><trkpt lat="39.3834033" lon="8.4247667"><ele>404.5</ele><time>2026-05-02T09:33:23.37Z</time></trkpt><trkpt lat="39.38348" lon="8.4248017"><ele>403.0</ele><time>2026-05-02T09:33:24.372Z</time></trkpt><trkpt lat="39.38355" lon="8.4248317"><ele>401.50000000000006</ele><time>2026-05-02T09:33:25.368Z</time></trkpt><trkpt lat="39.3836167" lon="8.4248583"><ele>400.0</ele><time>2026-05-02T09:33:26.422Z</time></trkpt><trkpt lat="39.3836767" lon="8.4248833"><ele>400.00000000000006</ele><time>2026-05-02T09:33:27.37Z</time></trkpt><trkpt lat="39.3837717" lon="8.4249317"><ele>400.0</ele><time>2026-05-02T09:33:29.37Z</time></trkpt><trkpt lat="39.3838067" lon="8.425015"><ele>400.0</ele><time>2026-05-02T09:33:32.423Z</time></trkpt><trkpt lat="39.3837467" lon="8.4250783"><ele>400.0</ele><time>2026-05-02T09:33:35.371Z</time></trkpt><trkpt lat="39.38368" lon="8.4250783"><ele>400.00000000000006</ele><time>2026-05-02T09:33:37.373Z</time></trkpt><trkpt lat="39.3835983" lon="8.4250417"><ele>400.0</ele><time>2026-05-02T09:33:39.371Z</time></trkpt><trkpt lat="39.3835167" lon="8.425025"><ele>400.00000000000006</ele><time>2026-05-02T09:33:41.369Z</time></trkpt><trkpt lat="39.3834267" lon="8.4250083"><ele>400.0</ele><time>2026-05-02T09:33:43.37Z</time></trkpt><trkpt lat="39.3833233" lon="8.4249917"><ele>400.0</ele><time>2026-05-02T09:33:45.372Z</time></trkpt><trkpt lat="39.38326" lon="8.4249783"><ele>400.0</ele><time>2026-05-02T09:33:46.371Z</time></trkpt><trkpt lat="39.3831917" lon="8.42498"><ele>400.00000000000006</ele><time>2026-05-02T09:33:47.372Z</time></trkpt><trkpt lat="39.3831233" lon="8.424985"><ele>400.0</ele><time>2026-05-02T09:33:48.372Z</time></trkpt><trkpt lat="39.38306" lon="8.42499"><ele>398.8</ele><time>2026-05-02T09:33:49.37Z</time></trkpt><trkpt lat="39.3829567" lon="8.4250233"><ele>397.6</ele><time>2026-05-02T09:33:51.375Z</time></trkpt><trkpt lat="39.3828767" lon="8.425095"><ele>396.4</ele><time>2026-05-02T09:33:53.369Z</time></trkpt><trkpt lat="39.3828267" lon="8.4252217"><ele>395.2</ele><time>2026-05-02T09:33:55.372Z</time></trkpt><trkpt lat="39.382805" lon="8.425385"><ele>394.0</ele><time>2026-05-02T09:33:57.366Z</time></trkpt><trkpt lat="39.3828033" lon="8.425475"><ele>393.6666666666667</ele><time>2026-05-02T09:33:58.371Z</time></trkpt><trkpt lat="39.382815" lon="8.4255667"><ele>393.33333333333337</ele><time>2026-05-02T09:33:59.372Z</time></trkpt><trkpt lat="39.3828333" lon="8.42566"><ele>393.0</ele><time>2026-05-02T09:34:00.373Z</time></trkpt><trkpt lat="39.3829017" lon="8.425755"><ele>392.66666666666663</ele><time>2026-05-02T09:34:01.368Z</time></trkpt><trkpt lat="39.382965" lon="8.4258433"><ele>392.3333333333333</ele><time>2026-05-02T09:34:02.423Z</time></trkpt><trkpt lat="39.3830233" lon="8.42594"><ele>392.0</ele><time>2026-05-02T09:34:03.367Z</time></trkpt><trkpt lat="39.3830817" lon="8.4260283"><ele>392.0</ele><time>2026-05-02T09:34:04.367Z</time></trkpt><trkpt lat="39.3831417" lon="8.4261233"><ele>392.0</ele><time>2026-05-02T09:34:05.37Z</time></trkpt><trkpt lat="39.383205" lon="8.4262167"><ele>392.0</ele><time>2026-05-02T09:34:06.372Z</time></trkpt><trkpt lat="39.383275" lon="8.4263117"><ele>392.0</ele><time>2026-05-02T09:34:07.369Z</time></trkpt><trkpt lat="39.3833317" lon="8.4263917"><ele>392.0</ele><time>2026-05-02T09:34:08.414Z</time></trkpt><trkpt lat="39.3833883" lon="8.4264683"><ele>392.0</ele><time>2026-05-02T09:34:09.368Z</time></trkpt><trkpt lat="39.3834567" lon="8.4265517"><ele>392.0</ele><time>2026-05-02T09:34:10.373Z</time></trkpt><trkpt lat="39.3835233" lon="8.4266317"><ele>392.0</ele><time>2026-05-02T09:34:11.372Z</time></trkpt><trkpt lat="39.3835933" lon="8.42672"><ele>392.0</ele><time>2026-05-02T09:34:12.371Z</time></trkpt><trkpt lat="39.3836667" lon="8.4268067"><ele>392.0</ele><time>2026-05-02T09:34:13.371Z</time></trkpt><trkpt lat="39.3837367" lon="8.4268933"><ele>392.0</ele><time>2026-05-02T09:34:14.416Z</time></trkpt><trkpt lat="39.3838083" lon="8.42698"><ele>392.0</ele><time>2026-05-02T09:34:15.37Z</time></trkpt><trkpt lat="39.3839017" lon="8.4270933"><ele>392.0</ele><time>2026-05-02T09:34:16.371Z</time></trkpt><trkpt lat="39.383995" lon="8.427215"><ele>392.0</ele><time>2026-05-02T09:34:17.372Z</time></trkpt><trkpt lat="39.3840583" lon="8.4273167"><ele>393.6</ele><time>2026-05-02T09:34:18.371Z</time></trkpt><trkpt lat="39.384135" lon="8.427405"><ele>395.20000000000005</ele><time>2026-05-02T09:34:19.369Z</time></trkpt><trkpt lat="39.3841917" lon="8.427505"><ele>396.8</ele><time>2026-05-02T09:34:20.413Z</time></trkpt><trkpt lat="39.3842617" lon="8.427585"><ele>398.4</ele><time>2026-05-02T09:34:21.368Z</time></trkpt><trkpt lat="39.3843217" lon="8.4276667"><ele>400.0</ele><time>2026-05-02T09:34:22.376Z</time></trkpt><trkpt lat="39.384375" lon="8.427745"><ele>400.0</ele><time>2026-05-02T09:34:23.371Z</time></trkpt><trkpt lat="39.38442" lon="8.4278183"><ele>400.0</ele><time>2026-05-02T09:34:24.368Z</time></trkpt><trkpt lat="39.3844633" lon="8.4278917"><ele>400.0</ele><time>2026-05-02T09:34:25.37Z</time></trkpt><trkpt lat="39.3845" lon="8.4280433"><ele>400.0</ele><time>2026-05-02T09:34:27.369Z</time></trkpt><trkpt lat="39.3845183" lon="8.4281967"><ele>400.0</ele><time>2026-05-02T09:34:29.373Z</time></trkpt><trkpt lat="39.3845267" lon="8.4283567"><ele>401.50000000000006</ele><time>2026-05-02T09:34:31.369Z</time></trkpt><trkpt lat="39.3845183" lon="8.4284517"><ele>403.0</ele><time>2026-05-02T09:34:32.427Z</time></trkpt><trkpt lat="39.3845167" lon="8.4285633"><ele>404.5</ele><time>2026-05-02T09:34:33.371Z</time></trkpt><trkpt lat="39.384515" lon="8.42868"><ele>406.0</ele><time>2026-05-02T09:34:34.371Z</time></trkpt><trkpt lat="39.38452" lon="8.4288017"><ele>407.50000000000006</ele><time>2026-05-02T09:34:35.372Z</time></trkpt><trkpt lat="39.3845383" lon="8.4289217"><ele>409.0</ele><time>2026-05-02T09:34:36.368Z</time></trkpt><trkpt lat="39.3845717" lon="8.4290383"><ele>410.00000000000006</ele><time>2026-05-02T09:34:37.372Z</time></trkpt><trkpt lat="39.3845933" lon="8.429135"><ele>411.0</ele><time>2026-05-02T09:34:38.409Z</time></trkpt><trkpt lat="39.3846283" lon="8.4292267"><ele>412.0</ele><time>2026-05-02T09:34:39.375Z</time></trkpt><trkpt lat="39.3846867" lon="8.4293067"><ele>413.0</ele><time>2026-05-02T09:34:40.371Z</time></trkpt><trkpt lat="39.3847583" lon="8.42939"><ele>414.00000000000006</ele><time>2026-05-02T09:34:41.366Z</time></trkpt><trkpt lat="39.38481" lon="8.4294717"><ele>415.0</ele><time>2026-05-02T09:34:42.37Z</time></trkpt><trkpt lat="39.3848633" lon="8.42955"><ele>411.33333333333337</ele><time>2026-05-02T09:34:43.372Z</time></trkpt><trkpt lat="39.384935" lon="8.4296683"><ele>407.6666666666667</ele><time>2026-05-02T09:34:44.413Z</time></trkpt><trkpt lat="39.3849667" lon="8.42978"><ele>404.0</ele><time>2026-05-02T09:34:45.372Z</time></trkpt><trkpt lat="39.3849883" lon="8.42988"><ele>400.33333333333337</ele><time>2026-05-02T09:34:46.371Z</time></trkpt><trkpt lat="39.384995" lon="8.42998"><ele>396.6666666666667</ele><time>2026-05-02T09:34:47.371Z</time></trkpt><trkpt lat="39.3850017" lon="8.430085"><ele>393.0</ele><time>2026-05-02T09:34:48.371Z</time></trkpt><trkpt lat="39.3850017" lon="8.4302033"><ele>393.0</ele><time>2026-05-02T09:34:49.37Z</time></trkpt><trkpt lat="39.3850033" lon="8.4303083"><ele>393.0</ele><time>2026-05-02T09:34:50.411Z</time></trkpt><trkpt lat="39.385005" lon="8.4304067"><ele>393.0</ele><time>2026-05-02T09:34:51.37Z</time></trkpt><trkpt lat="39.385" lon="8.4305017"><ele>393.0</ele><time>2026-05-02T09:34:52.371Z</time></trkpt><trkpt lat="39.384995" lon="8.4305933"><ele>393.0</ele><time>2026-05-02T09:34:53.371Z</time></trkpt><trkpt lat="39.38498" lon="8.43069"><ele>393.0</ele><time>2026-05-02T09:34:54.367Z</time></trkpt><trkpt lat="39.3849567" lon="8.430785"><ele>394.8333333333333</ele><time>2026-05-02T09:34:55.371Z</time></trkpt><trkpt lat="39.3849267" lon="8.43088"><ele>396.66666666666663</ele><time>2026-05-02T09:34:56.435Z</time></trkpt><trkpt lat="39.38489" lon="8.430975"><ele>398.5</ele><time>2026-05-02T09:34:57.369Z</time></trkpt><trkpt lat="39.3848533" lon="8.4310617"><ele>400.3333333333333</ele><time>2026-05-02T09:34:58.369Z</time></trkpt><trkpt lat="39.3848167" lon="8.4311417"><ele>402.16666666666663</ele><time>2026-05-02T09:34:59.365Z</time></trkpt><trkpt lat="39.38479" lon="8.4312183"><ele>404.0</ele><time>2026-05-02T09:35:00.372Z</time></trkpt><trkpt lat="39.3847667" lon="8.431365"><ele>408.2</ele><time>2026-05-02T09:35:02.423Z</time></trkpt><trkpt lat="39.3848067" lon="8.4314683"><ele>412.4</ele><time>2026-05-02T09:35:04.372Z</time></trkpt><trkpt lat="39.3849" lon="8.4314833"><ele>416.6</ele><time>2026-05-02T09:35:06.37Z</time></trkpt><trkpt lat="39.38496" lon="8.4314533"><ele>420.8</ele><time>2026-05-02T09:35:07.374Z</time></trkpt><trkpt lat="39.3850583" lon="8.431385"><ele>425.0</ele><time>2026-05-02T09:35:09.368Z</time></trkpt><trkpt lat="39.3851633" lon="8.4313217"><ele>425.0</ele><time>2026-05-02T09:35:11.367Z</time></trkpt><trkpt lat="39.38524" lon="8.43129"><ele>425.0</ele><time>2026-05-02T09:35:13.368Z</time></trkpt><trkpt lat="39.3851867" lon="8.4313533"><ele>425.0</ele><time>2026-05-02T09:35:15.368Z</time></trkpt><trkpt lat="39.3851" lon="8.4314033"><ele>425.0</ele><time>2026-05-02T09:35:17.367Z</time></trkpt><trkpt lat="39.3850233" lon="8.4314867"><ele>425.0</ele><time>2026-05-02T09:35:19.371Z</time></trkpt><trkpt lat="39.384945" lon="8.4315967"><ele>425.0</ele><time>2026-05-02T09:35:21.373Z</time></trkpt><trkpt lat="39.3848817" lon="8.4316417"><ele>425.0</ele><time>2026-05-02T09:35:22.371Z</time></trkpt><trkpt lat="39.38481" lon="8.4316667"><ele>425.0</ele><time>2026-05-02T09:35:23.368Z</time></trkpt><trkpt lat="39.384745" lon="8.43167"><ele>425.0</ele><time>2026-05-02T09:35:24.372Z</time></trkpt><trkpt lat="39.3846817" lon="8.4316533"><ele>425.0</ele><time>2026-05-02T09:35:25.368Z</time></trkpt><trkpt lat="39.38462" lon="8.43162"><ele>425.0</ele><time>2026-05-02T09:35:26.398Z</time></trkpt><trkpt lat="39.38455" lon="8.4315767"><ele>425.0</ele><time>2026-05-02T09:35:27.371Z</time></trkpt><trkpt lat="39.384475" lon="8.43152"><ele>426.16666666666663</ele><time>2026-05-02T09:35:28.367Z</time></trkpt><trkpt lat="39.3844" lon="8.4314683"><ele>427.3333333333333</ele><time>2026-05-02T09:35:29.368Z</time></trkpt><trkpt lat="39.3843433" lon="8.43142"><ele>428.5</ele><time>2026-05-02T09:35:30.37Z</time></trkpt><trkpt lat="39.3842567" lon="8.43133"><ele>429.66666666666663</ele><time>2026-05-02T09:35:32.403Z</time></trkpt><trkpt lat="39.3841883" lon="8.43128"><ele>430.8333333333333</ele><time>2026-05-02T09:35:34.369Z</time></trkpt><trkpt lat="39.38423" lon="8.4313833"><ele>432.0</ele><time>2026-05-02T09:35:39.368Z</time></trkpt><trkpt lat="39.3843233" lon="8.4314783"><ele>432.1666666666667</ele><time>2026-05-02T09:35:41.369Z</time></trkpt><trkpt lat="39.38438" lon="8.4315467"><ele>432.33333333333337</ele><time>2026-05-02T09:35:42.37Z</time></trkpt><trkpt lat="39.3844367" lon="8.4316117"><ele>432.5</ele><time>2026-05-02T09:35:43.375Z</time></trkpt><trkpt lat="39.3844883" lon="8.431685"><ele>432.6666666666667</ele><time>2026-05-02T09:35:44.412Z</time></trkpt><trkpt lat="39.38454" lon="8.4317617"><ele>432.83333333333337</ele><time>2026-05-02T09:35:45.371Z</time></trkpt><trkpt lat="39.3846" lon="8.4318433"><ele>433.0</ele><time>2026-05-02T09:35:46.369Z</time></trkpt><trkpt lat="39.384655" lon="8.4319167"><ele>434.1666666666667</ele><time>2026-05-02T09:35:47.37Z</time></trkpt><trkpt lat="39.3847083" lon="8.4319983"><ele>435.33333333333337</ele><time>2026-05-02T09:35:48.367Z</time></trkpt><trkpt lat="39.38476" lon="8.4320817"><ele>436.5</ele><time>2026-05-02T09:35:49.367Z</time></trkpt><trkpt lat="39.38481" lon="8.432165"><ele>437.66666666666663</ele><time>2026-05-02T09:35:50.41Z</time></trkpt><trkpt lat="39.3848583" lon="8.4322567"><ele>438.8333333333333</ele><time>2026-05-02T09:35:51.373Z</time></trkpt><trkpt lat="39.384905" lon="8.432355"><ele>440.0</ele><time>2026-05-02T09:35:52.371Z</time></trkpt><trkpt lat="39.3849417" lon="8.4324633"><ele>439.99999999999994</ele><time>2026-05-02T09:35:53.372Z</time></trkpt><trkpt lat="39.38497" lon="8.4325717"><ele>440.0</ele><time>2026-05-02T09:35:54.372Z</time></trkpt><trkpt lat="39.3849967" lon="8.4326817"><ele>440.0</ele><time>2026-05-02T09:35:55.37Z</time></trkpt><trkpt lat="39.3850133" lon="8.4327867"><ele>440.0</ele><time>2026-05-02T09:35:56.422Z</time></trkpt><trkpt lat="39.3850183" lon="8.4328883"><ele>439.99999999999994</ele><time>2026-05-02T09:35:57.368Z</time></trkpt><trkpt lat="39.385025" lon="8.4329717"><ele>440.0</ele><time>2026-05-02T09:35:58.371Z</time></trkpt><trkpt lat="39.3850133" lon="8.4331283"><ele>438.4</ele><time>2026-05-02T09:36:00.367Z</time></trkpt><trkpt lat="39.3849967" lon="8.4332783"><ele>436.8</ele><time>2026-05-02T09:36:02.425Z</time></trkpt><trkpt lat="39.3849783" lon="8.4334183"><ele>435.20000000000005</ele><time>2026-05-02T09:36:04.371Z</time></trkpt><trkpt lat="39.3849617" lon="8.4335483"><ele>433.6</ele><time>2026-05-02T09:36:06.366Z</time></trkpt><trkpt lat="39.3849367" lon="8.4336783"><ele>432.0</ele><time>2026-05-02T09:36:08.413Z</time></trkpt><trkpt lat="39.384915" lon="8.4338067"><ele>428.8</ele><time>2026-05-02T09:36:10.371Z</time></trkpt><trkpt lat="39.384885" lon="8.43393"><ele>425.6</ele><time>2026-05-02T09:36:12.378Z</time></trkpt><trkpt lat="39.3848433" lon="8.4340617"><ele>422.40000000000003</ele><time>2026-05-02T09:36:14.413Z</time></trkpt><trkpt lat="39.38478" lon="8.43421"><ele>419.20000000000005</ele><time>2026-05-02T09:36:16.371Z</time></trkpt><trkpt lat="39.384745" lon="8.4342883"><ele>416.0</ele><time>2026-05-02T09:36:17.372Z</time></trkpt><trkpt lat="39.3847067" lon="8.4343683"><ele>418.3333333333333</ele><time>2026-05-02T09:36:18.369Z</time></trkpt><trkpt lat="39.384675" lon="8.4344467"><ele>420.66666666666663</ele><time>2026-05-02T09:36:19.372Z</time></trkpt><trkpt lat="39.3846467" lon="8.43452"><ele>423.0</ele><time>2026-05-02T09:36:20.41Z</time></trkpt><trkpt lat="39.3845933" lon="8.4346617"><ele>425.33333333333337</ele><time>2026-05-02T09:36:22.368Z</time></trkpt><trkpt lat="39.3845333" lon="8.434805"><ele>427.6666666666667</ele><time>2026-05-02T09:36:24.372Z</time></trkpt><trkpt lat="39.3845017" lon="8.4348783"><ele>430.0</ele><time>2026-05-02T09:36:25.368Z</time></trkpt><trkpt lat="39.3844717" lon="8.4349583"><ele>430.0</ele><time>2026-05-02T09:36:26.421Z</time></trkpt><trkpt lat="39.384445" lon="8.4350367"><ele>430.0</ele><time>2026-05-02T09:36:27.367Z</time></trkpt><trkpt lat="39.3844233" lon="8.435115"><ele>430.0</ele><time>2026-05-02T09:36:28.368Z</time></trkpt><trkpt lat="39.3844017" lon="8.4351967"><ele>430.0</ele><time>2026-05-02T09:36:29.372Z</time></trkpt><trkpt lat="39.3843783" lon="8.4352733"><ele>430.0</ele><time>2026-05-02T09:36:30.367Z</time></trkpt><trkpt lat="39.384355" lon="8.43535"><ele>430.0</ele><time>2026-05-02T09:36:31.372Z</time></trkpt><trkpt lat="39.3843067" lon="8.4354917"><ele>430.0</ele><time>2026-05-02T09:36:33.369Z</time></trkpt><trkpt lat="39.3842483" lon="8.4356167"><ele>428.0</ele><time>2026-05-02T09:36:35.37Z</time></trkpt><trkpt lat="39.3841967" lon="8.4357333"><ele>426.0</ele><time>2026-05-02T09:36:37.374Z</time></trkpt><trkpt lat="39.3841567" lon="8.43584"><ele>424.0</ele><time>2026-05-02T09:36:39.374Z</time></trkpt><trkpt lat="39.38414" lon="8.43596"><ele>422.0</ele><time>2026-05-02T09:36:41.369Z</time></trkpt><trkpt lat="39.38415" lon="8.43608"><ele>420.0</ele><time>2026-05-02T09:36:43.371Z</time></trkpt><trkpt lat="39.38418" lon="8.43618"><ele>420.0</ele><time>2026-05-02T09:36:45.369Z</time></trkpt><trkpt lat="39.38423" lon="8.4362583"><ele>420.0</ele><time>2026-05-02T09:36:47.371Z</time></trkpt><trkpt lat="39.3843033" lon="8.43632"><ele>420.0</ele><time>2026-05-02T09:36:49.372Z</time></trkpt><trkpt lat="39.3843967" lon="8.4363817"><ele>420.0</ele><time>2026-05-02T09:36:51.373Z</time></trkpt><trkpt lat="39.384495" lon="8.436445"><ele>420.0</ele><time>2026-05-02T09:36:53.372Z</time></trkpt><trkpt lat="39.3845917" lon="8.4365033"><ele>420.4</ele><time>2026-05-02T09:36:55.371Z</time></trkpt><trkpt lat="39.3846917" lon="8.4365583"><ele>420.8</ele><time>2026-05-02T09:36:57.372Z</time></trkpt><trkpt lat="39.3848033" lon="8.4366217"><ele>421.20000000000005</ele><time>2026-05-02T09:36:59.37Z</time></trkpt><trkpt lat="39.3849117" lon="8.4366967"><ele>421.6</ele><time>2026-05-02T09:37:01.37Z</time></trkpt><trkpt lat="39.3849667" lon="8.4367433"><ele>422.0</ele><time>2026-05-02T09:37:02.394Z</time></trkpt><trkpt lat="39.3850233" lon="8.4367967"><ele>421.99999999999994</ele><time>2026-05-02T09:37:03.37Z</time></trkpt><trkpt lat="39.3850783" lon="8.4368583"><ele>422.0</ele><time>2026-05-02T09:37:04.371Z</time></trkpt><trkpt lat="39.3851333" lon="8.4369133"><ele>422.0</ele><time>2026-05-02T09:37:05.37Z</time></trkpt><trkpt lat="39.3851833" lon="8.4369667"><ele>422.0</ele><time>2026-05-02T09:37:06.37Z</time></trkpt><trkpt lat="39.3852717" lon="8.4370567"><ele>421.99999999999994</ele><time>2026-05-02T09:37:08.412Z</time></trkpt><trkpt lat="39.3853433" lon="8.437125"><ele>422.0</ele><time>2026-05-02T09:37:10.366Z</time></trkpt><trkpt lat="39.3854" lon="8.4372"><ele>427.0</ele><time>2026-05-02T09:37:12.369Z</time></trkpt><trkpt lat="39.38544" lon="8.4372683"><ele>432.0</ele><time>2026-05-02T09:37:14.413Z</time></trkpt><trkpt lat="39.3852933" lon="8.4372933"><ele>437.00000000000006</ele><time>2026-05-02T09:42:32.415Z</time></trkpt><trkpt lat="39.38521" lon="8.437245"><ele>442.0</ele><time>2026-05-02T09:43:18.37Z</time></trkpt><trkpt lat="39.3852383" lon="8.437355"><ele>447.0</ele><time>2026-05-02T09:43:31.369Z</time></trkpt><trkpt lat="39.3853283" lon="8.4374517"><ele>446.99999999999994</ele><time>2026-05-02T09:43:33.369Z</time></trkpt><trkpt lat="39.3853883" lon="8.4375"><ele>447.0</ele><time>2026-05-02T09:43:34.369Z</time></trkpt><trkpt lat="39.38545" lon="8.43755"><ele>447.0</ele><time>2026-05-02T09:43:35.369Z</time></trkpt><trkpt lat="39.385515" lon="8.4376033"><ele>447.0</ele><time>2026-05-02T09:43:36.371Z</time></trkpt><trkpt lat="39.3855783" lon="8.437665"><ele>447.0</ele><time>2026-05-02T09:43:37.367Z</time></trkpt><trkpt lat="39.385635" lon="8.43773"><ele>446.99999999999994</ele><time>2026-05-02T09:43:38.411Z</time></trkpt><trkpt lat="39.3856917" lon="8.4377883"><ele>447.0</ele><time>2026-05-02T09:43:39.368Z</time></trkpt><trkpt lat="39.3857317" lon="8.4378567"><ele>445.0</ele><time>2026-05-02T09:43:40.369Z</time></trkpt><trkpt lat="39.385765" lon="8.4380017"><ele>443.00000000000006</ele><time>2026-05-02T09:43:42.369Z</time></trkpt><trkpt lat="39.3857633" lon="8.4381267"><ele>441.00000000000006</ele><time>2026-05-02T09:43:44.411Z</time></trkpt><trkpt lat="39.3857317" lon="8.438265"><ele>439.0</ele><time>2026-05-02T09:43:46.367Z</time></trkpt><trkpt lat="39.38571" lon="8.4383417"><ele>437.0</ele><time>2026-05-02T09:43:47.369Z</time></trkpt><trkpt lat="39.3856917" lon="8.43843"><ele>436.99999999999994</ele><time>2026-05-02T09:43:48.371Z</time></trkpt><trkpt lat="39.385665" lon="8.4385267"><ele>437.0</ele><time>2026-05-02T09:43:49.369Z</time></trkpt><trkpt lat="39.3856433" lon="8.43862"><ele>437.0</ele><time>2026-05-02T09:43:50.41Z</time></trkpt><trkpt lat="39.3856233" lon="8.4387167"><ele>437.0</ele><time>2026-05-02T09:43:51.366Z</time></trkpt><trkpt lat="39.3856067" lon="8.4388167"><ele>436.99999999999994</ele><time>2026-05-02T09:43:52.369Z</time></trkpt><trkpt lat="39.3855983" lon="8.4389133"><ele>437.0</ele><time>2026-05-02T09:43:53.369Z</time></trkpt><trkpt lat="39.385595" lon="8.43901"><ele>436.66666666666663</ele><time>2026-05-02T09:43:54.368Z</time></trkpt><trkpt lat="39.38559" lon="8.4391033"><ele>436.3333333333333</ele><time>2026-05-02T09:43:55.37Z</time></trkpt><trkpt lat="39.385585" lon="8.4391933"><ele>436.0</ele><time>2026-05-02T09:43:56.435Z</time></trkpt><trkpt lat="39.3855767" lon="8.4392783"><ele>435.66666666666663</ele><time>2026-05-02T09:43:57.367Z</time></trkpt><trkpt lat="39.3855717" lon="8.4393617"><ele>435.3333333333333</ele><time>2026-05-02T09:43:58.366Z</time></trkpt><trkpt lat="39.38555" lon="8.4395167"><ele>435.0</ele><time>2026-05-02T09:44:00.371Z</time></trkpt><trkpt lat="39.385545" lon="8.439675"><ele>436.4</ele><time>2026-05-02T09:44:02.416Z</time></trkpt><trkpt lat="39.385555" lon="8.4398283"><ele>437.8</ele><time>2026-05-02T09:44:04.369Z</time></trkpt><trkpt lat="39.385605" lon="8.4399667"><ele>439.20000000000005</ele><time>2026-05-02T09:44:06.37Z</time></trkpt><trkpt lat="39.38571" lon="8.4400667"><ele>440.6</ele><time>2026-05-02T09:44:08.409Z</time></trkpt><trkpt lat="39.38577" lon="8.4401067"><ele>442.0</ele><time>2026-05-02T09:44:09.364Z</time></trkpt><trkpt lat="39.3858267" lon="8.440145"><ele>442.0</ele><time>2026-05-02T09:44:10.368Z</time></trkpt><trkpt lat="39.3859117" lon="8.4402433"><ele>442.00000000000006</ele><time>2026-05-02T09:44:12.369Z</time></trkpt><trkpt lat="39.3859633" lon="8.4403733"><ele>442.00000000000006</ele><time>2026-05-02T09:44:14.407Z</time></trkpt><trkpt lat="39.3860067" lon="8.4405217"><ele>442.0</ele><time>2026-05-02T09:44:16.369Z</time></trkpt><trkpt lat="39.386015" lon="8.4406117"><ele>442.0</ele><time>2026-05-02T09:44:17.368Z</time></trkpt><trkpt lat="39.3860283" lon="8.44071"><ele>444.6666666666667</ele><time>2026-05-02T09:44:18.366Z</time></trkpt><trkpt lat="39.386055" lon="8.4408133"><ele>447.33333333333337</ele><time>2026-05-02T09:44:19.365Z</time></trkpt><trkpt lat="39.386085" lon="8.4409017"><ele>450.0</ele><time>2026-05-02T09:44:20.412Z</time></trkpt><trkpt lat="39.386115" lon="8.4409867"><ele>452.66666666666663</ele><time>2026-05-02T09:44:21.368Z</time></trkpt><trkpt lat="39.386155" lon="8.4410583"><ele>455.3333333333333</ele><time>2026-05-02T09:44:22.369Z</time></trkpt><trkpt lat="39.3862183" lon="8.4411133"><ele>458.0</ele><time>2026-05-02T09:44:23.369Z</time></trkpt><trkpt lat="39.3862867" lon="8.4411583"><ele>458.0</ele><time>2026-05-02T09:44:24.369Z</time></trkpt><trkpt lat="39.386345" lon="8.4411983"><ele>458.0</ele><time>2026-05-02T09:44:25.369Z</time></trkpt><trkpt lat="39.3864067" lon="8.4412333"><ele>458.0</ele><time>2026-05-02T09:44:26.437Z</time></trkpt><trkpt lat="39.3864667" lon="8.4412767"><ele>458.0</ele><time>2026-05-02T09:44:27.369Z</time></trkpt><trkpt lat="39.3865283" lon="8.4413217"><ele>458.0</ele><time>2026-05-02T09:44:28.367Z</time></trkpt><trkpt lat="39.3865967" lon="8.4413667"><ele>458.0</ele><time>2026-05-02T09:44:29.365Z</time></trkpt><trkpt lat="39.3866633" lon="8.44142"><ele>458.0</ele><time>2026-05-02T09:44:30.37Z</time></trkpt><trkpt lat="39.38673" lon="8.441475"><ele>457.99999999999994</ele><time>2026-05-02T09:44:31.37Z</time></trkpt><trkpt lat="39.386795" lon="8.4415267"><ele>458.0</ele><time>2026-05-02T09:44:32.435Z</time></trkpt><trkpt lat="39.3868533" lon="8.4415783"><ele>458.0</ele><time>2026-05-02T09:44:33.37Z</time></trkpt><trkpt lat="39.3869017" lon="8.4416333"><ele>458.0</ele><time>2026-05-02T09:44:34.367Z</time></trkpt><trkpt lat="39.3869417" lon="8.4417"><ele>457.99999999999994</ele><time>2026-05-02T09:44:35.369Z</time></trkpt><trkpt lat="39.3869717" lon="8.4417717"><ele>458.0</ele><time>2026-05-02T09:44:36.368Z</time></trkpt><trkpt lat="39.3870083" lon="8.4419283"><ele>458.0</ele><time>2026-05-02T09:44:38.409Z</time></trkpt><trkpt lat="39.3870033" lon="8.4420917"><ele>457.99999999999994</ele><time>2026-05-02T09:44:40.369Z</time></trkpt><trkpt lat="39.38695" lon="8.4422467"><ele>457.99999999999994</ele><time>2026-05-02T09:44:42.37Z</time></trkpt><trkpt lat="39.3869067" lon="8.4423367"><ele>458.0</ele><time>2026-05-02T09:44:43.371Z</time></trkpt><trkpt lat="39.38686" lon="8.4424217"><ele>458.0</ele><time>2026-05-02T09:44:44.411Z</time></trkpt><trkpt lat="39.3868" lon="8.44251"><ele>459.4</ele><time>2026-05-02T09:44:45.366Z</time></trkpt><trkpt lat="39.38673" lon="8.4426"><ele>460.79999999999995</ele><time>2026-05-02T09:44:46.37Z</time></trkpt><trkpt lat="39.3866567" lon="8.4426833"><ele>462.2</ele><time>2026-05-02T09:44:47.371Z</time></trkpt><trkpt lat="39.3865767" lon="8.4427533"><ele>463.6</ele><time>2026-05-02T09:44:48.37Z</time></trkpt><trkpt lat="39.3864983" lon="8.442815"><ele>465.0</ele><time>2026-05-02T09:44:49.37Z</time></trkpt><trkpt lat="39.38642" lon="8.442875"><ele>465.0</ele><time>2026-05-02T09:44:50.412Z</time></trkpt><trkpt lat="39.3863517" lon="8.44293"><ele>465.0</ele><time>2026-05-02T09:44:51.368Z</time></trkpt><trkpt lat="39.386295" lon="8.442985"><ele>465.0</ele><time>2026-05-02T09:44:52.372Z</time></trkpt><trkpt lat="39.386245" lon="8.4430483"><ele>465.0</ele><time>2026-05-02T09:44:53.369Z</time></trkpt><trkpt lat="39.386205" lon="8.443115"><ele>465.0</ele><time>2026-05-02T09:44:54.37Z</time></trkpt><trkpt lat="39.3861633" lon="8.4431883"><ele>465.0</ele><time>2026-05-02T09:44:55.367Z</time></trkpt><trkpt lat="39.3861183" lon="8.4432567"><ele>465.0</ele><time>2026-05-02T09:44:56.437Z</time></trkpt><trkpt lat="39.3860733" lon="8.443325"><ele>465.0</ele><time>2026-05-02T09:44:57.37Z</time></trkpt><trkpt lat="39.3860333" lon="8.4433917"><ele>465.0</ele><time>2026-05-02T09:44:58.371Z</time></trkpt><trkpt lat="39.3859933" lon="8.443465"><ele>465.0</ele><time>2026-05-02T09:44:59.369Z</time></trkpt><trkpt lat="39.3859567" lon="8.4435417"><ele>465.0</ele><time>2026-05-02T09:45:00.37Z</time></trkpt><trkpt lat="39.3859233" lon="8.44362"><ele>465.0</ele><time>2026-05-02T09:45:01.371Z</time></trkpt><trkpt lat="39.38589" lon="8.4437067"><ele>465.0</ele><time>2026-05-02T09:45:02.424Z</time></trkpt><trkpt lat="39.3858633" lon="8.44379"><ele>465.0</ele><time>2026-05-02T09:45:03.368Z</time></trkpt><trkpt lat="39.3858433" lon="8.4438883"><ele>465.0</ele><time>2026-05-02T09:45:04.372Z</time></trkpt><trkpt lat="39.3858417" lon="8.4439767"><ele>465.0</ele><time>2026-05-02T09:45:05.374Z</time></trkpt><trkpt lat="39.3858483" lon="8.444065"><ele>465.0</ele><time>2026-05-02T09:45:06.371Z</time></trkpt><trkpt lat="39.385865" lon="8.4441533"><ele>465.0</ele><time>2026-05-02T09:45:07.37Z</time></trkpt><trkpt lat="39.3858867" lon="8.44424"><ele>465.0</ele><time>2026-05-02T09:45:08.411Z</time></trkpt><trkpt lat="39.3859133" lon="8.4443233"><ele>465.0</ele><time>2026-05-02T09:45:09.368Z</time></trkpt><trkpt lat="39.38594" lon="8.4444017"><ele>465.0</ele><time>2026-05-02T09:45:10.371Z</time></trkpt><trkpt lat="39.385985" lon="8.44455"><ele>464.5</ele><time>2026-05-02T09:45:12.37Z</time></trkpt><trkpt lat="39.38603" lon="8.4447017"><ele>464.0</ele><time>2026-05-02T09:45:14.413Z</time></trkpt><trkpt lat="39.3860483" lon="8.4447817"><ele>463.5</ele><time>2026-05-02T09:45:15.373Z</time></trkpt><trkpt lat="39.3860633" lon="8.4448683"><ele>463.0</ele><time>2026-05-02T09:45:16.369Z</time></trkpt><trkpt lat="39.386075" lon="8.4449633"><ele>462.5</ele><time>2026-05-02T09:45:17.369Z</time></trkpt><trkpt lat="39.386085" lon="8.445055"><ele>462.0</ele><time>2026-05-02T09:45:18.375Z</time></trkpt><trkpt lat="39.3860983" lon="8.4451433"><ele>462.0</ele><time>2026-05-02T09:45:19.37Z</time></trkpt><trkpt lat="39.38612" lon="8.445235"><ele>462.0</ele><time>2026-05-02T09:45:20.414Z</time></trkpt><trkpt lat="39.3861367" lon="8.4453283"><ele>462.0</ele><time>2026-05-02T09:45:21.369Z</time></trkpt><trkpt lat="39.3861583" lon="8.4454167"><ele>462.0</ele><time>2026-05-02T09:45:22.372Z</time></trkpt><trkpt lat="39.38617" lon="8.4455033"><ele>462.0</ele><time>2026-05-02T09:45:23.371Z</time></trkpt><trkpt lat="39.38618" lon="8.4455933"><ele>462.0</ele><time>2026-05-02T09:45:24.374Z</time></trkpt><trkpt lat="39.386185" lon="8.44569"><ele>462.0</ele><time>2026-05-02T09:45:25.372Z</time></trkpt><trkpt lat="39.3861817" lon="8.4457917"><ele>461.8333333333333</ele><time>2026-05-02T09:45:26.421Z</time></trkpt><trkpt lat="39.3861783" lon="8.4458983"><ele>461.66666666666663</ele><time>2026-05-02T09:45:27.371Z</time></trkpt><trkpt lat="39.3861717" lon="8.4460067"><ele>461.5</ele><time>2026-05-02T09:45:28.371Z</time></trkpt><trkpt lat="39.3861683" lon="8.446105"><ele>461.3333333333333</ele><time>2026-05-02T09:45:29.373Z</time></trkpt><trkpt lat="39.3861667" lon="8.446215"><ele>461.16666666666663</ele><time>2026-05-02T09:45:30.377Z</time></trkpt><trkpt lat="39.3861733" lon="8.4463267"><ele>461.0</ele><time>2026-05-02T09:45:31.366Z</time></trkpt><trkpt lat="39.3861867" lon="8.4464367"><ele>460.0</ele><time>2026-05-02T09:45:32.422Z</time></trkpt><trkpt lat="39.386205" lon="8.4465533"><ele>459.0</ele><time>2026-05-02T09:45:33.367Z</time></trkpt><trkpt lat="39.3862217" lon="8.44667"><ele>458.0</ele><time>2026-05-02T09:45:34.372Z</time></trkpt><trkpt lat="39.3862383" lon="8.446785"><ele>457.0</ele><time>2026-05-02T09:45:35.372Z</time></trkpt><trkpt lat="39.38626" lon="8.4468967"><ele>456.0</ele><time>2026-05-02T09:45:36.368Z</time></trkpt><trkpt lat="39.386275" lon="8.4470133"><ele>456.0</ele><time>2026-05-02T09:45:37.37Z</time></trkpt><trkpt lat="39.3863" lon="8.447115"><ele>456.0</ele><time>2026-05-02T09:45:38.414Z</time></trkpt><trkpt lat="39.3863167" lon="8.44721"><ele>456.0</ele><time>2026-05-02T09:45:39.369Z</time></trkpt><trkpt lat="39.3863317" lon="8.4473033"><ele>456.0</ele><time>2026-05-02T09:45:40.369Z</time></trkpt><trkpt lat="39.38633" lon="8.447445"><ele>456.0</ele><time>2026-05-02T09:45:42.37Z</time></trkpt><trkpt lat="39.3863" lon="8.44754"><ele>456.0</ele><time>2026-05-02T09:45:44.415Z</time></trkpt><trkpt lat="39.3862583" lon="8.44762"><ele>454.8</ele><time>2026-05-02T09:45:46.372Z</time></trkpt><trkpt lat="39.3861917" lon="8.4476967"><ele>453.6</ele><time>2026-05-02T09:45:48.372Z</time></trkpt><trkpt lat="39.3860967" lon="8.4477433"><ele>452.4</ele><time>2026-05-02T09:45:50.411Z</time></trkpt><trkpt lat="39.38599" lon="8.4477583"><ele>451.2</ele><time>2026-05-02T09:45:52.367Z</time></trkpt><trkpt lat="39.3858817" lon="8.447795"><ele>450.0</ele><time>2026-05-02T09:45:54.37Z</time></trkpt><trkpt lat="39.3858" lon="8.4478583"><ele>450.0</ele><time>2026-05-02T09:45:56.42Z</time></trkpt><trkpt lat="39.3857683" lon="8.4479417"><ele>450.0</ele><time>2026-05-02T09:45:58.369Z</time></trkpt><trkpt lat="39.3858" lon="8.4480417"><ele>450.0</ele><time>2026-05-02T09:46:00.367Z</time></trkpt><trkpt lat="39.3858467" lon="8.4481533"><ele>450.0</ele><time>2026-05-02T09:46:02.412Z</time></trkpt><trkpt lat="39.3858867" lon="8.44827"><ele>450.0</ele><time>2026-05-02T09:46:04.369Z</time></trkpt><trkpt lat="39.385955" lon="8.4483567"><ele>450.0</ele><time>2026-05-02T09:46:06.372Z</time></trkpt><trkpt lat="39.3860533" lon="8.4484083"><ele>449.8</ele><time>2026-05-02T09:46:08.412Z</time></trkpt><trkpt lat="39.3861667" lon="8.4484467"><ele>449.6</ele><time>2026-05-02T09:46:10.369Z</time></trkpt><trkpt lat="39.38628" lon="8.448445"><ele>449.4</ele><time>2026-05-02T09:46:12.374Z</time></trkpt><trkpt lat="39.386375" lon="8.44839"><ele>449.2</ele><time>2026-05-02T09:46:14.41Z</time></trkpt><trkpt lat="39.38648" lon="8.44834"><ele>449.0</ele><time>2026-05-02T09:46:16.37Z</time></trkpt><trkpt lat="39.3865683" lon="8.4483333"><ele>448.99999999999994</ele><time>2026-05-02T09:46:18.368Z</time></trkpt><trkpt lat="39.3865783" lon="8.4484167"><ele>449.0</ele><time>2026-05-02T09:46:22.369Z</time></trkpt><trkpt lat="39.3865183" lon="8.448455"><ele>449.0</ele><time>2026-05-02T09:46:24.37Z</time></trkpt><trkpt lat="39.3864433" lon="8.4485167"><ele>449.0</ele><time>2026-05-02T09:46:26.419Z</time></trkpt><trkpt lat="39.386375" lon="8.448605"><ele>448.99999999999994</ele><time>2026-05-02T09:46:28.37Z</time></trkpt><trkpt lat="39.38629" lon="8.4487117"><ele>449.0</ele><time>2026-05-02T09:46:30.372Z</time></trkpt><trkpt lat="39.3862117" lon="8.448805"><ele>447.3333333333333</ele><time>2026-05-02T09:46:32.42Z</time></trkpt><trkpt lat="39.3861733" lon="8.4488733"><ele>445.66666666666663</ele><time>2026-05-02T09:46:34.368Z</time></trkpt><trkpt lat="39.3861517" lon="8.4489683"><ele>444.0</ele><time>2026-05-02T09:46:37.369Z</time></trkpt><trkpt lat="39.3861417" lon="8.4490717"><ele>442.33333333333337</ele><time>2026-05-02T09:46:39.368Z</time></trkpt><trkpt lat="39.3861367" lon="8.44918"><ele>440.6666666666667</ele><time>2026-05-02T09:46:41.37Z</time></trkpt><trkpt lat="39.3861467" lon="8.449285"><ele>439.0</ele><time>2026-05-02T09:46:43.367Z</time></trkpt><trkpt lat="39.3861833" lon="8.4494"><ele>439.0</ele><time>2026-05-02T09:46:45.369Z</time></trkpt><trkpt lat="39.38623" lon="8.449515"><ele>439.0</ele><time>2026-05-02T09:46:47.37Z</time></trkpt><trkpt lat="39.3862483" lon="8.4496267"><ele>439.0</ele><time>2026-05-02T09:46:49.373Z</time></trkpt><trkpt lat="39.3862433" lon="8.449745"><ele>439.0</ele><time>2026-05-02T09:46:51.368Z</time></trkpt><trkpt lat="39.3862317" lon="8.4498817"><ele>439.0</ele><time>2026-05-02T09:46:53.365Z</time></trkpt><trkpt lat="39.3862183" lon="8.4500217"><ele>439.4</ele><time>2026-05-02T09:46:55.368Z</time></trkpt><trkpt lat="39.38621" lon="8.4501533"><ele>439.79999999999995</ele><time>2026-05-02T09:46:57.369Z</time></trkpt><trkpt lat="39.38622" lon="8.4502783"><ele>440.20000000000005</ele><time>2026-05-02T09:46:59.369Z</time></trkpt><trkpt lat="39.386265" lon="8.4503783"><ele>440.6</ele><time>2026-05-02T09:47:01.369Z</time></trkpt><trkpt lat="39.3863367" lon="8.450445"><ele>441.0</ele><time>2026-05-02T09:47:03.365Z</time></trkpt><trkpt lat="39.3864283" lon="8.450475"><ele>438.6666666666667</ele><time>2026-05-02T09:47:05.368Z</time></trkpt><trkpt lat="39.3865133" lon="8.45048"><ele>436.33333333333337</ele><time>2026-05-02T09:47:07.366Z</time></trkpt><trkpt lat="39.386615" lon="8.45051"><ele>434.0</ele><time>2026-05-02T09:47:09.371Z</time></trkpt><trkpt lat="39.3867183" lon="8.4505833"><ele>431.6666666666667</ele><time>2026-05-02T09:47:11.364Z</time></trkpt><trkpt lat="39.3867633" lon="8.4506483"><ele>429.33333333333337</ele><time>2026-05-02T09:47:12.368Z</time></trkpt><trkpt lat="39.38681" lon="8.4507033"><ele>427.0</ele><time>2026-05-02T09:47:13.368Z</time></trkpt><trkpt lat="39.3869033" lon="8.4507783"><ele>427.00000000000006</ele><time>2026-05-02T09:47:15.374Z</time></trkpt><trkpt lat="39.3869767" lon="8.4507883"><ele>427.0</ele><time>2026-05-02T09:47:17.369Z</time></trkpt><trkpt lat="39.3870333" lon="8.4507117"><ele>427.0</ele><time>2026-05-02T09:47:20.41Z</time></trkpt><trkpt lat="39.386965" lon="8.4506183"><ele>427.0</ele><time>2026-05-02T09:47:23.37Z</time></trkpt><trkpt lat="39.3869167" lon="8.450555"><ele>427.00000000000006</ele><time>2026-05-02T09:47:25.37Z</time></trkpt><trkpt lat="39.386905" lon="8.4504667"><ele>427.0</ele><time>2026-05-02T09:47:27.366Z</time></trkpt><trkpt lat="39.38697" lon="8.450445"><ele>427.0</ele><time>2026-05-02T09:47:29.365Z</time></trkpt><trkpt lat="39.3870467" lon="8.4504917"><ele>427.00000000000006</ele><time>2026-05-02T09:47:31.369Z</time></trkpt><trkpt lat="39.387125" lon="8.4505583"><ele>427.00000000000006</ele><time>2026-05-02T09:47:33.367Z</time></trkpt><trkpt lat="39.3872033" lon="8.4506367"><ele>427.0</ele><time>2026-05-02T09:47:35.369Z</time></trkpt><trkpt lat="39.3872633" lon="8.45073"><ele>427.0</ele><time>2026-05-02T09:47:37.369Z</time></trkpt><trkpt lat="39.3873067" lon="8.45084"><ele>426.33333333333337</ele><time>2026-05-02T09:47:39.37Z</time></trkpt><trkpt lat="39.38732" lon="8.45096"><ele>425.6666666666667</ele><time>2026-05-02T09:47:41.366Z</time></trkpt><trkpt lat="39.3873167" lon="8.4510717"><ele>425.0</ele><time>2026-05-02T09:47:43.369Z</time></trkpt><trkpt lat="39.387295" lon="8.45118"><ele>424.33333333333337</ele><time>2026-05-02T09:47:45.367Z</time></trkpt><trkpt lat="39.3872533" lon="8.4512833"><ele>423.6666666666667</ele><time>2026-05-02T09:47:47.367Z</time></trkpt><trkpt lat="39.387205" lon="8.4513683"><ele>423.0</ele><time>2026-05-02T09:47:49.37Z</time></trkpt><trkpt lat="39.3871533" lon="8.4514517"><ele>423.0</ele><time>2026-05-02T09:47:51.366Z</time></trkpt><trkpt lat="39.3871233" lon="8.4515383"><ele>423.0</ele><time>2026-05-02T09:47:53.365Z</time></trkpt><trkpt lat="39.3871017" lon="8.45164"><ele>423.0</ele><time>2026-05-02T09:47:55.37Z</time></trkpt><trkpt lat="39.38708" lon="8.45176"><ele>423.0</ele><time>2026-05-02T09:47:57.366Z</time></trkpt><trkpt lat="39.3870933" lon="8.4518883"><ele>423.0</ele><time>2026-05-02T09:47:59.37Z</time></trkpt><trkpt lat="39.387095" lon="8.4520067"><ele>423.0</ele><time>2026-05-02T09:48:01.366Z</time></trkpt><trkpt lat="39.38708" lon="8.4521283"><ele>420.6666666666667</ele><time>2026-05-02T09:48:03.365Z</time></trkpt><trkpt lat="39.3870467" lon="8.452255"><ele>418.33333333333337</ele><time>2026-05-02T09:48:05.369Z</time></trkpt><trkpt lat="39.3870017" lon="8.452385"><ele>416.0</ele><time>2026-05-02T09:48:07.366Z</time></trkpt><trkpt lat="39.3869667" lon="8.4524533"><ele>413.6666666666667</ele><time>2026-05-02T09:48:08.413Z</time></trkpt><trkpt lat="39.3869267" lon="8.4525333"><ele>411.33333333333337</ele><time>2026-05-02T09:48:09.367Z</time></trkpt><trkpt lat="39.38688" lon="8.4526217"><ele>409.0</ele><time>2026-05-02T09:48:10.368Z</time></trkpt><trkpt lat="39.3868233" lon="8.45271"><ele>409.0</ele><time>2026-05-02T09:48:11.366Z</time></trkpt><trkpt lat="39.38676" lon="8.452805"><ele>409.0</ele><time>2026-05-02T09:48:12.369Z</time></trkpt><trkpt lat="39.3867" lon="8.452895"><ele>409.0</ele><time>2026-05-02T09:48:13.37Z</time></trkpt><trkpt lat="39.3866433" lon="8.4529867"><ele>409.0</ele><time>2026-05-02T09:48:14.411Z</time></trkpt><trkpt lat="39.38659" lon="8.45308"><ele>409.0</ele><time>2026-05-02T09:48:15.366Z</time></trkpt><trkpt lat="39.38653" lon="8.4531767"><ele>408.50000000000006</ele><time>2026-05-02T09:48:16.369Z</time></trkpt><trkpt lat="39.38648" lon="8.4532733"><ele>408.0</ele><time>2026-05-02T09:48:17.369Z</time></trkpt><trkpt lat="39.3864233" lon="8.45337"><ele>407.5</ele><time>2026-05-02T09:48:18.369Z</time></trkpt><trkpt lat="39.3863783" lon="8.4534517"><ele>407.0</ele><time>2026-05-02T09:48:19.367Z</time></trkpt><trkpt lat="39.386355" lon="8.4535383"><ele>406.50000000000006</ele><time>2026-05-02T09:48:20.41Z</time></trkpt><trkpt lat="39.3863133" lon="8.4536117"><ele>406.0</ele><time>2026-05-02T09:48:21.365Z</time></trkpt><trkpt lat="39.3862717" lon="8.453685"><ele>406.00000000000006</ele><time>2026-05-02T09:48:22.367Z</time></trkpt><trkpt lat="39.38622" lon="8.4537417"><ele>406.0</ele><time>2026-05-02T09:48:23.365Z</time></trkpt><trkpt lat="39.386155" lon="8.4537967"><ele>406.0</ele><time>2026-05-02T09:48:24.368Z</time></trkpt><trkpt lat="39.38609" lon="8.4538517"><ele>406.0</ele><time>2026-05-02T09:48:25.367Z</time></trkpt><trkpt lat="39.3860167" lon="8.453905"><ele>406.00000000000006</ele><time>2026-05-02T09:48:26.415Z</time></trkpt><trkpt lat="39.3859483" lon="8.4539517"><ele>406.0</ele><time>2026-05-02T09:48:27.363Z</time></trkpt><trkpt lat="39.385875" lon="8.4539983"><ele>405.1666666666667</ele><time>2026-05-02T09:48:28.365Z</time></trkpt><trkpt lat="39.38579" lon="8.4540517"><ele>404.33333333333337</ele><time>2026-05-02T09:48:29.365Z</time></trkpt><trkpt lat="39.3857083" lon="8.4540983"><ele>403.5</ele><time>2026-05-02T09:48:30.37Z</time></trkpt><trkpt lat="39.3856233" lon="8.454135"><ele>402.66666666666663</ele><time>2026-05-02T09:48:31.37Z</time></trkpt><trkpt lat="39.3855417" lon="8.4541633"><ele>401.8333333333333</ele><time>2026-05-02T09:48:32.416Z</time></trkpt><trkpt lat="39.3854567" lon="8.4542067"><ele>401.0</ele><time>2026-05-02T09:48:33.369Z</time></trkpt><trkpt lat="39.38538" lon="8.4542517"><ele>401.0</ele><time>2026-05-02T09:48:34.369Z</time></trkpt><trkpt lat="39.3852867" lon="8.4542983"><ele>401.0</ele><time>2026-05-02T09:48:35.368Z</time></trkpt><trkpt lat="39.385195" lon="8.4543583"><ele>401.0</ele><time>2026-05-02T09:48:36.37Z</time></trkpt><trkpt lat="39.3851" lon="8.4544083"><ele>401.0</ele><time>2026-05-02T09:48:37.369Z</time></trkpt><trkpt lat="39.3850083" lon="8.4544617"><ele>401.0</ele><time>2026-05-02T09:48:38.41Z</time></trkpt><trkpt lat="39.3849133" lon="8.4545217"><ele>401.0</ele><time>2026-05-02T09:48:39.369Z</time></trkpt><trkpt lat="39.384825" lon="8.454585"><ele>401.0</ele><time>2026-05-02T09:48:40.364Z</time></trkpt><trkpt lat="39.384745" lon="8.45465"><ele>401.0</ele><time>2026-05-02T09:48:41.365Z</time></trkpt><trkpt lat="39.3846617" lon="8.454725"><ele>401.0</ele><time>2026-05-02T09:48:42.369Z</time></trkpt><trkpt lat="39.38458" lon="8.4547817"><ele>401.0</ele><time>2026-05-02T09:48:43.365Z</time></trkpt><trkpt lat="39.384505" lon="8.4548117"><ele>400.8333333333333</ele><time>2026-05-02T09:48:44.411Z</time></trkpt><trkpt lat="39.3844383" lon="8.4548617"><ele>400.66666666666663</ele><time>2026-05-02T09:48:45.37Z</time></trkpt><trkpt lat="39.38438" lon="8.4549283"><ele>400.5</ele><time>2026-05-02T09:48:46.367Z</time></trkpt><trkpt lat="39.38433" lon="8.4550067"><ele>400.33333333333337</ele><time>2026-05-02T09:48:47.367Z</time></trkpt><trkpt lat="39.384285" lon="8.4550833"><ele>400.1666666666667</ele><time>2026-05-02T09:48:48.366Z</time></trkpt><trkpt lat="39.3842433" lon="8.45518"><ele>400.0</ele><time>2026-05-02T09:48:49.367Z</time></trkpt><trkpt lat="39.3842" lon="8.4552767"><ele>400.00000000000006</ele><time>2026-05-02T09:48:50.408Z</time></trkpt><trkpt lat="39.38415" lon="8.4553783"><ele>400.0</ele><time>2026-05-02T09:48:51.366Z</time></trkpt><trkpt lat="39.384105" lon="8.4554667"><ele>400.0</ele><time>2026-05-02T09:48:52.367Z</time></trkpt><trkpt lat="39.3840583" lon="8.45556"><ele>400.0</ele><time>2026-05-02T09:48:53.367Z</time></trkpt><trkpt lat="39.3840067" lon="8.45565"><ele>400.00000000000006</ele><time>2026-05-02T09:48:54.366Z</time></trkpt><trkpt lat="39.383945" lon="8.4557533"><ele>400.0</ele><time>2026-05-02T09:48:55.368Z</time></trkpt><trkpt lat="39.3839033" lon="8.4558567"><ele>399.8571428571429</ele><time>2026-05-02T09:48:56.415Z</time></trkpt><trkpt lat="39.38386" lon="8.45596"><ele>399.7142857142857</ele><time>2026-05-02T09:48:57.365Z</time></trkpt><trkpt lat="39.3838217" lon="8.456045"><ele>399.57142857142856</ele><time>2026-05-02T09:48:58.365Z</time></trkpt><trkpt lat="39.3837783" lon="8.4561283"><ele>399.42857142857144</ele><time>2026-05-02T09:48:59.366Z</time></trkpt><trkpt lat="39.383735" lon="8.4562017"><ele>399.2857142857143</ele><time>2026-05-02T09:49:00.365Z</time></trkpt><trkpt lat="39.3836983" lon="8.45627"><ele>399.14285714285717</ele><time>2026-05-02T09:49:01.366Z</time></trkpt><trkpt lat="39.38365" lon="8.4563267"><ele>399.0</ele><time>2026-05-02T09:49:02.413Z</time></trkpt><trkpt lat="39.3835333" lon="8.4563883"><ele>396.5</ele><time>2026-05-02T09:49:04.367Z</time></trkpt><trkpt lat="39.38347" lon="8.4564083"><ele>394.0</ele><time>2026-05-02T09:49:05.367Z</time></trkpt><trkpt lat="39.3834" lon="8.4564217"><ele>391.5</ele><time>2026-05-02T09:49:06.364Z</time></trkpt><trkpt lat="39.3833233" lon="8.45642"><ele>389.0</ele><time>2026-05-02T09:49:07.366Z</time></trkpt><trkpt lat="39.3832467" lon="8.4564317"><ele>386.5</ele><time>2026-05-02T09:49:08.41Z</time></trkpt><trkpt lat="39.3831667" lon="8.4564467"><ele>384.0</ele><time>2026-05-02T09:49:09.367Z</time></trkpt><trkpt lat="39.383085" lon="8.456455"><ele>384.1666666666667</ele><time>2026-05-02T09:49:10.363Z</time></trkpt><trkpt lat="39.3829883" lon="8.4564583"><ele>384.33333333333337</ele><time>2026-05-02T09:49:11.368Z</time></trkpt><trkpt lat="39.3829" lon="8.4564667"><ele>384.5</ele><time>2026-05-02T09:49:12.369Z</time></trkpt><trkpt lat="39.3828133" lon="8.4564767"><ele>384.6666666666667</ele><time>2026-05-02T09:49:13.369Z</time></trkpt><trkpt lat="39.3827317" lon="8.4564767"><ele>384.83333333333337</ele><time>2026-05-02T09:49:14.408Z</time></trkpt><trkpt lat="39.3826433" lon="8.456475"><ele>385.0</ele><time>2026-05-02T09:49:15.369Z</time></trkpt><trkpt lat="39.3825633" lon="8.45647"><ele>385.00000000000006</ele><time>2026-05-02T09:49:16.365Z</time></trkpt><trkpt lat="39.382485" lon="8.4564783"><ele>385.0</ele><time>2026-05-02T09:49:17.365Z</time></trkpt><trkpt lat="39.3824083" lon="8.4564867"><ele>385.0</ele><time>2026-05-02T09:49:18.371Z</time></trkpt><trkpt lat="39.3823283" lon="8.4564867"><ele>385.0</ele><time>2026-05-02T09:49:19.368Z</time></trkpt><trkpt lat="39.3822533" lon="8.4564933"><ele>385.00000000000006</ele><time>2026-05-02T09:49:20.409Z</time></trkpt><trkpt lat="39.3821883" lon="8.45651"><ele>385.0</ele><time>2026-05-02T09:49:21.363Z</time></trkpt><trkpt lat="39.3821067" lon="8.4565433"><ele>385.1666666666667</ele><time>2026-05-02T09:49:23.367Z</time></trkpt><trkpt lat="39.38205" lon="8.45662"><ele>385.33333333333337</ele><time>2026-05-02T09:49:25.367Z</time></trkpt><trkpt lat="39.3820533" lon="8.4567267"><ele>385.5</ele><time>2026-05-02T09:49:27.369Z</time></trkpt><trkpt lat="39.3820567" lon="8.4568217"><ele>385.66666666666663</ele><time>2026-05-02T09:49:29.372Z</time></trkpt><trkpt lat="39.3820583" lon="8.4569067"><ele>385.8333333333333</ele><time>2026-05-02T09:49:32.382Z</time></trkpt><trkpt lat="39.3820783" lon="8.4570033"><ele>386.0</ele><time>2026-05-02T09:49:35.363Z</time></trkpt><trkpt lat="39.3820983" lon="8.4571083"><ele>385.66666666666663</ele><time>2026-05-02T09:49:38.409Z</time></trkpt><trkpt lat="39.38212" lon="8.4572133"><ele>385.3333333333333</ele><time>2026-05-02T09:49:40.368Z</time></trkpt><trkpt lat="39.3821433" lon="8.4573067"><ele>385.0</ele><time>2026-05-02T09:49:42.367Z</time></trkpt><trkpt lat="39.3821767" lon="8.4573967"><ele>384.66666666666663</ele><time>2026-05-02T09:49:44.408Z</time></trkpt><trkpt lat="39.3822133" lon="8.457485"><ele>384.3333333333333</ele><time>2026-05-02T09:49:46.367Z</time></trkpt><trkpt lat="39.38225" lon="8.4575733"><ele>384.0</ele><time>2026-05-02T09:49:48.368Z</time></trkpt><trkpt lat="39.3822983" lon="8.45769"><ele>384.0</ele><time>2026-05-02T09:49:50.41Z</time></trkpt><trkpt lat="39.3823167" lon="8.4577883"><ele>384.0</ele><time>2026-05-02T09:49:52.369Z</time></trkpt><trkpt lat="39.3824317" lon="8.45785"><ele>384.0</ele><time>2026-05-02T09:51:03.366Z</time></trkpt><trkpt lat="39.3824783" lon="8.457745"><ele>384.0</ele><time>2026-05-02T09:56:33.364Z</time></trkpt><trkpt lat="39.3824433" lon="8.4576233"><ele>384.0</ele><time>2026-05-02T10:00:32.388Z</time></trkpt><trkpt lat="39.382445" lon="8.4577167"><ele>384.0</ele><time>2026-05-02T10:01:34.363Z</time></trkpt><trkpt lat="39.38257" lon="8.4578483"><ele>384.0</ele><time>2026-05-02T10:01:46.366Z</time></trkpt><trkpt lat="39.3826217" lon="8.4579267"><ele>384.0</ele><time>2026-05-02T10:01:48.368Z</time></trkpt><trkpt lat="39.3826683" lon="8.45801"><ele>384.0</ele><time>2026-05-02T10:01:50.385Z</time></trkpt><trkpt lat="39.3827133" lon="8.4581033"><ele>384.0</ele><time>2026-05-02T10:01:52.366Z</time></trkpt><trkpt lat="39.38277" lon="8.4582167"><ele>384.6</ele><time>2026-05-02T10:01:54.365Z</time></trkpt><trkpt lat="39.382825" lon="8.4583133"><ele>385.2</ele><time>2026-05-02T10:01:56.366Z</time></trkpt><trkpt lat="39.3828833" lon="8.4584133"><ele>385.8</ele><time>2026-05-02T10:01:58.364Z</time></trkpt><trkpt lat="39.38295" lon="8.4585167"><ele>386.40000000000003</ele><time>2026-05-02T10:02:00.366Z</time></trkpt><trkpt lat="39.3830083" lon="8.4586233"><ele>387.0</ele><time>2026-05-02T10:02:02.382Z</time></trkpt><trkpt lat="39.38307" lon="8.4587283"><ele>387.6</ele><time>2026-05-02T10:02:04.36Z</time></trkpt><trkpt lat="39.38313" lon="8.458835"><ele>388.20000000000005</ele><time>2026-05-02T10:02:06.366Z</time></trkpt><trkpt lat="39.3831933" lon="8.4589483"><ele>388.8</ele><time>2026-05-02T10:02:08.384Z</time></trkpt><trkpt lat="39.3832517" lon="8.4590717"><ele>389.4</ele><time>2026-05-02T10:02:10.366Z</time></trkpt><trkpt lat="39.38331" lon="8.4591833"><ele>390.0</ele><time>2026-05-02T10:02:12.368Z</time></trkpt><trkpt lat="39.3833867" lon="8.459295"><ele>390.0</ele><time>2026-05-02T10:02:14.378Z</time></trkpt><trkpt lat="39.383465" lon="8.4594083"><ele>390.0</ele><time>2026-05-02T10:02:16.365Z</time></trkpt><trkpt lat="39.383545" lon="8.45952"><ele>390.0</ele><time>2026-05-02T10:02:18.365Z</time></trkpt><trkpt lat="39.3836133" lon="8.4596483"><ele>390.0</ele><time>2026-05-02T10:02:20.384Z</time></trkpt><trkpt lat="39.38369" lon="8.4597683"><ele>390.7142857142857</ele><time>2026-05-02T10:02:22.364Z</time></trkpt><trkpt lat="39.3837333" lon="8.4598333"><ele>391.42857142857144</ele><time>2026-05-02T10:02:23.367Z</time></trkpt><trkpt lat="39.3837767" lon="8.4599017"><ele>392.1428571428571</ele><time>2026-05-02T10:02:24.366Z</time></trkpt><trkpt lat="39.3838183" lon="8.4599683"><ele>392.8571428571429</ele><time>2026-05-02T10:02:25.369Z</time></trkpt><trkpt lat="39.3838583" lon="8.4600367"><ele>393.5714285714286</ele><time>2026-05-02T10:02:26.432Z</time></trkpt><trkpt lat="39.3839" lon="8.4601033"><ele>394.2857142857143</ele><time>2026-05-02T10:02:27.364Z</time></trkpt><trkpt lat="39.38394" lon="8.46017"><ele>395.0</ele><time>2026-05-02T10:02:28.365Z</time></trkpt><trkpt lat="39.3839767" lon="8.4602383"><ele>395.0</ele><time>2026-05-02T10:02:29.364Z</time></trkpt><trkpt lat="39.3840167" lon="8.4603067"><ele>395.0</ele><time>2026-05-02T10:02:30.364Z</time></trkpt><trkpt lat="39.3840567" lon="8.46038"><ele>395.0</ele><time>2026-05-02T10:02:31.363Z</time></trkpt><trkpt lat="39.3840967" lon="8.4604533"><ele>395.0</ele><time>2026-05-02T10:02:32.405Z</time></trkpt><trkpt lat="39.384135" lon="8.4605283"><ele>395.0</ele><time>2026-05-02T10:02:33.363Z</time></trkpt><trkpt lat="39.3841767" lon="8.4605967"><ele>395.0</ele><time>2026-05-02T10:02:34.366Z</time></trkpt><trkpt lat="39.3842183" lon="8.460665"><ele>395.0</ele><time>2026-05-02T10:02:35.366Z</time></trkpt><trkpt lat="39.3842617" lon="8.4607333"><ele>396.0</ele><time>2026-05-02T10:02:36.367Z</time></trkpt><trkpt lat="39.3843033" lon="8.4608033"><ele>397.0</ele><time>2026-05-02T10:02:37.367Z</time></trkpt><trkpt lat="39.3843467" lon="8.4608733"><ele>398.0</ele><time>2026-05-02T10:02:38.387Z</time></trkpt><trkpt lat="39.384385" lon="8.46094"><ele>399.0</ele><time>2026-05-02T10:02:39.364Z</time></trkpt><trkpt lat="39.38442" lon="8.4610133"><ele>400.0</ele><time>2026-05-02T10:02:40.367Z</time></trkpt><trkpt lat="39.3844533" lon="8.4610867"><ele>401.0</ele><time>2026-05-02T10:02:41.367Z</time></trkpt><trkpt lat="39.3844917" lon="8.4611617"><ele>402.0</ele><time>2026-05-02T10:02:42.368Z</time></trkpt><trkpt lat="39.38453" lon="8.4612333"><ele>402.85714285714283</ele><time>2026-05-02T10:02:43.37Z</time></trkpt><trkpt lat="39.3845683" lon="8.4613067"><ele>403.7142857142857</ele><time>2026-05-02T10:02:44.384Z</time></trkpt><trkpt lat="39.3846067" lon="8.46138"><ele>404.57142857142856</ele><time>2026-05-02T10:02:45.364Z</time></trkpt><trkpt lat="39.3846433" lon="8.461455"><ele>405.42857142857144</ele><time>2026-05-02T10:02:46.363Z</time></trkpt><trkpt lat="39.3846833" lon="8.4615283"><ele>406.28571428571433</ele><time>2026-05-02T10:02:47.365Z</time></trkpt><trkpt lat="39.3847167" lon="8.4616017"><ele>407.14285714285717</ele><time>2026-05-02T10:02:48.369Z</time></trkpt><trkpt lat="39.3847467" lon="8.461675"><ele>408.0</ele><time>2026-05-02T10:02:49.364Z</time></trkpt><trkpt lat="39.384775" lon="8.4617483"><ele>408.0</ele><time>2026-05-02T10:02:50.383Z</time></trkpt><trkpt lat="39.3848183" lon="8.46187"><ele>408.0</ele><time>2026-05-02T10:02:52.369Z</time></trkpt><trkpt lat="39.3848617" lon="8.4619733"><ele>408.0</ele><time>2026-05-02T10:02:54.368Z</time></trkpt><trkpt lat="39.38485" lon="8.4621767"><ele>408.0</ele><time>2026-05-02T10:03:40.371Z</time></trkpt><trkpt lat="39.3848533" lon="8.46229"><ele>408.0</ele><time>2026-05-02T10:03:42.363Z</time></trkpt><trkpt lat="39.3848683" lon="8.4624483"><ele>409.1666666666667</ele><time>2026-05-02T10:03:44.385Z</time></trkpt><trkpt lat="39.38487" lon="8.4625383"><ele>410.33333333333337</ele><time>2026-05-02T10:03:45.365Z</time></trkpt><trkpt lat="39.3848683" lon="8.4626333"><ele>411.5</ele><time>2026-05-02T10:03:46.369Z</time></trkpt><trkpt lat="39.384865" lon="8.462745"><ele>412.6666666666667</ele><time>2026-05-02T10:03:47.368Z</time></trkpt><trkpt lat="39.3848567" lon="8.4628567"><ele>413.83333333333337</ele><time>2026-05-02T10:03:48.367Z</time></trkpt><trkpt lat="39.3848483" lon="8.4629717"><ele>415.0</ele><time>2026-05-02T10:03:49.366Z</time></trkpt><trkpt lat="39.38484" lon="8.4630817"><ele>417.0</ele><time>2026-05-02T10:03:50.386Z</time></trkpt><trkpt lat="39.3848183" lon="8.4632017"><ele>419.0</ele><time>2026-05-02T10:03:51.368Z</time></trkpt><trkpt lat="39.3847967" lon="8.4633433"><ele>421.0</ele><time>2026-05-02T10:03:52.365Z</time></trkpt><trkpt lat="39.3847867" lon="8.4634817"><ele>423.0</ele><time>2026-05-02T10:03:53.374Z</time></trkpt><trkpt lat="39.3847933" lon="8.4636033"><ele>425.0</ele><time>2026-05-02T10:03:54.367Z</time></trkpt><trkpt lat="39.3847967" lon="8.463725"><ele>426.4</ele><time>2026-05-02T10:03:55.365Z</time></trkpt><trkpt lat="39.3847967" lon="8.4638467"><ele>427.8</ele><time>2026-05-02T10:03:56.434Z</time></trkpt><trkpt lat="39.3847917" lon="8.46397"><ele>429.20000000000005</ele><time>2026-05-02T10:03:57.367Z</time></trkpt><trkpt lat="39.3847867" lon="8.4640933"><ele>430.6</ele><time>2026-05-02T10:03:58.365Z</time></trkpt><trkpt lat="39.38478" lon="8.4642133"><ele>432.0</ele><time>2026-05-02T10:03:59.368Z</time></trkpt><trkpt lat="39.3847717" lon="8.4643417"><ele>432.0</ele><time>2026-05-02T10:04:00.365Z</time></trkpt><trkpt lat="39.3847617" lon="8.464455"><ele>432.00000000000006</ele><time>2026-05-02T10:04:01.385Z</time></trkpt><trkpt lat="39.3847683" lon="8.4645667"><ele>432.00000000000006</ele><time>2026-05-02T10:04:02.409Z</time></trkpt><trkpt lat="39.3847667" lon="8.4646833"><ele>432.0</ele><time>2026-05-02T10:04:03.366Z</time></trkpt><trkpt lat="39.38476" lon="8.4648017"><ele>432.0</ele><time>2026-05-02T10:04:04.369Z</time></trkpt><trkpt lat="39.384745" lon="8.4649333"><ele>433.5</ele><time>2026-05-02T10:04:05.367Z</time></trkpt><trkpt lat="39.3847333" lon="8.4650517"><ele>435.0</ele><time>2026-05-02T10:04:06.368Z</time></trkpt><trkpt lat="39.3847233" lon="8.465165"><ele>436.5</ele><time>2026-05-02T10:04:07.365Z</time></trkpt><trkpt lat="39.3847117" lon="8.465275"><ele>438.0</ele><time>2026-05-02T10:04:08.382Z</time></trkpt><trkpt lat="39.3847017" lon="8.4653783"><ele>439.5</ele><time>2026-05-02T10:04:09.365Z</time></trkpt><trkpt lat="39.3846983" lon="8.4654617"><ele>441.0</ele><time>2026-05-02T10:04:10.365Z</time></trkpt><trkpt lat="39.3847283" lon="8.465535"><ele>443.6666666666667</ele><time>2026-05-02T10:04:11.365Z</time></trkpt><trkpt lat="39.38479" lon="8.465645"><ele>446.33333333333337</ele><time>2026-05-02T10:04:13.363Z</time></trkpt><trkpt lat="39.3848833" lon="8.4656833"><ele>449.0</ele><time>2026-05-02T10:04:15.368Z</time></trkpt><trkpt lat="39.3849483" lon="8.4656883"><ele>451.6666666666667</ele><time>2026-05-02T10:04:16.363Z</time></trkpt><trkpt lat="39.385015" lon="8.465675"><ele>454.33333333333337</ele><time>2026-05-02T10:04:17.363Z</time></trkpt><trkpt lat="39.3850783" lon="8.46565"><ele>457.0</ele><time>2026-05-02T10:04:18.364Z</time></trkpt><trkpt lat="39.3851533" lon="8.4656033"><ele>457.0</ele><time>2026-05-02T10:04:19.364Z</time></trkpt><trkpt lat="39.385255" lon="8.4655367"><ele>457.00000000000006</ele><time>2026-05-02T10:04:20.383Z</time></trkpt><trkpt lat="39.385345" lon="8.46549"><ele>457.00000000000006</ele><time>2026-05-02T10:04:21.366Z</time></trkpt><trkpt lat="39.3854267" lon="8.4654467"><ele>457.0</ele><time>2026-05-02T10:04:22.365Z</time></trkpt><trkpt lat="39.3855167" lon="8.465415"><ele>457.0</ele><time>2026-05-02T10:04:23.36Z</time></trkpt><trkpt lat="39.3855867" lon="8.4653683"><ele>454.83333333333337</ele><time>2026-05-02T10:04:24.367Z</time></trkpt><trkpt lat="39.3856683" lon="8.4653283"><ele>452.6666666666667</ele><time>2026-05-02T10:04:25.368Z</time></trkpt><trkpt lat="39.38575" lon="8.4652967"><ele>450.5</ele><time>2026-05-02T10:04:26.431Z</time></trkpt><trkpt lat="39.3858317" lon="8.46526"><ele>448.33333333333337</ele><time>2026-05-02T10:04:27.366Z</time></trkpt><trkpt lat="39.3859133" lon="8.46523"><ele>446.1666666666667</ele><time>2026-05-02T10:04:28.364Z</time></trkpt><trkpt lat="39.3859983" lon="8.4651983"><ele>444.0</ele><time>2026-05-02T10:04:29.363Z</time></trkpt><trkpt lat="39.3860867" lon="8.4651667"><ele>444.0</ele><time>2026-05-02T10:04:30.366Z</time></trkpt><trkpt lat="39.3861783" lon="8.46512"><ele>444.0</ele><time>2026-05-02T10:04:31.366Z</time></trkpt><trkpt lat="39.38628" lon="8.46507"><ele>444.0</ele><time>2026-05-02T10:04:32.413Z</time></trkpt><trkpt lat="39.3864" lon="8.4650417"><ele>444.0</ele><time>2026-05-02T10:04:33.366Z</time></trkpt><trkpt lat="39.3864967" lon="8.465015"><ele>444.0</ele><time>2026-05-02T10:04:34.367Z</time></trkpt><trkpt lat="39.38659" lon="8.464995"><ele>445.6</ele><time>2026-05-02T10:04:35.368Z</time></trkpt><trkpt lat="39.3866867" lon="8.464985"><ele>447.2</ele><time>2026-05-02T10:04:36.365Z</time></trkpt><trkpt lat="39.3867867" lon="8.46498"><ele>448.80000000000007</ele><time>2026-05-02T10:04:37.365Z</time></trkpt><trkpt lat="39.3868867" lon="8.4649733"><ele>450.40000000000003</ele><time>2026-05-02T10:04:38.381Z</time></trkpt><trkpt lat="39.3869967" lon="8.4649567"><ele>452.0</ele><time>2026-05-02T10:04:39.366Z</time></trkpt><trkpt lat="39.3871167" lon="8.4649733"><ele>453.25</ele><time>2026-05-02T10:04:40.363Z</time></trkpt><trkpt lat="39.3872383" lon="8.4650183"><ele>454.5</ele><time>2026-05-02T10:04:41.364Z</time></trkpt><trkpt lat="39.3873483" lon="8.4650383"><ele>455.75</ele><time>2026-05-02T10:04:42.367Z</time></trkpt><trkpt lat="39.38746" lon="8.46505"><ele>457.0</ele><time>2026-05-02T10:04:43.363Z</time></trkpt><trkpt lat="39.387565" lon="8.4650583"><ele>457.00000000000006</ele><time>2026-05-02T10:04:44.384Z</time></trkpt><trkpt lat="39.3876617" lon="8.4650717"><ele>457.0</ele><time>2026-05-02T10:04:45.365Z</time></trkpt><trkpt lat="39.387735" lon="8.4650933"><ele>457.0</ele><time>2026-05-02T10:04:46.361Z</time></trkpt><trkpt lat="39.3877983" lon="8.46512"><ele>457.0</ele><time>2026-05-02T10:04:47.365Z</time></trkpt><trkpt lat="39.3878917" lon="8.4652033"><ele>457.00000000000006</ele><time>2026-05-02T10:04:49.365Z</time></trkpt><trkpt lat="39.3879133" lon="8.4653183"><ele>457.0</ele><time>2026-05-02T10:04:51.364Z</time></trkpt><trkpt lat="39.3878817" lon="8.4654183"><ele>462.20000000000005</ele><time>2026-05-02T10:04:53.362Z</time></trkpt><trkpt lat="39.387835" lon="8.4654917"><ele>467.40000000000003</ele><time>2026-05-02T10:04:55.364Z</time></trkpt><trkpt lat="39.3877633" lon="8.4655783"><ele>472.59999999999997</ele><time>2026-05-02T10:04:57.365Z</time></trkpt><trkpt lat="39.387665" lon="8.4656567"><ele>477.79999999999995</ele><time>2026-05-02T10:04:59.367Z</time></trkpt><trkpt lat="39.387555" lon="8.465725"><ele>483.0</ele><time>2026-05-02T10:05:01.364Z</time></trkpt><trkpt lat="39.38744" lon="8.4657483"><ele>483.0</ele><time>2026-05-02T10:05:03.36Z</time></trkpt><trkpt lat="39.3873283" lon="8.4657667"><ele>483.0</ele><time>2026-05-02T10:05:05.362Z</time></trkpt><trkpt lat="39.3872167" lon="8.4657883"><ele>483.0</ele><time>2026-05-02T10:05:07.366Z</time></trkpt><trkpt lat="39.3871533" lon="8.4658033"><ele>483.0</ele><time>2026-05-02T10:05:08.382Z</time></trkpt><trkpt lat="39.3870733" lon="8.4658233"><ele>483.0</ele><time>2026-05-02T10:05:09.364Z</time></trkpt><trkpt lat="39.3870017" lon="8.4658267"><ele>483.0</ele><time>2026-05-02T10:05:10.363Z</time></trkpt><trkpt lat="39.38693" lon="8.4658383"><ele>482.57142857142856</ele><time>2026-05-02T10:05:11.364Z</time></trkpt><trkpt lat="39.3868533" lon="8.4658633"><ele>482.1428571428571</ele><time>2026-05-02T10:05:12.364Z</time></trkpt><trkpt lat="39.3867733" lon="8.4659033"><ele>481.7142857142857</ele><time>2026-05-02T10:05:13.363Z</time></trkpt><trkpt lat="39.386705" lon="8.4659417"><ele>481.2857142857143</ele><time>2026-05-02T10:05:14.381Z</time></trkpt><trkpt lat="39.3866417" lon="8.46599"><ele>480.85714285714283</ele><time>2026-05-02T10:05:15.363Z</time></trkpt><trkpt lat="39.386585" lon="8.4660333"><ele>480.42857142857144</ele><time>2026-05-02T10:05:16.367Z</time></trkpt><trkpt lat="39.38653" lon="8.4660883"><ele>480.0</ele><time>2026-05-02T10:05:17.366Z</time></trkpt><trkpt lat="39.3864767" lon="8.4661467"><ele>480.0</ele><time>2026-05-02T10:05:18.365Z</time></trkpt><trkpt lat="39.38643" lon="8.466215"><ele>480.0</ele><time>2026-05-02T10:05:19.367Z</time></trkpt><trkpt lat="39.3863867" lon="8.4662767"><ele>480.0</ele><time>2026-05-02T10:05:20.38Z</time></trkpt><trkpt lat="39.3863467" lon="8.4663483"><ele>480.0</ele><time>2026-05-02T10:05:21.363Z</time></trkpt><trkpt lat="39.3863083" lon="8.4664283"><ele>480.0</ele><time>2026-05-02T10:05:22.365Z</time></trkpt><trkpt lat="39.3862767" lon="8.46651"><ele>480.0</ele><time>2026-05-02T10:05:23.366Z</time></trkpt><trkpt lat="39.3862317" lon="8.4665867"><ele>480.0</ele><time>2026-05-02T10:05:24.362Z</time></trkpt><trkpt lat="39.3861833" lon="8.4666467"><ele>482.8</ele><time>2026-05-02T10:05:25.365Z</time></trkpt><trkpt lat="39.38613" lon="8.4666917"><ele>485.6</ele><time>2026-05-02T10:05:26.432Z</time></trkpt><trkpt lat="39.386035" lon="8.4667367"><ele>488.4</ele><time>2026-05-02T10:05:28.363Z</time></trkpt><trkpt lat="39.38593" lon="8.466745"><ele>491.2</ele><time>2026-05-02T10:05:30.365Z</time></trkpt><trkpt lat="39.3858167" lon="8.4666983"><ele>494.0</ele><time>2026-05-02T10:05:32.405Z</time></trkpt><trkpt lat="39.3857617" lon="8.466655"><ele>494.0</ele><time>2026-05-02T10:05:33.363Z</time></trkpt><trkpt lat="39.3856967" lon="8.4666167"><ele>494.0</ele><time>2026-05-02T10:05:34.363Z</time></trkpt><trkpt lat="39.3855967" lon="8.4665783"><ele>494.0</ele><time>2026-05-02T10:05:36.366Z</time></trkpt><trkpt lat="39.3856883" lon="8.4666267"><ele>494.0</ele><time>2026-05-02T10:05:45.366Z</time></trkpt><trkpt lat="39.3857817" lon="8.4667117"><ele>494.0</ele><time>2026-05-02T10:05:47.362Z</time></trkpt><trkpt lat="39.38584" lon="8.46675"><ele>494.0</ele><time>2026-05-02T10:05:48.367Z</time></trkpt><trkpt lat="39.3859417" lon="8.4668283"><ele>494.0</ele><time>2026-05-02T10:05:50.384Z</time></trkpt><trkpt lat="39.38604" lon="8.4668917"><ele>494.0</ele><time>2026-05-02T10:05:52.364Z</time></trkpt><trkpt lat="39.3861533" lon="8.46693"><ele>494.0</ele><time>2026-05-02T10:05:54.366Z</time></trkpt><trkpt lat="39.386275" lon="8.46691"><ele>496.79999999999995</ele><time>2026-05-02T10:05:56.39Z</time></trkpt><trkpt lat="39.38635" lon="8.4668933"><ele>499.59999999999997</ele><time>2026-05-02T10:05:57.363Z</time></trkpt><trkpt lat="39.3864367" lon="8.4668617"><ele>502.4</ele><time>2026-05-02T10:05:58.362Z</time></trkpt><trkpt lat="39.3865333" lon="8.4668017"><ele>505.2</ele><time>2026-05-02T10:05:59.364Z</time></trkpt><trkpt lat="39.3866367" lon="8.4667483"><ele>508.0</ele><time>2026-05-02T10:06:00.367Z</time></trkpt><trkpt lat="39.386725" lon="8.4667017"><ele>508.0</ele><time>2026-05-02T10:06:01.363Z</time></trkpt><trkpt lat="39.3868183" lon="8.4666433"><ele>507.99999999999994</ele><time>2026-05-02T10:06:02.405Z</time></trkpt><trkpt lat="39.3869033" lon="8.46659"><ele>507.99999999999994</ele><time>2026-05-02T10:06:03.365Z</time></trkpt><trkpt lat="39.38699" lon="8.466535"><ele>508.0</ele><time>2026-05-02T10:06:04.365Z</time></trkpt><trkpt lat="39.3870717" lon="8.4664783"><ele>508.0</ele><time>2026-05-02T10:06:05.364Z</time></trkpt><trkpt lat="39.38716" lon="8.4664433"><ele>509.0</ele><time>2026-05-02T10:06:06.365Z</time></trkpt><trkpt lat="39.387245" lon="8.4664117"><ele>509.99999999999994</ele><time>2026-05-02T10:06:07.365Z</time></trkpt><trkpt lat="39.387345" lon="8.4663833"><ele>510.99999999999994</ele><time>2026-05-02T10:06:08.382Z</time></trkpt><trkpt lat="39.3874517" lon="8.4663683"><ele>512.0</ele><time>2026-05-02T10:06:09.364Z</time></trkpt><trkpt lat="39.387555" lon="8.4663633"><ele>513.0</ele><time>2026-05-02T10:06:10.363Z</time></trkpt><trkpt lat="39.387655" lon="8.4663617"><ele>513.0</ele><time>2026-05-02T10:06:11.366Z</time></trkpt><trkpt lat="39.387755" lon="8.4663767"><ele>513.0</ele><time>2026-05-02T10:06:12.366Z</time></trkpt><trkpt lat="39.3878533" lon="8.4663833"><ele>513.0</ele><time>2026-05-02T10:06:13.36Z</time></trkpt><trkpt lat="39.38794" lon="8.4664067"><ele>513.0</ele><time>2026-05-02T10:06:14.382Z</time></trkpt><trkpt lat="39.3880217" lon="8.4664367"><ele>513.0</ele><time>2026-05-02T10:06:15.363Z</time></trkpt><trkpt lat="39.3881" lon="8.4664733"><ele>510.0</ele><time>2026-05-02T10:06:16.362Z</time></trkpt><trkpt lat="39.3881817" lon="8.4665267"><ele>506.99999999999994</ele><time>2026-05-02T10:06:17.364Z</time></trkpt><trkpt lat="39.38827" lon="8.466575"><ele>503.99999999999994</ele><time>2026-05-02T10:06:18.363Z</time></trkpt><trkpt lat="39.3883617" lon="8.466635"><ele>501.0</ele><time>2026-05-02T10:06:19.363Z</time></trkpt><trkpt lat="39.3884467" lon="8.4666967"><ele>498.0</ele><time>2026-05-02T10:06:20.38Z</time></trkpt><trkpt lat="39.3885283" lon="8.4667483"><ele>498.0</ele><time>2026-05-02T10:06:21.366Z</time></trkpt><trkpt lat="39.3886167" lon="8.466785"><ele>498.0</ele><time>2026-05-02T10:06:22.365Z</time></trkpt><trkpt lat="39.3886917" lon="8.4668117"><ele>498.0</ele><time>2026-05-02T10:06:23.363Z</time></trkpt><trkpt lat="39.3887667" lon="8.46683"><ele>498.0</ele><time>2026-05-02T10:06:24.363Z</time></trkpt><trkpt lat="39.38884" lon="8.466845"><ele>498.0</ele><time>2026-05-02T10:06:25.366Z</time></trkpt><trkpt lat="39.3889167" lon="8.466845"><ele>498.0</ele><time>2026-05-02T10:06:26.429Z</time></trkpt><trkpt lat="39.38899" lon="8.466845"><ele>499.8333333333333</ele><time>2026-05-02T10:06:27.361Z</time></trkpt><trkpt lat="39.3890667" lon="8.4668567"><ele>501.66666666666663</ele><time>2026-05-02T10:06:28.36Z</time></trkpt><trkpt lat="39.3891533" lon="8.4668667"><ele>503.5</ele><time>2026-05-02T10:06:29.361Z</time></trkpt><trkpt lat="39.3892483" lon="8.466875"><ele>505.3333333333333</ele><time>2026-05-02T10:06:30.365Z</time></trkpt><trkpt lat="39.38933" lon="8.4668817"><ele>507.16666666666663</ele><time>2026-05-02T10:06:31.363Z</time></trkpt><trkpt lat="39.3894217" lon="8.4668867"><ele>509.0</ele><time>2026-05-02T10:06:32.406Z</time></trkpt><trkpt lat="39.389505" lon="8.46688"><ele>508.99999999999994</ele><time>2026-05-02T10:06:33.359Z</time></trkpt><trkpt lat="39.3895733" lon="8.4668767"><ele>509.0</ele><time>2026-05-02T10:06:34.364Z</time></trkpt><trkpt lat="39.389635" lon="8.4668933"><ele>508.99999999999994</ele><time>2026-05-02T10:06:35.362Z</time></trkpt><trkpt lat="39.3897117" lon="8.466915"><ele>508.99999999999994</ele><time>2026-05-02T10:06:37.365Z</time></trkpt><trkpt lat="39.3896683" lon="8.46698"><ele>509.0</ele><time>2026-05-02T10:06:42.364Z</time></trkpt><trkpt lat="39.389595" lon="8.4669883"><ele>508.99999999999994</ele><time>2026-05-02T10:06:43.362Z</time></trkpt><trkpt lat="39.389515" lon="8.4670033"><ele>508.99999999999994</ele><time>2026-05-02T10:06:44.382Z</time></trkpt><trkpt lat="39.38941" lon="8.467025"><ele>508.99999999999994</ele><time>2026-05-02T10:06:45.361Z</time></trkpt><trkpt lat="39.389305" lon="8.4670433"><ele>509.0</ele><time>2026-05-02T10:06:46.364Z</time></trkpt><trkpt lat="39.3892117" lon="8.4670667"><ele>509.0</ele><time>2026-05-02T10:06:47.366Z</time></trkpt><trkpt lat="39.389135" lon="8.4670967"><ele>509.0</ele><time>2026-05-02T10:06:48.364Z</time></trkpt><trkpt lat="39.389065" lon="8.4671317"><ele>508.99999999999994</ele><time>2026-05-02T10:06:49.364Z</time></trkpt><trkpt lat="39.3890017" lon="8.46716"><ele>509.0</ele><time>2026-05-02T10:06:50.382Z</time></trkpt><trkpt lat="39.38892" lon="8.4672133"><ele>510.99999999999994</ele><time>2026-05-02T10:06:52.362Z</time></trkpt><trkpt lat="39.3889933" lon="8.4672117"><ele>513.0</ele><time>2026-05-02T10:06:58.365Z</time></trkpt><trkpt lat="39.3891067" lon="8.4671883"><ele>515.0</ele><time>2026-05-02T10:07:00.359Z</time></trkpt><trkpt lat="39.3891917" lon="8.4671883"><ele>517.0</ele><time>2026-05-02T10:07:01.361Z</time></trkpt><trkpt lat="39.3892717" lon="8.4672067"><ele>519.0</ele><time>2026-05-02T10:07:02.406Z</time></trkpt><trkpt lat="39.389335" lon="8.46721"><ele>521.0</ele><time>2026-05-02T10:07:03.364Z</time></trkpt><trkpt lat="39.389415" lon="8.4672333"><ele>521.0</ele><time>2026-05-02T10:07:04.363Z</time></trkpt><trkpt lat="39.3894833" lon="8.4672517"><ele>521.0</ele><time>2026-05-02T10:07:05.364Z</time></trkpt><trkpt lat="39.3895367" lon="8.4673333"><ele>521.0</ele><time>2026-05-02T10:07:07.366Z</time></trkpt><trkpt lat="39.3895367" lon="8.4674317"><ele>521.0</ele><time>2026-05-02T10:07:09.363Z</time></trkpt><trkpt lat="39.389495" lon="8.467505"><ele>521.0</ele><time>2026-05-02T10:07:11.362Z</time></trkpt><trkpt lat="39.3894217" lon="8.4675333"><ele>521.0</ele><time>2026-05-02T10:07:13.364Z</time></trkpt><trkpt lat="39.3893767" lon="8.4675933"><ele>521.0</ele><time>2026-05-02T10:07:15.365Z</time></trkpt><trkpt lat="39.389345" lon="8.46769"><ele>521.0</ele><time>2026-05-02T10:07:17.364Z</time></trkpt><trkpt lat="39.3893917" lon="8.4677883"><ele>521.0</ele><time>2026-05-02T10:07:20.378Z</time></trkpt><trkpt lat="39.3894867" lon="8.4678733"><ele>521.0</ele><time>2026-05-02T10:07:22.364Z</time></trkpt><trkpt lat="39.389545" lon="8.4679183"><ele>521.0</ele><time>2026-05-02T10:07:23.361Z</time></trkpt><trkpt lat="39.3896117" lon="8.4679583"><ele>521.0</ele><time>2026-05-02T10:07:24.366Z</time></trkpt><trkpt lat="39.389685" lon="8.4679933"><ele>521.0</ele><time>2026-05-02T10:07:25.364Z</time></trkpt><trkpt lat="39.38982" lon="8.4680367"><ele>523.0</ele><time>2026-05-02T10:07:27.362Z</time></trkpt><trkpt lat="39.3898917" lon="8.4680483"><ele>525.0</ele><time>2026-05-02T10:07:28.366Z</time></trkpt><trkpt lat="39.3899883" lon="8.4680683"><ele>527.0</ele><time>2026-05-02T10:07:30.364Z</time></trkpt><trkpt lat="39.3900567" lon="8.4681167"><ele>529.0</ele><time>2026-05-02T10:07:32.407Z</time></trkpt><trkpt lat="39.39008" lon="8.4682133"><ele>531.0</ele><time>2026-05-02T10:07:34.365Z</time></trkpt><trkpt lat="39.3900483" lon="8.4682867"><ele>533.0</ele><time>2026-05-02T10:07:36.366Z</time></trkpt><trkpt lat="39.3899617" lon="8.4683583"><ele>533.0</ele><time>2026-05-02T10:07:38.381Z</time></trkpt><trkpt lat="39.3898867" lon="8.4684567"><ele>533.0</ele><time>2026-05-02T10:07:40.362Z</time></trkpt><trkpt lat="39.38982" lon="8.46857"><ele>533.0</ele><time>2026-05-02T10:07:42.363Z</time></trkpt><trkpt lat="39.3897833" lon="8.4686383"><ele>533.0</ele><time>2026-05-02T10:07:43.364Z</time></trkpt><trkpt lat="39.3897433" lon="8.46871"><ele>533.0</ele><time>2026-05-02T10:07:44.38Z</time></trkpt><trkpt lat="39.3897067" lon="8.4687917"><ele>533.0</ele><time>2026-05-02T10:07:45.365Z</time></trkpt><trkpt lat="39.3896717" lon="8.4688883"><ele>535.8333333333333</ele><time>2026-05-02T10:07:46.364Z</time></trkpt><trkpt lat="39.3896367" lon="8.4689883"><ele>538.6666666666666</ele><time>2026-05-02T10:07:47.365Z</time></trkpt><trkpt lat="39.3896083" lon="8.4690883"><ele>541.5</ele><time>2026-05-02T10:07:48.366Z</time></trkpt><trkpt lat="39.3895833" lon="8.4691933"><ele>544.3333333333334</ele><time>2026-05-02T10:07:49.363Z</time></trkpt><trkpt lat="39.389565" lon="8.4692833"><ele>547.1666666666667</ele><time>2026-05-02T10:07:50.378Z</time></trkpt><trkpt lat="39.3895317" lon="8.4693767"><ele>550.0</ele><time>2026-05-02T10:07:51.366Z</time></trkpt><trkpt lat="39.3894967" lon="8.4694617"><ele>550.0</ele><time>2026-05-02T10:07:52.359Z</time></trkpt><trkpt lat="39.3894567" lon="8.4695483"><ele>550.0</ele><time>2026-05-02T10:07:53.363Z</time></trkpt><trkpt lat="39.389415" lon="8.4696233"><ele>550.0</ele><time>2026-05-02T10:07:54.366Z</time></trkpt><trkpt lat="39.3893583" lon="8.4696833"><ele>550.0</ele><time>2026-05-02T10:07:55.366Z</time></trkpt><trkpt lat="39.3892967" lon="8.46973"><ele>550.0</ele><time>2026-05-02T10:07:56.426Z</time></trkpt><trkpt lat="39.3892267" lon="8.4697617"><ele>550.0</ele><time>2026-05-02T10:07:57.365Z</time></trkpt><trkpt lat="39.3891567" lon="8.469785"><ele>550.0</ele><time>2026-05-02T10:07:58.365Z</time></trkpt><trkpt lat="39.3890867" lon="8.4698067"><ele>545.3333333333334</ele><time>2026-05-02T10:07:59.36Z</time></trkpt><trkpt lat="39.38902" lon="8.4698267"><ele>540.6666666666667</ele><time>2026-05-02T10:08:00.367Z</time></trkpt><trkpt lat="39.3889433" lon="8.469835"><ele>536.0</ele><time>2026-05-02T10:08:01.36Z</time></trkpt><trkpt lat="39.3888667" lon="8.4698267"><ele>531.3333333333334</ele><time>2026-05-02T10:08:02.389Z</time></trkpt><trkpt lat="39.3887933" lon="8.4698267"><ele>526.6666666666666</ele><time>2026-05-02T10:08:03.365Z</time></trkpt><trkpt lat="39.3887183" lon="8.4698117"><ele>522.0</ele><time>2026-05-02T10:08:04.364Z</time></trkpt><trkpt lat="39.388635" lon="8.4697767"><ele>521.8333333333334</ele><time>2026-05-02T10:08:05.363Z</time></trkpt><trkpt lat="39.388555" lon="8.46971"><ele>521.6666666666666</ele><time>2026-05-02T10:08:06.362Z</time></trkpt><trkpt lat="39.388485" lon="8.4696733"><ele>521.5</ele><time>2026-05-02T10:08:07.363Z</time></trkpt><trkpt lat="39.3884217" lon="8.46965"><ele>521.3333333333333</ele><time>2026-05-02T10:08:08.379Z</time></trkpt><trkpt lat="39.3883567" lon="8.4696467"><ele>521.1666666666666</ele><time>2026-05-02T10:08:09.364Z</time></trkpt><trkpt lat="39.3882833" lon="8.46966"><ele>521.0</ele><time>2026-05-02T10:08:10.364Z</time></trkpt><trkpt lat="39.3882033" lon="8.4696817"><ele>521.0</ele><time>2026-05-02T10:08:11.363Z</time></trkpt><trkpt lat="39.38812" lon="8.4697067"><ele>521.0</ele><time>2026-05-02T10:08:12.366Z</time></trkpt><trkpt lat="39.38803" lon="8.4697333"><ele>521.0</ele><time>2026-05-02T10:08:13.366Z</time></trkpt><trkpt lat="39.387945" lon="8.46976"><ele>521.0</ele><time>2026-05-02T10:08:14.382Z</time></trkpt><trkpt lat="39.38787" lon="8.4698017"><ele>521.0</ele><time>2026-05-02T10:08:15.364Z</time></trkpt><trkpt lat="39.3878" lon="8.4698467"><ele>521.0</ele><time>2026-05-02T10:08:16.364Z</time></trkpt><trkpt lat="39.387735" lon="8.469895"><ele>524.6666666666666</ele><time>2026-05-02T10:08:17.361Z</time></trkpt><trkpt lat="39.3876733" lon="8.4699433"><ele>528.3333333333333</ele><time>2026-05-02T10:08:18.365Z</time></trkpt><trkpt lat="39.3876233" lon="8.4700083"><ele>532.0</ele><time>2026-05-02T10:08:19.364Z</time></trkpt><trkpt lat="39.3875783" lon="8.47013"><ele>535.6666666666666</ele><time>2026-05-02T10:08:21.364Z</time></trkpt><trkpt lat="39.38757" lon="8.470265"><ele>539.3333333333334</ele><time>2026-05-02T10:08:23.365Z</time></trkpt><trkpt lat="39.3876017" lon="8.4703367"><ele>543.0</ele><time>2026-05-02T10:08:24.361Z</time></trkpt><trkpt lat="39.3876317" lon="8.47041"><ele>542.2857142857143</ele><time>2026-05-02T10:08:25.364Z</time></trkpt><trkpt lat="39.3876683" lon="8.470485"><ele>541.5714285714286</ele><time>2026-05-02T10:08:26.429Z</time></trkpt><trkpt lat="39.38769" lon="8.47057"><ele>540.8571428571429</ele><time>2026-05-02T10:08:27.365Z</time></trkpt><trkpt lat="39.38771" lon="8.4706567"><ele>540.1428571428571</ele><time>2026-05-02T10:08:28.359Z</time></trkpt><trkpt lat="39.3877267" lon="8.4707517"><ele>539.4285714285714</ele><time>2026-05-02T10:08:29.366Z</time></trkpt><trkpt lat="39.38773" lon="8.47085"><ele>538.7142857142858</ele><time>2026-05-02T10:08:30.366Z</time></trkpt><trkpt lat="39.387725" lon="8.4709333"><ele>538.0</ele><time>2026-05-02T10:08:31.363Z</time></trkpt><trkpt lat="39.3877117" lon="8.471015"><ele>538.0</ele><time>2026-05-02T10:08:32.406Z</time></trkpt><trkpt lat="39.3876483" lon="8.4711617"><ele>538.0</ele><time>2026-05-02T10:08:34.364Z</time></trkpt><trkpt lat="39.3875967" lon="8.471235"><ele>538.0</ele><time>2026-05-02T10:08:35.365Z</time></trkpt><trkpt lat="39.3875317" lon="8.4713083"><ele>538.0</ele><time>2026-05-02T10:08:36.365Z</time></trkpt><trkpt lat="39.3874567" lon="8.471385"><ele>538.0</ele><time>2026-05-02T10:08:37.364Z</time></trkpt><trkpt lat="39.3873783" lon="8.471455"><ele>537.5</ele><time>2026-05-02T10:08:38.381Z</time></trkpt><trkpt lat="39.3872967" lon="8.47152"><ele>537.0</ele><time>2026-05-02T10:08:39.361Z</time></trkpt><trkpt lat="39.3872317" lon="8.4715733"><ele>536.5</ele><time>2026-05-02T10:08:40.364Z</time></trkpt><trkpt lat="39.3871733" lon="8.4716267"><ele>536.0</ele><time>2026-05-02T10:08:41.361Z</time></trkpt><trkpt lat="39.387115" lon="8.471665"><ele>535.5</ele><time>2026-05-02T10:08:42.366Z</time></trkpt><trkpt lat="39.3870483" lon="8.4716967"><ele>535.0</ele><time>2026-05-02T10:08:43.365Z</time></trkpt><trkpt lat="39.3869783" lon="8.4717183"><ele>535.0</ele><time>2026-05-02T10:08:44.382Z</time></trkpt><trkpt lat="39.3869083" lon="8.471725"><ele>535.0</ele><time>2026-05-02T10:08:45.366Z</time></trkpt><trkpt lat="39.386835" lon="8.47172"><ele>535.0</ele><time>2026-05-02T10:08:46.365Z</time></trkpt><trkpt lat="39.3867533" lon="8.471695"><ele>535.0</ele><time>2026-05-02T10:08:47.364Z</time></trkpt><trkpt lat="39.386675" lon="8.47167"><ele>535.0</ele><time>2026-05-02T10:08:48.364Z</time></trkpt><trkpt lat="39.3865983" lon="8.4716433"><ele>535.0</ele><time>2026-05-02T10:08:49.366Z</time></trkpt><trkpt lat="39.3865283" lon="8.471605"><ele>535.0</ele><time>2026-05-02T10:08:50.381Z</time></trkpt><trkpt lat="39.386455" lon="8.4715633"><ele>535.0</ele><time>2026-05-02T10:08:51.361Z</time></trkpt><trkpt lat="39.3863867" lon="8.4715267"><ele>535.0</ele><time>2026-05-02T10:08:52.364Z</time></trkpt><trkpt lat="39.3862683" lon="8.471485"><ele>535.0</ele><time>2026-05-02T10:08:54.365Z</time></trkpt><trkpt lat="39.3861367" lon="8.4714917"><ele>535.0</ele><time>2026-05-02T10:08:56.428Z</time></trkpt><trkpt lat="39.3860667" lon="8.4714967"><ele>535.8333333333334</ele><time>2026-05-02T10:08:57.36Z</time></trkpt><trkpt lat="39.3859983" lon="8.4715033"><ele>536.6666666666667</ele><time>2026-05-02T10:08:58.362Z</time></trkpt><trkpt lat="39.38593" lon="8.4715267"><ele>537.5</ele><time>2026-05-02T10:08:59.364Z</time></trkpt><trkpt lat="39.38583" lon="8.4715867"><ele>538.3333333333334</ele><time>2026-05-02T10:09:01.363Z</time></trkpt><trkpt lat="39.3857817" lon="8.4716633"><ele>539.1666666666666</ele><time>2026-05-02T10:09:03.365Z</time></trkpt><trkpt lat="39.385755" lon="8.4717783"><ele>540.0</ele><time>2026-05-02T10:09:05.362Z</time></trkpt><trkpt lat="39.3856767" lon="8.4718783"><ele>540.0</ele><time>2026-05-02T10:09:07.361Z</time></trkpt><trkpt lat="39.3856183" lon="8.471925"><ele>540.0</ele><time>2026-05-02T10:09:08.38Z</time></trkpt><trkpt lat="39.3855117" lon="8.47201"><ele>540.0</ele><time>2026-05-02T10:09:10.361Z</time></trkpt><trkpt lat="39.3854283" lon="8.47209"><ele>540.0</ele><time>2026-05-02T10:09:12.362Z</time></trkpt><trkpt lat="39.385345" lon="8.472135"><ele>540.0</ele><time>2026-05-02T10:09:14.379Z</time></trkpt><trkpt lat="39.3852617" lon="8.4721333"><ele>541.5</ele><time>2026-05-02T10:09:16.367Z</time></trkpt><trkpt lat="39.3851817" lon="8.4721133"><ele>543.0</ele><time>2026-05-02T10:09:18.365Z</time></trkpt><trkpt lat="39.3850867" lon="8.4720267"><ele>544.5</ele><time>2026-05-02T10:09:20.383Z</time></trkpt><trkpt lat="39.3850217" lon="8.4719783"><ele>546.0</ele><time>2026-05-02T10:09:21.368Z</time></trkpt><trkpt lat="39.3849467" lon="8.4719383"><ele>547.5</ele><time>2026-05-02T10:09:22.361Z</time></trkpt><trkpt lat="39.3848717" lon="8.47191"><ele>549.0</ele><time>2026-05-02T10:09:23.361Z</time></trkpt><trkpt lat="39.3848017" lon="8.47189"><ele>549.0</ele><time>2026-05-02T10:09:24.36Z</time></trkpt><trkpt lat="39.3846933" lon="8.4718883"><ele>549.0</ele><time>2026-05-02T10:09:26.433Z</time></trkpt><trkpt lat="39.3845733" lon="8.4719367"><ele>549.0</ele><time>2026-05-02T10:09:28.364Z</time></trkpt><trkpt lat="39.3845133" lon="8.4719733"><ele>549.0</ele><time>2026-05-02T10:09:29.364Z</time></trkpt><trkpt lat="39.3844633" lon="8.472025"><ele>549.0</ele><time>2026-05-02T10:09:30.366Z</time></trkpt><trkpt lat="39.3844167" lon="8.47209"><ele>549.0</ele><time>2026-05-02T10:09:31.364Z</time></trkpt><trkpt lat="39.3843617" lon="8.4721483"><ele>545.4</ele><time>2026-05-02T10:09:32.431Z</time></trkpt><trkpt lat="39.3842967" lon="8.472205"><ele>541.8</ele><time>2026-05-02T10:09:33.363Z</time></trkpt><trkpt lat="39.3842367" lon="8.4722583"><ele>538.2</ele><time>2026-05-02T10:09:34.361Z</time></trkpt><trkpt lat="39.3841283" lon="8.4723183"><ele>534.6</ele><time>2026-05-02T10:09:36.362Z</time></trkpt><trkpt lat="39.3840167" lon="8.472295"><ele>531.0</ele><time>2026-05-02T10:09:38.382Z</time></trkpt><trkpt lat="39.3839217" lon="8.4722317"><ele>531.5</ele><time>2026-05-02T10:09:40.362Z</time></trkpt><trkpt lat="39.3838283" lon="8.47213"><ele>532.0</ele><time>2026-05-02T10:09:42.365Z</time></trkpt><trkpt lat="39.3837833" lon="8.47207"><ele>532.5</ele><time>2026-05-02T10:09:43.365Z</time></trkpt><trkpt lat="39.3837333" lon="8.4720133"><ele>533.0</ele><time>2026-05-02T10:09:44.381Z</time></trkpt><trkpt lat="39.383675" lon="8.47195"><ele>533.5</ele><time>2026-05-02T10:09:45.36Z</time></trkpt><trkpt lat="39.3835917" lon="8.471845"><ele>534.0</ele><time>2026-05-02T10:09:47.366Z</time></trkpt><trkpt lat="39.383505" lon="8.471795"><ele>538.0</ele><time>2026-05-02T10:09:49.365Z</time></trkpt><trkpt lat="39.3834333" lon="8.4717767"><ele>542.0</ele><time>2026-05-02T10:09:51.359Z</time></trkpt><trkpt lat="39.3833533" lon="8.471825"><ele>546.0</ele><time>2026-05-02T10:09:54.359Z</time></trkpt><trkpt lat="39.38326" lon="8.4719"><ele>550.0</ele><time>2026-05-02T10:09:56.431Z</time></trkpt><trkpt lat="39.3832017" lon="8.4719317"><ele>554.0</ele><time>2026-05-02T10:09:57.36Z</time></trkpt><trkpt lat="39.38313" lon="8.4719533"><ele>558.0</ele><time>2026-05-02T10:09:58.364Z</time></trkpt><trkpt lat="39.3830567" lon="8.47196"><ele>559.0</ele><time>2026-05-02T10:09:59.365Z</time></trkpt><trkpt lat="39.382975" lon="8.4719667"><ele>560.0</ele><time>2026-05-02T10:10:00.365Z</time></trkpt><trkpt lat="39.38289" lon="8.471965"><ele>561.0</ele><time>2026-05-02T10:10:01.364Z</time></trkpt><trkpt lat="39.3828117" lon="8.4719517"><ele>562.0</ele><time>2026-05-02T10:10:02.404Z</time></trkpt><trkpt lat="39.382735" lon="8.4719367"><ele>563.0</ele><time>2026-05-02T10:10:03.364Z</time></trkpt><trkpt lat="39.38266" lon="8.471925"><ele>564.0</ele><time>2026-05-02T10:10:04.364Z</time></trkpt><trkpt lat="39.3825767" lon="8.47191"><ele>564.0</ele><time>2026-05-02T10:10:05.359Z</time></trkpt><trkpt lat="39.3824983" lon="8.471895"><ele>564.0</ele><time>2026-05-02T10:10:06.364Z</time></trkpt><trkpt lat="39.3824217" lon="8.4718783"><ele>564.0</ele><time>2026-05-02T10:10:07.361Z</time></trkpt><trkpt lat="39.3823517" lon="8.4718667"><ele>564.0</ele><time>2026-05-02T10:10:08.382Z</time></trkpt><trkpt lat="39.3822833" lon="8.471855"><ele>564.0</ele><time>2026-05-02T10:10:09.365Z</time></trkpt><trkpt lat="39.38222" lon="8.4718467"><ele>564.0</ele><time>2026-05-02T10:10:10.366Z</time></trkpt><trkpt lat="39.3821533" lon="8.471845"><ele>564.0</ele><time>2026-05-02T10:10:11.365Z</time></trkpt><trkpt lat="39.382035" lon="8.4718533"><ele>565.0</ele><time>2026-05-02T10:10:13.364Z</time></trkpt><trkpt lat="39.3819267" lon="8.4718867"><ele>566.0</ele><time>2026-05-02T10:10:15.362Z</time></trkpt><trkpt lat="39.3818133" lon="8.4719517"><ele>567.0</ele><time>2026-05-02T10:10:17.366Z</time></trkpt><trkpt lat="39.381705" lon="8.47202"><ele>568.0</ele><time>2026-05-02T10:10:19.361Z</time></trkpt><trkpt lat="39.3816" lon="8.4721067"><ele>564.0</ele><time>2026-05-02T10:10:21.367Z</time></trkpt><trkpt lat="39.3815017" lon="8.472195"><ele>560.0</ele><time>2026-05-02T10:10:23.359Z</time></trkpt><trkpt lat="39.38142" lon="8.4722917"><ele>556.0</ele><time>2026-05-02T10:10:25.364Z</time></trkpt><trkpt lat="39.381365" lon="8.4724133"><ele>552.0</ele><time>2026-05-02T10:10:27.364Z</time></trkpt><trkpt lat="39.3812833" lon="8.4725233"><ele>552.0</ele><time>2026-05-02T10:10:29.367Z</time></trkpt><trkpt lat="39.3812267" lon="8.4725683"><ele>552.0</ele><time>2026-05-02T10:10:30.364Z</time></trkpt><trkpt lat="39.381165" lon="8.4726017"><ele>552.0</ele><time>2026-05-02T10:10:31.362Z</time></trkpt><trkpt lat="39.3810967" lon="8.4726283"><ele>552.0</ele><time>2026-05-02T10:10:32.402Z</time></trkpt><trkpt lat="39.3809867" lon="8.4726683"><ele>552.0</ele><time>2026-05-02T10:10:34.364Z</time></trkpt><trkpt lat="39.3808867" lon="8.47273"><ele>552.0</ele><time>2026-05-02T10:10:36.364Z</time></trkpt><trkpt lat="39.3807933" lon="8.472835"><ele>552.0</ele><time>2026-05-02T10:10:38.384Z</time></trkpt><trkpt lat="39.3807417" lon="8.4728883"><ele>552.0</ele><time>2026-05-02T10:10:39.365Z</time></trkpt><trkpt lat="39.3806917" lon="8.4729383"><ele>552.0</ele><time>2026-05-02T10:10:40.361Z</time></trkpt><trkpt lat="39.3806333" lon="8.4729717"><ele>552.0</ele><time>2026-05-02T10:10:41.359Z</time></trkpt><trkpt lat="39.3805717" lon="8.4729933"><ele>552.0</ele><time>2026-05-02T10:10:42.363Z</time></trkpt><trkpt lat="39.3805033" lon="8.473015"><ele>552.0</ele><time>2026-05-02T10:10:43.364Z</time></trkpt><trkpt lat="39.3804333" lon="8.4730317"><ele>552.0</ele><time>2026-05-02T10:10:44.38Z</time></trkpt><trkpt lat="39.38036" lon="8.4730533"><ele>549.8571428571429</ele><time>2026-05-02T10:10:45.363Z</time></trkpt><trkpt lat="39.3802867" lon="8.4730767"><ele>547.7142857142858</ele><time>2026-05-02T10:10:46.365Z</time></trkpt><trkpt lat="39.3802117" lon="8.4730983"><ele>545.5714285714286</ele><time>2026-05-02T10:10:47.361Z</time></trkpt><trkpt lat="39.380135" lon="8.4731183"><ele>543.4285714285714</ele><time>2026-05-02T10:10:48.364Z</time></trkpt><trkpt lat="39.38006" lon="8.47313"><ele>541.2857142857142</ele><time>2026-05-02T10:10:49.36Z</time></trkpt><trkpt lat="39.3799933" lon="8.4731383"><ele>539.1428571428571</ele><time>2026-05-02T10:10:50.381Z</time></trkpt><trkpt lat="39.379925" lon="8.4731533"><ele>537.0</ele><time>2026-05-02T10:10:51.364Z</time></trkpt><trkpt lat="39.3798567" lon="8.4731667"><ele>537.0</ele><time>2026-05-02T10:10:52.362Z</time></trkpt><trkpt lat="39.3797933" lon="8.4731883"><ele>537.0</ele><time>2026-05-02T10:10:53.363Z</time></trkpt><trkpt lat="39.3797317" lon="8.4732133"><ele>537.0</ele><time>2026-05-02T10:10:54.362Z</time></trkpt><trkpt lat="39.3796083" lon="8.4732683"><ele>537.0</ele><time>2026-05-02T10:10:56.406Z</time></trkpt><trkpt lat="39.37954" lon="8.4733133"><ele>537.0</ele><time>2026-05-02T10:10:57.359Z</time></trkpt><trkpt lat="39.3794817" lon="8.47336"><ele>537.0</ele><time>2026-05-02T10:10:58.361Z</time></trkpt><trkpt lat="39.3794133" lon="8.47342"><ele>538.8333333333334</ele><time>2026-05-02T10:10:59.363Z</time></trkpt><trkpt lat="39.3793567" lon="8.4734717"><ele>540.6666666666666</ele><time>2026-05-02T10:11:00.365Z</time></trkpt><trkpt lat="39.3793017" lon="8.4735117"><ele>542.5</ele><time>2026-05-02T10:11:01.363Z</time></trkpt><trkpt lat="39.3792433" lon="8.47355"><ele>544.3333333333333</ele><time>2026-05-02T10:11:02.406Z</time></trkpt><trkpt lat="39.3791833" lon="8.4735833"><ele>546.1666666666666</ele><time>2026-05-02T10:11:03.361Z</time></trkpt><trkpt lat="39.3790517" lon="8.47363"><ele>548.0</ele><time>2026-05-02T10:11:05.362Z</time></trkpt><trkpt lat="39.3789783" lon="8.4736367"><ele>548.0</ele><time>2026-05-02T10:11:06.366Z</time></trkpt><trkpt lat="39.3789067" lon="8.4736417"><ele>548.0</ele><time>2026-05-02T10:11:07.365Z</time></trkpt><trkpt lat="39.3788383" lon="8.4736367"><ele>548.0</ele><time>2026-05-02T10:11:08.379Z</time></trkpt><trkpt lat="39.3787733" lon="8.473635"><ele>548.0</ele><time>2026-05-02T10:11:09.36Z</time></trkpt><trkpt lat="39.3786633" lon="8.4736583"><ele>548.0</ele><time>2026-05-02T10:11:11.364Z</time></trkpt><trkpt lat="39.3785933" lon="8.4737333"><ele>548.0</ele><time>2026-05-02T10:11:13.363Z</time></trkpt><trkpt lat="39.3785633" lon="8.4738633"><ele>550.25</ele><time>2026-05-02T10:11:15.365Z</time></trkpt><trkpt lat="39.3785633" lon="8.4740267"><ele>552.5</ele><time>2026-05-02T10:11:17.365Z</time></trkpt><trkpt lat="39.378585" lon="8.4741717"><ele>554.75</ele><time>2026-05-02T10:11:19.36Z</time></trkpt><trkpt lat="39.3786067" lon="8.4743083"><ele>557.0</ele><time>2026-05-02T10:11:21.361Z</time></trkpt><trkpt lat="39.37864" lon="8.4744417"><ele>557.0</ele><time>2026-05-02T10:11:23.364Z</time></trkpt><trkpt lat="39.378685" lon="8.4745717"><ele>557.0</ele><time>2026-05-02T10:11:25.362Z</time></trkpt><trkpt lat="39.3787517" lon="8.4746967"><ele>557.0</ele><time>2026-05-02T10:11:27.364Z</time></trkpt><trkpt lat="39.3788367" lon="8.4748167"><ele>557.0</ele><time>2026-05-02T10:11:29.361Z</time></trkpt><trkpt lat="39.3788833" lon="8.4748767"><ele>557.0</ele><time>2026-05-02T10:11:30.366Z</time></trkpt><trkpt lat="39.3789383" lon="8.4749317"><ele>551.4</ele><time>2026-05-02T10:11:31.362Z</time></trkpt><trkpt lat="39.3790367" lon="8.4750367"><ele>545.8000000000001</ele><time>2026-05-02T10:11:33.36Z</time></trkpt><trkpt lat="39.3791133" lon="8.4750867"><ele>540.2</ele><time>2026-05-02T10:11:34.362Z</time></trkpt><trkpt lat="39.3792" lon="8.4752067"><ele>534.6</ele><time>2026-05-02T10:11:36.363Z</time></trkpt><trkpt lat="39.379225" lon="8.4753367"><ele>529.0</ele><time>2026-05-02T10:11:38.378Z</time></trkpt><trkpt lat="39.3791917" lon="8.4754683"><ele>530.0</ele><time>2026-05-02T10:11:40.364Z</time></trkpt><trkpt lat="39.37915" lon="8.475535"><ele>531.0</ele><time>2026-05-02T10:11:41.362Z</time></trkpt><trkpt lat="39.3790683" lon="8.47559"><ele>532.0</ele><time>2026-05-02T10:11:42.364Z</time></trkpt><trkpt lat="39.379005" lon="8.4756367"><ele>533.0</ele><time>2026-05-02T10:11:43.364Z</time></trkpt><trkpt lat="39.3789417" lon="8.4756767"><ele>534.0</ele><time>2026-05-02T10:11:44.38Z</time></trkpt><trkpt lat="39.3788717" lon="8.475695"><ele>535.0</ele><time>2026-05-02T10:11:45.363Z</time></trkpt><trkpt lat="39.3788017" lon="8.4757083"><ele>536.0</ele><time>2026-05-02T10:11:46.361Z</time></trkpt><trkpt lat="39.37873" lon="8.4757167"><ele>536.0</ele><time>2026-05-02T10:11:47.365Z</time></trkpt><trkpt lat="39.3786617" lon="8.47572"><ele>536.0</ele><time>2026-05-02T10:11:48.363Z</time></trkpt><trkpt lat="39.378595" lon="8.4757317"><ele>536.0</ele><time>2026-05-02T10:11:49.364Z</time></trkpt><trkpt lat="39.3785233" lon="8.4757417"><ele>536.0</ele><time>2026-05-02T10:11:50.379Z</time></trkpt><trkpt lat="39.3784483" lon="8.4757617"><ele>536.0</ele><time>2026-05-02T10:11:51.359Z</time></trkpt><trkpt lat="39.3783717" lon="8.4757833"><ele>536.0</ele><time>2026-05-02T10:11:52.364Z</time></trkpt><trkpt lat="39.3782883" lon="8.4758033"><ele>536.0</ele><time>2026-05-02T10:11:53.363Z</time></trkpt><trkpt lat="39.3782033" lon="8.475815"><ele>536.0</ele><time>2026-05-02T10:11:54.362Z</time></trkpt><trkpt lat="39.3781183" lon="8.4758217"><ele>536.0</ele><time>2026-05-02T10:11:55.359Z</time></trkpt><trkpt lat="39.3780383" lon="8.4758283"><ele>536.0</ele><time>2026-05-02T10:11:56.402Z</time></trkpt><trkpt lat="39.3779583" lon="8.4758217"><ele>536.0</ele><time>2026-05-02T10:11:57.36Z</time></trkpt><trkpt lat="39.377885" lon="8.475805"><ele>536.0</ele><time>2026-05-02T10:11:58.362Z</time></trkpt><trkpt lat="39.377815" lon="8.4757833"><ele>536.0</ele><time>2026-05-02T10:11:59.36Z</time></trkpt><trkpt lat="39.3777467" lon="8.4757667"><ele>539.6</ele><time>2026-05-02T10:12:00.36Z</time></trkpt><trkpt lat="39.3776433" lon="8.4757717"><ele>543.2</ele><time>2026-05-02T10:12:02.403Z</time></trkpt><trkpt lat="39.3775833" lon="8.4758167"><ele>546.8</ele><time>2026-05-02T10:12:05.361Z</time></trkpt><trkpt lat="39.3776117" lon="8.4759317"><ele>550.4</ele><time>2026-05-02T10:12:07.361Z</time></trkpt><trkpt lat="39.377645" lon="8.47609"><ele>554.0</ele><time>2026-05-02T10:12:09.359Z</time></trkpt><trkpt lat="39.377665" lon="8.4761783"><ele>554.0</ele><time>2026-05-02T10:12:10.362Z</time></trkpt><trkpt lat="39.3776667" lon="8.476265"><ele>554.0</ele><time>2026-05-02T10:12:11.363Z</time></trkpt><trkpt lat="39.3776467" lon="8.4764283"><ele>554.0</ele><time>2026-05-02T10:12:13.363Z</time></trkpt><trkpt lat="39.3776133" lon="8.4765067"><ele>554.0</ele><time>2026-05-02T10:12:14.377Z</time></trkpt><trkpt lat="39.3775717" lon="8.4765817"><ele>554.0</ele><time>2026-05-02T10:12:15.365Z</time></trkpt><trkpt lat="39.3775283" lon="8.4766533"><ele>554.0</ele><time>2026-05-02T10:12:16.358Z</time></trkpt><trkpt lat="39.3774733" lon="8.47672"><ele>551.1666666666666</ele><time>2026-05-02T10:12:17.36Z</time></trkpt><trkpt lat="39.3774083" lon="8.4767833"><ele>548.3333333333333</ele><time>2026-05-02T10:12:18.364Z</time></trkpt><trkpt lat="39.3773433" lon="8.47685"><ele>545.5</ele><time>2026-05-02T10:12:19.363Z</time></trkpt><trkpt lat="39.3772833" lon="8.47691"><ele>542.6666666666666</ele><time>2026-05-02T10:12:20.381Z</time></trkpt><trkpt lat="39.3772267" lon="8.4769617"><ele>539.8333333333334</ele><time>2026-05-02T10:12:21.362Z</time></trkpt><trkpt lat="39.3771667" lon="8.4770133"><ele>537.0</ele><time>2026-05-02T10:12:22.362Z</time></trkpt><trkpt lat="39.3771067" lon="8.477055"><ele>538.8333333333334</ele><time>2026-05-02T10:12:23.363Z</time></trkpt><trkpt lat="39.3770433" lon="8.4770983"><ele>540.6666666666666</ele><time>2026-05-02T10:12:24.359Z</time></trkpt><trkpt lat="39.37698" lon="8.4771483"><ele>542.5</ele><time>2026-05-02T10:12:25.362Z</time></trkpt><trkpt lat="39.3769167" lon="8.4772017"><ele>544.3333333333333</ele><time>2026-05-02T10:12:26.427Z</time></trkpt><trkpt lat="39.376855" lon="8.47726"><ele>546.1666666666666</ele><time>2026-05-02T10:12:27.364Z</time></trkpt><trkpt lat="39.3767867" lon="8.47732"><ele>548.0</ele><time>2026-05-02T10:12:28.362Z</time></trkpt><trkpt lat="39.37672" lon="8.47739"><ele>548.0</ele><time>2026-05-02T10:12:29.36Z</time></trkpt><trkpt lat="39.3766517" lon="8.477465"><ele>548.0</ele><time>2026-05-02T10:12:30.364Z</time></trkpt><trkpt lat="39.3765833" lon="8.477545"><ele>548.0</ele><time>2026-05-02T10:12:31.364Z</time></trkpt><trkpt lat="39.376525" lon="8.4776217"><ele>548.0</ele><time>2026-05-02T10:12:32.403Z</time></trkpt><trkpt lat="39.3764817" lon="8.4777"><ele>548.0</ele><time>2026-05-02T10:12:33.363Z</time></trkpt><trkpt lat="39.3764467" lon="8.4777767"><ele>548.0</ele><time>2026-05-02T10:12:34.364Z</time></trkpt><trkpt lat="39.3764183" lon="8.477855"><ele>545.1999999999999</ele><time>2026-05-02T10:12:35.363Z</time></trkpt><trkpt lat="39.3763917" lon="8.4779383"><ele>542.4</ele><time>2026-05-02T10:12:36.361Z</time></trkpt><trkpt lat="39.3763767" lon="8.478025"><ele>539.5999999999999</ele><time>2026-05-02T10:12:37.36Z</time></trkpt><trkpt lat="39.3764067" lon="8.4781717"><ele>536.8</ele><time>2026-05-02T10:12:39.357Z</time></trkpt><trkpt lat="39.37645" lon="8.4782917"><ele>534.0</ele><time>2026-05-02T10:12:41.361Z</time></trkpt><trkpt lat="39.3765233" lon="8.4783783"><ele>534.0</ele><time>2026-05-02T10:12:43.363Z</time></trkpt><trkpt lat="39.3766317" lon="8.4784317"><ele>534.0</ele><time>2026-05-02T10:12:45.36Z</time></trkpt><trkpt lat="39.3766917" lon="8.47846"><ele>534.0</ele><time>2026-05-02T10:12:46.366Z</time></trkpt><trkpt lat="39.3767933" lon="8.4785533"><ele>534.0</ele><time>2026-05-02T10:12:48.361Z</time></trkpt><trkpt lat="39.3768417" lon="8.4786117"><ele>534.0</ele><time>2026-05-02T10:12:49.364Z</time></trkpt><trkpt lat="39.3768817" lon="8.4786883"><ele>534.0</ele><time>2026-05-02T10:12:50.38Z</time></trkpt><trkpt lat="39.3769267" lon="8.478755"><ele>536.8</ele><time>2026-05-02T10:12:51.362Z</time></trkpt><trkpt lat="39.37697" lon="8.4788267"><ele>539.5999999999999</ele><time>2026-05-02T10:12:52.362Z</time></trkpt><trkpt lat="39.3770633" lon="8.4789433"><ele>542.4</ele><time>2026-05-02T10:12:54.362Z</time></trkpt><trkpt lat="39.3771633" lon="8.4789817"><ele>545.1999999999999</ele><time>2026-05-02T10:12:56.405Z</time></trkpt><trkpt lat="39.3772833" lon="8.47896"><ele>548.0</ele><time>2026-05-02T10:12:58.362Z</time></trkpt><trkpt lat="39.3773883" lon="8.478935"><ele>548.0</ele><time>2026-05-02T10:13:00.364Z</time></trkpt><trkpt lat="39.377455" lon="8.4789433"><ele>548.0</ele><time>2026-05-02T10:13:02.387Z</time></trkpt><trkpt lat="39.3776033" lon="8.4789783"><ele>548.0</ele><time>2026-05-02T10:14:06.361Z</time></trkpt><trkpt lat="39.3776983" lon="8.4789633"><ele>548.0</ele><time>2026-05-02T10:14:08.388Z</time></trkpt><trkpt lat="39.3778067" lon="8.4789517"><ele>548.0</ele><time>2026-05-02T10:14:10.363Z</time></trkpt><trkpt lat="39.3779167" lon="8.4789233"><ele>548.0</ele><time>2026-05-02T10:14:12.365Z</time></trkpt><trkpt lat="39.3779767" lon="8.4788917"><ele>548.0</ele><time>2026-05-02T10:14:13.364Z</time></trkpt><trkpt lat="39.3780333" lon="8.478855"><ele>548.0</ele><time>2026-05-02T10:14:14.389Z</time></trkpt><trkpt lat="39.37815" lon="8.4787917"><ele>548.0</ele><time>2026-05-02T10:14:16.364Z</time></trkpt><trkpt lat="39.37821" lon="8.4787667"><ele>548.0</ele><time>2026-05-02T10:14:17.366Z</time></trkpt><trkpt lat="39.3783133" lon="8.47873"><ele>548.0</ele><time>2026-05-02T10:14:19.363Z</time></trkpt><trkpt lat="39.37838" lon="8.47872"><ele>541.8333333333333</ele><time>2026-05-02T10:14:21.362Z</time></trkpt><trkpt lat="39.3784467" lon="8.4787133"><ele>535.6666666666666</ele><time>2026-05-02T10:14:24.36Z</time></trkpt><trkpt lat="39.3785817" lon="8.478645"><ele>529.5</ele><time>2026-05-02T10:14:57.361Z</time></trkpt><trkpt lat="39.3786517" lon="8.4786167"><ele>523.3333333333334</ele><time>2026-05-02T10:15:02.405Z</time></trkpt><trkpt lat="39.378725" lon="8.4786"><ele>517.1666666666667</ele><time>2026-05-02T10:15:06.363Z</time></trkpt><trkpt lat="39.37879" lon="8.4786"><ele>511.0</ele><time>2026-05-02T10:15:09.364Z</time></trkpt><trkpt lat="39.3788567" lon="8.478605"><ele>511.0</ele><time>2026-05-02T10:15:12.362Z</time></trkpt><trkpt lat="39.3789167" lon="8.4786333"><ele>511.0</ele><time>2026-05-02T10:15:16.363Z</time></trkpt><trkpt lat="39.3788767" lon="8.4784517"><ele>511.0</ele><time>2026-05-02T10:18:39.364Z</time></trkpt><trkpt lat="39.37895" lon="8.478455"><ele>511.0</ele><time>2026-05-02T10:18:41.362Z</time></trkpt><trkpt lat="39.3790533" lon="8.4784583"><ele>511.0</ele><time>2026-05-02T10:18:43.365Z</time></trkpt><trkpt lat="39.3791683" lon="8.4784783"><ele>511.00000000000006</ele><time>2026-05-02T10:18:45.363Z</time></trkpt><trkpt lat="39.379285" lon="8.4785133"><ele>511.0</ele><time>2026-05-02T10:18:47.36Z</time></trkpt><trkpt lat="39.3793467" lon="8.4785333"><ele>511.0</ele><time>2026-05-02T10:18:48.364Z</time></trkpt><trkpt lat="39.3794083" lon="8.4785567"><ele>511.0</ele><time>2026-05-02T10:18:49.36Z</time></trkpt><trkpt lat="39.3795067" lon="8.4786067"><ele>511.00000000000006</ele><time>2026-05-02T10:18:51.362Z</time></trkpt><trkpt lat="39.379585" lon="8.4786767"><ele>511.0</ele><time>2026-05-02T10:18:53.36Z</time></trkpt><trkpt lat="39.3796433" lon="8.47877"><ele>516.8333333333334</ele><time>2026-05-02T10:18:55.364Z</time></trkpt><trkpt lat="39.3796383" lon="8.4788983"><ele>522.6666666666667</ele><time>2026-05-02T10:18:57.362Z</time></trkpt><trkpt lat="39.3796067" lon="8.4790483"><ele>528.5</ele><time>2026-05-02T10:18:59.364Z</time></trkpt><trkpt lat="39.3795883" lon="8.4791333"><ele>534.3333333333334</ele><time>2026-05-02T10:19:00.369Z</time></trkpt><trkpt lat="39.379575" lon="8.479225"><ele>540.1666666666666</ele><time>2026-05-02T10:19:01.365Z</time></trkpt><trkpt lat="39.3795483" lon="8.479315"><ele>546.0</ele><time>2026-05-02T10:19:02.405Z</time></trkpt><trkpt lat="39.3795233" lon="8.4794"><ele>546.0</ele><time>2026-05-02T10:19:03.361Z</time></trkpt><trkpt lat="39.3794967" lon="8.4794883"><ele>546.0</ele><time>2026-05-02T10:19:04.362Z</time></trkpt><trkpt lat="39.37947" lon="8.4795717"><ele>546.0</ele><time>2026-05-02T10:19:05.365Z</time></trkpt><trkpt lat="39.3794383" lon="8.4796467"><ele>546.0</ele><time>2026-05-02T10:19:06.365Z</time></trkpt><trkpt lat="39.3794033" lon="8.4797167"><ele>546.0</ele><time>2026-05-02T10:19:07.362Z</time></trkpt><trkpt lat="39.379365" lon="8.4797817"><ele>546.0</ele><time>2026-05-02T10:19:08.385Z</time></trkpt><trkpt lat="39.37932" lon="8.4798433"><ele>546.0</ele><time>2026-05-02T10:19:09.363Z</time></trkpt><trkpt lat="39.3792433" lon="8.47996"><ele>545.75</ele><time>2026-05-02T10:19:11.362Z</time></trkpt><trkpt lat="39.379155" lon="8.4800733"><ele>545.5</ele><time>2026-05-02T10:19:13.361Z</time></trkpt><trkpt lat="39.379075" lon="8.4801933"><ele>545.25</ele><time>2026-05-02T10:19:15.361Z</time></trkpt><trkpt lat="39.3790133" lon="8.4803217"><ele>545.0</ele><time>2026-05-02T10:19:17.364Z</time></trkpt><trkpt lat="39.3789817" lon="8.4804333"><ele>545.0</ele><time>2026-05-02T10:19:19.362Z</time></trkpt><trkpt lat="39.37898" lon="8.4805367"><ele>545.0</ele><time>2026-05-02T10:19:21.362Z</time></trkpt><trkpt lat="39.3789933" lon="8.4806217"><ele>545.0</ele><time>2026-05-02T10:19:24.365Z</time></trkpt><trkpt lat="39.3790667" lon="8.4806733"><ele>545.0</ele><time>2026-05-02T10:19:27.361Z</time></trkpt><trkpt lat="39.3791633" lon="8.4807167"><ele>545.0</ele><time>2026-05-02T10:19:29.363Z</time></trkpt><trkpt lat="39.3792683" lon="8.48078"><ele>545.0</ele><time>2026-05-02T10:19:31.363Z</time></trkpt><trkpt lat="39.3793617" lon="8.4808517"><ele>545.0</ele><time>2026-05-02T10:19:33.361Z</time></trkpt><trkpt lat="39.37944" lon="8.4809383"><ele>545.0</ele><time>2026-05-02T10:19:35.363Z</time></trkpt><trkpt lat="39.3794983" lon="8.4810567"><ele>545.0</ele><time>2026-05-02T10:19:37.365Z</time></trkpt><trkpt lat="39.3795183" lon="8.481135"><ele>545.0</ele><time>2026-05-02T10:19:38.387Z</time></trkpt><trkpt lat="39.379535" lon="8.4813117"><ele>545.0</ele><time>2026-05-02T10:19:40.362Z</time></trkpt><trkpt lat="39.3795383" lon="8.4814"><ele>547.2</ele><time>2026-05-02T10:19:41.363Z</time></trkpt><trkpt lat="39.37953" lon="8.481505"><ele>549.4</ele><time>2026-05-02T10:19:42.366Z</time></trkpt><trkpt lat="39.3795133" lon="8.4816217"><ele>551.6</ele><time>2026-05-02T10:19:43.362Z</time></trkpt><trkpt lat="39.3794917" lon="8.4817433"><ele>553.8</ele><time>2026-05-02T10:19:44.387Z</time></trkpt><trkpt lat="39.379475" lon="8.48186"><ele>556.0</ele><time>2026-05-02T10:19:45.361Z</time></trkpt><trkpt lat="39.3794617" lon="8.481975"><ele>556.0</ele><time>2026-05-02T10:19:46.366Z</time></trkpt><trkpt lat="39.3794533" lon="8.4820733"><ele>556.0</ele><time>2026-05-02T10:19:47.362Z</time></trkpt><trkpt lat="39.379445" lon="8.4821633"><ele>556.0</ele><time>2026-05-02T10:19:48.363Z</time></trkpt><trkpt lat="39.37945" lon="8.4822483"><ele>556.0</ele><time>2026-05-02T10:19:49.365Z</time></trkpt><trkpt lat="39.37949" lon="8.4824017"><ele>556.0</ele><time>2026-05-02T10:19:51.363Z</time></trkpt><trkpt lat="39.37956" lon="8.4825233"><ele>556.5</ele><time>2026-05-02T10:19:53.359Z</time></trkpt><trkpt lat="39.3796117" lon="8.4825783"><ele>557.0</ele><time>2026-05-02T10:19:54.362Z</time></trkpt><trkpt lat="39.3796717" lon="8.4826417"><ele>557.5</ele><time>2026-05-02T10:19:55.365Z</time></trkpt><trkpt lat="39.3797333" lon="8.48269"><ele>558.0</ele><time>2026-05-02T10:19:56.429Z</time></trkpt><trkpt lat="39.3798067" lon="8.48273"><ele>558.5</ele><time>2026-05-02T10:19:57.36Z</time></trkpt><trkpt lat="39.3798817" lon="8.4827667"><ele>559.0</ele><time>2026-05-02T10:19:58.364Z</time></trkpt><trkpt lat="39.3799567" lon="8.4828"><ele>559.0</ele><time>2026-05-02T10:19:59.362Z</time></trkpt><trkpt lat="39.3800333" lon="8.482825"><ele>559.0</ele><time>2026-05-02T10:20:00.363Z</time></trkpt><trkpt lat="39.3801117" lon="8.4828467"><ele>559.0</ele><time>2026-05-02T10:20:01.363Z</time></trkpt><trkpt lat="39.38019" lon="8.4828683"><ele>559.0</ele><time>2026-05-02T10:20:02.407Z</time></trkpt><trkpt lat="39.3802667" lon="8.4828917"><ele>559.0</ele><time>2026-05-02T10:20:03.363Z</time></trkpt><trkpt lat="39.3803433" lon="8.48292"><ele>559.0</ele><time>2026-05-02T10:20:04.362Z</time></trkpt><trkpt lat="39.3804233" lon="8.4829433"><ele>559.0</ele><time>2026-05-02T10:20:05.361Z</time></trkpt><trkpt lat="39.3804983" lon="8.482955"><ele>559.0</ele><time>2026-05-02T10:20:06.366Z</time></trkpt><trkpt lat="39.380575" lon="8.4829567"><ele>559.0</ele><time>2026-05-02T10:20:07.363Z</time></trkpt><trkpt lat="39.380645" lon="8.4829483"><ele>559.0</ele><time>2026-05-02T10:20:08.389Z</time></trkpt><trkpt lat="39.380775" lon="8.4829067"><ele>559.0</ele><time>2026-05-02T10:20:10.363Z</time></trkpt><trkpt lat="39.3808467" lon="8.482875"><ele>559.0</ele><time>2026-05-02T10:20:11.362Z</time></trkpt><trkpt lat="39.3809183" lon="8.4828483"><ele>556.0</ele><time>2026-05-02T10:20:12.363Z</time></trkpt><trkpt lat="39.3809933" lon="8.4828183"><ele>553.0</ele><time>2026-05-02T10:20:13.362Z</time></trkpt><trkpt lat="39.3811" lon="8.48278"><ele>550.0</ele><time>2026-05-02T10:20:15.364Z</time></trkpt><trkpt lat="39.3812017" lon="8.4827217"><ele>547.0</ele><time>2026-05-02T10:20:17.362Z</time></trkpt><trkpt lat="39.3812667" lon="8.482675"><ele>544.0</ele><time>2026-05-02T10:20:18.366Z</time></trkpt><trkpt lat="39.3813317" lon="8.4826333"><ele>541.0</ele><time>2026-05-02T10:20:19.364Z</time></trkpt><trkpt lat="39.3813983" lon="8.4826"><ele>541.0</ele><time>2026-05-02T10:20:20.388Z</time></trkpt><trkpt lat="39.38146" lon="8.482575"><ele>541.0</ele><time>2026-05-02T10:20:21.366Z</time></trkpt><trkpt lat="39.3815833" lon="8.48254"><ele>541.0</ele><time>2026-05-02T10:20:23.366Z</time></trkpt><trkpt lat="39.3816533" lon="8.4825167"><ele>541.0</ele><time>2026-05-02T10:20:24.361Z</time></trkpt><trkpt lat="39.38173" lon="8.48249"><ele>541.0</ele><time>2026-05-02T10:20:25.365Z</time></trkpt><trkpt lat="39.3818083" lon="8.48246"><ele>541.0</ele><time>2026-05-02T10:20:26.429Z</time></trkpt><trkpt lat="39.3818833" lon="8.4824283"><ele>541.0000000000001</ele><time>2026-05-02T10:20:27.363Z</time></trkpt><trkpt lat="39.3819483" lon="8.4824033"><ele>541.0</ele><time>2026-05-02T10:20:28.362Z</time></trkpt><trkpt lat="39.38201" lon="8.4823783"><ele>541.0</ele><time>2026-05-02T10:20:29.36Z</time></trkpt><trkpt lat="39.3820767" lon="8.482345"><ele>541.0</ele><time>2026-05-02T10:20:30.364Z</time></trkpt><trkpt lat="39.3821383" lon="8.4823083"><ele>541.0</ele><time>2026-05-02T10:20:31.362Z</time></trkpt><trkpt lat="39.3821983" lon="8.482275"><ele>541.0000000000001</ele><time>2026-05-02T10:20:32.38Z</time></trkpt><trkpt lat="39.3823017" lon="8.482225"><ele>541.0</ele><time>2026-05-02T10:20:34.363Z</time></trkpt><trkpt lat="39.382395" lon="8.4821717"><ele>544.6</ele><time>2026-05-02T10:20:36.364Z</time></trkpt><trkpt lat="39.3824533" lon="8.4821333"><ele>548.2</ele><time>2026-05-02T10:20:37.362Z</time></trkpt><trkpt lat="39.38256" lon="8.482065"><ele>551.8</ele><time>2026-05-02T10:20:39.363Z</time></trkpt><trkpt lat="39.382675" lon="8.482"><ele>555.4</ele><time>2026-05-02T10:20:41.364Z</time></trkpt><trkpt lat="39.382795" lon="8.481955"><ele>559.0</ele><time>2026-05-02T10:20:43.361Z</time></trkpt><trkpt lat="39.3828567" lon="8.4819317"><ele>554.8333333333334</ele><time>2026-05-02T10:20:44.387Z</time></trkpt><trkpt lat="39.3829183" lon="8.4819067"><ele>550.6666666666667</ele><time>2026-05-02T10:20:45.364Z</time></trkpt><trkpt lat="39.3829817" lon="8.4818783"><ele>546.5</ele><time>2026-05-02T10:20:46.362Z</time></trkpt><trkpt lat="39.383045" lon="8.48185"><ele>542.3333333333334</ele><time>2026-05-02T10:20:47.363Z</time></trkpt><trkpt lat="39.3831083" lon="8.4818283"><ele>538.1666666666666</ele><time>2026-05-02T10:20:48.364Z</time></trkpt><trkpt lat="39.3832283" lon="8.4818133"><ele>534.0</ele><time>2026-05-02T10:20:50.384Z</time></trkpt><trkpt lat="39.383295" lon="8.481815"><ele>534.0000000000001</ele><time>2026-05-02T10:20:51.364Z</time></trkpt><trkpt lat="39.3833633" lon="8.4818283"><ele>534.0</ele><time>2026-05-02T10:20:52.364Z</time></trkpt><trkpt lat="39.3834317" lon="8.48184"><ele>534.0</ele><time>2026-05-02T10:20:53.363Z</time></trkpt><trkpt lat="39.3835" lon="8.4818583"><ele>534.0</ele><time>2026-05-02T10:20:54.362Z</time></trkpt><trkpt lat="39.3835683" lon="8.4818733"><ele>534.0</ele><time>2026-05-02T10:20:55.362Z</time></trkpt><trkpt lat="39.3836433" lon="8.4818933"><ele>534.0000000000001</ele><time>2026-05-02T10:20:56.428Z</time></trkpt><trkpt lat="39.3837183" lon="8.4819117"><ele>534.0</ele><time>2026-05-02T10:20:57.363Z</time></trkpt><trkpt lat="39.383795" lon="8.48193"><ele>532.5714285714287</ele><time>2026-05-02T10:20:58.366Z</time></trkpt><trkpt lat="39.3838717" lon="8.4819417"><ele>531.1428571428571</ele><time>2026-05-02T10:20:59.363Z</time></trkpt><trkpt lat="39.3839467" lon="8.4819533"><ele>529.7142857142858</ele><time>2026-05-02T10:21:00.364Z</time></trkpt><trkpt lat="39.3840217" lon="8.4819633"><ele>528.2857142857143</ele><time>2026-05-02T10:21:01.363Z</time></trkpt><trkpt lat="39.38409" lon="8.481975"><ele>526.8571428571429</ele><time>2026-05-02T10:21:02.406Z</time></trkpt><trkpt lat="39.384155" lon="8.4819867"><ele>525.4285714285714</ele><time>2026-05-02T10:21:03.363Z</time></trkpt><trkpt lat="39.3842167" lon="8.482015"><ele>524.0</ele><time>2026-05-02T10:21:04.363Z</time></trkpt><trkpt lat="39.384325" lon="8.482115"><ele>529.0</ele><time>2026-05-02T10:21:06.364Z</time></trkpt><trkpt lat="39.384375" lon="8.4821733"><ele>534.0</ele><time>2026-05-02T10:21:07.365Z</time></trkpt><trkpt lat="39.3844233" lon="8.4822283"><ele>539.0</ele><time>2026-05-02T10:21:08.386Z</time></trkpt><trkpt lat="39.38447" lon="8.482285"><ele>544.0</ele><time>2026-05-02T10:21:09.362Z</time></trkpt><trkpt lat="39.3845417" lon="8.4823933"><ele>549.0</ele><time>2026-05-02T10:21:11.368Z</time></trkpt><trkpt lat="39.3845833" lon="8.4825233"><ele>554.0</ele><time>2026-05-02T10:21:13.362Z</time></trkpt><trkpt lat="39.3846233" lon="8.482665"><ele>554.0</ele><time>2026-05-02T10:21:15.364Z</time></trkpt><trkpt lat="39.384645" lon="8.48282"><ele>554.0</ele><time>2026-05-02T10:21:17.362Z</time></trkpt><trkpt lat="39.384635" lon="8.482965"><ele>554.0</ele><time>2026-05-02T10:21:19.361Z</time></trkpt><trkpt lat="39.3845867" lon="8.4831"><ele>554.0</ele><time>2026-05-02T10:21:21.362Z</time></trkpt><trkpt lat="39.38449" lon="8.4832267"><ele>553.1428571428571</ele><time>2026-05-02T10:21:23.361Z</time></trkpt><trkpt lat="39.3844333" lon="8.4832867"><ele>552.2857142857142</ele><time>2026-05-02T10:21:24.36Z</time></trkpt><trkpt lat="39.38438" lon="8.4833383"><ele>551.4285714285714</ele><time>2026-05-02T10:21:25.363Z</time></trkpt><trkpt lat="39.3843233" lon="8.483385"><ele>550.5714285714286</ele><time>2026-05-02T10:21:26.427Z</time></trkpt><trkpt lat="39.3842583" lon="8.4834167"><ele>549.7142857142858</ele><time>2026-05-02T10:21:27.361Z</time></trkpt><trkpt lat="39.38419" lon="8.48343"><ele>548.8571428571429</ele><time>2026-05-02T10:21:28.36Z</time></trkpt><trkpt lat="39.3841217" lon="8.4834317"><ele>548.0</ele><time>2026-05-02T10:21:29.361Z</time></trkpt><trkpt lat="39.3840517" lon="8.483425"><ele>548.0</ele><time>2026-05-02T10:21:30.36Z</time></trkpt><trkpt lat="39.38398" lon="8.483415"><ele>548.0</ele><time>2026-05-02T10:21:31.366Z</time></trkpt><trkpt lat="39.3839067" lon="8.483415"><ele>548.0</ele><time>2026-05-02T10:21:32.405Z</time></trkpt><trkpt lat="39.3838333" lon="8.483415"><ele>548.0</ele><time>2026-05-02T10:21:33.361Z</time></trkpt><trkpt lat="39.38376" lon="8.4834233"><ele>548.0</ele><time>2026-05-02T10:21:34.363Z</time></trkpt><trkpt lat="39.383685" lon="8.4834333"><ele>548.0</ele><time>2026-05-02T10:21:35.365Z</time></trkpt><trkpt lat="39.3836033" lon="8.4834417"><ele>549.2857142857143</ele><time>2026-05-02T10:21:36.365Z</time></trkpt><trkpt lat="39.383525" lon="8.4834517"><ele>550.5714285714286</ele><time>2026-05-02T10:21:37.364Z</time></trkpt><trkpt lat="39.383445" lon="8.4834667"><ele>551.8571428571429</ele><time>2026-05-02T10:21:38.389Z</time></trkpt><trkpt lat="39.3833683" lon="8.48349"><ele>553.1428571428571</ele><time>2026-05-02T10:21:39.365Z</time></trkpt><trkpt lat="39.3832983" lon="8.4835117"><ele>554.4285714285714</ele><time>2026-05-02T10:21:40.366Z</time></trkpt><trkpt lat="39.3832367" lon="8.4835417"><ele>555.7142857142858</ele><time>2026-05-02T10:21:41.364Z</time></trkpt><trkpt lat="39.383175" lon="8.4835717"><ele>557.0</ele><time>2026-05-02T10:21:42.365Z</time></trkpt><trkpt lat="39.3831167" lon="8.4836033"><ele>557.8333333333333</ele><time>2026-05-02T10:21:43.365Z</time></trkpt><trkpt lat="39.383005" lon="8.4836783"><ele>558.6666666666666</ele><time>2026-05-02T10:21:45.365Z</time></trkpt><trkpt lat="39.3829083" lon="8.4837667"><ele>559.5</ele><time>2026-05-02T10:21:47.366Z</time></trkpt><trkpt lat="39.3828567" lon="8.4838217"><ele>560.3333333333334</ele><time>2026-05-02T10:21:48.362Z</time></trkpt><trkpt lat="39.3828117" lon="8.4838833"><ele>561.1666666666667</ele><time>2026-05-02T10:21:49.362Z</time></trkpt><trkpt lat="39.3827667" lon="8.48395"><ele>562.0</ele><time>2026-05-02T10:21:50.39Z</time></trkpt><trkpt lat="39.38272" lon="8.4840267"><ele>562.0000000000001</ele><time>2026-05-02T10:21:51.367Z</time></trkpt><trkpt lat="39.3826817" lon="8.4840983"><ele>562.0</ele><time>2026-05-02T10:21:52.365Z</time></trkpt><trkpt lat="39.3826367" lon="8.4841617"><ele>562.0</ele><time>2026-05-02T10:21:53.367Z</time></trkpt><trkpt lat="39.3825967" lon="8.48423"><ele>562.0</ele><time>2026-05-02T10:21:54.366Z</time></trkpt><trkpt lat="39.3825633" lon="8.48431"><ele>562.0</ele><time>2026-05-02T10:21:55.365Z</time></trkpt><trkpt lat="39.3825433" lon="8.4843933"><ele>562.0000000000001</ele><time>2026-05-02T10:21:56.431Z</time></trkpt><trkpt lat="39.3825283" lon="8.4844867"><ele>562.0</ele><time>2026-05-02T10:21:57.365Z</time></trkpt><trkpt lat="39.3825333" lon="8.4845817"><ele>561.5</ele><time>2026-05-02T10:21:58.363Z</time></trkpt><trkpt lat="39.38256" lon="8.4846883"><ele>561.0</ele><time>2026-05-02T10:21:59.364Z</time></trkpt><trkpt lat="39.3826267" lon="8.4848033"><ele>560.5</ele><time>2026-05-02T10:22:00.365Z</time></trkpt><trkpt lat="39.3826733" lon="8.484895"><ele>560.0</ele><time>2026-05-02T10:22:01.365Z</time></trkpt><trkpt lat="39.3827067" lon="8.4849867"><ele>559.5</ele><time>2026-05-02T10:22:02.432Z</time></trkpt><trkpt lat="39.38274" lon="8.4850733"><ele>559.0</ele><time>2026-05-02T10:22:03.366Z</time></trkpt><trkpt lat="39.3827683" lon="8.48516"><ele>559.0</ele><time>2026-05-02T10:22:04.364Z</time></trkpt><trkpt lat="39.3828017" lon="8.485245"><ele>559.0</ele><time>2026-05-02T10:22:05.363Z</time></trkpt><trkpt lat="39.3828233" lon="8.4853383"><ele>559.0</ele><time>2026-05-02T10:22:06.366Z</time></trkpt><trkpt lat="39.38284" lon="8.485435"><ele>559.0</ele><time>2026-05-02T10:22:07.366Z</time></trkpt><trkpt lat="39.3828533" lon="8.4855317"><ele>559.0</ele><time>2026-05-02T10:22:08.386Z</time></trkpt><trkpt lat="39.3828667" lon="8.485635"><ele>559.0</ele><time>2026-05-02T10:22:09.358Z</time></trkpt><trkpt lat="39.3828733" lon="8.4857433"><ele>558.6666666666667</ele><time>2026-05-02T10:22:10.362Z</time></trkpt><trkpt lat="39.382875" lon="8.485835"><ele>558.3333333333334</ele><time>2026-05-02T10:22:11.361Z</time></trkpt><trkpt lat="39.3828733" lon="8.48593"><ele>558.0</ele><time>2026-05-02T10:22:12.364Z</time></trkpt><trkpt lat="39.382865" lon="8.4860133"><ele>557.6666666666666</ele><time>2026-05-02T10:22:13.361Z</time></trkpt><trkpt lat="39.382855" lon="8.4860983"><ele>557.3333333333333</ele><time>2026-05-02T10:22:14.39Z</time></trkpt><trkpt lat="39.3828183" lon="8.4862367"><ele>557.0</ele><time>2026-05-02T10:22:16.365Z</time></trkpt><trkpt lat="39.3827517" lon="8.486335"><ele>553.5</ele><time>2026-05-02T10:22:18.36Z</time></trkpt><trkpt lat="39.3826517" lon="8.4864117"><ele>550.0</ele><time>2026-05-02T10:22:20.386Z</time></trkpt><trkpt lat="39.3825917" lon="8.4864433"><ele>546.5</ele><time>2026-05-02T10:22:21.362Z</time></trkpt><trkpt lat="39.3825217" lon="8.4864667"><ele>543.0</ele><time>2026-05-02T10:22:22.36Z</time></trkpt><trkpt lat="39.3824483" lon="8.48649"><ele>539.5</ele><time>2026-05-02T10:22:23.362Z</time></trkpt><trkpt lat="39.38236" lon="8.4865083"><ele>536.0</ele><time>2026-05-02T10:22:24.368Z</time></trkpt><trkpt lat="39.3822717" lon="8.4865217"><ele>536.0</ele><time>2026-05-02T10:22:25.362Z</time></trkpt><trkpt lat="39.3821867" lon="8.4865267"><ele>536.0</ele><time>2026-05-02T10:22:26.425Z</time></trkpt><trkpt lat="39.3821" lon="8.486525"><ele>536.0</ele><time>2026-05-02T10:22:27.361Z</time></trkpt><trkpt lat="39.3820067" lon="8.486515"><ele>536.0</ele><time>2026-05-02T10:22:28.36Z</time></trkpt><trkpt lat="39.3819117" lon="8.4865067"><ele>536.0</ele><time>2026-05-02T10:22:29.361Z</time></trkpt><trkpt lat="39.3818167" lon="8.4865"><ele>538.4</ele><time>2026-05-02T10:22:30.361Z</time></trkpt><trkpt lat="39.3817217" lon="8.4864933"><ele>540.8</ele><time>2026-05-02T10:22:31.362Z</time></trkpt><trkpt lat="39.3816217" lon="8.4864833"><ele>543.1999999999999</ele><time>2026-05-02T10:22:32.403Z</time></trkpt><trkpt lat="39.3815233" lon="8.4864767"><ele>545.6</ele><time>2026-05-02T10:22:33.362Z</time></trkpt><trkpt lat="39.38143" lon="8.48648"><ele>548.0</ele><time>2026-05-02T10:22:34.361Z</time></trkpt><trkpt lat="39.3813433" lon="8.4864883"><ele>550.6666666666666</ele><time>2026-05-02T10:22:35.361Z</time></trkpt><trkpt lat="39.381265" lon="8.4865"><ele>553.3333333333333</ele><time>2026-05-02T10:22:36.362Z</time></trkpt><trkpt lat="39.3811917" lon="8.48652"><ele>556.0</ele><time>2026-05-02T10:22:37.361Z</time></trkpt><trkpt lat="39.38112" lon="8.4865467"><ele>558.6666666666666</ele><time>2026-05-02T10:22:38.386Z</time></trkpt><trkpt lat="39.38105" lon="8.4865833"><ele>561.3333333333334</ele><time>2026-05-02T10:22:39.362Z</time></trkpt><trkpt lat="39.3809783" lon="8.4866217"><ele>564.0</ele><time>2026-05-02T10:22:40.362Z</time></trkpt><trkpt lat="39.38091" lon="8.48666"><ele>564.0</ele><time>2026-05-02T10:22:41.362Z</time></trkpt><trkpt lat="39.3808517" lon="8.486695"><ele>564.0</ele><time>2026-05-02T10:22:42.36Z</time></trkpt><trkpt lat="39.3807733" lon="8.4867967"><ele>564.0</ele><time>2026-05-02T10:22:44.385Z</time></trkpt><trkpt lat="39.3807983" lon="8.486945"><ele>564.0</ele><time>2026-05-02T10:22:46.362Z</time></trkpt><trkpt lat="39.3808617" lon="8.487045"><ele>564.0</ele><time>2026-05-02T10:22:48.363Z</time></trkpt><trkpt lat="39.38096" lon="8.48714"><ele>564.8</ele><time>2026-05-02T10:22:50.386Z</time></trkpt><trkpt lat="39.3810267" lon="8.487195"><ele>565.5999999999999</ele><time>2026-05-02T10:22:51.36Z</time></trkpt><trkpt lat="39.3811" lon="8.487255"><ele>566.4</ele><time>2026-05-02T10:22:52.361Z</time></trkpt><trkpt lat="39.3811783" lon="8.487325"><ele>567.1999999999999</ele><time>2026-05-02T10:22:53.361Z</time></trkpt><trkpt lat="39.3812567" lon="8.4873983"><ele>568.0</ele><time>2026-05-02T10:22:54.361Z</time></trkpt><trkpt lat="39.3813333" lon="8.4874733"><ele>564.1666666666667</ele><time>2026-05-02T10:22:55.36Z</time></trkpt><trkpt lat="39.3814067" lon="8.4875467"><ele>560.3333333333334</ele><time>2026-05-02T10:22:56.405Z</time></trkpt><trkpt lat="39.3814833" lon="8.48762"><ele>556.5</ele><time>2026-05-02T10:22:57.362Z</time></trkpt><trkpt lat="39.3815567" lon="8.487685"><ele>552.6666666666666</ele><time>2026-05-02T10:22:58.364Z</time></trkpt><trkpt lat="39.3816217" lon="8.4877517"><ele>548.8333333333333</ele><time>2026-05-02T10:22:59.364Z</time></trkpt><trkpt lat="39.3816783" lon="8.4878233"><ele>545.0</ele><time>2026-05-02T10:23:00.361Z</time></trkpt><trkpt lat="39.3817283" lon="8.4879017"><ele>546.3333333333333</ele><time>2026-05-02T10:23:01.363Z</time></trkpt><trkpt lat="39.3817767" lon="8.4879867"><ele>547.6666666666666</ele><time>2026-05-02T10:23:02.41Z</time></trkpt><trkpt lat="39.3818233" lon="8.48807"><ele>549.0</ele><time>2026-05-02T10:23:03.362Z</time></trkpt><trkpt lat="39.3818583" lon="8.48816"><ele>550.3333333333334</ele><time>2026-05-02T10:23:04.363Z</time></trkpt><trkpt lat="39.381875" lon="8.488255"><ele>551.6666666666667</ele><time>2026-05-02T10:23:05.364Z</time></trkpt><trkpt lat="39.381875" lon="8.4883517"><ele>553.0</ele><time>2026-05-02T10:23:06.366Z</time></trkpt><trkpt lat="39.3818633" lon="8.4884533"><ele>553.0</ele><time>2026-05-02T10:23:07.363Z</time></trkpt><trkpt lat="39.381845" lon="8.488555"><ele>553.0</ele><time>2026-05-02T10:23:08.386Z</time></trkpt><trkpt lat="39.38182" lon="8.4886583"><ele>553.0</ele><time>2026-05-02T10:23:09.367Z</time></trkpt><trkpt lat="39.381785" lon="8.4887617"><ele>553.0</ele><time>2026-05-02T10:23:10.364Z</time></trkpt><trkpt lat="39.3817467" lon="8.488865"><ele>553.0</ele><time>2026-05-02T10:23:11.369Z</time></trkpt><trkpt lat="39.38171" lon="8.4889633"><ele>553.0</ele><time>2026-05-02T10:23:12.362Z</time></trkpt><trkpt lat="39.3816617" lon="8.48906"><ele>551.0</ele><time>2026-05-02T10:23:13.362Z</time></trkpt><trkpt lat="39.3816167" lon="8.4891533"><ele>549.0</ele><time>2026-05-02T10:23:14.388Z</time></trkpt><trkpt lat="39.381565" lon="8.489245"><ele>547.0</ele><time>2026-05-02T10:23:15.377Z</time></trkpt><trkpt lat="39.3815117" lon="8.4893333"><ele>545.0</ele><time>2026-05-02T10:23:16.362Z</time></trkpt><trkpt lat="39.3814567" lon="8.4894183"><ele>543.0</ele><time>2026-05-02T10:23:17.365Z</time></trkpt><trkpt lat="39.3813983" lon="8.4895"><ele>541.0</ele><time>2026-05-02T10:23:18.366Z</time></trkpt><trkpt lat="39.3813367" lon="8.48958"><ele>541.6</ele><time>2026-05-02T10:23:19.365Z</time></trkpt><trkpt lat="39.38127" lon="8.4896633"><ele>542.2</ele><time>2026-05-02T10:23:20.387Z</time></trkpt><trkpt lat="39.3811983" lon="8.48975"><ele>542.8</ele><time>2026-05-02T10:23:21.365Z</time></trkpt><trkpt lat="39.3811333" lon="8.4898333"><ele>543.4</ele><time>2026-05-02T10:23:22.364Z</time></trkpt><trkpt lat="39.3810617" lon="8.4899167"><ele>544.0</ele><time>2026-05-02T10:23:23.367Z</time></trkpt><trkpt lat="39.380995" lon="8.4899967"><ele>544.0</ele><time>2026-05-02T10:23:24.366Z</time></trkpt><trkpt lat="39.380925" lon="8.4900717"><ele>544.0</ele><time>2026-05-02T10:23:25.363Z</time></trkpt><trkpt lat="39.3808633" lon="8.4901467"><ele>544.0</ele><time>2026-05-02T10:23:26.405Z</time></trkpt><trkpt lat="39.3807983" lon="8.4902233"><ele>544.0</ele><time>2026-05-02T10:23:27.37Z</time></trkpt><trkpt lat="39.380735" lon="8.49027"><ele>544.0</ele><time>2026-05-02T10:23:28.362Z</time></trkpt><trkpt lat="39.3806683" lon="8.4903033"><ele>544.0</ele><time>2026-05-02T10:23:29.365Z</time></trkpt><trkpt lat="39.3806" lon="8.4903167"><ele>544.0</ele><time>2026-05-02T10:23:30.36Z</time></trkpt><trkpt lat="39.3805317" lon="8.4903183"><ele>544.0</ele><time>2026-05-02T10:23:31.361Z</time></trkpt><trkpt lat="39.3804517" lon="8.4902917"><ele>544.0</ele><time>2026-05-02T10:23:32.404Z</time></trkpt><trkpt lat="39.380375" lon="8.4902667"><ele>544.0</ele><time>2026-05-02T10:23:33.364Z</time></trkpt><trkpt lat="39.3802933" lon="8.49024"><ele>544.0</ele><time>2026-05-02T10:23:34.361Z</time></trkpt><trkpt lat="39.380215" lon="8.4902167"><ele>544.0</ele><time>2026-05-02T10:23:35.362Z</time></trkpt><trkpt lat="39.3801333" lon="8.4902067"><ele>545.6666666666667</ele><time>2026-05-02T10:23:36.362Z</time></trkpt><trkpt lat="39.3800483" lon="8.4902083"><ele>547.3333333333334</ele><time>2026-05-02T10:23:37.362Z</time></trkpt><trkpt lat="39.379965" lon="8.4902067"><ele>549.0</ele><time>2026-05-02T10:23:38.386Z</time></trkpt><trkpt lat="39.379885" lon="8.4902083"><ele>550.6666666666666</ele><time>2026-05-02T10:23:39.364Z</time></trkpt><trkpt lat="39.3798017" lon="8.4902017"><ele>552.3333333333333</ele><time>2026-05-02T10:23:40.365Z</time></trkpt><trkpt lat="39.3797167" lon="8.4902017"><ele>554.0</ele><time>2026-05-02T10:23:41.365Z</time></trkpt><trkpt lat="39.3796367" lon="8.4902133"><ele>554.2857142857142</ele><time>2026-05-02T10:23:42.364Z</time></trkpt><trkpt lat="39.3795617" lon="8.49023"><ele>554.5714285714286</ele><time>2026-05-02T10:23:43.362Z</time></trkpt><trkpt lat="39.3794883" lon="8.4902433"><ele>554.8571428571429</ele><time>2026-05-02T10:23:44.384Z</time></trkpt><trkpt lat="39.3794183" lon="8.4902483"><ele>555.1428571428571</ele><time>2026-05-02T10:23:45.363Z</time></trkpt><trkpt lat="39.3793483" lon="8.4902433"><ele>555.4285714285714</ele><time>2026-05-02T10:23:46.363Z</time></trkpt><trkpt lat="39.37928" lon="8.4902267"><ele>555.7142857142857</ele><time>2026-05-02T10:23:47.363Z</time></trkpt><trkpt lat="39.379215" lon="8.4902167"><ele>556.0</ele><time>2026-05-02T10:23:48.365Z</time></trkpt><trkpt lat="39.3791067" lon="8.4902333"><ele>556.0</ele><time>2026-05-02T10:23:50.384Z</time></trkpt><trkpt lat="39.379005" lon="8.490305"><ele>556.0</ele><time>2026-05-02T10:23:52.364Z</time></trkpt><trkpt lat="39.3789417" lon="8.4904067"><ele>556.0</ele><time>2026-05-02T10:23:54.371Z</time></trkpt><trkpt lat="39.3788917" lon="8.490545"><ele>556.0</ele><time>2026-05-02T10:23:56.405Z</time></trkpt><trkpt lat="39.3788167" lon="8.490655"><ele>556.0</ele><time>2026-05-02T10:23:58.364Z</time></trkpt><trkpt lat="39.3787367" lon="8.4907167"><ele>556.2</ele><time>2026-05-02T10:24:00.363Z</time></trkpt><trkpt lat="39.3786633" lon="8.4907067"><ele>556.4000000000001</ele><time>2026-05-02T10:24:02.406Z</time></trkpt><trkpt lat="39.378605" lon="8.4906383"><ele>556.6</ele><time>2026-05-02T10:24:04.363Z</time></trkpt><trkpt lat="39.3785317" lon="8.49055"><ele>556.8000000000001</ele><time>2026-05-02T10:24:06.362Z</time></trkpt><trkpt lat="39.3784567" lon="8.4904217"><ele>557.0</ele><time>2026-05-02T10:24:08.386Z</time></trkpt><trkpt lat="39.3783817" lon="8.4902933"><ele>557.0</ele><time>2026-05-02T10:24:10.363Z</time></trkpt><trkpt lat="39.3783467" lon="8.490225"><ele>557.0</ele><time>2026-05-02T10:24:11.362Z</time></trkpt><trkpt lat="39.3782683" lon="8.490135"><ele>557.0</ele><time>2026-05-02T10:24:13.363Z</time></trkpt><trkpt lat="39.378195" lon="8.4900917"><ele>557.0</ele><time>2026-05-02T10:24:15.362Z</time></trkpt><trkpt lat="39.3781133" lon="8.49008"><ele>557.0</ele><time>2026-05-02T10:24:17.365Z</time></trkpt><trkpt lat="39.3780167" lon="8.4900983"><ele>557.0</ele><time>2026-05-02T10:24:19.359Z</time></trkpt><trkpt lat="39.37791" lon="8.4901333"><ele>556.6666666666666</ele><time>2026-05-02T10:24:21.359Z</time></trkpt><trkpt lat="39.37786" lon="8.4901883"><ele>556.3333333333333</ele><time>2026-05-02T10:24:22.361Z</time></trkpt><trkpt lat="39.3778033" lon="8.490245"><ele>556.0</ele><time>2026-05-02T10:24:23.365Z</time></trkpt><trkpt lat="39.377755" lon="8.4903833"><ele>555.6666666666666</ele><time>2026-05-02T10:24:24.362Z</time></trkpt><trkpt lat="39.3777317" lon="8.49049"><ele>555.3333333333334</ele><time>2026-05-02T10:24:25.362Z</time></trkpt><trkpt lat="39.3777067" lon="8.4906233"><ele>555.0</ele><time>2026-05-02T10:24:26.396Z</time></trkpt><trkpt lat="39.37768" lon="8.4907317"><ele>555.0000000000001</ele><time>2026-05-02T10:24:27.359Z</time></trkpt><trkpt lat="39.3776433" lon="8.4908267"><ele>555.0</ele><time>2026-05-02T10:24:28.361Z</time></trkpt><trkpt lat="39.3776067" lon="8.49091"><ele>555.0</ele><time>2026-05-02T10:24:29.357Z</time></trkpt><trkpt lat="39.37756" lon="8.4909833"><ele>555.0</ele><time>2026-05-02T10:24:30.362Z</time></trkpt><trkpt lat="39.377495" lon="8.49104"><ele>555.0</ele><time>2026-05-02T10:24:31.361Z</time></trkpt><trkpt lat="39.3774367" lon="8.4910867"><ele>555.0000000000001</ele><time>2026-05-02T10:24:32.395Z</time></trkpt><trkpt lat="39.37738" lon="8.491125"><ele>555.0</ele><time>2026-05-02T10:24:33.357Z</time></trkpt><trkpt lat="39.377275" lon="8.4911767"><ele>554.2</ele><time>2026-05-02T10:24:35.36Z</time></trkpt><trkpt lat="39.3771733" lon="8.491175"><ele>553.4</ele><time>2026-05-02T10:24:37.359Z</time></trkpt><trkpt lat="39.3770733" lon="8.4911083"><ele>552.6</ele><time>2026-05-02T10:24:39.364Z</time></trkpt><trkpt lat="39.376985" lon="8.4910133"><ele>551.8</ele><time>2026-05-02T10:24:41.362Z</time></trkpt><trkpt lat="39.376945" lon="8.4909167"><ele>551.0</ele><time>2026-05-02T10:24:42.362Z</time></trkpt><trkpt lat="39.3769" lon="8.4908167"><ele>551.0</ele><time>2026-05-02T10:24:43.362Z</time></trkpt><trkpt lat="39.376845" lon="8.4907233"><ele>551.0</ele><time>2026-05-02T10:24:44.384Z</time></trkpt><trkpt lat="39.376785" lon="8.4906317"><ele>551.0</ele><time>2026-05-02T10:24:45.359Z</time></trkpt><trkpt lat="39.3767183" lon="8.4905567"><ele>551.0</ele><time>2026-05-02T10:24:46.357Z</time></trkpt><trkpt lat="39.37665" lon="8.4904867"><ele>551.0</ele><time>2026-05-02T10:24:47.362Z</time></trkpt><trkpt lat="39.3765883" lon="8.4904183"><ele>551.0</ele><time>2026-05-02T10:24:48.36Z</time></trkpt><trkpt lat="39.3765333" lon="8.49035"><ele>555.0</ele><time>2026-05-02T10:24:49.365Z</time></trkpt><trkpt lat="39.3764433" lon="8.4902733"><ele>559.0</ele><time>2026-05-02T10:24:51.358Z</time></trkpt><trkpt lat="39.37634" lon="8.4902783"><ele>563.0</ele><time>2026-05-02T10:24:53.359Z</time></trkpt><trkpt lat="39.37624" lon="8.4903367"><ele>567.0</ele><time>2026-05-02T10:24:55.359Z</time></trkpt><trkpt lat="39.3761617" lon="8.4904517"><ele>571.0</ele><time>2026-05-02T10:24:57.36Z</time></trkpt><trkpt lat="39.3761517" lon="8.4905333"><ele>571.4285714285714</ele><time>2026-05-02T10:24:58.361Z</time></trkpt><trkpt lat="39.3761533" lon="8.4906233"><ele>571.8571428571429</ele><time>2026-05-02T10:24:59.363Z</time></trkpt><trkpt lat="39.3761433" lon="8.490705"><ele>572.2857142857142</ele><time>2026-05-02T10:25:00.361Z</time></trkpt><trkpt lat="39.376145" lon="8.49079"><ele>572.7142857142858</ele><time>2026-05-02T10:25:01.363Z</time></trkpt><trkpt lat="39.3761283" lon="8.490875"><ele>573.1428571428571</ele><time>2026-05-02T10:25:02.399Z</time></trkpt><trkpt lat="39.3761233" lon="8.4909667"><ele>573.5714285714286</ele><time>2026-05-02T10:25:03.363Z</time></trkpt><trkpt lat="39.3761167" lon="8.4910717"><ele>574.0</ele><time>2026-05-02T10:25:04.363Z</time></trkpt><trkpt lat="39.3761133" lon="8.4911733"><ele>573.5</ele><time>2026-05-02T10:25:05.361Z</time></trkpt><trkpt lat="39.3761017" lon="8.4912683"><ele>573.0</ele><time>2026-05-02T10:25:06.363Z</time></trkpt><trkpt lat="39.3760917" lon="8.491375"><ele>572.5</ele><time>2026-05-02T10:25:07.361Z</time></trkpt><trkpt lat="39.3760833" lon="8.491495"><ele>572.0</ele><time>2026-05-02T10:25:08.382Z</time></trkpt><trkpt lat="39.3760767" lon="8.491615"><ele>571.5</ele><time>2026-05-02T10:25:09.359Z</time></trkpt><trkpt lat="39.3760733" lon="8.49174"><ele>571.0</ele><time>2026-05-02T10:25:10.363Z</time></trkpt><trkpt lat="39.3760683" lon="8.4918567"><ele>571.0</ele><time>2026-05-02T10:25:11.36Z</time></trkpt><trkpt lat="39.3760667" lon="8.4919683"><ele>571.0</ele><time>2026-05-02T10:25:12.363Z</time></trkpt><trkpt lat="39.3760633" lon="8.4920733"><ele>571.0</ele><time>2026-05-02T10:25:13.362Z</time></trkpt><trkpt lat="39.37605" lon="8.4921733"><ele>571.0</ele><time>2026-05-02T10:25:14.385Z</time></trkpt><trkpt lat="39.3760317" lon="8.49227"><ele>571.0</ele><time>2026-05-02T10:25:15.361Z</time></trkpt><trkpt lat="39.3760067" lon="8.49236"><ele>571.0</ele><time>2026-05-02T10:25:16.361Z</time></trkpt><trkpt lat="39.3759833" lon="8.4924433"><ele>568.2857142857143</ele><time>2026-05-02T10:25:17.371Z</time></trkpt><trkpt lat="39.3759633" lon="8.4925217"><ele>565.5714285714286</ele><time>2026-05-02T10:25:18.362Z</time></trkpt><trkpt lat="39.3759183" lon="8.4925833"><ele>562.8571428571429</ele><time>2026-05-02T10:25:19.363Z</time></trkpt><trkpt lat="39.3758583" lon="8.4926317"><ele>560.1428571428571</ele><time>2026-05-02T10:25:20.385Z</time></trkpt><trkpt lat="39.3757983" lon="8.49268"><ele>557.4285714285714</ele><time>2026-05-02T10:25:21.362Z</time></trkpt><trkpt lat="39.3757317" lon="8.4927317"><ele>554.7142857142858</ele><time>2026-05-02T10:25:22.362Z</time></trkpt><trkpt lat="39.3756667" lon="8.4927883"><ele>552.0</ele><time>2026-05-02T10:25:23.357Z</time></trkpt><trkpt lat="39.3756133" lon="8.4928533"><ele>552.0</ele><time>2026-05-02T10:25:24.36Z</time></trkpt><trkpt lat="39.3755333" lon="8.492965"><ele>552.0</ele><time>2026-05-02T10:25:26.397Z</time></trkpt><trkpt lat="39.37545" lon="8.4930867"><ele>552.0</ele><time>2026-05-02T10:25:28.363Z</time></trkpt><trkpt lat="39.3753983" lon="8.4931417"><ele>552.0</ele><time>2026-05-02T10:25:29.362Z</time></trkpt><trkpt lat="39.3753417" lon="8.4931883"><ele>552.0</ele><time>2026-05-02T10:25:30.363Z</time></trkpt><trkpt lat="39.3752817" lon="8.4932283"><ele>552.0</ele><time>2026-05-02T10:25:31.364Z</time></trkpt><trkpt lat="39.37522" lon="8.4932617"><ele>552.0</ele><time>2026-05-02T10:25:32.376Z</time></trkpt><trkpt lat="39.3751583" lon="8.4932917"><ele>552.0</ele><time>2026-05-02T10:25:33.368Z</time></trkpt><trkpt lat="39.3750967" lon="8.4933317"><ele>552.0</ele><time>2026-05-02T10:25:34.363Z</time></trkpt><trkpt lat="39.3750167" lon="8.4934233"><ele>552.0</ele><time>2026-05-02T10:25:36.362Z</time></trkpt><trkpt lat="39.37497" lon="8.4935417"><ele>552.0</ele><time>2026-05-02T10:25:38.385Z</time></trkpt><trkpt lat="39.3749067" lon="8.4936717"><ele>552.0</ele><time>2026-05-02T10:25:40.362Z</time></trkpt><trkpt lat="39.3748667" lon="8.4937417"><ele>552.0</ele><time>2026-05-02T10:25:41.362Z</time></trkpt><trkpt lat="39.3748333" lon="8.4938217"><ele>552.0</ele><time>2026-05-02T10:25:42.365Z</time></trkpt><trkpt lat="39.3748133" lon="8.4939183"><ele>552.0</ele><time>2026-05-02T10:25:43.359Z</time></trkpt><trkpt lat="39.3748" lon="8.49402"><ele>552.0</ele><time>2026-05-02T10:25:44.387Z</time></trkpt><trkpt lat="39.3748033" lon="8.49411"><ele>552.0</ele><time>2026-05-02T10:25:45.367Z</time></trkpt><trkpt lat="39.3748133" lon="8.4942"><ele>552.0</ele><time>2026-05-02T10:25:46.366Z</time></trkpt><trkpt lat="39.37482" lon="8.494295"><ele>553.5</ele><time>2026-05-02T10:25:47.364Z</time></trkpt><trkpt lat="39.3748167" lon="8.4943883"><ele>555.0</ele><time>2026-05-02T10:25:48.36Z</time></trkpt><trkpt lat="39.374805" lon="8.4944833"><ele>556.5</ele><time>2026-05-02T10:25:49.363Z</time></trkpt><trkpt lat="39.3747817" lon="8.4945767"><ele>558.0</ele><time>2026-05-02T10:25:50.387Z</time></trkpt><trkpt lat="39.3747533" lon="8.49467"><ele>559.5</ele><time>2026-05-02T10:25:51.365Z</time></trkpt><trkpt lat="39.3747217" lon="8.49475"><ele>561.0</ele><time>2026-05-02T10:25:52.361Z</time></trkpt><trkpt lat="39.3746567" lon="8.4948267"><ele>561.0</ele><time>2026-05-02T10:25:53.365Z</time></trkpt><trkpt lat="39.3746033" lon="8.4949033"><ele>561.0</ele><time>2026-05-02T10:25:54.366Z</time></trkpt><trkpt lat="39.3745383" lon="8.4949783"><ele>561.0</ele><time>2026-05-02T10:25:55.364Z</time></trkpt><trkpt lat="39.3744867" lon="8.4950483"><ele>561.0</ele><time>2026-05-02T10:25:56.399Z</time></trkpt><trkpt lat="39.3744383" lon="8.4951183"><ele>561.0</ele><time>2026-05-02T10:25:57.363Z</time></trkpt><trkpt lat="39.3743983" lon="8.4951983"><ele>561.0</ele><time>2026-05-02T10:25:58.363Z</time></trkpt><trkpt lat="39.3743633" lon="8.495285"><ele>561.0</ele><time>2026-05-02T10:25:59.362Z</time></trkpt><trkpt lat="39.3743317" lon="8.495365"><ele>561.0</ele><time>2026-05-02T10:26:00.364Z</time></trkpt><trkpt lat="39.3743067" lon="8.4954483"><ele>561.0</ele><time>2026-05-02T10:26:01.365Z</time></trkpt><trkpt lat="39.3742933" lon="8.4955283"><ele>561.0</ele><time>2026-05-02T10:26:02.404Z</time></trkpt><trkpt lat="39.3743017" lon="8.4956733"><ele>561.0</ele><time>2026-05-02T10:26:04.362Z</time></trkpt><trkpt lat="39.3742917" lon="8.495835"><ele>561.0</ele><time>2026-05-02T10:26:06.366Z</time></trkpt><trkpt lat="39.3742717" lon="8.4959233"><ele>559.3333333333334</ele><time>2026-05-02T10:26:07.362Z</time></trkpt><trkpt lat="39.3742417" lon="8.496025"><ele>557.6666666666666</ele><time>2026-05-02T10:26:08.385Z</time></trkpt><trkpt lat="39.3742133" lon="8.4961283"><ele>556.0</ele><time>2026-05-02T10:26:09.367Z</time></trkpt><trkpt lat="39.374185" lon="8.4962183"><ele>554.3333333333333</ele><time>2026-05-02T10:26:10.384Z</time></trkpt><trkpt lat="39.3741567" lon="8.49631"><ele>552.6666666666666</ele><time>2026-05-02T10:26:11.364Z</time></trkpt><trkpt lat="39.3741267" lon="8.4963967"><ele>551.0</ele><time>2026-05-02T10:26:12.365Z</time></trkpt><trkpt lat="39.3740967" lon="8.4964833"><ele>550.4285714285713</ele><time>2026-05-02T10:26:13.363Z</time></trkpt><trkpt lat="39.374065" lon="8.4965633"><ele>549.8571428571429</ele><time>2026-05-02T10:26:14.385Z</time></trkpt><trkpt lat="39.37403" lon="8.4966433"><ele>549.2857142857142</ele><time>2026-05-02T10:26:15.361Z</time></trkpt><trkpt lat="39.37399" lon="8.4967217"><ele>548.7142857142857</ele><time>2026-05-02T10:26:16.364Z</time></trkpt><trkpt lat="39.3739517" lon="8.4968033"><ele>548.1428571428571</ele><time>2026-05-02T10:26:17.362Z</time></trkpt><trkpt lat="39.373915" lon="8.496895"><ele>547.5714285714286</ele><time>2026-05-02T10:26:18.366Z</time></trkpt><trkpt lat="39.3738717" lon="8.49697"><ele>547.0</ele><time>2026-05-02T10:26:19.363Z</time></trkpt><trkpt lat="39.3738017" lon="8.497075"><ele>546.6</ele><time>2026-05-02T10:26:21.363Z</time></trkpt><trkpt lat="39.3737667" lon="8.4971533"><ele>546.2</ele><time>2026-05-02T10:26:24.363Z</time></trkpt><trkpt lat="39.3738233" lon="8.4972417"><ele>545.8</ele><time>2026-05-02T10:26:37.362Z</time></trkpt><trkpt lat="39.3739" lon="8.497305"><ele>545.4</ele><time>2026-05-02T10:26:39.363Z</time></trkpt><trkpt lat="39.3739983" lon="8.4973667"><ele>545.0</ele><time>2026-05-02T10:26:41.36Z</time></trkpt><trkpt lat="39.37411" lon="8.497405"><ele>547.3333333333333</ele><time>2026-05-02T10:26:43.363Z</time></trkpt><trkpt lat="39.3742283" lon="8.4974233"><ele>549.6666666666666</ele><time>2026-05-02T10:26:45.358Z</time></trkpt><trkpt lat="39.374295" lon="8.4974233"><ele>552.0</ele><time>2026-05-02T10:26:46.361Z</time></trkpt><trkpt lat="39.3743633" lon="8.4974233"><ele>554.3333333333334</ele><time>2026-05-02T10:26:47.358Z</time></trkpt><trkpt lat="39.3744283" lon="8.49742"><ele>556.6666666666667</ele><time>2026-05-02T10:26:48.357Z</time></trkpt><trkpt lat="39.3744983" lon="8.4974183"><ele>559.0</ele><time>2026-05-02T10:26:49.357Z</time></trkpt><trkpt lat="39.374565" lon="8.4974233"><ele>559.0</ele><time>2026-05-02T10:26:50.382Z</time></trkpt><trkpt lat="39.3746367" lon="8.4974267"><ele>559.0</ele><time>2026-05-02T10:26:51.362Z</time></trkpt><trkpt lat="39.3747117" lon="8.4974367"><ele>559.0</ele><time>2026-05-02T10:26:52.36Z</time></trkpt><trkpt lat="39.3747917" lon="8.4974467"><ele>559.0</ele><time>2026-05-02T10:26:53.358Z</time></trkpt><trkpt lat="39.37487" lon="8.4974517"><ele>559.0</ele><time>2026-05-02T10:26:54.361Z</time></trkpt><trkpt lat="39.3749433" lon="8.497465"><ele>559.0</ele><time>2026-05-02T10:26:55.363Z</time></trkpt><trkpt lat="39.3750133" lon="8.49747"><ele>558.6666666666667</ele><time>2026-05-02T10:26:56.37Z</time></trkpt><trkpt lat="39.3751567" lon="8.4974617"><ele>558.3333333333334</ele><time>2026-05-02T10:26:58.361Z</time></trkpt><trkpt lat="39.375225" lon="8.4974567"><ele>558.0</ele><time>2026-05-02T10:26:59.362Z</time></trkpt><trkpt lat="39.3752933" lon="8.4974517"><ele>557.6666666666666</ele><time>2026-05-02T10:27:00.363Z</time></trkpt><trkpt lat="39.37537" lon="8.497445"><ele>557.3333333333333</ele><time>2026-05-02T10:27:01.361Z</time></trkpt><trkpt lat="39.3754433" lon="8.4974333"><ele>557.0</ele><time>2026-05-02T10:27:02.399Z</time></trkpt><trkpt lat="39.375525" lon="8.4974117"><ele>558.0</ele><time>2026-05-02T10:27:03.363Z</time></trkpt><trkpt lat="39.3756017" lon="8.497385"><ele>559.0</ele><time>2026-05-02T10:27:04.363Z</time></trkpt><trkpt lat="39.375685" lon="8.497355"><ele>560.0</ele><time>2026-05-02T10:27:05.359Z</time></trkpt><trkpt lat="39.3757733" lon="8.4973217"><ele>561.0</ele><time>2026-05-02T10:27:06.364Z</time></trkpt><trkpt lat="39.375855" lon="8.497295"><ele>562.0</ele><time>2026-05-02T10:27:07.364Z</time></trkpt><trkpt lat="39.3759417" lon="8.4972683"><ele>563.0</ele><time>2026-05-02T10:27:08.386Z</time></trkpt><trkpt lat="39.376025" lon="8.4972383"><ele>563.0</ele><time>2026-05-02T10:27:09.363Z</time></trkpt><trkpt lat="39.3761133" lon="8.4972033"><ele>563.0</ele><time>2026-05-02T10:27:10.361Z</time></trkpt><trkpt lat="39.3762033" lon="8.4971683"><ele>563.0</ele><time>2026-05-02T10:27:11.362Z</time></trkpt><trkpt lat="39.37629" lon="8.4971283"><ele>563.0</ele><time>2026-05-02T10:27:12.36Z</time></trkpt><trkpt lat="39.3763733" lon="8.4970833"><ele>563.0</ele><time>2026-05-02T10:27:13.365Z</time></trkpt><trkpt lat="39.3764533" lon="8.4970433"><ele>559.8333333333333</ele><time>2026-05-02T10:27:14.388Z</time></trkpt><trkpt lat="39.3765333" lon="8.4969967"><ele>556.6666666666666</ele><time>2026-05-02T10:27:15.363Z</time></trkpt><trkpt lat="39.3766133" lon="8.49697"><ele>553.5</ele><time>2026-05-02T10:27:16.363Z</time></trkpt><trkpt lat="39.376685" lon="8.496955"><ele>550.3333333333334</ele><time>2026-05-02T10:27:17.359Z</time></trkpt><trkpt lat="39.3767533" lon="8.496945"><ele>547.1666666666667</ele><time>2026-05-02T10:27:18.361Z</time></trkpt><trkpt lat="39.3768217" lon="8.49694"><ele>544.0</ele><time>2026-05-02T10:27:19.361Z</time></trkpt><trkpt lat="39.37693" lon="8.496925"><ele>544.0</ele><time>2026-05-02T10:27:21.364Z</time></trkpt><trkpt lat="39.377" lon="8.49691"><ele>544.0</ele><time>2026-05-02T10:27:23.364Z</time></trkpt><trkpt lat="39.3770767" lon="8.4969433"><ele>544.0</ele><time>2026-05-02T10:27:26.419Z</time></trkpt><trkpt lat="39.3770983" lon="8.49707"><ele>544.0</ele><time>2026-05-02T10:27:29.36Z</time></trkpt><trkpt lat="39.377065" lon="8.4972"><ele>544.0</ele><time>2026-05-02T10:27:31.358Z</time></trkpt><trkpt lat="39.377035" lon="8.497275"><ele>544.0</ele><time>2026-05-02T10:27:32.393Z</time></trkpt><trkpt lat="39.3769933" lon="8.4973733"><ele>545.8</ele><time>2026-05-02T10:27:33.361Z</time></trkpt><trkpt lat="39.3769433" lon="8.49748"><ele>547.5999999999999</ele><time>2026-05-02T10:27:34.361Z</time></trkpt><trkpt lat="39.3769" lon="8.497595"><ele>549.4</ele><time>2026-05-02T10:27:35.361Z</time></trkpt><trkpt lat="39.3768467" lon="8.4977183"><ele>551.1999999999999</ele><time>2026-05-02T10:27:36.358Z</time></trkpt><trkpt lat="39.3767917" lon="8.4978467"><ele>553.0</ele><time>2026-05-02T10:27:37.361Z</time></trkpt><trkpt lat="39.3767467" lon="8.49796"><ele>553.0</ele><time>2026-05-02T10:27:38.387Z</time></trkpt><trkpt lat="39.3767067" lon="8.498065"><ele>553.0</ele><time>2026-05-02T10:27:39.359Z</time></trkpt><trkpt lat="39.3766667" lon="8.4981717"><ele>553.0</ele><time>2026-05-02T10:27:40.36Z</time></trkpt><trkpt lat="39.37663" lon="8.49828"><ele>553.0</ele><time>2026-05-02T10:27:41.359Z</time></trkpt><trkpt lat="39.3765983" lon="8.4983867"><ele>553.0</ele><time>2026-05-02T10:27:42.361Z</time></trkpt><trkpt lat="39.3765717" lon="8.4984983"><ele>553.0</ele><time>2026-05-02T10:27:43.361Z</time></trkpt><trkpt lat="39.37655" lon="8.4986"><ele>553.0</ele><time>2026-05-02T10:27:44.386Z</time></trkpt><trkpt lat="39.376525" lon="8.498695"><ele>553.0</ele><time>2026-05-02T10:27:45.36Z</time></trkpt><trkpt lat="39.3765017" lon="8.4987817"><ele>553.0</ele><time>2026-05-02T10:27:46.359Z</time></trkpt><trkpt lat="39.376465" lon="8.49887"><ele>553.0</ele><time>2026-05-02T10:27:47.361Z</time></trkpt><trkpt lat="39.3764233" lon="8.4989533"><ele>553.0</ele><time>2026-05-02T10:27:48.362Z</time></trkpt><trkpt lat="39.3763783" lon="8.4990283"><ele>555.5714285714286</ele><time>2026-05-02T10:27:49.361Z</time></trkpt><trkpt lat="39.37633" lon="8.4990933"><ele>558.1428571428571</ele><time>2026-05-02T10:27:50.386Z</time></trkpt><trkpt lat="39.376275" lon="8.4991517"><ele>560.7142857142858</ele><time>2026-05-02T10:27:51.361Z</time></trkpt><trkpt lat="39.3762167" lon="8.4991983"><ele>563.2857142857142</ele><time>2026-05-02T10:27:52.357Z</time></trkpt><trkpt lat="39.3761517" lon="8.4992383"><ele>565.8571428571429</ele><time>2026-05-02T10:27:53.362Z</time></trkpt><trkpt lat="39.3760783" lon="8.4992783"><ele>568.4285714285714</ele><time>2026-05-02T10:27:54.361Z</time></trkpt><trkpt lat="39.376" lon="8.49931"><ele>571.0</ele><time>2026-05-02T10:27:55.364Z</time></trkpt><trkpt lat="39.37593" lon="8.4993433"><ele>571.0</ele><time>2026-05-02T10:27:56.423Z</time></trkpt><trkpt lat="39.3758567" lon="8.4993717"><ele>571.0</ele><time>2026-05-02T10:27:57.361Z</time></trkpt><trkpt lat="39.37578" lon="8.4994017"><ele>571.0</ele><time>2026-05-02T10:27:58.362Z</time></trkpt><trkpt lat="39.37571" lon="8.49942"><ele>571.0</ele><time>2026-05-02T10:27:59.361Z</time></trkpt><trkpt lat="39.3756433" lon="8.4994333"><ele>571.0</ele><time>2026-05-02T10:28:00.36Z</time></trkpt><trkpt lat="39.3755783" lon="8.4994533"><ele>571.0</ele><time>2026-05-02T10:28:01.361Z</time></trkpt><trkpt lat="39.37548" lon="8.4995183"><ele>571.0</ele><time>2026-05-02T10:28:03.361Z</time></trkpt><trkpt lat="39.3753967" lon="8.4996267"><ele>571.0</ele><time>2026-05-02T10:28:05.363Z</time></trkpt><trkpt lat="39.3753467" lon="8.499685"><ele>571.0</ele><time>2026-05-02T10:28:06.359Z</time></trkpt><trkpt lat="39.3752883" lon="8.4997417"><ele>571.0</ele><time>2026-05-02T10:28:07.363Z</time></trkpt><trkpt lat="39.375225" lon="8.4997933"><ele>571.0</ele><time>2026-05-02T10:28:08.384Z</time></trkpt><trkpt lat="39.37517" lon="8.499845"><ele>571.0</ele><time>2026-05-02T10:28:09.362Z</time></trkpt><trkpt lat="39.3750983" lon="8.4999567"><ele>571.0</ele><time>2026-05-02T10:28:11.363Z</time></trkpt><trkpt lat="39.3750533" lon="8.50008"><ele>571.0</ele><time>2026-05-02T10:28:13.366Z</time></trkpt><trkpt lat="39.37506" lon="8.50023"><ele>571.0</ele><time>2026-05-02T10:28:15.361Z</time></trkpt><trkpt lat="39.375095" lon="8.50035"><ele>571.0</ele><time>2026-05-02T10:28:17.361Z</time></trkpt><trkpt lat="39.375175" lon="8.50045"><ele>571.0</ele><time>2026-05-02T10:28:19.362Z</time></trkpt><trkpt lat="39.3752267" lon="8.5005033"><ele>571.8</ele><time>2026-05-02T10:28:20.386Z</time></trkpt><trkpt lat="39.3752817" lon="8.5005517"><ele>572.6</ele><time>2026-05-02T10:28:21.364Z</time></trkpt><trkpt lat="39.3753683" lon="8.5006417"><ele>573.4</ele><time>2026-05-02T10:28:23.365Z</time></trkpt><trkpt lat="39.3754083" lon="8.5007883"><ele>574.2</ele><time>2026-05-02T10:28:25.356Z</time></trkpt><trkpt lat="39.3754083" lon="8.500895"><ele>575.0</ele><time>2026-05-02T10:28:26.385Z</time></trkpt><trkpt lat="39.3754083" lon="8.5009917"><ele>575.0</ele><time>2026-05-02T10:28:27.358Z</time></trkpt><trkpt lat="39.3754233" lon="8.5010717"><ele>575.0</ele><time>2026-05-02T10:28:28.362Z</time></trkpt><trkpt lat="39.3754683" lon="8.5011783"><ele>575.0</ele><time>2026-05-02T10:28:30.359Z</time></trkpt><trkpt lat="39.3755383" lon="8.5012567"><ele>575.0</ele><time>2026-05-02T10:28:32.397Z</time></trkpt><trkpt lat="39.3756367" lon="8.5013133"><ele>575.0</ele><time>2026-05-02T10:28:34.361Z</time></trkpt><trkpt lat="39.3757617" lon="8.5013667"><ele>574.3333333333333</ele><time>2026-05-02T10:28:36.359Z</time></trkpt><trkpt lat="39.375835" lon="8.5014033"><ele>573.6666666666666</ele><time>2026-05-02T10:28:37.359Z</time></trkpt><trkpt lat="39.37591" lon="8.5014417"><ele>573.0</ele><time>2026-05-02T10:28:38.384Z</time></trkpt><trkpt lat="39.3759817" lon="8.5014867"><ele>572.3333333333334</ele><time>2026-05-02T10:28:39.361Z</time></trkpt><trkpt lat="39.37605" lon="8.5015383"><ele>571.6666666666667</ele><time>2026-05-02T10:28:40.362Z</time></trkpt><trkpt lat="39.3761183" lon="8.5015883"><ele>571.0</ele><time>2026-05-02T10:28:41.362Z</time></trkpt><trkpt lat="39.37618" lon="8.5016367"><ele>571.0</ele><time>2026-05-02T10:28:42.362Z</time></trkpt><trkpt lat="39.376235" lon="8.50168"><ele>571.0</ele><time>2026-05-02T10:28:43.362Z</time></trkpt><trkpt lat="39.3762917" lon="8.5017167"><ele>571.0</ele><time>2026-05-02T10:28:44.384Z</time></trkpt><trkpt lat="39.3764" lon="8.5017683"><ele>571.0</ele><time>2026-05-02T10:28:46.36Z</time></trkpt><trkpt lat="39.376495" lon="8.501795"><ele>571.0</ele><time>2026-05-02T10:28:48.364Z</time></trkpt><trkpt lat="39.3765933" lon="8.5017667"><ele>571.0</ele><time>2026-05-02T10:28:50.387Z</time></trkpt><trkpt lat="39.3766917" lon="8.501685"><ele>570.4</ele><time>2026-05-02T10:28:52.36Z</time></trkpt><trkpt lat="39.3767367" lon="8.5016267"><ele>569.8</ele><time>2026-05-02T10:28:53.36Z</time></trkpt><trkpt lat="39.376835" lon="8.5015383"><ele>569.1999999999999</ele><time>2026-05-02T10:28:55.361Z</time></trkpt><trkpt lat="39.37696" lon="8.5014983"><ele>568.6</ele><time>2026-05-02T10:28:57.359Z</time></trkpt><trkpt lat="39.37703" lon="8.5014817"><ele>568.0</ele><time>2026-05-02T10:28:58.36Z</time></trkpt><trkpt lat="39.3771" lon="8.50147"><ele>568.0</ele><time>2026-05-02T10:28:59.362Z</time></trkpt><trkpt lat="39.377175" lon="8.50147"><ele>568.0</ele><time>2026-05-02T10:29:00.363Z</time></trkpt><trkpt lat="39.3772533" lon="8.5014817"><ele>568.0</ele><time>2026-05-02T10:29:01.36Z</time></trkpt><trkpt lat="39.37733" lon="8.501505"><ele>568.0</ele><time>2026-05-02T10:29:02.397Z</time></trkpt><trkpt lat="39.3774067" lon="8.5015417"><ele>568.0</ele><time>2026-05-02T10:29:03.36Z</time></trkpt><trkpt lat="39.3774867" lon="8.5015867"><ele>568.0</ele><time>2026-05-02T10:29:04.362Z</time></trkpt><trkpt lat="39.377565" lon="8.50164"><ele>567.4</ele><time>2026-05-02T10:29:05.361Z</time></trkpt><trkpt lat="39.3776417" lon="8.5017017"><ele>566.8</ele><time>2026-05-02T10:29:06.361Z</time></trkpt><trkpt lat="39.3777167" lon="8.5017717"><ele>566.2</ele><time>2026-05-02T10:29:07.361Z</time></trkpt><trkpt lat="39.377795" lon="8.5018483"><ele>565.6</ele><time>2026-05-02T10:29:08.381Z</time></trkpt><trkpt lat="39.3778633" lon="8.501925"><ele>565.0</ele><time>2026-05-02T10:29:09.359Z</time></trkpt><trkpt lat="39.37793" lon="8.5019967"><ele>565.0</ele><time>2026-05-02T10:29:10.359Z</time></trkpt><trkpt lat="39.37799" lon="8.5020583"><ele>565.0</ele><time>2026-05-02T10:29:11.358Z</time></trkpt><trkpt lat="39.3780483" lon="8.5021183"><ele>565.0</ele><time>2026-05-02T10:29:12.361Z</time></trkpt><trkpt lat="39.3781033" lon="8.5021783"><ele>565.0</ele><time>2026-05-02T10:29:13.362Z</time></trkpt><trkpt lat="39.378165" lon="8.50223"><ele>565.0</ele><time>2026-05-02T10:29:14.382Z</time></trkpt><trkpt lat="39.3782233" lon="8.5022717"><ele>565.0</ele><time>2026-05-02T10:29:15.362Z</time></trkpt><trkpt lat="39.3783183" lon="8.5023233"><ele>566.0</ele><time>2026-05-02T10:29:17.359Z</time></trkpt><trkpt lat="39.37841" lon="8.5023833"><ele>567.0</ele><time>2026-05-02T10:29:19.359Z</time></trkpt><trkpt lat="39.3785083" lon="8.50247"><ele>568.0</ele><time>2026-05-02T10:29:21.361Z</time></trkpt><trkpt lat="39.3785633" lon="8.5025167"><ele>569.0</ele><time>2026-05-02T10:29:22.36Z</time></trkpt><trkpt lat="39.37866" lon="8.5025967"><ele>570.0</ele><time>2026-05-02T10:29:24.36Z</time></trkpt><trkpt lat="39.37873" lon="8.5026683"><ele>570.0</ele><time>2026-05-02T10:29:26.418Z</time></trkpt><trkpt lat="39.3787283" lon="8.502765"><ele>570.0</ele><time>2026-05-02T10:29:29.361Z</time></trkpt><trkpt lat="39.3786433" lon="8.50281"><ele>570.0</ele><time>2026-05-02T10:29:31.36Z</time></trkpt><trkpt lat="39.3785233" lon="8.5028433"><ele>570.0</ele><time>2026-05-02T10:29:33.36Z</time></trkpt><trkpt lat="39.37846" lon="8.5028633"><ele>570.0</ele><time>2026-05-02T10:29:34.359Z</time></trkpt><trkpt lat="39.3783983" lon="8.5028883"><ele>570.0</ele><time>2026-05-02T10:29:35.362Z</time></trkpt><trkpt lat="39.3783383" lon="8.5029217"><ele>571.0</ele><time>2026-05-02T10:29:36.36Z</time></trkpt><trkpt lat="39.3782783" lon="8.5029617"><ele>572.0</ele><time>2026-05-02T10:29:37.359Z</time></trkpt><trkpt lat="39.3782233" lon="8.5030083"><ele>573.0</ele><time>2026-05-02T10:29:38.383Z</time></trkpt><trkpt lat="39.3781283" lon="8.5031033"><ele>574.0</ele><time>2026-05-02T10:29:40.361Z</time></trkpt><trkpt lat="39.3780367" lon="8.5031833"><ele>575.0</ele><time>2026-05-02T10:29:42.359Z</time></trkpt><trkpt lat="39.3779317" lon="8.5032233"><ele>575.0</ele><time>2026-05-02T10:29:44.384Z</time></trkpt><trkpt lat="39.3778017" lon="8.5032517"><ele>575.0</ele><time>2026-05-02T10:29:46.359Z</time></trkpt><trkpt lat="39.3777283" lon="8.5032717"><ele>575.0</ele><time>2026-05-02T10:29:47.361Z</time></trkpt><trkpt lat="39.37766" lon="8.50329"><ele>575.0</ele><time>2026-05-02T10:29:48.36Z</time></trkpt><trkpt lat="39.3775867" lon="8.5033017"><ele>575.0</ele><time>2026-05-02T10:29:49.359Z</time></trkpt><trkpt lat="39.3775117" lon="8.5033083"><ele>575.0</ele><time>2026-05-02T10:29:50.384Z</time></trkpt><trkpt lat="39.3774367" lon="8.5033083"><ele>575.0</ele><time>2026-05-02T10:29:51.361Z</time></trkpt><trkpt lat="39.377365" lon="8.5033017"><ele>575.0</ele><time>2026-05-02T10:29:52.36Z</time></trkpt><trkpt lat="39.37729" lon="8.50329"><ele>575.0</ele><time>2026-05-02T10:29:53.362Z</time></trkpt><trkpt lat="39.3772133" lon="8.5032767"><ele>575.0</ele><time>2026-05-02T10:29:54.36Z</time></trkpt><trkpt lat="39.377145" lon="8.5032483"><ele>575.0</ele><time>2026-05-02T10:29:55.357Z</time></trkpt><trkpt lat="39.3770767" lon="8.5032183"><ele>575.0</ele><time>2026-05-02T10:29:56.423Z</time></trkpt><trkpt lat="39.3770117" lon="8.5032033"><ele>575.0</ele><time>2026-05-02T10:29:57.361Z</time></trkpt><trkpt lat="39.3768917" lon="8.5032167"><ele>576.6666666666666</ele><time>2026-05-02T10:29:59.357Z</time></trkpt><trkpt lat="39.3767783" lon="8.5032583"><ele>578.3333333333333</ele><time>2026-05-02T10:30:01.359Z</time></trkpt><trkpt lat="39.3766617" lon="8.5033183"><ele>580.0</ele><time>2026-05-02T10:30:03.359Z</time></trkpt><trkpt lat="39.3766033" lon="8.5033667"><ele>581.6666666666666</ele><time>2026-05-02T10:30:04.359Z</time></trkpt><trkpt lat="39.3765567" lon="8.5034217"><ele>583.3333333333334</ele><time>2026-05-02T10:30:05.36Z</time></trkpt><trkpt lat="39.3765083" lon="8.50348"><ele>585.0</ele><time>2026-05-02T10:30:06.358Z</time></trkpt><trkpt lat="39.3764567" lon="8.5035417"><ele>585.0</ele><time>2026-05-02T10:30:07.359Z</time></trkpt><trkpt lat="39.3764033" lon="8.5035967"><ele>585.0</ele><time>2026-05-02T10:30:08.382Z</time></trkpt><trkpt lat="39.37635" lon="8.5036583"><ele>585.0</ele><time>2026-05-02T10:30:09.361Z</time></trkpt><trkpt lat="39.3762933" lon="8.5037217"><ele>585.0</ele><time>2026-05-02T10:30:10.361Z</time></trkpt><trkpt lat="39.376235" lon="8.5037883"><ele>585.0</ele><time>2026-05-02T10:30:11.357Z</time></trkpt><trkpt lat="39.376175" lon="8.5038567"><ele>585.0</ele><time>2026-05-02T10:30:12.359Z</time></trkpt><trkpt lat="39.3761183" lon="8.503925"><ele>586.1666666666666</ele><time>2026-05-02T10:30:13.358Z</time></trkpt><trkpt lat="39.3760483" lon="8.5039933"><ele>587.3333333333334</ele><time>2026-05-02T10:30:14.382Z</time></trkpt><trkpt lat="39.3759883" lon="8.5040683"><ele>588.5</ele><time>2026-05-02T10:30:15.36Z</time></trkpt><trkpt lat="39.3759317" lon="8.5041483"><ele>589.6666666666667</ele><time>2026-05-02T10:30:16.358Z</time></trkpt><trkpt lat="39.3758867" lon="8.5042267"><ele>590.8333333333334</ele><time>2026-05-02T10:30:17.361Z</time></trkpt><trkpt lat="39.3758467" lon="8.5043083"><ele>592.0</ele><time>2026-05-02T10:30:18.357Z</time></trkpt><trkpt lat="39.3758183" lon="8.504385"><ele>592.0</ele><time>2026-05-02T10:30:19.359Z</time></trkpt><trkpt lat="39.3757983" lon="8.5044683"><ele>592.0</ele><time>2026-05-02T10:30:20.384Z</time></trkpt><trkpt lat="39.3757917" lon="8.50455"><ele>592.0</ele><time>2026-05-02T10:30:21.362Z</time></trkpt><trkpt lat="39.375805" lon="8.50469"><ele>592.0</ele><time>2026-05-02T10:30:23.36Z</time></trkpt><trkpt lat="39.375865" lon="8.5048033"><ele>592.0</ele><time>2026-05-02T10:30:25.361Z</time></trkpt><trkpt lat="39.3759183" lon="8.5048533"><ele>592.0</ele><time>2026-05-02T10:30:26.421Z</time></trkpt><trkpt lat="39.37598" lon="8.5049033"><ele>591.6666666666667</ele><time>2026-05-02T10:30:27.361Z</time></trkpt><trkpt lat="39.3760367" lon="8.5049733"><ele>591.3333333333334</ele><time>2026-05-02T10:30:28.361Z</time></trkpt><trkpt lat="39.376095" lon="8.505025"><ele>591.0</ele><time>2026-05-02T10:30:29.359Z</time></trkpt><trkpt lat="39.3761483" lon="8.5050717"><ele>590.6666666666666</ele><time>2026-05-02T10:30:30.361Z</time></trkpt><trkpt lat="39.3762167" lon="8.5051867"><ele>590.3333333333333</ele><time>2026-05-02T10:30:32.396Z</time></trkpt><trkpt lat="39.3762317" lon="8.50531"><ele>590.0</ele><time>2026-05-02T10:30:34.36Z</time></trkpt><trkpt lat="39.3762033" lon="8.5054533"><ele>590.0</ele><time>2026-05-02T10:30:36.359Z</time></trkpt><trkpt lat="39.376155" lon="8.50563"><ele>590.0</ele><time>2026-05-02T10:30:38.385Z</time></trkpt><trkpt lat="39.376115" lon="8.5057317"><ele>590.0</ele><time>2026-05-02T10:30:39.362Z</time></trkpt><trkpt lat="39.3760733" lon="8.5058183"><ele>590.0</ele><time>2026-05-02T10:30:40.358Z</time></trkpt><trkpt lat="39.3760317" lon="8.5058967"><ele>590.0</ele><time>2026-05-02T10:30:41.363Z</time></trkpt><trkpt lat="39.3759833" lon="8.5059833"><ele>590.0000000000001</ele><time>2026-05-02T10:30:42.362Z</time></trkpt><trkpt lat="39.3759383" lon="8.5060617"><ele>590.0</ele><time>2026-05-02T10:30:43.36Z</time></trkpt><trkpt lat="39.375895" lon="8.50614"><ele>590.0</ele><time>2026-05-02T10:30:44.383Z</time></trkpt><trkpt lat="39.3758567" lon="8.506215"><ele>590.0</ele><time>2026-05-02T10:30:45.36Z</time></trkpt><trkpt lat="39.3758233" lon="8.50629"><ele>590.0</ele><time>2026-05-02T10:30:46.359Z</time></trkpt><trkpt lat="39.37579" lon="8.5063667"><ele>590.0000000000001</ele><time>2026-05-02T10:30:47.362Z</time></trkpt><trkpt lat="39.3757633" lon="8.506445"><ele>590.0</ele><time>2026-05-02T10:30:48.359Z</time></trkpt><trkpt lat="39.375735" lon="8.50653"><ele>587.6666666666666</ele><time>2026-05-02T10:30:49.36Z</time></trkpt><trkpt lat="39.3757067" lon="8.5066167"><ele>585.3333333333333</ele><time>2026-05-02T10:30:50.384Z</time></trkpt><trkpt lat="39.3756783" lon="8.5067167"><ele>583.0</ele><time>2026-05-02T10:30:51.356Z</time></trkpt><trkpt lat="39.3756517" lon="8.5068133"><ele>580.6666666666666</ele><time>2026-05-02T10:30:52.361Z</time></trkpt><trkpt lat="39.3756367" lon="8.5069183"><ele>578.3333333333334</ele><time>2026-05-02T10:30:53.359Z</time></trkpt><trkpt lat="39.37562" lon="8.5070167"><ele>576.0</ele><time>2026-05-02T10:30:54.361Z</time></trkpt><trkpt lat="39.3756067" lon="8.5071067"><ele>576.4</ele><time>2026-05-02T10:30:55.358Z</time></trkpt><trkpt lat="39.37559" lon="8.5071917"><ele>576.8</ele><time>2026-05-02T10:30:56.374Z</time></trkpt><trkpt lat="39.375545" lon="8.5073317"><ele>577.1999999999999</ele><time>2026-05-02T10:30:58.366Z</time></trkpt><trkpt lat="39.375465" lon="8.5073967"><ele>577.6</ele><time>2026-05-02T10:31:00.358Z</time></trkpt><trkpt lat="39.3753633" lon="8.50739"><ele>578.0</ele><time>2026-05-02T10:31:02.397Z</time></trkpt><trkpt lat="39.3752633" lon="8.5073367"><ele>578.0</ele><time>2026-05-02T10:31:04.359Z</time></trkpt><trkpt lat="39.375165" lon="8.507225"><ele>578.0</ele><time>2026-05-02T10:31:06.361Z</time></trkpt><trkpt lat="39.3751167" lon="8.507165"><ele>578.0</ele><time>2026-05-02T10:31:07.359Z</time></trkpt><trkpt lat="39.37503" lon="8.5070667"><ele>578.0</ele><time>2026-05-02T10:31:09.358Z</time></trkpt><trkpt lat="39.3749383" lon="8.5070367"><ele>578.0</ele><time>2026-05-02T10:31:11.359Z</time></trkpt><trkpt lat="39.37485" lon="8.5070633"><ele>578.0</ele><time>2026-05-02T10:31:13.363Z</time></trkpt><trkpt lat="39.37476" lon="8.507115"><ele>578.0</ele><time>2026-05-02T10:31:15.355Z</time></trkpt><trkpt lat="39.3746433" lon="8.5071817"><ele>578.0</ele><time>2026-05-02T10:31:17.362Z</time></trkpt><trkpt lat="39.3745767" lon="8.5072167"><ele>578.0</ele><time>2026-05-02T10:31:18.365Z</time></trkpt><trkpt lat="39.3745133" lon="8.5072483"><ele>578.0</ele><time>2026-05-02T10:31:19.358Z</time></trkpt><trkpt lat="39.3744567" lon="8.507285"><ele>578.0</ele><time>2026-05-02T10:31:20.386Z</time></trkpt><trkpt lat="39.37437" lon="8.5073683"><ele>580.1666666666666</ele><time>2026-05-02T10:31:22.36Z</time></trkpt><trkpt lat="39.37434" lon="8.5074733"><ele>582.3333333333333</ele><time>2026-05-02T10:31:24.36Z</time></trkpt><trkpt lat="39.3743683" lon="8.5076117"><ele>584.5</ele><time>2026-05-02T10:31:26.42Z</time></trkpt><trkpt lat="39.374395" lon="8.5076967"><ele>586.6666666666666</ele><time>2026-05-02T10:31:27.357Z</time></trkpt><trkpt lat="39.374425" lon="8.50779"><ele>588.8333333333334</ele><time>2026-05-02T10:31:28.358Z</time></trkpt><trkpt lat="39.3744467" lon="8.5078883"><ele>591.0</ele><time>2026-05-02T10:31:29.357Z</time></trkpt><trkpt lat="39.3744567" lon="8.507985"><ele>591.0</ele><time>2026-05-02T10:31:30.362Z</time></trkpt><trkpt lat="39.3744517" lon="8.5081017"><ele>591.0</ele><time>2026-05-02T10:31:31.361Z</time></trkpt><trkpt lat="39.3744417" lon="8.508215"><ele>591.0</ele><time>2026-05-02T10:31:32.394Z</time></trkpt><trkpt lat="39.3744333" lon="8.5083217"><ele>591.0</ele><time>2026-05-02T10:31:33.361Z</time></trkpt><trkpt lat="39.374425" lon="8.5084267"><ele>591.0</ele><time>2026-05-02T10:31:34.355Z</time></trkpt><trkpt lat="39.37441" lon="8.5085317"><ele>591.0</ele><time>2026-05-02T10:31:35.36Z</time></trkpt><trkpt lat="39.3743917" lon="8.5086367"><ele>590.0</ele><time>2026-05-02T10:31:36.359Z</time></trkpt><trkpt lat="39.37437" lon="8.508745"><ele>589.0</ele><time>2026-05-02T10:31:37.363Z</time></trkpt><trkpt lat="39.374345" lon="8.5088533"><ele>588.0</ele><time>2026-05-02T10:31:38.382Z</time></trkpt><trkpt lat="39.3743183" lon="8.5089583"><ele>587.0</ele><time>2026-05-02T10:31:39.363Z</time></trkpt><trkpt lat="39.3742883" lon="8.50905"><ele>586.0</ele><time>2026-05-02T10:31:40.363Z</time></trkpt><trkpt lat="39.37426" lon="8.509145"><ele>585.0</ele><time>2026-05-02T10:31:41.359Z</time></trkpt><trkpt lat="39.3742367" lon="8.5092383"><ele>585.0</ele><time>2026-05-02T10:31:42.362Z</time></trkpt><trkpt lat="39.3742167" lon="8.5093433"><ele>585.0</ele><time>2026-05-02T10:31:43.359Z</time></trkpt><trkpt lat="39.3741967" lon="8.5094517"><ele>585.0</ele><time>2026-05-02T10:31:44.386Z</time></trkpt><trkpt lat="39.3741767" lon="8.5095483"><ele>585.0</ele><time>2026-05-02T10:31:45.358Z</time></trkpt><trkpt lat="39.374155" lon="8.509645"><ele>585.0</ele><time>2026-05-02T10:31:46.359Z</time></trkpt><trkpt lat="39.37413" lon="8.5097383"><ele>585.0</ele><time>2026-05-02T10:31:47.36Z</time></trkpt><trkpt lat="39.374105" lon="8.5098333"><ele>583.8</ele><time>2026-05-02T10:31:48.359Z</time></trkpt><trkpt lat="39.3740767" lon="8.5099233"><ele>582.6</ele><time>2026-05-02T10:31:49.358Z</time></trkpt><trkpt lat="39.3740517" lon="8.5100117"><ele>581.4</ele><time>2026-05-02T10:31:50.383Z</time></trkpt><trkpt lat="39.3740433" lon="8.510165"><ele>580.2</ele><time>2026-05-02T10:31:52.359Z</time></trkpt><trkpt lat="39.3740567" lon="8.5102967"><ele>579.0</ele><time>2026-05-02T10:31:54.36Z</time></trkpt><trkpt lat="39.3740883" lon="8.510425"><ele>579.0</ele><time>2026-05-02T10:31:56.416Z</time></trkpt><trkpt lat="39.3741083" lon="8.5105633"><ele>579.0</ele><time>2026-05-02T10:31:58.359Z</time></trkpt><trkpt lat="39.3740817" lon="8.5107017"><ele>579.0</ele><time>2026-05-02T10:32:00.36Z</time></trkpt><trkpt lat="39.3740333" lon="8.5108467"><ele>579.0</ele><time>2026-05-02T10:32:02.395Z</time></trkpt><trkpt lat="39.3740133" lon="8.5109817"><ele>579.0</ele><time>2026-05-02T10:32:04.363Z</time></trkpt><trkpt lat="39.3740367" lon="8.5110717"><ele>579.0</ele><time>2026-05-02T10:32:06.36Z</time></trkpt><trkpt lat="39.3741183" lon="8.5111183"><ele>579.0</ele><time>2026-05-02T10:32:08.385Z</time></trkpt><trkpt lat="39.374235" lon="8.5111833"><ele>579.0</ele><time>2026-05-02T10:32:10.36Z</time></trkpt><trkpt lat="39.3742933" lon="8.511215"><ele>579.0</ele><time>2026-05-02T10:32:11.36Z</time></trkpt><trkpt lat="39.374355" lon="8.5112417"><ele>579.0</ele><time>2026-05-02T10:32:12.359Z</time></trkpt><trkpt lat="39.3744217" lon="8.511265"><ele>579.0</ele><time>2026-05-02T10:32:13.358Z</time></trkpt><trkpt lat="39.3744883" lon="8.5112867"><ele>583.75</ele><time>2026-05-02T10:32:14.38Z</time></trkpt><trkpt lat="39.3746083" lon="8.5113267"><ele>588.5</ele><time>2026-05-02T10:32:16.363Z</time></trkpt><trkpt lat="39.3747133" lon="8.5113433"><ele>593.25</ele><time>2026-05-02T10:32:18.361Z</time></trkpt><trkpt lat="39.3748183" lon="8.5113383"><ele>598.0</ele><time>2026-05-02T10:32:20.383Z</time></trkpt><trkpt lat="39.3749267" lon="8.511275"><ele>593.8333333333334</ele><time>2026-05-02T10:32:22.358Z</time></trkpt><trkpt lat="39.3750233" lon="8.5111683"><ele>589.6666666666667</ele><time>2026-05-02T10:32:24.361Z</time></trkpt><trkpt lat="39.3750683" lon="8.5111083"><ele>585.5</ele><time>2026-05-02T10:32:25.362Z</time></trkpt><trkpt lat="39.3751217" lon="8.511045"><ele>581.3333333333334</ele><time>2026-05-02T10:32:26.42Z</time></trkpt><trkpt lat="39.3751733" lon="8.5109917"><ele>577.1666666666666</ele><time>2026-05-02T10:32:27.358Z</time></trkpt><trkpt lat="39.3752333" lon="8.510945"><ele>573.0</ele><time>2026-05-02T10:32:28.363Z</time></trkpt><trkpt lat="39.3752967" lon="8.510905"><ele>573.0</ele><time>2026-05-02T10:32:29.363Z</time></trkpt><trkpt lat="39.375365" lon="8.5108667"><ele>573.0</ele><time>2026-05-02T10:32:30.365Z</time></trkpt><trkpt lat="39.3754383" lon="8.5108283"><ele>573.0</ele><time>2026-05-02T10:32:31.36Z</time></trkpt><trkpt lat="39.3755083" lon="8.5107967"><ele>573.0</ele><time>2026-05-02T10:32:32.397Z</time></trkpt><trkpt lat="39.3755783" lon="8.5107667"><ele>573.0</ele><time>2026-05-02T10:32:33.359Z</time></trkpt><trkpt lat="39.3756417" lon="8.510745"><ele>573.0</ele><time>2026-05-02T10:32:34.363Z</time></trkpt><trkpt lat="39.3757033" lon="8.5107233"><ele>573.0</ele><time>2026-05-02T10:32:35.356Z</time></trkpt><trkpt lat="39.3758167" lon="8.51069"><ele>574.0</ele><time>2026-05-02T10:32:37.36Z</time></trkpt><trkpt lat="39.375935" lon="8.51069"><ele>575.0</ele><time>2026-05-02T10:32:39.357Z</time></trkpt><trkpt lat="39.376045" lon="8.5107183"><ele>576.0</ele><time>2026-05-02T10:32:41.356Z</time></trkpt><trkpt lat="39.3761517" lon="8.5107767"><ele>577.0</ele><time>2026-05-02T10:32:43.357Z</time></trkpt><trkpt lat="39.3762433" lon="8.5108667"><ele>577.0</ele><time>2026-05-02T10:32:45.356Z</time></trkpt><trkpt lat="39.376305" lon="8.5109917"><ele>577.0</ele><time>2026-05-02T10:32:47.36Z</time></trkpt><trkpt lat="39.3763233" lon="8.5110733"><ele>577.0</ele><time>2026-05-02T10:32:48.357Z</time></trkpt><trkpt lat="39.3763383" lon="8.511155"><ele>577.0</ele><time>2026-05-02T10:32:49.359Z</time></trkpt><trkpt lat="39.37635" lon="8.5112367"><ele>577.0</ele><time>2026-05-02T10:32:50.381Z</time></trkpt><trkpt lat="39.3763633" lon="8.5113183"><ele>577.0</ele><time>2026-05-02T10:32:51.359Z</time></trkpt><trkpt lat="39.3764033" lon="8.5114717"><ele>573.4</ele><time>2026-05-02T10:32:53.357Z</time></trkpt><trkpt lat="39.3764367" lon="8.511625"><ele>569.8000000000001</ele><time>2026-05-02T10:32:55.359Z</time></trkpt><trkpt lat="39.3764617" lon="8.5117"><ele>566.2</ele><time>2026-05-02T10:32:56.416Z</time></trkpt><trkpt lat="39.3765017" lon="8.5118467"><ele>562.6</ele><time>2026-05-02T10:32:58.36Z</time></trkpt><trkpt lat="39.3765267" lon="8.511985"><ele>559.0</ele><time>2026-05-02T10:33:00.359Z</time></trkpt><trkpt lat="39.3765333" lon="8.5121217"><ele>558.8333333333334</ele><time>2026-05-02T10:33:02.372Z</time></trkpt><trkpt lat="39.3765267" lon="8.51228"><ele>558.6666666666667</ele><time>2026-05-02T10:33:04.36Z</time></trkpt><trkpt lat="39.37651" lon="8.5123633"><ele>558.5</ele><time>2026-05-02T10:33:05.359Z</time></trkpt><trkpt lat="39.37649" lon="8.512445"><ele>558.3333333333334</ele><time>2026-05-02T10:33:06.358Z</time></trkpt><trkpt lat="39.3764667" lon="8.5125267"><ele>558.1666666666666</ele><time>2026-05-02T10:33:07.359Z</time></trkpt><trkpt lat="39.3764367" lon="8.512605"><ele>558.0</ele><time>2026-05-02T10:33:08.384Z</time></trkpt><trkpt lat="39.37641" lon="8.512685"><ele>558.0</ele><time>2026-05-02T10:33:09.356Z</time></trkpt><trkpt lat="39.37638" lon="8.5127683"><ele>558.0</ele><time>2026-05-02T10:33:10.358Z</time></trkpt><trkpt lat="39.3763283" lon="8.5129"><ele>558.0</ele><time>2026-05-02T10:33:12.359Z</time></trkpt><trkpt lat="39.3762617" lon="8.5130133"><ele>558.0</ele><time>2026-05-02T10:33:14.385Z</time></trkpt><trkpt lat="39.3761733" lon="8.5130967"><ele>558.0</ele><time>2026-05-02T10:33:16.36Z</time></trkpt><trkpt lat="39.376085" lon="8.5131717"><ele>564.6</ele><time>2026-05-02T10:33:18.361Z</time></trkpt><trkpt lat="39.3760117" lon="8.5132633"><ele>571.1999999999999</ele><time>2026-05-02T10:33:20.384Z</time></trkpt><trkpt lat="39.3759583" lon="8.5133767"><ele>577.8</ele><time>2026-05-02T10:33:22.356Z</time></trkpt><trkpt lat="39.37592" lon="8.51352"><ele>584.4</ele><time>2026-05-02T10:33:24.356Z</time></trkpt><trkpt lat="39.3759" lon="8.5136033"><ele>591.0</ele><time>2026-05-02T10:33:25.359Z</time></trkpt><trkpt lat="39.375885" lon="8.5136867"><ele>590.6</ele><time>2026-05-02T10:33:26.419Z</time></trkpt><trkpt lat="39.37586" lon="8.5138433"><ele>590.2</ele><time>2026-05-02T10:33:28.359Z</time></trkpt><trkpt lat="39.3758467" lon="8.5139233"><ele>589.8</ele><time>2026-05-02T10:33:29.361Z</time></trkpt><trkpt lat="39.3758283" lon="8.5140717"><ele>589.4</ele><time>2026-05-02T10:33:31.359Z</time></trkpt><trkpt lat="39.37585" lon="8.5141917"><ele>589.0</ele><time>2026-05-02T10:33:33.355Z</time></trkpt><trkpt lat="39.3758967" lon="8.5142883"><ele>589.0</ele><time>2026-05-02T10:33:35.355Z</time></trkpt><trkpt lat="39.3759433" lon="8.51435"><ele>589.0</ele><time>2026-05-02T10:33:37.36Z</time></trkpt><trkpt lat="39.376005" lon="8.5144017"><ele>589.0</ele><time>2026-05-02T10:33:39.361Z</time></trkpt><trkpt lat="39.3760967" lon="8.5144167"><ele>589.0</ele><time>2026-05-02T10:33:41.359Z</time></trkpt><trkpt lat="39.3761833" lon="8.514435"><ele>589.0</ele><time>2026-05-02T10:33:43.358Z</time></trkpt><trkpt lat="39.3762733" lon="8.5144467"><ele>589.0</ele><time>2026-05-02T10:33:45.36Z</time></trkpt><trkpt lat="39.376365" lon="8.5144817"><ele>591.2</ele><time>2026-05-02T10:33:47.358Z</time></trkpt><trkpt lat="39.3764667" lon="8.51453"><ele>593.4</ele><time>2026-05-02T10:33:49.356Z</time></trkpt><trkpt lat="39.3765683" lon="8.5145883"><ele>595.6</ele><time>2026-05-02T10:33:51.362Z</time></trkpt><trkpt lat="39.37667" lon="8.5146367"><ele>597.8</ele><time>2026-05-02T10:33:53.354Z</time></trkpt><trkpt lat="39.376765" lon="8.5146683"><ele>600.0</ele><time>2026-05-02T10:33:55.356Z</time></trkpt><trkpt lat="39.3768717" lon="8.514675"><ele>600.0</ele><time>2026-05-02T10:33:57.361Z</time></trkpt><trkpt lat="39.37694" lon="8.5146617"><ele>600.0</ele><time>2026-05-02T10:33:58.36Z</time></trkpt><trkpt lat="39.3770467" lon="8.5146233"><ele>600.0</ele><time>2026-05-02T10:34:00.357Z</time></trkpt><trkpt lat="39.3771483" lon="8.5145667"><ele>600.0</ele><time>2026-05-02T10:34:02.393Z</time></trkpt><trkpt lat="39.3772583" lon="8.5145133"><ele>600.0</ele><time>2026-05-02T10:34:04.361Z</time></trkpt><trkpt lat="39.3773767" lon="8.51448"><ele>599.6</ele><time>2026-05-02T10:34:06.357Z</time></trkpt><trkpt lat="39.3774767" lon="8.5144617"><ele>599.2</ele><time>2026-05-02T10:34:08.384Z</time></trkpt><trkpt lat="39.3775783" lon="8.5144683"><ele>598.8</ele><time>2026-05-02T10:34:10.36Z</time></trkpt><trkpt lat="39.37767" lon="8.51449"><ele>598.4</ele><time>2026-05-02T10:34:12.357Z</time></trkpt><trkpt lat="39.377775" lon="8.514545"><ele>598.0</ele><time>2026-05-02T10:34:14.384Z</time></trkpt><trkpt lat="39.3778883" lon="8.5146183"><ele>598.0</ele><time>2026-05-02T10:34:16.36Z</time></trkpt><trkpt lat="39.377985" lon="8.5147"><ele>598.0</ele><time>2026-05-02T10:34:18.361Z</time></trkpt><trkpt lat="39.3780433" lon="8.5147367"><ele>598.0</ele><time>2026-05-02T10:34:19.357Z</time></trkpt><trkpt lat="39.3781283" lon="8.5148133"><ele>598.0</ele><time>2026-05-02T10:34:21.356Z</time></trkpt><trkpt lat="39.3782017" lon="8.5148767"><ele>598.0</ele><time>2026-05-02T10:34:23.357Z</time></trkpt><trkpt lat="39.378275" lon="8.5149317"><ele>594.1666666666667</ele><time>2026-05-02T10:34:25.356Z</time></trkpt><trkpt lat="39.3783483" lon="8.5149867"><ele>590.3333333333334</ele><time>2026-05-02T10:34:27.36Z</time></trkpt><trkpt lat="39.3784233" lon="8.5150333"><ele>586.5</ele><time>2026-05-02T10:34:29.355Z</time></trkpt><trkpt lat="39.3784983" lon="8.5150817"><ele>582.6666666666666</ele><time>2026-05-02T10:34:31.357Z</time></trkpt><trkpt lat="39.378565" lon="8.5151133"><ele>578.8333333333333</ele><time>2026-05-02T10:34:33.355Z</time></trkpt><trkpt lat="39.37863" lon="8.515155"><ele>575.0</ele><time>2026-05-02T10:34:35.36Z</time></trkpt><trkpt lat="39.3786983" lon="8.5152117"><ele>575.0</ele><time>2026-05-02T10:34:37.358Z</time></trkpt><trkpt lat="39.3787733" lon="8.5152883"><ele>575.0</ele><time>2026-05-02T10:34:40.357Z</time></trkpt><trkpt lat="39.3788167" lon="8.515365"><ele>575.0</ele><time>2026-05-02T10:34:42.361Z</time></trkpt><trkpt lat="39.378855" lon="8.515455"><ele>575.0</ele><time>2026-05-02T10:34:44.384Z</time></trkpt><trkpt lat="39.378875" lon="8.515555"><ele>575.0</ele><time>2026-05-02T10:34:46.357Z</time></trkpt><trkpt lat="39.3789017" lon="8.5156483"><ele>575.0</ele><time>2026-05-02T10:34:48.359Z</time></trkpt><trkpt lat="39.37892" lon="8.5157567"><ele>574.5</ele><time>2026-05-02T10:34:50.384Z</time></trkpt><trkpt lat="39.3789417" lon="8.51586"><ele>574.0</ele><time>2026-05-02T10:34:52.358Z</time></trkpt><trkpt lat="39.378965" lon="8.5159583"><ele>573.5</ele><time>2026-05-02T10:34:54.356Z</time></trkpt><trkpt lat="39.3789917" lon="8.5160467"><ele>573.0</ele><time>2026-05-02T10:34:56.42Z</time></trkpt><trkpt lat="39.3790133" lon="8.5161383"><ele>572.5</ele><time>2026-05-02T10:34:58.358Z</time></trkpt><trkpt lat="39.3790283" lon="8.5162467"><ele>572.0</ele><time>2026-05-02T10:35:01.358Z</time></trkpt><trkpt lat="39.3790217" lon="8.5163717"><ele>572.0</ele><time>2026-05-02T10:35:04.359Z</time></trkpt><trkpt lat="39.3790067" lon="8.5164667"><ele>572.0</ele><time>2026-05-02T10:35:06.358Z</time></trkpt><trkpt lat="39.3789917" lon="8.5165533"><ele>572.0</ele><time>2026-05-02T10:35:08.384Z</time></trkpt><trkpt lat="39.3789717" lon="8.5166533"><ele>572.0</ele><time>2026-05-02T10:35:10.357Z</time></trkpt><trkpt lat="39.378955" lon="8.516775"><ele>572.0</ele><time>2026-05-02T10:35:12.356Z</time></trkpt><trkpt lat="39.3789533" lon="8.516905"><ele>572.0</ele><time>2026-05-02T10:35:14.381Z</time></trkpt><trkpt lat="39.3789583" lon="8.5170167"><ele>571.5</ele><time>2026-05-02T10:35:16.359Z</time></trkpt><trkpt lat="39.37896" lon="8.5171267"><ele>571.0</ele><time>2026-05-02T10:35:18.36Z</time></trkpt><trkpt lat="39.3789433" lon="8.517235"><ele>570.5</ele><time>2026-05-02T10:35:20.385Z</time></trkpt><trkpt lat="39.37892" lon="8.5173483"><ele>570.0</ele><time>2026-05-02T10:35:22.355Z</time></trkpt><trkpt lat="39.378885" lon="8.51746"><ele>569.5</ele><time>2026-05-02T10:35:24.361Z</time></trkpt><trkpt lat="39.378845" lon="8.5175567"><ele>569.0</ele><time>2026-05-02T10:35:26.396Z</time></trkpt><trkpt lat="39.3787767" lon="8.517635"><ele>571.5</ele><time>2026-05-02T10:35:28.357Z</time></trkpt><trkpt lat="39.3786983" lon="8.5177033"><ele>574.0</ele><time>2026-05-02T10:35:30.359Z</time></trkpt><trkpt lat="39.3786283" lon="8.5177783"><ele>576.5</ele><time>2026-05-02T10:35:32.395Z</time></trkpt><trkpt lat="39.378545" lon="8.517865"><ele>579.0</ele><time>2026-05-02T10:35:34.359Z</time></trkpt><trkpt lat="39.37848" lon="8.51794"><ele>581.5</ele><time>2026-05-02T10:35:36.356Z</time></trkpt><trkpt lat="39.378425" lon="8.5179883"><ele>584.0</ele><time>2026-05-02T10:35:38.382Z</time></trkpt><trkpt lat="39.378365" lon="8.5180633"><ele>584.0</ele><time>2026-05-02T10:35:41.359Z</time></trkpt><trkpt lat="39.3783133" lon="8.5181533"><ele>584.0</ele><time>2026-05-02T10:35:44.383Z</time></trkpt><trkpt lat="39.3782583" lon="8.51824"><ele>584.0</ele><time>2026-05-02T10:35:47.358Z</time></trkpt><trkpt lat="39.37821" lon="8.5183183"><ele>584.0</ele><time>2026-05-02T10:35:50.382Z</time></trkpt><trkpt lat="39.378155" lon="8.518365"><ele>584.0</ele><time>2026-05-02T10:35:52.359Z</time></trkpt><trkpt lat="39.3780817" lon="8.5184267"><ele>584.0</ele><time>2026-05-02T10:35:54.357Z</time></trkpt><trkpt lat="39.37803" lon="8.5184917"><ele>587.3333333333333</ele><time>2026-05-02T10:35:56.396Z</time></trkpt><trkpt lat="39.3779783" lon="8.5185417"><ele>590.6666666666666</ele><time>2026-05-02T10:35:58.359Z</time></trkpt><trkpt lat="39.377855" lon="8.5186183"><ele>594.0</ele><time>2026-05-02T10:36:55.355Z</time></trkpt><trkpt lat="39.3778767" lon="8.5186983"><ele>597.3333333333334</ele><time>2026-05-02T10:40:14.383Z</time></trkpt><trkpt lat="39.3778683" lon="8.5188083"><ele>600.6666666666667</ele><time>2026-05-02T10:40:16.362Z</time></trkpt><trkpt lat="39.3778817" lon="8.51892"><ele>604.0</ele><time>2026-05-02T10:40:18.358Z</time></trkpt><trkpt lat="39.3779017" lon="8.5190033"><ele>604.0</ele><time>2026-05-02T10:40:20.38Z</time></trkpt><trkpt lat="39.3779167" lon="8.5190933"><ele>604.0</ele><time>2026-05-02T10:40:22.358Z</time></trkpt><trkpt lat="39.3779433" lon="8.5191867"><ele>604.0</ele><time>2026-05-02T10:40:25.354Z</time></trkpt><trkpt lat="39.377985" lon="8.51929"><ele>604.0</ele><time>2026-05-02T10:40:28.361Z</time></trkpt><trkpt lat="39.3780033" lon="8.51937"><ele>604.0</ele><time>2026-05-02T10:40:33.357Z</time></trkpt><trkpt lat="39.3780283" lon="8.5194617"><ele>604.0</ele><time>2026-05-02T10:40:43.359Z</time></trkpt><trkpt lat="39.3780667" lon="8.5195617"><ele>600.0</ele><time>2026-05-02T10:40:46.357Z</time></trkpt><trkpt lat="39.3781117" lon="8.519645"><ele>596.0</ele><time>2026-05-02T10:40:48.355Z</time></trkpt><trkpt lat="39.3781617" lon="8.5197433"><ele>592.0</ele><time>2026-05-02T10:40:50.381Z</time></trkpt><trkpt lat="39.3782" lon="8.519845"><ele>588.0</ele><time>2026-05-02T10:40:52.358Z</time></trkpt><trkpt lat="39.37822" lon="8.519945"><ele>584.0</ele><time>2026-05-02T10:40:54.359Z</time></trkpt><trkpt lat="39.3782167" lon="8.5200517"><ele>580.0</ele><time>2026-05-02T10:40:57.354Z</time></trkpt><trkpt lat="39.3781917" lon="8.5201617"><ele>580.0</ele><time>2026-05-02T10:41:00.358Z</time></trkpt><trkpt lat="39.3781733" lon="8.5202717"><ele>580.0</ele><time>2026-05-02T10:41:03.358Z</time></trkpt><trkpt lat="39.3781517" lon="8.5203867"><ele>580.0</ele><time>2026-05-02T10:41:06.359Z</time></trkpt><trkpt lat="39.37814" lon="8.520475"><ele>580.0</ele><time>2026-05-02T10:41:08.379Z</time></trkpt><trkpt lat="39.3780967" lon="8.52057"><ele>580.0</ele><time>2026-05-02T10:41:11.355Z</time></trkpt><trkpt lat="39.3780667" lon="8.5206867"><ele>580.0</ele><time>2026-05-02T10:41:14.382Z</time></trkpt><trkpt lat="39.3780667" lon="8.5208067"><ele>579.6666666666667</ele><time>2026-05-02T10:41:17.358Z</time></trkpt><trkpt lat="39.378045" lon="8.5209067"><ele>579.3333333333334</ele><time>2026-05-02T10:41:20.38Z</time></trkpt><trkpt lat="39.37802" lon="8.5210117"><ele>579.0</ele><time>2026-05-02T10:41:24.356Z</time></trkpt><trkpt lat="39.3779917" lon="8.521115"><ele>578.6666666666666</ele><time>2026-05-02T10:41:27.357Z</time></trkpt><trkpt lat="39.3779833" lon="8.5212167"><ele>578.3333333333333</ele><time>2026-05-02T10:41:30.358Z</time></trkpt><trkpt lat="39.377975" lon="8.5213483"><ele>578.0</ele><time>2026-05-02T10:41:37.359Z</time></trkpt><trkpt lat="39.3779683" lon="8.5215133"><ele>581.3333333333333</ele><time>2026-05-02T10:41:42.356Z</time></trkpt><trkpt lat="39.3779617" lon="8.5216183"><ele>584.6666666666666</ele><time>2026-05-02T10:41:45.361Z</time></trkpt><trkpt lat="39.37796" lon="8.5217217"><ele>588.0</ele><time>2026-05-02T10:41:48.359Z</time></trkpt><trkpt lat="39.3779583" lon="8.52182"><ele>591.3333333333334</ele><time>2026-05-02T10:41:51.357Z</time></trkpt><trkpt lat="39.3779483" lon="8.52194"><ele>594.6666666666667</ele><time>2026-05-02T10:41:54.358Z</time></trkpt><trkpt lat="39.3779433" lon="8.5220567"><ele>598.0</ele><time>2026-05-02T10:41:57.357Z</time></trkpt><trkpt lat="39.37794" lon="8.522155"><ele>598.0</ele><time>2026-05-02T10:42:00.357Z</time></trkpt><trkpt lat="39.3778567" lon="8.522235"><ele>598.0</ele><time>2026-05-02T10:42:42.358Z</time></trkpt><trkpt lat="39.37776" lon="8.5222417"><ele>598.0</ele><time>2026-05-02T10:43:35.358Z</time></trkpt><trkpt lat="39.3776367" lon="8.5222917"><ele>598.0</ele><time>2026-05-02T10:43:43.354Z</time></trkpt><trkpt lat="39.3776167" lon="8.5223767"><ele>598.0</ele><time>2026-05-02T10:43:46.356Z</time></trkpt><trkpt lat="39.3776833" lon="8.5224967"><ele>598.0</ele><time>2026-05-02T10:44:12.357Z</time></trkpt><trkpt lat="39.3777683" lon="8.522505"><ele>598.0</ele><time>2026-05-02T10:50:01.357Z</time></trkpt><trkpt lat="39.3778283" lon="8.5225933"><ele>598.0</ele><time>2026-05-02T10:50:18.354Z</time></trkpt><trkpt lat="39.37794" lon="8.522725"><ele>598.0</ele><time>2026-05-02T10:50:25.35Z</time></trkpt><trkpt lat="39.3778817" lon="8.5226767"><ele>598.0</ele><time>2026-05-02T10:50:55.353Z</time></trkpt><trkpt lat="39.37779" lon="8.5225417"><ele>598.0</ele><time>2026-05-02T10:52:36.353Z</time></trkpt><trkpt lat="39.3777267" lon="8.5224817"><ele>598.0</ele><time>2026-05-02T10:52:41.352Z</time></trkpt><trkpt lat="39.3776683" lon="8.522435"><ele>598.0</ele><time>2026-05-02T10:52:42.354Z</time></trkpt><trkpt lat="39.3776967" lon="8.5225367"><ele>598.0</ele><time>2026-05-02T10:53:01.354Z</time></trkpt><trkpt lat="39.3776817" lon="8.522625"><ele>598.0</ele><time>2026-05-02T10:53:03.356Z</time></trkpt><trkpt lat="39.37767" lon="8.52271"><ele>598.0</ele><time>2026-05-02T10:53:05.357Z</time></trkpt><trkpt lat="39.3776567" lon="8.522835"><ele>596.8333333333334</ele><time>2026-05-02T10:53:08.386Z</time></trkpt><trkpt lat="39.3776283" lon="8.5229167"><ele>595.6666666666667</ele><time>2026-05-02T10:53:11.357Z</time></trkpt><trkpt lat="39.3776217" lon="8.5230133"><ele>594.5</ele><time>2026-05-02T10:53:16.355Z</time></trkpt><trkpt lat="39.3775983" lon="8.5230967"><ele>593.3333333333334</ele><time>2026-05-02T10:53:21.354Z</time></trkpt><trkpt lat="39.3775733" lon="8.5232083"><ele>592.1666666666666</ele><time>2026-05-02T10:53:24.355Z</time></trkpt><trkpt lat="39.37757" lon="8.52331"><ele>591.0</ele><time>2026-05-02T10:53:28.355Z</time></trkpt><trkpt lat="39.377565" lon="8.5234"><ele>591.0</ele><time>2026-05-02T10:53:31.355Z</time></trkpt><trkpt lat="39.377545" lon="8.5234783"><ele>591.0</ele><time>2026-05-02T10:53:34.356Z</time></trkpt><trkpt lat="39.377515" lon="8.5235783"><ele>591.0</ele><time>2026-05-02T10:53:37.353Z</time></trkpt><trkpt lat="39.377485" lon="8.5236733"><ele>591.0</ele><time>2026-05-02T10:53:40.355Z</time></trkpt><trkpt lat="39.377465" lon="8.5237683"><ele>591.0</ele><time>2026-05-02T10:53:43.353Z</time></trkpt><trkpt lat="39.377445" lon="8.5238467"><ele>591.0</ele><time>2026-05-02T10:53:46.353Z</time></trkpt><trkpt lat="39.377415" lon="8.5239383"><ele>591.0</ele><time>2026-05-02T10:53:50.389Z</time></trkpt><trkpt lat="39.377355" lon="8.524015"><ele>589.5</ele><time>2026-05-02T10:53:53.354Z</time></trkpt><trkpt lat="39.3772817" lon="8.52407"><ele>588.0</ele><time>2026-05-02T10:53:57.352Z</time></trkpt><trkpt lat="39.3772267" lon="8.5241283"><ele>586.5</ele><time>2026-05-02T10:54:01.355Z</time></trkpt><trkpt lat="39.3771667" lon="8.5241783"><ele>585.0</ele><time>2026-05-02T10:54:04.354Z</time></trkpt><trkpt lat="39.37711" lon="8.5242283"><ele>583.5</ele><time>2026-05-02T10:54:07.355Z</time></trkpt><trkpt lat="39.3770567" lon="8.5242767"><ele>582.0</ele><time>2026-05-02T10:54:12.356Z</time></trkpt><trkpt lat="39.3769667" lon="8.5243017"><ele>584.0</ele><time>2026-05-02T10:57:07.354Z</time></trkpt><trkpt lat="39.3768867" lon="8.5242"><ele>586.0</ele><time>2026-05-02T10:57:25.357Z</time></trkpt><trkpt lat="39.3768983" lon="8.524285"><ele>588.0</ele><time>2026-05-02T10:57:58.351Z</time></trkpt><trkpt lat="39.3768617" lon="8.52439"><ele>590.0</ele><time>2026-05-02T10:58:02.372Z</time></trkpt><trkpt lat="39.3768017" lon="8.5245233"><ele>592.0</ele><time>2026-05-02T10:58:57.357Z</time></trkpt><trkpt lat="39.3767367" lon="8.52466"><ele>592.0</ele><time>2026-05-02T10:59:02.397Z</time></trkpt><trkpt lat="39.3766833" lon="8.5247783"><ele>592.0</ele><time>2026-05-02T10:59:22.356Z</time></trkpt><trkpt lat="39.376635" lon="8.5248483"><ele>592.0</ele><time>2026-05-02T10:59:24.353Z</time></trkpt><trkpt lat="39.3765883" lon="8.5249333"><ele>592.0</ele><time>2026-05-02T10:59:26.419Z</time></trkpt><trkpt lat="39.3765783" lon="8.52502"><ele>592.0</ele><time>2026-05-02T10:59:28.356Z</time></trkpt><trkpt lat="39.3766217" lon="8.5251267"><ele>592.0</ele><time>2026-05-02T10:59:31.356Z</time></trkpt><trkpt lat="39.3766933" lon="8.5251717"><ele>592.0</ele><time>2026-05-02T10:59:33.354Z</time></trkpt><trkpt lat="39.37678" lon="8.5252"><ele>592.0</ele><time>2026-05-02T10:59:35.359Z</time></trkpt><trkpt lat="39.3768667" lon="8.5252417"><ele>592.0</ele><time>2026-05-02T10:59:37.358Z</time></trkpt><trkpt lat="39.376945" lon="8.5252933"><ele>592.0</ele><time>2026-05-02T10:59:39.357Z</time></trkpt><trkpt lat="39.37701" lon="8.5253667"><ele>592.0</ele><time>2026-05-02T10:59:41.356Z</time></trkpt><trkpt lat="39.3770767" lon="8.52546"><ele>595.25</ele><time>2026-05-02T10:59:43.355Z</time></trkpt><trkpt lat="39.3771367" lon="8.525575"><ele>598.5</ele><time>2026-05-02T10:59:45.354Z</time></trkpt><trkpt lat="39.3772133" lon="8.5256883"><ele>601.75</ele><time>2026-05-02T10:59:47.352Z</time></trkpt><trkpt lat="39.3772867" lon="8.5257967"><ele>605.0</ele><time>2026-05-02T10:59:49.357Z</time></trkpt><trkpt lat="39.377365" lon="8.52591"><ele>603.6</ele><time>2026-05-02T10:59:51.354Z</time></trkpt><trkpt lat="39.37745" lon="8.5260183"><ele>602.2</ele><time>2026-05-02T10:59:53.354Z</time></trkpt><trkpt lat="39.3775217" lon="8.52611"><ele>600.8</ele><time>2026-05-02T10:59:55.353Z</time></trkpt><trkpt lat="39.3775983" lon="8.5261933"><ele>599.4</ele><time>2026-05-02T10:59:57.355Z</time></trkpt><trkpt lat="39.37768" lon="8.5262683"><ele>598.0</ele><time>2026-05-02T10:59:59.352Z</time></trkpt><trkpt lat="39.3777633" lon="8.52634"><ele>598.0</ele><time>2026-05-02T11:00:01.354Z</time></trkpt><trkpt lat="39.3778283" lon="8.5264"><ele>598.0</ele><time>2026-05-02T11:00:03.356Z</time></trkpt><trkpt lat="39.3778833" lon="8.5264717"><ele>598.0</ele><time>2026-05-02T11:00:05.352Z</time></trkpt><trkpt lat="39.3779417" lon="8.5265683"><ele>598.0</ele><time>2026-05-02T11:00:07.355Z</time></trkpt><trkpt lat="39.3779917" lon="8.5266933"><ele>598.0</ele><time>2026-05-02T11:00:09.357Z</time></trkpt><trkpt lat="39.378005" lon="8.5268217"><ele>598.0</ele><time>2026-05-02T11:00:11.354Z</time></trkpt><trkpt lat="39.3780167" lon="8.5269433"><ele>598.0</ele><time>2026-05-02T11:00:13.355Z</time></trkpt><trkpt lat="39.3780567" lon="8.5270783"><ele>598.0</ele><time>2026-05-02T11:00:15.355Z</time></trkpt><trkpt lat="39.378135" lon="8.5271983"><ele>598.0</ele><time>2026-05-02T11:00:17.357Z</time></trkpt><trkpt lat="39.37823" lon="8.5272867"><ele>598.0</ele><time>2026-05-02T11:00:19.354Z</time></trkpt><trkpt lat="39.378285" lon="8.5273283"><ele>596.1428571428571</ele><time>2026-05-02T11:00:20.383Z</time></trkpt><trkpt lat="39.3783383" lon="8.5273733"><ele>594.2857142857143</ele><time>2026-05-02T11:00:21.357Z</time></trkpt><trkpt lat="39.37839" lon="8.5274267"><ele>592.4285714285714</ele><time>2026-05-02T11:00:22.354Z</time></trkpt><trkpt lat="39.3784383" lon="8.5274817"><ele>590.5714285714286</ele><time>2026-05-02T11:00:23.352Z</time></trkpt><trkpt lat="39.3784883" lon="8.527545"><ele>588.7142857142857</ele><time>2026-05-02T11:00:24.354Z</time></trkpt><trkpt lat="39.378535" lon="8.52761"><ele>586.8571428571429</ele><time>2026-05-02T11:00:25.353Z</time></trkpt><trkpt lat="39.3785817" lon="8.52767"><ele>585.0</ele><time>2026-05-02T11:00:26.396Z</time></trkpt><trkpt lat="39.3786283" lon="8.5277367"><ele>585.0</ele><time>2026-05-02T11:00:27.356Z</time></trkpt><trkpt lat="39.3786733" lon="8.5278017"><ele>585.0</ele><time>2026-05-02T11:00:28.354Z</time></trkpt><trkpt lat="39.3787617" lon="8.5279133"><ele>585.0</ele><time>2026-05-02T11:00:30.354Z</time></trkpt><trkpt lat="39.37886" lon="8.5280117"><ele>585.0</ele><time>2026-05-02T11:00:32.397Z</time></trkpt><trkpt lat="39.3789783" lon="8.5280633"><ele>585.0</ele><time>2026-05-02T11:00:34.355Z</time></trkpt><trkpt lat="39.379085" lon="8.52814"><ele>585.4285714285714</ele><time>2026-05-02T11:00:36.357Z</time></trkpt><trkpt lat="39.3791433" lon="8.528175"><ele>585.8571428571429</ele><time>2026-05-02T11:00:37.355Z</time></trkpt><trkpt lat="39.379215" lon="8.5282083"><ele>586.2857142857142</ele><time>2026-05-02T11:00:38.385Z</time></trkpt><trkpt lat="39.3792867" lon="8.5282433"><ele>586.7142857142858</ele><time>2026-05-02T11:00:39.351Z</time></trkpt><trkpt lat="39.3793617" lon="8.5282733"><ele>587.1428571428571</ele><time>2026-05-02T11:00:40.351Z</time></trkpt><trkpt lat="39.379425" lon="8.5282917"><ele>587.5714285714286</ele><time>2026-05-02T11:00:41.356Z</time></trkpt><trkpt lat="39.3794933" lon="8.5283033"><ele>588.0</ele><time>2026-05-02T11:00:42.354Z</time></trkpt><trkpt lat="39.3795633" lon="8.5283067"><ele>588.0</ele><time>2026-05-02T11:00:43.355Z</time></trkpt><trkpt lat="39.3796733" lon="8.5283183"><ele>588.0</ele><time>2026-05-02T11:00:45.355Z</time></trkpt><trkpt lat="39.37976" lon="8.5283583"><ele>588.0</ele><time>2026-05-02T11:00:47.355Z</time></trkpt><trkpt lat="39.379815" lon="8.528455"><ele>588.0</ele><time>2026-05-02T11:00:49.357Z</time></trkpt><trkpt lat="39.3798417" lon="8.5285417"><ele>588.0</ele><time>2026-05-02T11:00:51.354Z</time></trkpt><trkpt lat="39.37987" lon="8.5286183"><ele>588.0</ele><time>2026-05-02T11:00:53.354Z</time></trkpt><trkpt lat="39.3799083" lon="8.52871"><ele>587.1999999999999</ele><time>2026-05-02T11:00:55.354Z</time></trkpt><trkpt lat="39.37996" lon="8.5288367"><ele>586.4</ele><time>2026-05-02T11:00:57.355Z</time></trkpt><trkpt lat="39.3800167" lon="8.5289783"><ele>585.5999999999999</ele><time>2026-05-02T11:00:59.355Z</time></trkpt><trkpt lat="39.38008" lon="8.52911"><ele>584.8</ele><time>2026-05-02T11:01:01.356Z</time></trkpt><trkpt lat="39.3801183" lon="8.5291767"><ele>584.0</ele><time>2026-05-02T11:01:02.396Z</time></trkpt><trkpt lat="39.3801617" lon="8.52924"><ele>584.0</ele><time>2026-05-02T11:01:03.357Z</time></trkpt><trkpt lat="39.3802067" lon="8.5293067"><ele>584.0</ele><time>2026-05-02T11:01:04.355Z</time></trkpt><trkpt lat="39.3802467" lon="8.5293767"><ele>584.0</ele><time>2026-05-02T11:01:05.354Z</time></trkpt><trkpt lat="39.38028" lon="8.529455"><ele>584.0</ele><time>2026-05-02T11:01:06.354Z</time></trkpt><trkpt lat="39.3803367" lon="8.5295967"><ele>584.0</ele><time>2026-05-02T11:01:08.38Z</time></trkpt><trkpt lat="39.38038" lon="8.5297317"><ele>584.0</ele><time>2026-05-02T11:01:10.356Z</time></trkpt><trkpt lat="39.38041" lon="8.52987"><ele>583.0</ele><time>2026-05-02T11:01:12.356Z</time></trkpt><trkpt lat="39.3804333" lon="8.5299933"><ele>582.0</ele><time>2026-05-02T11:01:14.385Z</time></trkpt><trkpt lat="39.3804617" lon="8.53012"><ele>581.0</ele><time>2026-05-02T11:01:16.351Z</time></trkpt><trkpt lat="39.3805117" lon="8.5302183"><ele>580.0</ele><time>2026-05-02T11:01:18.358Z</time></trkpt><trkpt lat="39.3806017" lon="8.530265"><ele>579.0</ele><time>2026-05-02T11:01:20.387Z</time></trkpt><trkpt lat="39.3806617" lon="8.5302333"><ele>579.0</ele><time>2026-05-02T11:01:22.356Z</time></trkpt><trkpt lat="39.38072" lon="8.5301283"><ele>579.0</ele><time>2026-05-02T11:01:24.353Z</time></trkpt><trkpt lat="39.3807867" lon="8.5300967"><ele>579.0</ele><time>2026-05-02T11:01:26.395Z</time></trkpt><trkpt lat="39.38085" lon="8.530095"><ele>579.0</ele><time>2026-05-02T11:01:28.353Z</time></trkpt><trkpt lat="39.3809233" lon="8.53018"><ele>579.0</ele><time>2026-05-02T11:01:30.354Z</time></trkpt><trkpt lat="39.38102" lon="8.530275"><ele>579.0</ele><time>2026-05-02T11:01:32.396Z</time></trkpt><trkpt lat="39.3810833" lon="8.5303233"><ele>579.0</ele><time>2026-05-02T11:01:33.354Z</time></trkpt><trkpt lat="39.3811833" lon="8.5303967"><ele>579.0</ele><time>2026-05-02T11:01:34.352Z</time></trkpt><trkpt lat="39.3812517" lon="8.53045"><ele>579.0</ele><time>2026-05-02T11:01:35.354Z</time></trkpt><trkpt lat="39.3813283" lon="8.53049"><ele>579.0</ele><time>2026-05-02T11:01:36.352Z</time></trkpt><trkpt lat="39.3814017" lon="8.5305267"><ele>579.0</ele><time>2026-05-02T11:01:37.354Z</time></trkpt><trkpt lat="39.3814733" lon="8.53056"><ele>577.4</ele><time>2026-05-02T11:01:38.382Z</time></trkpt><trkpt lat="39.381545" lon="8.530575"><ele>575.8</ele><time>2026-05-02T11:01:39.356Z</time></trkpt><trkpt lat="39.3816483" lon="8.5306133"><ele>574.2</ele><time>2026-05-02T11:01:41.357Z</time></trkpt><trkpt lat="39.3817533" lon="8.5306267"><ele>572.6</ele><time>2026-05-02T11:01:42.356Z</time></trkpt><trkpt lat="39.3818517" lon="8.53065"><ele>571.0</ele><time>2026-05-02T11:01:43.352Z</time></trkpt><trkpt lat="39.381905" lon="8.530725"><ele>571.0</ele><time>2026-05-02T11:01:45.352Z</time></trkpt><trkpt lat="39.3818783" lon="8.5308"><ele>571.0</ele><time>2026-05-02T11:01:47.354Z</time></trkpt><trkpt lat="39.381825" lon="8.53088"><ele>571.0</ele><time>2026-05-02T11:01:49.358Z</time></trkpt><trkpt lat="39.3817533" lon="8.530975"><ele>571.0</ele><time>2026-05-02T11:01:51.353Z</time></trkpt><trkpt lat="39.3817067" lon="8.53103"><ele>571.0</ele><time>2026-05-02T11:01:52.355Z</time></trkpt><trkpt lat="39.381645" lon="8.53109"><ele>571.0</ele><time>2026-05-02T11:01:53.361Z</time></trkpt><trkpt lat="39.3815833" lon="8.5311517"><ele>571.0</ele><time>2026-05-02T11:01:54.352Z</time></trkpt><trkpt lat="39.3815217" lon="8.5312083"><ele>571.0</ele><time>2026-05-02T11:01:55.353Z</time></trkpt><trkpt lat="39.3814617" lon="8.531265"><ele>571.0</ele><time>2026-05-02T11:01:56.399Z</time></trkpt><trkpt lat="39.3813983" lon="8.5313183"><ele>571.0</ele><time>2026-05-02T11:01:57.353Z</time></trkpt><trkpt lat="39.381335" lon="8.5313683"><ele>571.0</ele><time>2026-05-02T11:01:58.352Z</time></trkpt><trkpt lat="39.3812717" lon="8.5314083"><ele>571.0</ele><time>2026-05-02T11:01:59.357Z</time></trkpt><trkpt lat="39.3812067" lon="8.531435"><ele>571.0</ele><time>2026-05-02T11:02:00.355Z</time></trkpt><trkpt lat="39.3811417" lon="8.531465"><ele>571.0</ele><time>2026-05-02T11:02:01.353Z</time></trkpt><trkpt lat="39.3810717" lon="8.5315"><ele>571.0</ele><time>2026-05-02T11:02:02.399Z</time></trkpt><trkpt lat="39.3810083" lon="8.53153"><ele>571.0</ele><time>2026-05-02T11:02:03.357Z</time></trkpt><trkpt lat="39.3809433" lon="8.5315633"><ele>571.0</ele><time>2026-05-02T11:02:04.357Z</time></trkpt><trkpt lat="39.380855" lon="8.531625"><ele>571.0</ele><time>2026-05-02T11:02:06.352Z</time></trkpt><trkpt lat="39.3808517" lon="8.5317083"><ele>571.0</ele><time>2026-05-02T11:02:10.353Z</time></trkpt><trkpt lat="39.380795" lon="8.5317817"><ele>571.0</ele><time>2026-05-02T11:02:12.354Z</time></trkpt><trkpt lat="39.3807117" lon="8.5318783"><ele>571.0</ele><time>2026-05-02T11:02:14.387Z</time></trkpt><trkpt lat="39.38063" lon="8.5319683"><ele>571.0</ele><time>2026-05-02T11:02:16.356Z</time></trkpt><trkpt lat="39.38054" lon="8.532065"><ele>571.0</ele><time>2026-05-02T11:02:18.356Z</time></trkpt><trkpt lat="39.3804467" lon="8.5321667"><ele>571.3333333333334</ele><time>2026-05-02T11:02:20.385Z</time></trkpt><trkpt lat="39.3803667" lon="8.5322617"><ele>571.6666666666667</ele><time>2026-05-02T11:02:22.354Z</time></trkpt><trkpt lat="39.3803167" lon="8.5323283"><ele>572.0</ele><time>2026-05-02T11:02:23.355Z</time></trkpt><trkpt lat="39.3802567" lon="8.5324067"><ele>572.3333333333334</ele><time>2026-05-02T11:02:24.357Z</time></trkpt><trkpt lat="39.3802233" lon="8.5324783"><ele>572.6666666666666</ele><time>2026-05-02T11:02:25.357Z</time></trkpt><trkpt lat="39.3802083" lon="8.5326217"><ele>573.0</ele><time>2026-05-02T11:02:27.355Z</time></trkpt><trkpt lat="39.3801983" lon="8.53275"><ele>573.0</ele><time>2026-05-02T11:02:29.354Z</time></trkpt><trkpt lat="39.3802117" lon="8.5328317"><ele>573.0</ele><time>2026-05-02T11:02:30.354Z</time></trkpt><trkpt lat="39.3802217" lon="8.532915"><ele>573.0</ele><time>2026-05-02T11:02:31.356Z</time></trkpt><trkpt lat="39.3802367" lon="8.53309"><ele>573.0</ele><time>2026-05-02T11:02:33.354Z</time></trkpt><trkpt lat="39.38023" lon="8.5332017"><ele>573.0</ele><time>2026-05-02T11:02:34.353Z</time></trkpt><trkpt lat="39.3802167" lon="8.533285"><ele>573.0</ele><time>2026-05-02T11:02:35.356Z</time></trkpt><trkpt lat="39.3802067" lon="8.5333667"><ele>572.25</ele><time>2026-05-02T11:02:36.353Z</time></trkpt><trkpt lat="39.380205" lon="8.5335133"><ele>571.5</ele><time>2026-05-02T11:02:38.385Z</time></trkpt><trkpt lat="39.3802367" lon="8.533655"><ele>570.75</ele><time>2026-05-02T11:02:40.357Z</time></trkpt><trkpt lat="39.3803033" lon="8.5338317"><ele>570.0</ele><time>2026-05-02T11:02:42.358Z</time></trkpt><trkpt lat="39.3803367" lon="8.533945"><ele>569.4</ele><time>2026-05-02T11:02:43.359Z</time></trkpt><trkpt lat="39.380405" lon="8.53406"><ele>568.8</ele><time>2026-05-02T11:02:45.353Z</time></trkpt><trkpt lat="39.3804583" lon="8.5341133"><ele>568.2</ele><time>2026-05-02T11:02:47.351Z</time></trkpt><trkpt lat="39.3804783" lon="8.534265"><ele>567.6</ele><time>2026-05-02T11:03:32.395Z</time></trkpt><trkpt lat="39.3804167" lon="8.53433"><ele>567.0</ele><time>2026-05-02T11:04:25.354Z</time></trkpt><trkpt lat="39.3804183" lon="8.5344583"><ele>567.0</ele><time>2026-05-02T11:04:28.356Z</time></trkpt><trkpt lat="39.3804233" lon="8.5345533"><ele>567.0</ele><time>2026-05-02T11:04:30.361Z</time></trkpt><trkpt lat="39.3804133" lon="8.534665"><ele>567.0</ele><time>2026-05-02T11:04:32.404Z</time></trkpt><trkpt lat="39.38039" lon="8.534775"><ele>567.0</ele><time>2026-05-02T11:04:34.352Z</time></trkpt><trkpt lat="39.38035" lon="8.5348683"><ele>567.0</ele><time>2026-05-02T11:04:36.359Z</time></trkpt><trkpt lat="39.3803017" lon="8.534955"><ele>567.0</ele><time>2026-05-02T11:04:38.384Z</time></trkpt><trkpt lat="39.3802167" lon="8.5350183"><ele>566.4</ele><time>2026-05-02T11:04:40.353Z</time></trkpt><trkpt lat="39.380115" lon="8.5351"><ele>565.8000000000001</ele><time>2026-05-02T11:04:42.356Z</time></trkpt><trkpt lat="39.38006" lon="8.535155"><ele>565.2</ele><time>2026-05-02T11:04:43.354Z</time></trkpt><trkpt lat="39.380015" lon="8.5352217"><ele>564.6</ele><time>2026-05-02T11:04:44.386Z</time></trkpt><trkpt lat="39.3799633" lon="8.5352933"><ele>564.0</ele><time>2026-05-02T11:04:45.357Z</time></trkpt><trkpt lat="39.3798867" lon="8.53541"><ele>561.8</ele><time>2026-05-02T11:04:47.357Z</time></trkpt><trkpt lat="39.3798183" lon="8.5355333"><ele>559.5999999999999</ele><time>2026-05-02T11:04:49.353Z</time></trkpt><trkpt lat="39.3797517" lon="8.5356583"><ele>557.4</ele><time>2026-05-02T11:04:51.356Z</time></trkpt><trkpt lat="39.3797267" lon="8.5357983"><ele>555.1999999999999</ele><time>2026-05-02T11:04:53.355Z</time></trkpt><trkpt lat="39.37973" lon="8.5358833"><ele>553.0</ele><time>2026-05-02T11:04:54.358Z</time></trkpt><trkpt lat="39.3797617" lon="8.53602"><ele>553.0</ele><time>2026-05-02T11:04:56.422Z</time></trkpt><trkpt lat="39.379795" lon="8.5361833"><ele>553.0</ele><time>2026-05-02T11:04:58.351Z</time></trkpt><trkpt lat="39.379815" lon="8.5363083"><ele>553.0</ele><time>2026-05-02T11:05:00.354Z</time></trkpt><trkpt lat="39.3798883" lon="8.5363717"><ele>553.0</ele><time>2026-05-02T11:05:03.356Z</time></trkpt><trkpt lat="39.3799417" lon="8.5362767"><ele>553.0</ele><time>2026-05-02T11:05:05.355Z</time></trkpt><trkpt lat="39.3799617" lon="8.536165"><ele>553.0</ele><time>2026-05-02T11:05:07.353Z</time></trkpt><trkpt lat="39.3799767" lon="8.536065"><ele>553.0</ele><time>2026-05-02T11:05:09.355Z</time></trkpt><trkpt lat="39.3799917" lon="8.5359767"><ele>553.0</ele><time>2026-05-02T11:05:11.355Z</time></trkpt><trkpt lat="39.3800083" lon="8.5358883"><ele>553.0</ele><time>2026-05-02T11:05:14.392Z</time></trkpt><trkpt lat="39.3800483" lon="8.5358033"><ele>553.0</ele><time>2026-05-02T11:05:17.359Z</time></trkpt><trkpt lat="39.3801217" lon="8.5357367"><ele>553.0</ele><time>2026-05-02T11:05:20.383Z</time></trkpt><trkpt lat="39.380085" lon="8.5358133"><ele>553.0</ele><time>2026-05-02T11:05:28.358Z</time></trkpt><trkpt lat="39.3800317" lon="8.5359067"><ele>553.0</ele><time>2026-05-02T11:05:30.359Z</time></trkpt><trkpt lat="39.38" lon="8.5359983"><ele>553.0</ele><time>2026-05-02T11:05:32.406Z</time></trkpt><trkpt lat="39.3800033" lon="8.5360983"><ele>553.0</ele><time>2026-05-02T11:05:36.356Z</time></trkpt><trkpt lat="39.3800383" lon="8.536175"><ele>553.0</ele><time>2026-05-02T11:05:40.351Z</time></trkpt><trkpt lat="39.380055" lon="8.5362667"><ele>553.0</ele><time>2026-05-02T11:05:51.355Z</time></trkpt><trkpt lat="39.380035" lon="8.5363733"><ele>550.8</ele><time>2026-05-02T11:05:53.354Z</time></trkpt><trkpt lat="39.380025" lon="8.53651"><ele>548.5999999999999</ele><time>2026-05-02T11:05:55.354Z</time></trkpt><trkpt lat="39.3800083" lon="8.5366483"><ele>546.4000000000001</ele><time>2026-05-02T11:05:57.355Z</time></trkpt><trkpt lat="39.3799767" lon="8.5367517"><ele>544.2</ele><time>2026-05-02T11:05:59.353Z</time></trkpt><trkpt lat="39.379935" lon="8.5368367"><ele>542.0</ele><time>2026-05-02T11:06:01.352Z</time></trkpt><trkpt lat="39.3799117" lon="8.5369867"><ele>541.1666666666666</ele><time>2026-05-02T11:06:43.35Z</time></trkpt><trkpt lat="39.3798717" lon="8.5370717"><ele>540.3333333333333</ele><time>2026-05-02T11:06:45.352Z</time></trkpt><trkpt lat="39.3798083" lon="8.5371433"><ele>539.5</ele><time>2026-05-02T11:06:47.348Z</time></trkpt><trkpt lat="39.3797383" lon="8.53721"><ele>538.6666666666666</ele><time>2026-05-02T11:06:49.351Z</time></trkpt><trkpt lat="39.37968" lon="8.5372883"><ele>537.8333333333334</ele><time>2026-05-02T11:06:51.353Z</time></trkpt><trkpt lat="39.3796317" lon="8.5373783"><ele>537.0</ele><time>2026-05-02T11:06:53.352Z</time></trkpt><trkpt lat="39.3795967" lon="8.5374767"><ele>540.2</ele><time>2026-05-02T11:06:55.353Z</time></trkpt><trkpt lat="39.3795633" lon="8.5375717"><ele>543.4000000000001</ele><time>2026-05-02T11:06:57.354Z</time></trkpt><trkpt lat="39.37954" lon="8.53767"><ele>546.5999999999999</ele><time>2026-05-02T11:06:59.352Z</time></trkpt><trkpt lat="39.3795333" lon="8.5378117"><ele>549.8</ele><time>2026-05-02T11:07:01.354Z</time></trkpt><trkpt lat="39.379525" lon="8.5378933"><ele>553.0</ele><time>2026-05-02T11:07:02.403Z</time></trkpt><trkpt lat="39.3795033" lon="8.5380517"><ele>553.4285714285714</ele><time>2026-05-02T11:07:04.354Z</time></trkpt><trkpt lat="39.3795017" lon="8.5381333"><ele>553.8571428571429</ele><time>2026-05-02T11:07:05.357Z</time></trkpt><trkpt lat="39.3795083" lon="8.5382183"><ele>554.2857142857142</ele><time>2026-05-02T11:07:06.361Z</time></trkpt><trkpt lat="39.379515" lon="8.5383"><ele>554.7142857142858</ele><time>2026-05-02T11:07:07.358Z</time></trkpt><trkpt lat="39.3795167" lon="8.5383833"><ele>555.1428571428571</ele><time>2026-05-02T11:07:08.387Z</time></trkpt><trkpt lat="39.3795117" lon="8.5384717"><ele>555.5714285714286</ele><time>2026-05-02T11:07:09.352Z</time></trkpt><trkpt lat="39.3794983" lon="8.5385567"><ele>556.0</ele><time>2026-05-02T11:07:10.354Z</time></trkpt><trkpt lat="39.3794767" lon="8.5386467"><ele>555.1666666666667</ele><time>2026-05-02T11:07:11.356Z</time></trkpt><trkpt lat="39.3794433" lon="8.5387367"><ele>554.3333333333334</ele><time>2026-05-02T11:07:12.353Z</time></trkpt><trkpt lat="39.3794083" lon="8.5388333"><ele>553.5</ele><time>2026-05-02T11:07:13.352Z</time></trkpt><trkpt lat="39.379365" lon="8.5389217"><ele>552.6666666666666</ele><time>2026-05-02T11:07:14.384Z</time></trkpt><trkpt lat="39.3793167" lon="8.539005"><ele>551.8333333333333</ele><time>2026-05-02T11:07:15.353Z</time></trkpt><trkpt lat="39.3792633" lon="8.5390883"><ele>551.0</ele><time>2026-05-02T11:07:16.354Z</time></trkpt><trkpt lat="39.379205" lon="8.5391683"><ele>551.0</ele><time>2026-05-02T11:07:17.354Z</time></trkpt><trkpt lat="39.3791417" lon="8.5392433"><ele>551.0</ele><time>2026-05-02T11:07:18.354Z</time></trkpt><trkpt lat="39.3790767" lon="8.53931"><ele>551.0</ele><time>2026-05-02T11:07:19.355Z</time></trkpt><trkpt lat="39.379015" lon="8.5393783"><ele>551.0</ele><time>2026-05-02T11:07:20.386Z</time></trkpt><trkpt lat="39.3789583" lon="8.5394533"><ele>551.0</ele><time>2026-05-02T11:07:21.353Z</time></trkpt><trkpt lat="39.3788967" lon="8.539515"><ele>551.0</ele><time>2026-05-02T11:07:22.354Z</time></trkpt><trkpt lat="39.3788367" lon="8.5395683"><ele>550.8</ele><time>2026-05-02T11:07:23.355Z</time></trkpt><trkpt lat="39.3787767" lon="8.539605"><ele>550.6</ele><time>2026-05-02T11:07:24.36Z</time></trkpt><trkpt lat="39.37866" lon="8.5396217"><ele>550.4</ele><time>2026-05-02T11:07:26.423Z</time></trkpt><trkpt lat="39.3785567" lon="8.5395983"><ele>550.2</ele><time>2026-05-02T11:07:28.353Z</time></trkpt><trkpt lat="39.3784533" lon="8.53955"><ele>550.0</ele><time>2026-05-02T11:07:30.353Z</time></trkpt><trkpt lat="39.3783967" lon="8.5395117"><ele>553.0</ele><time>2026-05-02T11:07:31.354Z</time></trkpt><trkpt lat="39.3783333" lon="8.5394867"><ele>556.0</ele><time>2026-05-02T11:07:32.404Z</time></trkpt><trkpt lat="39.378265" lon="8.53947"><ele>559.0</ele><time>2026-05-02T11:07:33.355Z</time></trkpt><trkpt lat="39.37819" lon="8.5394717"><ele>562.0</ele><time>2026-05-02T11:07:34.354Z</time></trkpt><trkpt lat="39.3781017" lon="8.5394917"><ele>565.0</ele><time>2026-05-02T11:07:35.358Z</time></trkpt><trkpt lat="39.3780233" lon="8.539505"><ele>568.0</ele><time>2026-05-02T11:07:36.353Z</time></trkpt><trkpt lat="39.3779483" lon="8.5395067"><ele>568.0</ele><time>2026-05-02T11:07:37.356Z</time></trkpt><trkpt lat="39.37787" lon="8.5395033"><ele>568.0</ele><time>2026-05-02T11:07:38.386Z</time></trkpt><trkpt lat="39.3778033" lon="8.5394833"><ele>568.0</ele><time>2026-05-02T11:07:39.357Z</time></trkpt><trkpt lat="39.3777367" lon="8.5394517"><ele>568.0</ele><time>2026-05-02T11:07:40.352Z</time></trkpt><trkpt lat="39.3776667" lon="8.5394217"><ele>568.0</ele><time>2026-05-02T11:07:41.354Z</time></trkpt><trkpt lat="39.3775933" lon="8.539395"><ele>568.0</ele><time>2026-05-02T11:07:42.352Z</time></trkpt><trkpt lat="39.3775183" lon="8.53937"><ele>568.0</ele><time>2026-05-02T11:07:43.356Z</time></trkpt><trkpt lat="39.37745" lon="8.5393433"><ele>568.0</ele><time>2026-05-02T11:07:44.382Z</time></trkpt><trkpt lat="39.3773833" lon="8.5393067"><ele>568.0</ele><time>2026-05-02T11:07:45.354Z</time></trkpt><trkpt lat="39.37732" lon="8.5392617"><ele>568.0</ele><time>2026-05-02T11:07:46.353Z</time></trkpt><trkpt lat="39.37726" lon="8.5392033"><ele>568.0</ele><time>2026-05-02T11:07:47.354Z</time></trkpt><trkpt lat="39.377215" lon="8.5391383"><ele>568.0</ele><time>2026-05-02T11:07:48.355Z</time></trkpt><trkpt lat="39.3771833" lon="8.5390583"><ele>568.0</ele><time>2026-05-02T11:07:49.357Z</time></trkpt><trkpt lat="39.3771583" lon="8.5389733"><ele>568.0</ele><time>2026-05-02T11:07:50.382Z</time></trkpt><trkpt lat="39.3771267" lon="8.5388967"><ele>568.6666666666667</ele><time>2026-05-02T11:07:51.356Z</time></trkpt><trkpt lat="39.3770933" lon="8.5388217"><ele>569.3333333333334</ele><time>2026-05-02T11:07:52.356Z</time></trkpt><trkpt lat="39.3770533" lon="8.5387467"><ele>570.0</ele><time>2026-05-02T11:07:53.353Z</time></trkpt><trkpt lat="39.376995" lon="8.5386733"><ele>570.6666666666666</ele><time>2026-05-02T11:07:54.355Z</time></trkpt><trkpt lat="39.376925" lon="8.5386317"><ele>571.3333333333333</ele><time>2026-05-02T11:07:55.356Z</time></trkpt><trkpt lat="39.3768517" lon="8.5385817"><ele>572.0</ele><time>2026-05-02T11:07:56.422Z</time></trkpt><trkpt lat="39.3767683" lon="8.53853"><ele>572.0</ele><time>2026-05-02T11:07:57.352Z</time></trkpt><trkpt lat="39.3766883" lon="8.5384733"><ele>572.0</ele><time>2026-05-02T11:07:58.355Z</time></trkpt><trkpt lat="39.3766167" lon="8.5384017"><ele>572.0</ele><time>2026-05-02T11:07:59.353Z</time></trkpt><trkpt lat="39.3765483" lon="8.538325"><ele>572.0</ele><time>2026-05-02T11:08:00.35Z</time></trkpt><trkpt lat="39.3764833" lon="8.538245"><ele>572.0</ele><time>2026-05-02T11:08:01.353Z</time></trkpt><trkpt lat="39.3764167" lon="8.538165"><ele>572.0</ele><time>2026-05-02T11:08:02.402Z</time></trkpt><trkpt lat="39.3763567" lon="8.5380967"><ele>572.0</ele><time>2026-05-02T11:08:03.353Z</time></trkpt><trkpt lat="39.3762933" lon="8.5380367"><ele>572.0</ele><time>2026-05-02T11:08:04.352Z</time></trkpt><trkpt lat="39.37623" lon="8.537995"><ele>572.0</ele><time>2026-05-02T11:08:05.355Z</time></trkpt><trkpt lat="39.3761633" lon="8.5379517"><ele>572.0</ele><time>2026-05-02T11:08:06.35Z</time></trkpt><trkpt lat="39.376095" lon="8.5379083"><ele>572.0</ele><time>2026-05-02T11:08:07.353Z</time></trkpt><trkpt lat="39.37603" lon="8.53786"><ele>574.0</ele><time>2026-05-02T11:08:08.382Z</time></trkpt><trkpt lat="39.375965" lon="8.53781"><ele>576.0</ele><time>2026-05-02T11:08:09.349Z</time></trkpt><trkpt lat="39.3759083" lon="8.5377683"><ele>578.0</ele><time>2026-05-02T11:08:10.358Z</time></trkpt><trkpt lat="39.37585" lon="8.5377283"><ele>580.0</ele><time>2026-05-02T11:08:11.353Z</time></trkpt><trkpt lat="39.37573" lon="8.53768"><ele>582.0</ele><time>2026-05-02T11:08:13.355Z</time></trkpt><trkpt lat="39.3756267" lon="8.537675"><ele>584.0</ele><time>2026-05-02T11:08:15.356Z</time></trkpt><trkpt lat="39.37556" lon="8.5377167"><ele>584.0</ele><time>2026-05-02T11:08:17.355Z</time></trkpt><trkpt lat="39.3755267" lon="8.53779"><ele>584.0</ele><time>2026-05-02T11:08:19.35Z</time></trkpt><trkpt lat="39.375525" lon="8.537915"><ele>584.0</ele><time>2026-05-02T11:08:21.358Z</time></trkpt><trkpt lat="39.3755467" lon="8.538075"><ele>584.0</ele><time>2026-05-02T11:08:23.354Z</time></trkpt><trkpt lat="39.37556" lon="8.5381617"><ele>584.0</ele><time>2026-05-02T11:08:24.354Z</time></trkpt><trkpt lat="39.3755817" lon="8.5382533"><ele>584.0</ele><time>2026-05-02T11:08:25.353Z</time></trkpt><trkpt lat="39.3756083" lon="8.5383383"><ele>582.0</ele><time>2026-05-02T11:08:26.372Z</time></trkpt><trkpt lat="39.37564" lon="8.538425"><ele>580.0</ele><time>2026-05-02T11:08:27.353Z</time></trkpt><trkpt lat="39.3756717" lon="8.5384983"><ele>578.0</ele><time>2026-05-02T11:08:28.354Z</time></trkpt><trkpt lat="39.3757167" lon="8.5386317"><ele>576.0</ele><time>2026-05-02T11:08:30.356Z</time></trkpt><trkpt lat="39.375715" lon="8.538725"><ele>574.0</ele><time>2026-05-02T11:08:32.399Z</time></trkpt><trkpt lat="39.3756533" lon="8.5387817"><ele>572.0</ele><time>2026-05-02T11:08:34.352Z</time></trkpt><trkpt lat="39.3755517" lon="8.5387933"><ele>576.6</ele><time>2026-05-02T11:08:36.354Z</time></trkpt><trkpt lat="39.3754883" lon="8.538795"><ele>581.2</ele><time>2026-05-02T11:08:37.359Z</time></trkpt><trkpt lat="39.3754217" lon="8.5388083"><ele>585.8</ele><time>2026-05-02T11:08:38.384Z</time></trkpt><trkpt lat="39.375305" lon="8.5388717"><ele>590.4</ele><time>2026-05-02T11:08:40.353Z</time></trkpt><trkpt lat="39.37522" lon="8.5389783"><ele>595.0</ele><time>2026-05-02T11:08:42.352Z</time></trkpt><trkpt lat="39.3752067" lon="8.5391167"><ele>595.0</ele><time>2026-05-02T11:08:44.381Z</time></trkpt><trkpt lat="39.37523" lon="8.5392"><ele>595.0</ele><time>2026-05-02T11:08:45.356Z</time></trkpt><trkpt lat="39.3752533" lon="8.5392867"><ele>595.0</ele><time>2026-05-02T11:08:46.35Z</time></trkpt><trkpt lat="39.375275" lon="8.5393767"><ele>595.0</ele><time>2026-05-02T11:08:47.35Z</time></trkpt><trkpt lat="39.375295" lon="8.5395133"><ele>595.0</ele><time>2026-05-02T11:08:49.357Z</time></trkpt><trkpt lat="39.3753017" lon="8.5395983"><ele>595.0</ele><time>2026-05-02T11:08:51.354Z</time></trkpt><trkpt lat="39.3753217" lon="8.539685"><ele>596.4</ele><time>2026-05-02T11:10:05.351Z</time></trkpt><trkpt lat="39.375325" lon="8.5398167"><ele>597.8</ele><time>2026-05-02T11:10:07.354Z</time></trkpt><trkpt lat="39.3753383" lon="8.5399667"><ele>599.2</ele><time>2026-05-02T11:10:09.354Z</time></trkpt><trkpt lat="39.3753733" lon="8.5401083"><ele>600.6</ele><time>2026-05-02T11:10:11.354Z</time></trkpt><trkpt lat="39.37544" lon="8.5401967"><ele>602.0</ele><time>2026-05-02T11:10:13.353Z</time></trkpt><trkpt lat="39.375535" lon="8.54023"><ele>599.0</ele><time>2026-05-02T11:10:15.353Z</time></trkpt><trkpt lat="39.3756483" lon="8.540205"><ele>596.0</ele><time>2026-05-02T11:10:17.351Z</time></trkpt><trkpt lat="39.3757233" lon="8.5401767"><ele>593.0</ele><time>2026-05-02T11:10:18.352Z</time></trkpt><trkpt lat="39.3758017" lon="8.5401483"><ele>590.0</ele><time>2026-05-02T11:10:19.354Z</time></trkpt><trkpt lat="39.3758867" lon="8.540115"><ele>587.0</ele><time>2026-05-02T11:10:20.385Z</time></trkpt><trkpt lat="39.3759667" lon="8.5400933"><ele>584.0</ele><time>2026-05-02T11:10:21.353Z</time></trkpt><trkpt lat="39.3760417" lon="8.5400783"><ele>584.0</ele><time>2026-05-02T11:10:22.352Z</time></trkpt><trkpt lat="39.37611" lon="8.54007"><ele>584.0</ele><time>2026-05-02T11:10:23.354Z</time></trkpt><trkpt lat="39.3761733" lon="8.5400817"><ele>584.0</ele><time>2026-05-02T11:10:24.351Z</time></trkpt><trkpt lat="39.3762883" lon="8.54014"><ele>584.0</ele><time>2026-05-02T11:10:26.418Z</time></trkpt><trkpt lat="39.376335" lon="8.540195"><ele>584.0</ele><time>2026-05-02T11:10:27.349Z</time></trkpt><trkpt lat="39.3763817" lon="8.5402667"><ele>584.0</ele><time>2026-05-02T11:10:28.353Z</time></trkpt><trkpt lat="39.3764083" lon="8.5403483"><ele>582.3333333333333</ele><time>2026-05-02T11:10:29.35Z</time></trkpt><trkpt lat="39.3764283" lon="8.54044"><ele>580.6666666666666</ele><time>2026-05-02T11:10:30.35Z</time></trkpt><trkpt lat="39.3764433" lon="8.5405217"><ele>579.0</ele><time>2026-05-02T11:10:31.353Z</time></trkpt><trkpt lat="39.37645" lon="8.5406683"><ele>577.3333333333334</ele><time>2026-05-02T11:10:33.354Z</time></trkpt><trkpt lat="39.376435" lon="8.54078"><ele>575.6666666666667</ele><time>2026-05-02T11:10:35.355Z</time></trkpt><trkpt lat="39.3764017" lon="8.5408633"><ele>574.0</ele><time>2026-05-02T11:10:38.38Z</time></trkpt><trkpt lat="39.3763483" lon="8.540805"><ele>575.4285714285714</ele><time>2026-05-02T11:10:40.351Z</time></trkpt><trkpt lat="39.3763233" lon="8.54073"><ele>576.8571428571429</ele><time>2026-05-02T11:10:41.353Z</time></trkpt><trkpt lat="39.3763" lon="8.54065"><ele>578.2857142857142</ele><time>2026-05-02T11:10:42.355Z</time></trkpt><trkpt lat="39.3762717" lon="8.5405733"><ele>579.7142857142858</ele><time>2026-05-02T11:10:43.35Z</time></trkpt><trkpt lat="39.3762333" lon="8.540505"><ele>581.1428571428571</ele><time>2026-05-02T11:10:44.382Z</time></trkpt><trkpt lat="39.376185" lon="8.5404467"><ele>582.5714285714286</ele><time>2026-05-02T11:10:45.352Z</time></trkpt><trkpt lat="39.3761267" lon="8.54041"><ele>584.0</ele><time>2026-05-02T11:10:46.353Z</time></trkpt><trkpt lat="39.3759967" lon="8.540375"><ele>586.8333333333333</ele><time>2026-05-02T11:10:48.351Z</time></trkpt><trkpt lat="39.3759133" lon="8.5403883"><ele>589.6666666666666</ele><time>2026-05-02T11:10:49.349Z</time></trkpt><trkpt lat="39.375825" lon="8.540425"><ele>592.5</ele><time>2026-05-02T11:10:50.382Z</time></trkpt><trkpt lat="39.37575" lon="8.5404633"><ele>595.3333333333334</ele><time>2026-05-02T11:10:51.35Z</time></trkpt><trkpt lat="39.3756817" lon="8.540515"><ele>598.1666666666667</ele><time>2026-05-02T11:10:52.35Z</time></trkpt><trkpt lat="39.375615" lon="8.5405767"><ele>601.0</ele><time>2026-05-02T11:10:53.353Z</time></trkpt><trkpt lat="39.375555" lon="8.540645"><ele>602.8333333333334</ele><time>2026-05-02T11:10:54.353Z</time></trkpt><trkpt lat="39.3755" lon="8.5407067"><ele>604.6666666666667</ele><time>2026-05-02T11:10:55.351Z</time></trkpt><trkpt lat="39.3754433" lon="8.540755"><ele>606.5</ele><time>2026-05-02T11:10:56.418Z</time></trkpt><trkpt lat="39.3753317" lon="8.5408"><ele>608.3333333333334</ele><time>2026-05-02T11:10:58.351Z</time></trkpt><trkpt lat="39.3752183" lon="8.5407867"><ele>610.1666666666666</ele><time>2026-05-02T11:11:00.352Z</time></trkpt><trkpt lat="39.37516" lon="8.540755"><ele>612.0</ele><time>2026-05-02T11:11:01.352Z</time></trkpt><trkpt lat="39.3751" lon="8.54071"><ele>612.0</ele><time>2026-05-02T11:11:02.397Z</time></trkpt><trkpt lat="39.3750417" lon="8.54066"><ele>612.0</ele><time>2026-05-02T11:11:03.354Z</time></trkpt><trkpt lat="39.3749917" lon="8.5405933"><ele>612.0</ele><time>2026-05-02T11:11:04.351Z</time></trkpt><trkpt lat="39.37495" lon="8.5405217"><ele>612.0</ele><time>2026-05-02T11:11:05.35Z</time></trkpt><trkpt lat="39.37492" lon="8.540375"><ele>612.0</ele><time>2026-05-02T11:11:07.352Z</time></trkpt><trkpt lat="39.3749133" lon="8.54026"><ele>612.0</ele><time>2026-05-02T11:11:09.351Z</time></trkpt><trkpt lat="39.3749283" lon="8.54034"><ele>612.0</ele><time>2026-05-02T11:11:26.418Z</time></trkpt><trkpt lat="39.3749567" lon="8.5404617"><ele>612.0</ele><time>2026-05-02T11:11:28.352Z</time></trkpt><trkpt lat="39.3750267" lon="8.5405717"><ele>612.0</ele><time>2026-05-02T11:11:30.353Z</time></trkpt><trkpt lat="39.375125" lon="8.5406617"><ele>612.0</ele><time>2026-05-02T11:11:32.4Z</time></trkpt><trkpt lat="39.37518" lon="8.5407067"><ele>612.0</ele><time>2026-05-02T11:11:33.353Z</time></trkpt><trkpt lat="39.3752883" lon="8.5407833"><ele>612.0</ele><time>2026-05-02T11:11:35.356Z</time></trkpt><trkpt lat="39.3753967" lon="8.5407917"><ele>612.0</ele><time>2026-05-02T11:11:37.352Z</time></trkpt><trkpt lat="39.3754917" lon="8.540725"><ele>612.0</ele><time>2026-05-02T11:11:39.353Z</time></trkpt><trkpt lat="39.3755817" lon="8.5406283"><ele>612.0</ele><time>2026-05-02T11:11:41.353Z</time></trkpt><trkpt lat="39.3756667" lon="8.54053"><ele>612.0</ele><time>2026-05-02T11:11:43.351Z</time></trkpt><trkpt lat="39.37574" lon="8.5404483"><ele>610.1666666666666</ele><time>2026-05-02T11:11:45.352Z</time></trkpt><trkpt lat="39.3758033" lon="8.5403867"><ele>608.3333333333334</ele><time>2026-05-02T11:11:48.352Z</time></trkpt><trkpt lat="39.37581" lon="8.5402567"><ele>606.5</ele><time>2026-05-02T11:12:42.353Z</time></trkpt><trkpt lat="39.3758217" lon="8.54016"><ele>604.6666666666667</ele><time>2026-05-02T11:13:42.352Z</time></trkpt><trkpt lat="39.3759233" lon="8.5401433"><ele>602.8333333333334</ele><time>2026-05-02T11:13:50.382Z</time></trkpt><trkpt lat="39.3758517" lon="8.5402117"><ele>601.0</ele><time>2026-05-02T11:14:05.354Z</time></trkpt><trkpt lat="39.3757633" lon="8.5402783"><ele>601.0</ele><time>2026-05-02T11:14:07.362Z</time></trkpt><trkpt lat="39.375675" lon="8.5403617"><ele>601.0</ele><time>2026-05-02T11:14:09.351Z</time></trkpt><trkpt lat="39.3756017" lon="8.5404633"><ele>601.0</ele><time>2026-05-02T11:14:11.353Z</time></trkpt><trkpt lat="39.3755383" lon="8.5405617"><ele>601.0</ele><time>2026-05-02T11:14:13.351Z</time></trkpt><trkpt lat="39.3754783" lon="8.5406333"><ele>601.0</ele><time>2026-05-02T11:14:15.354Z</time></trkpt><trkpt lat="39.3754117" lon="8.54066"><ele>602.8333333333334</ele><time>2026-05-02T11:14:17.353Z</time></trkpt><trkpt lat="39.3753317" lon="8.5406467"><ele>604.6666666666667</ele><time>2026-05-02T11:14:19.354Z</time></trkpt><trkpt lat="39.375265" lon="8.5406117"><ele>606.5</ele><time>2026-05-02T11:14:21.353Z</time></trkpt><trkpt lat="39.3751983" lon="8.5405783"><ele>608.3333333333334</ele><time>2026-05-02T11:14:23.353Z</time></trkpt><trkpt lat="39.3751167" lon="8.5405217"><ele>610.1666666666666</ele><time>2026-05-02T11:14:26.399Z</time></trkpt><trkpt lat="39.3750517" lon="8.54048"><ele>612.0</ele><time>2026-05-02T11:14:29.353Z</time></trkpt><trkpt lat="39.37501" lon="8.5403983"><ele>610.5714285714286</ele><time>2026-05-02T11:14:33.354Z</time></trkpt><trkpt lat="39.37501" lon="8.5402983"><ele>609.1428571428571</ele><time>2026-05-02T11:14:36.357Z</time></trkpt><trkpt lat="39.3750183" lon="8.54021"><ele>607.7142857142858</ele><time>2026-05-02T11:14:38.385Z</time></trkpt><trkpt lat="39.375025" lon="8.5401183"><ele>606.2857142857142</ele><time>2026-05-02T11:14:40.355Z</time></trkpt><trkpt lat="39.375025" lon="8.54003"><ele>604.8571428571429</ele><time>2026-05-02T11:14:42.351Z</time></trkpt><trkpt lat="39.3749633" lon="8.5400567"><ele>603.4285714285714</ele><time>2026-05-02T11:18:38.389Z</time></trkpt><trkpt lat="39.3748783" lon="8.5400217"><ele>602.0</ele><time>2026-05-02T11:24:43.354Z</time></trkpt><trkpt lat="39.3747933" lon="8.54007"><ele>602.0</ele><time>2026-05-02T11:44:11.348Z</time></trkpt><trkpt lat="39.3748833" lon="8.5400517"><ele>602.0</ele><time>2026-05-02T11:52:48.346Z</time></trkpt><trkpt lat="39.3749583" lon="8.5399883"><ele>602.0</ele><time>2026-05-02T12:04:03.35Z</time></trkpt><trkpt lat="39.3748667" lon="8.5399833"><ele>602.0</ele><time>2026-05-02T12:19:27.337Z</time></trkpt><trkpt lat="39.3748583" lon="8.539855"><ele>602.0</ele><time>2026-05-02T12:35:07.335Z</time></trkpt><trkpt lat="39.37485" lon="8.5397683"><ele>602.0</ele><time>2026-05-02T12:35:10.335Z</time></trkpt><trkpt lat="39.37484" lon="8.5396867"><ele>602.0</ele><time>2026-05-02T12:35:12.334Z</time></trkpt><trkpt lat="39.3748267" lon="8.539595"><ele>602.0</ele><time>2026-05-02T12:35:14.377Z</time></trkpt><trkpt lat="39.3748067" lon="8.53951"><ele>602.0</ele><time>2026-05-02T12:35:16.339Z</time></trkpt><trkpt lat="39.3747917" lon="8.5394283"><ele>602.0</ele><time>2026-05-02T12:35:18.336Z</time></trkpt><trkpt lat="39.3747933" lon="8.539325"><ele>602.0</ele><time>2026-05-02T12:35:20.375Z</time></trkpt><trkpt lat="39.3747833" lon="8.5392217"><ele>602.0</ele><time>2026-05-02T12:35:22.336Z</time></trkpt><trkpt lat="39.3747533" lon="8.5391267"><ele>602.0</ele><time>2026-05-02T12:35:24.332Z</time></trkpt><trkpt lat="39.3747067" lon="8.5390367"><ele>606.5</ele><time>2026-05-02T12:35:26.395Z</time></trkpt><trkpt lat="39.374645" lon="8.53896"><ele>611.0</ele><time>2026-05-02T12:35:28.335Z</time></trkpt><trkpt lat="39.3745917" lon="8.538875"><ele>615.5</ele><time>2026-05-02T12:35:30.336Z</time></trkpt><trkpt lat="39.3745483" lon="8.5387767"><ele>620.0</ele><time>2026-05-02T12:35:32.388Z</time></trkpt><trkpt lat="39.37452" lon="8.538675"><ele>624.5</ele><time>2026-05-02T12:35:34.334Z</time></trkpt><trkpt lat="39.3744967" lon="8.53857"><ele>629.0</ele><time>2026-05-02T12:35:36.335Z</time></trkpt><trkpt lat="39.3744833" lon="8.5384633"><ele>629.0</ele><time>2026-05-02T12:35:38.375Z</time></trkpt><trkpt lat="39.3744733" lon="8.5383417"><ele>629.0</ele><time>2026-05-02T12:35:40.338Z</time></trkpt><trkpt lat="39.3744933" lon="8.5382017"><ele>629.0</ele><time>2026-05-02T12:35:42.336Z</time></trkpt><trkpt lat="39.3745217" lon="8.5380567"><ele>629.0</ele><time>2026-05-02T12:35:44.378Z</time></trkpt><trkpt lat="39.3745667" lon="8.537915"><ele>629.0</ele><time>2026-05-02T12:35:46.336Z</time></trkpt><trkpt lat="39.3746083" lon="8.537785"><ele>629.5</ele><time>2026-05-02T12:35:48.335Z</time></trkpt><trkpt lat="39.374635" lon="8.5376533"><ele>630.0</ele><time>2026-05-02T12:35:50.378Z</time></trkpt><trkpt lat="39.3746467" lon="8.5375133"><ele>630.5</ele><time>2026-05-02T12:35:52.338Z</time></trkpt><trkpt lat="39.374655" lon="8.5373617"><ele>631.0</ele><time>2026-05-02T12:35:54.334Z</time></trkpt><trkpt lat="39.37466" lon="8.5372083"><ele>631.0</ele><time>2026-05-02T12:35:56.375Z</time></trkpt><trkpt lat="39.37466" lon="8.5370533"><ele>631.0</ele><time>2026-05-02T12:35:58.335Z</time></trkpt><trkpt lat="39.374655" lon="8.5368983"><ele>631.0</ele><time>2026-05-02T12:36:00.336Z</time></trkpt><trkpt lat="39.3746483" lon="8.5367517"><ele>631.0</ele><time>2026-05-02T12:36:02.387Z</time></trkpt><trkpt lat="39.37464" lon="8.536605"><ele>631.25</ele><time>2026-05-02T12:36:04.334Z</time></trkpt><trkpt lat="39.3746383" lon="8.536455"><ele>631.5</ele><time>2026-05-02T12:36:06.335Z</time></trkpt><trkpt lat="39.3746533" lon="8.5363033"><ele>631.75</ele><time>2026-05-02T12:36:08.378Z</time></trkpt><trkpt lat="39.3746633" lon="8.5361467"><ele>632.0</ele><time>2026-05-02T12:36:10.333Z</time></trkpt><trkpt lat="39.374655" lon="8.5359967"><ele>632.2</ele><time>2026-05-02T12:36:12.332Z</time></trkpt><trkpt lat="39.374635" lon="8.535855"><ele>632.4000000000001</ele><time>2026-05-02T12:36:14.374Z</time></trkpt><trkpt lat="39.3746183" lon="8.53572"><ele>632.5999999999999</ele><time>2026-05-02T12:36:16.332Z</time></trkpt><trkpt lat="39.3746267" lon="8.5355883"><ele>632.8</ele><time>2026-05-02T12:36:18.335Z</time></trkpt><trkpt lat="39.3746433" lon="8.5354767"><ele>633.0</ele><time>2026-05-02T12:36:20.373Z</time></trkpt><trkpt lat="39.3745883" lon="8.5352833"><ele>629.5</ele><time>2026-05-02T12:36:51.334Z</time></trkpt><trkpt lat="39.3744817" lon="8.53519"><ele>626.0</ele><time>2026-05-02T12:36:53.33Z</time></trkpt><trkpt lat="39.3743933" lon="8.535095"><ele>622.5</ele><time>2026-05-02T12:36:55.335Z</time></trkpt><trkpt lat="39.3743267" lon="8.5349783"><ele>619.0</ele><time>2026-05-02T12:36:57.334Z</time></trkpt><trkpt lat="39.3742983" lon="8.5348217"><ele>619.0</ele><time>2026-05-02T12:36:59.334Z</time></trkpt><trkpt lat="39.3742783" lon="8.5347317"><ele>619.0</ele><time>2026-05-02T12:37:00.331Z</time></trkpt><trkpt lat="39.374275" lon="8.5346233"><ele>619.0</ele><time>2026-05-02T12:37:01.332Z</time></trkpt><trkpt lat="39.3742767" lon="8.534515"><ele>619.0</ele><time>2026-05-02T12:37:02.386Z</time></trkpt><trkpt lat="39.3742867" lon="8.5344017"><ele>619.0</ele><time>2026-05-02T12:37:03.333Z</time></trkpt><trkpt lat="39.3743" lon="8.5342833"><ele>619.0</ele><time>2026-05-02T12:37:04.333Z</time></trkpt><trkpt lat="39.37432" lon="8.53418"><ele>615.3333333333334</ele><time>2026-05-02T12:37:05.335Z</time></trkpt><trkpt lat="39.3743467" lon="8.5340817"><ele>611.6666666666667</ele><time>2026-05-02T12:37:06.338Z</time></trkpt><trkpt lat="39.37439" lon="8.5339967"><ele>608.0</ele><time>2026-05-02T12:37:07.334Z</time></trkpt><trkpt lat="39.374445" lon="8.5339233"><ele>604.3333333333334</ele><time>2026-05-02T12:37:08.376Z</time></trkpt><trkpt lat="39.3744983" lon="8.5338633"><ele>600.6666666666666</ele><time>2026-05-02T12:37:09.332Z</time></trkpt><trkpt lat="39.3745567" lon="8.5338117"><ele>597.0</ele><time>2026-05-02T12:37:10.333Z</time></trkpt><trkpt lat="39.3746417" lon="8.5337867"><ele>598.3333333333334</ele><time>2026-05-02T12:37:11.332Z</time></trkpt><trkpt lat="39.37473" lon="8.5337917"><ele>599.6666666666666</ele><time>2026-05-02T12:37:12.332Z</time></trkpt><trkpt lat="39.3748067" lon="8.53379"><ele>601.0</ele><time>2026-05-02T12:37:13.33Z</time></trkpt><trkpt lat="39.3748817" lon="8.5337767"><ele>602.3333333333333</ele><time>2026-05-02T12:37:14.375Z</time></trkpt><trkpt lat="39.374955" lon="8.5337483"><ele>603.6666666666666</ele><time>2026-05-02T12:37:15.333Z</time></trkpt><trkpt lat="39.37502" lon="8.5337"><ele>605.0</ele><time>2026-05-02T12:37:16.333Z</time></trkpt><trkpt lat="39.3750817" lon="8.5336383"><ele>605.0</ele><time>2026-05-02T12:37:17.333Z</time></trkpt><trkpt lat="39.3751367" lon="8.53356"><ele>605.0</ele><time>2026-05-02T12:37:18.334Z</time></trkpt><trkpt lat="39.37518" lon="8.533465"><ele>605.0</ele><time>2026-05-02T12:37:19.33Z</time></trkpt><trkpt lat="39.3752167" lon="8.533365"><ele>605.0</ele><time>2026-05-02T12:37:20.372Z</time></trkpt><trkpt lat="39.3752433" lon="8.5332517"><ele>605.0</ele><time>2026-05-02T12:37:21.33Z</time></trkpt><trkpt lat="39.3752633" lon="8.5331333"><ele>605.0</ele><time>2026-05-02T12:37:22.333Z</time></trkpt><trkpt lat="39.3752717" lon="8.5330167"><ele>605.0</ele><time>2026-05-02T12:37:23.33Z</time></trkpt><trkpt lat="39.3752667" lon="8.5329017"><ele>605.0</ele><time>2026-05-02T12:37:24.332Z</time></trkpt><trkpt lat="39.3752383" lon="8.53279"><ele>605.0</ele><time>2026-05-02T12:37:25.333Z</time></trkpt><trkpt lat="39.3752" lon="8.5326717"><ele>605.0</ele><time>2026-05-02T12:37:26.393Z</time></trkpt><trkpt lat="39.3751583" lon="8.5325667"><ele>605.0</ele><time>2026-05-02T12:37:27.331Z</time></trkpt><trkpt lat="39.375125" lon="8.5324583"><ele>604.0</ele><time>2026-05-02T12:37:28.331Z</time></trkpt><trkpt lat="39.3751117" lon="8.532375"><ele>603.0</ele><time>2026-05-02T12:37:29.33Z</time></trkpt><trkpt lat="39.375115" lon="8.5322217"><ele>602.0</ele><time>2026-05-02T12:37:31.333Z</time></trkpt><trkpt lat="39.3751783" lon="8.5320933"><ele>601.0</ele><time>2026-05-02T12:37:33.332Z</time></trkpt><trkpt lat="39.37523" lon="8.53203"><ele>600.0</ele><time>2026-05-02T12:37:34.334Z</time></trkpt><trkpt lat="39.3752833" lon="8.53197"><ele>599.0</ele><time>2026-05-02T12:37:35.335Z</time></trkpt><trkpt lat="39.3753383" lon="8.5319033"><ele>599.6</ele><time>2026-05-02T12:37:36.334Z</time></trkpt><trkpt lat="39.37541" lon="8.53183"><ele>600.2</ele><time>2026-05-02T12:37:37.332Z</time></trkpt><trkpt lat="39.3754933" lon="8.5317567"><ele>600.8000000000001</ele><time>2026-05-02T12:37:38.376Z</time></trkpt><trkpt lat="39.3755667" lon="8.5316833"><ele>601.4</ele><time>2026-05-02T12:37:39.333Z</time></trkpt><trkpt lat="39.375635" lon="8.5316117"><ele>602.0</ele><time>2026-05-02T12:37:40.33Z</time></trkpt><trkpt lat="39.3756933" lon="8.5315433"><ele>602.0</ele><time>2026-05-02T12:37:41.338Z</time></trkpt><trkpt lat="39.37574" lon="8.53147"><ele>602.0</ele><time>2026-05-02T12:37:42.335Z</time></trkpt><trkpt lat="39.375775" lon="8.53139"><ele>602.0</ele><time>2026-05-02T12:37:43.333Z</time></trkpt><trkpt lat="39.375825" lon="8.5312367"><ele>602.0</ele><time>2026-05-02T12:37:45.334Z</time></trkpt><trkpt lat="39.3758383" lon="8.531085"><ele>602.0</ele><time>2026-05-02T12:37:47.334Z</time></trkpt><trkpt lat="39.3758267" lon="8.5310033"><ele>603.0</ele><time>2026-05-02T12:37:48.336Z</time></trkpt><trkpt lat="39.3757783" lon="8.5309117"><ele>604.0</ele><time>2026-05-02T12:37:49.333Z</time></trkpt><trkpt lat="39.3757233" lon="8.530825"><ele>605.0</ele><time>2026-05-02T12:37:50.373Z</time></trkpt><trkpt lat="39.3756583" lon="8.5307333"><ele>606.0</ele><time>2026-05-02T12:37:51.331Z</time></trkpt><trkpt lat="39.3755967" lon="8.5306467"><ele>607.0</ele><time>2026-05-02T12:37:52.332Z</time></trkpt><trkpt lat="39.3755433" lon="8.5305683"><ele>608.0</ele><time>2026-05-02T12:37:53.336Z</time></trkpt><trkpt lat="39.3754833" lon="8.5304967"><ele>604.3333333333333</ele><time>2026-05-02T12:37:54.335Z</time></trkpt><trkpt lat="39.375405" lon="8.5304417"><ele>600.6666666666666</ele><time>2026-05-02T12:37:55.332Z</time></trkpt><trkpt lat="39.3753233" lon="8.530395"><ele>597.0</ele><time>2026-05-02T12:37:56.395Z</time></trkpt><trkpt lat="39.3752583" lon="8.5303817"><ele>593.3333333333334</ele><time>2026-05-02T12:37:57.334Z</time></trkpt><trkpt lat="39.3752533" lon="8.5304783"><ele>589.6666666666667</ele><time>2026-05-02T12:37:59.332Z</time></trkpt><trkpt lat="39.3752833" lon="8.5305917"><ele>586.0</ele><time>2026-05-02T12:38:01.334Z</time></trkpt><trkpt lat="39.3753117" lon="8.5306667"><ele>584.3333333333334</ele><time>2026-05-02T12:38:02.385Z</time></trkpt><trkpt lat="39.3753583" lon="8.5307633"><ele>582.6666666666667</ele><time>2026-05-02T12:38:03.338Z</time></trkpt><trkpt lat="39.3754033" lon="8.5308667"><ele>581.0</ele><time>2026-05-02T12:38:04.33Z</time></trkpt><trkpt lat="39.3754467" lon="8.5309683"><ele>579.3333333333334</ele><time>2026-05-02T12:38:05.334Z</time></trkpt><trkpt lat="39.37548" lon="8.5310683"><ele>577.6666666666666</ele><time>2026-05-02T12:38:06.338Z</time></trkpt><trkpt lat="39.3755033" lon="8.531165"><ele>576.0</ele><time>2026-05-02T12:38:07.335Z</time></trkpt><trkpt lat="39.375515" lon="8.53125"><ele>576.0</ele><time>2026-05-02T12:38:08.379Z</time></trkpt><trkpt lat="39.3755167" lon="8.5313333"><ele>576.0</ele><time>2026-05-02T12:38:09.334Z</time></trkpt><trkpt lat="39.3755" lon="8.53144"><ele>576.0</ele><time>2026-05-02T12:38:10.334Z</time></trkpt><trkpt lat="39.3754683" lon="8.5315333"><ele>576.0</ele><time>2026-05-02T12:38:11.334Z</time></trkpt><trkpt lat="39.3754083" lon="8.5315983"><ele>576.0</ele><time>2026-05-02T12:38:12.332Z</time></trkpt><trkpt lat="39.3753333" lon="8.5316533"><ele>576.0</ele><time>2026-05-02T12:38:13.331Z</time></trkpt><trkpt lat="39.37523" lon="8.5317033"><ele>576.0</ele><time>2026-05-02T12:38:14.373Z</time></trkpt><trkpt lat="39.37512" lon="8.53175"><ele>576.0</ele><time>2026-05-02T12:38:15.332Z</time></trkpt><trkpt lat="39.375" lon="8.53181"><ele>576.0</ele><time>2026-05-02T12:38:16.332Z</time></trkpt><trkpt lat="39.3748733" lon="8.531865"><ele>576.0</ele><time>2026-05-02T12:38:17.334Z</time></trkpt><trkpt lat="39.3747433" lon="8.5319067"><ele>573.2</ele><time>2026-05-02T12:38:18.332Z</time></trkpt><trkpt lat="39.3746333" lon="8.531945"><ele>570.4000000000001</ele><time>2026-05-02T12:38:19.332Z</time></trkpt><trkpt lat="39.374535" lon="8.5319983"><ele>567.6</ele><time>2026-05-02T12:38:20.375Z</time></trkpt><trkpt lat="39.3744567" lon="8.5320667"><ele>564.8000000000001</ele><time>2026-05-02T12:38:21.333Z</time></trkpt><trkpt lat="39.37437" lon="8.5321267"><ele>562.0</ele><time>2026-05-02T12:38:22.332Z</time></trkpt><trkpt lat="39.3743133" lon="8.532185"><ele>562.0</ele><time>2026-05-02T12:38:23.336Z</time></trkpt><trkpt lat="39.3742283" lon="8.5322733"><ele>562.0</ele><time>2026-05-02T12:38:25.332Z</time></trkpt><trkpt lat="39.3741283" lon="8.5323133"><ele>562.0</ele><time>2026-05-02T12:38:27.336Z</time></trkpt><trkpt lat="39.374055" lon="8.5322867"><ele>562.0</ele><time>2026-05-02T12:38:29.336Z</time></trkpt><trkpt lat="39.3740433" lon="8.5321983"><ele>562.0</ele><time>2026-05-02T12:38:31.331Z</time></trkpt><trkpt lat="39.3740683" lon="8.5320933"><ele>562.0</ele><time>2026-05-02T12:38:33.331Z</time></trkpt><trkpt lat="39.3741483" lon="8.5319833"><ele>560.8333333333334</ele><time>2026-05-02T12:38:35.335Z</time></trkpt><trkpt lat="39.37421" lon="8.5319233"><ele>559.6666666666667</ele><time>2026-05-02T12:38:36.335Z</time></trkpt><trkpt lat="39.37428" lon="8.5318617"><ele>558.5</ele><time>2026-05-02T12:38:37.334Z</time></trkpt><trkpt lat="39.3743483" lon="8.5318033"><ele>557.3333333333334</ele><time>2026-05-02T12:38:38.377Z</time></trkpt><trkpt lat="39.37442" lon="8.5317383"><ele>556.1666666666666</ele><time>2026-05-02T12:38:39.333Z</time></trkpt><trkpt lat="39.3744967" lon="8.5316717"><ele>555.0</ele><time>2026-05-02T12:38:40.335Z</time></trkpt><trkpt lat="39.374575" lon="8.5316083"><ele>555.0000000000001</ele><time>2026-05-02T12:38:41.332Z</time></trkpt><trkpt lat="39.3746517" lon="8.531545"><ele>555.0</ele><time>2026-05-02T12:38:42.333Z</time></trkpt><trkpt lat="39.374725" lon="8.5314883"><ele>555.0</ele><time>2026-05-02T12:38:43.334Z</time></trkpt><trkpt lat="39.3747917" lon="8.5314383"><ele>555.0</ele><time>2026-05-02T12:38:44.375Z</time></trkpt><trkpt lat="39.3748333" lon="8.5313717"><ele>555.0</ele><time>2026-05-02T12:38:45.354Z</time></trkpt><trkpt lat="39.3748733" lon="8.5313083"><ele>555.0000000000001</ele><time>2026-05-02T12:38:46.337Z</time></trkpt><trkpt lat="39.3749083" lon="8.53124"><ele>555.0</ele><time>2026-05-02T12:38:47.335Z</time></trkpt><trkpt lat="39.37495" lon="8.53112"><ele>552.2</ele><time>2026-05-02T12:38:49.331Z</time></trkpt><trkpt lat="39.3749633" lon="8.5310017"><ele>549.4</ele><time>2026-05-02T12:38:51.331Z</time></trkpt><trkpt lat="39.3749" lon="8.530875"><ele>546.6</ele><time>2026-05-02T12:38:53.334Z</time></trkpt><trkpt lat="39.37483" lon="8.5308133"><ele>543.8</ele><time>2026-05-02T12:38:54.335Z</time></trkpt><trkpt lat="39.374745" lon="8.5307317"><ele>541.0</ele><time>2026-05-02T12:38:55.338Z</time></trkpt><trkpt lat="39.3746733" lon="8.53065"><ele>541.0</ele><time>2026-05-02T12:38:56.392Z</time></trkpt><trkpt lat="39.3746167" lon="8.53057"><ele>541.0</ele><time>2026-05-02T12:38:57.333Z</time></trkpt><trkpt lat="39.37457" lon="8.5304867"><ele>541.0</ele><time>2026-05-02T12:38:58.331Z</time></trkpt><trkpt lat="39.3745333" lon="8.5303967"><ele>541.0</ele><time>2026-05-02T12:38:59.334Z</time></trkpt><trkpt lat="39.3745067" lon="8.530305"><ele>541.0</ele><time>2026-05-02T12:39:00.332Z</time></trkpt><trkpt lat="39.3744867" lon="8.5302083"><ele>541.0</ele><time>2026-05-02T12:39:01.33Z</time></trkpt><trkpt lat="39.3744667" lon="8.5301183"><ele>541.8333333333334</ele><time>2026-05-02T12:39:02.387Z</time></trkpt><trkpt lat="39.37445" lon="8.5300133"><ele>542.6666666666667</ele><time>2026-05-02T12:39:03.331Z</time></trkpt><trkpt lat="39.37442" lon="8.5299133"><ele>543.5</ele><time>2026-05-02T12:39:04.335Z</time></trkpt><trkpt lat="39.37438" lon="8.5298233"><ele>544.3333333333334</ele><time>2026-05-02T12:39:05.332Z</time></trkpt><trkpt lat="39.3743333" lon="8.5297267"><ele>545.1666666666666</ele><time>2026-05-02T12:39:06.332Z</time></trkpt><trkpt lat="39.3742733" lon="8.5296483"><ele>546.0</ele><time>2026-05-02T12:39:07.332Z</time></trkpt><trkpt lat="39.374215" lon="8.5295783"><ele>549.5</ele><time>2026-05-02T12:39:08.374Z</time></trkpt><trkpt lat="39.3741517" lon="8.52952"><ele>553.0</ele><time>2026-05-02T12:39:09.334Z</time></trkpt><trkpt lat="39.374095" lon="8.52948"><ele>556.5</ele><time>2026-05-02T12:39:10.332Z</time></trkpt><trkpt lat="39.3740267" lon="8.5294467"><ele>560.0</ele><time>2026-05-02T12:39:11.334Z</time></trkpt><trkpt lat="39.3739517" lon="8.5294283"><ele>563.5</ele><time>2026-05-02T12:39:12.33Z</time></trkpt><trkpt lat="39.3738817" lon="8.5294717"><ele>567.0</ele><time>2026-05-02T12:39:13.332Z</time></trkpt><trkpt lat="39.3738033" lon="8.5295133"><ele>567.6</ele><time>2026-05-02T12:39:14.373Z</time></trkpt><trkpt lat="39.37372" lon="8.5295567"><ele>568.2</ele><time>2026-05-02T12:39:15.332Z</time></trkpt><trkpt lat="39.3736517" lon="8.5296217"><ele>568.8</ele><time>2026-05-02T12:39:16.33Z</time></trkpt><trkpt lat="39.37359" lon="8.5297067"><ele>569.4</ele><time>2026-05-02T12:39:17.334Z</time></trkpt><trkpt lat="39.3735267" lon="8.5297933"><ele>570.0</ele><time>2026-05-02T12:39:18.329Z</time></trkpt><trkpt lat="39.3734533" lon="8.5298767"><ele>564.2</ele><time>2026-05-02T12:39:19.334Z</time></trkpt><trkpt lat="39.3733717" lon="8.529945"><ele>558.4</ele><time>2026-05-02T12:39:20.374Z</time></trkpt><trkpt lat="39.3732767" lon="8.5300017"><ele>552.6</ele><time>2026-05-02T12:39:21.33Z</time></trkpt><trkpt lat="39.3731683" lon="8.530055"><ele>546.8</ele><time>2026-05-02T12:39:22.331Z</time></trkpt><trkpt lat="39.37305" lon="8.530095"><ele>541.0</ele><time>2026-05-02T12:39:23.33Z</time></trkpt><trkpt lat="39.37294" lon="8.53013"><ele>541.0</ele><time>2026-05-02T12:39:24.333Z</time></trkpt><trkpt lat="39.3728317" lon="8.5301567"><ele>541.0</ele><time>2026-05-02T12:39:25.334Z</time></trkpt><trkpt lat="39.3727367" lon="8.5301783"><ele>541.0</ele><time>2026-05-02T12:39:26.393Z</time></trkpt><trkpt lat="39.3726383" lon="8.5301933"><ele>541.0</ele><time>2026-05-02T12:39:27.332Z</time></trkpt><trkpt lat="39.372545" lon="8.5301617"><ele>541.0</ele><time>2026-05-02T12:39:28.332Z</time></trkpt><trkpt lat="39.3724267" lon="8.5301317"><ele>541.0</ele><time>2026-05-02T12:39:29.33Z</time></trkpt><trkpt lat="39.3723117" lon="8.5300783"><ele>541.0</ele><time>2026-05-02T12:39:30.333Z</time></trkpt><trkpt lat="39.3722217" lon="8.5300333"><ele>541.0</ele><time>2026-05-02T12:39:31.332Z</time></trkpt><trkpt lat="39.3721233" lon="8.5299833"><ele>541.0</ele><time>2026-05-02T12:39:32.39Z</time></trkpt><trkpt lat="39.3720267" lon="8.5299083"><ele>541.0</ele><time>2026-05-02T12:39:33.332Z</time></trkpt><trkpt lat="39.37194" lon="8.5298283"><ele>539.8</ele><time>2026-05-02T12:39:34.333Z</time></trkpt><trkpt lat="39.371825" lon="8.5297383"><ele>538.6</ele><time>2026-05-02T12:39:35.328Z</time></trkpt><trkpt lat="39.371735" lon="8.5296483"><ele>537.4</ele><time>2026-05-02T12:39:36.329Z</time></trkpt><trkpt lat="39.3716833" lon="8.5295883"><ele>536.2</ele><time>2026-05-02T12:39:37.333Z</time></trkpt><trkpt lat="39.3716433" lon="8.5294917"><ele>535.0</ele><time>2026-05-02T12:39:38.376Z</time></trkpt><trkpt lat="39.3716" lon="8.5294083"><ele>535.0</ele><time>2026-05-02T12:39:39.332Z</time></trkpt><trkpt lat="39.371565" lon="8.5293067"><ele>535.0</ele><time>2026-05-02T12:39:40.332Z</time></trkpt><trkpt lat="39.3715317" lon="8.5292033"><ele>535.0</ele><time>2026-05-02T12:39:41.331Z</time></trkpt><trkpt lat="39.3715183" lon="8.5290767"><ele>535.0</ele><time>2026-05-02T12:39:42.333Z</time></trkpt><trkpt lat="39.37149" lon="8.5289817"><ele>535.0</ele><time>2026-05-02T12:39:43.333Z</time></trkpt><trkpt lat="39.3714517" lon="8.5289067"><ele>535.0</ele><time>2026-05-02T12:39:44.373Z</time></trkpt><trkpt lat="39.371405" lon="8.528835"><ele>535.0</ele><time>2026-05-02T12:39:45.332Z</time></trkpt><trkpt lat="39.3713583" lon="8.52877"><ele>535.0</ele><time>2026-05-02T12:39:46.333Z</time></trkpt><trkpt lat="39.3712983" lon="8.5287083"><ele>535.0</ele><time>2026-05-02T12:39:47.33Z</time></trkpt><trkpt lat="39.37124" lon="8.5286467"><ele>535.0</ele><time>2026-05-02T12:39:48.332Z</time></trkpt><trkpt lat="39.3711733" lon="8.5285967"><ele>535.0</ele><time>2026-05-02T12:39:49.332Z</time></trkpt><trkpt lat="39.3710917" lon="8.5285633"><ele>535.0</ele><time>2026-05-02T12:39:50.371Z</time></trkpt><trkpt lat="39.371005" lon="8.528535"><ele>536.0</ele><time>2026-05-02T12:39:51.331Z</time></trkpt><trkpt lat="39.3709133" lon="8.5285033"><ele>537.0</ele><time>2026-05-02T12:39:52.33Z</time></trkpt><trkpt lat="39.3708233" lon="8.5284617"><ele>538.0</ele><time>2026-05-02T12:39:53.334Z</time></trkpt><trkpt lat="39.3707333" lon="8.5284167"><ele>539.0</ele><time>2026-05-02T12:39:54.334Z</time></trkpt><trkpt lat="39.3706433" lon="8.5283717"><ele>540.0</ele><time>2026-05-02T12:39:55.333Z</time></trkpt><trkpt lat="39.370565" lon="8.5283267"><ele>534.3333333333334</ele><time>2026-05-02T12:39:56.389Z</time></trkpt><trkpt lat="39.3704883" lon="8.5282833"><ele>528.6666666666666</ele><time>2026-05-02T12:39:57.331Z</time></trkpt><trkpt lat="39.3704133" lon="8.52824"><ele>523.0</ele><time>2026-05-02T12:39:58.33Z</time></trkpt><trkpt lat="39.37034" lon="8.5281783"><ele>517.3333333333333</ele><time>2026-05-02T12:39:59.33Z</time></trkpt><trkpt lat="39.3702683" lon="8.5281233"><ele>511.66666666666663</ele><time>2026-05-02T12:40:00.333Z</time></trkpt><trkpt lat="39.3701967" lon="8.5280767"><ele>506.0</ele><time>2026-05-02T12:40:01.334Z</time></trkpt><trkpt lat="39.370125" lon="8.5280367"><ele>506.0</ele><time>2026-05-02T12:40:02.385Z</time></trkpt><trkpt lat="39.3700467" lon="8.528005"><ele>506.0</ele><time>2026-05-02T12:40:03.33Z</time></trkpt><trkpt lat="39.3699567" lon="8.527975"><ele>506.0</ele><time>2026-05-02T12:40:04.331Z</time></trkpt><trkpt lat="39.3698667" lon="8.527945"><ele>506.0</ele><time>2026-05-02T12:40:05.334Z</time></trkpt><trkpt lat="39.3697683" lon="8.52792"><ele>506.0</ele><time>2026-05-02T12:40:06.331Z</time></trkpt><trkpt lat="39.3696717" lon="8.5278983"><ele>510.0</ele><time>2026-05-02T12:40:07.331Z</time></trkpt><trkpt lat="39.3695633" lon="8.5278633"><ele>514.0</ele><time>2026-05-02T12:40:08.373Z</time></trkpt><trkpt lat="39.3694717" lon="8.52785"><ele>518.0</ele><time>2026-05-02T12:40:09.33Z</time></trkpt><trkpt lat="39.3693933" lon="8.5278367"><ele>522.0</ele><time>2026-05-02T12:40:10.333Z</time></trkpt><trkpt lat="39.36931" lon="8.5278217"><ele>526.0</ele><time>2026-05-02T12:40:11.331Z</time></trkpt><trkpt lat="39.369225" lon="8.52783"><ele>526.0</ele><time>2026-05-02T12:40:12.332Z</time></trkpt><trkpt lat="39.3691333" lon="8.5278433"><ele>526.0</ele><time>2026-05-02T12:40:13.333Z</time></trkpt><trkpt lat="39.369045" lon="8.5278433"><ele>526.0</ele><time>2026-05-02T12:40:14.375Z</time></trkpt><trkpt lat="39.368965" lon="8.5278317"><ele>526.0</ele><time>2026-05-02T12:40:15.33Z</time></trkpt><trkpt lat="39.3688967" lon="8.52781"><ele>526.0</ele><time>2026-05-02T12:40:16.33Z</time></trkpt><trkpt lat="39.36878" lon="8.52777"><ele>523.0</ele><time>2026-05-02T12:40:18.332Z</time></trkpt><trkpt lat="39.3686817" lon="8.5277"><ele>520.0</ele><time>2026-05-02T12:40:20.373Z</time></trkpt><trkpt lat="39.3685733" lon="8.5276067"><ele>517.0</ele><time>2026-05-02T12:40:22.333Z</time></trkpt><trkpt lat="39.3685183" lon="8.527555"><ele>514.0</ele><time>2026-05-02T12:40:23.332Z</time></trkpt><trkpt lat="39.3684633" lon="8.5275083"><ele>511.00000000000006</ele><time>2026-05-02T12:40:24.327Z</time></trkpt><trkpt lat="39.3684017" lon="8.5274867"><ele>508.0</ele><time>2026-05-02T12:40:25.335Z</time></trkpt><trkpt lat="39.3682867" lon="8.52749"><ele>508.0</ele><time>2026-05-02T12:40:27.33Z</time></trkpt><trkpt lat="39.36822" lon="8.52752"><ele>507.99999999999994</ele><time>2026-05-02T12:40:28.333Z</time></trkpt><trkpt lat="39.368145" lon="8.5275733"><ele>507.99999999999994</ele><time>2026-05-02T12:40:29.333Z</time></trkpt><trkpt lat="39.3680467" lon="8.52764"><ele>508.0</ele><time>2026-05-02T12:40:30.331Z</time></trkpt><trkpt lat="39.36795" lon="8.5277"><ele>508.0</ele><time>2026-05-02T12:40:31.332Z</time></trkpt><trkpt lat="39.3678583" lon="8.52776"><ele>505.4</ele><time>2026-05-02T12:40:32.385Z</time></trkpt><trkpt lat="39.3677633" lon="8.527815"><ele>502.79999999999995</ele><time>2026-05-02T12:40:33.33Z</time></trkpt><trkpt lat="39.3676633" lon="8.527875"><ele>500.2</ele><time>2026-05-02T12:40:34.331Z</time></trkpt><trkpt lat="39.3675717" lon="8.5279267"><ele>497.6</ele><time>2026-05-02T12:40:35.333Z</time></trkpt><trkpt lat="39.3674717" lon="8.5279317"><ele>495.0</ele><time>2026-05-02T12:40:36.333Z</time></trkpt><trkpt lat="39.367385" lon="8.5279433"><ele>495.0</ele><time>2026-05-02T12:40:37.332Z</time></trkpt><trkpt lat="39.3673217" lon="8.5278833"><ele>495.0</ele><time>2026-05-02T12:40:38.374Z</time></trkpt><trkpt lat="39.367255" lon="8.5278167"><ele>495.0</ele><time>2026-05-02T12:40:39.331Z</time></trkpt><trkpt lat="39.3672033" lon="8.527725"><ele>495.0</ele><time>2026-05-02T12:40:40.333Z</time></trkpt><trkpt lat="39.3671583" lon="8.5276317"><ele>495.0</ele><time>2026-05-02T12:40:41.329Z</time></trkpt><trkpt lat="39.36712" lon="8.52754"><ele>495.0</ele><time>2026-05-02T12:40:42.329Z</time></trkpt><trkpt lat="39.3670717" lon="8.5274367"><ele>491.5</ele><time>2026-05-02T12:40:43.33Z</time></trkpt><trkpt lat="39.36705" lon="8.5273233"><ele>488.0</ele><time>2026-05-02T12:40:44.374Z</time></trkpt><trkpt lat="39.3670217" lon="8.527205"><ele>484.5</ele><time>2026-05-02T12:40:45.329Z</time></trkpt><trkpt lat="39.3670167" lon="8.527095"><ele>481.0</ele><time>2026-05-02T12:40:46.332Z</time></trkpt><trkpt lat="39.36701" lon="8.5269967"><ele>477.5</ele><time>2026-05-02T12:40:47.334Z</time></trkpt><trkpt lat="39.3670117" lon="8.5269017"><ele>474.0</ele><time>2026-05-02T12:40:48.333Z</time></trkpt><trkpt lat="39.367015" lon="8.5268017"><ele>473.99999999999994</ele><time>2026-05-02T12:40:49.333Z</time></trkpt><trkpt lat="39.3670083" lon="8.5267067"><ele>474.0</ele><time>2026-05-02T12:40:50.373Z</time></trkpt><trkpt lat="39.3669883" lon="8.5266167"><ele>473.99999999999994</ele><time>2026-05-02T12:40:51.33Z</time></trkpt><trkpt lat="39.366955" lon="8.5265283"><ele>473.99999999999994</ele><time>2026-05-02T12:40:52.332Z</time></trkpt><trkpt lat="39.3669083" lon="8.5264467"><ele>474.0</ele><time>2026-05-02T12:40:53.331Z</time></trkpt><trkpt lat="39.3668567" lon="8.5263733"><ele>473.99999999999994</ele><time>2026-05-02T12:40:54.33Z</time></trkpt><trkpt lat="39.3668033" lon="8.5263133"><ele>473.99999999999994</ele><time>2026-05-02T12:40:55.333Z</time></trkpt><trkpt lat="39.366755" lon="8.5262517"><ele>475.1666666666667</ele><time>2026-05-02T12:40:56.386Z</time></trkpt><trkpt lat="39.36672" lon="8.52617"><ele>476.33333333333337</ele><time>2026-05-02T12:40:57.332Z</time></trkpt><trkpt lat="39.3666767" lon="8.5260883"><ele>477.5</ele><time>2026-05-02T12:40:58.333Z</time></trkpt><trkpt lat="39.3666117" lon="8.52603"><ele>478.6666666666667</ele><time>2026-05-02T12:40:59.33Z</time></trkpt><trkpt lat="39.3665533" lon="8.5259567"><ele>479.83333333333337</ele><time>2026-05-02T12:41:00.332Z</time></trkpt><trkpt lat="39.3664867" lon="8.5258933"><ele>481.0</ele><time>2026-05-02T12:41:01.332Z</time></trkpt><trkpt lat="39.3664117" lon="8.525835"><ele>480.0</ele><time>2026-05-02T12:41:02.385Z</time></trkpt><trkpt lat="39.36634" lon="8.5257817"><ele>479.0</ele><time>2026-05-02T12:41:03.329Z</time></trkpt><trkpt lat="39.3662667" lon="8.52572"><ele>478.0</ele><time>2026-05-02T12:41:04.332Z</time></trkpt><trkpt lat="39.3661867" lon="8.52566"><ele>477.0</ele><time>2026-05-02T12:41:05.33Z</time></trkpt><trkpt lat="39.3661" lon="8.5255917"><ele>476.0</ele><time>2026-05-02T12:41:06.332Z</time></trkpt><trkpt lat="39.366005" lon="8.5255233"><ele>476.0</ele><time>2026-05-02T12:41:07.331Z</time></trkpt><trkpt lat="39.3659083" lon="8.5254583"><ele>476.0</ele><time>2026-05-02T12:41:08.374Z</time></trkpt><trkpt lat="39.3658083" lon="8.5254017"><ele>476.0</ele><time>2026-05-02T12:41:09.333Z</time></trkpt><trkpt lat="39.3657117" lon="8.52535"><ele>476.0</ele><time>2026-05-02T12:41:10.331Z</time></trkpt><trkpt lat="39.3656267" lon="8.525285"><ele>476.0</ele><time>2026-05-02T12:41:11.334Z</time></trkpt><trkpt lat="39.36555" lon="8.525215"><ele>473.0</ele><time>2026-05-02T12:41:12.331Z</time></trkpt><trkpt lat="39.3654783" lon="8.5251317"><ele>470.0</ele><time>2026-05-02T12:41:13.331Z</time></trkpt><trkpt lat="39.3654183" lon="8.5250367"><ele>467.0</ele><time>2026-05-02T12:41:14.374Z</time></trkpt><trkpt lat="39.3653567" lon="8.5249433"><ele>464.0</ele><time>2026-05-02T12:41:15.334Z</time></trkpt><trkpt lat="39.3652967" lon="8.524855"><ele>461.0</ele><time>2026-05-02T12:41:16.336Z</time></trkpt><trkpt lat="39.3652367" lon="8.524785"><ele>460.99999999999994</ele><time>2026-05-02T12:41:17.333Z</time></trkpt><trkpt lat="39.3651867" lon="8.5247217"><ele>461.0</ele><time>2026-05-02T12:41:18.335Z</time></trkpt><trkpt lat="39.3651167" lon="8.5246633"><ele>461.0</ele><time>2026-05-02T12:41:19.334Z</time></trkpt><trkpt lat="39.36505" lon="8.524615"><ele>461.0</ele><time>2026-05-02T12:41:20.372Z</time></trkpt><trkpt lat="39.36497" lon="8.5245783"><ele>460.99999999999994</ele><time>2026-05-02T12:41:21.333Z</time></trkpt><trkpt lat="39.36487" lon="8.5245417"><ele>461.0</ele><time>2026-05-02T12:41:22.336Z</time></trkpt><trkpt lat="39.3647767" lon="8.5245267"><ele>456.5</ele><time>2026-05-02T12:41:23.329Z</time></trkpt><trkpt lat="39.3646917" lon="8.52453"><ele>452.0</ele><time>2026-05-02T12:41:24.332Z</time></trkpt><trkpt lat="39.3645417" lon="8.52457"><ele>447.5</ele><time>2026-05-02T12:41:26.383Z</time></trkpt><trkpt lat="39.3644283" lon="8.5246333"><ele>443.0</ele><time>2026-05-02T12:41:28.333Z</time></trkpt><trkpt lat="39.3643167" lon="8.5246633"><ele>442.99999999999994</ele><time>2026-05-02T12:41:30.334Z</time></trkpt><trkpt lat="39.3642517" lon="8.5246183"><ele>443.0</ele><time>2026-05-02T12:41:33.332Z</time></trkpt><trkpt lat="39.36428" lon="8.5245383"><ele>443.0</ele><time>2026-05-02T12:41:35.332Z</time></trkpt><trkpt lat="39.36438" lon="8.5244233"><ele>443.0</ele><time>2026-05-02T12:41:37.333Z</time></trkpt><trkpt lat="39.3644433" lon="8.5243767"><ele>442.99999999999994</ele><time>2026-05-02T12:41:38.375Z</time></trkpt><trkpt lat="39.36451" lon="8.5243383"><ele>443.0</ele><time>2026-05-02T12:41:39.335Z</time></trkpt><trkpt lat="39.3645917" lon="8.5243067"><ele>441.2</ele><time>2026-05-02T12:41:40.333Z</time></trkpt><trkpt lat="39.3646717" lon="8.5242817"><ele>439.4</ele><time>2026-05-02T12:41:41.33Z</time></trkpt><trkpt lat="39.3647817" lon="8.5242733"><ele>437.59999999999997</ele><time>2026-05-02T12:41:42.331Z</time></trkpt><trkpt lat="39.364885" lon="8.524265"><ele>435.79999999999995</ele><time>2026-05-02T12:41:43.332Z</time></trkpt><trkpt lat="39.3649967" lon="8.524265"><ele>434.0</ele><time>2026-05-02T12:41:44.376Z</time></trkpt><trkpt lat="39.3651117" lon="8.5242733"><ele>434.0</ele><time>2026-05-02T12:41:45.332Z</time></trkpt><trkpt lat="39.3652333" lon="8.52429"><ele>434.0</ele><time>2026-05-02T12:41:46.333Z</time></trkpt><trkpt lat="39.3653567" lon="8.5243083"><ele>434.0</ele><time>2026-05-02T12:41:47.331Z</time></trkpt><trkpt lat="39.3654817" lon="8.5243317"><ele>434.0</ele><time>2026-05-02T12:41:48.331Z</time></trkpt><trkpt lat="39.3655983" lon="8.52437"><ele>433.2</ele><time>2026-05-02T12:41:49.332Z</time></trkpt><trkpt lat="39.3657117" lon="8.5244067"><ele>432.4</ele><time>2026-05-02T12:41:50.374Z</time></trkpt><trkpt lat="39.3658083" lon="8.524465"><ele>431.6</ele><time>2026-05-02T12:41:51.331Z</time></trkpt><trkpt lat="39.3659183" lon="8.5245233"><ele>430.8</ele><time>2026-05-02T12:41:52.333Z</time></trkpt><trkpt lat="39.366005" lon="8.5245617"><ele>430.0</ele><time>2026-05-02T12:41:53.333Z</time></trkpt><trkpt lat="39.36609" lon="8.5245867"><ele>433.00000000000006</ele><time>2026-05-02T12:41:54.334Z</time></trkpt><trkpt lat="39.36617" lon="8.5246067"><ele>436.0</ele><time>2026-05-02T12:41:55.334Z</time></trkpt><trkpt lat="39.366255" lon="8.524615"><ele>439.0</ele><time>2026-05-02T12:41:56.382Z</time></trkpt><trkpt lat="39.3663367" lon="8.5246267"><ele>442.0</ele><time>2026-05-02T12:41:57.33Z</time></trkpt><trkpt lat="39.366415" lon="8.5246217"><ele>445.00000000000006</ele><time>2026-05-02T12:41:58.334Z</time></trkpt><trkpt lat="39.3664883" lon="8.524605"><ele>448.0</ele><time>2026-05-02T12:41:59.331Z</time></trkpt><trkpt lat="39.366565" lon="8.5245783"><ele>447.85714285714283</ele><time>2026-05-02T12:42:00.328Z</time></trkpt><trkpt lat="39.36664" lon="8.52456"><ele>447.7142857142857</ele><time>2026-05-02T12:42:01.332Z</time></trkpt><trkpt lat="39.3667133" lon="8.52455"><ele>447.57142857142856</ele><time>2026-05-02T12:42:02.388Z</time></trkpt><trkpt lat="39.3667933" lon="8.5245367"><ele>447.42857142857144</ele><time>2026-05-02T12:42:03.332Z</time></trkpt><trkpt lat="39.3668667" lon="8.5245267"><ele>447.2857142857143</ele><time>2026-05-02T12:42:04.33Z</time></trkpt><trkpt lat="39.36694" lon="8.5245133"><ele>447.1428571428571</ele><time>2026-05-02T12:42:05.331Z</time></trkpt><trkpt lat="39.3670067" lon="8.5245033"><ele>447.0</ele><time>2026-05-02T12:42:06.33Z</time></trkpt><trkpt lat="39.3671183" lon="8.5244917"><ele>447.0</ele><time>2026-05-02T12:42:08.374Z</time></trkpt><trkpt lat="39.367185" lon="8.5244983"><ele>447.00000000000006</ele><time>2026-05-02T12:42:10.329Z</time></trkpt><trkpt lat="39.3671317" lon="8.5245967"><ele>447.00000000000006</ele><time>2026-05-02T12:42:15.331Z</time></trkpt><trkpt lat="39.3670683" lon="8.5246583"><ele>447.0</ele><time>2026-05-02T12:42:17.331Z</time></trkpt><trkpt lat="39.3669417" lon="8.5246867"><ele>447.0</ele><time>2026-05-02T12:42:18.331Z</time></trkpt><trkpt lat="39.3668067" lon="8.5247267"><ele>451.0</ele><time>2026-05-02T12:42:19.331Z</time></trkpt><trkpt lat="39.36666" lon="8.5247033"><ele>455.0</ele><time>2026-05-02T12:42:20.374Z</time></trkpt><trkpt lat="39.36655" lon="8.524665"><ele>459.0</ele><time>2026-05-02T12:42:21.328Z</time></trkpt><trkpt lat="39.366435" lon="8.524605"><ele>463.0</ele><time>2026-05-02T12:42:22.328Z</time></trkpt><trkpt lat="39.3662783" lon="8.5245167"><ele>454.75</ele><time>2026-05-02T12:42:23.329Z</time></trkpt><trkpt lat="39.3661433" lon="8.52444"><ele>446.5</ele><time>2026-05-02T12:42:24.332Z</time></trkpt><trkpt lat="39.3660233" lon="8.5243567"><ele>438.25</ele><time>2026-05-02T12:42:25.328Z</time></trkpt><trkpt lat="39.3658983" lon="8.5242567"><ele>430.0</ele><time>2026-05-02T12:42:26.392Z</time></trkpt><trkpt lat="39.3657833" lon="8.5241817"><ele>430.0</ele><time>2026-05-02T12:42:27.329Z</time></trkpt><trkpt lat="39.365665" lon="8.5241333"><ele>430.0</ele><time>2026-05-02T12:42:28.331Z</time></trkpt><trkpt lat="39.36555" lon="8.5240833"><ele>430.0</ele><time>2026-05-02T12:42:29.329Z</time></trkpt><trkpt lat="39.365445" lon="8.5240483"><ele>430.0</ele><time>2026-05-02T12:42:30.33Z</time></trkpt><trkpt lat="39.36536" lon="8.5240133"><ele>430.0</ele><time>2026-05-02T12:42:31.331Z</time></trkpt><trkpt lat="39.36528" lon="8.5239733"><ele>430.8</ele><time>2026-05-02T12:42:32.38Z</time></trkpt><trkpt lat="39.3652067" lon="8.5239267"><ele>431.6</ele><time>2026-05-02T12:42:33.334Z</time></trkpt><trkpt lat="39.3651317" lon="8.5238767"><ele>432.4</ele><time>2026-05-02T12:42:34.331Z</time></trkpt><trkpt lat="39.36505" lon="8.5238333"><ele>433.2</ele><time>2026-05-02T12:42:35.331Z</time></trkpt><trkpt lat="39.3649467" lon="8.5237867"><ele>434.0</ele><time>2026-05-02T12:42:36.33Z</time></trkpt><trkpt lat="39.364835" lon="8.5237483"><ele>431.6</ele><time>2026-05-02T12:42:37.332Z</time></trkpt><trkpt lat="39.3647267" lon="8.5237117"><ele>429.2</ele><time>2026-05-02T12:42:38.372Z</time></trkpt><trkpt lat="39.36462" lon="8.5236783"><ele>426.8</ele><time>2026-05-02T12:42:39.328Z</time></trkpt><trkpt lat="39.3645167" lon="8.5236383"><ele>424.40000000000003</ele><time>2026-05-02T12:42:40.33Z</time></trkpt><trkpt lat="39.364425" lon="8.5235933"><ele>422.0</ele><time>2026-05-02T12:42:41.332Z</time></trkpt><trkpt lat="39.3643467" lon="8.523535"><ele>420.99999999999994</ele><time>2026-05-02T12:42:42.331Z</time></trkpt><trkpt lat="39.36428" lon="8.5234667"><ele>420.0</ele><time>2026-05-02T12:42:43.331Z</time></trkpt><trkpt lat="39.36423" lon="8.52338"><ele>419.0</ele><time>2026-05-02T12:42:44.373Z</time></trkpt><trkpt lat="39.364175" lon="8.5233017"><ele>418.0</ele><time>2026-05-02T12:42:45.329Z</time></trkpt><trkpt lat="39.3641217" lon="8.5232267"><ele>416.99999999999994</ele><time>2026-05-02T12:42:46.331Z</time></trkpt><trkpt lat="39.364065" lon="8.523165"><ele>416.0</ele><time>2026-05-02T12:42:47.332Z</time></trkpt><trkpt lat="39.364" lon="8.5231133"><ele>416.0</ele><time>2026-05-02T12:42:48.33Z</time></trkpt><trkpt lat="39.36392" lon="8.523065"><ele>416.0</ele><time>2026-05-02T12:42:49.33Z</time></trkpt><trkpt lat="39.3638467" lon="8.5230317"><ele>416.0</ele><time>2026-05-02T12:42:50.37Z</time></trkpt><trkpt lat="39.3637483" lon="8.5230083"><ele>416.0</ele><time>2026-05-02T12:42:51.327Z</time></trkpt><trkpt lat="39.3636633" lon="8.5229917"><ele>416.0</ele><time>2026-05-02T12:42:52.329Z</time></trkpt><trkpt lat="39.3635533" lon="8.522995"><ele>414.5</ele><time>2026-05-02T12:42:53.327Z</time></trkpt><trkpt lat="39.3634317" lon="8.5230767"><ele>413.0</ele><time>2026-05-02T12:42:54.328Z</time></trkpt><trkpt lat="39.363335" lon="8.5231583"><ele>411.5</ele><time>2026-05-02T12:42:55.33Z</time></trkpt><trkpt lat="39.363235" lon="8.523255"><ele>410.0</ele><time>2026-05-02T12:42:56.381Z</time></trkpt><trkpt lat="39.3631483" lon="8.523335"><ele>410.0</ele><time>2026-05-02T12:42:57.332Z</time></trkpt><trkpt lat="39.3630633" lon="8.5234467"><ele>410.0</ele><time>2026-05-02T12:42:58.331Z</time></trkpt><trkpt lat="39.362985" lon="8.523565"><ele>410.0</ele><time>2026-05-02T12:42:59.331Z</time></trkpt><trkpt lat="39.3629183" lon="8.523675"><ele>410.0</ele><time>2026-05-02T12:43:00.33Z</time></trkpt><trkpt lat="39.36286" lon="8.5237917"><ele>412.4</ele><time>2026-05-02T12:43:01.333Z</time></trkpt><trkpt lat="39.3628067" lon="8.5239067"><ele>414.8</ele><time>2026-05-02T12:43:02.387Z</time></trkpt><trkpt lat="39.3627567" lon="8.5240267"><ele>417.20000000000005</ele><time>2026-05-02T12:43:03.329Z</time></trkpt><trkpt lat="39.3627017" lon="8.5241633"><ele>419.6</ele><time>2026-05-02T12:43:04.331Z</time></trkpt><trkpt lat="39.3626667" lon="8.5242967"><ele>422.0</ele><time>2026-05-02T12:43:05.328Z</time></trkpt><trkpt lat="39.36265" lon="8.52447"><ele>418.0</ele><time>2026-05-02T12:43:06.331Z</time></trkpt><trkpt lat="39.3626033" lon="8.5246233"><ele>414.0</ele><time>2026-05-02T12:43:07.33Z</time></trkpt><trkpt lat="39.3625933" lon="8.5247833"><ele>410.0</ele><time>2026-05-02T12:43:08.371Z</time></trkpt><trkpt lat="39.3625617" lon="8.524935"><ele>406.0</ele><time>2026-05-02T12:43:09.33Z</time></trkpt><trkpt lat="39.3625367" lon="8.5250783"><ele>406.0</ele><time>2026-05-02T12:43:10.331Z</time></trkpt><trkpt lat="39.3625033" lon="8.52521"><ele>406.0</ele><time>2026-05-02T12:43:11.332Z</time></trkpt><trkpt lat="39.3624717" lon="8.5253467"><ele>406.0</ele><time>2026-05-02T12:43:12.333Z</time></trkpt><trkpt lat="39.3624517" lon="8.525485"><ele>406.0</ele><time>2026-05-02T12:43:13.332Z</time></trkpt><trkpt lat="39.36242" lon="8.5256317"><ele>406.0</ele><time>2026-05-02T12:43:14.373Z</time></trkpt><trkpt lat="39.3623833" lon="8.5257817"><ele>404.0</ele><time>2026-05-02T12:43:15.327Z</time></trkpt><trkpt lat="39.36236" lon="8.5259633"><ele>402.0</ele><time>2026-05-02T12:43:16.332Z</time></trkpt><trkpt lat="39.362335" lon="8.5261383"><ele>400.0</ele><time>2026-05-02T12:43:17.331Z</time></trkpt><trkpt lat="39.3623117" lon="8.526295"><ele>398.0</ele><time>2026-05-02T12:43:18.329Z</time></trkpt><trkpt lat="39.3622967" lon="8.5264517"><ele>397.4</ele><time>2026-05-02T12:43:19.331Z</time></trkpt><trkpt lat="39.3622833" lon="8.526595"><ele>396.79999999999995</ele><time>2026-05-02T12:43:20.373Z</time></trkpt><trkpt lat="39.3622783" lon="8.5267417"><ele>396.2</ele><time>2026-05-02T12:43:21.33Z</time></trkpt><trkpt lat="39.3622783" lon="8.5268783"><ele>395.6</ele><time>2026-05-02T12:43:22.331Z</time></trkpt><trkpt lat="39.362275" lon="8.527015"><ele>395.0</ele><time>2026-05-02T12:43:23.329Z</time></trkpt><trkpt lat="39.3622683" lon="8.5271333"><ele>394.3333333333333</ele><time>2026-05-02T12:43:24.327Z</time></trkpt><trkpt lat="39.3622533" lon="8.5272467"><ele>393.66666666666663</ele><time>2026-05-02T12:43:25.331Z</time></trkpt><trkpt lat="39.362245" lon="8.5273717"><ele>393.0</ele><time>2026-05-02T12:43:26.386Z</time></trkpt><trkpt lat="39.3622367" lon="8.527475"><ele>392.33333333333337</ele><time>2026-05-02T12:43:27.334Z</time></trkpt><trkpt lat="39.3622217" lon="8.527575"><ele>391.6666666666667</ele><time>2026-05-02T12:43:28.333Z</time></trkpt><trkpt lat="39.3622083" lon="8.5276817"><ele>391.0</ele><time>2026-05-02T12:43:29.326Z</time></trkpt><trkpt lat="39.362195" lon="8.5277933"><ele>389.1666666666667</ele><time>2026-05-02T12:43:30.332Z</time></trkpt><trkpt lat="39.362175" lon="8.5278983"><ele>387.33333333333337</ele><time>2026-05-02T12:43:31.341Z</time></trkpt><trkpt lat="39.3621533" lon="8.5280067"><ele>385.5</ele><time>2026-05-02T12:43:32.385Z</time></trkpt><trkpt lat="39.362125" lon="8.5281"><ele>383.6666666666667</ele><time>2026-05-02T12:43:33.331Z</time></trkpt><trkpt lat="39.3621" lon="8.5281867"><ele>381.83333333333337</ele><time>2026-05-02T12:43:34.331Z</time></trkpt><trkpt lat="39.3620567" lon="8.5282583"><ele>380.0</ele><time>2026-05-02T12:43:35.33Z</time></trkpt><trkpt lat="39.3619883" lon="8.528385"><ele>380.0</ele><time>2026-05-02T12:43:37.329Z</time></trkpt><trkpt lat="39.361905" lon="8.5284683"><ele>380.0</ele><time>2026-05-02T12:43:39.329Z</time></trkpt><trkpt lat="39.361795" lon="8.5284817"><ele>380.0</ele><time>2026-05-02T12:43:41.333Z</time></trkpt><trkpt lat="39.3617283" lon="8.5284733"><ele>380.0</ele><time>2026-05-02T12:43:42.332Z</time></trkpt><trkpt lat="39.361635" lon="8.5284333"><ele>380.0</ele><time>2026-05-02T12:43:43.33Z</time></trkpt><trkpt lat="39.36155" lon="8.5284133"><ele>380.0</ele><time>2026-05-02T12:43:44.37Z</time></trkpt><trkpt lat="39.3614433" lon="8.5282967"><ele>380.0</ele><time>2026-05-02T12:43:45.326Z</time></trkpt><trkpt lat="39.3613417" lon="8.5282767"><ele>380.0</ele><time>2026-05-02T12:43:46.331Z</time></trkpt><trkpt lat="39.361235" lon="8.5282667"><ele>380.0</ele><time>2026-05-02T12:43:47.332Z</time></trkpt><trkpt lat="39.361125" lon="8.528255"><ele>382.0</ele><time>2026-05-02T12:43:48.332Z</time></trkpt><trkpt lat="39.361015" lon="8.5282433"><ele>384.0</ele><time>2026-05-02T12:43:49.329Z</time></trkpt><trkpt lat="39.3609133" lon="8.52824"><ele>386.0</ele><time>2026-05-02T12:43:50.371Z</time></trkpt><trkpt lat="39.36082" lon="8.5282233"><ele>388.0</ele><time>2026-05-02T12:43:51.337Z</time></trkpt><trkpt lat="39.3607317" lon="8.528195"><ele>390.0</ele><time>2026-05-02T12:43:52.331Z</time></trkpt><trkpt lat="39.36066" lon="8.52816"><ele>390.0</ele><time>2026-05-02T12:43:53.329Z</time></trkpt><trkpt lat="39.360595" lon="8.52811"><ele>390.0</ele><time>2026-05-02T12:43:54.329Z</time></trkpt><trkpt lat="39.360525" lon="8.5279917"><ele>390.0</ele><time>2026-05-02T12:43:56.383Z</time></trkpt><trkpt lat="39.3604767" lon="8.5279383"><ele>390.0</ele><time>2026-05-02T12:43:57.332Z</time></trkpt><trkpt lat="39.360405" lon="8.52789"><ele>390.0</ele><time>2026-05-02T12:43:58.331Z</time></trkpt><trkpt lat="39.3603217" lon="8.5278383"><ele>390.0</ele><time>2026-05-02T12:43:59.327Z</time></trkpt><trkpt lat="39.3602267" lon="8.5277967"><ele>387.2</ele><time>2026-05-02T12:44:00.328Z</time></trkpt><trkpt lat="39.3601283" lon="8.5277517"><ele>384.4</ele><time>2026-05-02T12:44:01.328Z</time></trkpt><trkpt lat="39.360025" lon="8.5276967"><ele>381.6</ele><time>2026-05-02T12:44:02.391Z</time></trkpt><trkpt lat="39.3599183" lon="8.527655"><ele>378.8</ele><time>2026-05-02T12:44:03.332Z</time></trkpt><trkpt lat="39.359815" lon="8.5276033"><ele>376.0</ele><time>2026-05-02T12:44:04.33Z</time></trkpt><trkpt lat="39.3597117" lon="8.5275467"><ele>376.4</ele><time>2026-05-02T12:44:05.33Z</time></trkpt><trkpt lat="39.35961" lon="8.5274917"><ele>376.8</ele><time>2026-05-02T12:44:06.332Z</time></trkpt><trkpt lat="39.3594967" lon="8.5274567"><ele>377.2</ele><time>2026-05-02T12:44:07.33Z</time></trkpt><trkpt lat="39.3593917" lon="8.52743"><ele>377.59999999999997</ele><time>2026-05-02T12:44:08.37Z</time></trkpt><trkpt lat="39.3592883" lon="8.5274067"><ele>378.0</ele><time>2026-05-02T12:44:09.327Z</time></trkpt><trkpt lat="39.3591867" lon="8.5273833"><ele>378.0</ele><time>2026-05-02T12:44:10.332Z</time></trkpt><trkpt lat="39.3590867" lon="8.527345"><ele>378.0</ele><time>2026-05-02T12:44:11.329Z</time></trkpt><trkpt lat="39.3590017" lon="8.5272967"><ele>378.0</ele><time>2026-05-02T12:44:12.33Z</time></trkpt><trkpt lat="39.358915" lon="8.5272333"><ele>378.0</ele><time>2026-05-02T12:44:13.332Z</time></trkpt><trkpt lat="39.35883" lon="8.5271567"><ele>378.0</ele><time>2026-05-02T12:44:14.373Z</time></trkpt><trkpt lat="39.358775" lon="8.52706"><ele>381.25</ele><time>2026-05-02T12:44:15.329Z</time></trkpt><trkpt lat="39.3587233" lon="8.5269567"><ele>384.5</ele><time>2026-05-02T12:44:16.328Z</time></trkpt><trkpt lat="39.3586833" lon="8.5268317"><ele>387.75</ele><time>2026-05-02T12:44:17.331Z</time></trkpt><trkpt lat="39.3586467" lon="8.5267083"><ele>391.0</ele><time>2026-05-02T12:44:18.332Z</time></trkpt><trkpt lat="39.3586267" lon="8.5265033"><ele>391.0</ele><time>2026-05-02T12:44:19.33Z</time></trkpt><trkpt lat="39.3586317" lon="8.5263117"><ele>391.0</ele><time>2026-05-02T12:44:20.374Z</time></trkpt><trkpt lat="39.3586617" lon="8.5261417"><ele>391.0</ele><time>2026-05-02T12:44:21.331Z</time></trkpt><trkpt lat="39.3586717" lon="8.5259883"><ele>391.0</ele><time>2026-05-02T12:44:22.331Z</time></trkpt><trkpt lat="39.3586767" lon="8.5258333"><ele>386.0</ele><time>2026-05-02T12:44:23.331Z</time></trkpt><trkpt lat="39.3586983" lon="8.5256733"><ele>381.0</ele><time>2026-05-02T12:44:24.331Z</time></trkpt><trkpt lat="39.3587183" lon="8.5255033"><ele>376.0</ele><time>2026-05-02T12:44:25.328Z</time></trkpt><trkpt lat="39.3587233" lon="8.525335"><ele>371.0</ele><time>2026-05-02T12:44:26.38Z</time></trkpt><trkpt lat="39.3587483" lon="8.5251733"><ele>366.6</ele><time>2026-05-02T12:44:27.333Z</time></trkpt><trkpt lat="39.3587383" lon="8.5250267"><ele>362.20000000000005</ele><time>2026-05-02T12:44:28.332Z</time></trkpt><trkpt lat="39.3587167" lon="8.5248883"><ele>357.79999999999995</ele><time>2026-05-02T12:44:29.333Z</time></trkpt><trkpt lat="39.3587017" lon="8.5247567"><ele>353.4</ele><time>2026-05-02T12:44:30.332Z</time></trkpt><trkpt lat="39.3586683" lon="8.52465"><ele>349.0</ele><time>2026-05-02T12:44:31.334Z</time></trkpt><trkpt lat="39.3585967" lon="8.5245717"><ele>350.0</ele><time>2026-05-02T12:44:32.386Z</time></trkpt><trkpt lat="39.3585417" lon="8.524485"><ele>351.0</ele><time>2026-05-02T12:44:33.331Z</time></trkpt><trkpt lat="39.358495" lon="8.5243633"><ele>352.0</ele><time>2026-05-02T12:44:34.329Z</time></trkpt><trkpt lat="39.3584517" lon="8.5242417"><ele>353.0</ele><time>2026-05-02T12:44:35.331Z</time></trkpt><trkpt lat="39.358415" lon="8.5241367"><ele>354.0</ele><time>2026-05-02T12:44:36.334Z</time></trkpt><trkpt lat="39.3583517" lon="8.5240467"><ele>354.0</ele><time>2026-05-02T12:44:37.332Z</time></trkpt><trkpt lat="39.358235" lon="8.5239417"><ele>354.0</ele><time>2026-05-02T12:44:39.332Z</time></trkpt><trkpt lat="39.3581567" lon="8.5239333"><ele>354.0</ele><time>2026-05-02T12:44:40.331Z</time></trkpt><trkpt lat="39.3581617" lon="8.5240683"><ele>354.0</ele><time>2026-05-02T12:44:42.328Z</time></trkpt><trkpt lat="39.35821" lon="8.524235"><ele>354.0</ele><time>2026-05-02T12:44:44.373Z</time></trkpt><trkpt lat="39.3582617" lon="8.52436"><ele>354.0</ele><time>2026-05-02T12:44:45.327Z</time></trkpt><trkpt lat="39.3583033" lon="8.52448"><ele>354.0</ele><time>2026-05-02T12:44:46.33Z</time></trkpt><trkpt lat="39.358335" lon="8.5245817"><ele>354.0</ele><time>2026-05-02T12:44:47.329Z</time></trkpt><trkpt lat="39.3583517" lon="8.52467"><ele>354.0</ele><time>2026-05-02T12:44:48.326Z</time></trkpt><trkpt lat="39.35835" lon="8.5247517"><ele>354.0</ele><time>2026-05-02T12:44:49.332Z</time></trkpt><trkpt lat="39.3582933" lon="8.5248317"><ele>353.1666666666667</ele><time>2026-05-02T12:44:51.331Z</time></trkpt><trkpt lat="39.35822" lon="8.5247483"><ele>352.3333333333333</ele><time>2026-05-02T12:44:53.332Z</time></trkpt><trkpt lat="39.3581733" lon="8.5246833"><ele>351.5</ele><time>2026-05-02T12:44:54.332Z</time></trkpt><trkpt lat="39.3581067" lon="8.5246317"><ele>350.66666666666663</ele><time>2026-05-02T12:44:55.329Z</time></trkpt><trkpt lat="39.358055" lon="8.5245683"><ele>349.8333333333333</ele><time>2026-05-02T12:44:56.393Z</time></trkpt><trkpt lat="39.3579917" lon="8.524515"><ele>349.0</ele><time>2026-05-02T12:44:57.332Z</time></trkpt><trkpt lat="39.35791" lon="8.5244733"><ele>348.5</ele><time>2026-05-02T12:44:58.328Z</time></trkpt><trkpt lat="39.3578183" lon="8.5244883"><ele>348.0</ele><time>2026-05-02T12:44:59.329Z</time></trkpt><trkpt lat="39.3577017" lon="8.5245633"><ele>347.5</ele><time>2026-05-02T12:45:00.33Z</time></trkpt><trkpt lat="39.3575733" lon="8.5247383"><ele>347.0</ele><time>2026-05-02T12:45:01.328Z</time></trkpt><trkpt lat="39.35747" lon="8.524865"><ele>347.5</ele><time>2026-05-02T12:45:02.384Z</time></trkpt><trkpt lat="39.3573583" lon="8.524975"><ele>348.0</ele><time>2026-05-02T12:45:03.332Z</time></trkpt><trkpt lat="39.3572467" lon="8.5250483"><ele>348.5</ele><time>2026-05-02T12:45:04.331Z</time></trkpt><trkpt lat="39.3570933" lon="8.5250517"><ele>349.0</ele><time>2026-05-02T12:45:05.328Z</time></trkpt><trkpt lat="39.35697" lon="8.5250817"><ele>349.0</ele><time>2026-05-02T12:45:06.331Z</time></trkpt><trkpt lat="39.3568517" lon="8.5250917"><ele>349.0</ele><time>2026-05-02T12:45:07.333Z</time></trkpt><trkpt lat="39.356695" lon="8.52502"><ele>349.0</ele><time>2026-05-02T12:45:08.373Z</time></trkpt><trkpt lat="39.3565767" lon="8.5249683"><ele>349.0</ele><time>2026-05-02T12:45:09.33Z</time></trkpt><trkpt lat="39.3564617" lon="8.524895"><ele>349.0</ele><time>2026-05-02T12:45:10.33Z</time></trkpt><trkpt lat="39.3563917" lon="8.52477"><ele>349.0</ele><time>2026-05-02T12:45:11.33Z</time></trkpt><trkpt lat="39.3563483" lon="8.52463"><ele>349.0</ele><time>2026-05-02T12:45:12.329Z</time></trkpt><trkpt lat="39.3564033" lon="8.5243683"><ele>349.0</ele><time>2026-05-02T12:45:13.328Z</time></trkpt><trkpt lat="39.35641" lon="8.524155"><ele>348.0</ele><time>2026-05-02T12:45:14.371Z</time></trkpt><trkpt lat="39.3563967" lon="8.5239583"><ele>347.0</ele><time>2026-05-02T12:45:15.332Z</time></trkpt><trkpt lat="39.3563817" lon="8.52375"><ele>346.0</ele><time>2026-05-02T12:45:16.33Z</time></trkpt><trkpt lat="39.3563583" lon="8.5235567"><ele>346.0</ele><time>2026-05-02T12:45:17.332Z</time></trkpt><trkpt lat="39.3563083" lon="8.523375"><ele>346.0</ele><time>2026-05-02T12:45:18.332Z</time></trkpt><trkpt lat="39.35625" lon="8.5231983"><ele>346.0</ele><time>2026-05-02T12:45:19.327Z</time></trkpt><trkpt lat="39.3561983" lon="8.5230317"><ele>346.0</ele><time>2026-05-02T12:45:20.37Z</time></trkpt><trkpt lat="39.3561467" lon="8.5228717"><ele>339.75</ele><time>2026-05-02T12:45:21.328Z</time></trkpt><trkpt lat="39.35611" lon="8.522725"><ele>333.5</ele><time>2026-05-02T12:45:22.329Z</time></trkpt><trkpt lat="39.35605" lon="8.5225983"><ele>327.25</ele><time>2026-05-02T12:45:23.332Z</time></trkpt><trkpt lat="39.35598" lon="8.5224833"><ele>321.0</ele><time>2026-05-02T12:45:24.33Z</time></trkpt><trkpt lat="39.3558883" lon="8.5223783"><ele>321.0</ele><time>2026-05-02T12:45:25.331Z</time></trkpt><trkpt lat="39.3558117" lon="8.5222783"><ele>321.0</ele><time>2026-05-02T12:45:26.389Z</time></trkpt><trkpt lat="39.3557333" lon="8.5221967"><ele>321.0</ele><time>2026-05-02T12:45:27.334Z</time></trkpt><trkpt lat="39.3556517" lon="8.522115"><ele>321.0</ele><time>2026-05-02T12:45:28.329Z</time></trkpt><trkpt lat="39.3555767" lon="8.52205"><ele>321.0</ele><time>2026-05-02T12:45:29.332Z</time></trkpt><trkpt lat="39.3555" lon="8.5219983"><ele>319.8</ele><time>2026-05-02T12:45:30.326Z</time></trkpt><trkpt lat="39.3554133" lon="8.52197"><ele>318.6</ele><time>2026-05-02T12:45:31.331Z</time></trkpt><trkpt lat="39.35532" lon="8.5219317"><ele>317.4</ele><time>2026-05-02T12:45:32.384Z</time></trkpt><trkpt lat="39.3552183" lon="8.521905"><ele>316.2</ele><time>2026-05-02T12:45:33.332Z</time></trkpt><trkpt lat="39.3551" lon="8.5218967"><ele>315.0</ele><time>2026-05-02T12:45:34.331Z</time></trkpt><trkpt lat="39.3549683" lon="8.5219"><ele>315.0</ele><time>2026-05-02T12:45:35.327Z</time></trkpt><trkpt lat="39.3548283" lon="8.5219183"><ele>315.0</ele><time>2026-05-02T12:45:36.332Z</time></trkpt><trkpt lat="39.3547017" lon="8.521915"><ele>315.0</ele><time>2026-05-02T12:45:37.331Z</time></trkpt><trkpt lat="39.35457" lon="8.521885"><ele>315.0</ele><time>2026-05-02T12:45:38.374Z</time></trkpt><trkpt lat="39.354445" lon="8.5218383"><ele>314.0</ele><time>2026-05-02T12:45:39.327Z</time></trkpt><trkpt lat="39.3543683" lon="8.5217583"><ele>313.0</ele><time>2026-05-02T12:45:40.331Z</time></trkpt><trkpt lat="39.3543017" lon="8.5216383"><ele>312.0</ele><time>2026-05-02T12:45:41.332Z</time></trkpt><trkpt lat="39.3542383" lon="8.52148"><ele>311.0</ele><time>2026-05-02T12:45:42.332Z</time></trkpt><trkpt lat="39.3541667" lon="8.5213533"><ele>311.0</ele><time>2026-05-02T12:45:43.328Z</time></trkpt><trkpt lat="39.354075" lon="8.521255"><ele>311.0</ele><time>2026-05-02T12:45:44.37Z</time></trkpt><trkpt lat="39.35396" lon="8.521185"><ele>311.0</ele><time>2026-05-02T12:45:45.33Z</time></trkpt><trkpt lat="39.3538333" lon="8.5211233"><ele>311.0</ele><time>2026-05-02T12:45:46.33Z</time></trkpt><trkpt lat="39.3537167" lon="8.521115"><ele>311.0</ele><time>2026-05-02T12:45:47.33Z</time></trkpt><trkpt lat="39.3535817" lon="8.5211683"><ele>311.0</ele><time>2026-05-02T12:45:48.332Z</time></trkpt><trkpt lat="39.3534433" lon="8.52129"><ele>311.0</ele><time>2026-05-02T12:45:49.329Z</time></trkpt><trkpt lat="39.3532983" lon="8.5214267"><ele>310.0</ele><time>2026-05-02T12:45:50.373Z</time></trkpt><trkpt lat="39.3531717" lon="8.521515"><ele>309.0</ele><time>2026-05-02T12:45:51.327Z</time></trkpt><trkpt lat="39.3530317" lon="8.52157"><ele>308.0</ele><time>2026-05-02T12:45:52.328Z</time></trkpt><trkpt lat="39.352885" lon="8.52162"><ele>307.0</ele><time>2026-05-02T12:45:53.328Z</time></trkpt><trkpt lat="39.3527433" lon="8.5216517"><ele>306.75</ele><time>2026-05-02T12:45:54.328Z</time></trkpt><trkpt lat="39.3525967" lon="8.5216633"><ele>306.5</ele><time>2026-05-02T12:45:55.331Z</time></trkpt><trkpt lat="39.3524383" lon="8.52164"><ele>306.25</ele><time>2026-05-02T12:45:56.368Z</time></trkpt><trkpt lat="39.352325" lon="8.5215983"><ele>306.0</ele><time>2026-05-02T12:45:57.332Z</time></trkpt><trkpt lat="39.3521983" lon="8.5215433"><ele>306.0</ele><time>2026-05-02T12:45:58.331Z</time></trkpt><trkpt lat="39.352095" lon="8.5215017"><ele>306.0</ele><time>2026-05-02T12:45:59.328Z</time></trkpt><trkpt lat="39.3519717" lon="8.52147"><ele>306.0</ele><time>2026-05-02T12:46:00.332Z</time></trkpt><trkpt lat="39.3518417" lon="8.5213867"><ele>306.0</ele><time>2026-05-02T12:46:01.331Z</time></trkpt><trkpt lat="39.3517183" lon="8.5213467"><ele>306.0</ele><time>2026-05-02T12:46:02.385Z</time></trkpt><trkpt lat="39.3515867" lon="8.52134"><ele>306.0</ele><time>2026-05-02T12:46:03.328Z</time></trkpt><trkpt lat="39.3514317" lon="8.5213317"><ele>306.0</ele><time>2026-05-02T12:46:04.329Z</time></trkpt><trkpt lat="39.351275" lon="8.52133"><ele>306.0</ele><time>2026-05-02T12:46:05.331Z</time></trkpt><trkpt lat="39.3511033" lon="8.52131"><ele>305.0</ele><time>2026-05-02T12:46:06.331Z</time></trkpt><trkpt lat="39.35094" lon="8.5212767"><ele>304.0</ele><time>2026-05-02T12:46:07.329Z</time></trkpt><trkpt lat="39.3507817" lon="8.5212317"><ele>303.0</ele><time>2026-05-02T12:46:08.371Z</time></trkpt><trkpt lat="39.350625" lon="8.5211967"><ele>303.6666666666667</ele><time>2026-05-02T12:46:09.33Z</time></trkpt><trkpt lat="39.3504717" lon="8.5211717"><ele>304.33333333333337</ele><time>2026-05-02T12:46:10.329Z</time></trkpt><trkpt lat="39.3503217" lon="8.5211617"><ele>305.0</ele><time>2026-05-02T12:46:11.331Z</time></trkpt><trkpt lat="39.3501583" lon="8.5211767"><ele>299.6666666666667</ele><time>2026-05-02T12:46:12.33Z</time></trkpt><trkpt lat="39.3500167" lon="8.5212517"><ele>294.3333333333333</ele><time>2026-05-02T12:46:13.332Z</time></trkpt><trkpt lat="39.34987" lon="8.5213767"><ele>289.0</ele><time>2026-05-02T12:46:14.371Z</time></trkpt><trkpt lat="39.3497333" lon="8.52148"><ele>288.0</ele><time>2026-05-02T12:46:15.329Z</time></trkpt><trkpt lat="39.3496083" lon="8.5215633"><ele>287.0</ele><time>2026-05-02T12:46:16.329Z</time></trkpt><trkpt lat="39.34951" lon="8.5217083"><ele>286.0</ele><time>2026-05-02T12:46:17.328Z</time></trkpt><trkpt lat="39.3494117" lon="8.521855"><ele>285.0</ele><time>2026-05-02T12:46:18.329Z</time></trkpt><trkpt lat="39.3493133" lon="8.5219433"><ele>285.0</ele><time>2026-05-02T12:46:19.331Z</time></trkpt><trkpt lat="39.3492133" lon="8.5219883"><ele>285.0</ele><time>2026-05-02T12:46:20.372Z</time></trkpt><trkpt lat="39.3491183" lon="8.522015"><ele>285.0</ele><time>2026-05-02T12:46:21.329Z</time></trkpt><trkpt lat="39.3490317" lon="8.52201"><ele>285.0</ele><time>2026-05-02T12:46:22.327Z</time></trkpt><trkpt lat="39.34895" lon="8.521915"><ele>285.0</ele><time>2026-05-02T12:46:23.328Z</time></trkpt><trkpt lat="39.34888" lon="8.5217717"><ele>287.6666666666667</ele><time>2026-05-02T12:46:24.331Z</time></trkpt><trkpt lat="39.34883" lon="8.5216083"><ele>290.33333333333337</ele><time>2026-05-02T12:46:25.33Z</time></trkpt><trkpt lat="39.3487917" lon="8.521405"><ele>293.0</ele><time>2026-05-02T12:46:26.391Z</time></trkpt><trkpt lat="39.3487467" lon="8.521215"><ele>293.0</ele><time>2026-05-02T12:46:27.333Z</time></trkpt><trkpt lat="39.3487167" lon="8.5210317"><ele>293.0</ele><time>2026-05-02T12:46:28.329Z</time></trkpt><trkpt lat="39.3486867" lon="8.520855"><ele>293.0</ele><time>2026-05-02T12:46:29.332Z</time></trkpt><trkpt lat="39.348635" lon="8.5206967"><ele>293.0</ele><time>2026-05-02T12:46:30.332Z</time></trkpt><trkpt lat="39.3485583" lon="8.5205667"><ele>293.0</ele><time>2026-05-02T12:46:31.327Z</time></trkpt><trkpt lat="39.3484467" lon="8.520465"><ele>293.0</ele><time>2026-05-02T12:46:32.387Z</time></trkpt><trkpt lat="39.3483267" lon="8.5203867"><ele>293.0</ele><time>2026-05-02T12:46:33.328Z</time></trkpt><trkpt lat="39.34818" lon="8.5203483"><ele>293.0</ele><time>2026-05-02T12:46:34.332Z</time></trkpt><trkpt lat="39.3480167" lon="8.5203417"><ele>290.33333333333337</ele><time>2026-05-02T12:46:35.33Z</time></trkpt><trkpt lat="39.3478517" lon="8.52036"><ele>287.6666666666667</ele><time>2026-05-02T12:46:36.33Z</time></trkpt><trkpt lat="39.347685" lon="8.52038"><ele>285.0</ele><time>2026-05-02T12:46:37.329Z</time></trkpt><trkpt lat="39.3475117" lon="8.5203967"><ele>285.3333333333333</ele><time>2026-05-02T12:46:38.373Z</time></trkpt><trkpt lat="39.347325" lon="8.5204"><ele>285.66666666666663</ele><time>2026-05-02T12:46:39.33Z</time></trkpt><trkpt lat="39.3471517" lon="8.5204"><ele>286.0</ele><time>2026-05-02T12:46:40.328Z</time></trkpt><trkpt lat="39.3469883" lon="8.5203683"><ele>284.66666666666663</ele><time>2026-05-02T12:46:41.33Z</time></trkpt><trkpt lat="39.3468083" lon="8.5203383"><ele>283.3333333333333</ele><time>2026-05-02T12:46:42.33Z</time></trkpt><trkpt lat="39.346625" lon="8.5203083"><ele>282.0</ele><time>2026-05-02T12:46:43.336Z</time></trkpt><trkpt lat="39.346455" lon="8.5202633"><ele>280.75</ele><time>2026-05-02T12:46:44.377Z</time></trkpt><trkpt lat="39.3463083" lon="8.5202"><ele>279.5</ele><time>2026-05-02T12:46:45.33Z</time></trkpt><trkpt lat="39.3461717" lon="8.5201417"><ele>278.25</ele><time>2026-05-02T12:46:46.332Z</time></trkpt><trkpt lat="39.3460217" lon="8.52013"><ele>277.0</ele><time>2026-05-02T12:46:47.331Z</time></trkpt><trkpt lat="39.345895" lon="8.5201233"><ele>277.0</ele><time>2026-05-02T12:46:48.333Z</time></trkpt><trkpt lat="39.345775" lon="8.5201467"><ele>277.0</ele><time>2026-05-02T12:46:49.33Z</time></trkpt><trkpt lat="39.3456567" lon="8.5201817"><ele>277.0</ele><time>2026-05-02T12:46:50.372Z</time></trkpt><trkpt lat="39.345555" lon="8.5202633"><ele>277.0</ele><time>2026-05-02T12:46:51.33Z</time></trkpt><trkpt lat="39.3454583" lon="8.520345"><ele>275.6</ele><time>2026-05-02T12:46:52.331Z</time></trkpt><trkpt lat="39.345355" lon="8.520415"><ele>274.2</ele><time>2026-05-02T12:46:53.33Z</time></trkpt><trkpt lat="39.3452617" lon="8.5204733"><ele>272.8</ele><time>2026-05-02T12:46:54.334Z</time></trkpt><trkpt lat="39.3451817" lon="8.5205283"><ele>271.4</ele><time>2026-05-02T12:46:55.332Z</time></trkpt><trkpt lat="39.3451133" lon="8.5205733"><ele>270.0</ele><time>2026-05-02T12:46:56.393Z</time></trkpt><trkpt lat="39.3450533" lon="8.52062"><ele>270.0</ele><time>2026-05-02T12:46:57.33Z</time></trkpt><trkpt lat="39.3449983" lon="8.5206733"><ele>270.0</ele><time>2026-05-02T12:46:58.327Z</time></trkpt><trkpt lat="39.3449417" lon="8.5207333"><ele>270.0</ele><time>2026-05-02T12:46:59.33Z</time></trkpt><trkpt lat="39.3448817" lon="8.520805"><ele>270.0</ele><time>2026-05-02T12:47:00.33Z</time></trkpt><trkpt lat="39.3448183" lon="8.520895"><ele>270.0</ele><time>2026-05-02T12:47:01.332Z</time></trkpt><trkpt lat="39.3447883" lon="8.5210267"><ele>270.0</ele><time>2026-05-02T12:47:02.381Z</time></trkpt><trkpt lat="39.3447933" lon="8.5211717"><ele>269.0</ele><time>2026-05-02T12:47:03.33Z</time></trkpt><trkpt lat="39.3448833" lon="8.5213417"><ele>268.0</ele><time>2026-05-02T12:47:04.331Z</time></trkpt><trkpt lat="39.3449483" lon="8.5215017"><ele>267.0</ele><time>2026-05-02T12:47:05.331Z</time></trkpt><trkpt lat="39.34507" lon="8.5216933"><ele>267.0</ele><time>2026-05-02T12:47:06.33Z</time></trkpt><trkpt lat="39.3451967" lon="8.5218733"><ele>267.0</ele><time>2026-05-02T12:47:07.326Z</time></trkpt><trkpt lat="39.3452883" lon="8.5220433"><ele>267.0</ele><time>2026-05-02T12:47:08.374Z</time></trkpt><trkpt lat="39.3453667" lon="8.5222067"><ele>266.75</ele><time>2026-05-02T12:47:09.331Z</time></trkpt><trkpt lat="39.3454333" lon="8.5223833"><ele>266.5</ele><time>2026-05-02T12:47:10.333Z</time></trkpt><trkpt lat="39.345475" lon="8.522565"><ele>266.25</ele><time>2026-05-02T12:47:11.332Z</time></trkpt><trkpt lat="39.3454967" lon="8.5227367"><ele>266.0</ele><time>2026-05-02T12:47:12.332Z</time></trkpt><trkpt lat="39.3455167" lon="8.522925"><ele>267.0</ele><time>2026-05-02T12:47:13.334Z</time></trkpt><trkpt lat="39.3454983" lon="8.523125"><ele>268.0</ele><time>2026-05-02T12:47:14.374Z</time></trkpt><trkpt lat="39.3454583" lon="8.5232933"><ele>269.0</ele><time>2026-05-02T12:47:15.331Z</time></trkpt><trkpt lat="39.3454367" lon="8.523435"><ele>270.0</ele><time>2026-05-02T12:47:16.331Z</time></trkpt><trkpt lat="39.345435" lon="8.5235767"><ele>270.0</ele><time>2026-05-02T12:47:17.331Z</time></trkpt><trkpt lat="39.3453617" lon="8.52372"><ele>270.0</ele><time>2026-05-02T12:47:18.331Z</time></trkpt><trkpt lat="39.3453233" lon="8.5238667"><ele>270.0</ele><time>2026-05-02T12:47:19.331Z</time></trkpt><trkpt lat="39.3453083" lon="8.5239917"><ele>270.0</ele><time>2026-05-02T12:47:20.373Z</time></trkpt><trkpt lat="39.3452617" lon="8.5241017"><ele>270.0</ele><time>2026-05-02T12:47:21.332Z</time></trkpt><trkpt lat="39.3452" lon="8.5241983"><ele>270.0</ele><time>2026-05-02T12:47:22.328Z</time></trkpt><trkpt lat="39.3448833" lon="8.5242233"><ele>270.0</ele><time>2026-05-02T12:47:23.327Z</time></trkpt><trkpt lat="39.34463" lon="8.5242783"><ele>270.0</ele><time>2026-05-02T12:47:24.327Z</time></trkpt><trkpt lat="39.3443933" lon="8.5243383"><ele>270.0</ele><time>2026-05-02T12:47:25.332Z</time></trkpt><trkpt lat="39.3441633" lon="8.5244067"><ele>270.0</ele><time>2026-05-02T12:47:26.389Z</time></trkpt><trkpt lat="39.34394" lon="8.5244817"><ele>270.0</ele><time>2026-05-02T12:47:27.329Z</time></trkpt><trkpt lat="39.3437533" lon="8.5245567"><ele>270.0</ele><time>2026-05-02T12:47:28.33Z</time></trkpt><trkpt lat="39.3435633" lon="8.5246317"><ele>276.0</ele><time>2026-05-02T12:47:29.327Z</time></trkpt><trkpt lat="39.343385" lon="8.5247"><ele>282.0</ele><time>2026-05-02T12:47:30.33Z</time></trkpt><trkpt lat="39.3432133" lon="8.52476"><ele>288.0</ele><time>2026-05-02T12:47:31.329Z</time></trkpt><trkpt lat="39.343035" lon="8.5248033"><ele>289.0</ele><time>2026-05-02T12:47:32.381Z</time></trkpt><trkpt lat="39.342865" lon="8.524835"><ele>290.0</ele><time>2026-05-02T12:47:33.328Z</time></trkpt><trkpt lat="39.3426433" lon="8.5247983"><ele>291.0</ele><time>2026-05-02T12:47:34.33Z</time></trkpt><trkpt lat="39.3424533" lon="8.5247767"><ele>291.0</ele><time>2026-05-02T12:47:35.33Z</time></trkpt><trkpt lat="39.342265" lon="8.5247417"><ele>291.0</ele><time>2026-05-02T12:47:36.332Z</time></trkpt><trkpt lat="39.34207" lon="8.524685"><ele>291.0</ele><time>2026-05-02T12:47:37.327Z</time></trkpt><trkpt lat="39.3418867" lon="8.524635"><ele>288.0</ele><time>2026-05-02T12:47:38.367Z</time></trkpt><trkpt lat="39.3417" lon="8.5245867"><ele>285.0</ele><time>2026-05-02T12:47:39.328Z</time></trkpt><trkpt lat="39.3415067" lon="8.5245383"><ele>282.0</ele><time>2026-05-02T12:47:40.33Z</time></trkpt><trkpt lat="39.341325" lon="8.5244833"><ele>278.0</ele><time>2026-05-02T12:47:41.329Z</time></trkpt><trkpt lat="39.34116" lon="8.5244233"><ele>274.0</ele><time>2026-05-02T12:47:42.33Z</time></trkpt><trkpt lat="39.34099" lon="8.5243517"><ele>270.0</ele><time>2026-05-02T12:47:43.327Z</time></trkpt><trkpt lat="39.34083" lon="8.5242967"><ele>270.0</ele><time>2026-05-02T12:47:44.373Z</time></trkpt><trkpt lat="39.3406633" lon="8.5242567"><ele>270.0</ele><time>2026-05-02T12:47:45.329Z</time></trkpt><trkpt lat="39.3404717" lon="8.5242217"><ele>270.0</ele><time>2026-05-02T12:47:46.33Z</time></trkpt><trkpt lat="39.3402867" lon="8.5242117"><ele>272.0</ele><time>2026-05-02T12:47:47.328Z</time></trkpt><trkpt lat="39.3400717" lon="8.5241917"><ele>274.0</ele><time>2026-05-02T12:47:48.332Z</time></trkpt><trkpt lat="39.3398567" lon="8.5241667"><ele>276.0</ele><time>2026-05-02T12:47:49.326Z</time></trkpt><trkpt lat="39.3396733" lon="8.5241433"><ele>276.0</ele><time>2026-05-02T12:47:50.369Z</time></trkpt><trkpt lat="39.339495" lon="8.5241233"><ele>276.0</ele><time>2026-05-02T12:47:51.33Z</time></trkpt><trkpt lat="39.3393083" lon="8.5241033"><ele>276.0</ele><time>2026-05-02T12:47:52.329Z</time></trkpt><trkpt lat="39.3391483" lon="8.5241083"><ele>276.0</ele><time>2026-05-02T12:47:53.33Z</time></trkpt><trkpt lat="39.3390067" lon="8.5241467"><ele>276.0</ele><time>2026-05-02T12:47:54.329Z</time></trkpt><trkpt lat="39.33889" lon="8.5242233"><ele>276.0</ele><time>2026-05-02T12:47:55.331Z</time></trkpt><trkpt lat="39.3387867" lon="8.5243383"><ele>276.0</ele><time>2026-05-02T12:47:56.392Z</time></trkpt><trkpt lat="39.3387117" lon="8.52449"><ele>269.3333333333333</ele><time>2026-05-02T12:47:57.332Z</time></trkpt><trkpt lat="39.338675" lon="8.5246817"><ele>262.66666666666663</ele><time>2026-05-02T12:47:58.327Z</time></trkpt><trkpt lat="39.33866" lon="8.5248883"><ele>256.0</ele><time>2026-05-02T12:47:59.326Z</time></trkpt><trkpt lat="39.3386517" lon="8.5250933"><ele>256.0</ele><time>2026-05-02T12:48:00.331Z</time></trkpt><trkpt lat="39.338635" lon="8.5252833"><ele>256.0</ele><time>2026-05-02T12:48:01.33Z</time></trkpt><trkpt lat="39.3386" lon="8.5254617"><ele>256.0</ele><time>2026-05-02T12:48:02.382Z</time></trkpt><trkpt lat="39.33856" lon="8.5256317"><ele>256.0</ele><time>2026-05-02T12:48:03.326Z</time></trkpt><trkpt lat="39.3385133" lon="8.5257833"><ele>263.0</ele><time>2026-05-02T12:48:04.328Z</time></trkpt><trkpt lat="39.3384583" lon="8.525935"><ele>270.0</ele><time>2026-05-02T12:48:05.33Z</time></trkpt><trkpt lat="39.338385" lon="8.5260917"><ele>277.0</ele><time>2026-05-02T12:48:06.327Z</time></trkpt><trkpt lat="39.338305" lon="8.526225"><ele>284.0</ele><time>2026-05-02T12:48:07.328Z</time></trkpt><trkpt lat="39.3381617" lon="8.5263367"><ele>281.33333333333337</ele><time>2026-05-02T12:48:08.369Z</time></trkpt><trkpt lat="39.3380067" lon="8.5264233"><ele>278.6666666666667</ele><time>2026-05-02T12:48:09.326Z</time></trkpt><trkpt lat="39.3378783" lon="8.5265367"><ele>276.0</ele><time>2026-05-02T12:48:10.329Z</time></trkpt><trkpt lat="39.337745" lon="8.526675"><ele>276.0</ele><time>2026-05-02T12:48:11.328Z</time></trkpt><trkpt lat="39.33758" lon="8.5268083"><ele>276.0</ele><time>2026-05-02T12:48:12.325Z</time></trkpt><trkpt lat="39.3374333" lon="8.5269517"><ele>276.0</ele><time>2026-05-02T12:48:13.326Z</time></trkpt><trkpt lat="39.337305" lon="8.5271"><ele>281.3333333333333</ele><time>2026-05-02T12:48:14.372Z</time></trkpt><trkpt lat="39.337175" lon="8.52723"><ele>286.66666666666663</ele><time>2026-05-02T12:48:15.328Z</time></trkpt><trkpt lat="39.33705" lon="8.5273583"><ele>292.0</ele><time>2026-05-02T12:48:16.326Z</time></trkpt><trkpt lat="39.3369217" lon="8.5275033"><ele>292.0</ele><time>2026-05-02T12:48:17.331Z</time></trkpt><trkpt lat="39.336805" lon="8.5276317"><ele>292.0</ele><time>2026-05-02T12:48:18.327Z</time></trkpt><trkpt lat="39.3366667" lon="8.5277383"><ele>292.0</ele><time>2026-05-02T12:48:19.33Z</time></trkpt><trkpt lat="39.336505" lon="8.527815"><ele>287.3333333333333</ele><time>2026-05-02T12:48:20.371Z</time></trkpt><trkpt lat="39.33635" lon="8.52786"><ele>282.6666666666667</ele><time>2026-05-02T12:48:21.329Z</time></trkpt><trkpt lat="39.3362183" lon="8.5278983"><ele>278.0</ele><time>2026-05-02T12:48:22.328Z</time></trkpt><trkpt lat="39.3360567" lon="8.5278883"><ele>278.0</ele><time>2026-05-02T12:48:23.331Z</time></trkpt><trkpt lat="39.33589" lon="8.52787"><ele>278.0</ele><time>2026-05-02T12:48:24.326Z</time></trkpt><trkpt lat="39.3357067" lon="8.5278117"><ele>278.0</ele><time>2026-05-02T12:48:25.327Z</time></trkpt><trkpt lat="39.3355133" lon="8.5276967"><ele>275.6666666666667</ele><time>2026-05-02T12:48:26.368Z</time></trkpt><trkpt lat="39.3353433" lon="8.5276567"><ele>273.3333333333333</ele><time>2026-05-02T12:48:27.326Z</time></trkpt><trkpt lat="39.335185" lon="8.5275167"><ele>271.0</ele><time>2026-05-02T12:48:28.329Z</time></trkpt><trkpt lat="39.3350383" lon="8.52739"><ele>271.0</ele><time>2026-05-02T12:48:29.33Z</time></trkpt><trkpt lat="39.3349017" lon="8.52726"><ele>271.0</ele><time>2026-05-02T12:48:30.325Z</time></trkpt><trkpt lat="39.3347567" lon="8.5271367"><ele>271.0</ele><time>2026-05-02T12:48:31.327Z</time></trkpt><trkpt lat="39.33461" lon="8.5270467"><ele>266.3333333333333</ele><time>2026-05-02T12:48:32.384Z</time></trkpt><trkpt lat="39.3344633" lon="8.526965"><ele>261.6666666666667</ele><time>2026-05-02T12:48:33.328Z</time></trkpt><trkpt lat="39.3343167" lon="8.5269133"><ele>257.0</ele><time>2026-05-02T12:48:34.332Z</time></trkpt><trkpt lat="39.3341767" lon="8.5268917"><ele>257.0</ele><time>2026-05-02T12:48:35.329Z</time></trkpt><trkpt lat="39.3340417" lon="8.5268817"><ele>257.0</ele><time>2026-05-02T12:48:36.327Z</time></trkpt><trkpt lat="39.3339183" lon="8.52686"><ele>257.0</ele><time>2026-05-02T12:48:37.329Z</time></trkpt><trkpt lat="39.33379" lon="8.526865"><ele>257.0</ele><time>2026-05-02T12:48:38.37Z</time></trkpt><trkpt lat="39.3336333" lon="8.5267933"><ele>252.33333333333334</ele><time>2026-05-02T12:48:39.329Z</time></trkpt><trkpt lat="39.3334467" lon="8.5267767"><ele>247.66666666666669</ele><time>2026-05-02T12:48:40.325Z</time></trkpt><trkpt lat="39.3332917" lon="8.5268267"><ele>243.0</ele><time>2026-05-02T12:48:41.33Z</time></trkpt><trkpt lat="39.3331517" lon="8.526895"><ele>251.25</ele><time>2026-05-02T12:48:42.327Z</time></trkpt><trkpt lat="39.33303" lon="8.5269883"><ele>259.5</ele><time>2026-05-02T12:48:43.329Z</time></trkpt><trkpt lat="39.3329233" lon="8.5271167"><ele>267.75</ele><time>2026-05-02T12:48:44.38Z</time></trkpt><trkpt lat="39.33286" lon="8.5273067"><ele>276.0</ele><time>2026-05-02T12:48:45.327Z</time></trkpt><trkpt lat="39.3327883" lon="8.5276617"><ele>280.0</ele><time>2026-05-02T12:48:46.327Z</time></trkpt><trkpt lat="39.3327017" lon="8.5278883"><ele>284.0</ele><time>2026-05-02T12:48:47.329Z</time></trkpt><trkpt lat="39.3326083" lon="8.528115"><ele>288.0</ele><time>2026-05-02T12:48:48.329Z</time></trkpt><trkpt lat="39.332515" lon="8.52832"><ele>289.6666666666667</ele><time>2026-05-02T12:48:49.328Z</time></trkpt><trkpt lat="39.33243" lon="8.5285517"><ele>291.33333333333337</ele><time>2026-05-02T12:48:50.37Z</time></trkpt><trkpt lat="39.33235" lon="8.5287617"><ele>293.0</ele><time>2026-05-02T12:48:51.33Z</time></trkpt><trkpt lat="39.3322717" lon="8.5289767"><ele>293.33333333333337</ele><time>2026-05-02T12:48:52.328Z</time></trkpt><trkpt lat="39.332195" lon="8.5291867"><ele>293.6666666666667</ele><time>2026-05-02T12:48:53.324Z</time></trkpt><trkpt lat="39.3321167" lon="8.52938"><ele>294.0</ele><time>2026-05-02T12:48:54.331Z</time></trkpt><trkpt lat="39.3320333" lon="8.5296083"><ele>294.0</ele><time>2026-05-02T12:48:55.329Z</time></trkpt><trkpt lat="39.33195" lon="8.5298133"><ele>294.0</ele><time>2026-05-02T12:48:56.389Z</time></trkpt><trkpt lat="39.3318733" lon="8.52996"><ele>294.0</ele><time>2026-05-02T12:48:57.332Z</time></trkpt><trkpt lat="39.3317817" lon="8.5300733"><ele>294.0</ele><time>2026-05-02T12:48:58.328Z</time></trkpt><trkpt lat="39.3316217" lon="8.5301333"><ele>294.0</ele><time>2026-05-02T12:48:59.331Z</time></trkpt><trkpt lat="39.3314883" lon="8.530205"><ele>294.0</ele><time>2026-05-02T12:49:00.327Z</time></trkpt><trkpt lat="39.3313667" lon="8.5302933"><ele>294.0</ele><time>2026-05-02T12:49:01.327Z</time></trkpt><trkpt lat="39.3312467" lon="8.5303983"><ele>294.0</ele><time>2026-05-02T12:49:02.382Z</time></trkpt><trkpt lat="39.331125" lon="8.5305167"><ele>292.3333333333333</ele><time>2026-05-02T12:49:03.328Z</time></trkpt><trkpt lat="39.3309983" lon="8.5306367"><ele>290.66666666666663</ele><time>2026-05-02T12:49:04.33Z</time></trkpt><trkpt lat="39.3308867" lon="8.5307633"><ele>289.0</ele><time>2026-05-02T12:49:05.325Z</time></trkpt><trkpt lat="39.3307717" lon="8.5308817"><ele>289.0</ele><time>2026-05-02T12:49:06.33Z</time></trkpt><trkpt lat="39.3306583" lon="8.530985"><ele>289.0</ele><time>2026-05-02T12:49:07.33Z</time></trkpt><trkpt lat="39.330535" lon="8.5310783"><ele>289.0</ele><time>2026-05-02T12:49:08.371Z</time></trkpt><trkpt lat="39.3304" lon="8.531145"><ele>289.0</ele><time>2026-05-02T12:49:09.326Z</time></trkpt><trkpt lat="39.3302517" lon="8.5312033"><ele>284.3333333333333</ele><time>2026-05-02T12:49:10.33Z</time></trkpt><trkpt lat="39.3300983" lon="8.531255"><ele>279.6666666666667</ele><time>2026-05-02T12:49:11.33Z</time></trkpt><trkpt lat="39.32994" lon="8.53129"><ele>275.0</ele><time>2026-05-02T12:49:12.33Z</time></trkpt><trkpt lat="39.3297717" lon="8.5313217"><ele>278.0</ele><time>2026-05-02T12:49:13.33Z</time></trkpt><trkpt lat="39.3295933" lon="8.5313533"><ele>281.0</ele><time>2026-05-02T12:49:14.372Z</time></trkpt><trkpt lat="39.3293967" lon="8.5313867"><ele>284.0</ele><time>2026-05-02T12:49:15.332Z</time></trkpt><trkpt lat="39.3292233" lon="8.5314167"><ele>284.0</ele><time>2026-05-02T12:49:16.328Z</time></trkpt><trkpt lat="39.32903" lon="8.5314183"><ele>284.0</ele><time>2026-05-02T12:49:17.329Z</time></trkpt><trkpt lat="39.3288417" lon="8.5314083"><ele>284.0</ele><time>2026-05-02T12:49:18.331Z</time></trkpt><trkpt lat="39.3286617" lon="8.5314083"><ele>285.33333333333337</ele><time>2026-05-02T12:49:19.329Z</time></trkpt><trkpt lat="39.32848" lon="8.5314317"><ele>286.6666666666667</ele><time>2026-05-02T12:49:20.371Z</time></trkpt><trkpt lat="39.3283083" lon="8.531465"><ele>288.0</ele><time>2026-05-02T12:49:21.325Z</time></trkpt><trkpt lat="39.328155" lon="8.5314967"><ele>287.0</ele><time>2026-05-02T12:49:22.328Z</time></trkpt><trkpt lat="39.327975" lon="8.5314967"><ele>286.0</ele><time>2026-05-02T12:49:23.328Z</time></trkpt><trkpt lat="39.3278033" lon="8.5314867"><ele>285.0</ele><time>2026-05-02T12:49:24.331Z</time></trkpt><trkpt lat="39.3276317" lon="8.5314617"><ele>285.0</ele><time>2026-05-02T12:49:25.331Z</time></trkpt><trkpt lat="39.3274617" lon="8.5314433"><ele>285.0</ele><time>2026-05-02T12:49:26.39Z</time></trkpt><trkpt lat="39.327295" lon="8.53143"><ele>285.0</ele><time>2026-05-02T12:49:27.327Z</time></trkpt><trkpt lat="39.32714" lon="8.5314333"><ele>284.0</ele><time>2026-05-02T12:49:28.33Z</time></trkpt><trkpt lat="39.32698" lon="8.5314467"><ele>283.0</ele><time>2026-05-02T12:49:29.329Z</time></trkpt><trkpt lat="39.3268267" lon="8.531475"><ele>282.0</ele><time>2026-05-02T12:49:30.329Z</time></trkpt><trkpt lat="39.3266733" lon="8.531505"><ele>282.0</ele><time>2026-05-02T12:49:31.331Z</time></trkpt><trkpt lat="39.3265333" lon="8.5315567"><ele>282.0</ele><time>2026-05-02T12:49:32.384Z</time></trkpt><trkpt lat="39.32639" lon="8.5316117"><ele>282.0</ele><time>2026-05-02T12:49:33.329Z</time></trkpt><trkpt lat="39.3262383" lon="8.5316867"><ele>278.3333333333333</ele><time>2026-05-02T12:49:34.331Z</time></trkpt><trkpt lat="39.3260967" lon="8.531775"><ele>274.66666666666663</ele><time>2026-05-02T12:49:35.328Z</time></trkpt><trkpt lat="39.3259333" lon="8.5318567"><ele>271.0</ele><time>2026-05-02T12:49:36.331Z</time></trkpt><trkpt lat="39.32576" lon="8.5319533"><ele>271.0</ele><time>2026-05-02T12:49:37.325Z</time></trkpt><trkpt lat="39.3255833" lon="8.5320417"><ele>271.0</ele><time>2026-05-02T12:49:38.366Z</time></trkpt><trkpt lat="39.3253917" lon="8.5321167"><ele>271.0</ele><time>2026-05-02T12:49:39.326Z</time></trkpt><trkpt lat="39.3252083" lon="8.5321933"><ele>266.0</ele><time>2026-05-02T12:49:40.33Z</time></trkpt><trkpt lat="39.32503" lon="8.53227"><ele>261.0</ele><time>2026-05-02T12:49:41.326Z</time></trkpt><trkpt lat="39.3248633" lon="8.5323533"><ele>256.0</ele><time>2026-05-02T12:49:42.325Z</time></trkpt><trkpt lat="39.324705" lon="8.5324433"><ele>254.0</ele><time>2026-05-02T12:49:43.329Z</time></trkpt><trkpt lat="39.3245633" lon="8.532555"><ele>252.0</ele><time>2026-05-02T12:49:44.369Z</time></trkpt><trkpt lat="39.32445" lon="8.53267"><ele>250.0</ele><time>2026-05-02T12:49:45.331Z</time></trkpt><trkpt lat="39.3243733" lon="8.53281"><ele>248.0</ele><time>2026-05-02T12:49:46.328Z</time></trkpt><trkpt lat="39.324335" lon="8.5329517"><ele>247.0</ele><time>2026-05-02T12:49:47.327Z</time></trkpt><trkpt lat="39.32434" lon="8.5330833"><ele>246.0</ele><time>2026-05-02T12:49:48.327Z</time></trkpt><trkpt lat="39.3243567" lon="8.5331933"><ele>245.0</ele><time>2026-05-02T12:49:49.328Z</time></trkpt><trkpt lat="39.324385" lon="8.53329"><ele>244.0</ele><time>2026-05-02T12:49:50.37Z</time></trkpt><trkpt lat="39.3245017" lon="8.5333883"><ele>243.0</ele><time>2026-05-02T12:49:51.324Z</time></trkpt><trkpt lat="39.3245617" lon="8.5335"><ele>243.0</ele><time>2026-05-02T12:49:52.329Z</time></trkpt><trkpt lat="39.3246" lon="8.53363"><ele>243.0</ele><time>2026-05-02T12:49:53.325Z</time></trkpt><trkpt lat="39.3246517" lon="8.5337767"><ele>243.0</ele><time>2026-05-02T12:49:54.33Z</time></trkpt><trkpt lat="39.32468" lon="8.5339367"><ele>243.0</ele><time>2026-05-02T12:49:55.329Z</time></trkpt><trkpt lat="39.3246967" lon="8.5341117"><ele>243.0</ele><time>2026-05-02T12:49:56.387Z</time></trkpt><trkpt lat="39.3246983" lon="8.534265"><ele>243.0</ele><time>2026-05-02T12:49:57.329Z</time></trkpt><trkpt lat="39.3247117" lon="8.53442"><ele>243.0</ele><time>2026-05-02T12:49:58.325Z</time></trkpt><trkpt lat="39.3246317" lon="8.5345267"><ele>243.0</ele><time>2026-05-02T12:49:59.326Z</time></trkpt><trkpt lat="39.32458" lon="8.5346167"><ele>243.0</ele><time>2026-05-02T12:50:00.327Z</time></trkpt><trkpt lat="39.324505" lon="8.5346967"><ele>247.0</ele><time>2026-05-02T12:50:01.326Z</time></trkpt><trkpt lat="39.324405" lon="8.5347667"><ele>251.0</ele><time>2026-05-02T12:50:02.382Z</time></trkpt><trkpt lat="39.3242083" lon="8.53474"><ele>255.0</ele><time>2026-05-02T12:50:03.329Z</time></trkpt><trkpt lat="39.3240283" lon="8.5346867"><ele>255.0</ele><time>2026-05-02T12:50:04.325Z</time></trkpt><trkpt lat="39.3239283" lon="8.5347"><ele>255.0</ele><time>2026-05-02T12:50:05.33Z</time></trkpt><trkpt lat="39.32373" lon="8.5346167"><ele>255.0</ele><time>2026-05-02T12:50:06.324Z</time></trkpt><trkpt lat="39.323615" lon="8.5345883"><ele>255.0</ele><time>2026-05-02T12:50:07.325Z</time></trkpt><trkpt lat="39.3234317" lon="8.5344583"><ele>254.33333333333331</ele><time>2026-05-02T12:50:08.37Z</time></trkpt><trkpt lat="39.32331" lon="8.5342333"><ele>253.66666666666666</ele><time>2026-05-02T12:50:09.325Z</time></trkpt><trkpt lat="39.323175" lon="8.53407"><ele>253.0</ele><time>2026-05-02T12:50:10.323Z</time></trkpt><trkpt lat="39.3229867" lon="8.5339333"><ele>255.66666666666666</ele><time>2026-05-02T12:50:11.328Z</time></trkpt><trkpt lat="39.32283" lon="8.53383"><ele>258.3333333333333</ele><time>2026-05-02T12:50:12.329Z</time></trkpt><trkpt lat="39.32269" lon="8.533685"><ele>261.0</ele><time>2026-05-02T12:50:13.327Z</time></trkpt><trkpt lat="39.3225183" lon="8.5335267"><ele>251.0</ele><time>2026-05-02T12:50:14.372Z</time></trkpt><trkpt lat="39.322355" lon="8.533385"><ele>241.0</ele><time>2026-05-02T12:50:15.325Z</time></trkpt><trkpt lat="39.3222283" lon="8.53326"><ele>231.0</ele><time>2026-05-02T12:50:16.331Z</time></trkpt><trkpt lat="39.3220983" lon="8.53317"><ele>229.66666666666669</ele><time>2026-05-02T12:50:17.328Z</time></trkpt><trkpt lat="39.3219583" lon="8.533095"><ele>228.33333333333334</ele><time>2026-05-02T12:50:18.331Z</time></trkpt><trkpt lat="39.3218167" lon="8.5330367"><ele>227.0</ele><time>2026-05-02T12:50:19.329Z</time></trkpt><trkpt lat="39.3216683" lon="8.5329867"><ele>227.0</ele><time>2026-05-02T12:50:20.372Z</time></trkpt><trkpt lat="39.3215167" lon="8.532945"><ele>227.0</ele><time>2026-05-02T12:50:21.327Z</time></trkpt><trkpt lat="39.3213533" lon="8.5328933"><ele>227.0</ele><time>2026-05-02T12:50:22.326Z</time></trkpt><trkpt lat="39.3211933" lon="8.5328583"><ele>228.0</ele><time>2026-05-02T12:50:23.328Z</time></trkpt><trkpt lat="39.3210433" lon="8.532825"><ele>229.0</ele><time>2026-05-02T12:50:24.33Z</time></trkpt><trkpt lat="39.3209033" lon="8.5327917"><ele>230.0</ele><time>2026-05-02T12:50:25.33Z</time></trkpt><trkpt lat="39.320775" lon="8.5327617"><ele>231.0</ele><time>2026-05-02T12:50:26.391Z</time></trkpt><trkpt lat="39.3206467" lon="8.53274"><ele>227.5</ele><time>2026-05-02T12:50:27.333Z</time></trkpt><trkpt lat="39.3205217" lon="8.532725"><ele>224.0</ele><time>2026-05-02T12:50:28.329Z</time></trkpt><trkpt lat="39.320405" lon="8.5327067"><ele>220.5</ele><time>2026-05-02T12:50:29.332Z</time></trkpt><trkpt lat="39.320295" lon="8.5326867"><ele>217.0</ele><time>2026-05-02T12:50:30.329Z</time></trkpt><trkpt lat="39.3201883" lon="8.5326667"><ele>217.0</ele><time>2026-05-02T12:50:31.326Z</time></trkpt><trkpt lat="39.320085" lon="8.532655"><ele>217.0</ele><time>2026-05-02T12:50:32.38Z</time></trkpt><trkpt lat="39.3199867" lon="8.5326567"><ele>217.0</ele><time>2026-05-02T12:50:33.327Z</time></trkpt><trkpt lat="39.319895" lon="8.5326517"><ele>217.0</ele><time>2026-05-02T12:50:34.331Z</time></trkpt><trkpt lat="39.3198117" lon="8.5326233"><ele>217.0</ele><time>2026-05-02T12:50:35.331Z</time></trkpt><trkpt lat="39.319725" lon="8.5325833"><ele>215.6</ele><time>2026-05-02T12:50:36.33Z</time></trkpt><trkpt lat="39.3196383" lon="8.5325167"><ele>214.2</ele><time>2026-05-02T12:50:37.328Z</time></trkpt><trkpt lat="39.31955" lon="8.5324433"><ele>212.8</ele><time>2026-05-02T12:50:38.37Z</time></trkpt><trkpt lat="39.31945" lon="8.5323533"><ele>211.4</ele><time>2026-05-02T12:50:39.327Z</time></trkpt><trkpt lat="39.319365" lon="8.5322417"><ele>210.0</ele><time>2026-05-02T12:50:40.329Z</time></trkpt><trkpt lat="39.3192883" lon="8.5321117"><ele>209.5</ele><time>2026-05-02T12:50:41.324Z</time></trkpt><trkpt lat="39.3192917" lon="8.5318867"><ele>209.0</ele><time>2026-05-02T12:50:42.331Z</time></trkpt><trkpt lat="39.319425" lon="8.53157"><ele>209.0</ele><time>2026-05-02T12:50:43.324Z</time></trkpt><trkpt lat="39.3194733" lon="8.5313583"><ele>209.0</ele><time>2026-05-02T12:50:44.372Z</time></trkpt><trkpt lat="39.3195317" lon="8.531145"><ele>209.0</ele><time>2026-05-02T12:50:45.33Z</time></trkpt><trkpt lat="39.3195833" lon="8.530945"><ele>210.66666666666669</ele><time>2026-05-02T12:50:46.33Z</time></trkpt><trkpt lat="39.3196517" lon="8.530735"><ele>212.33333333333331</ele><time>2026-05-02T12:50:47.327Z</time></trkpt><trkpt lat="39.3197283" lon="8.530545"><ele>214.0</ele><time>2026-05-02T12:50:48.331Z</time></trkpt><trkpt lat="39.3198167" lon="8.53036"><ele>214.66666666666666</ele><time>2026-05-02T12:50:49.329Z</time></trkpt><trkpt lat="39.3199083" lon="8.5301867"><ele>215.33333333333331</ele><time>2026-05-02T12:50:50.37Z</time></trkpt><trkpt lat="39.3200033" lon="8.5300167"><ele>216.0</ele><time>2026-05-02T12:50:51.328Z</time></trkpt><trkpt lat="39.3201133" lon="8.5298617"><ele>216.0</ele><time>2026-05-02T12:50:52.329Z</time></trkpt><trkpt lat="39.3202383" lon="8.5297133"><ele>216.0</ele><time>2026-05-02T12:50:53.328Z</time></trkpt><trkpt lat="39.3204317" lon="8.5295883"><ele>216.0</ele><time>2026-05-02T12:50:54.33Z</time></trkpt><trkpt lat="39.3207117" lon="8.5295467"><ele>217.5</ele><time>2026-05-02T12:50:55.329Z</time></trkpt><trkpt lat="39.320935" lon="8.52948"><ele>219.0</ele><time>2026-05-02T12:50:56.387Z</time></trkpt><trkpt lat="39.3211733" lon="8.5294117"><ele>223.0</ele><time>2026-05-02T12:50:57.327Z</time></trkpt><trkpt lat="39.321435" lon="8.5293567"><ele>227.0</ele><time>2026-05-02T12:50:58.328Z</time></trkpt><trkpt lat="39.3217217" lon="8.5292683"><ele>227.0</ele><time>2026-05-02T12:50:59.329Z</time></trkpt><trkpt lat="39.3219767" lon="8.52919"><ele>227.0</ele><time>2026-05-02T12:51:00.328Z</time></trkpt><trkpt lat="39.322205" lon="8.5291317"><ele>230.0</ele><time>2026-05-02T12:51:01.328Z</time></trkpt><trkpt lat="39.3224467" lon="8.5290617"><ele>233.0</ele><time>2026-05-02T12:51:02.383Z</time></trkpt><trkpt lat="39.3226817" lon="8.5289917"><ele>233.0</ele><time>2026-05-02T12:51:03.328Z</time></trkpt><trkpt lat="39.322905" lon="8.52889"><ele>233.0</ele><time>2026-05-02T12:51:04.329Z</time></trkpt><trkpt lat="39.32309" lon="8.5287917"><ele>233.0</ele><time>2026-05-02T12:51:05.329Z</time></trkpt><trkpt lat="39.3232833" lon="8.52867"><ele>233.66666666666669</ele><time>2026-05-02T12:51:06.331Z</time></trkpt><trkpt lat="39.32344" lon="8.5284933"><ele>234.33333333333331</ele><time>2026-05-02T12:51:07.331Z</time></trkpt><trkpt lat="39.3235733" lon="8.5282867"><ele>235.0</ele><time>2026-05-02T12:51:08.37Z</time></trkpt><trkpt lat="39.323685" lon="8.5280733"><ele>237.33333333333331</ele><time>2026-05-02T12:51:09.326Z</time></trkpt><trkpt lat="39.3237817" lon="8.5278517"><ele>239.66666666666669</ele><time>2026-05-02T12:51:10.327Z</time></trkpt><trkpt lat="39.3238533" lon="8.5276133"><ele>242.0</ele><time>2026-05-02T12:51:11.327Z</time></trkpt><trkpt lat="39.3238917" lon="8.527355"><ele>242.0</ele><time>2026-05-02T12:51:12.33Z</time></trkpt><trkpt lat="39.323895" lon="8.5271067"><ele>242.0</ele><time>2026-05-02T12:51:13.33Z</time></trkpt><trkpt lat="39.3238817" lon="8.5268333"><ele>242.0</ele><time>2026-05-02T12:51:14.37Z</time></trkpt><trkpt lat="39.323845" lon="8.5265833"><ele>242.66666666666669</ele><time>2026-05-02T12:51:15.331Z</time></trkpt><trkpt lat="39.3237933" lon="8.5263433"><ele>243.33333333333331</ele><time>2026-05-02T12:51:16.326Z</time></trkpt><trkpt lat="39.3237233" lon="8.526125"><ele>244.0</ele><time>2026-05-02T12:51:17.329Z</time></trkpt><trkpt lat="39.3236317" lon="8.5259317"><ele>244.0</ele><time>2026-05-02T12:51:18.331Z</time></trkpt><trkpt lat="39.32352" lon="8.5257333"><ele>244.0</ele><time>2026-05-02T12:51:19.329Z</time></trkpt><trkpt lat="39.3233683" lon="8.525555"><ele>244.0</ele><time>2026-05-02T12:51:20.369Z</time></trkpt><trkpt lat="39.3232283" lon="8.52543"><ele>243.0</ele><time>2026-05-02T12:51:21.325Z</time></trkpt><trkpt lat="39.323055" lon="8.52531"><ele>242.0</ele><time>2026-05-02T12:51:22.327Z</time></trkpt><trkpt lat="39.3228867" lon="8.5252383"><ele>241.0</ele><time>2026-05-02T12:51:23.326Z</time></trkpt><trkpt lat="39.3227467" lon="8.52513"><ele>241.0</ele><time>2026-05-02T12:51:24.327Z</time></trkpt><trkpt lat="39.3226067" lon="8.52502"><ele>241.0</ele><time>2026-05-02T12:51:25.331Z</time></trkpt><trkpt lat="39.32249" lon="8.524875"><ele>241.0</ele><time>2026-05-02T12:51:26.39Z</time></trkpt><trkpt lat="39.3223933" lon="8.5247217"><ele>243.0</ele><time>2026-05-02T12:51:27.326Z</time></trkpt><trkpt lat="39.3223083" lon="8.5245533"><ele>245.0</ele><time>2026-05-02T12:51:28.329Z</time></trkpt><trkpt lat="39.3222533" lon="8.524335"><ele>247.0</ele><time>2026-05-02T12:51:29.33Z</time></trkpt><trkpt lat="39.32223" lon="8.5241183"><ele>247.0</ele><time>2026-05-02T12:51:30.325Z</time></trkpt><trkpt lat="39.32225" lon="8.5238883"><ele>247.0</ele><time>2026-05-02T12:51:31.331Z</time></trkpt><trkpt lat="39.3222317" lon="8.523675"><ele>247.0</ele><time>2026-05-02T12:51:32.381Z</time></trkpt><trkpt lat="39.3222883" lon="8.5234517"><ele>251.0</ele><time>2026-05-02T12:51:33.328Z</time></trkpt><trkpt lat="39.3223933" lon="8.5232033"><ele>255.0</ele><time>2026-05-02T12:51:34.328Z</time></trkpt><trkpt lat="39.32249" lon="8.5229833"><ele>259.0</ele><time>2026-05-02T12:51:35.325Z</time></trkpt><trkpt lat="39.3225967" lon="8.5227967"><ele>264.0</ele><time>2026-05-02T12:51:36.33Z</time></trkpt><trkpt lat="39.322735" lon="8.5225683"><ele>269.0</ele><time>2026-05-02T12:51:37.326Z</time></trkpt><trkpt lat="39.3228817" lon="8.5223733"><ele>274.0</ele><time>2026-05-02T12:51:38.371Z</time></trkpt><trkpt lat="39.3230233" lon="8.5221983"><ele>272.3333333333333</ele><time>2026-05-02T12:51:39.327Z</time></trkpt><trkpt lat="39.3231567" lon="8.5220117"><ele>270.6666666666667</ele><time>2026-05-02T12:51:40.33Z</time></trkpt><trkpt lat="39.3232583" lon="8.5218167"><ele>269.0</ele><time>2026-05-02T12:51:41.329Z</time></trkpt><trkpt lat="39.3233367" lon="8.5216167"><ele>269.0</ele><time>2026-05-02T12:51:42.326Z</time></trkpt><trkpt lat="39.3233767" lon="8.5213533"><ele>269.0</ele><time>2026-05-02T12:51:43.332Z</time></trkpt><trkpt lat="39.3234033" lon="8.52113"><ele>269.0</ele><time>2026-05-02T12:51:44.369Z</time></trkpt><trkpt lat="39.3233967" lon="8.5209283"><ele>272.0</ele><time>2026-05-02T12:51:45.326Z</time></trkpt><trkpt lat="39.323375" lon="8.5207183"><ele>275.0</ele><time>2026-05-02T12:51:46.325Z</time></trkpt><trkpt lat="39.3233183" lon="8.5204983"><ele>278.0</ele><time>2026-05-02T12:51:47.33Z</time></trkpt><trkpt lat="39.3232517" lon="8.52027"><ele>280.6666666666667</ele><time>2026-05-02T12:51:48.326Z</time></trkpt><trkpt lat="39.3231867" lon="8.5200567"><ele>283.3333333333333</ele><time>2026-05-02T12:51:49.331Z</time></trkpt><trkpt lat="39.3231133" lon="8.51982"><ele>286.0</ele><time>2026-05-02T12:51:50.372Z</time></trkpt><trkpt lat="39.3230267" lon="8.5195883"><ele>285.66666666666663</ele><time>2026-05-02T12:51:51.331Z</time></trkpt><trkpt lat="39.322905" lon="8.5193567"><ele>285.3333333333333</ele><time>2026-05-02T12:51:52.33Z</time></trkpt><trkpt lat="39.3227867" lon="8.51914"><ele>285.0</ele><time>2026-05-02T12:51:53.331Z</time></trkpt><trkpt lat="39.3226567" lon="8.518915"><ele>285.3333333333333</ele><time>2026-05-02T12:51:54.33Z</time></trkpt><trkpt lat="39.3225317" lon="8.5186883"><ele>285.66666666666663</ele><time>2026-05-02T12:51:55.326Z</time></trkpt><trkpt lat="39.3224083" lon="8.5184733"><ele>286.0</ele><time>2026-05-02T12:51:56.387Z</time></trkpt><trkpt lat="39.3223" lon="8.51825"><ele>285.3333333333333</ele><time>2026-05-02T12:51:57.33Z</time></trkpt><trkpt lat="39.32221" lon="8.51801"><ele>284.6666666666667</ele><time>2026-05-02T12:51:58.329Z</time></trkpt><trkpt lat="39.322115" lon="8.51777"><ele>284.0</ele><time>2026-05-02T12:51:59.33Z</time></trkpt><trkpt lat="39.3220583" lon="8.517525"><ele>285.6666666666667</ele><time>2026-05-02T12:52:00.327Z</time></trkpt><trkpt lat="39.3220317" lon="8.5172733"><ele>287.3333333333333</ele><time>2026-05-02T12:52:01.331Z</time></trkpt><trkpt lat="39.322035" lon="8.5170133"><ele>289.0</ele><time>2026-05-02T12:52:02.387Z</time></trkpt><trkpt lat="39.3220767" lon="8.5167583"><ele>291.0</ele><time>2026-05-02T12:52:03.329Z</time></trkpt><trkpt lat="39.3221583" lon="8.5165017"><ele>293.0</ele><time>2026-05-02T12:52:04.329Z</time></trkpt><trkpt lat="39.322205" lon="8.5162283"><ele>295.0</ele><time>2026-05-02T12:52:05.326Z</time></trkpt><trkpt lat="39.32224" lon="8.5159567"><ele>298.66666666666663</ele><time>2026-05-02T12:52:06.326Z</time></trkpt><trkpt lat="39.322275" lon="8.5157017"><ele>302.3333333333333</ele><time>2026-05-02T12:52:07.324Z</time></trkpt><trkpt lat="39.3223217" lon="8.5154667"><ele>306.0</ele><time>2026-05-02T12:52:08.372Z</time></trkpt><trkpt lat="39.3223583" lon="8.51524"><ele>307.0</ele><time>2026-05-02T12:52:09.331Z</time></trkpt><trkpt lat="39.3223767" lon="8.51503"><ele>308.0</ele><time>2026-05-02T12:52:10.33Z</time></trkpt><trkpt lat="39.3223817" lon="8.5148217"><ele>309.0</ele><time>2026-05-02T12:52:11.333Z</time></trkpt><trkpt lat="39.3223533" lon="8.51461"><ele>309.6666666666667</ele><time>2026-05-02T12:52:12.331Z</time></trkpt><trkpt lat="39.322315" lon="8.5143633"><ele>310.33333333333337</ele><time>2026-05-02T12:52:13.333Z</time></trkpt><trkpt lat="39.3222667" lon="8.5141183"><ele>311.0</ele><time>2026-05-02T12:52:14.372Z</time></trkpt><trkpt lat="39.322205" lon="8.5138683"><ele>306.33333333333337</ele><time>2026-05-02T12:52:15.329Z</time></trkpt><trkpt lat="39.3221333" lon="8.513615"><ele>301.6666666666667</ele><time>2026-05-02T12:52:16.324Z</time></trkpt><trkpt lat="39.3220667" lon="8.5133717"><ele>297.0</ele><time>2026-05-02T12:52:17.327Z</time></trkpt><trkpt lat="39.32198" lon="8.5131083"><ele>299.6666666666667</ele><time>2026-05-02T12:52:18.33Z</time></trkpt><trkpt lat="39.3219117" lon="8.5128367"><ele>302.33333333333337</ele><time>2026-05-02T12:52:19.329Z</time></trkpt><trkpt lat="39.3218417" lon="8.5125833"><ele>305.0</ele><time>2026-05-02T12:52:20.373Z</time></trkpt><trkpt lat="39.3217617" lon="8.51234"><ele>305.0</ele><time>2026-05-02T12:52:21.326Z</time></trkpt><trkpt lat="39.3216717" lon="8.5121067"><ele>305.0</ele><time>2026-05-02T12:52:22.33Z</time></trkpt><trkpt lat="39.3215567" lon="8.511875"><ele>305.0</ele><time>2026-05-02T12:52:23.33Z</time></trkpt><trkpt lat="39.321425" lon="8.5116683"><ele>302.5</ele><time>2026-05-02T12:52:24.327Z</time></trkpt><trkpt lat="39.3212717" lon="8.5114383"><ele>300.0</ele><time>2026-05-02T12:52:25.33Z</time></trkpt><trkpt lat="39.321085" lon="8.5112317"><ele>295.5</ele><time>2026-05-02T12:52:26.388Z</time></trkpt><trkpt lat="39.3208983" lon="8.5110117"><ele>291.0</ele><time>2026-05-02T12:52:27.326Z</time></trkpt><trkpt lat="39.3207167" lon="8.5107967"><ele>286.0</ele><time>2026-05-02T12:52:28.328Z</time></trkpt><trkpt lat="39.320535" lon="8.5105733"><ele>281.0</ele><time>2026-05-02T12:52:29.33Z</time></trkpt><trkpt lat="39.3203483" lon="8.5103483"><ele>280.5</ele><time>2026-05-02T12:52:30.329Z</time></trkpt><trkpt lat="39.3201667" lon="8.5101183"><ele>280.0</ele><time>2026-05-02T12:52:31.329Z</time></trkpt><trkpt lat="39.319975" lon="8.50988"><ele>280.0</ele><time>2026-05-02T12:52:32.383Z</time></trkpt><trkpt lat="39.319785" lon="8.5096333"><ele>280.0</ele><time>2026-05-02T12:52:33.327Z</time></trkpt><trkpt lat="39.3196" lon="8.5093833"><ele>282.0</ele><time>2026-05-02T12:52:34.329Z</time></trkpt><trkpt lat="39.3194217" lon="8.5091217"><ele>284.0</ele><time>2026-05-02T12:52:35.329Z</time></trkpt><trkpt lat="39.3192533" lon="8.5088667"><ele>283.5</ele><time>2026-05-02T12:52:36.328Z</time></trkpt><trkpt lat="39.3190917" lon="8.5086117"><ele>283.0</ele><time>2026-05-02T12:52:37.331Z</time></trkpt><trkpt lat="39.3189367" lon="8.5083717"><ele>284.0</ele><time>2026-05-02T12:52:38.371Z</time></trkpt><trkpt lat="39.3187767" lon="8.508095"><ele>285.0</ele><time>2026-05-02T12:52:39.328Z</time></trkpt><trkpt lat="39.31862" lon="8.5078233"><ele>285.0</ele><time>2026-05-02T12:52:40.33Z</time></trkpt><trkpt lat="39.3184583" lon="8.5075617"><ele>285.0</ele><time>2026-05-02T12:52:41.327Z</time></trkpt><trkpt lat="39.3183017" lon="8.5073017"><ele>283.0</ele><time>2026-05-02T12:52:42.331Z</time></trkpt><trkpt lat="39.3181333" lon="8.5070383"><ele>281.0</ele><time>2026-05-02T12:52:43.33Z</time></trkpt><trkpt lat="39.3179817" lon="8.506765"><ele>280.5</ele><time>2026-05-02T12:52:44.37Z</time></trkpt><trkpt lat="39.3178183" lon="8.5064983"><ele>280.0</ele><time>2026-05-02T12:52:45.327Z</time></trkpt><trkpt lat="39.317655" lon="8.5062383"><ele>280.0</ele><time>2026-05-02T12:52:46.325Z</time></trkpt><trkpt lat="39.3174917" lon="8.5059817"><ele>280.0</ele><time>2026-05-02T12:52:47.33Z</time></trkpt><trkpt lat="39.3173183" lon="8.5057183"><ele>277.0</ele><time>2026-05-02T12:52:48.329Z</time></trkpt><trkpt lat="39.31714" lon="8.5054567"><ele>274.0</ele><time>2026-05-02T12:52:49.329Z</time></trkpt><trkpt lat="39.31697" lon="8.5051933"><ele>274.0</ele><time>2026-05-02T12:52:50.373Z</time></trkpt><trkpt lat="39.3167983" lon="8.5049467"><ele>274.0</ele><time>2026-05-02T12:52:51.329Z</time></trkpt><trkpt lat="39.3166417" lon="8.504705"><ele>273.0</ele><time>2026-05-02T12:52:52.329Z</time></trkpt><trkpt lat="39.3164867" lon="8.5044533"><ele>272.0</ele><time>2026-05-02T12:52:53.326Z</time></trkpt><trkpt lat="39.3163317" lon="8.5041917"><ele>271.0</ele><time>2026-05-02T12:52:54.332Z</time></trkpt><trkpt lat="39.3161767" lon="8.5039383"><ele>270.0</ele><time>2026-05-02T12:52:55.329Z</time></trkpt><trkpt lat="39.3160217" lon="8.503675"><ele>269.5</ele><time>2026-05-02T12:52:56.384Z</time></trkpt><trkpt lat="39.3158633" lon="8.503425"><ele>269.0</ele><time>2026-05-02T12:52:57.33Z</time></trkpt><trkpt lat="39.3157067" lon="8.50317"><ele>268.5</ele><time>2026-05-02T12:52:58.326Z</time></trkpt><trkpt lat="39.315545" lon="8.50292"><ele>268.0</ele><time>2026-05-02T12:52:59.325Z</time></trkpt><trkpt lat="39.3153817" lon="8.5026733"><ele>266.0</ele><time>2026-05-02T12:53:00.329Z</time></trkpt><trkpt lat="39.315225" lon="8.5024267"><ele>264.0</ele><time>2026-05-02T12:53:01.328Z</time></trkpt><trkpt lat="39.31507" lon="8.5021917"><ele>263.0</ele><time>2026-05-02T12:53:02.382Z</time></trkpt><trkpt lat="39.3149217" lon="8.5019617"><ele>262.0</ele><time>2026-05-02T12:53:03.33Z</time></trkpt><trkpt lat="39.314785" lon="8.501745"><ele>261.0</ele><time>2026-05-02T12:53:04.326Z</time></trkpt><trkpt lat="39.3146533" lon="8.5015333"><ele>261.0</ele><time>2026-05-02T12:53:05.33Z</time></trkpt><trkpt lat="39.3145267" lon="8.5013233"><ele>261.0</ele><time>2026-05-02T12:53:06.327Z</time></trkpt><trkpt lat="39.3143983" lon="8.501115"><ele>261.0</ele><time>2026-05-02T12:53:07.327Z</time></trkpt><trkpt lat="39.3142767" lon="8.500905"><ele>260.3333333333333</ele><time>2026-05-02T12:53:08.369Z</time></trkpt><trkpt lat="39.314165" lon="8.5006833"><ele>259.66666666666663</ele><time>2026-05-02T12:53:09.326Z</time></trkpt><trkpt lat="39.314065" lon="8.50045"><ele>259.0</ele><time>2026-05-02T12:53:10.33Z</time></trkpt><trkpt lat="39.3139733" lon="8.5002083"><ele>259.0</ele><time>2026-05-02T12:53:11.327Z</time></trkpt><trkpt lat="39.3138933" lon="8.49995"><ele>259.0</ele><time>2026-05-02T12:53:12.33Z</time></trkpt><trkpt lat="39.3138317" lon="8.4996917"><ele>259.0</ele><time>2026-05-02T12:53:13.328Z</time></trkpt><trkpt lat="39.31377" lon="8.4994033"><ele>259.0</ele><time>2026-05-02T12:53:14.372Z</time></trkpt><trkpt lat="39.313755" lon="8.49913"><ele>259.0</ele><time>2026-05-02T12:53:15.326Z</time></trkpt><trkpt lat="39.3137567" lon="8.4988717"><ele>259.0</ele><time>2026-05-02T12:53:16.329Z</time></trkpt><trkpt lat="39.3137267" lon="8.4986417"><ele>256.0</ele><time>2026-05-02T12:53:17.328Z</time></trkpt><trkpt lat="39.31367" lon="8.4984"><ele>253.0</ele><time>2026-05-02T12:53:18.331Z</time></trkpt><trkpt lat="39.31359" lon="8.4981883"><ele>250.0</ele><time>2026-05-02T12:53:19.325Z</time></trkpt><trkpt lat="39.3134667" lon="8.498005"><ele>248.66666666666666</ele><time>2026-05-02T12:53:20.37Z</time></trkpt><trkpt lat="39.3133083" lon="8.4977983"><ele>247.33333333333331</ele><time>2026-05-02T12:53:21.33Z</time></trkpt><trkpt lat="39.3131483" lon="8.4975983"><ele>246.0</ele><time>2026-05-02T12:53:22.329Z</time></trkpt><trkpt lat="39.312975" lon="8.4973783"><ele>245.66666666666669</ele><time>2026-05-02T12:53:23.33Z</time></trkpt><trkpt lat="39.31281" lon="8.4971717"><ele>245.33333333333334</ele><time>2026-05-02T12:53:24.329Z</time></trkpt><trkpt lat="39.3126417" lon="8.4969933"><ele>245.0</ele><time>2026-05-02T12:53:25.329Z</time></trkpt><trkpt lat="39.3124783" lon="8.49679"><ele>244.0</ele><time>2026-05-02T12:53:26.382Z</time></trkpt><trkpt lat="39.3123033" lon="8.4965783"><ele>243.0</ele><time>2026-05-02T12:53:27.323Z</time></trkpt><trkpt lat="39.3121133" lon="8.4963617"><ele>242.0</ele><time>2026-05-02T12:53:28.326Z</time></trkpt><trkpt lat="39.3119" lon="8.4961767"><ele>241.0</ele><time>2026-05-02T12:53:29.329Z</time></trkpt><trkpt lat="39.31169" lon="8.4959883"><ele>241.0</ele><time>2026-05-02T12:53:30.329Z</time></trkpt><trkpt lat="39.3114817" lon="8.495805"><ele>241.0</ele><time>2026-05-02T12:53:31.329Z</time></trkpt><trkpt lat="39.3112783" lon="8.495615"><ele>238.0</ele><time>2026-05-02T12:53:32.383Z</time></trkpt><trkpt lat="39.311105" lon="8.4954067"><ele>235.0</ele><time>2026-05-02T12:53:33.323Z</time></trkpt><trkpt lat="39.310925" lon="8.4952083"><ele>235.0</ele><time>2026-05-02T12:53:34.328Z</time></trkpt><trkpt lat="39.3107767" lon="8.4949933"><ele>235.0</ele><time>2026-05-02T12:53:35.329Z</time></trkpt><trkpt lat="39.310645" lon="8.49478"><ele>235.0</ele><time>2026-05-02T12:53:36.328Z</time></trkpt><trkpt lat="39.3105083" lon="8.4945667"><ele>233.66666666666666</ele><time>2026-05-02T12:53:37.329Z</time></trkpt><trkpt lat="39.310375" lon="8.494355"><ele>232.33333333333331</ele><time>2026-05-02T12:53:38.371Z</time></trkpt><trkpt lat="39.3102217" lon="8.4941567"><ele>231.0</ele><time>2026-05-02T12:53:39.33Z</time></trkpt><trkpt lat="39.3100783" lon="8.493985"><ele>231.0</ele><time>2026-05-02T12:53:40.326Z</time></trkpt><trkpt lat="39.3099333" lon="8.4938183"><ele>231.0</ele><time>2026-05-02T12:53:41.332Z</time></trkpt><trkpt lat="39.30978" lon="8.4936683"><ele>231.0</ele><time>2026-05-02T12:53:42.329Z</time></trkpt><trkpt lat="39.3096283" lon="8.4935183"><ele>228.66666666666669</ele><time>2026-05-02T12:53:43.329Z</time></trkpt><trkpt lat="39.3094667" lon="8.493365"><ele>226.33333333333334</ele><time>2026-05-02T12:53:44.369Z</time></trkpt><trkpt lat="39.3092983" lon="8.49322"><ele>224.0</ele><time>2026-05-02T12:53:45.327Z</time></trkpt><trkpt lat="39.3091367" lon="8.493085"><ele>224.66666666666669</ele><time>2026-05-02T12:53:46.328Z</time></trkpt><trkpt lat="39.3089917" lon="8.49291"><ele>225.33333333333331</ele><time>2026-05-02T12:53:47.324Z</time></trkpt><trkpt lat="39.30885" lon="8.492715"><ele>226.0</ele><time>2026-05-02T12:53:48.329Z</time></trkpt><trkpt lat="39.3087183" lon="8.4925083"><ele>226.66666666666666</ele><time>2026-05-02T12:53:49.329Z</time></trkpt><trkpt lat="39.30859" lon="8.4923083"><ele>227.33333333333331</ele><time>2026-05-02T12:53:50.371Z</time></trkpt><trkpt lat="39.3084633" lon="8.4921117"><ele>228.0</ele><time>2026-05-02T12:53:51.329Z</time></trkpt><trkpt lat="39.3083483" lon="8.4919333"><ele>225.66666666666669</ele><time>2026-05-02T12:53:52.329Z</time></trkpt><trkpt lat="39.3082183" lon="8.491725"><ele>223.33333333333334</ele><time>2026-05-02T12:53:53.331Z</time></trkpt><trkpt lat="39.30813" lon="8.4915167"><ele>221.0</ele><time>2026-05-02T12:53:54.326Z</time></trkpt><trkpt lat="39.3080517" lon="8.4912883"><ele>225.66666666666669</ele><time>2026-05-02T12:53:55.329Z</time></trkpt><trkpt lat="39.3080167" lon="8.49103"><ele>230.33333333333331</ele><time>2026-05-02T12:53:56.383Z</time></trkpt><trkpt lat="39.30799" lon="8.4907767"><ele>235.0</ele><time>2026-05-02T12:53:57.328Z</time></trkpt><trkpt lat="39.3079467" lon="8.4905283"><ele>230.33333333333331</ele><time>2026-05-02T12:53:58.325Z</time></trkpt><trkpt lat="39.3078817" lon="8.4902817"><ele>225.66666666666669</ele><time>2026-05-02T12:53:59.326Z</time></trkpt><trkpt lat="39.307785" lon="8.490055"><ele>221.0</ele><time>2026-05-02T12:54:00.328Z</time></trkpt><trkpt lat="39.3076533" lon="8.4898483"><ele>221.0</ele><time>2026-05-02T12:54:01.328Z</time></trkpt><trkpt lat="39.3074867" lon="8.4896417"><ele>221.0</ele><time>2026-05-02T12:54:02.383Z</time></trkpt><trkpt lat="39.3073267" lon="8.4894367"><ele>218.33333333333334</ele><time>2026-05-02T12:54:03.328Z</time></trkpt><trkpt lat="39.3071617" lon="8.48925"><ele>215.66666666666669</ele><time>2026-05-02T12:54:04.328Z</time></trkpt><trkpt lat="39.3069933" lon="8.4890717"><ele>213.0</ele><time>2026-05-02T12:54:05.33Z</time></trkpt><trkpt lat="39.3068133" lon="8.4889117"><ele>213.0</ele><time>2026-05-02T12:54:06.33Z</time></trkpt><trkpt lat="39.3066283" lon="8.4887983"><ele>213.0</ele><time>2026-05-02T12:54:07.325Z</time></trkpt><trkpt lat="39.306445" lon="8.4887217"><ele>213.0</ele><time>2026-05-02T12:54:08.37Z</time></trkpt><trkpt lat="39.30624" lon="8.4886383"><ele>206.5</ele><time>2026-05-02T12:54:09.328Z</time></trkpt><trkpt lat="39.3060167" lon="8.488595"><ele>200.0</ele><time>2026-05-02T12:54:10.327Z</time></trkpt><trkpt lat="39.3057933" lon="8.4886183"><ele>198.5</ele><time>2026-05-02T12:54:11.33Z</time></trkpt><trkpt lat="39.305565" lon="8.488675"><ele>197.0</ele><time>2026-05-02T12:54:12.328Z</time></trkpt><trkpt lat="39.3053233" lon="8.4887233"><ele>197.5</ele><time>2026-05-02T12:54:13.328Z</time></trkpt><trkpt lat="39.3050783" lon="8.4887683"><ele>198.0</ele><time>2026-05-02T12:54:14.368Z</time></trkpt><trkpt lat="39.3048267" lon="8.4888117"><ele>192.0</ele><time>2026-05-02T12:54:15.324Z</time></trkpt><trkpt lat="39.304575" lon="8.48886"><ele>186.0</ele><time>2026-05-02T12:54:16.324Z</time></trkpt><trkpt lat="39.30433" lon="8.4889017"><ele>186.0</ele><time>2026-05-02T12:54:17.332Z</time></trkpt><trkpt lat="39.304095" lon="8.48895"><ele>186.0</ele><time>2026-05-02T12:54:18.327Z</time></trkpt><trkpt lat="39.30386" lon="8.4890067"><ele>181.5</ele><time>2026-05-02T12:54:19.33Z</time></trkpt><trkpt lat="39.3036267" lon="8.4890667"><ele>177.0</ele><time>2026-05-02T12:54:20.37Z</time></trkpt><trkpt lat="39.3033967" lon="8.4891283"><ele>177.0</ele><time>2026-05-02T12:54:21.323Z</time></trkpt><trkpt lat="39.30317" lon="8.48919"><ele>177.0</ele><time>2026-05-02T12:54:22.327Z</time></trkpt><trkpt lat="39.302945" lon="8.4892567"><ele>170.33333333333334</ele><time>2026-05-02T12:54:23.327Z</time></trkpt><trkpt lat="39.3027317" lon="8.4893133"><ele>163.66666666666669</ele><time>2026-05-02T12:54:24.328Z</time></trkpt><trkpt lat="39.3025167" lon="8.4893667"><ele>157.0</ele><time>2026-05-02T12:54:25.33Z</time></trkpt><trkpt lat="39.302305" lon="8.4894433"><ele>156.66666666666669</ele><time>2026-05-02T12:54:26.382Z</time></trkpt><trkpt lat="39.3021033" lon="8.48953"><ele>156.33333333333334</ele><time>2026-05-02T12:54:27.329Z</time></trkpt><trkpt lat="39.3018967" lon="8.4896333"><ele>156.0</ele><time>2026-05-02T12:54:28.33Z</time></trkpt><trkpt lat="39.3016933" lon="8.4897417"><ele>156.0</ele><time>2026-05-02T12:54:29.328Z</time></trkpt><trkpt lat="39.3015033" lon="8.48986"><ele>156.0</ele><time>2026-05-02T12:54:30.326Z</time></trkpt><trkpt lat="39.3013433" lon="8.4899983"><ele>156.0</ele><time>2026-05-02T12:54:31.324Z</time></trkpt><trkpt lat="39.3012117" lon="8.49018"><ele>150.66666666666666</ele><time>2026-05-02T12:54:32.379Z</time></trkpt><trkpt lat="39.30111" lon="8.490405"><ele>145.33333333333331</ele><time>2026-05-02T12:54:33.323Z</time></trkpt><trkpt lat="39.3010483" lon="8.490655"><ele>140.0</ele><time>2026-05-02T12:54:34.326Z</time></trkpt><trkpt lat="39.3009583" lon="8.4908817"><ele>140.0</ele><time>2026-05-02T12:54:35.325Z</time></trkpt><trkpt lat="39.3008883" lon="8.491115"><ele>140.0</ele><time>2026-05-02T12:54:36.329Z</time></trkpt><trkpt lat="39.30082" lon="8.4913467"><ele>140.0</ele><time>2026-05-02T12:54:37.325Z</time></trkpt><trkpt lat="39.3007667" lon="8.4915933"><ele>141.66666666666666</ele><time>2026-05-02T12:54:38.369Z</time></trkpt><trkpt lat="39.30073" lon="8.4918517"><ele>143.33333333333334</ele><time>2026-05-02T12:54:39.325Z</time></trkpt><trkpt lat="39.3006883" lon="8.4921083"><ele>145.0</ele><time>2026-05-02T12:54:40.326Z</time></trkpt><trkpt lat="39.3006367" lon="8.49235"><ele>138.33333333333334</ele><time>2026-05-02T12:54:41.329Z</time></trkpt><trkpt lat="39.3005667" lon="8.4925867"><ele>131.66666666666666</ele><time>2026-05-02T12:54:42.329Z</time></trkpt><trkpt lat="39.30048" lon="8.4928267"><ele>125.0</ele><time>2026-05-02T12:54:43.328Z</time></trkpt><trkpt lat="39.3003767" lon="8.4930717"><ele>125.0</ele><time>2026-05-02T12:54:44.375Z</time></trkpt><trkpt lat="39.300265" lon="8.4933533"><ele>125.0</ele><time>2026-05-02T12:54:45.324Z</time></trkpt><trkpt lat="39.300155" lon="8.4936533"><ele>125.0</ele><time>2026-05-02T12:54:46.332Z</time></trkpt><trkpt lat="39.3000483" lon="8.4939417"><ele>125.0</ele><time>2026-05-02T12:54:47.324Z</time></trkpt><trkpt lat="39.2999383" lon="8.4942233"><ele>125.0</ele><time>2026-05-02T12:54:48.33Z</time></trkpt><trkpt lat="39.2998183" lon="8.4945183"><ele>125.0</ele><time>2026-05-02T12:54:49.328Z</time></trkpt><trkpt lat="39.2997117" lon="8.49482"><ele>120.0</ele><time>2026-05-02T12:54:50.374Z</time></trkpt><trkpt lat="39.2996" lon="8.4951933"><ele>115.0</ele><time>2026-05-02T12:54:51.332Z</time></trkpt><trkpt lat="39.29951" lon="8.4954333"><ele>115.0</ele><time>2026-05-02T12:54:52.327Z</time></trkpt><trkpt lat="39.2994233" lon="8.4956833"><ele>115.0</ele><time>2026-05-02T12:54:53.327Z</time></trkpt><trkpt lat="39.2993367" lon="8.49597"><ele>115.0</ele><time>2026-05-02T12:54:54.331Z</time></trkpt><trkpt lat="39.299245" lon="8.4962267"><ele>115.0</ele><time>2026-05-02T12:54:55.332Z</time></trkpt><trkpt lat="39.2991483" lon="8.49649"><ele>115.0</ele><time>2026-05-02T12:54:56.387Z</time></trkpt><trkpt lat="39.29901" lon="8.4967017"><ele>113.66666666666667</ele><time>2026-05-02T12:54:57.329Z</time></trkpt><trkpt lat="39.298895" lon="8.4969"><ele>112.33333333333334</ele><time>2026-05-02T12:54:58.328Z</time></trkpt><trkpt lat="39.2987583" lon="8.4970783"><ele>111.0</ele><time>2026-05-02T12:54:59.328Z</time></trkpt><trkpt lat="39.2986483" lon="8.4972433"><ele>111.0</ele><time>2026-05-02T12:55:00.326Z</time></trkpt><trkpt lat="39.2985383" lon="8.4974033"><ele>111.0</ele><time>2026-05-02T12:55:01.327Z</time></trkpt><trkpt lat="39.2984433" lon="8.4975183"><ele>111.0</ele><time>2026-05-02T12:55:02.377Z</time></trkpt><trkpt lat="39.298355" lon="8.497615"><ele>111.0</ele><time>2026-05-02T12:55:03.329Z</time></trkpt><trkpt lat="39.2982633" lon="8.4977067"><ele>111.0</ele><time>2026-05-02T12:55:04.329Z</time></trkpt><trkpt lat="39.2981933" lon="8.4977833"><ele>111.0</ele><time>2026-05-02T12:55:05.332Z</time></trkpt><trkpt lat="39.298135" lon="8.4979067"><ele>111.0</ele><time>2026-05-02T12:55:06.332Z</time></trkpt><trkpt lat="39.2980817" lon="8.4980333"><ele>111.0</ele><time>2026-05-02T12:55:07.329Z</time></trkpt><trkpt lat="39.2980217" lon="8.4981467"><ele>111.0</ele><time>2026-05-02T12:55:08.369Z</time></trkpt><trkpt lat="39.2979717" lon="8.49829"><ele>110.25</ele><time>2026-05-02T12:55:09.327Z</time></trkpt><trkpt lat="39.2979317" lon="8.4984267"><ele>109.5</ele><time>2026-05-02T12:55:10.329Z</time></trkpt><trkpt lat="39.29788" lon="8.4985933"><ele>108.75</ele><time>2026-05-02T12:55:11.327Z</time></trkpt><trkpt lat="39.2978117" lon="8.4987167"><ele>108.0</ele><time>2026-05-02T12:55:12.329Z</time></trkpt><trkpt lat="39.2977233" lon="8.4987883"><ele>108.0</ele><time>2026-05-02T12:55:13.329Z</time></trkpt><trkpt lat="39.297635" lon="8.4988883"><ele>108.0</ele><time>2026-05-02T12:55:14.371Z</time></trkpt><trkpt lat="39.2975117" lon="8.4989617"><ele>108.0</ele><time>2026-05-02T12:55:15.329Z</time></trkpt><trkpt lat="39.2973783" lon="8.4989417"><ele>108.0</ele><time>2026-05-02T12:55:16.329Z</time></trkpt><trkpt lat="39.2972267" lon="8.49889"><ele>107.33333333333334</ele><time>2026-05-02T12:55:17.329Z</time></trkpt><trkpt lat="39.297085" lon="8.4987967"><ele>106.66666666666667</ele><time>2026-05-02T12:55:18.327Z</time></trkpt><trkpt lat="39.2969783" lon="8.4986333"><ele>106.0</ele><time>2026-05-02T12:55:19.327Z</time></trkpt><trkpt lat="39.2968833" lon="8.498455"><ele>104.66666666666667</ele><time>2026-05-02T12:55:20.365Z</time></trkpt><trkpt lat="39.29681" lon="8.498255"><ele>103.33333333333334</ele><time>2026-05-02T12:55:21.334Z</time></trkpt><trkpt lat="39.29678" lon="8.49806"><ele>102.0</ele><time>2026-05-02T12:55:22.328Z</time></trkpt><trkpt lat="39.296715" lon="8.4978667"><ele>101.25</ele><time>2026-05-02T12:55:23.327Z</time></trkpt><trkpt lat="39.2966733" lon="8.49772"><ele>100.5</ele><time>2026-05-02T12:55:24.326Z</time></trkpt><trkpt lat="39.2965717" lon="8.4975867"><ele>99.75</ele><time>2026-05-02T12:55:25.329Z</time></trkpt><trkpt lat="39.296465" lon="8.4974433"><ele>99.0</ele><time>2026-05-02T12:55:26.377Z</time></trkpt><trkpt lat="39.2963617" lon="8.4972867"><ele>98.0</ele><time>2026-05-02T12:55:27.329Z</time></trkpt><trkpt lat="39.29624" lon="8.4971333"><ele>97.0</ele><time>2026-05-02T12:55:28.33Z</time></trkpt><trkpt lat="39.296115" lon="8.4969617"><ele>96.0</ele><time>2026-05-02T12:55:29.328Z</time></trkpt><trkpt lat="39.2959733" lon="8.496795"><ele>94.66666666666667</ele><time>2026-05-02T12:55:30.329Z</time></trkpt><trkpt lat="39.2958367" lon="8.4966183"><ele>93.33333333333334</ele><time>2026-05-02T12:55:31.332Z</time></trkpt><trkpt lat="39.2957083" lon="8.496445"><ele>92.0</ele><time>2026-05-02T12:55:32.376Z</time></trkpt><trkpt lat="39.2955767" lon="8.496285"><ele>91.0</ele><time>2026-05-02T12:55:33.327Z</time></trkpt><trkpt lat="39.2954483" lon="8.4961217"><ele>90.0</ele><time>2026-05-02T12:55:34.328Z</time></trkpt><trkpt lat="39.2953233" lon="8.4959733"><ele>89.0</ele><time>2026-05-02T12:55:35.324Z</time></trkpt><trkpt lat="39.295195" lon="8.4958333"><ele>89.0</ele><time>2026-05-02T12:55:36.328Z</time></trkpt><trkpt lat="39.2950633" lon="8.4956717"><ele>89.0</ele><time>2026-05-02T12:55:37.327Z</time></trkpt><trkpt lat="39.2949283" lon="8.4955117"><ele>89.0</ele><time>2026-05-02T12:55:38.372Z</time></trkpt><trkpt lat="39.2948183" lon="8.495365"><ele>88.0</ele><time>2026-05-02T12:55:39.329Z</time></trkpt><trkpt lat="39.29471" lon="8.4952267"><ele>87.0</ele><time>2026-05-02T12:55:40.33Z</time></trkpt><trkpt lat="39.294605" lon="8.4950983"><ele>86.0</ele><time>2026-05-02T12:55:41.328Z</time></trkpt><trkpt lat="39.2945133" lon="8.4949833"><ele>85.0</ele><time>2026-05-02T12:55:42.328Z</time></trkpt><trkpt lat="39.2944283" lon="8.494865"><ele>85.0</ele><time>2026-05-02T12:55:43.332Z</time></trkpt><trkpt lat="39.2943467" lon="8.4947617"><ele>85.0</ele><time>2026-05-02T12:55:44.37Z</time></trkpt><trkpt lat="39.2942667" lon="8.4946533"><ele>85.0</ele><time>2026-05-02T12:55:45.33Z</time></trkpt><trkpt lat="39.2941883" lon="8.494555"><ele>85.0</ele><time>2026-05-02T12:55:46.33Z</time></trkpt><trkpt lat="39.2941267" lon="8.494455"><ele>85.0</ele><time>2026-05-02T12:55:47.326Z</time></trkpt><trkpt lat="39.2940433" lon="8.4943467"><ele>85.25</ele><time>2026-05-02T12:55:48.33Z</time></trkpt><trkpt lat="39.293955" lon="8.4942633"><ele>85.5</ele><time>2026-05-02T12:55:49.33Z</time></trkpt><trkpt lat="39.29387" lon="8.4941717"><ele>85.75</ele><time>2026-05-02T12:55:50.373Z</time></trkpt><trkpt lat="39.2937833" lon="8.49407"><ele>86.0</ele><time>2026-05-02T12:55:51.326Z</time></trkpt><trkpt lat="39.2936983" lon="8.4939667"><ele>85.6</ele><time>2026-05-02T12:55:52.326Z</time></trkpt><trkpt lat="39.29362" lon="8.4938617"><ele>85.19999999999999</ele><time>2026-05-02T12:55:53.334Z</time></trkpt><trkpt lat="39.2935433" lon="8.4937533"><ele>84.80000000000001</ele><time>2026-05-02T12:55:54.327Z</time></trkpt><trkpt lat="39.29347" lon="8.4936433"><ele>84.4</ele><time>2026-05-02T12:55:55.329Z</time></trkpt><trkpt lat="39.29339" lon="8.4935533"><ele>84.0</ele><time>2026-05-02T12:55:56.371Z</time></trkpt><trkpt lat="39.293325" lon="8.4934367"><ele>84.0</ele><time>2026-05-02T12:55:57.33Z</time></trkpt><trkpt lat="39.2932633" lon="8.4933183"><ele>84.0</ele><time>2026-05-02T12:55:58.327Z</time></trkpt><trkpt lat="39.2932067" lon="8.4931917"><ele>84.0</ele><time>2026-05-02T12:55:59.325Z</time></trkpt><trkpt lat="39.293145" lon="8.493075"><ele>84.0</ele><time>2026-05-02T12:56:00.327Z</time></trkpt><trkpt lat="39.2930967" lon="8.4929433"><ele>84.0</ele><time>2026-05-02T12:56:01.326Z</time></trkpt><trkpt lat="39.2930533" lon="8.4928083"><ele>86.0</ele><time>2026-05-02T12:56:02.377Z</time></trkpt><trkpt lat="39.2930183" lon="8.49266"><ele>88.0</ele><time>2026-05-02T12:56:03.33Z</time></trkpt><trkpt lat="39.292985" lon="8.4925017"><ele>90.0</ele><time>2026-05-02T12:56:04.329Z</time></trkpt><trkpt lat="39.2929533" lon="8.4923467"><ele>92.0</ele><time>2026-05-02T12:56:05.326Z</time></trkpt><trkpt lat="39.292915" lon="8.4921517"><ele>89.66666666666667</ele><time>2026-05-02T12:56:06.329Z</time></trkpt><trkpt lat="39.292855" lon="8.4919333"><ele>87.33333333333333</ele><time>2026-05-02T12:56:07.326Z</time></trkpt><trkpt lat="39.2927967" lon="8.49171"><ele>85.0</ele><time>2026-05-02T12:56:08.372Z</time></trkpt><trkpt lat="39.2927567" lon="8.4914717"><ele>83.0</ele><time>2026-05-02T12:56:09.326Z</time></trkpt><trkpt lat="39.2927217" lon="8.4912417"><ele>81.0</ele><time>2026-05-02T12:56:10.328Z</time></trkpt><trkpt lat="39.2926833" lon="8.4910167"><ele>79.0</ele><time>2026-05-02T12:56:11.327Z</time></trkpt><trkpt lat="39.2926433" lon="8.4907917"><ele>79.0</ele><time>2026-05-02T12:56:12.335Z</time></trkpt><trkpt lat="39.2926" lon="8.4905683"><ele>79.0</ele><time>2026-05-02T12:56:13.33Z</time></trkpt><trkpt lat="39.292555" lon="8.490345"><ele>79.0</ele><time>2026-05-02T12:56:14.37Z</time></trkpt><trkpt lat="39.29251" lon="8.4901217"><ele>79.33333333333333</ele><time>2026-05-02T12:56:15.329Z</time></trkpt><trkpt lat="39.292465" lon="8.4898983"><ele>79.66666666666667</ele><time>2026-05-02T12:56:16.329Z</time></trkpt><trkpt lat="39.29241" lon="8.4896867"><ele>80.0</ele><time>2026-05-02T12:56:17.326Z</time></trkpt><trkpt lat="39.2923517" lon="8.4894733"><ele>80.0</ele><time>2026-05-02T12:56:18.329Z</time></trkpt><trkpt lat="39.2923" lon="8.4892583"><ele>80.0</ele><time>2026-05-02T12:56:19.326Z</time></trkpt><trkpt lat="39.2922483" lon="8.48904"><ele>80.0</ele><time>2026-05-02T12:56:20.368Z</time></trkpt><trkpt lat="39.2921883" lon="8.4888283"><ele>82.33333333333334</ele><time>2026-05-02T12:56:21.328Z</time></trkpt><trkpt lat="39.292115" lon="8.4886217"><ele>84.66666666666667</ele><time>2026-05-02T12:56:22.33Z</time></trkpt><trkpt lat="39.29204" lon="8.48841"><ele>87.0</ele><time>2026-05-02T12:56:23.326Z</time></trkpt><trkpt lat="39.2919717" lon="8.4881967"><ele>87.0</ele><time>2026-05-02T12:56:24.325Z</time></trkpt><trkpt lat="39.2919083" lon="8.4879883"><ele>87.0</ele><time>2026-05-02T12:56:25.329Z</time></trkpt><trkpt lat="39.291835" lon="8.48777"><ele>87.0</ele><time>2026-05-02T12:56:26.376Z</time></trkpt><trkpt lat="39.2917567" lon="8.48754"><ele>86.33333333333333</ele><time>2026-05-02T12:56:27.323Z</time></trkpt><trkpt lat="39.2916767" lon="8.4873083"><ele>85.66666666666666</ele><time>2026-05-02T12:56:28.33Z</time></trkpt><trkpt lat="39.2916083" lon="8.487065"><ele>85.0</ele><time>2026-05-02T12:56:29.328Z</time></trkpt><trkpt lat="39.2915433" lon="8.48682"><ele>85.0</ele><time>2026-05-02T12:56:30.33Z</time></trkpt><trkpt lat="39.291495" lon="8.48658"><ele>85.0</ele><time>2026-05-02T12:56:31.328Z</time></trkpt><trkpt lat="39.291455" lon="8.4863233"><ele>85.0</ele><time>2026-05-02T12:56:32.377Z</time></trkpt><trkpt lat="39.2913983" lon="8.4860717"><ele>85.66666666666666</ele><time>2026-05-02T12:56:33.327Z</time></trkpt><trkpt lat="39.291355" lon="8.485825"><ele>86.33333333333333</ele><time>2026-05-02T12:56:34.332Z</time></trkpt><trkpt lat="39.2913067" lon="8.4855667"><ele>87.0</ele><time>2026-05-02T12:56:35.328Z</time></trkpt><trkpt lat="39.2912667" lon="8.4853283"><ele>85.0</ele><time>2026-05-02T12:56:36.329Z</time></trkpt><trkpt lat="39.2912117" lon="8.48508"><ele>83.0</ele><time>2026-05-02T12:56:37.324Z</time></trkpt><trkpt lat="39.29116" lon="8.4848183"><ele>81.0</ele><time>2026-05-02T12:56:38.37Z</time></trkpt><trkpt lat="39.291105" lon="8.4845467"><ele>78.0</ele><time>2026-05-02T12:56:39.326Z</time></trkpt><trkpt lat="39.29107" lon="8.4842783"><ele>75.0</ele><time>2026-05-02T12:56:40.328Z</time></trkpt><trkpt lat="39.2910233" lon="8.484035"><ele>72.0</ele><time>2026-05-02T12:56:41.329Z</time></trkpt><trkpt lat="39.2909783" lon="8.4837683"><ele>72.0</ele><time>2026-05-02T12:56:42.326Z</time></trkpt><trkpt lat="39.29093" lon="8.4835083"><ele>72.0</ele><time>2026-05-02T12:56:43.328Z</time></trkpt><trkpt lat="39.2908817" lon="8.483245"><ele>72.0</ele><time>2026-05-02T12:56:44.371Z</time></trkpt><trkpt lat="39.290865" lon="8.48298"><ele>71.66666666666667</ele><time>2026-05-02T12:56:45.326Z</time></trkpt><trkpt lat="39.2908383" lon="8.4827083"><ele>71.33333333333334</ele><time>2026-05-02T12:56:46.327Z</time></trkpt><trkpt lat="39.29083" lon="8.4824333"><ele>71.0</ele><time>2026-05-02T12:56:47.329Z</time></trkpt><trkpt lat="39.2908317" lon="8.4821517"><ele>70.0</ele><time>2026-05-02T12:56:48.33Z</time></trkpt><trkpt lat="39.2908317" lon="8.4818833"><ele>69.0</ele><time>2026-05-02T12:56:49.329Z</time></trkpt><trkpt lat="39.2908417" lon="8.481635"><ele>68.0</ele><time>2026-05-02T12:56:50.367Z</time></trkpt><trkpt lat="39.290845" lon="8.4813717"><ele>67.33333333333334</ele><time>2026-05-02T12:56:51.328Z</time></trkpt><trkpt lat="39.290845" lon="8.4811033"><ele>66.66666666666667</ele><time>2026-05-02T12:56:52.328Z</time></trkpt><trkpt lat="39.29084" lon="8.4808433"><ele>66.0</ele><time>2026-05-02T12:56:53.323Z</time></trkpt><trkpt lat="39.29084" lon="8.48058"><ele>65.66666666666667</ele><time>2026-05-02T12:56:54.33Z</time></trkpt><trkpt lat="39.2908383" lon="8.4803183"><ele>65.33333333333334</ele><time>2026-05-02T12:56:55.329Z</time></trkpt><trkpt lat="39.2908367" lon="8.4800567"><ele>65.0</ele><time>2026-05-02T12:56:56.376Z</time></trkpt><trkpt lat="39.2908383" lon="8.4797867"><ele>64.66666666666667</ele><time>2026-05-02T12:56:57.328Z</time></trkpt><trkpt lat="39.29085" lon="8.4795233"><ele>64.33333333333333</ele><time>2026-05-02T12:56:58.329Z</time></trkpt><trkpt lat="39.2908567" lon="8.4792583"><ele>64.0</ele><time>2026-05-02T12:56:59.325Z</time></trkpt><trkpt lat="39.2908583" lon="8.479015"><ele>64.0</ele><time>2026-05-02T12:57:00.329Z</time></trkpt><trkpt lat="39.2908367" lon="8.478785"><ele>64.0</ele><time>2026-05-02T12:57:01.326Z</time></trkpt><trkpt lat="39.2908233" lon="8.47855"><ele>64.0</ele><time>2026-05-02T12:57:02.376Z</time></trkpt><trkpt lat="39.2907817" lon="8.4783117"><ele>63.33333333333333</ele><time>2026-05-02T12:57:03.327Z</time></trkpt><trkpt lat="39.2907283" lon="8.4780667"><ele>62.66666666666667</ele><time>2026-05-02T12:57:04.327Z</time></trkpt><trkpt lat="39.290665" lon="8.4778367"><ele>62.0</ele><time>2026-05-02T12:57:05.326Z</time></trkpt><trkpt lat="39.2905617" lon="8.4776233"><ele>60.66666666666667</ele><time>2026-05-02T12:57:06.33Z</time></trkpt><trkpt lat="39.29045" lon="8.4774"><ele>59.33333333333333</ele><time>2026-05-02T12:57:07.329Z</time></trkpt><trkpt lat="39.2903167" lon="8.4771967"><ele>58.0</ele><time>2026-05-02T12:57:08.37Z</time></trkpt><trkpt lat="39.2901767" lon="8.477"><ele>57.0</ele><time>2026-05-02T12:57:09.325Z</time></trkpt><trkpt lat="39.2900217" lon="8.47682"><ele>56.0</ele><time>2026-05-02T12:57:10.332Z</time></trkpt><trkpt lat="39.2898417" lon="8.4766633"><ele>55.0</ele><time>2026-05-02T12:57:11.33Z</time></trkpt><trkpt lat="39.2896533" lon="8.4765533"><ele>55.0</ele><time>2026-05-02T12:57:12.33Z</time></trkpt><trkpt lat="39.2894367" lon="8.47646"><ele>55.0</ele><time>2026-05-02T12:57:13.327Z</time></trkpt><trkpt lat="39.2892267" lon="8.476395"><ele>55.0</ele><time>2026-05-02T12:57:14.369Z</time></trkpt><trkpt lat="39.2890217" lon="8.4763483"><ele>56.33333333333333</ele><time>2026-05-02T12:57:15.33Z</time></trkpt><trkpt lat="39.2888083" lon="8.4762767"><ele>57.66666666666667</ele><time>2026-05-02T12:57:16.329Z</time></trkpt><trkpt lat="39.2885967" lon="8.4762217"><ele>59.0</ele><time>2026-05-02T12:57:17.324Z</time></trkpt><trkpt lat="39.288405" lon="8.476105"><ele>59.0</ele><time>2026-05-02T12:57:18.328Z</time></trkpt><trkpt lat="39.288235" lon="8.47596"><ele>59.0</ele><time>2026-05-02T12:57:19.329Z</time></trkpt><trkpt lat="39.2880767" lon="8.4758"><ele>59.0</ele><time>2026-05-02T12:57:20.371Z</time></trkpt><trkpt lat="39.28793" lon="8.4756017"><ele>57.66666666666667</ele><time>2026-05-02T12:57:21.328Z</time></trkpt><trkpt lat="39.2878083" lon="8.4754133"><ele>56.33333333333333</ele><time>2026-05-02T12:57:22.328Z</time></trkpt><trkpt lat="39.2877" lon="8.4751983"><ele>55.0</ele><time>2026-05-02T12:57:23.329Z</time></trkpt><trkpt lat="39.2876133" lon="8.4749667"><ele>55.0</ele><time>2026-05-02T12:57:24.329Z</time></trkpt><trkpt lat="39.2875317" lon="8.47472"><ele>55.0</ele><time>2026-05-02T12:57:25.329Z</time></trkpt><trkpt lat="39.2874417" lon="8.4744833"><ele>55.0</ele><time>2026-05-02T12:57:26.387Z</time></trkpt><trkpt lat="39.2873633" lon="8.4742467"><ele>53.666666666666664</ele><time>2026-05-02T12:57:27.327Z</time></trkpt><trkpt lat="39.2872883" lon="8.474005"><ele>52.33333333333333</ele><time>2026-05-02T12:57:28.327Z</time></trkpt><trkpt lat="39.2872" lon="8.4737683"><ele>51.0</ele><time>2026-05-02T12:57:29.33Z</time></trkpt><trkpt lat="39.2871017" lon="8.4735367"><ele>51.0</ele><time>2026-05-02T12:57:30.326Z</time></trkpt><trkpt lat="39.2870017" lon="8.4733033"><ele>51.0</ele><time>2026-05-02T12:57:31.327Z</time></trkpt><trkpt lat="39.286915" lon="8.4730633"><ele>51.0</ele><time>2026-05-02T12:57:32.374Z</time></trkpt><trkpt lat="39.28681" lon="8.4728367"><ele>48.333333333333336</ele><time>2026-05-02T12:57:33.331Z</time></trkpt><trkpt lat="39.28671" lon="8.4725933"><ele>45.66666666666667</ele><time>2026-05-02T12:57:34.327Z</time></trkpt><trkpt lat="39.2866117" lon="8.4723533"><ele>43.0</ele><time>2026-05-02T12:57:35.326Z</time></trkpt><trkpt lat="39.2865067" lon="8.472115"><ele>42.333333333333336</ele><time>2026-05-02T12:57:36.326Z</time></trkpt><trkpt lat="39.286405" lon="8.4718767"><ele>41.666666666666664</ele><time>2026-05-02T12:57:37.328Z</time></trkpt><trkpt lat="39.2863033" lon="8.4716367"><ele>41.0</ele><time>2026-05-02T12:57:38.367Z</time></trkpt><trkpt lat="39.2862067" lon="8.4713983"><ele>42.0</ele><time>2026-05-02T12:57:39.324Z</time></trkpt><trkpt lat="39.2861133" lon="8.471155"><ele>43.0</ele><time>2026-05-02T12:57:40.329Z</time></trkpt><trkpt lat="39.28602" lon="8.4709167"><ele>44.0</ele><time>2026-05-02T12:57:41.328Z</time></trkpt><trkpt lat="39.2859267" lon="8.47069"><ele>44.0</ele><time>2026-05-02T12:57:42.328Z</time></trkpt><trkpt lat="39.285835" lon="8.4704533"><ele>44.0</ele><time>2026-05-02T12:57:43.324Z</time></trkpt><trkpt lat="39.28574" lon="8.4702233"><ele>44.0</ele><time>2026-05-02T12:57:44.369Z</time></trkpt><trkpt lat="39.28563" lon="8.4700317"><ele>44.666666666666664</ele><time>2026-05-02T12:57:45.325Z</time></trkpt><trkpt lat="39.2855067" lon="8.46983"><ele>45.333333333333336</ele><time>2026-05-02T12:57:46.328Z</time></trkpt><trkpt lat="39.285375" lon="8.4696283"><ele>46.0</ele><time>2026-05-02T12:57:47.329Z</time></trkpt><trkpt lat="39.2852367" lon="8.4694233"><ele>43.333333333333336</ele><time>2026-05-02T12:57:48.329Z</time></trkpt><trkpt lat="39.2850883" lon="8.4692333"><ele>40.666666666666664</ele><time>2026-05-02T12:57:49.327Z</time></trkpt><trkpt lat="39.2849217" lon="8.4690567"><ele>38.0</ele><time>2026-05-02T12:57:50.369Z</time></trkpt><trkpt lat="39.2847317" lon="8.4688667"><ele>39.0</ele><time>2026-05-02T12:57:51.329Z</time></trkpt><trkpt lat="39.2845317" lon="8.46873"><ele>40.0</ele><time>2026-05-02T12:57:52.328Z</time></trkpt><trkpt lat="39.2843233" lon="8.4685967"><ele>40.0</ele><time>2026-05-02T12:57:53.328Z</time></trkpt><trkpt lat="39.2841133" lon="8.468485"><ele>40.0</ele><time>2026-05-02T12:57:54.329Z</time></trkpt><trkpt lat="39.283905" lon="8.4683783"><ele>39.5</ele><time>2026-05-02T12:57:55.328Z</time></trkpt><trkpt lat="39.28369" lon="8.4682717"><ele>39.0</ele><time>2026-05-02T12:57:56.389Z</time></trkpt><trkpt lat="39.2834833" lon="8.4681683"><ele>39.0</ele><time>2026-05-02T12:57:57.329Z</time></trkpt><trkpt lat="39.2832717" lon="8.46805"><ele>39.0</ele><time>2026-05-02T12:57:58.329Z</time></trkpt><trkpt lat="39.2830633" lon="8.4679367"><ele>42.0</ele><time>2026-05-02T12:57:59.327Z</time></trkpt><trkpt lat="39.2828517" lon="8.4678317"><ele>45.0</ele><time>2026-05-02T12:58:00.327Z</time></trkpt><trkpt lat="39.2826333" lon="8.4677167"><ele>45.0</ele><time>2026-05-02T12:58:01.326Z</time></trkpt><trkpt lat="39.282405" lon="8.4676483"><ele>45.0</ele><time>2026-05-02T12:58:02.377Z</time></trkpt><trkpt lat="39.2821983" lon="8.46756"><ele>43.0</ele><time>2026-05-02T12:58:03.33Z</time></trkpt><trkpt lat="39.2819867" lon="8.4674767"><ele>41.0</ele><time>2026-05-02T12:58:04.326Z</time></trkpt><trkpt lat="39.28178" lon="8.4673933"><ele>39.0</ele><time>2026-05-02T12:58:05.328Z</time></trkpt><trkpt lat="39.2815667" lon="8.4674217"><ele>37.666666666666664</ele><time>2026-05-02T12:58:06.329Z</time></trkpt><trkpt lat="39.28135" lon="8.4673533"><ele>36.33333333333333</ele><time>2026-05-02T12:58:07.328Z</time></trkpt><trkpt lat="39.2811317" lon="8.4672867"><ele>35.0</ele><time>2026-05-02T12:58:08.37Z</time></trkpt><trkpt lat="39.2809083" lon="8.467255"><ele>35.0</ele><time>2026-05-02T12:58:09.327Z</time></trkpt><trkpt lat="39.280675" lon="8.4672317"><ele>35.0</ele><time>2026-05-02T12:58:10.331Z</time></trkpt><trkpt lat="39.280445" lon="8.4672417"><ele>32.5</ele><time>2026-05-02T12:58:11.324Z</time></trkpt><trkpt lat="39.280225" lon="8.467305"><ele>30.0</ele><time>2026-05-02T12:58:12.326Z</time></trkpt><trkpt lat="39.2800067" lon="8.467375"><ele>30.0</ele><time>2026-05-02T12:58:13.324Z</time></trkpt><trkpt lat="39.2797883" lon="8.4674983"><ele>30.0</ele><time>2026-05-02T12:58:14.368Z</time></trkpt><trkpt lat="39.2795783" lon="8.4675833"><ele>30.0</ele><time>2026-05-02T12:58:15.326Z</time></trkpt><trkpt lat="39.2793733" lon="8.4676567"><ele>30.0</ele><time>2026-05-02T12:58:16.33Z</time></trkpt><trkpt lat="39.279185" lon="8.4677633"><ele>30.0</ele><time>2026-05-02T12:58:17.327Z</time></trkpt><trkpt lat="39.279005" lon="8.4678517"><ele>31.0</ele><time>2026-05-02T12:58:18.329Z</time></trkpt><trkpt lat="39.2788267" lon="8.467905"><ele>32.0</ele><time>2026-05-02T12:58:19.328Z</time></trkpt><trkpt lat="39.2786417" lon="8.467965"><ele>33.0</ele><time>2026-05-02T12:58:20.374Z</time></trkpt><trkpt lat="39.2784717" lon="8.4680033"><ele>33.0</ele><time>2026-05-02T12:58:21.326Z</time></trkpt><trkpt lat="39.2783033" lon="8.4680283"><ele>33.0</ele><time>2026-05-02T12:58:22.33Z</time></trkpt><trkpt lat="39.2781317" lon="8.4680633"><ele>33.0</ele><time>2026-05-02T12:58:23.329Z</time></trkpt><trkpt lat="39.2779483" lon="8.468095"><ele>29.0</ele><time>2026-05-02T12:58:24.326Z</time></trkpt><trkpt lat="39.2777633" lon="8.46812"><ele>25.0</ele><time>2026-05-02T12:58:25.331Z</time></trkpt><trkpt lat="39.2775783" lon="8.4681483"><ele>21.0</ele><time>2026-05-02T12:58:26.359Z</time></trkpt><trkpt lat="39.27739" lon="8.46817"><ele>20.333333333333332</ele><time>2026-05-02T12:58:27.329Z</time></trkpt><trkpt lat="39.2772067" lon="8.46819"><ele>19.666666666666664</ele><time>2026-05-02T12:58:28.328Z</time></trkpt><trkpt lat="39.2770267" lon="8.4681967"><ele>19.0</ele><time>2026-05-02T12:58:29.33Z</time></trkpt><trkpt lat="39.2768467" lon="8.4681967"><ele>19.0</ele><time>2026-05-02T12:58:30.328Z</time></trkpt><trkpt lat="39.2766733" lon="8.4681883"><ele>19.0</ele><time>2026-05-02T12:58:31.33Z</time></trkpt><trkpt lat="39.27651" lon="8.4681633"><ele>19.0</ele><time>2026-05-02T12:58:32.377Z</time></trkpt><trkpt lat="39.27635" lon="8.4681333"><ele>19.333333333333332</ele><time>2026-05-02T12:58:33.328Z</time></trkpt><trkpt lat="39.2761817" lon="8.4680933"><ele>19.666666666666668</ele><time>2026-05-02T12:58:34.327Z</time></trkpt><trkpt lat="39.2760133" lon="8.4680467"><ele>20.0</ele><time>2026-05-02T12:58:35.326Z</time></trkpt><trkpt lat="39.2758467" lon="8.4680183"><ele>20.0</ele><time>2026-05-02T12:58:36.328Z</time></trkpt><trkpt lat="39.2756917" lon="8.4680133"><ele>20.0</ele><time>2026-05-02T12:58:37.324Z</time></trkpt><trkpt lat="39.2755517" lon="8.4679967"><ele>20.0</ele><time>2026-05-02T12:58:38.37Z</time></trkpt><trkpt lat="39.275415" lon="8.467975"><ele>20.0</ele><time>2026-05-02T12:58:39.329Z</time></trkpt><trkpt lat="39.2752733" lon="8.46795"><ele>19.75</ele><time>2026-05-02T12:58:40.326Z</time></trkpt><trkpt lat="39.27513" lon="8.4679333"><ele>19.5</ele><time>2026-05-02T12:58:41.33Z</time></trkpt><trkpt lat="39.2749883" lon="8.467905"><ele>19.25</ele><time>2026-05-02T12:58:42.329Z</time></trkpt><trkpt lat="39.27485" lon="8.467875"><ele>19.0</ele><time>2026-05-02T12:58:43.327Z</time></trkpt><trkpt lat="39.2747117" lon="8.4678333"><ele>20.0</ele><time>2026-05-02T12:58:44.37Z</time></trkpt><trkpt lat="39.27456" lon="8.467815"><ele>21.0</ele><time>2026-05-02T12:58:45.33Z</time></trkpt><trkpt lat="39.2744067" lon="8.467785"><ele>22.0</ele><time>2026-05-02T12:58:46.329Z</time></trkpt><trkpt lat="39.274255" lon="8.467765"><ele>22.0</ele><time>2026-05-02T12:58:47.326Z</time></trkpt><trkpt lat="39.2741" lon="8.4677483"><ele>22.0</ele><time>2026-05-02T12:58:48.329Z</time></trkpt><trkpt lat="39.2739583" lon="8.4677183"><ele>22.0</ele><time>2026-05-02T12:58:49.327Z</time></trkpt><trkpt lat="39.27381" lon="8.467685"><ele>23.333333333333332</ele><time>2026-05-02T12:58:50.371Z</time></trkpt><trkpt lat="39.27366" lon="8.467655"><ele>24.666666666666664</ele><time>2026-05-02T12:58:51.325Z</time></trkpt><trkpt lat="39.27351" lon="8.467635"><ele>26.0</ele><time>2026-05-02T12:58:52.326Z</time></trkpt><trkpt lat="39.273365" lon="8.467595"><ele>26.0</ele><time>2026-05-02T12:58:53.325Z</time></trkpt><trkpt lat="39.27323" lon="8.46756"><ele>26.0</ele><time>2026-05-02T12:58:54.324Z</time></trkpt><trkpt lat="39.2730967" lon="8.4675367"><ele>26.0</ele><time>2026-05-02T12:58:55.33Z</time></trkpt><trkpt lat="39.2729717" lon="8.467515"><ele>26.0</ele><time>2026-05-02T12:58:56.385Z</time></trkpt><trkpt lat="39.2728633" lon="8.4674933"><ele>25.999999999999996</ele><time>2026-05-02T12:58:57.327Z</time></trkpt><trkpt lat="39.2727617" lon="8.467475"><ele>26.0</ele><time>2026-05-02T12:58:58.329Z</time></trkpt><trkpt lat="39.2726683" lon="8.4674567"><ele>26.0</ele><time>2026-05-02T12:58:59.33Z</time></trkpt><trkpt lat="39.2725783" lon="8.46744"><ele>26.0</ele><time>2026-05-02T12:59:00.326Z</time></trkpt><trkpt lat="39.2725" lon="8.467425"><ele>25.999999999999996</ele><time>2026-05-02T12:59:01.329Z</time></trkpt><trkpt lat="39.2724267" lon="8.4674033"><ele>26.0</ele><time>2026-05-02T12:59:02.376Z</time></trkpt><trkpt lat="39.2723583" lon="8.4673683"><ele>25.999999999999996</ele><time>2026-05-02T12:59:03.327Z</time></trkpt><trkpt lat="39.2722967" lon="8.467315"><ele>26.0</ele><time>2026-05-02T12:59:04.329Z</time></trkpt><trkpt lat="39.272245" lon="8.4672467"><ele>26.0</ele><time>2026-05-02T12:59:05.325Z</time></trkpt><trkpt lat="39.27219" lon="8.4671867"><ele>26.0</ele><time>2026-05-02T12:59:06.328Z</time></trkpt><trkpt lat="39.27213" lon="8.467145"><ele>25.999999999999996</ele><time>2026-05-02T12:59:07.326Z</time></trkpt><trkpt lat="39.2720117" lon="8.467135"><ele>26.0</ele><time>2026-05-02T12:59:09.329Z</time></trkpt><trkpt lat="39.2719033" lon="8.467205"><ele>26.166666666666664</ele><time>2026-05-02T12:59:11.324Z</time></trkpt><trkpt lat="39.2718783" lon="8.4672917"><ele>26.333333333333332</ele><time>2026-05-02T12:59:12.33Z</time></trkpt><trkpt lat="39.2718633" lon="8.4673917"><ele>26.5</ele><time>2026-05-02T12:59:13.333Z</time></trkpt><trkpt lat="39.27185" lon="8.4675033"><ele>26.666666666666664</ele><time>2026-05-02T12:59:14.369Z</time></trkpt><trkpt lat="39.2718233" lon="8.4676183"><ele>26.833333333333332</ele><time>2026-05-02T12:59:15.325Z</time></trkpt><trkpt lat="39.2717883" lon="8.4677367"><ele>27.0</ele><time>2026-05-02T12:59:16.326Z</time></trkpt><trkpt lat="39.2717317" lon="8.4678367"><ele>27.0</ele><time>2026-05-02T12:59:17.33Z</time></trkpt><trkpt lat="39.27166" lon="8.4679467"><ele>27.000000000000004</ele><time>2026-05-02T12:59:18.328Z</time></trkpt><trkpt lat="39.2715817" lon="8.4680433"><ele>27.000000000000004</ele><time>2026-05-02T12:59:19.327Z</time></trkpt><trkpt lat="39.2715" lon="8.4681483"><ele>27.0</ele><time>2026-05-02T12:59:20.37Z</time></trkpt><trkpt lat="39.2714117" lon="8.46824"><ele>27.0</ele><time>2026-05-02T12:59:21.327Z</time></trkpt><trkpt lat="39.2713133" lon="8.46834"><ele>28.75</ele><time>2026-05-02T12:59:22.325Z</time></trkpt><trkpt lat="39.2712167" lon="8.46844"><ele>30.5</ele><time>2026-05-02T12:59:23.331Z</time></trkpt><trkpt lat="39.2711" lon="8.468545"><ele>32.25</ele><time>2026-05-02T12:59:24.329Z</time></trkpt><trkpt lat="39.2709933" lon="8.4686467"><ele>34.0</ele><time>2026-05-02T12:59:25.326Z</time></trkpt><trkpt lat="39.27089" lon="8.4687517"><ele>33.8</ele><time>2026-05-02T12:59:26.39Z</time></trkpt><trkpt lat="39.2707883" lon="8.46885"><ele>33.599999999999994</ele><time>2026-05-02T12:59:27.327Z</time></trkpt><trkpt lat="39.2707017" lon="8.4689317"><ele>33.4</ele><time>2026-05-02T12:59:28.329Z</time></trkpt><trkpt lat="39.270625" lon="8.4690083"><ele>33.199999999999996</ele><time>2026-05-02T12:59:29.326Z</time></trkpt><trkpt lat="39.2705533" lon="8.4690617"><ele>33.0</ele><time>2026-05-02T12:59:30.326Z</time></trkpt><trkpt lat="39.2704917" lon="8.46915"><ele>34.0</ele><time>2026-05-02T12:59:32.375Z</time></trkpt><trkpt lat="39.2704383" lon="8.4692283"><ele>35.0</ele><time>2026-05-02T12:59:36.33Z</time></trkpt><trkpt lat="39.2703633" lon="8.4693133"><ele>36.0</ele><time>2026-05-02T12:59:39.328Z</time></trkpt><trkpt lat="39.2702817" lon="8.4694083"><ele>37.0</ele><time>2026-05-02T12:59:41.324Z</time></trkpt><trkpt lat="39.27023" lon="8.46946"><ele>38.0</ele><time>2026-05-02T12:59:42.323Z</time></trkpt><trkpt lat="39.2701667" lon="8.4695133"><ele>39.0</ele><time>2026-05-02T12:59:43.328Z</time></trkpt><trkpt lat="39.270095" lon="8.4695767"><ele>39.2</ele><time>2026-05-02T12:59:44.367Z</time></trkpt><trkpt lat="39.2700117" lon="8.4696483"><ele>39.4</ele><time>2026-05-02T12:59:45.329Z</time></trkpt><trkpt lat="39.2699183" lon="8.469725"><ele>39.6</ele><time>2026-05-02T12:59:46.328Z</time></trkpt><trkpt lat="39.2698133" lon="8.4697867"><ele>39.8</ele><time>2026-05-02T12:59:47.325Z</time></trkpt><trkpt lat="39.2697183" lon="8.469865"><ele>40.0</ele><time>2026-05-02T12:59:48.329Z</time></trkpt><trkpt lat="39.269625" lon="8.46996"><ele>40.0</ele><time>2026-05-02T12:59:49.328Z</time></trkpt><trkpt lat="39.2695433" lon="8.4700517"><ele>40.0</ele><time>2026-05-02T12:59:50.366Z</time></trkpt><trkpt lat="39.269465" lon="8.470175"><ele>40.0</ele><time>2026-05-02T12:59:51.327Z</time></trkpt><trkpt lat="39.2693733" lon="8.4702467"><ele>40.0</ele><time>2026-05-02T12:59:52.324Z</time></trkpt><trkpt lat="39.2693033" lon="8.4703217"><ele>40.0</ele><time>2026-05-02T12:59:53.33Z</time></trkpt><trkpt lat="39.26923" lon="8.4703733"><ele>40.0</ele><time>2026-05-02T12:59:54.326Z</time></trkpt><trkpt lat="39.2691567" lon="8.47043"><ele>40.0</ele><time>2026-05-02T12:59:55.324Z</time></trkpt><trkpt lat="39.2690867" lon="8.4704683"><ele>40.0</ele><time>2026-05-02T12:59:56.386Z</time></trkpt><trkpt lat="39.269035" lon="8.47052"><ele>40.0</ele><time>2026-05-02T12:59:57.325Z</time></trkpt><trkpt lat="39.268975" lon="8.470545"><ele>40.0</ele><time>2026-05-02T12:59:58.326Z</time></trkpt><trkpt lat="39.2688867" lon="8.470595"><ele>40.0</ele><time>2026-05-02T13:00:00.326Z</time></trkpt><trkpt lat="39.2687867" lon="8.470645"><ele>40.5</ele><time>2026-05-02T13:00:02.378Z</time></trkpt><trkpt lat="39.26868" lon="8.47069"><ele>41.0</ele><time>2026-05-02T13:00:04.323Z</time></trkpt><trkpt lat="39.2686183" lon="8.4707233"><ele>41.5</ele><time>2026-05-02T13:00:05.327Z</time></trkpt><trkpt lat="39.2685533" lon="8.470755"><ele>42.0</ele><time>2026-05-02T13:00:06.328Z</time></trkpt><trkpt lat="39.2684817" lon="8.4707917"><ele>42.5</ele><time>2026-05-02T13:00:07.323Z</time></trkpt><trkpt lat="39.2684033" lon="8.4708283"><ele>43.0</ele><time>2026-05-02T13:00:08.367Z</time></trkpt><trkpt lat="39.26832" lon="8.4708667"><ele>43.0</ele><time>2026-05-02T13:00:09.324Z</time></trkpt><trkpt lat="39.2682267" lon="8.4709"><ele>43.0</ele><time>2026-05-02T13:00:10.325Z</time></trkpt><trkpt lat="39.26813" lon="8.47092"><ele>43.0</ele><time>2026-05-02T13:00:11.327Z</time></trkpt><trkpt lat="39.26802" lon="8.4709133"><ele>43.0</ele><time>2026-05-02T13:00:12.326Z</time></trkpt><trkpt lat="39.26793" lon="8.4709283"><ele>43.0</ele><time>2026-05-02T13:00:13.326Z</time></trkpt><trkpt lat="39.2678483" lon="8.4709367"><ele>43.5</ele><time>2026-05-02T13:00:14.37Z</time></trkpt><trkpt lat="39.2677817" lon="8.470945"><ele>44.0</ele><time>2026-05-02T13:00:15.328Z</time></trkpt><trkpt lat="39.267715" lon="8.4709533"><ele>44.5</ele><time>2026-05-02T13:00:16.326Z</time></trkpt><trkpt lat="39.267645" lon="8.4709617"><ele>45.0</ele><time>2026-05-02T13:00:17.327Z</time></trkpt><trkpt lat="39.2675733" lon="8.4709717"><ele>45.5</ele><time>2026-05-02T13:00:18.325Z</time></trkpt><trkpt lat="39.2675033" lon="8.4709883"><ele>46.0</ele><time>2026-05-02T13:00:19.323Z</time></trkpt><trkpt lat="39.2673967" lon="8.471035"><ele>46.0</ele><time>2026-05-02T13:00:21.329Z</time></trkpt><trkpt lat="39.2673233" lon="8.4711083"><ele>46.0</ele><time>2026-05-02T13:00:23.325Z</time></trkpt><trkpt lat="39.2672883" lon="8.4712317"><ele>46.0</ele><time>2026-05-02T13:00:25.327Z</time></trkpt><trkpt lat="39.2672933" lon="8.4713217"><ele>46.0</ele><time>2026-05-02T13:00:26.389Z</time></trkpt><trkpt lat="39.2672983" lon="8.4714217"><ele>46.0</ele><time>2026-05-02T13:00:27.328Z</time></trkpt><trkpt lat="39.2672967" lon="8.471535"><ele>46.0</ele><time>2026-05-02T13:00:28.328Z</time></trkpt><trkpt lat="39.2672917" lon="8.47167"><ele>46.199999999999996</ele><time>2026-05-02T13:00:29.33Z</time></trkpt><trkpt lat="39.2672867" lon="8.4718183"><ele>46.4</ele><time>2026-05-02T13:00:30.325Z</time></trkpt><trkpt lat="39.267285" lon="8.4720067"><ele>46.6</ele><time>2026-05-02T13:00:31.325Z</time></trkpt><trkpt lat="39.26727" lon="8.4721217"><ele>46.8</ele><time>2026-05-02T13:00:32.376Z</time></trkpt><trkpt lat="39.2672533" lon="8.4722233"><ele>47.0</ele><time>2026-05-02T13:00:33.328Z</time></trkpt><trkpt lat="39.2672317" lon="8.4723217"><ele>48.0</ele><time>2026-05-02T13:00:34.325Z</time></trkpt><trkpt lat="39.2672067" lon="8.4724183"><ele>49.0</ele><time>2026-05-02T13:00:35.326Z</time></trkpt><trkpt lat="39.2671733" lon="8.47251"><ele>50.0</ele><time>2026-05-02T13:00:36.329Z</time></trkpt><trkpt lat="39.2670917" lon="8.4726333"><ele>51.0</ele><time>2026-05-02T13:00:38.369Z</time></trkpt><trkpt lat="39.266975" lon="8.4727"><ele>52.0</ele><time>2026-05-02T13:00:40.325Z</time></trkpt><trkpt lat="39.2669017" lon="8.4727167"><ele>52.0</ele><time>2026-05-02T13:00:41.327Z</time></trkpt><trkpt lat="39.2668067" lon="8.4727067"><ele>52.0</ele><time>2026-05-02T13:00:42.328Z</time></trkpt><trkpt lat="39.2667133" lon="8.4727017"><ele>52.0</ele><time>2026-05-02T13:00:43.327Z</time></trkpt><trkpt lat="39.26662" lon="8.4726967"><ele>52.0</ele><time>2026-05-02T13:00:44.368Z</time></trkpt><trkpt lat="39.2665183" lon="8.47268"><ele>52.0</ele><time>2026-05-02T13:00:45.323Z</time></trkpt><trkpt lat="39.2664267" lon="8.4726683"><ele>52.33333333333333</ele><time>2026-05-02T13:00:46.324Z</time></trkpt><trkpt lat="39.2663433" lon="8.4726583"><ele>52.666666666666664</ele><time>2026-05-02T13:00:47.327Z</time></trkpt><trkpt lat="39.2662683" lon="8.472655"><ele>53.0</ele><time>2026-05-02T13:00:48.327Z</time></trkpt><trkpt lat="39.2662" lon="8.4726467"><ele>53.33333333333333</ele><time>2026-05-02T13:00:49.323Z</time></trkpt><trkpt lat="39.2661333" lon="8.4726533"><ele>53.666666666666664</ele><time>2026-05-02T13:00:50.37Z</time></trkpt><trkpt lat="39.2660233" lon="8.4726933"><ele>54.0</ele><time>2026-05-02T13:00:52.329Z</time></trkpt><trkpt lat="39.265955" lon="8.47281"><ele>54.0</ele><time>2026-05-02T13:00:54.331Z</time></trkpt><trkpt lat="39.265945" lon="8.4729217"><ele>54.00000000000001</ele><time>2026-05-02T13:00:55.322Z</time></trkpt><trkpt lat="39.2659717" lon="8.4730733"><ele>54.00000000000001</ele><time>2026-05-02T13:00:56.364Z</time></trkpt><trkpt lat="39.265985" lon="8.4732"><ele>54.0</ele><time>2026-05-02T13:00:57.33Z</time></trkpt><trkpt lat="39.2660233" lon="8.473345"><ele>54.0</ele><time>2026-05-02T13:00:58.331Z</time></trkpt><trkpt lat="39.266085" lon="8.4735333"><ele>54.75</ele><time>2026-05-02T13:00:59.327Z</time></trkpt><trkpt lat="39.2661333" lon="8.4736983"><ele>55.5</ele><time>2026-05-02T13:01:00.326Z</time></trkpt><trkpt lat="39.2661767" lon="8.4738467"><ele>56.25</ele><time>2026-05-02T13:01:01.328Z</time></trkpt><trkpt lat="39.2662183" lon="8.47399"><ele>57.0</ele><time>2026-05-02T13:01:02.376Z</time></trkpt><trkpt lat="39.266245" lon="8.474125"><ele>57.6</ele><time>2026-05-02T13:01:03.326Z</time></trkpt><trkpt lat="39.2662583" lon="8.4742633"><ele>58.2</ele><time>2026-05-02T13:01:04.328Z</time></trkpt><trkpt lat="39.266245" lon="8.4743867"><ele>58.8</ele><time>2026-05-02T13:01:05.329Z</time></trkpt><trkpt lat="39.2662233" lon="8.47451"><ele>59.4</ele><time>2026-05-02T13:01:06.325Z</time></trkpt><trkpt lat="39.2662083" lon="8.474625"><ele>60.0</ele><time>2026-05-02T13:01:07.328Z</time></trkpt><trkpt lat="39.2662" lon="8.4747317"><ele>62.166666666666664</ele><time>2026-05-02T13:01:08.368Z</time></trkpt><trkpt lat="39.2661967" lon="8.4748317"><ele>64.33333333333333</ele><time>2026-05-02T13:01:09.328Z</time></trkpt><trkpt lat="39.2662083" lon="8.47494"><ele>66.5</ele><time>2026-05-02T13:01:10.328Z</time></trkpt><trkpt lat="39.2662167" lon="8.4750517"><ele>68.66666666666666</ele><time>2026-05-02T13:01:11.326Z</time></trkpt><trkpt lat="39.2662233" lon="8.47517"><ele>70.83333333333333</ele><time>2026-05-02T13:01:12.326Z</time></trkpt><trkpt lat="39.2662233" lon="8.4752917"><ele>73.0</ele><time>2026-05-02T13:01:13.325Z</time></trkpt><trkpt lat="39.2662167" lon="8.47543"><ele>75.2</ele><time>2026-05-02T13:01:14.367Z</time></trkpt><trkpt lat="39.266205" lon="8.4755783"><ele>77.4</ele><time>2026-05-02T13:01:15.323Z</time></trkpt><trkpt lat="39.2662083" lon="8.475725"><ele>79.60000000000001</ele><time>2026-05-02T13:01:16.328Z</time></trkpt><trkpt lat="39.2662133" lon="8.4758583"><ele>81.8</ele><time>2026-05-02T13:01:17.328Z</time></trkpt><trkpt lat="39.266235" lon="8.475985"><ele>84.0</ele><time>2026-05-02T13:01:18.33Z</time></trkpt><trkpt lat="39.2662817" lon="8.4760983"><ele>84.0</ele><time>2026-05-02T13:01:19.323Z</time></trkpt><trkpt lat="39.2663233" lon="8.476205"><ele>84.0</ele><time>2026-05-02T13:01:20.369Z</time></trkpt><trkpt lat="39.266365" lon="8.476315"><ele>84.0</ele><time>2026-05-02T13:01:21.324Z</time></trkpt><trkpt lat="39.2664233" lon="8.476435"><ele>84.0</ele><time>2026-05-02T13:01:22.328Z</time></trkpt><trkpt lat="39.2665217" lon="8.476535"><ele>84.0</ele><time>2026-05-02T13:01:23.329Z</time></trkpt><trkpt lat="39.2666933" lon="8.476605"><ele>81.66666666666667</ele><time>2026-05-02T13:01:24.325Z</time></trkpt><trkpt lat="39.2669" lon="8.4766417"><ele>79.33333333333334</ele><time>2026-05-02T13:01:25.326Z</time></trkpt><trkpt lat="39.2670633" lon="8.4767133"><ele>77.0</ele><time>2026-05-02T13:01:26.388Z</time></trkpt><trkpt lat="39.2672267" lon="8.476785"><ele>77.66666666666667</ele><time>2026-05-02T13:01:27.329Z</time></trkpt><trkpt lat="39.2674117" lon="8.4768483"><ele>78.33333333333333</ele><time>2026-05-02T13:01:28.329Z</time></trkpt><trkpt lat="39.2675817" lon="8.4769283"><ele>79.0</ele><time>2026-05-02T13:01:29.328Z</time></trkpt><trkpt lat="39.2677383" lon="8.477015"><ele>80.33333333333333</ele><time>2026-05-02T13:01:30.324Z</time></trkpt><trkpt lat="39.2678883" lon="8.4771133"><ele>81.66666666666667</ele><time>2026-05-02T13:01:31.329Z</time></trkpt><trkpt lat="39.2680217" lon="8.47722"><ele>83.0</ele><time>2026-05-02T13:01:32.377Z</time></trkpt><trkpt lat="39.268145" lon="8.477325"><ele>83.0</ele><time>2026-05-02T13:01:33.324Z</time></trkpt><trkpt lat="39.2682583" lon="8.47744"><ele>83.0</ele><time>2026-05-02T13:01:34.33Z</time></trkpt><trkpt lat="39.2683633" lon="8.4775683"><ele>83.0</ele><time>2026-05-02T13:01:35.327Z</time></trkpt><trkpt lat="39.2684733" lon="8.4777217"><ele>83.0</ele><time>2026-05-02T13:01:36.329Z</time></trkpt><trkpt lat="39.268585" lon="8.47784"><ele>83.0</ele><time>2026-05-02T13:01:37.33Z</time></trkpt><trkpt lat="39.268675" lon="8.4779833"><ele>83.0</ele><time>2026-05-02T13:01:38.368Z</time></trkpt><trkpt lat="39.268735" lon="8.4781217"><ele>83.0</ele><time>2026-05-02T13:01:39.329Z</time></trkpt><trkpt lat="39.26878" lon="8.4782683"><ele>83.5</ele><time>2026-05-02T13:01:40.326Z</time></trkpt><trkpt lat="39.26881" lon="8.4784267"><ele>84.0</ele><time>2026-05-02T13:01:41.328Z</time></trkpt><trkpt lat="39.2688183" lon="8.4785833"><ele>84.5</ele><time>2026-05-02T13:01:42.327Z</time></trkpt><trkpt lat="39.2688183" lon="8.4787467"><ele>85.0</ele><time>2026-05-02T13:01:43.328Z</time></trkpt><trkpt lat="39.2688183" lon="8.4789067"><ele>86.25</ele><time>2026-05-02T13:01:44.371Z</time></trkpt><trkpt lat="39.2688383" lon="8.479045"><ele>87.5</ele><time>2026-05-02T13:01:45.325Z</time></trkpt><trkpt lat="39.26888" lon="8.4791783"><ele>88.75</ele><time>2026-05-02T13:01:46.326Z</time></trkpt><trkpt lat="39.2689383" lon="8.4793"><ele>90.0</ele><time>2026-05-02T13:01:47.325Z</time></trkpt><trkpt lat="39.26903" lon="8.4794133"><ele>90.0</ele><time>2026-05-02T13:01:48.329Z</time></trkpt><trkpt lat="39.26913" lon="8.4795267"><ele>90.0</ele><time>2026-05-02T13:01:49.326Z</time></trkpt><trkpt lat="39.2692283" lon="8.4796633"><ele>90.0</ele><time>2026-05-02T13:01:50.368Z</time></trkpt><trkpt lat="39.2693167" lon="8.47981"><ele>90.0</ele><time>2026-05-02T13:01:51.326Z</time></trkpt><trkpt lat="39.2693817" lon="8.4799633"><ele>90.5</ele><time>2026-05-02T13:01:52.328Z</time></trkpt><trkpt lat="39.2694283" lon="8.4801183"><ele>91.0</ele><time>2026-05-02T13:01:53.329Z</time></trkpt><trkpt lat="39.269465" lon="8.4802817"><ele>91.5</ele><time>2026-05-02T13:01:54.329Z</time></trkpt><trkpt lat="39.2694867" lon="8.4804417"><ele>92.0</ele><time>2026-05-02T13:01:55.329Z</time></trkpt><trkpt lat="39.2694883" lon="8.48061"><ele>92.0</ele><time>2026-05-02T13:01:56.388Z</time></trkpt><trkpt lat="39.2694733" lon="8.480775"><ele>92.0</ele><time>2026-05-02T13:01:57.329Z</time></trkpt><trkpt lat="39.269455" lon="8.4809417"><ele>92.0</ele><time>2026-05-02T13:01:58.328Z</time></trkpt><trkpt lat="39.2694183" lon="8.4810883"><ele>92.0</ele><time>2026-05-02T13:01:59.329Z</time></trkpt><trkpt lat="39.269365" lon="8.481235"><ele>92.25</ele><time>2026-05-02T13:02:00.328Z</time></trkpt><trkpt lat="39.2693083" lon="8.4813733"><ele>92.5</ele><time>2026-05-02T13:02:01.329Z</time></trkpt><trkpt lat="39.2692617" lon="8.4815233"><ele>92.75</ele><time>2026-05-02T13:02:02.372Z</time></trkpt><trkpt lat="39.2692367" lon="8.4816767"><ele>93.0</ele><time>2026-05-02T13:02:03.324Z</time></trkpt><trkpt lat="39.26922" lon="8.4818367"><ele>93.0</ele><time>2026-05-02T13:02:04.324Z</time></trkpt><trkpt lat="39.26922" lon="8.481975"><ele>93.0</ele><time>2026-05-02T13:02:05.328Z</time></trkpt><trkpt lat="39.26925" lon="8.4821083"><ele>93.0</ele><time>2026-05-02T13:02:06.329Z</time></trkpt><trkpt lat="39.2692917" lon="8.4822283"><ele>93.0</ele><time>2026-05-02T13:02:07.329Z</time></trkpt><trkpt lat="39.2693583" lon="8.482325"><ele>93.0</ele><time>2026-05-02T13:02:08.364Z</time></trkpt><trkpt lat="39.2694217" lon="8.482375"><ele>93.66666666666667</ele><time>2026-05-02T13:02:09.328Z</time></trkpt><trkpt lat="39.2694833" lon="8.4824067"><ele>94.33333333333334</ele><time>2026-05-02T13:02:10.329Z</time></trkpt><trkpt lat="39.26955" lon="8.4824317"><ele>95.0</ele><time>2026-05-02T13:02:11.328Z</time></trkpt><trkpt lat="39.2696233" lon="8.482445"><ele>95.66666666666667</ele><time>2026-05-02T13:02:12.328Z</time></trkpt><trkpt lat="39.2696967" lon="8.4824533"><ele>96.33333333333334</ele><time>2026-05-02T13:02:13.329Z</time></trkpt><trkpt lat="39.26978" lon="8.4824167"><ele>97.0</ele><time>2026-05-02T13:02:14.367Z</time></trkpt><trkpt lat="39.2698633" lon="8.482375"><ele>97.0</ele><time>2026-05-02T13:02:15.327Z</time></trkpt><trkpt lat="39.269945" lon="8.4823233"><ele>97.0</ele><time>2026-05-02T13:02:16.326Z</time></trkpt><trkpt lat="39.270025" lon="8.48226"><ele>97.0</ele><time>2026-05-02T13:02:17.33Z</time></trkpt><trkpt lat="39.2701" lon="8.482175"><ele>97.0</ele><time>2026-05-02T13:02:18.327Z</time></trkpt><trkpt lat="39.270185" lon="8.482055"><ele>97.0</ele><time>2026-05-02T13:02:19.325Z</time></trkpt><trkpt lat="39.2702817" lon="8.4819367"><ele>99.25</ele><time>2026-05-02T13:02:20.369Z</time></trkpt><trkpt lat="39.2703767" lon="8.4818317"><ele>101.5</ele><time>2026-05-02T13:02:21.328Z</time></trkpt><trkpt lat="39.2704767" lon="8.481765"><ele>103.75</ele><time>2026-05-02T13:02:22.329Z</time></trkpt><trkpt lat="39.2705917" lon="8.4817233"><ele>106.0</ele><time>2026-05-02T13:02:23.328Z</time></trkpt><trkpt lat="39.270715" lon="8.4816917"><ele>107.4</ele><time>2026-05-02T13:02:24.324Z</time></trkpt><trkpt lat="39.270815" lon="8.481745"><ele>108.8</ele><time>2026-05-02T13:02:25.324Z</time></trkpt><trkpt lat="39.2709317" lon="8.48178"><ele>110.20000000000002</ele><time>2026-05-02T13:02:26.386Z</time></trkpt><trkpt lat="39.2710333" lon="8.4818083"><ele>111.60000000000001</ele><time>2026-05-02T13:02:27.324Z</time></trkpt><trkpt lat="39.2711483" lon="8.481835"><ele>113.0</ele><time>2026-05-02T13:02:28.327Z</time></trkpt><trkpt lat="39.271255" lon="8.481885"><ele>112.99999999999999</ele><time>2026-05-02T13:02:29.328Z</time></trkpt><trkpt lat="39.2713117" lon="8.4819617"><ele>113.0</ele><time>2026-05-02T13:02:30.326Z</time></trkpt><trkpt lat="39.271375" lon="8.482025"><ele>113.0</ele><time>2026-05-02T13:02:31.336Z</time></trkpt><trkpt lat="39.2714383" lon="8.4821017"><ele>113.0</ele><time>2026-05-02T13:02:32.376Z</time></trkpt><trkpt lat="39.271485" lon="8.48218"><ele>112.99999999999999</ele><time>2026-05-02T13:02:33.327Z</time></trkpt><trkpt lat="39.2715367" lon="8.4822467"><ele>113.0</ele><time>2026-05-02T13:02:34.327Z</time></trkpt><trkpt lat="39.2715867" lon="8.48233"><ele>113.80000000000001</ele><time>2026-05-02T13:02:35.326Z</time></trkpt><trkpt lat="39.271645" lon="8.48241"><ele>114.60000000000001</ele><time>2026-05-02T13:02:36.329Z</time></trkpt><trkpt lat="39.27171" lon="8.4824833"><ele>115.39999999999999</ele><time>2026-05-02T13:02:37.327Z</time></trkpt><trkpt lat="39.2717833" lon="8.4825533"><ele>116.19999999999999</ele><time>2026-05-02T13:02:38.369Z</time></trkpt><trkpt lat="39.2718617" lon="8.4826233"><ele>117.0</ele><time>2026-05-02T13:02:39.327Z</time></trkpt><trkpt lat="39.2719533" lon="8.48267"><ele>117.0</ele><time>2026-05-02T13:02:40.326Z</time></trkpt><trkpt lat="39.2720467" lon="8.4827183"><ele>116.99999999999999</ele><time>2026-05-02T13:02:41.328Z</time></trkpt><trkpt lat="39.27213" lon="8.4827817"><ele>116.99999999999999</ele><time>2026-05-02T13:02:42.325Z</time></trkpt><trkpt lat="39.2722367" lon="8.4828417"><ele>117.0</ele><time>2026-05-02T13:02:43.327Z</time></trkpt><trkpt lat="39.272345" lon="8.482895"><ele>117.0</ele><time>2026-05-02T13:02:44.37Z</time></trkpt><trkpt lat="39.2724567" lon="8.4829583"><ele>117.8</ele><time>2026-05-02T13:02:45.326Z</time></trkpt><trkpt lat="39.27256" lon="8.4830167"><ele>118.6</ele><time>2026-05-02T13:02:46.329Z</time></trkpt><trkpt lat="39.2726633" lon="8.4830717"><ele>119.39999999999999</ele><time>2026-05-02T13:02:47.331Z</time></trkpt><trkpt lat="39.27276" lon="8.48312"><ele>120.19999999999999</ele><time>2026-05-02T13:02:48.327Z</time></trkpt><trkpt lat="39.2728583" lon="8.4831683"><ele>121.0</ele><time>2026-05-02T13:02:49.33Z</time></trkpt><trkpt lat="39.2729367" lon="8.483235"><ele>121.0</ele><time>2026-05-02T13:02:50.369Z</time></trkpt><trkpt lat="39.2730083" lon="8.4833067"><ele>121.0</ele><time>2026-05-02T13:02:51.329Z</time></trkpt><trkpt lat="39.2730683" lon="8.4833933"><ele>121.0</ele><time>2026-05-02T13:02:52.328Z</time></trkpt><trkpt lat="39.2731217" lon="8.483495"><ele>121.0</ele><time>2026-05-02T13:02:53.329Z</time></trkpt><trkpt lat="39.27316" lon="8.4836033"><ele>121.0</ele><time>2026-05-02T13:02:54.323Z</time></trkpt><trkpt lat="39.2732183" lon="8.4837267"><ele>123.0</ele><time>2026-05-02T13:02:55.328Z</time></trkpt><trkpt lat="39.2732767" lon="8.4838683"><ele>125.0</ele><time>2026-05-02T13:02:56.388Z</time></trkpt><trkpt lat="39.2733217" lon="8.4839867"><ele>127.0</ele><time>2026-05-02T13:02:57.328Z</time></trkpt><trkpt lat="39.2733917" lon="8.4840983"><ele>129.0</ele><time>2026-05-02T13:02:58.329Z</time></trkpt><trkpt lat="39.2734767" lon="8.484205"><ele>129.0</ele><time>2026-05-02T13:02:59.33Z</time></trkpt><trkpt lat="39.27356" lon="8.4843167"><ele>129.0</ele><time>2026-05-02T13:03:00.328Z</time></trkpt><trkpt lat="39.2736333" lon="8.4844333"><ele>129.0</ele><time>2026-05-02T13:03:01.328Z</time></trkpt><trkpt lat="39.2737167" lon="8.4845433"><ele>129.0</ele><time>2026-05-02T13:03:02.375Z</time></trkpt><trkpt lat="39.273795" lon="8.4846633"><ele>132.5</ele><time>2026-05-02T13:03:03.33Z</time></trkpt><trkpt lat="39.27387" lon="8.4847917"><ele>136.0</ele><time>2026-05-02T13:03:04.327Z</time></trkpt><trkpt lat="39.2739483" lon="8.4849167"><ele>139.5</ele><time>2026-05-02T13:03:05.326Z</time></trkpt><trkpt lat="39.2740067" lon="8.4850317"><ele>143.0</ele><time>2026-05-02T13:03:06.328Z</time></trkpt><trkpt lat="39.2740783" lon="8.4851367"><ele>143.0</ele><time>2026-05-02T13:03:07.326Z</time></trkpt><trkpt lat="39.2741517" lon="8.48524"><ele>143.0</ele><time>2026-05-02T13:03:08.371Z</time></trkpt><trkpt lat="39.2742217" lon="8.4853417"><ele>143.0</ele><time>2026-05-02T13:03:09.325Z</time></trkpt><trkpt lat="39.2742833" lon="8.4854533"><ele>143.0</ele><time>2026-05-02T13:03:10.328Z</time></trkpt><trkpt lat="39.2743317" lon="8.4855533"><ele>143.0</ele><time>2026-05-02T13:03:11.327Z</time></trkpt><trkpt lat="39.27437" lon="8.48565"><ele>143.66666666666666</ele><time>2026-05-02T13:03:12.324Z</time></trkpt><trkpt lat="39.2743967" lon="8.485755"><ele>144.33333333333331</ele><time>2026-05-02T13:03:13.33Z</time></trkpt><trkpt lat="39.274425" lon="8.48588"><ele>145.0</ele><time>2026-05-02T13:03:14.367Z</time></trkpt><trkpt lat="39.274445" lon="8.4859983"><ele>145.66666666666666</ele><time>2026-05-02T13:03:15.328Z</time></trkpt><trkpt lat="39.2744617" lon="8.4861"><ele>146.33333333333334</ele><time>2026-05-02T13:03:16.328Z</time></trkpt><trkpt lat="39.274455" lon="8.4862033"><ele>147.0</ele><time>2026-05-02T13:03:17.324Z</time></trkpt><trkpt lat="39.2744467" lon="8.4863"><ele>149.16666666666666</ele><time>2026-05-02T13:03:18.327Z</time></trkpt><trkpt lat="39.274445" lon="8.4863917"><ele>151.33333333333334</ele><time>2026-05-02T13:03:19.326Z</time></trkpt><trkpt lat="39.2744467" lon="8.4864733"><ele>153.5</ele><time>2026-05-02T13:03:20.37Z</time></trkpt><trkpt lat="39.2744933" lon="8.486615"><ele>155.66666666666669</ele><time>2026-05-02T13:03:22.327Z</time></trkpt><trkpt lat="39.2745267" lon="8.4866933"><ele>157.83333333333334</ele><time>2026-05-02T13:03:23.323Z</time></trkpt><trkpt lat="39.2745667" lon="8.486765"><ele>160.0</ele><time>2026-05-02T13:03:24.325Z</time></trkpt><trkpt lat="39.2746033" lon="8.48684"><ele>160.0</ele><time>2026-05-02T13:03:25.329Z</time></trkpt><trkpt lat="39.27463" lon="8.4869217"><ele>160.0</ele><time>2026-05-02T13:03:26.388Z</time></trkpt><trkpt lat="39.274645" lon="8.4870117"><ele>160.0</ele><time>2026-05-02T13:03:27.329Z</time></trkpt><trkpt lat="39.2746433" lon="8.48711"><ele>160.0</ele><time>2026-05-02T13:03:28.328Z</time></trkpt><trkpt lat="39.274635" lon="8.4872117"><ele>160.0</ele><time>2026-05-02T13:03:29.329Z</time></trkpt><trkpt lat="39.2746233" lon="8.4873167"><ele>160.0</ele><time>2026-05-02T13:03:30.327Z</time></trkpt><trkpt lat="39.2746067" lon="8.487425"><ele>161.83333333333334</ele><time>2026-05-02T13:03:31.33Z</time></trkpt><trkpt lat="39.2745867" lon="8.487535"><ele>163.66666666666669</ele><time>2026-05-02T13:03:32.375Z</time></trkpt><trkpt lat="39.2745667" lon="8.487635"><ele>165.5</ele><time>2026-05-02T13:03:33.328Z</time></trkpt><trkpt lat="39.27455" lon="8.4877383"><ele>167.33333333333334</ele><time>2026-05-02T13:03:34.328Z</time></trkpt><trkpt lat="39.2745317" lon="8.48784"><ele>169.16666666666666</ele><time>2026-05-02T13:03:35.327Z</time></trkpt><trkpt lat="39.2745183" lon="8.4879417"><ele>171.0</ele><time>2026-05-02T13:03:36.324Z</time></trkpt><trkpt lat="39.2745133" lon="8.4880483"><ele>172.4</ele><time>2026-05-02T13:03:37.329Z</time></trkpt><trkpt lat="39.2745083" lon="8.4881633"><ele>173.8</ele><time>2026-05-02T13:03:38.371Z</time></trkpt><trkpt lat="39.274495" lon="8.4882917"><ele>175.20000000000002</ele><time>2026-05-02T13:03:39.325Z</time></trkpt><trkpt lat="39.2744883" lon="8.48842"><ele>176.60000000000002</ele><time>2026-05-02T13:03:40.327Z</time></trkpt><trkpt lat="39.2744883" lon="8.4885483"><ele>178.0</ele><time>2026-05-02T13:03:41.327Z</time></trkpt><trkpt lat="39.2744867" lon="8.4886817"><ele>178.2</ele><time>2026-05-02T13:03:42.329Z</time></trkpt><trkpt lat="39.27447" lon="8.4888167"><ele>178.4</ele><time>2026-05-02T13:03:43.325Z</time></trkpt><trkpt lat="39.274455" lon="8.4889433"><ele>178.6</ele><time>2026-05-02T13:03:44.366Z</time></trkpt><trkpt lat="39.2744433" lon="8.4890717"><ele>178.79999999999998</ele><time>2026-05-02T13:03:45.327Z</time></trkpt><trkpt lat="39.2744317" lon="8.4891883"><ele>179.0</ele><time>2026-05-02T13:03:46.331Z</time></trkpt><trkpt lat="39.2744217" lon="8.4893017"><ele>179.0</ele><time>2026-05-02T13:03:47.329Z</time></trkpt><trkpt lat="39.274415" lon="8.4894233"><ele>179.0</ele><time>2026-05-02T13:03:48.33Z</time></trkpt><trkpt lat="39.27441" lon="8.48955"><ele>179.0</ele><time>2026-05-02T13:03:49.329Z</time></trkpt><trkpt lat="39.27441" lon="8.48967"><ele>179.0</ele><time>2026-05-02T13:03:50.365Z</time></trkpt><trkpt lat="39.274415" lon="8.489785"><ele>179.0</ele><time>2026-05-02T13:03:51.325Z</time></trkpt><trkpt lat="39.274445" lon="8.4898883"><ele>179.83333333333331</ele><time>2026-05-02T13:03:52.326Z</time></trkpt><trkpt lat="39.2744833" lon="8.4899833"><ele>180.66666666666666</ele><time>2026-05-02T13:03:53.328Z</time></trkpt><trkpt lat="39.27453" lon="8.49007"><ele>181.5</ele><time>2026-05-02T13:03:54.331Z</time></trkpt><trkpt lat="39.274585" lon="8.4901467"><ele>182.33333333333334</ele><time>2026-05-02T13:03:55.324Z</time></trkpt><trkpt lat="39.2746433" lon="8.4902333"><ele>183.16666666666669</ele><time>2026-05-02T13:03:56.386Z</time></trkpt><trkpt lat="39.2746983" lon="8.4903267"><ele>184.0</ele><time>2026-05-02T13:03:57.326Z</time></trkpt><trkpt lat="39.2747517" lon="8.4904217"><ele>184.39999999999998</ele><time>2026-05-02T13:03:58.329Z</time></trkpt><trkpt lat="39.274815" lon="8.490525"><ele>184.8</ele><time>2026-05-02T13:03:59.325Z</time></trkpt><trkpt lat="39.2748933" lon="8.4905583"><ele>185.2</ele><time>2026-05-02T13:04:00.328Z</time></trkpt><trkpt lat="39.2749617" lon="8.4906483"><ele>185.60000000000002</ele><time>2026-05-02T13:04:01.329Z</time></trkpt><trkpt lat="39.275025" lon="8.4907317"><ele>186.0</ele><time>2026-05-02T13:04:02.377Z</time></trkpt><trkpt lat="39.2750917" lon="8.490805"><ele>186.0</ele><time>2026-05-02T13:04:03.329Z</time></trkpt><trkpt lat="39.2751533" lon="8.4908733"><ele>186.0</ele><time>2026-05-02T13:04:04.334Z</time></trkpt><trkpt lat="39.2751967" lon="8.4909867"><ele>186.0</ele><time>2026-05-02T13:04:05.329Z</time></trkpt><trkpt lat="39.2752317" lon="8.4910867"><ele>186.0</ele><time>2026-05-02T13:04:06.331Z</time></trkpt><trkpt lat="39.27527" lon="8.4912067"><ele>186.0</ele><time>2026-05-02T13:04:07.334Z</time></trkpt><trkpt lat="39.2753033" lon="8.4913383"><ele>188.20000000000002</ele><time>2026-05-02T13:04:08.368Z</time></trkpt><trkpt lat="39.2753467" lon="8.4914583"><ele>190.4</ele><time>2026-05-02T13:04:09.328Z</time></trkpt><trkpt lat="39.2753883" lon="8.49156"><ele>192.6</ele><time>2026-05-02T13:04:10.328Z</time></trkpt><trkpt lat="39.275445" lon="8.491645"><ele>194.8</ele><time>2026-05-02T13:04:11.327Z</time></trkpt><trkpt lat="39.2755117" lon="8.491725"><ele>197.0</ele><time>2026-05-02T13:04:12.33Z</time></trkpt><trkpt lat="39.2755783" lon="8.491805"><ele>196.83333333333334</ele><time>2026-05-02T13:04:13.332Z</time></trkpt><trkpt lat="39.27564" lon="8.49188"><ele>196.66666666666669</ele><time>2026-05-02T13:04:14.368Z</time></trkpt><trkpt lat="39.275695" lon="8.4919667"><ele>196.5</ele><time>2026-05-02T13:04:15.329Z</time></trkpt><trkpt lat="39.27574" lon="8.4920583"><ele>196.33333333333331</ele><time>2026-05-02T13:04:16.326Z</time></trkpt><trkpt lat="39.2757817" lon="8.49215"><ele>196.16666666666666</ele><time>2026-05-02T13:04:17.328Z</time></trkpt><trkpt lat="39.275825" lon="8.492235"><ele>196.0</ele><time>2026-05-02T13:04:18.331Z</time></trkpt><trkpt lat="39.2758717" lon="8.4923167"><ele>196.0</ele><time>2026-05-02T13:04:19.33Z</time></trkpt><trkpt lat="39.275915" lon="8.49238"><ele>196.0</ele><time>2026-05-02T13:04:20.376Z</time></trkpt><trkpt lat="39.2759933" lon="8.49249"><ele>196.0</ele><time>2026-05-02T13:04:22.333Z</time></trkpt><trkpt lat="39.2760467" lon="8.49257"><ele>196.0</ele><time>2026-05-02T13:04:24.327Z</time></trkpt><trkpt lat="39.27614" lon="8.4926567"><ele>196.0</ele><time>2026-05-02T13:08:47.328Z</time></trkpt><trkpt lat="39.27622" lon="8.492765"><ele>195.99999999999997</ele><time>2026-05-02T13:08:49.33Z</time></trkpt><trkpt lat="39.2763067" lon="8.4928133"><ele>196.0</ele><time>2026-05-02T13:08:51.329Z</time></trkpt><trkpt lat="39.2764217" lon="8.4928167"><ele>196.0</ele><time>2026-05-02T13:08:53.326Z</time></trkpt><trkpt lat="39.2764933" lon="8.492815"><ele>196.0</ele><time>2026-05-02T13:08:54.327Z</time></trkpt><trkpt lat="39.27657" lon="8.4928183"><ele>195.99999999999997</ele><time>2026-05-02T13:08:55.326Z</time></trkpt><trkpt lat="39.2766583" lon="8.492815"><ele>196.0</ele><time>2026-05-02T13:08:56.381Z</time></trkpt><trkpt lat="39.276755" lon="8.4928083"><ele>198.4</ele><time>2026-05-02T13:08:57.33Z</time></trkpt><trkpt lat="39.2768683" lon="8.492815"><ele>200.8</ele><time>2026-05-02T13:08:58.33Z</time></trkpt><trkpt lat="39.2769667" lon="8.4928183"><ele>203.20000000000002</ele><time>2026-05-02T13:08:59.33Z</time></trkpt><trkpt lat="39.2770583" lon="8.49283"><ele>205.60000000000002</ele><time>2026-05-02T13:09:00.329Z</time></trkpt><trkpt lat="39.2771517" lon="8.492855"><ele>208.0</ele><time>2026-05-02T13:09:01.328Z</time></trkpt><trkpt lat="39.27723" lon="8.4928717"><ele>207.4</ele><time>2026-05-02T13:09:02.386Z</time></trkpt><trkpt lat="39.2772983" lon="8.4928883"><ele>206.8</ele><time>2026-05-02T13:09:03.33Z</time></trkpt><trkpt lat="39.2774067" lon="8.4929283"><ele>206.2</ele><time>2026-05-02T13:09:05.327Z</time></trkpt><trkpt lat="39.27746" lon="8.4930183"><ele>205.6</ele><time>2026-05-02T13:09:07.327Z</time></trkpt><trkpt lat="39.2774317" lon="8.4931383"><ele>205.0</ele><time>2026-05-02T13:09:10.325Z</time></trkpt><trkpt lat="39.277355" lon="8.493195"><ele>204.99999999999997</ele><time>2026-05-02T13:09:12.329Z</time></trkpt><trkpt lat="39.2772933" lon="8.493215"><ele>205.0</ele><time>2026-05-02T13:09:13.327Z</time></trkpt><trkpt lat="39.277215" lon="8.493235"><ele>205.0</ele><time>2026-05-02T13:09:14.372Z</time></trkpt><trkpt lat="39.27712" lon="8.4932517"><ele>205.0</ele><time>2026-05-02T13:09:15.326Z</time></trkpt><trkpt lat="39.2770167" lon="8.4932817"><ele>204.99999999999997</ele><time>2026-05-02T13:09:16.325Z</time></trkpt><trkpt lat="39.2769167" lon="8.4933117"><ele>205.0</ele><time>2026-05-02T13:09:17.327Z</time></trkpt><trkpt lat="39.2768333" lon="8.493345"><ele>205.8</ele><time>2026-05-02T13:09:18.327Z</time></trkpt><trkpt lat="39.2767617" lon="8.49338"><ele>206.6</ele><time>2026-05-02T13:09:19.326Z</time></trkpt><trkpt lat="39.2767067" lon="8.4934217"><ele>207.39999999999998</ele><time>2026-05-02T13:09:20.373Z</time></trkpt><trkpt lat="39.2766383" lon="8.4935333"><ele>208.2</ele><time>2026-05-02T13:09:22.329Z</time></trkpt><trkpt lat="39.2766083" lon="8.4937017"><ele>209.0</ele><time>2026-05-02T13:09:24.325Z</time></trkpt><trkpt lat="39.2766033" lon="8.4938083"><ele>209.0</ele><time>2026-05-02T13:09:25.328Z</time></trkpt><trkpt lat="39.2765933" lon="8.4939183"><ele>209.0</ele><time>2026-05-02T13:09:26.381Z</time></trkpt><trkpt lat="39.27658" lon="8.49404"><ele>209.0</ele><time>2026-05-02T13:09:27.327Z</time></trkpt><trkpt lat="39.2765733" lon="8.4941883"><ele>209.0</ele><time>2026-05-02T13:09:28.324Z</time></trkpt><trkpt lat="39.276535" lon="8.494345"><ele>209.0</ele><time>2026-05-02T13:09:29.324Z</time></trkpt><trkpt lat="39.2764767" lon="8.4944967"><ele>209.0</ele><time>2026-05-02T13:09:30.325Z</time></trkpt><trkpt lat="39.276435" lon="8.4946433"><ele>209.0</ele><time>2026-05-02T13:09:31.325Z</time></trkpt><trkpt lat="39.276395" lon="8.4947883"><ele>209.0</ele><time>2026-05-02T13:09:32.379Z</time></trkpt><trkpt lat="39.27636" lon="8.4949317"><ele>209.0</ele><time>2026-05-02T13:09:33.326Z</time></trkpt><trkpt lat="39.2763183" lon="8.4950783"><ele>209.0</ele><time>2026-05-02T13:09:34.326Z</time></trkpt><trkpt lat="39.2762817" lon="8.4952233"><ele>209.0</ele><time>2026-05-02T13:09:35.324Z</time></trkpt><trkpt lat="39.2762533" lon="8.495355"><ele>209.0</ele><time>2026-05-02T13:09:36.325Z</time></trkpt><trkpt lat="39.2762233" lon="8.495485"><ele>209.0</ele><time>2026-05-02T13:09:37.328Z</time></trkpt><trkpt lat="39.2762" lon="8.495605"><ele>209.0</ele><time>2026-05-02T13:09:38.375Z</time></trkpt><trkpt lat="39.2761783" lon="8.4957233"><ele>209.33333333333334</ele><time>2026-05-02T13:09:39.325Z</time></trkpt><trkpt lat="39.2761733" lon="8.4958367"><ele>209.66666666666669</ele><time>2026-05-02T13:09:40.327Z</time></trkpt><trkpt lat="39.276185" lon="8.4959417"><ele>210.0</ele><time>2026-05-02T13:09:41.327Z</time></trkpt><trkpt lat="39.2762033" lon="8.49604"><ele>210.33333333333331</ele><time>2026-05-02T13:09:42.33Z</time></trkpt><trkpt lat="39.2762167" lon="8.4961333"><ele>210.66666666666666</ele><time>2026-05-02T13:09:43.328Z</time></trkpt><trkpt lat="39.2762267" lon="8.4962267"><ele>211.0</ele><time>2026-05-02T13:09:44.374Z</time></trkpt><trkpt lat="39.2762267" lon="8.4963183"><ele>211.14285714285714</ele><time>2026-05-02T13:09:45.325Z</time></trkpt><trkpt lat="39.2762183" lon="8.4964117"><ele>211.28571428571428</ele><time>2026-05-02T13:09:46.326Z</time></trkpt><trkpt lat="39.2762083" lon="8.4965017"><ele>211.42857142857144</ele><time>2026-05-02T13:09:47.333Z</time></trkpt><trkpt lat="39.27621" lon="8.4965883"><ele>211.57142857142856</ele><time>2026-05-02T13:09:48.326Z</time></trkpt><trkpt lat="39.2762283" lon="8.4966683"><ele>211.7142857142857</ele><time>2026-05-02T13:09:49.328Z</time></trkpt><trkpt lat="39.27626" lon="8.49675"><ele>211.85714285714286</ele><time>2026-05-02T13:09:50.377Z</time></trkpt><trkpt lat="39.27631" lon="8.4968167"><ele>212.0</ele><time>2026-05-02T13:09:51.327Z</time></trkpt><trkpt lat="39.2763633" lon="8.4968833"><ele>212.0</ele><time>2026-05-02T13:09:52.331Z</time></trkpt><trkpt lat="39.2764033" lon="8.4969567"><ele>212.0</ele><time>2026-05-02T13:09:53.33Z</time></trkpt><trkpt lat="39.27644" lon="8.49711"><ele>212.0</ele><time>2026-05-02T13:09:55.328Z</time></trkpt><trkpt lat="39.276395" lon="8.4972717"><ele>212.0</ele><time>2026-05-02T13:09:57.331Z</time></trkpt><trkpt lat="39.2763683" lon="8.497375"><ele>212.0</ele><time>2026-05-02T13:09:58.33Z</time></trkpt><trkpt lat="39.2763433" lon="8.4974883"><ele>212.6</ele><time>2026-05-02T13:09:59.326Z</time></trkpt><trkpt lat="39.2763217" lon="8.4976117"><ele>213.2</ele><time>2026-05-02T13:10:00.329Z</time></trkpt><trkpt lat="39.2762933" lon="8.4977567"><ele>213.8</ele><time>2026-05-02T13:10:01.327Z</time></trkpt><trkpt lat="39.2763" lon="8.497915"><ele>214.4</ele><time>2026-05-02T13:10:02.384Z</time></trkpt><trkpt lat="39.2762833" lon="8.4980517"><ele>215.0</ele><time>2026-05-02T13:10:03.327Z</time></trkpt><trkpt lat="39.27627" lon="8.498165"><ele>215.0</ele><time>2026-05-02T13:10:04.328Z</time></trkpt><trkpt lat="39.2762583" lon="8.49827"><ele>215.0</ele><time>2026-05-02T13:10:05.328Z</time></trkpt><trkpt lat="39.2762383" lon="8.4983633"><ele>215.0</ele><time>2026-05-02T13:10:06.33Z</time></trkpt><trkpt lat="39.2762133" lon="8.49845"><ele>215.0</ele><time>2026-05-02T13:10:07.328Z</time></trkpt><trkpt lat="39.2761867" lon="8.4985333"><ele>215.0</ele><time>2026-05-02T13:10:08.379Z</time></trkpt><trkpt lat="39.2761667" lon="8.4986217"><ele>215.0</ele><time>2026-05-02T13:10:09.33Z</time></trkpt><trkpt lat="39.2761567" lon="8.4987167"><ele>215.0</ele><time>2026-05-02T13:10:10.329Z</time></trkpt><trkpt lat="39.2761483" lon="8.4988217"><ele>216.0</ele><time>2026-05-02T13:10:11.328Z</time></trkpt><trkpt lat="39.2761467" lon="8.4989267"><ele>217.0</ele><time>2026-05-02T13:10:12.327Z</time></trkpt><trkpt lat="39.2761517" lon="8.4990367"><ele>218.0</ele><time>2026-05-02T13:10:13.328Z</time></trkpt><trkpt lat="39.27616" lon="8.4991533"><ele>219.0</ele><time>2026-05-02T13:10:14.377Z</time></trkpt><trkpt lat="39.2761733" lon="8.4992783"><ele>220.0</ele><time>2026-05-02T13:10:15.328Z</time></trkpt><trkpt lat="39.2761867" lon="8.49941"><ele>220.0</ele><time>2026-05-02T13:10:16.323Z</time></trkpt><trkpt lat="39.2762033" lon="8.4995417"><ele>220.0</ele><time>2026-05-02T13:10:17.326Z</time></trkpt><trkpt lat="39.27622" lon="8.4996733"><ele>220.0</ele><time>2026-05-02T13:10:18.329Z</time></trkpt><trkpt lat="39.2762383" lon="8.4998117"><ele>220.0</ele><time>2026-05-02T13:10:19.325Z</time></trkpt><trkpt lat="39.276255" lon="8.4999517"><ele>220.0</ele><time>2026-05-02T13:10:20.373Z</time></trkpt><trkpt lat="39.2762733" lon="8.50009"><ele>221.75</ele><time>2026-05-02T13:10:21.329Z</time></trkpt><trkpt lat="39.2762917" lon="8.5002283"><ele>223.5</ele><time>2026-05-02T13:10:22.327Z</time></trkpt><trkpt lat="39.2763117" lon="8.5003717"><ele>225.25</ele><time>2026-05-02T13:10:23.327Z</time></trkpt><trkpt lat="39.2763333" lon="8.5005167"><ele>227.0</ele><time>2026-05-02T13:10:24.325Z</time></trkpt><trkpt lat="39.276355" lon="8.500665"><ele>228.0</ele><time>2026-05-02T13:10:25.326Z</time></trkpt><trkpt lat="39.2763767" lon="8.50082"><ele>229.0</ele><time>2026-05-02T13:10:26.385Z</time></trkpt><trkpt lat="39.2764067" lon="8.5009383"><ele>230.0</ele><time>2026-05-02T13:10:27.326Z</time></trkpt><trkpt lat="39.27642" lon="8.5010717"><ele>231.0</ele><time>2026-05-02T13:10:28.324Z</time></trkpt><trkpt lat="39.27644" lon="8.5011933"><ele>232.0</ele><time>2026-05-02T13:10:29.324Z</time></trkpt><trkpt lat="39.2764633" lon="8.50132"><ele>232.66666666666666</ele><time>2026-05-02T13:10:30.324Z</time></trkpt><trkpt lat="39.27647" lon="8.5014233"><ele>233.33333333333331</ele><time>2026-05-02T13:10:31.326Z</time></trkpt><trkpt lat="39.2764433" lon="8.5015683"><ele>234.0</ele><time>2026-05-02T13:10:33.328Z</time></trkpt><trkpt lat="39.2764133" lon="8.5016483"><ele>234.66666666666669</ele><time>2026-05-02T13:10:35.326Z</time></trkpt><trkpt lat="39.27642" lon="8.50176"><ele>235.33333333333334</ele><time>2026-05-02T13:10:39.325Z</time></trkpt><trkpt lat="39.2764433" lon="8.5018817"><ele>236.0</ele><time>2026-05-02T13:10:41.324Z</time></trkpt><trkpt lat="39.2765033" lon="8.50203"><ele>236.71428571428572</ele><time>2026-05-02T13:10:43.327Z</time></trkpt><trkpt lat="39.2765433" lon="8.5021067"><ele>237.42857142857144</ele><time>2026-05-02T13:10:44.375Z</time></trkpt><trkpt lat="39.27658" lon="8.5021833"><ele>238.14285714285717</ele><time>2026-05-02T13:10:45.327Z</time></trkpt><trkpt lat="39.2766133" lon="8.502255"><ele>238.85714285714286</ele><time>2026-05-02T13:10:46.329Z</time></trkpt><trkpt lat="39.2766383" lon="8.5023617"><ele>239.5714285714286</ele><time>2026-05-02T13:10:48.328Z</time></trkpt><trkpt lat="39.2765867" lon="8.5024267"><ele>240.2857142857143</ele><time>2026-05-02T13:10:51.325Z</time></trkpt><trkpt lat="39.27652" lon="8.5023767"><ele>241.0</ele><time>2026-05-02T13:10:53.326Z</time></trkpt><trkpt lat="39.2764367" lon="8.5022517"><ele>240.4</ele><time>2026-05-02T13:10:55.327Z</time></trkpt><trkpt lat="39.2763767" lon="8.5021733"><ele>239.8</ele><time>2026-05-02T13:10:56.357Z</time></trkpt><trkpt lat="39.2763017" lon="8.5020967"><ele>239.20000000000002</ele><time>2026-05-02T13:10:57.328Z</time></trkpt><trkpt lat="39.2762167" lon="8.5020433"><ele>238.60000000000002</ele><time>2026-05-02T13:10:58.332Z</time></trkpt><trkpt lat="39.27613" lon="8.5019933"><ele>238.0</ele><time>2026-05-02T13:10:59.329Z</time></trkpt><trkpt lat="39.2760383" lon="8.50195"><ele>238.0</ele><time>2026-05-02T13:11:00.326Z</time></trkpt><trkpt lat="39.2759383" lon="8.50191"><ele>238.0</ele><time>2026-05-02T13:11:01.324Z</time></trkpt><trkpt lat="39.2758217" lon="8.5018567"><ele>238.0</ele><time>2026-05-02T13:11:02.375Z</time></trkpt><trkpt lat="39.2757183" lon="8.501825"><ele>238.0</ele><time>2026-05-02T13:11:03.324Z</time></trkpt><trkpt lat="39.2756317" lon="8.5018017"><ele>238.0</ele><time>2026-05-02T13:11:04.326Z</time></trkpt><trkpt lat="39.275545" lon="8.5017683"><ele>238.99999999999997</ele><time>2026-05-02T13:11:05.326Z</time></trkpt><trkpt lat="39.275475" lon="8.5017467"><ele>240.0</ele><time>2026-05-02T13:11:06.327Z</time></trkpt><trkpt lat="39.27541" lon="8.5017317"><ele>241.0</ele><time>2026-05-02T13:11:07.327Z</time></trkpt><trkpt lat="39.2753483" lon="8.501715"><ele>242.0</ele><time>2026-05-02T13:11:08.374Z</time></trkpt><trkpt lat="39.2752317" lon="8.501685"><ele>242.99999999999997</ele><time>2026-05-02T13:11:10.334Z</time></trkpt><trkpt lat="39.2751483" lon="8.5016683"><ele>244.0</ele><time>2026-05-02T13:11:12.327Z</time></trkpt><trkpt lat="39.2750717" lon="8.5016917"><ele>243.99999999999997</ele><time>2026-05-02T13:11:15.327Z</time></trkpt><trkpt lat="39.2750183" lon="8.501775"><ele>244.0</ele><time>2026-05-02T13:11:18.325Z</time></trkpt><trkpt lat="39.2749667" lon="8.5019017"><ele>244.0</ele><time>2026-05-02T13:11:56.377Z</time></trkpt><trkpt lat="39.274905" lon="8.501975"><ele>244.0</ele><time>2026-05-02T13:11:59.326Z</time></trkpt><trkpt lat="39.2748483" lon="8.5020567"><ele>243.99999999999997</ele><time>2026-05-02T13:12:02.372Z</time></trkpt><trkpt lat="39.274785" lon="8.5021283"><ele>244.0</ele><time>2026-05-02T13:12:05.323Z</time></trkpt><trkpt lat="39.27471" lon="8.5022"><ele>242.99999999999997</ele><time>2026-05-02T13:12:08.373Z</time></trkpt><trkpt lat="39.27465" lon="8.5022517"><ele>242.0</ele><time>2026-05-02T13:12:10.325Z</time></trkpt><trkpt lat="39.274595" lon="8.5023"><ele>241.0</ele><time>2026-05-02T13:12:12.328Z</time></trkpt><trkpt lat="39.2745333" lon="8.5023633"><ele>240.0</ele><time>2026-05-02T13:12:15.326Z</time></trkpt><trkpt lat="39.2744833" lon="8.50243"><ele>238.99999999999997</ele><time>2026-05-02T13:12:19.326Z</time></trkpt><trkpt lat="39.2744383" lon="8.5025683"><ele>238.0</ele><time>2026-05-02T13:12:36.326Z</time></trkpt><trkpt lat="39.274395" lon="8.5026683"><ele>237.99999999999997</ele><time>2026-05-02T13:12:38.375Z</time></trkpt><trkpt lat="39.2743483" lon="8.5027583"><ele>238.0</ele><time>2026-05-02T13:12:40.326Z</time></trkpt><trkpt lat="39.2742933" lon="8.5028217"><ele>238.0</ele><time>2026-05-02T13:12:42.326Z</time></trkpt><trkpt lat="39.27423" lon="8.502855"><ele>238.0</ele><time>2026-05-02T13:12:44.375Z</time></trkpt><trkpt lat="39.2741633" lon="8.502845"><ele>237.99999999999997</ele><time>2026-05-02T13:12:46.326Z</time></trkpt><trkpt lat="39.2741017" lon="8.502795"><ele>238.0</ele><time>2026-05-02T13:12:48.326Z</time></trkpt><trkpt lat="39.2740367" lon="8.50272"><ele>238.0</ele><time>2026-05-02T13:12:50.374Z</time></trkpt><trkpt lat="39.273975" lon="8.5026183"><ele>238.0</ele><time>2026-05-02T13:12:52.326Z</time></trkpt><trkpt lat="39.2739" lon="8.5025017"><ele>238.0</ele><time>2026-05-02T13:12:54.324Z</time></trkpt><trkpt lat="39.2738617" lon="8.502435"><ele>238.0</ele><time>2026-05-02T13:12:55.326Z</time></trkpt><trkpt lat="39.2738217" lon="8.5023717"><ele>238.0</ele><time>2026-05-02T13:12:56.379Z</time></trkpt><trkpt lat="39.2737417" lon="8.502275"><ele>236.60000000000002</ele><time>2026-05-02T13:12:58.324Z</time></trkpt><trkpt lat="39.2736733" lon="8.50221"><ele>235.20000000000002</ele><time>2026-05-02T13:13:00.322Z</time></trkpt><trkpt lat="39.2735933" lon="8.5021167"><ele>233.8</ele><time>2026-05-02T13:14:07.325Z</time></trkpt><trkpt lat="39.2736267" lon="8.5021933"><ele>232.4</ele><time>2026-05-02T13:14:16.325Z</time></trkpt><trkpt lat="39.27373" lon="8.5022883"><ele>231.0</ele><time>2026-05-02T13:14:18.324Z</time></trkpt><trkpt lat="39.2737867" lon="8.5023517"><ele>231.0</ele><time>2026-05-02T13:14:19.329Z</time></trkpt><trkpt lat="39.273845" lon="8.5024233"><ele>231.0</ele><time>2026-05-02T13:14:20.373Z</time></trkpt><trkpt lat="39.273905" lon="8.5025017"><ele>231.0</ele><time>2026-05-02T13:14:21.327Z</time></trkpt><trkpt lat="39.2739617" lon="8.5025833"><ele>231.0</ele><time>2026-05-02T13:14:22.327Z</time></trkpt><trkpt lat="39.27402" lon="8.502655"><ele>231.0</ele><time>2026-05-02T13:14:23.324Z</time></trkpt><trkpt lat="39.2740783" lon="8.50272"><ele>231.0</ele><time>2026-05-02T13:14:24.327Z</time></trkpt><trkpt lat="39.2741317" lon="8.5027733"><ele>232.16666666666666</ele><time>2026-05-02T13:14:25.328Z</time></trkpt><trkpt lat="39.2742283" lon="8.5028433"><ele>233.33333333333331</ele><time>2026-05-02T13:14:27.326Z</time></trkpt><trkpt lat="39.2743133" lon="8.5028683"><ele>234.5</ele><time>2026-05-02T13:14:29.328Z</time></trkpt><trkpt lat="39.2743733" lon="8.5028317"><ele>235.66666666666666</ele><time>2026-05-02T13:14:31.325Z</time></trkpt><trkpt lat="39.2744333" lon="8.5027317"><ele>236.83333333333331</ele><time>2026-05-02T13:14:33.327Z</time></trkpt><trkpt lat="39.274475" lon="8.5026517"><ele>238.0</ele><time>2026-05-02T13:14:34.325Z</time></trkpt><trkpt lat="39.274515" lon="8.5025783"><ele>237.99999999999997</ele><time>2026-05-02T13:14:35.325Z</time></trkpt><trkpt lat="39.274555" lon="8.5024917"><ele>238.0</ele><time>2026-05-02T13:14:36.325Z</time></trkpt><trkpt lat="39.2745917" lon="8.5024167"><ele>238.0</ele><time>2026-05-02T13:14:37.326Z</time></trkpt><trkpt lat="39.2746283" lon="8.5023483"><ele>238.0</ele><time>2026-05-02T13:14:38.374Z</time></trkpt><trkpt lat="39.274715" lon="8.502245"><ele>237.99999999999997</ele><time>2026-05-02T13:14:40.325Z</time></trkpt><trkpt lat="39.274805" lon="8.5021533"><ele>238.0</ele><time>2026-05-02T13:14:42.327Z</time></trkpt><trkpt lat="39.274865" lon="8.5021"><ele>239.2</ele><time>2026-05-02T13:14:44.376Z</time></trkpt><trkpt lat="39.27491" lon="8.5019917"><ele>240.4</ele><time>2026-05-02T13:15:45.324Z</time></trkpt><trkpt lat="39.2749767" lon="8.5019117"><ele>241.59999999999997</ele><time>2026-05-02T13:15:47.328Z</time></trkpt><trkpt lat="39.2750617" lon="8.501815"><ele>242.79999999999998</ele><time>2026-05-02T13:15:49.324Z</time></trkpt><trkpt lat="39.2751467" lon="8.5017217"><ele>244.0</ele><time>2026-05-02T13:15:51.33Z</time></trkpt><trkpt lat="39.2752267" lon="8.501655"><ele>244.0</ele><time>2026-05-02T13:15:53.328Z</time></trkpt><trkpt lat="39.2753183" lon="8.501635"><ele>243.99999999999997</ele><time>2026-05-02T13:15:55.324Z</time></trkpt><trkpt lat="39.2754117" lon="8.5016333"><ele>243.99999999999997</ele><time>2026-05-02T13:15:57.326Z</time></trkpt><trkpt lat="39.2755183" lon="8.5016367"><ele>244.0</ele><time>2026-05-02T13:15:59.327Z</time></trkpt><trkpt lat="39.27564" lon="8.5016283"><ele>244.0</ele><time>2026-05-02T13:16:01.366Z</time></trkpt><trkpt lat="39.2757667" lon="8.5016517"><ele>242.99999999999997</ele><time>2026-05-02T13:16:03.326Z</time></trkpt><trkpt lat="39.275835" lon="8.5016733"><ele>242.0</ele><time>2026-05-02T13:16:04.329Z</time></trkpt><trkpt lat="39.275905" lon="8.5016917"><ele>241.0</ele><time>2026-05-02T13:16:05.332Z</time></trkpt><trkpt lat="39.2759733" lon="8.501705"><ele>240.0</ele><time>2026-05-02T13:16:06.33Z</time></trkpt><trkpt lat="39.2760383" lon="8.5017167"><ele>238.99999999999997</ele><time>2026-05-02T13:16:07.326Z</time></trkpt><trkpt lat="39.2761" lon="8.5017333"><ele>238.0</ele><time>2026-05-02T13:16:08.377Z</time></trkpt><trkpt lat="39.27621" lon="8.50178"><ele>238.0</ele><time>2026-05-02T13:16:10.325Z</time></trkpt><trkpt lat="39.276305" lon="8.5018583"><ele>238.0</ele><time>2026-05-02T13:16:12.327Z</time></trkpt><trkpt lat="39.2763883" lon="8.50196"><ele>238.0</ele><time>2026-05-02T13:16:14.375Z</time></trkpt><trkpt lat="39.2764283" lon="8.5020233"><ele>238.0</ele><time>2026-05-02T13:16:15.325Z</time></trkpt><trkpt lat="39.2765117" lon="8.50214"><ele>238.0</ele><time>2026-05-02T13:16:17.326Z</time></trkpt><trkpt lat="39.276595" lon="8.5022283"><ele>238.49999999999997</ele><time>2026-05-02T13:16:19.328Z</time></trkpt><trkpt lat="39.2766733" lon="8.5023"><ele>239.0</ele><time>2026-05-02T13:16:21.326Z</time></trkpt><trkpt lat="39.276725" lon="8.5023933"><ele>239.5</ele><time>2026-05-02T13:16:23.325Z</time></trkpt><trkpt lat="39.2767617" lon="8.5025417"><ele>240.0</ele><time>2026-05-02T13:16:25.327Z</time></trkpt><trkpt lat="39.2767783" lon="8.5026233"><ele>240.49999999999997</ele><time>2026-05-02T13:16:26.381Z</time></trkpt><trkpt lat="39.2767967" lon="8.502715"><ele>241.0</ele><time>2026-05-02T13:16:27.327Z</time></trkpt><trkpt lat="39.2768167" lon="8.502815"><ele>242.4</ele><time>2026-05-02T13:16:28.327Z</time></trkpt><trkpt lat="39.2768317" lon="8.502935"><ele>243.8</ele><time>2026-05-02T13:16:29.327Z</time></trkpt><trkpt lat="39.2768483" lon="8.5031833"><ele>245.20000000000002</ele><time>2026-05-02T13:16:31.327Z</time></trkpt><trkpt lat="39.2768633" lon="8.5032783"><ele>246.60000000000002</ele><time>2026-05-02T13:16:32.377Z</time></trkpt><trkpt lat="39.276875" lon="8.5033667"><ele>248.0</ele><time>2026-05-02T13:16:33.326Z</time></trkpt><trkpt lat="39.2768933" lon="8.50346"><ele>248.00000000000003</ele><time>2026-05-02T13:16:34.325Z</time></trkpt><trkpt lat="39.2769533" lon="8.5035833"><ele>248.0</ele><time>2026-05-02T13:16:36.326Z</time></trkpt><trkpt lat="39.2769917" lon="8.5036533"><ele>248.0</ele><time>2026-05-02T13:16:37.325Z</time></trkpt><trkpt lat="39.2770433" lon="8.5037167"><ele>248.0</ele><time>2026-05-02T13:16:38.372Z</time></trkpt><trkpt lat="39.2771033" lon="8.5037733"><ele>248.00000000000003</ele><time>2026-05-02T13:16:39.322Z</time></trkpt><trkpt lat="39.27717" lon="8.50383"><ele>248.0</ele><time>2026-05-02T13:16:40.325Z</time></trkpt><trkpt lat="39.27724" lon="8.5038933"><ele>249.33333333333334</ele><time>2026-05-02T13:16:41.326Z</time></trkpt><trkpt lat="39.2773033" lon="8.5039517"><ele>250.66666666666669</ele><time>2026-05-02T13:16:42.326Z</time></trkpt><trkpt lat="39.2773617" lon="8.504015"><ele>252.0</ele><time>2026-05-02T13:16:43.326Z</time></trkpt><trkpt lat="39.2774067" lon="8.5040933"><ele>253.33333333333331</ele><time>2026-05-02T13:16:44.373Z</time></trkpt><trkpt lat="39.277455" lon="8.5041917"><ele>254.66666666666666</ele><time>2026-05-02T13:16:45.326Z</time></trkpt><trkpt lat="39.277495" lon="8.5042767"><ele>256.0</ele><time>2026-05-02T13:16:46.323Z</time></trkpt><trkpt lat="39.2775283" lon="8.5043667"><ele>256.0</ele><time>2026-05-02T13:16:47.326Z</time></trkpt><trkpt lat="39.2775517" lon="8.5044733"><ele>256.0</ele><time>2026-05-02T13:16:48.326Z</time></trkpt><trkpt lat="39.27757" lon="8.50459"><ele>256.0</ele><time>2026-05-02T13:16:49.327Z</time></trkpt><trkpt lat="39.2775867" lon="8.5047117"><ele>256.0</ele><time>2026-05-02T13:16:50.37Z</time></trkpt><trkpt lat="39.277605" lon="8.5048367"><ele>256.0</ele><time>2026-05-02T13:16:51.325Z</time></trkpt><trkpt lat="39.2776" lon="8.50496"><ele>256.16666666666663</ele><time>2026-05-02T13:16:52.326Z</time></trkpt><trkpt lat="39.2776233" lon="8.5050667"><ele>256.3333333333333</ele><time>2026-05-02T13:16:53.327Z</time></trkpt><trkpt lat="39.277645" lon="8.5051517"><ele>256.5</ele><time>2026-05-02T13:16:54.327Z</time></trkpt><trkpt lat="39.2776733" lon="8.5052333"><ele>256.6666666666667</ele><time>2026-05-02T13:16:55.324Z</time></trkpt><trkpt lat="39.27772" lon="8.505355"><ele>256.83333333333337</ele><time>2026-05-02T13:16:57.328Z</time></trkpt><trkpt lat="39.2777417" lon="8.5054367"><ele>257.0</ele><time>2026-05-02T13:16:59.326Z</time></trkpt><trkpt lat="39.27772" lon="8.5055633"><ele>257.2</ele><time>2026-05-02T13:17:06.326Z</time></trkpt><trkpt lat="39.2776583" lon="8.5056483"><ele>257.4</ele><time>2026-05-02T13:17:08.375Z</time></trkpt><trkpt lat="39.2775433" lon="8.50571"><ele>257.6</ele><time>2026-05-02T13:17:10.326Z</time></trkpt><trkpt lat="39.2774667" lon="8.5057067"><ele>257.8</ele><time>2026-05-02T13:17:11.324Z</time></trkpt><trkpt lat="39.2773783" lon="8.505685"><ele>258.0</ele><time>2026-05-02T13:17:12.326Z</time></trkpt><trkpt lat="39.27729" lon="8.5056633"><ele>259.1666666666667</ele><time>2026-05-02T13:17:13.324Z</time></trkpt><trkpt lat="39.2772" lon="8.5056467"><ele>260.3333333333333</ele><time>2026-05-02T13:17:14.373Z</time></trkpt><trkpt lat="39.2771067" lon="8.5056267"><ele>261.5</ele><time>2026-05-02T13:17:15.323Z</time></trkpt><trkpt lat="39.27702" lon="8.5056"><ele>262.66666666666663</ele><time>2026-05-02T13:17:16.326Z</time></trkpt><trkpt lat="39.2769367" lon="8.5055717"><ele>263.8333333333333</ele><time>2026-05-02T13:17:17.325Z</time></trkpt><trkpt lat="39.2768567" lon="8.5055383"><ele>265.0</ele><time>2026-05-02T13:17:18.322Z</time></trkpt><trkpt lat="39.2767733" lon="8.5055033"><ele>265.0</ele><time>2026-05-02T13:17:19.324Z</time></trkpt><trkpt lat="39.2766883" lon="8.5054633"><ele>265.0</ele><time>2026-05-02T13:17:20.374Z</time></trkpt><trkpt lat="39.2766083" lon="8.5054183"><ele>265.0</ele><time>2026-05-02T13:17:21.327Z</time></trkpt><trkpt lat="39.2765367" lon="8.5053717"><ele>265.0</ele><time>2026-05-02T13:17:22.323Z</time></trkpt><trkpt lat="39.2764683" lon="8.5053233"><ele>265.0</ele><time>2026-05-02T13:17:23.326Z</time></trkpt><trkpt lat="39.2763983" lon="8.50527"><ele>265.0</ele><time>2026-05-02T13:17:24.328Z</time></trkpt><trkpt lat="39.2763333" lon="8.5052283"><ele>265.16666666666663</ele><time>2026-05-02T13:17:25.323Z</time></trkpt><trkpt lat="39.2762683" lon="8.5051983"><ele>265.3333333333333</ele><time>2026-05-02T13:17:26.382Z</time></trkpt><trkpt lat="39.2761717" lon="8.5051817"><ele>265.5</ele><time>2026-05-02T13:17:28.329Z</time></trkpt><trkpt lat="39.276115" lon="8.5052367"><ele>265.6666666666667</ele><time>2026-05-02T13:17:31.325Z</time></trkpt><trkpt lat="39.27614" lon="8.505315"><ele>265.83333333333337</ele><time>2026-05-02T13:17:33.326Z</time></trkpt><trkpt lat="39.2762" lon="8.5054417"><ele>266.0</ele><time>2026-05-02T13:17:35.323Z</time></trkpt><trkpt lat="39.27626" lon="8.5055933"><ele>266.0</ele><time>2026-05-02T13:17:37.323Z</time></trkpt><trkpt lat="39.2762933" lon="8.5056817"><ele>266.0</ele><time>2026-05-02T13:17:38.37Z</time></trkpt><trkpt lat="39.2763217" lon="8.5057833"><ele>266.0</ele><time>2026-05-02T13:17:39.325Z</time></trkpt><trkpt lat="39.2763467" lon="8.505895"><ele>266.0</ele><time>2026-05-02T13:17:40.325Z</time></trkpt><trkpt lat="39.2763833" lon="8.50602"><ele>266.0</ele><time>2026-05-02T13:17:41.323Z</time></trkpt><trkpt lat="39.2764117" lon="8.5061733"><ele>266.5</ele><time>2026-05-02T13:17:42.324Z</time></trkpt><trkpt lat="39.2764383" lon="8.5063033"><ele>267.0</ele><time>2026-05-02T13:17:43.326Z</time></trkpt><trkpt lat="39.2764817" lon="8.5064383"><ele>267.5</ele><time>2026-05-02T13:17:44.371Z</time></trkpt><trkpt lat="39.27654" lon="8.5065833"><ele>268.0</ele><time>2026-05-02T13:17:45.322Z</time></trkpt><trkpt lat="39.2766083" lon="8.5067083"><ele>268.0</ele><time>2026-05-02T13:17:46.324Z</time></trkpt><trkpt lat="39.276675" lon="8.5068433"><ele>268.0</ele><time>2026-05-02T13:17:47.324Z</time></trkpt><trkpt lat="39.276735" lon="8.5069567"><ele>268.0</ele><time>2026-05-02T13:17:48.324Z</time></trkpt><trkpt lat="39.27679" lon="8.507105"><ele>268.0</ele><time>2026-05-02T13:17:49.326Z</time></trkpt><trkpt lat="39.2768433" lon="8.50724"><ele>268.6</ele><time>2026-05-02T13:17:50.372Z</time></trkpt><trkpt lat="39.276905" lon="8.5073767"><ele>269.20000000000005</ele><time>2026-05-02T13:17:51.328Z</time></trkpt><trkpt lat="39.2769367" lon="8.5074967"><ele>269.8</ele><time>2026-05-02T13:17:52.327Z</time></trkpt><trkpt lat="39.2769683" lon="8.5076383"><ele>270.40000000000003</ele><time>2026-05-02T13:17:53.325Z</time></trkpt><trkpt lat="39.2770133" lon="8.50776"><ele>271.0</ele><time>2026-05-02T13:17:54.328Z</time></trkpt><trkpt lat="39.2770467" lon="8.50787"><ele>271.0</ele><time>2026-05-02T13:17:55.328Z</time></trkpt><trkpt lat="39.2770683" lon="8.5080083"><ele>271.0</ele><time>2026-05-02T13:17:56.376Z</time></trkpt><trkpt lat="39.2770733" lon="8.5081367"><ele>271.0</ele><time>2026-05-02T13:17:57.324Z</time></trkpt><trkpt lat="39.2770833" lon="8.50827"><ele>271.0</ele><time>2026-05-02T13:17:58.329Z</time></trkpt><trkpt lat="39.2770733" lon="8.5084"><ele>271.0</ele><time>2026-05-02T13:17:59.323Z</time></trkpt><trkpt lat="39.2770567" lon="8.5085033"><ele>271.0</ele><time>2026-05-02T13:18:00.326Z</time></trkpt><trkpt lat="39.2770517" lon="8.5085967"><ele>271.0</ele><time>2026-05-02T13:18:01.325Z</time></trkpt><trkpt lat="39.2770417" lon="8.5087"><ele>271.0</ele><time>2026-05-02T13:18:02.374Z</time></trkpt><trkpt lat="39.2770283" lon="8.5087917"><ele>271.0</ele><time>2026-05-02T13:18:03.324Z</time></trkpt><trkpt lat="39.2770267" lon="8.5088867"><ele>271.0</ele><time>2026-05-02T13:18:04.325Z</time></trkpt><trkpt lat="39.2770383" lon="8.508985"><ele>271.0</ele><time>2026-05-02T13:18:05.325Z</time></trkpt><trkpt lat="39.2770617" lon="8.5090933"><ele>270.25</ele><time>2026-05-02T13:18:06.328Z</time></trkpt><trkpt lat="39.2770933" lon="8.5092067"><ele>269.5</ele><time>2026-05-02T13:18:07.327Z</time></trkpt><trkpt lat="39.2771233" lon="8.5093717"><ele>268.75</ele><time>2026-05-02T13:18:08.37Z</time></trkpt><trkpt lat="39.2771767" lon="8.5095117"><ele>268.0</ele><time>2026-05-02T13:18:09.326Z</time></trkpt><trkpt lat="39.2772333" lon="8.5096333"><ele>267.6</ele><time>2026-05-02T13:18:10.325Z</time></trkpt><trkpt lat="39.277295" lon="8.5097367"><ele>267.20000000000005</ele><time>2026-05-02T13:18:11.325Z</time></trkpt><trkpt lat="39.277365" lon="8.50984"><ele>266.8</ele><time>2026-05-02T13:18:12.325Z</time></trkpt><trkpt lat="39.27743" lon="8.5099433"><ele>266.40000000000003</ele><time>2026-05-02T13:18:13.324Z</time></trkpt><trkpt lat="39.277495" lon="8.51004"><ele>266.0</ele><time>2026-05-02T13:18:14.373Z</time></trkpt><trkpt lat="39.2775617" lon="8.510115"><ele>266.0</ele><time>2026-05-02T13:18:15.324Z</time></trkpt><trkpt lat="39.277635" lon="8.5101883"><ele>266.0</ele><time>2026-05-02T13:18:16.326Z</time></trkpt><trkpt lat="39.277705" lon="8.510245"><ele>266.0</ele><time>2026-05-02T13:18:17.327Z</time></trkpt><trkpt lat="39.2777683" lon="8.5102933"><ele>266.0</ele><time>2026-05-02T13:18:18.325Z</time></trkpt><trkpt lat="39.2778267" lon="8.5103433"><ele>266.0</ele><time>2026-05-02T13:18:19.327Z</time></trkpt><trkpt lat="39.277875" lon="8.5103983"><ele>266.0</ele><time>2026-05-02T13:18:20.374Z</time></trkpt><trkpt lat="39.2779417" lon="8.5105267"><ele>265.0</ele><time>2026-05-02T13:18:22.325Z</time></trkpt><trkpt lat="39.2779567" lon="8.510685"><ele>264.0</ele><time>2026-05-02T13:18:24.327Z</time></trkpt><trkpt lat="39.277955" lon="8.5107733"><ele>263.0</ele><time>2026-05-02T13:18:25.326Z</time></trkpt><trkpt lat="39.27796" lon="8.5108717"><ele>262.0</ele><time>2026-05-02T13:18:26.371Z</time></trkpt><trkpt lat="39.2779767" lon="8.510975"><ele>261.0</ele><time>2026-05-02T13:18:27.326Z</time></trkpt><trkpt lat="39.2780083" lon="8.511075"><ele>260.0</ele><time>2026-05-02T13:18:28.324Z</time></trkpt><trkpt lat="39.27805" lon="8.51118"><ele>260.8</ele><time>2026-05-02T13:18:29.324Z</time></trkpt><trkpt lat="39.27809" lon="8.5112833"><ele>261.6</ele><time>2026-05-02T13:18:30.326Z</time></trkpt><trkpt lat="39.2781417" lon="8.5113833"><ele>262.4</ele><time>2026-05-02T13:18:31.324Z</time></trkpt><trkpt lat="39.2781967" lon="8.5114633"><ele>263.2</ele><time>2026-05-02T13:18:32.37Z</time></trkpt><trkpt lat="39.27826" lon="8.5115683"><ele>264.0</ele><time>2026-05-02T13:18:33.327Z</time></trkpt><trkpt lat="39.2783183" lon="8.5116567"><ele>264.6666666666667</ele><time>2026-05-02T13:18:34.323Z</time></trkpt><trkpt lat="39.27838" lon="8.5117417"><ele>265.3333333333333</ele><time>2026-05-02T13:18:35.322Z</time></trkpt><trkpt lat="39.2784367" lon="8.51182"><ele>266.0</ele><time>2026-05-02T13:18:36.324Z</time></trkpt><trkpt lat="39.2784867" lon="8.5118967"><ele>266.66666666666663</ele><time>2026-05-02T13:18:37.325Z</time></trkpt><trkpt lat="39.2785317" lon="8.5119783"><ele>267.3333333333333</ele><time>2026-05-02T13:18:38.373Z</time></trkpt><trkpt lat="39.2785767" lon="8.5120633"><ele>268.0</ele><time>2026-05-02T13:18:39.325Z</time></trkpt><trkpt lat="39.2786233" lon="8.5121517"><ele>267.8333333333333</ele><time>2026-05-02T13:18:40.326Z</time></trkpt><trkpt lat="39.278675" lon="8.51224"><ele>267.66666666666663</ele><time>2026-05-02T13:18:41.324Z</time></trkpt><trkpt lat="39.2787317" lon="8.5123217"><ele>267.5</ele><time>2026-05-02T13:18:42.324Z</time></trkpt><trkpt lat="39.2787883" lon="8.5123983"><ele>267.3333333333333</ele><time>2026-05-02T13:18:43.326Z</time></trkpt><trkpt lat="39.2788467" lon="8.51247"><ele>267.1666666666667</ele><time>2026-05-02T13:18:44.371Z</time></trkpt><trkpt lat="39.278895" lon="8.5125317"><ele>267.0</ele><time>2026-05-02T13:18:45.324Z</time></trkpt><trkpt lat="39.2789583" lon="8.5126517"><ele>267.0</ele><time>2026-05-02T13:18:47.323Z</time></trkpt><trkpt lat="39.2789767" lon="8.512765"><ele>267.0</ele><time>2026-05-02T13:18:49.323Z</time></trkpt><trkpt lat="39.2789483" lon="8.512865"><ele>267.0</ele><time>2026-05-02T13:18:51.326Z</time></trkpt><trkpt lat="39.2788983" lon="8.5129933"><ele>267.0</ele><time>2026-05-02T13:18:53.327Z</time></trkpt><trkpt lat="39.2788683" lon="8.5130717"><ele>267.0</ele><time>2026-05-02T13:18:54.325Z</time></trkpt><trkpt lat="39.2788283" lon="8.513155"><ele>267.0</ele><time>2026-05-02T13:18:55.325Z</time></trkpt><trkpt lat="39.27878" lon="8.5132367"><ele>268.6666666666667</ele><time>2026-05-02T13:18:56.374Z</time></trkpt><trkpt lat="39.2787267" lon="8.5133083"><ele>270.3333333333333</ele><time>2026-05-02T13:18:57.325Z</time></trkpt><trkpt lat="39.2786683" lon="8.5133833"><ele>272.0</ele><time>2026-05-02T13:18:58.324Z</time></trkpt><trkpt lat="39.2786083" lon="8.51346"><ele>273.66666666666663</ele><time>2026-05-02T13:18:59.321Z</time></trkpt><trkpt lat="39.27855" lon="8.5135333"><ele>275.3333333333333</ele><time>2026-05-02T13:19:00.327Z</time></trkpt><trkpt lat="39.278485" lon="8.51361"><ele>277.0</ele><time>2026-05-02T13:19:01.325Z</time></trkpt><trkpt lat="39.2784183" lon="8.513685"><ele>276.8</ele><time>2026-05-02T13:19:02.37Z</time></trkpt><trkpt lat="39.2783467" lon="8.5137533"><ele>276.6</ele><time>2026-05-02T13:19:03.326Z</time></trkpt><trkpt lat="39.27827" lon="8.5138267"><ele>276.40000000000003</ele><time>2026-05-02T13:19:04.322Z</time></trkpt><trkpt lat="39.2781967" lon="8.5139017"><ele>276.2</ele><time>2026-05-02T13:19:05.323Z</time></trkpt><trkpt lat="39.2781233" lon="8.513975"><ele>276.0</ele><time>2026-05-02T13:19:06.324Z</time></trkpt><trkpt lat="39.2780533" lon="8.514045"><ele>276.0</ele><time>2026-05-02T13:19:07.326Z</time></trkpt><trkpt lat="39.2779933" lon="8.5141117"><ele>276.0</ele><time>2026-05-02T13:19:08.377Z</time></trkpt><trkpt lat="39.2779433" lon="8.5141833"><ele>276.0</ele><time>2026-05-02T13:19:09.327Z</time></trkpt><trkpt lat="39.2778967" lon="8.5142567"><ele>276.0</ele><time>2026-05-02T13:19:10.326Z</time></trkpt><trkpt lat="39.277855" lon="8.514335"><ele>276.0</ele><time>2026-05-02T13:19:11.325Z</time></trkpt><trkpt lat="39.277815" lon="8.5144183"><ele>276.0</ele><time>2026-05-02T13:19:12.329Z</time></trkpt><trkpt lat="39.277775" lon="8.514505"><ele>277.0</ele><time>2026-05-02T13:19:13.326Z</time></trkpt><trkpt lat="39.2777383" lon="8.5145933"><ele>278.0</ele><time>2026-05-02T13:19:14.376Z</time></trkpt><trkpt lat="39.2777017" lon="8.514685"><ele>279.0</ele><time>2026-05-02T13:19:15.326Z</time></trkpt><trkpt lat="39.2776733" lon="8.5147783"><ele>280.0</ele><time>2026-05-02T13:19:16.325Z</time></trkpt><trkpt lat="39.2776483" lon="8.514875"><ele>281.0</ele><time>2026-05-02T13:19:17.327Z</time></trkpt><trkpt lat="39.2776233" lon="8.51497"><ele>282.0</ele><time>2026-05-02T13:19:18.332Z</time></trkpt><trkpt lat="39.2775883" lon="8.5150567"><ele>282.0</ele><time>2026-05-02T13:19:19.328Z</time></trkpt><trkpt lat="39.277545" lon="8.51514"><ele>282.0</ele><time>2026-05-02T13:19:20.366Z</time></trkpt><trkpt lat="39.277495" lon="8.5152183"><ele>282.0</ele><time>2026-05-02T13:19:21.324Z</time></trkpt><trkpt lat="39.27745" lon="8.5153117"><ele>282.0</ele><time>2026-05-02T13:19:22.325Z</time></trkpt><trkpt lat="39.27741" lon="8.5154117"><ele>282.0</ele><time>2026-05-02T13:19:23.326Z</time></trkpt><trkpt lat="39.27738" lon="8.51552"><ele>282.0</ele><time>2026-05-02T13:19:24.329Z</time></trkpt><trkpt lat="39.2773567" lon="8.51563"><ele>282.1666666666667</ele><time>2026-05-02T13:19:25.325Z</time></trkpt><trkpt lat="39.2773483" lon="8.515735"><ele>282.3333333333333</ele><time>2026-05-02T13:19:26.379Z</time></trkpt><trkpt lat="39.27735" lon="8.51583"><ele>282.5</ele><time>2026-05-02T13:19:27.328Z</time></trkpt><trkpt lat="39.277355" lon="8.5159283"><ele>282.66666666666663</ele><time>2026-05-02T13:19:28.325Z</time></trkpt><trkpt lat="39.27736" lon="8.5160267"><ele>282.8333333333333</ele><time>2026-05-02T13:19:29.327Z</time></trkpt><trkpt lat="39.27736" lon="8.5161267"><ele>283.0</ele><time>2026-05-02T13:19:30.331Z</time></trkpt><trkpt lat="39.2773517" lon="8.5162283"><ele>282.66666666666663</ele><time>2026-05-02T13:19:31.326Z</time></trkpt><trkpt lat="39.27734" lon="8.5163283"><ele>282.3333333333333</ele><time>2026-05-02T13:19:32.376Z</time></trkpt><trkpt lat="39.2773283" lon="8.5164333"><ele>282.0</ele><time>2026-05-02T13:19:33.326Z</time></trkpt><trkpt lat="39.2773267" lon="8.5165383"><ele>281.6666666666667</ele><time>2026-05-02T13:19:34.323Z</time></trkpt><trkpt lat="39.2773367" lon="8.5166467"><ele>281.33333333333337</ele><time>2026-05-02T13:19:35.323Z</time></trkpt><trkpt lat="39.2773483" lon="8.5167583"><ele>281.0</ele><time>2026-05-02T13:19:36.326Z</time></trkpt><trkpt lat="39.2773617" lon="8.51687"><ele>281.00000000000006</ele><time>2026-05-02T13:19:37.325Z</time></trkpt><trkpt lat="39.27737" lon="8.5169733"><ele>281.0</ele><time>2026-05-02T13:19:38.366Z</time></trkpt><trkpt lat="39.2773767" lon="8.5170617"><ele>281.0</ele><time>2026-05-02T13:19:39.325Z</time></trkpt><trkpt lat="39.2773733" lon="8.5171517"><ele>281.0</ele><time>2026-05-02T13:19:40.326Z</time></trkpt><trkpt lat="39.2773617" lon="8.51724"><ele>281.0</ele><time>2026-05-02T13:19:41.325Z</time></trkpt><trkpt lat="39.277345" lon="8.5173317"><ele>281.00000000000006</ele><time>2026-05-02T13:19:42.321Z</time></trkpt><trkpt lat="39.27732" lon="8.5174217"><ele>281.0</ele><time>2026-05-02T13:19:43.327Z</time></trkpt><trkpt lat="39.2772967" lon="8.51751"><ele>280.33333333333337</ele><time>2026-05-02T13:19:44.367Z</time></trkpt><trkpt lat="39.2772717" lon="8.517595"><ele>279.6666666666667</ele><time>2026-05-02T13:19:45.326Z</time></trkpt><trkpt lat="39.2772383" lon="8.517675"><ele>279.0</ele><time>2026-05-02T13:19:46.327Z</time></trkpt><trkpt lat="39.2771917" lon="8.5177467"><ele>278.3333333333333</ele><time>2026-05-02T13:19:47.324Z</time></trkpt><trkpt lat="39.277135" lon="8.517815"><ele>277.66666666666663</ele><time>2026-05-02T13:19:48.326Z</time></trkpt><trkpt lat="39.2770633" lon="8.51787"><ele>277.0</ele><time>2026-05-02T13:19:49.327Z</time></trkpt><trkpt lat="39.2769783" lon="8.5179083"><ele>277.0</ele><time>2026-05-02T13:19:50.365Z</time></trkpt><trkpt lat="39.276895" lon="8.5179433"><ele>277.0</ele><time>2026-05-02T13:19:51.327Z</time></trkpt><trkpt lat="39.2768183" lon="8.5179833"><ele>277.0</ele><time>2026-05-02T13:19:52.324Z</time></trkpt><trkpt lat="39.276745" lon="8.5180333"><ele>277.0</ele><time>2026-05-02T13:19:53.327Z</time></trkpt><trkpt lat="39.2766783" lon="8.5180933"><ele>277.0</ele><time>2026-05-02T13:19:54.325Z</time></trkpt><trkpt lat="39.27661" lon="8.5181683"><ele>277.0</ele><time>2026-05-02T13:19:55.325Z</time></trkpt><trkpt lat="39.2765467" lon="8.5182483"><ele>277.0</ele><time>2026-05-02T13:19:56.378Z</time></trkpt><trkpt lat="39.27649" lon="8.5183317"><ele>277.0</ele><time>2026-05-02T13:19:57.327Z</time></trkpt><trkpt lat="39.27644" lon="8.5184117"><ele>277.0</ele><time>2026-05-02T13:19:58.324Z</time></trkpt><trkpt lat="39.2763883" lon="8.5184833"><ele>277.0</ele><time>2026-05-02T13:19:59.327Z</time></trkpt><trkpt lat="39.2763217" lon="8.518555"><ele>277.0</ele><time>2026-05-02T13:20:00.323Z</time></trkpt><trkpt lat="39.2762517" lon="8.518625"><ele>277.0</ele><time>2026-05-02T13:20:01.326Z</time></trkpt><trkpt lat="39.2761833" lon="8.5187017"><ele>278.4</ele><time>2026-05-02T13:20:02.381Z</time></trkpt><trkpt lat="39.27612" lon="8.51879"><ele>279.79999999999995</ele><time>2026-05-02T13:20:03.325Z</time></trkpt><trkpt lat="39.2760467" lon="8.5188767"><ele>281.2</ele><time>2026-05-02T13:20:04.328Z</time></trkpt><trkpt lat="39.2759867" lon="8.5189533"><ele>282.59999999999997</ele><time>2026-05-02T13:20:05.322Z</time></trkpt><trkpt lat="39.2759317" lon="8.5190367"><ele>284.0</ele><time>2026-05-02T13:20:06.324Z</time></trkpt><trkpt lat="39.2758517" lon="8.5191117"><ele>284.0</ele><time>2026-05-02T13:20:07.321Z</time></trkpt><trkpt lat="39.2757717" lon="8.5191817"><ele>284.0</ele><time>2026-05-02T13:20:08.367Z</time></trkpt><trkpt lat="39.275705" lon="8.5192383"><ele>284.0</ele><time>2026-05-02T13:20:09.322Z</time></trkpt><trkpt lat="39.2756433" lon="8.5193133"><ele>284.0</ele><time>2026-05-02T13:20:10.327Z</time></trkpt><trkpt lat="39.2755883" lon="8.5193867"><ele>284.0</ele><time>2026-05-02T13:20:11.322Z</time></trkpt><trkpt lat="39.275535" lon="8.5194683"><ele>284.0</ele><time>2026-05-02T13:20:12.324Z</time></trkpt><trkpt lat="39.27548" lon="8.5195483"><ele>284.83333333333337</ele><time>2026-05-02T13:20:13.324Z</time></trkpt><trkpt lat="39.2754233" lon="8.519625"><ele>285.6666666666667</ele><time>2026-05-02T13:20:14.366Z</time></trkpt><trkpt lat="39.2753633" lon="8.5197"><ele>286.5</ele><time>2026-05-02T13:20:15.325Z</time></trkpt><trkpt lat="39.2753083" lon="8.519775"><ele>287.3333333333333</ele><time>2026-05-02T13:20:16.324Z</time></trkpt><trkpt lat="39.27526" lon="8.5198467"><ele>288.16666666666663</ele><time>2026-05-02T13:20:17.327Z</time></trkpt><trkpt lat="39.2752217" lon="8.519915"><ele>289.0</ele><time>2026-05-02T13:20:18.324Z</time></trkpt><trkpt lat="39.275165" lon="8.5200383"><ele>289.0</ele><time>2026-05-02T13:20:20.366Z</time></trkpt><trkpt lat="39.275165" lon="8.5201217"><ele>289.0</ele><time>2026-05-02T13:20:22.324Z</time></trkpt><trkpt lat="39.275205" lon="8.52021"><ele>289.0</ele><time>2026-05-02T13:20:24.325Z</time></trkpt><trkpt lat="39.2752517" lon="8.5203217"><ele>289.0</ele><time>2026-05-02T13:20:26.373Z</time></trkpt><trkpt lat="39.27529" lon="8.520455"><ele>289.0</ele><time>2026-05-02T13:20:28.32Z</time></trkpt><trkpt lat="39.2753283" lon="8.5206017"><ele>289.2</ele><time>2026-05-02T13:20:30.325Z</time></trkpt><trkpt lat="39.27536" lon="8.5207383"><ele>289.4</ele><time>2026-05-02T13:20:32.371Z</time></trkpt><trkpt lat="39.27541" lon="8.5208417"><ele>289.6</ele><time>2026-05-02T13:20:34.321Z</time></trkpt><trkpt lat="39.2754833" lon="8.5209217"><ele>289.8</ele><time>2026-05-02T13:20:36.324Z</time></trkpt><trkpt lat="39.2755517" lon="8.5209983"><ele>290.0</ele><time>2026-05-02T13:20:38.363Z</time></trkpt><trkpt lat="39.275595" lon="8.5210867"><ele>289.0</ele><time>2026-05-02T13:20:40.322Z</time></trkpt><trkpt lat="39.275605" lon="8.5211883"><ele>288.0</ele><time>2026-05-02T13:20:42.325Z</time></trkpt><trkpt lat="39.275635" lon="8.5212917"><ele>287.0</ele><time>2026-05-02T13:20:44.366Z</time></trkpt><trkpt lat="39.275685" lon="8.5214"><ele>286.0</ele><time>2026-05-02T13:20:46.323Z</time></trkpt><trkpt lat="39.275745" lon="8.5215117"><ele>285.0</ele><time>2026-05-02T13:20:48.324Z</time></trkpt><trkpt lat="39.275805" lon="8.52162"><ele>285.0</ele><time>2026-05-02T13:20:50.366Z</time></trkpt><trkpt lat="39.27587" lon="8.52171"><ele>285.0</ele><time>2026-05-02T13:20:52.326Z</time></trkpt><trkpt lat="39.27594" lon="8.5217733"><ele>285.0</ele><time>2026-05-02T13:20:54.326Z</time></trkpt><trkpt lat="39.2759917" lon="8.5218367"><ele>285.0</ele><time>2026-05-02T13:20:56.374Z</time></trkpt><trkpt lat="39.2760383" lon="8.52191"><ele>285.0</ele><time>2026-05-02T13:20:59.324Z</time></trkpt><trkpt lat="39.276135" lon="8.521965"><ele>285.0</ele><time>2026-05-02T13:22:11.332Z</time></trkpt><trkpt lat="39.27621" lon="8.5218983"><ele>285.0</ele><time>2026-05-02T13:24:33.328Z</time></trkpt><trkpt lat="39.2761533" lon="8.5218383"><ele>285.0</ele><time>2026-05-02T13:25:26.387Z</time></trkpt><trkpt lat="39.2761017" lon="8.5217733"><ele>285.0</ele><time>2026-05-02T13:25:28.324Z</time></trkpt><trkpt lat="39.2760383" lon="8.5217133"><ele>285.0</ele><time>2026-05-02T13:25:30.325Z</time></trkpt><trkpt lat="39.2759783" lon="8.5216883"><ele>285.0</ele><time>2026-05-02T13:25:34.322Z</time></trkpt><trkpt lat="39.2758867" lon="8.5216783"><ele>285.0</ele><time>2026-05-02T13:26:17.324Z</time></trkpt><trkpt lat="39.2758517" lon="8.5215933"><ele>285.0</ele><time>2026-05-02T13:26:19.326Z</time></trkpt><trkpt lat="39.2757933" lon="8.5214817"><ele>285.0</ele><time>2026-05-02T13:26:21.328Z</time></trkpt><trkpt lat="39.27574" lon="8.5213767"><ele>285.0</ele><time>2026-05-02T13:26:23.323Z</time></trkpt><trkpt lat="39.2756883" lon="8.521285"><ele>285.0</ele><time>2026-05-02T13:26:25.325Z</time></trkpt><trkpt lat="39.275655" lon="8.521205"><ele>285.0</ele><time>2026-05-02T13:26:27.324Z</time></trkpt><trkpt lat="39.275655" lon="8.5211217"><ele>285.0</ele><time>2026-05-02T13:26:29.326Z</time></trkpt><trkpt lat="39.275675" lon="8.5210083"><ele>284.0</ele><time>2026-05-02T13:26:32.374Z</time></trkpt><trkpt lat="39.27572" lon="8.5209033"><ele>283.0</ele><time>2026-05-02T13:27:11.319Z</time></trkpt><trkpt lat="39.2757967" lon="8.520875"><ele>282.0</ele><time>2026-05-02T13:27:13.322Z</time></trkpt><trkpt lat="39.2758933" lon="8.5208533"><ele>281.0</ele><time>2026-05-02T13:27:15.324Z</time></trkpt><trkpt lat="39.276" lon="8.520825"><ele>280.0</ele><time>2026-05-02T13:27:17.325Z</time></trkpt><trkpt lat="39.2761017" lon="8.520765"><ele>280.0</ele><time>2026-05-02T13:27:19.321Z</time></trkpt><trkpt lat="39.276195" lon="8.5206867"><ele>280.0</ele><time>2026-05-02T13:27:21.32Z</time></trkpt><trkpt lat="39.2762917" lon="8.520595"><ele>280.0</ele><time>2026-05-02T13:27:23.321Z</time></trkpt><trkpt lat="39.276385" lon="8.5204917"><ele>280.0</ele><time>2026-05-02T13:27:25.32Z</time></trkpt><trkpt lat="39.2764333" lon="8.5204183"><ele>280.0</ele><time>2026-05-02T13:27:26.375Z</time></trkpt><trkpt lat="39.27648" lon="8.5203417"><ele>278.8333333333333</ele><time>2026-05-02T13:27:27.323Z</time></trkpt><trkpt lat="39.2765317" lon="8.5202717"><ele>277.66666666666663</ele><time>2026-05-02T13:27:28.323Z</time></trkpt><trkpt lat="39.27659" lon="8.52019"><ele>276.5</ele><time>2026-05-02T13:27:29.324Z</time></trkpt><trkpt lat="39.2766483" lon="8.5201217"><ele>275.3333333333333</ele><time>2026-05-02T13:27:30.323Z</time></trkpt><trkpt lat="39.27671" lon="8.52006"><ele>274.1666666666667</ele><time>2026-05-02T13:27:31.322Z</time></trkpt><trkpt lat="39.2767683" lon="8.52"><ele>273.0</ele><time>2026-05-02T13:27:32.37Z</time></trkpt><trkpt lat="39.27683" lon="8.519945"><ele>273.0</ele><time>2026-05-02T13:27:33.323Z</time></trkpt><trkpt lat="39.2768867" lon="8.5199"><ele>273.0</ele><time>2026-05-02T13:27:34.321Z</time></trkpt><trkpt lat="39.276945" lon="8.5198533"><ele>273.0</ele><time>2026-05-02T13:27:35.324Z</time></trkpt><trkpt lat="39.2770033" lon="8.5198033"><ele>273.0</ele><time>2026-05-02T13:27:36.324Z</time></trkpt><trkpt lat="39.2770617" lon="8.51975"><ele>273.0</ele><time>2026-05-02T13:27:37.324Z</time></trkpt><trkpt lat="39.2771133" lon="8.51969"><ele>273.0</ele><time>2026-05-02T13:27:38.365Z</time></trkpt><trkpt lat="39.277165" lon="8.5196183"><ele>273.0</ele><time>2026-05-02T13:27:39.319Z</time></trkpt><trkpt lat="39.2772183" lon="8.5195467"><ele>271.85714285714283</ele><time>2026-05-02T13:27:40.321Z</time></trkpt><trkpt lat="39.2772733" lon="8.5194817"><ele>270.7142857142857</ele><time>2026-05-02T13:27:41.324Z</time></trkpt><trkpt lat="39.2773317" lon="8.5194183"><ele>269.57142857142856</ele><time>2026-05-02T13:27:42.318Z</time></trkpt><trkpt lat="39.2773933" lon="8.5193633"><ele>268.42857142857144</ele><time>2026-05-02T13:27:43.323Z</time></trkpt><trkpt lat="39.2774583" lon="8.5193083"><ele>267.2857142857143</ele><time>2026-05-02T13:27:44.364Z</time></trkpt><trkpt lat="39.2775217" lon="8.5192617"><ele>266.1428571428571</ele><time>2026-05-02T13:27:45.323Z</time></trkpt><trkpt lat="39.27758" lon="8.5192117"><ele>265.0</ele><time>2026-05-02T13:27:46.322Z</time></trkpt><trkpt lat="39.27764" lon="8.5191617"><ele>264.99999999999994</ele><time>2026-05-02T13:27:47.323Z</time></trkpt><trkpt lat="39.2776967" lon="8.5191083"><ele>265.0</ele><time>2026-05-02T13:27:48.322Z</time></trkpt><trkpt lat="39.2777467" lon="8.5190517"><ele>265.0</ele><time>2026-05-02T13:27:49.322Z</time></trkpt><trkpt lat="39.27779" lon="8.5189917"><ele>265.0</ele><time>2026-05-02T13:27:50.363Z</time></trkpt><trkpt lat="39.277825" lon="8.5189217"><ele>265.0</ele><time>2026-05-02T13:27:51.323Z</time></trkpt><trkpt lat="39.277855" lon="8.518845"><ele>264.99999999999994</ele><time>2026-05-02T13:27:52.323Z</time></trkpt><trkpt lat="39.277885" lon="8.5187683"><ele>265.0</ele><time>2026-05-02T13:27:53.322Z</time></trkpt><trkpt lat="39.2779533" lon="8.5186417"><ele>264.6</ele><time>2026-05-02T13:27:55.323Z</time></trkpt><trkpt lat="39.2780483" lon="8.51858"><ele>264.2</ele><time>2026-05-02T13:27:57.324Z</time></trkpt><trkpt lat="39.2781117" lon="8.518585"><ele>263.8</ele><time>2026-05-02T13:27:58.323Z</time></trkpt><trkpt lat="39.2782217" lon="8.518605"><ele>263.4</ele><time>2026-05-02T13:28:00.326Z</time></trkpt><trkpt lat="39.2783333" lon="8.51861"><ele>263.0</ele><time>2026-05-02T13:28:02.369Z</time></trkpt><trkpt lat="39.2784567" lon="8.518605"><ele>263.0</ele><time>2026-05-02T13:28:04.324Z</time></trkpt><trkpt lat="39.27852" lon="8.5185917"><ele>263.0</ele><time>2026-05-02T13:28:05.325Z</time></trkpt><trkpt lat="39.2786433" lon="8.5185733"><ele>263.0</ele><time>2026-05-02T13:28:07.327Z</time></trkpt><trkpt lat="39.2787667" lon="8.51858"><ele>263.0</ele><time>2026-05-02T13:28:09.326Z</time></trkpt><trkpt lat="39.27889" lon="8.5185933"><ele>263.0</ele><time>2026-05-02T13:28:11.324Z</time></trkpt><trkpt lat="39.278955" lon="8.518595"><ele>261.5</ele><time>2026-05-02T13:28:12.328Z</time></trkpt><trkpt lat="39.2790217" lon="8.5185917"><ele>260.0</ele><time>2026-05-02T13:28:13.322Z</time></trkpt><trkpt lat="39.2790917" lon="8.518585"><ele>258.5</ele><time>2026-05-02T13:28:14.366Z</time></trkpt><trkpt lat="39.2791683" lon="8.5185783"><ele>257.0</ele><time>2026-05-02T13:28:15.325Z</time></trkpt><trkpt lat="39.27925" lon="8.5185717"><ele>255.50000000000003</ele><time>2026-05-02T13:28:16.324Z</time></trkpt><trkpt lat="39.279335" lon="8.5185617"><ele>254.0</ele><time>2026-05-02T13:28:17.324Z</time></trkpt><trkpt lat="39.2794183" lon="8.5185417"><ele>254.00000000000003</ele><time>2026-05-02T13:28:18.321Z</time></trkpt><trkpt lat="39.2795017" lon="8.5185217"><ele>254.0</ele><time>2026-05-02T13:28:19.321Z</time></trkpt><trkpt lat="39.279585" lon="8.518495"><ele>254.0</ele><time>2026-05-02T13:28:20.363Z</time></trkpt><trkpt lat="39.2796667" lon="8.51847"><ele>254.0</ele><time>2026-05-02T13:28:21.32Z</time></trkpt><trkpt lat="39.2797483" lon="8.51845"><ele>254.00000000000003</ele><time>2026-05-02T13:28:22.323Z</time></trkpt><trkpt lat="39.2798283" lon="8.5184317"><ele>254.0</ele><time>2026-05-02T13:28:23.323Z</time></trkpt><trkpt lat="39.2799083" lon="8.5183917"><ele>251.83333333333334</ele><time>2026-05-02T13:28:24.319Z</time></trkpt><trkpt lat="39.2799867" lon="8.5183417"><ele>249.66666666666669</ele><time>2026-05-02T13:28:25.322Z</time></trkpt><trkpt lat="39.2800683" lon="8.5182817"><ele>247.5</ele><time>2026-05-02T13:28:26.378Z</time></trkpt><trkpt lat="39.2801367" lon="8.51823"><ele>245.33333333333331</ele><time>2026-05-02T13:28:27.319Z</time></trkpt><trkpt lat="39.2801983" lon="8.5181717"><ele>243.16666666666666</ele><time>2026-05-02T13:28:28.323Z</time></trkpt><trkpt lat="39.2802717" lon="8.5181017"><ele>241.0</ele><time>2026-05-02T13:28:29.326Z</time></trkpt><trkpt lat="39.2803367" lon="8.5179983"><ele>240.99999999999997</ele><time>2026-05-02T13:28:30.323Z</time></trkpt><trkpt lat="39.2803883" lon="8.5179233"><ele>241.0</ele><time>2026-05-02T13:28:31.327Z</time></trkpt><trkpt lat="39.28044" lon="8.5178467"><ele>241.0</ele><time>2026-05-02T13:28:32.373Z</time></trkpt><trkpt lat="39.2804883" lon="8.5177583"><ele>241.0</ele><time>2026-05-02T13:28:33.325Z</time></trkpt><trkpt lat="39.2805367" lon="8.51769"><ele>240.99999999999997</ele><time>2026-05-02T13:28:34.323Z</time></trkpt><trkpt lat="39.2805767" lon="8.5176167"><ele>241.0</ele><time>2026-05-02T13:28:35.326Z</time></trkpt><trkpt lat="39.2806117" lon="8.5175383"><ele>241.2857142857143</ele><time>2026-05-02T13:28:36.323Z</time></trkpt><trkpt lat="39.2806417" lon="8.5174567"><ele>241.5714285714286</ele><time>2026-05-02T13:28:37.324Z</time></trkpt><trkpt lat="39.2806633" lon="8.5173717"><ele>241.85714285714286</ele><time>2026-05-02T13:28:38.366Z</time></trkpt><trkpt lat="39.28067" lon="8.5172867"><ele>242.14285714285717</ele><time>2026-05-02T13:28:39.326Z</time></trkpt><trkpt lat="39.280665" lon="8.5172033"><ele>242.42857142857144</ele><time>2026-05-02T13:28:40.319Z</time></trkpt><trkpt lat="39.2806483" lon="8.5171217"><ele>242.71428571428572</ele><time>2026-05-02T13:28:41.321Z</time></trkpt><trkpt lat="39.2806183" lon="8.5170433"><ele>243.0</ele><time>2026-05-02T13:28:42.327Z</time></trkpt><trkpt lat="39.280575" lon="8.51697"><ele>243.0</ele><time>2026-05-02T13:28:43.322Z</time></trkpt><trkpt lat="39.2805217" lon="8.516905"><ele>243.0</ele><time>2026-05-02T13:28:44.365Z</time></trkpt><trkpt lat="39.2804667" lon="8.51684"><ele>243.0</ele><time>2026-05-02T13:28:45.323Z</time></trkpt><trkpt lat="39.2804167" lon="8.516775"><ele>243.0</ele><time>2026-05-02T13:28:46.324Z</time></trkpt><trkpt lat="39.2803517" lon="8.5166517"><ele>243.0</ele><time>2026-05-02T13:28:48.325Z</time></trkpt><trkpt lat="39.28033" lon="8.5165083"><ele>243.0</ele><time>2026-05-02T13:28:50.366Z</time></trkpt><trkpt lat="39.28034" lon="8.5164217"><ele>243.0</ele><time>2026-05-02T13:28:51.325Z</time></trkpt><trkpt lat="39.280355" lon="8.5163267"><ele>243.0</ele><time>2026-05-02T13:28:52.323Z</time></trkpt><trkpt lat="39.2803683" lon="8.516235"><ele>243.0</ele><time>2026-05-02T13:28:53.322Z</time></trkpt><trkpt lat="39.28039" lon="8.5161383"><ele>243.0</ele><time>2026-05-02T13:28:54.323Z</time></trkpt><trkpt lat="39.2804117" lon="8.5160383"><ele>243.0</ele><time>2026-05-02T13:28:55.32Z</time></trkpt><trkpt lat="39.2804283" lon="8.5159383"><ele>243.0</ele><time>2026-05-02T13:28:56.375Z</time></trkpt><trkpt lat="39.2804467" lon="8.515845"><ele>243.28571428571428</ele><time>2026-05-02T13:28:57.321Z</time></trkpt><trkpt lat="39.2804683" lon="8.5157533"><ele>243.57142857142858</ele><time>2026-05-02T13:28:58.323Z</time></trkpt><trkpt lat="39.2804883" lon="8.515665"><ele>243.85714285714286</ele><time>2026-05-02T13:28:59.324Z</time></trkpt><trkpt lat="39.2805117" lon="8.51558"><ele>244.14285714285714</ele><time>2026-05-02T13:29:00.321Z</time></trkpt><trkpt lat="39.2805417" lon="8.5155"><ele>244.42857142857144</ele><time>2026-05-02T13:29:01.318Z</time></trkpt><trkpt lat="39.2805767" lon="8.51542"><ele>244.71428571428572</ele><time>2026-05-02T13:29:02.369Z</time></trkpt><trkpt lat="39.2806117" lon="8.5153367"><ele>245.0</ele><time>2026-05-02T13:29:03.319Z</time></trkpt><trkpt lat="39.280645" lon="8.5152467"><ele>240.66666666666669</ele><time>2026-05-02T13:29:04.32Z</time></trkpt><trkpt lat="39.2806733" lon="8.5151583"><ele>236.33333333333334</ele><time>2026-05-02T13:29:05.326Z</time></trkpt><trkpt lat="39.2807083" lon="8.5150717"><ele>232.0</ele><time>2026-05-02T13:29:06.323Z</time></trkpt><trkpt lat="39.2807417" lon="8.51499"><ele>227.66666666666669</ele><time>2026-05-02T13:29:07.326Z</time></trkpt><trkpt lat="39.28078" lon="8.5149133"><ele>223.33333333333334</ele><time>2026-05-02T13:29:08.366Z</time></trkpt><trkpt lat="39.2808217" lon="8.514845"><ele>219.0</ele><time>2026-05-02T13:29:09.322Z</time></trkpt><trkpt lat="39.2809117" lon="8.51475"><ele>219.0</ele><time>2026-05-02T13:29:11.322Z</time></trkpt><trkpt lat="39.2810183" lon="8.51468"><ele>219.0</ele><time>2026-05-02T13:29:13.325Z</time></trkpt><trkpt lat="39.28108" lon="8.514635"><ele>219.0</ele><time>2026-05-02T13:29:14.364Z</time></trkpt><trkpt lat="39.28114" lon="8.5145883"><ele>219.0</ele><time>2026-05-02T13:29:15.323Z</time></trkpt><trkpt lat="39.2812" lon="8.5145433"><ele>219.0</ele><time>2026-05-02T13:29:16.323Z</time></trkpt><trkpt lat="39.28126" lon="8.5145033"><ele>219.0</ele><time>2026-05-02T13:29:17.324Z</time></trkpt><trkpt lat="39.281315" lon="8.51446"><ele>221.16666666666666</ele><time>2026-05-02T13:29:18.32Z</time></trkpt><trkpt lat="39.28137" lon="8.5144183"><ele>223.33333333333331</ele><time>2026-05-02T13:29:19.324Z</time></trkpt><trkpt lat="39.2814267" lon="8.5143817"><ele>225.5</ele><time>2026-05-02T13:29:20.362Z</time></trkpt><trkpt lat="39.2814833" lon="8.5143433"><ele>227.66666666666666</ele><time>2026-05-02T13:29:21.327Z</time></trkpt><trkpt lat="39.2815867" lon="8.5142467"><ele>229.83333333333331</ele><time>2026-05-02T13:29:23.324Z</time></trkpt><trkpt lat="39.28167" lon="8.514125"><ele>232.0</ele><time>2026-05-02T13:29:25.323Z</time></trkpt><trkpt lat="39.281705" lon="8.5140567"><ele>225.25</ele><time>2026-05-02T13:29:26.377Z</time></trkpt><trkpt lat="39.2817483" lon="8.5139183"><ele>218.5</ele><time>2026-05-02T13:29:28.326Z</time></trkpt><trkpt lat="39.2817583" lon="8.5137733"><ele>211.75</ele><time>2026-05-02T13:29:30.324Z</time></trkpt><trkpt lat="39.2817267" lon="8.51362"><ele>205.0</ele><time>2026-05-02T13:29:32.379Z</time></trkpt><trkpt lat="39.2816633" lon="8.5134733"><ele>204.16666666666666</ele><time>2026-05-02T13:29:34.32Z</time></trkpt><trkpt lat="39.281625" lon="8.5134017"><ele>203.33333333333331</ele><time>2026-05-02T13:29:35.322Z</time></trkpt><trkpt lat="39.2815783" lon="8.5133383"><ele>202.5</ele><time>2026-05-02T13:29:36.32Z</time></trkpt><trkpt lat="39.2814867" lon="8.5132267"><ele>201.66666666666669</ele><time>2026-05-02T13:29:38.362Z</time></trkpt><trkpt lat="39.2814133" lon="8.5131383"><ele>200.83333333333334</ele><time>2026-05-02T13:29:40.32Z</time></trkpt><trkpt lat="39.2813867" lon="8.5130583"><ele>200.0</ele><time>2026-05-02T13:29:42.324Z</time></trkpt><trkpt lat="39.28145" lon="8.5130517"><ele>200.00000000000003</ele><time>2026-05-02T13:29:53.321Z</time></trkpt><trkpt lat="39.2815217" lon="8.51317"><ele>200.0</ele><time>2026-05-02T13:29:55.321Z</time></trkpt><trkpt lat="39.2815633" lon="8.51324"><ele>200.0</ele><time>2026-05-02T13:29:56.377Z</time></trkpt><trkpt lat="39.2816117" lon="8.51331"><ele>200.0</ele><time>2026-05-02T13:29:57.322Z</time></trkpt><trkpt lat="39.2816683" lon="8.513385"><ele>200.00000000000003</ele><time>2026-05-02T13:29:58.32Z</time></trkpt><trkpt lat="39.2817283" lon="8.513465"><ele>200.0</ele><time>2026-05-02T13:29:59.324Z</time></trkpt><trkpt lat="39.281785" lon="8.51355"><ele>200.00000000000003</ele><time>2026-05-02T13:30:00.322Z</time></trkpt><trkpt lat="39.2818433" lon="8.513635"><ele>200.0</ele><time>2026-05-02T13:30:01.323Z</time></trkpt><trkpt lat="39.28189" lon="8.5137183"><ele>200.0</ele><time>2026-05-02T13:30:02.37Z</time></trkpt><trkpt lat="39.281935" lon="8.5138133"><ele>200.0</ele><time>2026-05-02T13:30:03.326Z</time></trkpt><trkpt lat="39.2819717" lon="8.5139"><ele>200.00000000000003</ele><time>2026-05-02T13:30:04.325Z</time></trkpt><trkpt lat="39.281995" lon="8.5139933"><ele>200.0</ele><time>2026-05-02T13:30:05.322Z</time></trkpt><trkpt lat="39.2820083" lon="8.51409"><ele>200.83333333333334</ele><time>2026-05-02T13:30:06.322Z</time></trkpt><trkpt lat="39.2820117" lon="8.5141833"><ele>201.66666666666669</ele><time>2026-05-02T13:30:07.322Z</time></trkpt><trkpt lat="39.2819967" lon="8.5142867"><ele>202.5</ele><time>2026-05-02T13:30:08.363Z</time></trkpt><trkpt lat="39.2819767" lon="8.5143883"><ele>203.33333333333331</ele><time>2026-05-02T13:30:09.32Z</time></trkpt><trkpt lat="39.2819517" lon="8.514485"><ele>204.16666666666666</ele><time>2026-05-02T13:30:10.321Z</time></trkpt><trkpt lat="39.28192" lon="8.5145817"><ele>205.0</ele><time>2026-05-02T13:30:11.321Z</time></trkpt><trkpt lat="39.2818683" lon="8.514675"><ele>202.83333333333331</ele><time>2026-05-02T13:30:12.324Z</time></trkpt><trkpt lat="39.2818067" lon="8.51476"><ele>200.66666666666666</ele><time>2026-05-02T13:30:13.323Z</time></trkpt><trkpt lat="39.2817433" lon="8.51484"><ele>198.5</ele><time>2026-05-02T13:30:14.366Z</time></trkpt><trkpt lat="39.281685" lon="8.51492"><ele>196.33333333333331</ele><time>2026-05-02T13:30:15.322Z</time></trkpt><trkpt lat="39.281625" lon="8.5150033"><ele>194.16666666666666</ele><time>2026-05-02T13:30:16.322Z</time></trkpt><trkpt lat="39.2815633" lon="8.5150867"><ele>192.0</ele><time>2026-05-02T13:30:17.319Z</time></trkpt><trkpt lat="39.281505" lon="8.5151617"><ele>192.0</ele><time>2026-05-02T13:30:18.322Z</time></trkpt><trkpt lat="39.281455" lon="8.5152383"><ele>192.0</ele><time>2026-05-02T13:30:19.322Z</time></trkpt><trkpt lat="39.2814167" lon="8.5153267"><ele>192.0</ele><time>2026-05-02T13:30:20.371Z</time></trkpt><trkpt lat="39.2813833" lon="8.5154133"><ele>192.0</ele><time>2026-05-02T13:30:21.324Z</time></trkpt><trkpt lat="39.2813583" lon="8.5155"><ele>192.0</ele><time>2026-05-02T13:30:22.322Z</time></trkpt><trkpt lat="39.2813367" lon="8.5155867"><ele>192.0</ele><time>2026-05-02T13:30:23.323Z</time></trkpt><trkpt lat="39.2813133" lon="8.51573"><ele>191.2</ele><time>2026-05-02T13:30:25.318Z</time></trkpt><trkpt lat="39.2813417" lon="8.5158533"><ele>190.39999999999998</ele><time>2026-05-02T13:30:27.324Z</time></trkpt><trkpt lat="39.2814" lon="8.5159633"><ele>189.60000000000002</ele><time>2026-05-02T13:30:29.321Z</time></trkpt><trkpt lat="39.2814733" lon="8.5160683"><ele>188.8</ele><time>2026-05-02T13:30:31.325Z</time></trkpt><trkpt lat="39.281565" lon="8.5161067"><ele>188.0</ele><time>2026-05-02T13:30:33.325Z</time></trkpt><trkpt lat="39.2816683" lon="8.516135"><ele>188.0</ele><time>2026-05-02T13:30:35.322Z</time></trkpt><trkpt lat="39.2817517" lon="8.51622"><ele>188.0</ele><time>2026-05-02T13:30:37.324Z</time></trkpt><trkpt lat="39.2818017" lon="8.516365"><ele>188.0</ele><time>2026-05-02T13:30:39.321Z</time></trkpt><trkpt lat="39.2818133" lon="8.5164567"><ele>188.0</ele><time>2026-05-02T13:30:40.323Z</time></trkpt><trkpt lat="39.281815" lon="8.51656"><ele>188.0</ele><time>2026-05-02T13:30:41.322Z</time></trkpt><trkpt lat="39.2818067" lon="8.516665"><ele>188.83333333333331</ele><time>2026-05-02T13:30:42.32Z</time></trkpt><trkpt lat="39.2817983" lon="8.5167533"><ele>189.66666666666666</ele><time>2026-05-02T13:30:43.323Z</time></trkpt><trkpt lat="39.2817883" lon="8.5168367"><ele>190.5</ele><time>2026-05-02T13:30:44.366Z</time></trkpt><trkpt lat="39.2818017" lon="8.5169617"><ele>191.33333333333331</ele><time>2026-05-02T13:30:46.32Z</time></trkpt><trkpt lat="39.2818883" lon="8.5169283"><ele>192.16666666666666</ele><time>2026-05-02T13:30:49.32Z</time></trkpt><trkpt lat="39.28193" lon="8.5168183"><ele>193.0</ele><time>2026-05-02T13:30:51.321Z</time></trkpt><trkpt lat="39.28194" lon="8.5167317"><ele>193.0</ele><time>2026-05-02T13:30:52.32Z</time></trkpt><trkpt lat="39.281955" lon="8.5166233"><ele>193.0</ele><time>2026-05-02T13:30:53.318Z</time></trkpt><trkpt lat="39.2819783" lon="8.5164933"><ele>193.0</ele><time>2026-05-02T13:30:54.321Z</time></trkpt><trkpt lat="39.2820317" lon="8.5162617"><ele>193.0</ele><time>2026-05-02T13:30:56.372Z</time></trkpt><trkpt lat="39.2820583" lon="8.5161433"><ele>192.16666666666666</ele><time>2026-05-02T13:30:57.322Z</time></trkpt><trkpt lat="39.2820867" lon="8.516025"><ele>191.33333333333331</ele><time>2026-05-02T13:30:58.32Z</time></trkpt><trkpt lat="39.2821083" lon="8.5159167"><ele>190.5</ele><time>2026-05-02T13:30:59.322Z</time></trkpt><trkpt lat="39.282115" lon="8.5158117"><ele>189.66666666666666</ele><time>2026-05-02T13:31:00.328Z</time></trkpt><trkpt lat="39.2821133" lon="8.515715"><ele>188.83333333333331</ele><time>2026-05-02T13:31:01.322Z</time></trkpt><trkpt lat="39.2820967" lon="8.51563"><ele>188.0</ele><time>2026-05-02T13:31:02.37Z</time></trkpt><trkpt lat="39.2820583" lon="8.5154783"><ele>188.8</ele><time>2026-05-02T13:31:04.322Z</time></trkpt><trkpt lat="39.2820283" lon="8.51534"><ele>189.60000000000002</ele><time>2026-05-02T13:31:06.323Z</time></trkpt><trkpt lat="39.282025" lon="8.515205"><ele>190.39999999999998</ele><time>2026-05-02T13:31:08.364Z</time></trkpt><trkpt lat="39.2820633" lon="8.51507"><ele>191.2</ele><time>2026-05-02T13:31:10.32Z</time></trkpt><trkpt lat="39.2821017" lon="8.51499"><ele>192.0</ele><time>2026-05-02T13:31:11.322Z</time></trkpt><trkpt lat="39.2821667" lon="8.5149083"><ele>192.0</ele><time>2026-05-02T13:31:12.323Z</time></trkpt><trkpt lat="39.2822333" lon="8.5148217"><ele>192.0</ele><time>2026-05-02T13:31:13.324Z</time></trkpt><trkpt lat="39.2823" lon="8.5147333"><ele>192.0</ele><time>2026-05-02T13:31:14.362Z</time></trkpt><trkpt lat="39.2823567" lon="8.5146383"><ele>192.0</ele><time>2026-05-02T13:31:15.323Z</time></trkpt><trkpt lat="39.282415" lon="8.514545"><ele>192.0</ele><time>2026-05-02T13:31:16.321Z</time></trkpt><trkpt lat="39.2824733" lon="8.5144567"><ele>188.2</ele><time>2026-05-02T13:31:17.324Z</time></trkpt><trkpt lat="39.2825433" lon="8.514375"><ele>184.39999999999998</ele><time>2026-05-02T13:31:18.323Z</time></trkpt><trkpt lat="39.28264" lon="8.514285"><ele>180.60000000000002</ele><time>2026-05-02T13:31:19.325Z</time></trkpt><trkpt lat="39.2827267" lon="8.5142283"><ele>176.8</ele><time>2026-05-02T13:31:20.365Z</time></trkpt><trkpt lat="39.2828133" lon="8.514135"><ele>173.0</ele><time>2026-05-02T13:31:21.319Z</time></trkpt><trkpt lat="39.2828533" lon="8.514065"><ele>173.0</ele><time>2026-05-02T13:31:22.324Z</time></trkpt><trkpt lat="39.2828917" lon="8.513995"><ele>173.0</ele><time>2026-05-02T13:31:23.323Z</time></trkpt><trkpt lat="39.2829117" lon="8.5139083"><ele>173.0</ele><time>2026-05-02T13:31:24.32Z</time></trkpt><trkpt lat="39.28293" lon="8.5138233"><ele>173.0</ele><time>2026-05-02T13:31:25.322Z</time></trkpt><trkpt lat="39.2829483" lon="8.51374"><ele>173.0</ele><time>2026-05-02T13:31:26.369Z</time></trkpt><trkpt lat="39.2829783" lon="8.5136583"><ele>173.0</ele><time>2026-05-02T13:31:27.324Z</time></trkpt><trkpt lat="39.2830233" lon="8.5135767"><ele>173.0</ele><time>2026-05-02T13:31:28.322Z</time></trkpt><trkpt lat="39.283075" lon="8.5134883"><ele>169.5</ele><time>2026-05-02T13:31:29.317Z</time></trkpt><trkpt lat="39.283125" lon="8.5133933"><ele>166.0</ele><time>2026-05-02T13:31:30.322Z</time></trkpt><trkpt lat="39.2831717" lon="8.5133017"><ele>162.5</ele><time>2026-05-02T13:31:31.322Z</time></trkpt><trkpt lat="39.2832133" lon="8.5132083"><ele>159.0</ele><time>2026-05-02T13:31:32.369Z</time></trkpt><trkpt lat="39.2832467" lon="8.51312"><ele>155.5</ele><time>2026-05-02T13:31:33.322Z</time></trkpt><trkpt lat="39.2832667" lon="8.5130383"><ele>152.0</ele><time>2026-05-02T13:31:34.319Z</time></trkpt><trkpt lat="39.283275" lon="8.5129117"><ele>152.0</ele><time>2026-05-02T13:31:36.321Z</time></trkpt><trkpt lat="39.2833017" lon="8.5128067"><ele>152.0</ele><time>2026-05-02T13:31:39.32Z</time></trkpt><trkpt lat="39.283385" lon="8.5128333"><ele>152.0</ele><time>2026-05-02T13:31:42.322Z</time></trkpt><trkpt lat="39.2834133" lon="8.512925"><ele>152.0</ele><time>2026-05-02T13:31:44.364Z</time></trkpt><trkpt lat="39.2834083" lon="8.513035"><ele>152.0</ele><time>2026-05-02T13:31:46.322Z</time></trkpt><trkpt lat="39.28335" lon="8.5131817"><ele>152.0</ele><time>2026-05-02T13:31:48.322Z</time></trkpt><trkpt lat="39.2833283" lon="8.513265"><ele>152.0</ele><time>2026-05-02T13:31:49.323Z</time></trkpt><trkpt lat="39.28333" lon="8.513405"><ele>152.0</ele><time>2026-05-02T13:31:51.317Z</time></trkpt><trkpt lat="39.2833983" lon="8.5135133"><ele>152.0</ele><time>2026-05-02T13:31:53.322Z</time></trkpt><trkpt lat="39.2834517" lon="8.5135683"><ele>152.0</ele><time>2026-05-02T13:31:54.323Z</time></trkpt><trkpt lat="39.2835167" lon="8.51363"><ele>152.0</ele><time>2026-05-02T13:31:55.319Z</time></trkpt><trkpt lat="39.28358" lon="8.5136683"><ele>152.0</ele><time>2026-05-02T13:31:56.368Z</time></trkpt><trkpt lat="39.283635" lon="8.5137117"><ele>152.0</ele><time>2026-05-02T13:31:57.322Z</time></trkpt><trkpt lat="39.2836833" lon="8.51378"><ele>152.0</ele><time>2026-05-02T13:31:58.322Z</time></trkpt><trkpt lat="39.28374" lon="8.5138967"><ele>152.0</ele><time>2026-05-02T13:32:00.317Z</time></trkpt><trkpt lat="39.2837333" lon="8.5140183"><ele>152.0</ele><time>2026-05-02T13:32:02.367Z</time></trkpt><trkpt lat="39.2836467" lon="8.514135"><ele>152.0</ele><time>2026-05-02T13:32:04.32Z</time></trkpt><trkpt lat="39.2835933" lon="8.5142317"><ele>152.0</ele><time>2026-05-02T13:32:06.321Z</time></trkpt><trkpt lat="39.2836317" lon="8.514345"><ele>152.0</ele><time>2026-05-02T13:32:08.361Z</time></trkpt><trkpt lat="39.2837267" lon="8.514455"><ele>152.0</ele><time>2026-05-02T13:32:10.318Z</time></trkpt><trkpt lat="39.2837983" lon="8.5144983"><ele>152.0</ele><time>2026-05-02T13:32:11.32Z</time></trkpt><trkpt lat="39.283885" lon="8.514535"><ele>150.0</ele><time>2026-05-02T13:32:12.319Z</time></trkpt><trkpt lat="39.283985" lon="8.5145283"><ele>148.0</ele><time>2026-05-02T13:32:13.32Z</time></trkpt><trkpt lat="39.284095" lon="8.5145233"><ele>146.0</ele><time>2026-05-02T13:32:14.363Z</time></trkpt><trkpt lat="39.2842117" lon="8.5145133"><ele>144.0</ele><time>2026-05-02T13:32:15.322Z</time></trkpt><trkpt lat="39.28431" lon="8.514525"><ele>142.0</ele><time>2026-05-02T13:32:16.323Z</time></trkpt><trkpt lat="39.284405" lon="8.51455"><ele>142.79999999999998</ele><time>2026-05-02T13:32:17.32Z</time></trkpt><trkpt lat="39.2845167" lon="8.514585"><ele>143.6</ele><time>2026-05-02T13:32:18.319Z</time></trkpt><trkpt lat="39.2846183" lon="8.514635"><ele>144.39999999999998</ele><time>2026-05-02T13:32:19.319Z</time></trkpt><trkpt lat="39.284715" lon="8.5146917"><ele>145.2</ele><time>2026-05-02T13:32:20.364Z</time></trkpt><trkpt lat="39.284815" lon="8.5147467"><ele>146.0</ele><time>2026-05-02T13:32:21.318Z</time></trkpt><trkpt lat="39.28492" lon="8.5148183"><ele>143.5</ele><time>2026-05-02T13:32:22.322Z</time></trkpt><trkpt lat="39.28503" lon="8.514915"><ele>141.0</ele><time>2026-05-02T13:32:23.321Z</time></trkpt><trkpt lat="39.28513" lon="8.5150117"><ele>138.5</ele><time>2026-05-02T13:32:24.322Z</time></trkpt><trkpt lat="39.2852333" lon="8.5151033"><ele>136.0</ele><time>2026-05-02T13:32:25.319Z</time></trkpt><trkpt lat="39.2853383" lon="8.5151867"><ele>136.0</ele><time>2026-05-02T13:32:26.375Z</time></trkpt><trkpt lat="39.2854533" lon="8.5152617"><ele>136.0</ele><time>2026-05-02T13:32:27.32Z</time></trkpt><trkpt lat="39.2855767" lon="8.51533"><ele>136.0</ele><time>2026-05-02T13:32:28.319Z</time></trkpt><trkpt lat="39.285705" lon="8.5153933"><ele>136.0</ele><time>2026-05-02T13:32:29.32Z</time></trkpt><trkpt lat="39.2858383" lon="8.5154633"><ele>135.25</ele><time>2026-05-02T13:32:30.321Z</time></trkpt><trkpt lat="39.28597" lon="8.5155283"><ele>134.5</ele><time>2026-05-02T13:32:31.322Z</time></trkpt><trkpt lat="39.2860933" lon="8.515585"><ele>133.75</ele><time>2026-05-02T13:32:32.371Z</time></trkpt><trkpt lat="39.2862083" lon="8.5156367"><ele>133.0</ele><time>2026-05-02T13:32:33.322Z</time></trkpt><trkpt lat="39.28632" lon="8.5156567"><ele>133.0</ele><time>2026-05-02T13:32:34.321Z</time></trkpt><trkpt lat="39.2864267" lon="8.515655"><ele>133.0</ele><time>2026-05-02T13:32:35.32Z</time></trkpt><trkpt lat="39.28652" lon="8.5156417"><ele>133.0</ele><time>2026-05-02T13:32:36.32Z</time></trkpt><trkpt lat="39.2866183" lon="8.515635"><ele>133.0</ele><time>2026-05-02T13:32:37.319Z</time></trkpt><trkpt lat="39.2867333" lon="8.51563"><ele>133.0</ele><time>2026-05-02T13:32:38.363Z</time></trkpt><trkpt lat="39.2868417" lon="8.5155783"><ele>133.0</ele><time>2026-05-02T13:32:39.322Z</time></trkpt><trkpt lat="39.286965" lon="8.5155"><ele>133.0</ele><time>2026-05-02T13:32:40.319Z</time></trkpt><trkpt lat="39.287075" lon="8.5154467"><ele>133.0</ele><time>2026-05-02T13:32:41.324Z</time></trkpt><trkpt lat="39.287205" lon="8.5153783"><ele>133.0</ele><time>2026-05-02T13:32:42.322Z</time></trkpt><trkpt lat="39.2873317" lon="8.515305"><ele>132.5</ele><time>2026-05-02T13:32:43.322Z</time></trkpt><trkpt lat="39.2874417" lon="8.51524"><ele>132.0</ele><time>2026-05-02T13:32:44.366Z</time></trkpt><trkpt lat="39.2875583" lon="8.515195"><ele>131.5</ele><time>2026-05-02T13:32:45.317Z</time></trkpt><trkpt lat="39.287685" lon="8.515135"><ele>131.0</ele><time>2026-05-02T13:32:46.322Z</time></trkpt><trkpt lat="39.2877967" lon="8.5150917"><ele>131.0</ele><time>2026-05-02T13:32:47.324Z</time></trkpt><trkpt lat="39.2879017" lon="8.51506"><ele>131.0</ele><time>2026-05-02T13:32:48.319Z</time></trkpt><trkpt lat="39.2880283" lon="8.515015"><ele>131.0</ele><time>2026-05-02T13:32:49.321Z</time></trkpt><trkpt lat="39.288155" lon="8.514975"><ele>131.0</ele><time>2026-05-02T13:32:50.366Z</time></trkpt><trkpt lat="39.2882883" lon="8.5149417"><ele>129.0</ele><time>2026-05-02T13:32:51.324Z</time></trkpt><trkpt lat="39.2884133" lon="8.5149"><ele>127.0</ele><time>2026-05-02T13:32:52.322Z</time></trkpt><trkpt lat="39.2885383" lon="8.5148617"><ele>125.0</ele><time>2026-05-02T13:32:53.324Z</time></trkpt><trkpt lat="39.2886767" lon="8.5148633"><ele>123.0</ele><time>2026-05-02T13:32:54.318Z</time></trkpt><trkpt lat="39.2888017" lon="8.5148183"><ele>121.75</ele><time>2026-05-02T13:32:55.323Z</time></trkpt><trkpt lat="39.2889267" lon="8.514785"><ele>120.5</ele><time>2026-05-02T13:32:56.373Z</time></trkpt><trkpt lat="39.28906" lon="8.5147517"><ele>119.25</ele><time>2026-05-02T13:32:57.32Z</time></trkpt><trkpt lat="39.2892117" lon="8.5147883"><ele>118.0</ele><time>2026-05-02T13:32:58.323Z</time></trkpt><trkpt lat="39.2893633" lon="8.5148183"><ele>118.0</ele><time>2026-05-02T13:32:59.321Z</time></trkpt><trkpt lat="39.2895167" lon="8.5148567"><ele>118.0</ele><time>2026-05-02T13:33:00.322Z</time></trkpt><trkpt lat="39.2896533" lon="8.5148783"><ele>118.0</ele><time>2026-05-02T13:33:01.322Z</time></trkpt><trkpt lat="39.2897917" lon="8.5149067"><ele>118.0</ele><time>2026-05-02T13:33:02.373Z</time></trkpt><trkpt lat="39.2899233" lon="8.5149383"><ele>117.75</ele><time>2026-05-02T13:33:03.323Z</time></trkpt><trkpt lat="39.2900517" lon="8.5149533"><ele>117.5</ele><time>2026-05-02T13:33:04.321Z</time></trkpt><trkpt lat="39.290185" lon="8.5149533"><ele>117.25</ele><time>2026-05-02T13:33:05.325Z</time></trkpt><trkpt lat="39.29032" lon="8.5149567"><ele>117.0</ele><time>2026-05-02T13:33:06.321Z</time></trkpt><trkpt lat="39.29045" lon="8.5149633"><ele>117.0</ele><time>2026-05-02T13:33:07.321Z</time></trkpt><trkpt lat="39.2905767" lon="8.5149683"><ele>117.0</ele><time>2026-05-02T13:33:08.368Z</time></trkpt><trkpt lat="39.2906883" lon="8.5149767"><ele>117.0</ele><time>2026-05-02T13:33:09.318Z</time></trkpt><trkpt lat="39.2907867" lon="8.5149817"><ele>117.0</ele><time>2026-05-02T13:33:10.321Z</time></trkpt><trkpt lat="39.290915" lon="8.5150183"><ele>117.5</ele><time>2026-05-02T13:33:11.322Z</time></trkpt><trkpt lat="39.291025" lon="8.5150417"><ele>118.0</ele><time>2026-05-02T13:33:12.322Z</time></trkpt><trkpt lat="39.29114" lon="8.5150833"><ele>118.5</ele><time>2026-05-02T13:33:13.322Z</time></trkpt><trkpt lat="39.2912683" lon="8.5151083"><ele>119.0</ele><time>2026-05-02T13:33:14.364Z</time></trkpt><trkpt lat="39.291395" lon="8.5151267"><ele>119.75</ele><time>2026-05-02T13:33:15.323Z</time></trkpt><trkpt lat="39.2915283" lon="8.5151433"><ele>120.5</ele><time>2026-05-02T13:33:16.322Z</time></trkpt><trkpt lat="39.2916533" lon="8.5151467"><ele>121.25</ele><time>2026-05-02T13:33:17.32Z</time></trkpt><trkpt lat="39.2917717" lon="8.5151533"><ele>122.0</ele><time>2026-05-02T13:33:18.32Z</time></trkpt><trkpt lat="39.2918867" lon="8.5151767"><ele>122.0</ele><time>2026-05-02T13:33:19.32Z</time></trkpt><trkpt lat="39.29197" lon="8.5151617"><ele>121.99999999999999</ele><time>2026-05-02T13:33:20.367Z</time></trkpt><trkpt lat="39.29205" lon="8.5151567"><ele>121.99999999999999</ele><time>2026-05-02T13:33:21.319Z</time></trkpt><trkpt lat="39.292175" lon="8.5151317"><ele>122.0</ele><time>2026-05-02T13:33:23.325Z</time></trkpt><trkpt lat="39.292295" lon="8.5151383"><ele>122.0</ele><time>2026-05-02T13:33:25.32Z</time></trkpt><trkpt lat="39.2923883" lon="8.5150667"><ele>122.6</ele><time>2026-05-02T13:33:27.326Z</time></trkpt><trkpt lat="39.292465" lon="8.5149417"><ele>123.19999999999999</ele><time>2026-05-02T13:33:29.323Z</time></trkpt><trkpt lat="39.2924983" lon="8.5148567"><ele>123.8</ele><time>2026-05-02T13:33:30.32Z</time></trkpt><trkpt lat="39.29254" lon="8.5147617"><ele>124.4</ele><time>2026-05-02T13:33:31.322Z</time></trkpt><trkpt lat="39.2925917" lon="8.5146683"><ele>125.0</ele><time>2026-05-02T13:33:32.368Z</time></trkpt><trkpt lat="39.292645" lon="8.51456"><ele>125.4</ele><time>2026-05-02T13:33:33.325Z</time></trkpt><trkpt lat="39.2927067" lon="8.5144517"><ele>125.8</ele><time>2026-05-02T13:33:34.321Z</time></trkpt><trkpt lat="39.2927667" lon="8.5143483"><ele>126.19999999999999</ele><time>2026-05-02T13:33:35.323Z</time></trkpt><trkpt lat="39.292825" lon="8.5142317"><ele>126.6</ele><time>2026-05-02T13:33:36.321Z</time></trkpt><trkpt lat="39.2928717" lon="8.5141017"><ele>127.0</ele><time>2026-05-02T13:33:37.324Z</time></trkpt><trkpt lat="39.2929133" lon="8.5139817"><ele>127.00000000000001</ele><time>2026-05-02T13:33:38.365Z</time></trkpt><trkpt lat="39.2929583" lon="8.5138767"><ele>127.0</ele><time>2026-05-02T13:33:39.321Z</time></trkpt><trkpt lat="39.2930167" lon="8.513775"><ele>127.0</ele><time>2026-05-02T13:33:40.32Z</time></trkpt><trkpt lat="39.2930817" lon="8.5136967"><ele>127.0</ele><time>2026-05-02T13:33:41.319Z</time></trkpt><trkpt lat="39.2931467" lon="8.5136233"><ele>127.00000000000001</ele><time>2026-05-02T13:33:42.32Z</time></trkpt><trkpt lat="39.29319" lon="8.5135517"><ele>127.0</ele><time>2026-05-02T13:33:43.323Z</time></trkpt><trkpt lat="39.2932483" lon="8.51352"><ele>127.6</ele><time>2026-05-02T13:33:44.363Z</time></trkpt><trkpt lat="39.2933483" lon="8.513515"><ele>128.2</ele><time>2026-05-02T13:33:46.317Z</time></trkpt><trkpt lat="39.2934033" lon="8.51359"><ele>128.8</ele><time>2026-05-02T13:33:48.32Z</time></trkpt><trkpt lat="39.293475" lon="8.5136233"><ele>129.4</ele><time>2026-05-02T13:33:50.364Z</time></trkpt><trkpt lat="39.2935667" lon="8.5136367"><ele>130.0</ele><time>2026-05-02T13:33:52.32Z</time></trkpt><trkpt lat="39.29367" lon="8.5135983"><ele>130.0</ele><time>2026-05-02T13:33:54.32Z</time></trkpt><trkpt lat="39.29379" lon="8.5135917"><ele>130.0</ele><time>2026-05-02T13:33:56.37Z</time></trkpt><trkpt lat="39.2938833" lon="8.5136217"><ele>130.0</ele><time>2026-05-02T13:33:58.322Z</time></trkpt><trkpt lat="39.293975" lon="8.51361"><ele>130.0</ele><time>2026-05-02T13:34:00.325Z</time></trkpt><trkpt lat="39.29405" lon="8.5135833"><ele>130.0</ele><time>2026-05-02T13:34:02.369Z</time></trkpt><trkpt lat="39.29412" lon="8.513545"><ele>130.33333333333334</ele><time>2026-05-02T13:34:04.324Z</time></trkpt><trkpt lat="39.294175" lon="8.513465"><ele>130.66666666666669</ele><time>2026-05-02T13:34:06.322Z</time></trkpt><trkpt lat="39.2942267" lon="8.5133183"><ele>131.0</ele><time>2026-05-02T13:34:08.368Z</time></trkpt><trkpt lat="39.29426" lon="8.5132333"><ele>131.33333333333334</ele><time>2026-05-02T13:34:09.321Z</time></trkpt><trkpt lat="39.2943033" lon="8.5131483"><ele>131.66666666666666</ele><time>2026-05-02T13:34:10.32Z</time></trkpt><trkpt lat="39.2943533" lon="8.51307"><ele>132.0</ele><time>2026-05-02T13:34:11.324Z</time></trkpt><trkpt lat="39.29441" lon="8.5130067"><ele>132.0</ele><time>2026-05-02T13:34:12.322Z</time></trkpt><trkpt lat="39.29447" lon="8.5129583"><ele>132.0</ele><time>2026-05-02T13:34:13.321Z</time></trkpt><trkpt lat="39.29454" lon="8.512925"><ele>132.0</ele><time>2026-05-02T13:34:14.363Z</time></trkpt><trkpt lat="39.29462" lon="8.5129067"><ele>132.0</ele><time>2026-05-02T13:34:15.322Z</time></trkpt><trkpt lat="39.2946967" lon="8.5128933"><ele>132.0</ele><time>2026-05-02T13:34:16.322Z</time></trkpt><trkpt lat="39.2947667" lon="8.5128767"><ele>132.0</ele><time>2026-05-02T13:34:17.323Z</time></trkpt><trkpt lat="39.29483" lon="8.5128467"><ele>132.0</ele><time>2026-05-02T13:34:18.323Z</time></trkpt><trkpt lat="39.29489" lon="8.5128"><ele>132.4</ele><time>2026-05-02T13:34:19.322Z</time></trkpt><trkpt lat="39.294945" lon="8.512745"><ele>132.79999999999998</ele><time>2026-05-02T13:34:20.372Z</time></trkpt><trkpt lat="39.2950517" lon="8.5126617"><ele>133.2</ele><time>2026-05-02T13:34:22.321Z</time></trkpt><trkpt lat="39.29516" lon="8.5126167"><ele>133.6</ele><time>2026-05-02T13:34:24.322Z</time></trkpt><trkpt lat="39.2952383" lon="8.512585"><ele>134.0</ele><time>2026-05-02T13:34:26.37Z</time></trkpt><trkpt lat="39.29527" lon="8.5126917"><ele>134.0</ele><time>2026-05-02T13:34:31.323Z</time></trkpt><trkpt lat="39.295375" lon="8.51272"><ele>134.0</ele><time>2026-05-02T13:34:33.322Z</time></trkpt><trkpt lat="39.2955067" lon="8.51276"><ele>134.0</ele><time>2026-05-02T13:34:35.321Z</time></trkpt><trkpt lat="39.2955933" lon="8.5127483"><ele>134.0</ele><time>2026-05-02T13:34:36.321Z</time></trkpt><trkpt lat="39.2956983" lon="8.5127233"><ele>134.0</ele><time>2026-05-02T13:34:37.325Z</time></trkpt><trkpt lat="39.2958083" lon="8.51269"><ele>135.5</ele><time>2026-05-02T13:34:38.363Z</time></trkpt><trkpt lat="39.29593" lon="8.51265"><ele>137.0</ele><time>2026-05-02T13:34:39.321Z</time></trkpt><trkpt lat="39.2960567" lon="8.5126033"><ele>138.5</ele><time>2026-05-02T13:34:40.321Z</time></trkpt><trkpt lat="39.2961833" lon="8.512565"><ele>140.0</ele><time>2026-05-02T13:34:41.324Z</time></trkpt><trkpt lat="39.2963117" lon="8.51254"><ele>142.25</ele><time>2026-05-02T13:34:42.324Z</time></trkpt><trkpt lat="39.296435" lon="8.5125167"><ele>144.5</ele><time>2026-05-02T13:34:43.321Z</time></trkpt><trkpt lat="39.2965517" lon="8.51249"><ele>146.75</ele><time>2026-05-02T13:34:44.361Z</time></trkpt><trkpt lat="39.2966667" lon="8.5124717"><ele>149.0</ele><time>2026-05-02T13:34:45.322Z</time></trkpt><trkpt lat="39.296785" lon="8.5124567"><ele>149.0</ele><time>2026-05-02T13:34:46.322Z</time></trkpt><trkpt lat="39.296885" lon="8.5124517"><ele>149.0</ele><time>2026-05-02T13:34:47.323Z</time></trkpt><trkpt lat="39.296975" lon="8.5124517"><ele>149.0</ele><time>2026-05-02T13:34:48.32Z</time></trkpt><trkpt lat="39.297065" lon="8.5124483"><ele>149.0</ele><time>2026-05-02T13:34:49.32Z</time></trkpt><trkpt lat="39.2971533" lon="8.512435"><ele>149.0</ele><time>2026-05-02T13:34:50.364Z</time></trkpt><trkpt lat="39.2972317" lon="8.512415"><ele>149.0</ele><time>2026-05-02T13:34:51.32Z</time></trkpt><trkpt lat="39.297305" lon="8.512405"><ele>148.6</ele><time>2026-05-02T13:34:52.321Z</time></trkpt><trkpt lat="39.2973783" lon="8.5124117"><ele>148.2</ele><time>2026-05-02T13:34:53.322Z</time></trkpt><trkpt lat="39.2974467" lon="8.5124167"><ele>147.79999999999998</ele><time>2026-05-02T13:34:54.333Z</time></trkpt><trkpt lat="39.297555" lon="8.512415"><ele>147.4</ele><time>2026-05-02T13:34:56.378Z</time></trkpt><trkpt lat="39.2976617" lon="8.5123983"><ele>147.0</ele><time>2026-05-02T13:34:58.32Z</time></trkpt><trkpt lat="39.29777" lon="8.5123267"><ele>147.0</ele><time>2026-05-02T13:35:00.316Z</time></trkpt><trkpt lat="39.2978517" lon="8.512215"><ele>147.0</ele><time>2026-05-02T13:35:02.366Z</time></trkpt><trkpt lat="39.2978833" lon="8.5121283"><ele>147.0</ele><time>2026-05-02T13:35:03.32Z</time></trkpt><trkpt lat="39.29792" lon="8.5120283"><ele>147.0</ele><time>2026-05-02T13:35:04.32Z</time></trkpt><trkpt lat="39.2979583" lon="8.5119433"><ele>147.0</ele><time>2026-05-02T13:35:05.319Z</time></trkpt><trkpt lat="39.2979983" lon="8.5118367"><ele>147.0</ele><time>2026-05-02T13:35:06.322Z</time></trkpt><trkpt lat="39.2980383" lon="8.5117517"><ele>146.83333333333334</ele><time>2026-05-02T13:35:07.322Z</time></trkpt><trkpt lat="39.2980767" lon="8.51168"><ele>146.66666666666666</ele><time>2026-05-02T13:35:08.363Z</time></trkpt><trkpt lat="39.2981317" lon="8.5115817"><ele>146.5</ele><time>2026-05-02T13:35:10.321Z</time></trkpt><trkpt lat="39.2981567" lon="8.5114883"><ele>146.33333333333331</ele><time>2026-05-02T13:35:13.32Z</time></trkpt><trkpt lat="39.2981217" lon="8.5113667"><ele>146.16666666666666</ele><time>2026-05-02T13:35:15.32Z</time></trkpt><trkpt lat="39.2980833" lon="8.5112883"><ele>146.0</ele><time>2026-05-02T13:35:16.321Z</time></trkpt><trkpt lat="39.2980433" lon="8.511185"><ele>145.0</ele><time>2026-05-02T13:35:17.322Z</time></trkpt><trkpt lat="39.2980033" lon="8.5110617"><ele>144.0</ele><time>2026-05-02T13:35:18.319Z</time></trkpt><trkpt lat="39.2979833" lon="8.5109417"><ele>143.0</ele><time>2026-05-02T13:35:19.317Z</time></trkpt><trkpt lat="39.2979717" lon="8.510805"><ele>142.0</ele><time>2026-05-02T13:35:20.369Z</time></trkpt><trkpt lat="39.2979733" lon="8.5106833"><ele>141.0</ele><time>2026-05-02T13:35:21.317Z</time></trkpt><trkpt lat="39.2979933" lon="8.5105833"><ele>141.0</ele><time>2026-05-02T13:35:22.321Z</time></trkpt><trkpt lat="39.2980733" lon="8.5105133"><ele>141.0</ele><time>2026-05-02T13:35:23.322Z</time></trkpt><trkpt lat="39.298155" lon="8.5104633"><ele>141.0</ele><time>2026-05-02T13:35:24.319Z</time></trkpt><trkpt lat="39.2982367" lon="8.5104233"><ele>141.0</ele><time>2026-05-02T13:35:25.322Z</time></trkpt><trkpt lat="39.2983333" lon="8.510415"><ele>141.0</ele><time>2026-05-02T13:35:26.378Z</time></trkpt><trkpt lat="39.2984083" lon="8.51042"><ele>141.0</ele><time>2026-05-02T13:35:27.318Z</time></trkpt><trkpt lat="39.2984083" lon="8.51055"><ele>142.0</ele><time>2026-05-02T13:35:28.32Z</time></trkpt><trkpt lat="39.2984017" lon="8.5106733"><ele>143.0</ele><time>2026-05-02T13:35:29.316Z</time></trkpt><trkpt lat="39.2983733" lon="8.5108017"><ele>144.0</ele><time>2026-05-02T13:35:30.322Z</time></trkpt><trkpt lat="39.29834" lon="8.510945"><ele>145.0</ele><time>2026-05-02T13:35:31.321Z</time></trkpt><trkpt lat="39.29827" lon="8.5112"><ele>145.5</ele><time>2026-05-02T13:35:32.367Z</time></trkpt><trkpt lat="39.2981967" lon="8.5114683"><ele>146.0</ele><time>2026-05-02T13:35:33.323Z</time></trkpt><trkpt lat="39.298115" lon="8.5117833"><ele>146.5</ele><time>2026-05-02T13:35:34.321Z</time></trkpt><trkpt lat="39.2980133" lon="8.5120633"><ele>147.0</ele><time>2026-05-02T13:35:35.321Z</time></trkpt><trkpt lat="39.2979183" lon="8.5123433"><ele>147.0</ele><time>2026-05-02T13:35:36.324Z</time></trkpt><trkpt lat="39.297815" lon="8.512615"><ele>147.0</ele><time>2026-05-02T13:35:37.323Z</time></trkpt><trkpt lat="39.2977033" lon="8.5128883"><ele>148.5</ele><time>2026-05-02T13:35:38.362Z</time></trkpt><trkpt lat="39.29759" lon="8.5131683"><ele>150.0</ele><time>2026-05-02T13:35:39.321Z</time></trkpt><trkpt lat="39.2975067" lon="8.5134117"><ele>150.0</ele><time>2026-05-02T13:35:40.322Z</time></trkpt><trkpt lat="39.2974117" lon="8.5136667"><ele>150.0</ele><time>2026-05-02T13:35:41.32Z</time></trkpt><trkpt lat="39.2973233" lon="8.51393"><ele>150.0</ele><time>2026-05-02T13:35:42.323Z</time></trkpt><trkpt lat="39.2972433" lon="8.5142083"><ele>150.33333333333334</ele><time>2026-05-02T13:35:43.321Z</time></trkpt><trkpt lat="39.2971533" lon="8.5144733"><ele>150.66666666666669</ele><time>2026-05-02T13:35:44.364Z</time></trkpt><trkpt lat="39.2970783" lon="8.5147367"><ele>151.0</ele><time>2026-05-02T13:35:45.321Z</time></trkpt><trkpt lat="39.2970267" lon="8.515005"><ele>151.33333333333334</ele><time>2026-05-02T13:35:46.319Z</time></trkpt><trkpt lat="39.29698" lon="8.5152783"><ele>151.66666666666666</ele><time>2026-05-02T13:35:47.317Z</time></trkpt><trkpt lat="39.2969367" lon="8.5155617"><ele>152.0</ele><time>2026-05-02T13:35:48.32Z</time></trkpt><trkpt lat="39.2969017" lon="8.5158417"><ele>152.0</ele><time>2026-05-02T13:35:49.322Z</time></trkpt><trkpt lat="39.2968633" lon="8.5161233"><ele>152.0</ele><time>2026-05-02T13:35:50.363Z</time></trkpt><trkpt lat="39.2968217" lon="8.5164217"><ele>151.0</ele><time>2026-05-02T13:35:51.318Z</time></trkpt><trkpt lat="39.29678" lon="8.5167133"><ele>150.0</ele><time>2026-05-02T13:35:52.318Z</time></trkpt><trkpt lat="39.2967383" lon="8.5170017"><ele>147.0</ele><time>2026-05-02T13:35:53.323Z</time></trkpt><trkpt lat="39.29671" lon="8.5172967"><ele>144.0</ele><time>2026-05-02T13:35:54.323Z</time></trkpt><trkpt lat="39.29669" lon="8.5175717"><ele>141.0</ele><time>2026-05-02T13:35:55.321Z</time></trkpt><trkpt lat="39.2966533" lon="8.517855"><ele>140.33333333333334</ele><time>2026-05-02T13:35:56.354Z</time></trkpt><trkpt lat="39.2966067" lon="8.51812"><ele>139.66666666666669</ele><time>2026-05-02T13:35:57.317Z</time></trkpt><trkpt lat="39.2965667" lon="8.5184"><ele>139.0</ele><time>2026-05-02T13:35:58.32Z</time></trkpt><trkpt lat="39.2965283" lon="8.518675"><ele>140.0</ele><time>2026-05-02T13:35:59.317Z</time></trkpt><trkpt lat="39.2964967" lon="8.5189583"><ele>141.0</ele><time>2026-05-02T13:36:00.322Z</time></trkpt><trkpt lat="39.2964567" lon="8.5192417"><ele>142.0</ele><time>2026-05-02T13:36:01.318Z</time></trkpt><trkpt lat="39.29642" lon="8.5195183"><ele>143.0</ele><time>2026-05-02T13:36:02.367Z</time></trkpt><trkpt lat="39.296385" lon="8.5197833"><ele>144.0</ele><time>2026-05-02T13:36:03.321Z</time></trkpt><trkpt lat="39.2963467" lon="8.5200767"><ele>145.0</ele><time>2026-05-02T13:36:04.319Z</time></trkpt><trkpt lat="39.2963017" lon="8.5203567"><ele>143.0</ele><time>2026-05-02T13:36:05.317Z</time></trkpt><trkpt lat="39.296265" lon="8.5206483"><ele>141.0</ele><time>2026-05-02T13:36:06.32Z</time></trkpt><trkpt lat="39.2962233" lon="8.5209317"><ele>141.0</ele><time>2026-05-02T13:36:07.319Z</time></trkpt><trkpt lat="39.2961817" lon="8.5212233"><ele>141.0</ele><time>2026-05-02T13:36:08.363Z</time></trkpt><trkpt lat="39.2961533" lon="8.5214933"><ele>141.0</ele><time>2026-05-02T13:36:09.322Z</time></trkpt><trkpt lat="39.2961183" lon="8.521765"><ele>137.5</ele><time>2026-05-02T13:36:10.322Z</time></trkpt><trkpt lat="39.2960733" lon="8.52205"><ele>134.0</ele><time>2026-05-02T13:36:11.321Z</time></trkpt><trkpt lat="39.2960167" lon="8.522335"><ele>134.0</ele><time>2026-05-02T13:36:12.318Z</time></trkpt><trkpt lat="39.2959733" lon="8.5226017"><ele>134.0</ele><time>2026-05-02T13:36:13.322Z</time></trkpt><trkpt lat="39.2959267" lon="8.5228933"><ele>134.0</ele><time>2026-05-02T13:36:14.364Z</time></trkpt><trkpt lat="39.2958717" lon="8.5231683"><ele>134.66666666666666</ele><time>2026-05-02T13:36:15.321Z</time></trkpt><trkpt lat="39.295815" lon="8.523445"><ele>135.33333333333334</ele><time>2026-05-02T13:36:16.322Z</time></trkpt><trkpt lat="39.2957583" lon="8.5237217"><ele>136.0</ele><time>2026-05-02T13:36:17.321Z</time></trkpt><trkpt lat="39.295675" lon="8.5239917"><ele>138.5</ele><time>2026-05-02T13:36:18.323Z</time></trkpt><trkpt lat="39.29559" lon="8.5242617"><ele>141.0</ele><time>2026-05-02T13:36:19.322Z</time></trkpt><trkpt lat="39.2955133" lon="8.5245383"><ele>142.66666666666666</ele><time>2026-05-02T13:36:20.363Z</time></trkpt><trkpt lat="39.2954383" lon="8.5247933"><ele>144.33333333333331</ele><time>2026-05-02T13:36:21.318Z</time></trkpt><trkpt lat="39.29537" lon="8.5250417"><ele>146.0</ele><time>2026-05-02T13:36:22.322Z</time></trkpt><trkpt lat="39.2953017" lon="8.5252983"><ele>146.0</ele><time>2026-05-02T13:36:23.321Z</time></trkpt><trkpt lat="39.2952183" lon="8.5255217"><ele>146.0</ele><time>2026-05-02T13:36:24.317Z</time></trkpt><trkpt lat="39.2951417" lon="8.5257717"><ele>146.0</ele><time>2026-05-02T13:36:25.322Z</time></trkpt><trkpt lat="39.295085" lon="8.52601"><ele>146.66666666666666</ele><time>2026-05-02T13:36:26.382Z</time></trkpt><trkpt lat="39.2950167" lon="8.5262767"><ele>147.33333333333334</ele><time>2026-05-02T13:36:27.32Z</time></trkpt><trkpt lat="39.2949567" lon="8.52652"><ele>148.0</ele><time>2026-05-02T13:36:28.32Z</time></trkpt><trkpt lat="39.2948783" lon="8.52678"><ele>148.0</ele><time>2026-05-02T13:36:29.323Z</time></trkpt><trkpt lat="39.2948033" lon="8.52704"><ele>148.0</ele><time>2026-05-02T13:36:30.32Z</time></trkpt><trkpt lat="39.2947317" lon="8.5273033"><ele>148.0</ele><time>2026-05-02T13:36:31.322Z</time></trkpt><trkpt lat="39.2946667" lon="8.5275733"><ele>148.66666666666669</ele><time>2026-05-02T13:36:32.368Z</time></trkpt><trkpt lat="39.2945983" lon="8.527825"><ele>149.33333333333334</ele><time>2026-05-02T13:36:33.322Z</time></trkpt><trkpt lat="39.2945367" lon="8.5280683"><ele>150.0</ele><time>2026-05-02T13:36:34.32Z</time></trkpt><trkpt lat="39.294475" lon="8.5283217"><ele>152.0</ele><time>2026-05-02T13:36:35.318Z</time></trkpt><trkpt lat="39.2944033" lon="8.5285817"><ele>154.0</ele><time>2026-05-02T13:36:36.324Z</time></trkpt><trkpt lat="39.2943283" lon="8.528835"><ele>156.0</ele><time>2026-05-02T13:36:37.319Z</time></trkpt><trkpt lat="39.2942517" lon="8.5290983"><ele>158.66666666666666</ele><time>2026-05-02T13:36:38.362Z</time></trkpt><trkpt lat="39.2941883" lon="8.5293483"><ele>161.33333333333331</ele><time>2026-05-02T13:36:39.316Z</time></trkpt><trkpt lat="39.2941117" lon="8.529595"><ele>164.0</ele><time>2026-05-02T13:36:40.321Z</time></trkpt><trkpt lat="39.2940333" lon="8.5298617"><ele>165.66666666666666</ele><time>2026-05-02T13:36:41.317Z</time></trkpt><trkpt lat="39.2939617" lon="8.5301333"><ele>167.33333333333334</ele><time>2026-05-02T13:36:42.318Z</time></trkpt><trkpt lat="39.2938817" lon="8.5303983"><ele>169.0</ele><time>2026-05-02T13:36:43.322Z</time></trkpt><trkpt lat="39.2938133" lon="8.53068"><ele>171.66666666666669</ele><time>2026-05-02T13:36:44.366Z</time></trkpt><trkpt lat="39.293735" lon="8.5309417"><ele>174.33333333333334</ele><time>2026-05-02T13:36:45.321Z</time></trkpt><trkpt lat="39.2936733" lon="8.5311817"><ele>177.0</ele><time>2026-05-02T13:36:46.322Z</time></trkpt><trkpt lat="39.2935983" lon="8.531455"><ele>179.0</ele><time>2026-05-02T13:36:47.319Z</time></trkpt><trkpt lat="39.2935183" lon="8.531715"><ele>181.0</ele><time>2026-05-02T13:36:48.318Z</time></trkpt><trkpt lat="39.293435" lon="8.531995"><ele>183.0</ele><time>2026-05-02T13:36:49.323Z</time></trkpt><trkpt lat="39.2933583" lon="8.5322767"><ele>185.33333333333334</ele><time>2026-05-02T13:36:50.361Z</time></trkpt><trkpt lat="39.2933067" lon="8.5325433"><ele>187.66666666666669</ele><time>2026-05-02T13:36:51.317Z</time></trkpt><trkpt lat="39.2932567" lon="8.5327817"><ele>190.0</ele><time>2026-05-02T13:36:52.32Z</time></trkpt><trkpt lat="39.2932067" lon="8.533055"><ele>191.0</ele><time>2026-05-02T13:36:53.323Z</time></trkpt><trkpt lat="39.2931667" lon="8.5333317"><ele>192.0</ele><time>2026-05-02T13:36:54.32Z</time></trkpt><trkpt lat="39.2931267" lon="8.5336217"><ele>193.0</ele><time>2026-05-02T13:36:55.319Z</time></trkpt><trkpt lat="39.293105" lon="8.5339267"><ele>194.33333333333331</ele><time>2026-05-02T13:36:56.38Z</time></trkpt><trkpt lat="39.2930917" lon="8.5342083"><ele>195.66666666666669</ele><time>2026-05-02T13:36:57.318Z</time></trkpt><trkpt lat="39.29308" lon="8.534485"><ele>197.0</ele><time>2026-05-02T13:36:58.319Z</time></trkpt><trkpt lat="39.293065" lon="8.5347683"><ele>200.0</ele><time>2026-05-02T13:36:59.322Z</time></trkpt><trkpt lat="39.2930567" lon="8.5350467"><ele>203.0</ele><time>2026-05-02T13:37:00.321Z</time></trkpt><trkpt lat="39.2930483" lon="8.5353317"><ele>206.0</ele><time>2026-05-02T13:37:01.319Z</time></trkpt><trkpt lat="39.29306" lon="8.5356367"><ele>207.0</ele><time>2026-05-02T13:37:02.368Z</time></trkpt><trkpt lat="39.2930583" lon="8.5359167"><ele>208.0</ele><time>2026-05-02T13:37:03.319Z</time></trkpt><trkpt lat="39.2930767" lon="8.5362"><ele>209.0</ele><time>2026-05-02T13:37:04.322Z</time></trkpt><trkpt lat="39.2931083" lon="8.53649"><ele>206.33333333333334</ele><time>2026-05-02T13:37:05.321Z</time></trkpt><trkpt lat="39.2931433" lon="8.53677"><ele>203.66666666666669</ele><time>2026-05-02T13:37:06.32Z</time></trkpt><trkpt lat="39.2932067" lon="8.537035"><ele>201.0</ele><time>2026-05-02T13:37:07.321Z</time></trkpt><trkpt lat="39.293265" lon="8.5373133"><ele>201.0</ele><time>2026-05-02T13:37:08.363Z</time></trkpt><trkpt lat="39.29332" lon="8.5376"><ele>201.0</ele><time>2026-05-02T13:37:09.322Z</time></trkpt><trkpt lat="39.2933733" lon="8.5378517"><ele>201.0</ele><time>2026-05-02T13:37:10.321Z</time></trkpt><trkpt lat="39.2934167" lon="8.53811"><ele>203.33333333333331</ele><time>2026-05-02T13:37:11.322Z</time></trkpt><trkpt lat="39.2934767" lon="8.5383767"><ele>205.66666666666666</ele><time>2026-05-02T13:37:12.319Z</time></trkpt><trkpt lat="39.293555" lon="8.5386467"><ele>208.0</ele><time>2026-05-02T13:37:13.322Z</time></trkpt><trkpt lat="39.29364" lon="8.5389267"><ele>211.0</ele><time>2026-05-02T13:37:14.363Z</time></trkpt><trkpt lat="39.2937233" lon="8.53921"><ele>214.0</ele><time>2026-05-02T13:37:15.32Z</time></trkpt><trkpt lat="39.2938117" lon="8.5394933"><ele>214.5</ele><time>2026-05-02T13:37:16.321Z</time></trkpt><trkpt lat="39.2939" lon="8.5397817"><ele>215.0</ele><time>2026-05-02T13:37:17.322Z</time></trkpt><trkpt lat="39.2939883" lon="8.5400417"><ele>214.0</ele><time>2026-05-02T13:37:18.319Z</time></trkpt><trkpt lat="39.2940767" lon="8.540325"><ele>213.0</ele><time>2026-05-02T13:37:19.318Z</time></trkpt><trkpt lat="39.29417" lon="8.5406167"><ele>213.0</ele><time>2026-05-02T13:37:20.363Z</time></trkpt><trkpt lat="39.2942617" lon="8.5408917"><ele>213.0</ele><time>2026-05-02T13:37:21.321Z</time></trkpt><trkpt lat="39.29435" lon="8.541175"><ele>215.33333333333331</ele><time>2026-05-02T13:37:22.318Z</time></trkpt><trkpt lat="39.29444" lon="8.5414383"><ele>217.66666666666666</ele><time>2026-05-02T13:37:23.322Z</time></trkpt><trkpt lat="39.294525" lon="8.5416917"><ele>220.0</ele><time>2026-05-02T13:37:24.322Z</time></trkpt><trkpt lat="39.29461" lon="8.541975"><ele>220.66666666666666</ele><time>2026-05-02T13:37:25.319Z</time></trkpt><trkpt lat="39.2947233" lon="8.5422117"><ele>221.33333333333331</ele><time>2026-05-02T13:37:26.378Z</time></trkpt><trkpt lat="39.294805" lon="8.5424717"><ele>222.0</ele><time>2026-05-02T13:37:27.32Z</time></trkpt><trkpt lat="39.294895" lon="8.542745"><ele>220.0</ele><time>2026-05-02T13:37:28.32Z</time></trkpt><trkpt lat="39.2949767" lon="8.54298"><ele>218.0</ele><time>2026-05-02T13:37:29.321Z</time></trkpt><trkpt lat="39.29506" lon="8.5432717"><ele>216.0</ele><time>2026-05-02T13:37:30.319Z</time></trkpt><trkpt lat="39.295125" lon="8.543575"><ele>219.0</ele><time>2026-05-02T13:37:31.322Z</time></trkpt><trkpt lat="39.2952167" lon="8.5438617"><ele>222.0</ele><time>2026-05-02T13:37:32.366Z</time></trkpt><trkpt lat="39.295305" lon="8.544165"><ele>222.0</ele><time>2026-05-02T13:37:33.317Z</time></trkpt><trkpt lat="39.2954" lon="8.5444383"><ele>222.0</ele><time>2026-05-02T13:37:34.322Z</time></trkpt><trkpt lat="39.2955" lon="8.5446933"><ele>224.33333333333331</ele><time>2026-05-02T13:37:35.316Z</time></trkpt><trkpt lat="39.2955983" lon="8.544935"><ele>226.66666666666666</ele><time>2026-05-02T13:37:36.315Z</time></trkpt><trkpt lat="39.2956767" lon="8.5452067"><ele>229.0</ele><time>2026-05-02T13:37:37.322Z</time></trkpt><trkpt lat="39.2957517" lon="8.545485"><ele>238.0</ele><time>2026-05-02T13:37:38.362Z</time></trkpt><trkpt lat="39.29584" lon="8.5457833"><ele>247.0</ele><time>2026-05-02T13:37:39.319Z</time></trkpt><trkpt lat="39.29593" lon="8.54608"><ele>253.5</ele><time>2026-05-02T13:37:40.318Z</time></trkpt><trkpt lat="39.29602" lon="8.5463683"><ele>260.0</ele><time>2026-05-02T13:37:41.317Z</time></trkpt><trkpt lat="39.2970267" lon="8.5501333"><ele>238.0</ele><time>2026-05-02T13:37:54.318Z</time></trkpt><trkpt lat="39.29712" lon="8.5503233"><ele>216.0</ele><time>2026-05-02T13:37:55.318Z</time></trkpt><trkpt lat="39.2971767" lon="8.5505467"><ele>194.0</ele><time>2026-05-02T13:37:56.378Z</time></trkpt><trkpt lat="39.2972367" lon="8.5507417"><ele>191.0</ele><time>2026-05-02T13:37:57.316Z</time></trkpt><trkpt lat="39.2973033" lon="8.5509583"><ele>188.0</ele><time>2026-05-02T13:37:58.319Z</time></trkpt><trkpt lat="39.29737" lon="8.5511867"><ele>185.0</ele><time>2026-05-02T13:37:59.321Z</time></trkpt><trkpt lat="39.2974367" lon="8.5514233"><ele>184.0</ele><time>2026-05-02T13:38:00.322Z</time></trkpt><trkpt lat="39.297505" lon="8.55166"><ele>183.0</ele><time>2026-05-02T13:38:01.321Z</time></trkpt><trkpt lat="39.2975783" lon="8.5519017"><ele>182.0</ele><time>2026-05-02T13:38:02.368Z</time></trkpt><trkpt lat="39.297655" lon="8.5521483"><ele>181.0</ele><time>2026-05-02T13:38:03.318Z</time></trkpt><trkpt lat="39.2977333" lon="8.5524017"><ele>180.0</ele><time>2026-05-02T13:38:04.318Z</time></trkpt><trkpt lat="39.297815" lon="8.5526533"><ele>179.0</ele><time>2026-05-02T13:38:05.322Z</time></trkpt><trkpt lat="39.297895" lon="8.5529117"><ele>177.0</ele><time>2026-05-02T13:38:06.322Z</time></trkpt><trkpt lat="39.2979783" lon="8.5531733"><ele>175.0</ele><time>2026-05-02T13:38:07.321Z</time></trkpt><trkpt lat="39.2980667" lon="8.553435"><ele>173.0</ele><time>2026-05-02T13:38:08.363Z</time></trkpt><trkpt lat="39.29815" lon="8.5536983"><ele>172.0</ele><time>2026-05-02T13:38:09.319Z</time></trkpt><trkpt lat="39.298235" lon="8.553965"><ele>171.0</ele><time>2026-05-02T13:38:10.32Z</time></trkpt><trkpt lat="39.2983167" lon="8.5542317"><ele>170.0</ele><time>2026-05-02T13:38:11.321Z</time></trkpt><trkpt lat="39.2984" lon="8.5544917"><ele>168.66666666666666</ele><time>2026-05-02T13:38:12.32Z</time></trkpt><trkpt lat="39.2984767" lon="8.5547533"><ele>167.33333333333334</ele><time>2026-05-02T13:38:13.319Z</time></trkpt><trkpt lat="39.2985483" lon="8.5550217"><ele>166.0</ele><time>2026-05-02T13:38:14.36Z</time></trkpt><trkpt lat="39.2986167" lon="8.555295"><ele>164.33333333333334</ele><time>2026-05-02T13:38:15.323Z</time></trkpt><trkpt lat="39.2986767" lon="8.555575"><ele>162.66666666666666</ele><time>2026-05-02T13:38:16.322Z</time></trkpt><trkpt lat="39.2987333" lon="8.555855"><ele>161.0</ele><time>2026-05-02T13:38:17.32Z</time></trkpt><trkpt lat="39.298785" lon="8.556135"><ele>159.66666666666666</ele><time>2026-05-02T13:38:18.321Z</time></trkpt><trkpt lat="39.2988283" lon="8.556415"><ele>158.33333333333334</ele><time>2026-05-02T13:38:19.319Z</time></trkpt><trkpt lat="39.298865" lon="8.5566983"><ele>157.0</ele><time>2026-05-02T13:38:20.364Z</time></trkpt><trkpt lat="39.2988917" lon="8.5569833"><ele>155.5</ele><time>2026-05-02T13:38:21.32Z</time></trkpt><trkpt lat="39.2989133" lon="8.5572717"><ele>154.0</ele><time>2026-05-02T13:38:22.322Z</time></trkpt><trkpt lat="39.2989283" lon="8.5575683"><ele>154.0</ele><time>2026-05-02T13:38:23.323Z</time></trkpt><trkpt lat="39.2989333" lon="8.5578683"><ele>154.0</ele><time>2026-05-02T13:38:24.32Z</time></trkpt><trkpt lat="39.2988983" lon="8.5581833"><ele>152.0</ele><time>2026-05-02T13:38:25.321Z</time></trkpt><trkpt lat="39.2988967" lon="8.5584917"><ele>150.0</ele><time>2026-05-02T13:38:26.36Z</time></trkpt><trkpt lat="39.2988917" lon="8.5587883"><ele>150.0</ele><time>2026-05-02T13:38:27.322Z</time></trkpt><trkpt lat="39.298905" lon="8.5590817"><ele>150.0</ele><time>2026-05-02T13:38:28.321Z</time></trkpt><trkpt lat="39.2989083" lon="8.559375"><ele>150.5</ele><time>2026-05-02T13:38:29.318Z</time></trkpt><trkpt lat="39.2989183" lon="8.5596583"><ele>151.0</ele><time>2026-05-02T13:38:30.32Z</time></trkpt><trkpt lat="39.2989383" lon="8.559955"><ele>151.0</ele><time>2026-05-02T13:38:31.321Z</time></trkpt><trkpt lat="39.2989467" lon="8.5602633"><ele>151.0</ele><time>2026-05-02T13:38:32.363Z</time></trkpt><trkpt lat="39.2989533" lon="8.5605667"><ele>151.0</ele><time>2026-05-02T13:38:33.322Z</time></trkpt><trkpt lat="39.2989667" lon="8.56086"><ele>151.0</ele><time>2026-05-02T13:38:34.323Z</time></trkpt><trkpt lat="39.2989833" lon="8.5611417"><ele>151.0</ele><time>2026-05-02T13:38:35.323Z</time></trkpt><trkpt lat="39.2989983" lon="8.561445"><ele>151.0</ele><time>2026-05-02T13:38:36.321Z</time></trkpt><trkpt lat="39.2990067" lon="8.5617417"><ele>151.0</ele><time>2026-05-02T13:38:37.32Z</time></trkpt><trkpt lat="39.2990133" lon="8.562035"><ele>150.5</ele><time>2026-05-02T13:38:38.364Z</time></trkpt><trkpt lat="39.2990233" lon="8.5623383"><ele>150.0</ele><time>2026-05-02T13:38:39.321Z</time></trkpt><trkpt lat="39.2990233" lon="8.5626283"><ele>150.0</ele><time>2026-05-02T13:38:40.32Z</time></trkpt><trkpt lat="39.2990433" lon="8.56292"><ele>150.0</ele><time>2026-05-02T13:38:41.318Z</time></trkpt><trkpt lat="39.2990467" lon="8.56321"><ele>150.0</ele><time>2026-05-02T13:38:42.318Z</time></trkpt><trkpt lat="39.2990517" lon="8.563505"><ele>150.0</ele><time>2026-05-02T13:38:43.318Z</time></trkpt><trkpt lat="39.2990617" lon="8.563795"><ele>148.66666666666666</ele><time>2026-05-02T13:38:44.366Z</time></trkpt><trkpt lat="39.2990683" lon="8.5640883"><ele>147.33333333333331</ele><time>2026-05-02T13:38:45.322Z</time></trkpt><trkpt lat="39.29908" lon="8.5643567"><ele>146.0</ele><time>2026-05-02T13:38:46.321Z</time></trkpt><trkpt lat="39.29908" lon="8.5646333"><ele>145.33333333333331</ele><time>2026-05-02T13:38:47.322Z</time></trkpt><trkpt lat="39.29909" lon="8.5648933"><ele>144.66666666666666</ele><time>2026-05-02T13:38:48.322Z</time></trkpt><trkpt lat="39.29911" lon="8.5651483"><ele>144.0</ele><time>2026-05-02T13:38:49.323Z</time></trkpt><trkpt lat="39.2991117" lon="8.5653967"><ele>144.0</ele><time>2026-05-02T13:38:50.365Z</time></trkpt><trkpt lat="39.2991217" lon="8.56565"><ele>144.0</ele><time>2026-05-02T13:38:51.316Z</time></trkpt><trkpt lat="39.2991417" lon="8.565885"><ele>144.0</ele><time>2026-05-02T13:38:52.322Z</time></trkpt><trkpt lat="39.2991517" lon="8.5661133"><ele>143.66666666666666</ele><time>2026-05-02T13:38:53.323Z</time></trkpt><trkpt lat="39.2991617" lon="8.566335"><ele>143.33333333333331</ele><time>2026-05-02T13:38:54.322Z</time></trkpt><trkpt lat="39.2991633" lon="8.566565"><ele>143.0</ele><time>2026-05-02T13:38:55.32Z</time></trkpt><trkpt lat="39.299165" lon="8.5667933"><ele>143.0</ele><time>2026-05-02T13:38:56.382Z</time></trkpt><trkpt lat="39.2991667" lon="8.56701"><ele>143.0</ele><time>2026-05-02T13:38:57.319Z</time></trkpt><trkpt lat="39.29917" lon="8.567215"><ele>143.0</ele><time>2026-05-02T13:38:58.32Z</time></trkpt><trkpt lat="39.2991733" lon="8.5674283"><ele>142.66666666666666</ele><time>2026-05-02T13:38:59.322Z</time></trkpt><trkpt lat="39.2991817" lon="8.5676417"><ele>142.33333333333334</ele><time>2026-05-02T13:39:00.324Z</time></trkpt><trkpt lat="39.2991967" lon="8.5678367"><ele>142.0</ele><time>2026-05-02T13:39:01.319Z</time></trkpt><trkpt lat="39.2992" lon="8.5680433"><ele>142.0</ele><time>2026-05-02T13:39:02.369Z</time></trkpt><trkpt lat="39.2991983" lon="8.56823"><ele>142.0</ele><time>2026-05-02T13:39:03.324Z</time></trkpt><trkpt lat="39.2991983" lon="8.5684117"><ele>142.0</ele><time>2026-05-02T13:39:04.32Z</time></trkpt><trkpt lat="39.2991967" lon="8.5685983"><ele>142.0</ele><time>2026-05-02T13:39:05.321Z</time></trkpt><trkpt lat="39.299195" lon="8.5687733"><ele>142.0</ele><time>2026-05-02T13:39:06.325Z</time></trkpt><trkpt lat="39.2992067" lon="8.5689433"><ele>142.0</ele><time>2026-05-02T13:39:07.317Z</time></trkpt><trkpt lat="39.2992133" lon="8.5690933"><ele>142.0</ele><time>2026-05-02T13:39:08.365Z</time></trkpt><trkpt lat="39.2992067" lon="8.56923"><ele>142.0</ele><time>2026-05-02T13:39:09.32Z</time></trkpt><trkpt lat="39.2991833" lon="8.5693633"><ele>142.0</ele><time>2026-05-02T13:39:10.321Z</time></trkpt><trkpt lat="39.2991467" lon="8.5694817"><ele>142.0</ele><time>2026-05-02T13:39:11.322Z</time></trkpt><trkpt lat="39.2991083" lon="8.569595"><ele>142.0</ele><time>2026-05-02T13:39:12.323Z</time></trkpt><trkpt lat="39.2990067" lon="8.5696767"><ele>142.0</ele><time>2026-05-02T13:39:13.319Z</time></trkpt><trkpt lat="39.2988883" lon="8.56969"><ele>142.0</ele><time>2026-05-02T13:39:14.362Z</time></trkpt><trkpt lat="39.2987467" lon="8.569705"><ele>142.0</ele><time>2026-05-02T13:39:15.318Z</time></trkpt><trkpt lat="39.298625" lon="8.569745"><ele>142.0</ele><time>2026-05-02T13:39:16.322Z</time></trkpt><trkpt lat="39.2984683" lon="8.5697883"><ele>142.0</ele><time>2026-05-02T13:39:17.323Z</time></trkpt><trkpt lat="39.2983533" lon="8.5698233"><ele>142.0</ele><time>2026-05-02T13:39:18.323Z</time></trkpt><trkpt lat="39.29826" lon="8.5698433"><ele>142.0</ele><time>2026-05-02T13:39:19.318Z</time></trkpt><trkpt lat="39.2981717" lon="8.5698283"><ele>142.0</ele><time>2026-05-02T13:39:20.362Z</time></trkpt><trkpt lat="39.298095" lon="8.5697767"><ele>142.0</ele><time>2026-05-02T13:39:21.322Z</time></trkpt><trkpt lat="39.2980183" lon="8.569745"><ele>142.0</ele><time>2026-05-02T13:39:22.32Z</time></trkpt><trkpt lat="39.297955" lon="8.569665"><ele>142.0</ele><time>2026-05-02T13:39:23.32Z</time></trkpt><trkpt lat="39.2979" lon="8.5695983"><ele>142.0</ele><time>2026-05-02T13:39:24.323Z</time></trkpt><trkpt lat="39.2978767" lon="8.569515"><ele>141.25</ele><time>2026-05-02T13:39:25.321Z</time></trkpt><trkpt lat="39.297855" lon="8.56941"><ele>140.5</ele><time>2026-05-02T13:39:26.377Z</time></trkpt><trkpt lat="39.2978467" lon="8.5693133"><ele>139.75</ele><time>2026-05-02T13:39:27.324Z</time></trkpt><trkpt lat="39.297955" lon="8.5690883"><ele>139.0</ele><time>2026-05-02T13:39:28.321Z</time></trkpt><trkpt lat="39.2980683" lon="8.5688633"><ele>139.33333333333334</ele><time>2026-05-02T13:39:29.321Z</time></trkpt><trkpt lat="39.29819" lon="8.5686483"><ele>139.66666666666666</ele><time>2026-05-02T13:39:30.321Z</time></trkpt><trkpt lat="39.2983267" lon="8.568445"><ele>140.0</ele><time>2026-05-02T13:39:31.322Z</time></trkpt><trkpt lat="39.2984817" lon="8.56823"><ele>140.0</ele><time>2026-05-02T13:39:32.367Z</time></trkpt><trkpt lat="39.298655" lon="8.56803"><ele>140.0</ele><time>2026-05-02T13:39:33.322Z</time></trkpt><trkpt lat="39.2988" lon="8.56787"><ele>140.0</ele><time>2026-05-02T13:39:34.323Z</time></trkpt><trkpt lat="39.2989367" lon="8.5677183"><ele>140.66666666666666</ele><time>2026-05-02T13:39:35.322Z</time></trkpt><trkpt lat="39.2990583" lon="8.5675617"><ele>141.33333333333334</ele><time>2026-05-02T13:39:36.324Z</time></trkpt><trkpt lat="39.29921" lon="8.5673633"><ele>142.0</ele><time>2026-05-02T13:39:37.324Z</time></trkpt><trkpt lat="39.29931" lon="8.5671817"><ele>142.33333333333334</ele><time>2026-05-02T13:39:38.364Z</time></trkpt><trkpt lat="39.2993833" lon="8.5669967"><ele>142.66666666666666</ele><time>2026-05-02T13:39:39.324Z</time></trkpt><trkpt lat="39.29946" lon="8.566805"><ele>143.0</ele><time>2026-05-02T13:39:40.318Z</time></trkpt><trkpt lat="39.2995217" lon="8.5666333"><ele>143.0</ele><time>2026-05-02T13:39:41.321Z</time></trkpt><trkpt lat="39.2995817" lon="8.5664783"><ele>143.0</ele><time>2026-05-02T13:39:42.324Z</time></trkpt><trkpt lat="39.2996467" lon="8.56634"><ele>143.0</ele><time>2026-05-02T13:39:43.322Z</time></trkpt><trkpt lat="39.2997" lon="8.5662183"><ele>143.0</ele><time>2026-05-02T13:39:44.363Z</time></trkpt><trkpt lat="39.2997317" lon="8.5660983"><ele>143.0</ele><time>2026-05-02T13:39:45.321Z</time></trkpt><trkpt lat="39.299745" lon="8.5659583"><ele>143.0</ele><time>2026-05-02T13:39:46.322Z</time></trkpt><trkpt lat="39.2997483" lon="8.5657917"><ele>143.0</ele><time>2026-05-02T13:39:47.32Z</time></trkpt><trkpt lat="39.29976" lon="8.5656183"><ele>143.0</ele><time>2026-05-02T13:39:48.321Z</time></trkpt><trkpt lat="39.2997783" lon="8.5654433"><ele>143.0</ele><time>2026-05-02T13:39:49.324Z</time></trkpt><trkpt lat="39.2997983" lon="8.5652833"><ele>143.0</ele><time>2026-05-02T13:39:50.363Z</time></trkpt><trkpt lat="39.29982" lon="8.5651333"><ele>143.0</ele><time>2026-05-02T13:39:51.316Z</time></trkpt><trkpt lat="39.2998417" lon="8.564995"><ele>143.0</ele><time>2026-05-02T13:39:52.319Z</time></trkpt><trkpt lat="39.29986" lon="8.5648717"><ele>143.0</ele><time>2026-05-02T13:39:53.32Z</time></trkpt><trkpt lat="39.2998717" lon="8.564765"><ele>143.0</ele><time>2026-05-02T13:39:54.321Z</time></trkpt><trkpt lat="39.2998767" lon="8.5646717"><ele>143.0</ele><time>2026-05-02T13:39:55.324Z</time></trkpt><trkpt lat="39.2998683" lon="8.56459"><ele>143.0</ele><time>2026-05-02T13:39:56.379Z</time></trkpt><trkpt lat="39.2998167" lon="8.564455"><ele>143.0</ele><time>2026-05-02T13:39:58.321Z</time></trkpt><trkpt lat="39.2997233" lon="8.5643433"><ele>143.75</ele><time>2026-05-02T13:40:00.32Z</time></trkpt><trkpt lat="39.299645" lon="8.5643133"><ele>144.5</ele><time>2026-05-02T13:40:01.321Z</time></trkpt><trkpt lat="39.2995617" lon="8.5642933"><ele>145.25</ele><time>2026-05-02T13:40:02.367Z</time></trkpt><trkpt lat="39.2994283" lon="8.5643033"><ele>146.0</ele><time>2026-05-02T13:40:03.32Z</time></trkpt><trkpt lat="39.2992067" lon="8.5644117"><ele>146.0</ele><time>2026-05-02T13:40:04.32Z</time></trkpt><trkpt lat="39.2989967" lon="8.5644867"><ele>146.0</ele><time>2026-05-02T13:40:05.317Z</time></trkpt><trkpt lat="39.2987883" lon="8.5645917"><ele>146.0</ele><time>2026-05-02T13:40:06.32Z</time></trkpt><trkpt lat="39.2985683" lon="8.5646617"><ele>145.33333333333331</ele><time>2026-05-02T13:40:07.322Z</time></trkpt><trkpt lat="39.2983583" lon="8.564715"><ele>144.66666666666666</ele><time>2026-05-02T13:40:08.357Z</time></trkpt><trkpt lat="39.29815" lon="8.56476"><ele>144.0</ele><time>2026-05-02T13:40:09.317Z</time></trkpt><trkpt lat="39.2979483" lon="8.5647917"><ele>143.66666666666666</ele><time>2026-05-02T13:40:10.32Z</time></trkpt><trkpt lat="39.297725" lon="8.5648733"><ele>143.33333333333331</ele><time>2026-05-02T13:40:11.317Z</time></trkpt><trkpt lat="39.2975183" lon="8.5649117"><ele>143.0</ele><time>2026-05-02T13:40:12.32Z</time></trkpt><trkpt lat="39.297305" lon="8.5649617"><ele>143.33333333333331</ele><time>2026-05-02T13:40:13.316Z</time></trkpt><trkpt lat="39.297095" lon="8.5650067"><ele>143.66666666666666</ele><time>2026-05-02T13:40:14.363Z</time></trkpt><trkpt lat="39.296885" lon="8.5650483"><ele>144.0</ele><time>2026-05-02T13:40:15.316Z</time></trkpt><trkpt lat="39.296675" lon="8.5650917"><ele>144.0</ele><time>2026-05-02T13:40:16.321Z</time></trkpt><trkpt lat="39.296465" lon="8.5651783"><ele>144.0</ele><time>2026-05-02T13:40:17.32Z</time></trkpt><trkpt lat="39.296245" lon="8.5652417"><ele>144.0</ele><time>2026-05-02T13:40:18.32Z</time></trkpt><trkpt lat="39.2960333" lon="8.5652967"><ele>143.0</ele><time>2026-05-02T13:40:19.318Z</time></trkpt><trkpt lat="39.2958183" lon="8.5653433"><ele>142.0</ele><time>2026-05-02T13:40:20.36Z</time></trkpt><trkpt lat="39.2956017" lon="8.565385"><ele>141.0</ele><time>2026-05-02T13:40:21.32Z</time></trkpt><trkpt lat="39.2953833" lon="8.5654267"><ele>140.0</ele><time>2026-05-02T13:40:22.316Z</time></trkpt><trkpt lat="39.2951633" lon="8.565465"><ele>139.0</ele><time>2026-05-02T13:40:23.32Z</time></trkpt><trkpt lat="39.2949433" lon="8.56551"><ele>138.0</ele><time>2026-05-02T13:40:24.315Z</time></trkpt><trkpt lat="39.2947233" lon="8.5655483"><ele>137.66666666666666</ele><time>2026-05-02T13:40:25.322Z</time></trkpt><trkpt lat="39.2945033" lon="8.5655867"><ele>137.33333333333331</ele><time>2026-05-02T13:40:26.374Z</time></trkpt><trkpt lat="39.29428" lon="8.5656267"><ele>137.0</ele><time>2026-05-02T13:40:27.316Z</time></trkpt><trkpt lat="39.2940583" lon="8.5656633"><ele>137.33333333333331</ele><time>2026-05-02T13:40:28.319Z</time></trkpt><trkpt lat="39.2938367" lon="8.5657067"><ele>137.66666666666666</ele><time>2026-05-02T13:40:29.317Z</time></trkpt><trkpt lat="39.293615" lon="8.565755"><ele>138.0</ele><time>2026-05-02T13:40:30.318Z</time></trkpt><trkpt lat="39.2933933" lon="8.5658083"><ele>138.0</ele><time>2026-05-02T13:40:31.319Z</time></trkpt><trkpt lat="39.2931733" lon="8.565865"><ele>138.0</ele><time>2026-05-02T13:40:32.366Z</time></trkpt><trkpt lat="39.2929533" lon="8.56592"><ele>138.0</ele><time>2026-05-02T13:40:33.323Z</time></trkpt><trkpt lat="39.2927217" lon="8.5659817"><ele>138.0</ele><time>2026-05-02T13:40:34.319Z</time></trkpt><trkpt lat="39.2924967" lon="8.5660433"><ele>138.0</ele><time>2026-05-02T13:40:35.319Z</time></trkpt><trkpt lat="39.2922733" lon="8.5661117"><ele>137.33333333333334</ele><time>2026-05-02T13:40:36.318Z</time></trkpt><trkpt lat="39.29206" lon="8.5661767"><ele>136.66666666666669</ele><time>2026-05-02T13:40:37.32Z</time></trkpt><trkpt lat="39.29185" lon="8.56624"><ele>136.0</ele><time>2026-05-02T13:40:38.364Z</time></trkpt><trkpt lat="39.2916417" lon="8.5663117"><ele>135.0</ele><time>2026-05-02T13:40:39.321Z</time></trkpt><trkpt lat="39.291435" lon="8.5663767"><ele>134.0</ele><time>2026-05-02T13:40:40.315Z</time></trkpt><trkpt lat="39.2912333" lon="8.566445"><ele>133.0</ele><time>2026-05-02T13:40:41.32Z</time></trkpt><trkpt lat="39.2910333" lon="8.5665283"><ele>133.0</ele><time>2026-05-02T13:40:42.316Z</time></trkpt><trkpt lat="39.2908283" lon="8.56658"><ele>133.0</ele><time>2026-05-02T13:40:43.316Z</time></trkpt><trkpt lat="39.29061" lon="8.5666267"><ele>133.0</ele><time>2026-05-02T13:40:44.36Z</time></trkpt><trkpt lat="39.2904" lon="8.56667"><ele>133.0</ele><time>2026-05-02T13:40:45.316Z</time></trkpt><trkpt lat="39.2902033" lon="8.566735"><ele>133.0</ele><time>2026-05-02T13:40:46.319Z</time></trkpt><trkpt lat="39.2900117" lon="8.5668383"><ele>133.0</ele><time>2026-05-02T13:40:47.32Z</time></trkpt><trkpt lat="39.289855" lon="8.5669833"><ele>133.33333333333334</ele><time>2026-05-02T13:40:48.322Z</time></trkpt><trkpt lat="39.2896733" lon="8.5671317"><ele>133.66666666666666</ele><time>2026-05-02T13:40:49.316Z</time></trkpt><trkpt lat="39.28953" lon="8.5672733"><ele>134.0</ele><time>2026-05-02T13:40:50.362Z</time></trkpt><trkpt lat="39.2893883" lon="8.56743"><ele>134.0</ele><time>2026-05-02T13:40:51.316Z</time></trkpt><trkpt lat="39.2892417" lon="8.5675983"><ele>134.0</ele><time>2026-05-02T13:40:52.321Z</time></trkpt><trkpt lat="39.2890917" lon="8.5677767"><ele>134.0</ele><time>2026-05-02T13:40:53.32Z</time></trkpt><trkpt lat="39.2889333" lon="8.5679583"><ele>134.0</ele><time>2026-05-02T13:40:54.318Z</time></trkpt><trkpt lat="39.2887783" lon="8.56814"><ele>134.0</ele><time>2026-05-02T13:40:55.318Z</time></trkpt><trkpt lat="39.28862" lon="8.5683217"><ele>134.0</ele><time>2026-05-02T13:40:56.38Z</time></trkpt><trkpt lat="39.28846" lon="8.568505"><ele>134.0</ele><time>2026-05-02T13:40:57.319Z</time></trkpt><trkpt lat="39.2883017" lon="8.5686883"><ele>134.0</ele><time>2026-05-02T13:40:58.32Z</time></trkpt><trkpt lat="39.288145" lon="8.5688733"><ele>134.0</ele><time>2026-05-02T13:40:59.317Z</time></trkpt><trkpt lat="39.2879917" lon="8.569055"><ele>133.33333333333331</ele><time>2026-05-02T13:41:00.32Z</time></trkpt><trkpt lat="39.287845" lon="8.5692417"><ele>132.66666666666666</ele><time>2026-05-02T13:41:01.322Z</time></trkpt><trkpt lat="39.2877033" lon="8.56943"><ele>132.0</ele><time>2026-05-02T13:41:02.368Z</time></trkpt><trkpt lat="39.287565" lon="8.569625"><ele>131.66666666666666</ele><time>2026-05-02T13:41:03.322Z</time></trkpt><trkpt lat="39.2874183" lon="8.569795"><ele>131.33333333333331</ele><time>2026-05-02T13:41:04.32Z</time></trkpt><trkpt lat="39.2872667" lon="8.5699767"><ele>131.0</ele><time>2026-05-02T13:41:05.321Z</time></trkpt><trkpt lat="39.287105" lon="8.570135"><ele>131.0</ele><time>2026-05-02T13:41:06.321Z</time></trkpt><trkpt lat="39.286945" lon="8.570275"><ele>131.0</ele><time>2026-05-02T13:41:07.319Z</time></trkpt><trkpt lat="39.286785" lon="8.570405"><ele>131.0</ele><time>2026-05-02T13:41:08.363Z</time></trkpt><trkpt lat="39.286625" lon="8.5705417"><ele>131.0</ele><time>2026-05-02T13:41:09.316Z</time></trkpt><trkpt lat="39.2864483" lon="8.5706567"><ele>131.0</ele><time>2026-05-02T13:41:10.319Z</time></trkpt><trkpt lat="39.2862683" lon="8.5707567"><ele>131.0</ele><time>2026-05-02T13:41:11.32Z</time></trkpt><trkpt lat="39.2860783" lon="8.5708417"><ele>131.66666666666666</ele><time>2026-05-02T13:41:12.319Z</time></trkpt><trkpt lat="39.2858883" lon="8.570915"><ele>132.33333333333334</ele><time>2026-05-02T13:41:13.321Z</time></trkpt><trkpt lat="39.2856967" lon="8.5709867"><ele>133.0</ele><time>2026-05-02T13:41:14.362Z</time></trkpt><trkpt lat="39.2855017" lon="8.5710483"><ele>133.0</ele><time>2026-05-02T13:41:15.316Z</time></trkpt><trkpt lat="39.2853083" lon="8.57111"><ele>133.0</ele><time>2026-05-02T13:41:16.318Z</time></trkpt><trkpt lat="39.285105" lon="8.5711567"><ele>133.0</ele><time>2026-05-02T13:41:17.317Z</time></trkpt><trkpt lat="39.2849067" lon="8.5712033"><ele>133.0</ele><time>2026-05-02T13:41:18.322Z</time></trkpt><trkpt lat="39.2847117" lon="8.57127"><ele>133.0</ele><time>2026-05-02T13:41:19.317Z</time></trkpt><trkpt lat="39.28452" lon="8.5713567"><ele>133.0</ele><time>2026-05-02T13:41:20.359Z</time></trkpt><trkpt lat="39.2843317" lon="8.5714583"><ele>133.0</ele><time>2026-05-02T13:41:21.32Z</time></trkpt><trkpt lat="39.2841467" lon="8.5715783"><ele>133.0</ele><time>2026-05-02T13:41:22.322Z</time></trkpt><trkpt lat="39.2839683" lon="8.57172"><ele>133.0</ele><time>2026-05-02T13:41:23.32Z</time></trkpt><trkpt lat="39.2837917" lon="8.5718767"><ele>134.33333333333334</ele><time>2026-05-02T13:41:24.32Z</time></trkpt><trkpt lat="39.2836217" lon="8.5720283"><ele>135.66666666666666</ele><time>2026-05-02T13:41:25.32Z</time></trkpt><trkpt lat="39.2834483" lon="8.57219"><ele>137.0</ele><time>2026-05-02T13:41:26.378Z</time></trkpt><trkpt lat="39.2832783" lon="8.572365"><ele>137.0</ele><time>2026-05-02T13:41:27.315Z</time></trkpt><trkpt lat="39.2831067" lon="8.5725367"><ele>137.0</ele><time>2026-05-02T13:41:28.32Z</time></trkpt><trkpt lat="39.2829217" lon="8.5727267"><ele>139.0</ele><time>2026-05-02T13:41:29.32Z</time></trkpt><trkpt lat="39.2827483" lon="8.5729233"><ele>141.0</ele><time>2026-05-02T13:41:30.317Z</time></trkpt><trkpt lat="39.2825717" lon="8.5731033"><ele>141.0</ele><time>2026-05-02T13:41:31.321Z</time></trkpt><trkpt lat="39.2823933" lon="8.5732833"><ele>141.0</ele><time>2026-05-02T13:41:32.368Z</time></trkpt><trkpt lat="39.28223" lon="8.5734533"><ele>141.0</ele><time>2026-05-02T13:41:33.316Z</time></trkpt><trkpt lat="39.2820567" lon="8.5736183"><ele>139.33333333333334</ele><time>2026-05-02T13:41:34.32Z</time></trkpt><trkpt lat="39.28189" lon="8.5737783"><ele>137.66666666666669</ele><time>2026-05-02T13:41:35.322Z</time></trkpt><trkpt lat="39.2817083" lon="8.5739417"><ele>136.0</ele><time>2026-05-02T13:41:36.321Z</time></trkpt><trkpt lat="39.28152" lon="8.5741017"><ele>136.33333333333334</ele><time>2026-05-02T13:41:37.32Z</time></trkpt><trkpt lat="39.2813267" lon="8.5742533"><ele>136.66666666666666</ele><time>2026-05-02T13:41:38.362Z</time></trkpt><trkpt lat="39.28115" lon="8.57442"><ele>137.0</ele><time>2026-05-02T13:41:39.32Z</time></trkpt><trkpt lat="39.28098" lon="8.5746"><ele>135.5</ele><time>2026-05-02T13:41:40.321Z</time></trkpt><trkpt lat="39.2808017" lon="8.5747883"><ele>134.0</ele><time>2026-05-02T13:41:41.32Z</time></trkpt><trkpt lat="39.2806333" lon="8.57497"><ele>133.5</ele><time>2026-05-02T13:41:42.318Z</time></trkpt><trkpt lat="39.2804583" lon="8.575155"><ele>133.0</ele><time>2026-05-02T13:41:43.32Z</time></trkpt><trkpt lat="39.280275" lon="8.5753383"><ele>131.0</ele><time>2026-05-02T13:41:44.359Z</time></trkpt><trkpt lat="39.2800917" lon="8.5755167"><ele>129.0</ele><time>2026-05-02T13:41:45.32Z</time></trkpt><trkpt lat="39.2799083" lon="8.5757"><ele>129.0</ele><time>2026-05-02T13:41:46.318Z</time></trkpt><trkpt lat="39.27971" lon="8.575875"><ele>129.0</ele><time>2026-05-02T13:41:47.319Z</time></trkpt><trkpt lat="39.2795283" lon="8.5760567"><ele>127.5</ele><time>2026-05-02T13:41:48.318Z</time></trkpt><trkpt lat="39.2793417" lon="8.5762367"><ele>126.0</ele><time>2026-05-02T13:41:49.32Z</time></trkpt><trkpt lat="39.2791633" lon="8.5764133"><ele>126.0</ele><time>2026-05-02T13:41:50.36Z</time></trkpt><trkpt lat="39.2789633" lon="8.5765933"><ele>126.0</ele><time>2026-05-02T13:41:51.321Z</time></trkpt><trkpt lat="39.278785" lon="8.576765"><ele>126.5</ele><time>2026-05-02T13:41:52.32Z</time></trkpt><trkpt lat="39.2785967" lon="8.5769433"><ele>127.0</ele><time>2026-05-02T13:41:53.316Z</time></trkpt><trkpt lat="39.278415" lon="8.5771317"><ele>127.0</ele><time>2026-05-02T13:41:54.321Z</time></trkpt><trkpt lat="39.2782317" lon="8.5772933"><ele>127.0</ele><time>2026-05-02T13:41:55.32Z</time></trkpt><trkpt lat="39.278055" lon="8.5774567"><ele>127.0</ele><time>2026-05-02T13:41:56.38Z</time></trkpt><trkpt lat="39.2778817" lon="8.577635"><ele>127.0</ele><time>2026-05-02T13:41:57.315Z</time></trkpt><trkpt lat="39.2777133" lon="8.5778133"><ele>127.0</ele><time>2026-05-02T13:41:58.315Z</time></trkpt><trkpt lat="39.2775383" lon="8.5779933"><ele>127.0</ele><time>2026-05-02T13:41:59.32Z</time></trkpt><trkpt lat="39.27736" lon="8.5781817"><ele>126.0</ele><time>2026-05-02T13:42:00.32Z</time></trkpt><trkpt lat="39.2771833" lon="8.5783717"><ele>125.0</ele><time>2026-05-02T13:42:01.321Z</time></trkpt><trkpt lat="39.2770017" lon="8.57856"><ele>125.0</ele><time>2026-05-02T13:42:02.382Z</time></trkpt><trkpt lat="39.2768217" lon="8.5787483"><ele>125.0</ele><time>2026-05-02T13:42:03.32Z</time></trkpt><trkpt lat="39.2766417" lon="8.5789333"><ele>125.0</ele><time>2026-05-02T13:42:04.318Z</time></trkpt><trkpt lat="39.2764667" lon="8.579115"><ele>125.0</ele><time>2026-05-02T13:42:05.321Z</time></trkpt><trkpt lat="39.2762867" lon="8.5793"><ele>124.5</ele><time>2026-05-02T13:42:06.321Z</time></trkpt><trkpt lat="39.2761083" lon="8.5794817"><ele>124.0</ele><time>2026-05-02T13:42:07.319Z</time></trkpt><trkpt lat="39.2759333" lon="8.5796717"><ele>123.0</ele><time>2026-05-02T13:42:08.36Z</time></trkpt><trkpt lat="39.2757567" lon="8.5798567"><ele>122.0</ele><time>2026-05-02T13:42:09.321Z</time></trkpt><trkpt lat="39.27557" lon="8.5800367"><ele>123.0</ele><time>2026-05-02T13:42:10.315Z</time></trkpt><trkpt lat="39.275395" lon="8.5802167"><ele>124.0</ele><time>2026-05-02T13:42:11.317Z</time></trkpt><trkpt lat="39.2752133" lon="8.5803783"><ele>125.0</ele><time>2026-05-02T13:42:12.321Z</time></trkpt><trkpt lat="39.2750433" lon="8.5805583"><ele>125.0</ele><time>2026-05-02T13:42:13.319Z</time></trkpt><trkpt lat="39.27487" lon="8.5807317"><ele>125.0</ele><time>2026-05-02T13:42:14.357Z</time></trkpt><trkpt lat="39.2747033" lon="8.5809183"><ele>125.0</ele><time>2026-05-02T13:42:15.316Z</time></trkpt><trkpt lat="39.274535" lon="8.5811033"><ele>125.0</ele><time>2026-05-02T13:42:16.321Z</time></trkpt><trkpt lat="39.2743583" lon="8.5812833"><ele>125.0</ele><time>2026-05-02T13:42:17.317Z</time></trkpt><trkpt lat="39.2741717" lon="8.5814617"><ele>125.0</ele><time>2026-05-02T13:42:18.317Z</time></trkpt><trkpt lat="39.2739883" lon="8.5816267"><ele>125.0</ele><time>2026-05-02T13:42:19.314Z</time></trkpt><trkpt lat="39.2738167" lon="8.581805"><ele>125.0</ele><time>2026-05-02T13:42:20.362Z</time></trkpt><trkpt lat="39.2736467" lon="8.5819767"><ele>125.0</ele><time>2026-05-02T13:42:21.316Z</time></trkpt><trkpt lat="39.2734783" lon="8.5821483"><ele>125.0</ele><time>2026-05-02T13:42:22.322Z</time></trkpt><trkpt lat="39.2733083" lon="8.5823117"><ele>125.0</ele><time>2026-05-02T13:42:23.32Z</time></trkpt><trkpt lat="39.273145" lon="8.5824917"><ele>125.66666666666666</ele><time>2026-05-02T13:42:24.317Z</time></trkpt><trkpt lat="39.272985" lon="8.582675"><ele>126.33333333333334</ele><time>2026-05-02T13:42:25.321Z</time></trkpt><trkpt lat="39.27282" lon="8.5828317"><ele>127.0</ele><time>2026-05-02T13:42:26.379Z</time></trkpt><trkpt lat="39.272655" lon="8.583005"><ele>128.0</ele><time>2026-05-02T13:42:27.315Z</time></trkpt><trkpt lat="39.2725" lon="8.5831717"><ele>129.0</ele><time>2026-05-02T13:42:28.317Z</time></trkpt><trkpt lat="39.2723417" lon="8.5833133"><ele>130.0</ele><time>2026-05-02T13:42:29.315Z</time></trkpt><trkpt lat="39.2722017" lon="8.58345"><ele>130.33333333333334</ele><time>2026-05-02T13:42:30.321Z</time></trkpt><trkpt lat="39.2720317" lon="8.5835567"><ele>130.66666666666666</ele><time>2026-05-02T13:42:31.317Z</time></trkpt><trkpt lat="39.2718633" lon="8.583675"><ele>131.0</ele><time>2026-05-02T13:42:32.368Z</time></trkpt><trkpt lat="39.271705" lon="8.5837817"><ele>131.33333333333331</ele><time>2026-05-02T13:42:33.324Z</time></trkpt><trkpt lat="39.2715483" lon="8.5838867"><ele>131.66666666666666</ele><time>2026-05-02T13:42:34.319Z</time></trkpt><trkpt lat="39.2713833" lon="8.584005"><ele>132.0</ele><time>2026-05-02T13:42:35.321Z</time></trkpt><trkpt lat="39.2712167" lon="8.584115"><ele>132.0</ele><time>2026-05-02T13:42:36.32Z</time></trkpt><trkpt lat="39.271045" lon="8.584225"><ele>132.0</ele><time>2026-05-02T13:42:37.319Z</time></trkpt><trkpt lat="39.2708667" lon="8.584335"><ele>132.0</ele><time>2026-05-02T13:42:38.361Z</time></trkpt><trkpt lat="39.27067" lon="8.5844083"><ele>132.0</ele><time>2026-05-02T13:42:39.32Z</time></trkpt><trkpt lat="39.2704783" lon="8.5845233"><ele>132.0</ele><time>2026-05-02T13:42:40.319Z</time></trkpt><trkpt lat="39.2702867" lon="8.58462"><ele>132.0</ele><time>2026-05-02T13:42:41.319Z</time></trkpt><trkpt lat="39.2701033" lon="8.5846967"><ele>132.0</ele><time>2026-05-02T13:42:42.32Z</time></trkpt><trkpt lat="39.2699117" lon="8.5847783"><ele>132.0</ele><time>2026-05-02T13:42:43.321Z</time></trkpt><trkpt lat="39.2697117" lon="8.5848767"><ele>132.0</ele><time>2026-05-02T13:42:44.361Z</time></trkpt><trkpt lat="39.2695083" lon="8.5849633"><ele>132.33333333333334</ele><time>2026-05-02T13:42:45.319Z</time></trkpt><trkpt lat="39.2693133" lon="8.585055"><ele>132.66666666666669</ele><time>2026-05-02T13:42:46.32Z</time></trkpt><trkpt lat="39.269125" lon="8.5851583"><ele>133.0</ele><time>2026-05-02T13:42:47.319Z</time></trkpt><trkpt lat="39.2689217" lon="8.585285"><ele>133.33333333333334</ele><time>2026-05-02T13:42:48.319Z</time></trkpt><trkpt lat="39.268725" lon="8.5854067"><ele>133.66666666666666</ele><time>2026-05-02T13:42:49.32Z</time></trkpt><trkpt lat="39.2685267" lon="8.5855267"><ele>134.0</ele><time>2026-05-02T13:42:50.363Z</time></trkpt><trkpt lat="39.2683233" lon="8.5856383"><ele>134.0</ele><time>2026-05-02T13:42:51.319Z</time></trkpt><trkpt lat="39.2681167" lon="8.5857467"><ele>134.0</ele><time>2026-05-02T13:42:52.317Z</time></trkpt><trkpt lat="39.26791" lon="8.5858417"><ele>134.0</ele><time>2026-05-02T13:42:53.321Z</time></trkpt><trkpt lat="39.26771" lon="8.5859667"><ele>134.66666666666666</ele><time>2026-05-02T13:42:54.32Z</time></trkpt><trkpt lat="39.2675067" lon="8.586085"><ele>135.33333333333334</ele><time>2026-05-02T13:42:55.318Z</time></trkpt><trkpt lat="39.2673" lon="8.5861983"><ele>136.0</ele><time>2026-05-02T13:42:56.366Z</time></trkpt><trkpt lat="39.2671033" lon="8.5863217"><ele>136.5</ele><time>2026-05-02T13:42:57.32Z</time></trkpt><trkpt lat="39.2668933" lon="8.5864283"><ele>137.0</ele><time>2026-05-02T13:42:58.321Z</time></trkpt><trkpt lat="39.2666833" lon="8.5865567"><ele>137.0</ele><time>2026-05-02T13:42:59.322Z</time></trkpt><trkpt lat="39.26648" lon="8.586675"><ele>137.0</ele><time>2026-05-02T13:43:00.321Z</time></trkpt><trkpt lat="39.2662783" lon="8.5867933"><ele>137.0</ele><time>2026-05-02T13:43:01.322Z</time></trkpt><trkpt lat="39.266075" lon="8.5869183"><ele>137.0</ele><time>2026-05-02T13:43:02.366Z</time></trkpt><trkpt lat="39.2658683" lon="8.5870483"><ele>137.0</ele><time>2026-05-02T13:43:03.32Z</time></trkpt><trkpt lat="39.265665" lon="8.58717"><ele>138.33333333333331</ele><time>2026-05-02T13:43:04.319Z</time></trkpt><trkpt lat="39.26547" lon="8.587265"><ele>139.66666666666666</ele><time>2026-05-02T13:43:05.316Z</time></trkpt><trkpt lat="39.2652717" lon="8.5873617"><ele>141.0</ele><time>2026-05-02T13:43:06.318Z</time></trkpt><trkpt lat="39.2650883" lon="8.587495"><ele>141.0</ele><time>2026-05-02T13:43:07.322Z</time></trkpt><trkpt lat="39.2649117" lon="8.5875867"><ele>141.0</ele><time>2026-05-02T13:43:08.361Z</time></trkpt><trkpt lat="39.2646883" lon="8.5877567"><ele>141.0</ele><time>2026-05-02T13:43:09.321Z</time></trkpt><trkpt lat="39.2644733" lon="8.587875"><ele>141.0</ele><time>2026-05-02T13:43:10.321Z</time></trkpt><trkpt lat="39.264265" lon="8.5879817"><ele>141.0</ele><time>2026-05-02T13:43:11.321Z</time></trkpt><trkpt lat="39.2640533" lon="8.58808"><ele>141.0</ele><time>2026-05-02T13:43:12.322Z</time></trkpt><trkpt lat="39.2638417" lon="8.5881883"><ele>141.5</ele><time>2026-05-02T13:43:13.319Z</time></trkpt><trkpt lat="39.2636283" lon="8.5882933"><ele>142.0</ele><time>2026-05-02T13:43:14.362Z</time></trkpt><trkpt lat="39.2634217" lon="8.588405"><ele>142.0</ele><time>2026-05-02T13:43:15.319Z</time></trkpt><trkpt lat="39.2632133" lon="8.5885167"><ele>142.0</ele><time>2026-05-02T13:43:16.317Z</time></trkpt><trkpt lat="39.2630067" lon="8.58863"><ele>143.0</ele><time>2026-05-02T13:43:17.32Z</time></trkpt><trkpt lat="39.262795" lon="8.5887517"><ele>144.0</ele><time>2026-05-02T13:43:18.314Z</time></trkpt><trkpt lat="39.2625833" lon="8.5888683"><ele>144.0</ele><time>2026-05-02T13:43:19.318Z</time></trkpt><trkpt lat="39.262375" lon="8.5889783"><ele>144.0</ele><time>2026-05-02T13:43:20.361Z</time></trkpt><trkpt lat="39.2621667" lon="8.5891017"><ele>145.5</ele><time>2026-05-02T13:43:21.319Z</time></trkpt><trkpt lat="39.26195" lon="8.58921"><ele>147.0</ele><time>2026-05-02T13:43:22.318Z</time></trkpt><trkpt lat="39.261735" lon="8.5893317"><ele>147.0</ele><time>2026-05-02T13:43:23.32Z</time></trkpt><trkpt lat="39.2615133" lon="8.5894567"><ele>147.0</ele><time>2026-05-02T13:43:24.319Z</time></trkpt><trkpt lat="39.2613017" lon="8.5895733"><ele>147.0</ele><time>2026-05-02T13:43:25.315Z</time></trkpt><trkpt lat="39.2610917" lon="8.5896833"><ele>147.0</ele><time>2026-05-02T13:43:26.366Z</time></trkpt><trkpt lat="39.2608933" lon="8.589805"><ele>147.0</ele><time>2026-05-02T13:43:27.319Z</time></trkpt><trkpt lat="39.2606867" lon="8.589935"><ele>148.0</ele><time>2026-05-02T13:43:28.32Z</time></trkpt><trkpt lat="39.2604783" lon="8.5900567"><ele>149.0</ele><time>2026-05-02T13:43:29.322Z</time></trkpt><trkpt lat="39.260265" lon="8.5901767"><ele>149.0</ele><time>2026-05-02T13:43:30.32Z</time></trkpt><trkpt lat="39.2600567" lon="8.5902883"><ele>149.0</ele><time>2026-05-02T13:43:31.315Z</time></trkpt><trkpt lat="39.259845" lon="8.590395"><ele>149.33333333333331</ele><time>2026-05-02T13:43:32.365Z</time></trkpt><trkpt lat="39.25963" lon="8.5905017"><ele>149.66666666666666</ele><time>2026-05-02T13:43:33.317Z</time></trkpt><trkpt lat="39.2594367" lon="8.5906067"><ele>150.0</ele><time>2026-05-02T13:43:34.316Z</time></trkpt><trkpt lat="39.2592317" lon="8.5907167"><ele>150.0</ele><time>2026-05-02T13:43:35.32Z</time></trkpt><trkpt lat="39.2590283" lon="8.59083"><ele>150.0</ele><time>2026-05-02T13:43:36.315Z</time></trkpt><trkpt lat="39.25882" lon="8.5909383"><ele>150.0</ele><time>2026-05-02T13:43:37.32Z</time></trkpt><trkpt lat="39.25862" lon="8.59105"><ele>150.0</ele><time>2026-05-02T13:43:38.357Z</time></trkpt><trkpt lat="39.25842" lon="8.5911667"><ele>150.0</ele><time>2026-05-02T13:43:39.32Z</time></trkpt><trkpt lat="39.2582267" lon="8.59128"><ele>150.0</ele><time>2026-05-02T13:43:40.319Z</time></trkpt><trkpt lat="39.2580183" lon="8.5913917"><ele>152.5</ele><time>2026-05-02T13:43:41.318Z</time></trkpt><trkpt lat="39.2578033" lon="8.591495"><ele>155.0</ele><time>2026-05-02T13:43:42.319Z</time></trkpt><trkpt lat="39.2575967" lon="8.5915983"><ele>155.0</ele><time>2026-05-02T13:43:43.316Z</time></trkpt><trkpt lat="39.2573867" lon="8.5917"><ele>155.0</ele><time>2026-05-02T13:43:44.361Z</time></trkpt><trkpt lat="39.2571833" lon="8.5918067"><ele>155.0</ele><time>2026-05-02T13:43:45.319Z</time></trkpt><trkpt lat="39.25697" lon="8.5919167"><ele>155.5</ele><time>2026-05-02T13:43:46.32Z</time></trkpt><trkpt lat="39.2567633" lon="8.59204"><ele>156.0</ele><time>2026-05-02T13:43:47.32Z</time></trkpt><trkpt lat="39.2565533" lon="8.59215"><ele>156.33333333333334</ele><time>2026-05-02T13:43:48.321Z</time></trkpt><trkpt lat="39.2563467" lon="8.59226"><ele>156.66666666666669</ele><time>2026-05-02T13:43:49.318Z</time></trkpt><trkpt lat="39.2561467" lon="8.5923767"><ele>157.0</ele><time>2026-05-02T13:43:50.362Z</time></trkpt><trkpt lat="39.25595" lon="8.5924933"><ele>157.0</ele><time>2026-05-02T13:43:51.321Z</time></trkpt><trkpt lat="39.2557683" lon="8.5926317"><ele>157.0</ele><time>2026-05-02T13:43:52.321Z</time></trkpt><trkpt lat="39.25559" lon="8.5927533"><ele>157.0</ele><time>2026-05-02T13:43:53.319Z</time></trkpt><trkpt lat="39.25541" lon="8.5928867"><ele>158.0</ele><time>2026-05-02T13:43:54.317Z</time></trkpt><trkpt lat="39.25522" lon="8.5930267"><ele>159.0</ele><time>2026-05-02T13:43:55.322Z</time></trkpt><trkpt lat="39.2550333" lon="8.593155"><ele>160.0</ele><time>2026-05-02T13:43:56.363Z</time></trkpt><trkpt lat="39.254855" lon="8.593275"><ele>161.33333333333334</ele><time>2026-05-02T13:43:57.314Z</time></trkpt><trkpt lat="39.2546883" lon="8.5933883"><ele>162.66666666666666</ele><time>2026-05-02T13:43:58.315Z</time></trkpt><trkpt lat="39.2545233" lon="8.593495"><ele>164.0</ele><time>2026-05-02T13:43:59.32Z</time></trkpt><trkpt lat="39.2543533" lon="8.5936317"><ele>163.33333333333331</ele><time>2026-05-02T13:44:00.319Z</time></trkpt><trkpt lat="39.2541883" lon="8.5937467"><ele>162.66666666666666</ele><time>2026-05-02T13:44:01.32Z</time></trkpt><trkpt lat="39.2540133" lon="8.5938633"><ele>162.0</ele><time>2026-05-02T13:44:02.364Z</time></trkpt><trkpt lat="39.2538267" lon="8.5939817"><ele>163.66666666666666</ele><time>2026-05-02T13:44:03.315Z</time></trkpt><trkpt lat="39.253645" lon="8.5940917"><ele>165.33333333333331</ele><time>2026-05-02T13:44:04.321Z</time></trkpt><trkpt lat="39.25345" lon="8.594195"><ele>167.0</ele><time>2026-05-02T13:44:05.317Z</time></trkpt><trkpt lat="39.2532467" lon="8.594285"><ele>167.5</ele><time>2026-05-02T13:44:06.321Z</time></trkpt><trkpt lat="39.25303" lon="8.59437"><ele>168.0</ele><time>2026-05-02T13:44:07.322Z</time></trkpt><trkpt lat="39.2528133" lon="8.594445"><ele>166.0</ele><time>2026-05-02T13:44:08.361Z</time></trkpt><trkpt lat="39.2525883" lon="8.594505"><ele>164.0</ele><time>2026-05-02T13:44:09.321Z</time></trkpt><trkpt lat="39.252365" lon="8.5945633"><ele>165.33333333333331</ele><time>2026-05-02T13:44:10.32Z</time></trkpt><trkpt lat="39.2521583" lon="8.5946117"><ele>166.66666666666666</ele><time>2026-05-02T13:44:11.321Z</time></trkpt><trkpt lat="39.2519433" lon="8.594675"><ele>168.0</ele><time>2026-05-02T13:44:12.321Z</time></trkpt><trkpt lat="39.25173" lon="8.5947367"><ele>168.0</ele><time>2026-05-02T13:44:13.32Z</time></trkpt><trkpt lat="39.251515" lon="8.5948017"><ele>168.0</ele><time>2026-05-02T13:44:14.363Z</time></trkpt><trkpt lat="39.2513017" lon="8.59486"><ele>168.0</ele><time>2026-05-02T13:44:15.315Z</time></trkpt><trkpt lat="39.2511067" lon="8.5949117"><ele>169.66666666666666</ele><time>2026-05-02T13:44:16.319Z</time></trkpt><trkpt lat="39.2508983" lon="8.59497"><ele>171.33333333333331</ele><time>2026-05-02T13:44:17.318Z</time></trkpt><trkpt lat="39.250675" lon="8.5950083"><ele>173.0</ele><time>2026-05-02T13:44:18.316Z</time></trkpt><trkpt lat="39.250465" lon="8.595065"><ele>174.0</ele><time>2026-05-02T13:44:19.322Z</time></trkpt><trkpt lat="39.250255" lon="8.5951433"><ele>175.0</ele><time>2026-05-02T13:44:20.36Z</time></trkpt><trkpt lat="39.2500483" lon="8.5952117"><ele>176.0</ele><time>2026-05-02T13:44:21.317Z</time></trkpt><trkpt lat="39.24984" lon="8.5952667"><ele>177.0</ele><time>2026-05-02T13:44:22.32Z</time></trkpt><trkpt lat="39.24962" lon="8.59532"><ele>178.0</ele><time>2026-05-02T13:44:23.315Z</time></trkpt><trkpt lat="39.2494" lon="8.59539"><ele>178.0</ele><time>2026-05-02T13:44:24.318Z</time></trkpt><trkpt lat="39.2491767" lon="8.5954567"><ele>178.0</ele><time>2026-05-02T13:44:25.316Z</time></trkpt><trkpt lat="39.24896" lon="8.59553"><ele>178.66666666666669</ele><time>2026-05-02T13:44:26.367Z</time></trkpt><trkpt lat="39.2487467" lon="8.5956033"><ele>179.33333333333334</ele><time>2026-05-02T13:44:27.315Z</time></trkpt><trkpt lat="39.2485233" lon="8.595665"><ele>180.0</ele><time>2026-05-02T13:44:28.319Z</time></trkpt><trkpt lat="39.2483033" lon="8.5957217"><ele>181.0</ele><time>2026-05-02T13:44:29.322Z</time></trkpt><trkpt lat="39.24808" lon="8.5957817"><ele>182.0</ele><time>2026-05-02T13:44:30.32Z</time></trkpt><trkpt lat="39.2478617" lon="8.5958467"><ele>182.0</ele><time>2026-05-02T13:44:31.319Z</time></trkpt><trkpt lat="39.2476333" lon="8.5959033"><ele>182.0</ele><time>2026-05-02T13:44:32.362Z</time></trkpt><trkpt lat="39.2473983" lon="8.5959667"><ele>183.0</ele><time>2026-05-02T13:44:33.323Z</time></trkpt><trkpt lat="39.2471733" lon="8.5960433"><ele>184.0</ele><time>2026-05-02T13:44:34.318Z</time></trkpt><trkpt lat="39.2469583" lon="8.596125"><ele>184.5</ele><time>2026-05-02T13:44:35.319Z</time></trkpt><trkpt lat="39.24674" lon="8.59619"><ele>185.0</ele><time>2026-05-02T13:44:36.318Z</time></trkpt><trkpt lat="39.24651" lon="8.5962433"><ele>186.0</ele><time>2026-05-02T13:44:37.32Z</time></trkpt><trkpt lat="39.246275" lon="8.5962983"><ele>187.0</ele><time>2026-05-02T13:44:38.359Z</time></trkpt><trkpt lat="39.2460483" lon="8.59635"><ele>187.0</ele><time>2026-05-02T13:44:39.321Z</time></trkpt><trkpt lat="39.2458167" lon="8.5964"><ele>187.0</ele><time>2026-05-02T13:44:40.32Z</time></trkpt><trkpt lat="39.245595" lon="8.59645"><ele>188.66666666666669</ele><time>2026-05-02T13:44:41.317Z</time></trkpt><trkpt lat="39.2453767" lon="8.596515"><ele>190.33333333333334</ele><time>2026-05-02T13:44:42.32Z</time></trkpt><trkpt lat="39.2451583" lon="8.5965817"><ele>192.0</ele><time>2026-05-02T13:44:43.317Z</time></trkpt><trkpt lat="39.24495" lon="8.596645"><ele>195.0</ele><time>2026-05-02T13:44:44.359Z</time></trkpt><trkpt lat="39.2447467" lon="8.59669"><ele>198.0</ele><time>2026-05-02T13:44:45.318Z</time></trkpt><trkpt lat="39.24452" lon="8.59676"><ele>201.0</ele><time>2026-05-02T13:44:46.319Z</time></trkpt><trkpt lat="39.24431" lon="8.5968283"><ele>201.0</ele><time>2026-05-02T13:44:47.314Z</time></trkpt><trkpt lat="39.24411" lon="8.5968767"><ele>201.0</ele><time>2026-05-02T13:44:48.32Z</time></trkpt><trkpt lat="39.24391" lon="8.5969367"><ele>201.0</ele><time>2026-05-02T13:44:49.319Z</time></trkpt><trkpt lat="39.2437317" lon="8.5970017"><ele>204.66666666666669</ele><time>2026-05-02T13:44:50.357Z</time></trkpt><trkpt lat="39.243535" lon="8.5971033"><ele>208.33333333333334</ele><time>2026-05-02T13:44:51.319Z</time></trkpt><trkpt lat="39.2433567" lon="8.59719"><ele>212.0</ele><time>2026-05-02T13:44:52.315Z</time></trkpt><trkpt lat="39.2431683" lon="8.5973183"><ele>212.33333333333334</ele><time>2026-05-02T13:44:53.317Z</time></trkpt><trkpt lat="39.2430083" lon="8.5974583"><ele>212.66666666666669</ele><time>2026-05-02T13:44:54.318Z</time></trkpt><trkpt lat="39.2428517" lon="8.5975883"><ele>213.0</ele><time>2026-05-02T13:44:55.32Z</time></trkpt><trkpt lat="39.2426917" lon="8.59775"><ele>216.33333333333331</ele><time>2026-05-02T13:44:56.378Z</time></trkpt><trkpt lat="39.2425417" lon="8.5979517"><ele>219.66666666666666</ele><time>2026-05-02T13:44:57.315Z</time></trkpt><trkpt lat="39.242435" lon="8.5981733"><ele>223.0</ele><time>2026-05-02T13:44:58.319Z</time></trkpt><trkpt lat="39.2423183" lon="8.598415"><ele>221.0</ele><time>2026-05-02T13:44:59.315Z</time></trkpt><trkpt lat="39.242225" lon="8.5986567"><ele>219.0</ele><time>2026-05-02T13:45:00.316Z</time></trkpt><trkpt lat="39.24213" lon="8.5989167"><ele>217.0</ele><time>2026-05-02T13:45:01.315Z</time></trkpt><trkpt lat="39.242055" lon="8.59919"><ele>217.0</ele><time>2026-05-02T13:45:02.366Z</time></trkpt><trkpt lat="39.2419733" lon="8.59945"><ele>217.0</ele><time>2026-05-02T13:45:03.316Z</time></trkpt><trkpt lat="39.2419" lon="8.5997083"><ele>217.0</ele><time>2026-05-02T13:45:04.319Z</time></trkpt><trkpt lat="39.2418367" lon="8.599985"><ele>221.0</ele><time>2026-05-02T13:45:05.321Z</time></trkpt><trkpt lat="39.241765" lon="8.60029"><ele>225.0</ele><time>2026-05-02T13:45:06.319Z</time></trkpt><trkpt lat="39.2416983" lon="8.6005683"><ele>230.0</ele><time>2026-05-02T13:45:07.317Z</time></trkpt><trkpt lat="39.2416483" lon="8.600855"><ele>235.0</ele><time>2026-05-02T13:45:08.358Z</time></trkpt><trkpt lat="39.2415683" lon="8.6011517"><ele>237.0</ele><time>2026-05-02T13:45:09.315Z</time></trkpt><trkpt lat="39.2414867" lon="8.601445"><ele>239.0</ele><time>2026-05-02T13:45:10.319Z</time></trkpt><trkpt lat="39.241405" lon="8.6017483"><ele>233.0</ele><time>2026-05-02T13:45:11.32Z</time></trkpt><trkpt lat="39.241335" lon="8.6020533"><ele>227.0</ele><time>2026-05-02T13:45:12.321Z</time></trkpt><trkpt lat="39.2412583" lon="8.6023533"><ele>227.0</ele><time>2026-05-02T13:45:13.316Z</time></trkpt><trkpt lat="39.2411717" lon="8.60264"><ele>227.0</ele><time>2026-05-02T13:45:14.357Z</time></trkpt><trkpt lat="39.24109" lon="8.6029433"><ele>228.0</ele><time>2026-05-02T13:45:15.317Z</time></trkpt><trkpt lat="39.2410117" lon="8.6032383"><ele>229.0</ele><time>2026-05-02T13:45:16.319Z</time></trkpt><trkpt lat="39.2409417" lon="8.6035533"><ele>233.0</ele><time>2026-05-02T13:45:17.319Z</time></trkpt><trkpt lat="39.2408617" lon="8.6038567"><ele>237.0</ele><time>2026-05-02T13:45:18.317Z</time></trkpt><trkpt lat="39.2407883" lon="8.6041567"><ele>237.0</ele><time>2026-05-02T13:45:19.316Z</time></trkpt><trkpt lat="39.2407017" lon="8.6044517"><ele>237.0</ele><time>2026-05-02T13:45:20.363Z</time></trkpt><trkpt lat="39.2406183" lon="8.6047433"><ele>238.0</ele><time>2026-05-02T13:45:21.317Z</time></trkpt><trkpt lat="39.2405333" lon="8.6050467"><ele>239.0</ele><time>2026-05-02T13:45:22.318Z</time></trkpt><trkpt lat="39.240445" lon="8.605345"><ele>239.5</ele><time>2026-05-02T13:45:23.32Z</time></trkpt><trkpt lat="39.2403267" lon="8.60564"><ele>240.0</ele><time>2026-05-02T13:45:24.319Z</time></trkpt><trkpt lat="39.24024" lon="8.6059417"><ele>241.0</ele><time>2026-05-02T13:45:25.319Z</time></trkpt><trkpt lat="39.2401717" lon="8.6062433"><ele>242.0</ele><time>2026-05-02T13:45:26.367Z</time></trkpt><trkpt lat="39.2401133" lon="8.6065417"><ele>242.0</ele><time>2026-05-02T13:45:27.32Z</time></trkpt><trkpt lat="39.2400633" lon="8.6068083"><ele>242.0</ele><time>2026-05-02T13:45:28.317Z</time></trkpt><trkpt lat="39.2400417" lon="8.6070917"><ele>242.0</ele><time>2026-05-02T13:45:29.317Z</time></trkpt><trkpt lat="39.2400383" lon="8.6073917"><ele>243.33333333333334</ele><time>2026-05-02T13:45:30.32Z</time></trkpt><trkpt lat="39.240035" lon="8.6076733"><ele>244.66666666666669</ele><time>2026-05-02T13:45:31.32Z</time></trkpt><trkpt lat="39.2400183" lon="8.6079483"><ele>246.0</ele><time>2026-05-02T13:45:32.368Z</time></trkpt><trkpt lat="39.240005" lon="8.60823"><ele>248.0</ele><time>2026-05-02T13:45:33.316Z</time></trkpt><trkpt lat="39.23999" lon="8.60848"><ele>250.0</ele><time>2026-05-02T13:45:34.32Z</time></trkpt><trkpt lat="39.239965" lon="8.6087567"><ele>252.0</ele><time>2026-05-02T13:45:35.317Z</time></trkpt><trkpt lat="39.2399417" lon="8.6090167"><ele>255.0</ele><time>2026-05-02T13:45:36.318Z</time></trkpt><trkpt lat="39.2399183" lon="8.6092817"><ele>258.0</ele><time>2026-05-02T13:45:37.32Z</time></trkpt><trkpt lat="39.2398617" lon="8.609545"><ele>261.0</ele><time>2026-05-02T13:45:38.362Z</time></trkpt><trkpt lat="39.23984" lon="8.6098133"><ele>261.6666666666667</ele><time>2026-05-02T13:45:39.316Z</time></trkpt><trkpt lat="39.2398133" lon="8.6100817"><ele>262.33333333333337</ele><time>2026-05-02T13:45:40.319Z</time></trkpt><trkpt lat="39.2397917" lon="8.610345"><ele>263.0</ele><time>2026-05-02T13:45:41.315Z</time></trkpt><trkpt lat="39.239785" lon="8.6105967"><ele>263.33333333333337</ele><time>2026-05-02T13:45:42.317Z</time></trkpt><trkpt lat="39.2398067" lon="8.6108383"><ele>263.6666666666667</ele><time>2026-05-02T13:45:43.322Z</time></trkpt><trkpt lat="39.2398617" lon="8.6110717"><ele>264.0</ele><time>2026-05-02T13:45:44.359Z</time></trkpt><trkpt lat="39.2399267" lon="8.6113283"><ele>265.0</ele><time>2026-05-02T13:45:45.316Z</time></trkpt><trkpt lat="39.239985" lon="8.6115867"><ele>266.0</ele><time>2026-05-02T13:45:46.32Z</time></trkpt><trkpt lat="39.2400533" lon="8.6118517"><ele>267.0</ele><time>2026-05-02T13:45:47.317Z</time></trkpt><trkpt lat="39.2401133" lon="8.6121083"><ele>268.6666666666667</ele><time>2026-05-02T13:45:48.318Z</time></trkpt><trkpt lat="39.240175" lon="8.6123633"><ele>270.33333333333337</ele><time>2026-05-02T13:45:49.318Z</time></trkpt><trkpt lat="39.24024" lon="8.6126233"><ele>272.0</ele><time>2026-05-02T13:45:50.359Z</time></trkpt><trkpt lat="39.24029" lon="8.612875"><ele>273.33333333333337</ele><time>2026-05-02T13:45:51.316Z</time></trkpt><trkpt lat="39.2403283" lon="8.61313"><ele>274.6666666666667</ele><time>2026-05-02T13:45:52.319Z</time></trkpt><trkpt lat="39.2403383" lon="8.6133833"><ele>276.0</ele><time>2026-05-02T13:45:53.317Z</time></trkpt><trkpt lat="39.2403367" lon="8.6136533"><ele>279.0</ele><time>2026-05-02T13:45:54.316Z</time></trkpt><trkpt lat="39.2403217" lon="8.6139183"><ele>282.0</ele><time>2026-05-02T13:45:55.317Z</time></trkpt><trkpt lat="39.2403" lon="8.6141967"><ele>285.0</ele><time>2026-05-02T13:45:56.365Z</time></trkpt><trkpt lat="39.240275" lon="8.6144867"><ele>287.6666666666667</ele><time>2026-05-02T13:45:57.316Z</time></trkpt><trkpt lat="39.240255" lon="8.6147683"><ele>290.33333333333337</ele><time>2026-05-02T13:45:58.32Z</time></trkpt><trkpt lat="39.240235" lon="8.615055"><ele>293.0</ele><time>2026-05-02T13:45:59.319Z</time></trkpt><trkpt lat="39.24021" lon="8.6153483"><ele>294.6666666666667</ele><time>2026-05-02T13:46:00.317Z</time></trkpt><trkpt lat="39.240185" lon="8.6156317"><ele>296.3333333333333</ele><time>2026-05-02T13:46:01.316Z</time></trkpt><trkpt lat="39.2401667" lon="8.6159167"><ele>298.0</ele><time>2026-05-02T13:46:02.365Z</time></trkpt><trkpt lat="39.2401533" lon="8.6162117"><ele>300.66666666666663</ele><time>2026-05-02T13:46:03.319Z</time></trkpt><trkpt lat="39.2401267" lon="8.61649"><ele>303.3333333333333</ele><time>2026-05-02T13:46:04.319Z</time></trkpt><trkpt lat="39.2401117" lon="8.61677"><ele>306.0</ele><time>2026-05-02T13:46:05.314Z</time></trkpt><trkpt lat="39.2400967" lon="8.617055"><ele>306.0</ele><time>2026-05-02T13:46:06.315Z</time></trkpt><trkpt lat="39.2400483" lon="8.6173283"><ele>306.0</ele><time>2026-05-02T13:46:07.318Z</time></trkpt><trkpt lat="39.2400017" lon="8.617615"><ele>306.0</ele><time>2026-05-02T13:46:08.366Z</time></trkpt><trkpt lat="39.2399667" lon="8.6178933"><ele>306.0</ele><time>2026-05-02T13:46:09.317Z</time></trkpt><trkpt lat="39.2399133" lon="8.61818"><ele>306.0</ele><time>2026-05-02T13:46:10.314Z</time></trkpt><trkpt lat="39.2398583" lon="8.61842"><ele>306.0</ele><time>2026-05-02T13:46:11.318Z</time></trkpt><trkpt lat="39.2398117" lon="8.618645"><ele>308.5</ele><time>2026-05-02T13:46:12.317Z</time></trkpt><trkpt lat="39.239785" lon="8.618845"><ele>311.0</ele><time>2026-05-02T13:46:13.317Z</time></trkpt><trkpt lat="39.2397333" lon="8.6190483"><ele>313.5</ele><time>2026-05-02T13:46:14.364Z</time></trkpt><trkpt lat="39.2396783" lon="8.6191833"><ele>316.0</ele><time>2026-05-02T13:46:15.314Z</time></trkpt><trkpt lat="39.2396133" lon="8.6193"><ele>316.0</ele><time>2026-05-02T13:46:16.316Z</time></trkpt><trkpt lat="39.2395233" lon="8.6194033"><ele>316.0</ele><time>2026-05-02T13:46:17.318Z</time></trkpt><trkpt lat="39.2394333" lon="8.6194783"><ele>316.0</ele><time>2026-05-02T13:46:18.316Z</time></trkpt><trkpt lat="39.2393483" lon="8.619545"><ele>316.0</ele><time>2026-05-02T13:46:19.315Z</time></trkpt><trkpt lat="39.239245" lon="8.6195567"><ele>316.0</ele><time>2026-05-02T13:46:20.364Z</time></trkpt><trkpt lat="39.239155" lon="8.61957"><ele>316.0</ele><time>2026-05-02T13:46:21.315Z</time></trkpt><trkpt lat="39.2391133" lon="8.6194717"><ele>316.0</ele><time>2026-05-02T13:46:22.318Z</time></trkpt><trkpt lat="39.2391117" lon="8.6193633"><ele>316.0</ele><time>2026-05-02T13:46:23.317Z</time></trkpt><trkpt lat="39.2391583" lon="8.6192383"><ele>316.0</ele><time>2026-05-02T13:46:24.317Z</time></trkpt><trkpt lat="39.23921" lon="8.61909"><ele>316.0</ele><time>2026-05-02T13:46:25.315Z</time></trkpt><trkpt lat="39.2392867" lon="8.6188967"><ele>316.0</ele><time>2026-05-02T13:46:26.366Z</time></trkpt><trkpt lat="39.23934" lon="8.6186983"><ele>316.0</ele><time>2026-05-02T13:46:27.317Z</time></trkpt><trkpt lat="39.2393433" lon="8.6184817"><ele>316.0</ele><time>2026-05-02T13:46:28.319Z</time></trkpt><trkpt lat="39.23934" lon="8.618235"><ele>322.3333333333333</ele><time>2026-05-02T13:46:29.318Z</time></trkpt><trkpt lat="39.239315" lon="8.618005"><ele>328.6666666666667</ele><time>2026-05-02T13:46:30.315Z</time></trkpt><trkpt lat="39.2392783" lon="8.6178017"><ele>335.0</ele><time>2026-05-02T13:46:31.318Z</time></trkpt><trkpt lat="39.2392283" lon="8.6176083"><ele>336.75</ele><time>2026-05-02T13:46:32.363Z</time></trkpt><trkpt lat="39.2391667" lon="8.6174317"><ele>338.5</ele><time>2026-05-02T13:46:33.313Z</time></trkpt><trkpt lat="39.2390933" lon="8.6172817"><ele>340.25</ele><time>2026-05-02T13:46:34.318Z</time></trkpt><trkpt lat="39.2390133" lon="8.617155"><ele>342.0</ele><time>2026-05-02T13:46:35.318Z</time></trkpt><trkpt lat="39.2388783" lon="8.6170833"><ele>343.75</ele><time>2026-05-02T13:46:36.316Z</time></trkpt><trkpt lat="39.2387333" lon="8.6170217"><ele>345.5</ele><time>2026-05-02T13:46:37.318Z</time></trkpt><trkpt lat="39.23859" lon="8.6169683"><ele>347.25</ele><time>2026-05-02T13:46:38.364Z</time></trkpt><trkpt lat="39.2384567" lon="8.6169117"><ele>349.0</ele><time>2026-05-02T13:46:39.316Z</time></trkpt><trkpt lat="39.23834" lon="8.6168517"><ele>350.0</ele><time>2026-05-02T13:46:40.315Z</time></trkpt><trkpt lat="39.238235" lon="8.616785"><ele>351.0</ele><time>2026-05-02T13:46:41.319Z</time></trkpt><trkpt lat="39.2381417" lon="8.6167117"><ele>352.0</ele><time>2026-05-02T13:46:42.319Z</time></trkpt><trkpt lat="39.23806" lon="8.6166383"><ele>353.0</ele><time>2026-05-02T13:46:43.317Z</time></trkpt><trkpt lat="39.237985" lon="8.6165617"><ele>354.0</ele><time>2026-05-02T13:46:44.364Z</time></trkpt><trkpt lat="39.2379417" lon="8.616475"><ele>354.0</ele><time>2026-05-02T13:46:45.318Z</time></trkpt><trkpt lat="39.2379367" lon="8.6163833"><ele>354.0</ele><time>2026-05-02T13:46:46.319Z</time></trkpt><trkpt lat="39.23804" lon="8.6162583"><ele>354.0</ele><time>2026-05-02T13:46:47.317Z</time></trkpt><trkpt lat="39.2381267" lon="8.6161367"><ele>354.0</ele><time>2026-05-02T13:46:48.321Z</time></trkpt><trkpt lat="39.2382617" lon="8.6159383"><ele>354.0</ele><time>2026-05-02T13:46:49.319Z</time></trkpt><trkpt lat="39.2383583" lon="8.6157433"><ele>354.0</ele><time>2026-05-02T13:46:50.365Z</time></trkpt><trkpt lat="39.2384717" lon="8.615555"><ele>354.0</ele><time>2026-05-02T13:46:51.318Z</time></trkpt><trkpt lat="39.2385033" lon="8.6153967"><ele>354.0</ele><time>2026-05-02T13:46:52.314Z</time></trkpt><trkpt lat="39.2384267" lon="8.615345"><ele>354.0</ele><time>2026-05-02T13:46:53.32Z</time></trkpt><trkpt lat="39.2383083" lon="8.6153983"><ele>354.0</ele><time>2026-05-02T13:46:54.319Z</time></trkpt><trkpt lat="39.2381883" lon="8.615465"><ele>354.0</ele><time>2026-05-02T13:46:55.319Z</time></trkpt><trkpt lat="39.23806" lon="8.61555"><ele>356.0</ele><time>2026-05-02T13:46:56.364Z</time></trkpt><trkpt lat="39.2379333" lon="8.6156417"><ele>358.0</ele><time>2026-05-02T13:46:57.314Z</time></trkpt><trkpt lat="39.2377917" lon="8.6157417"><ele>360.0</ele><time>2026-05-02T13:46:58.314Z</time></trkpt><trkpt lat="39.237645" lon="8.6158467"><ele>360.0</ele><time>2026-05-02T13:46:59.316Z</time></trkpt><trkpt lat="39.2374933" lon="8.615945"><ele>360.0</ele><time>2026-05-02T13:47:00.318Z</time></trkpt><trkpt lat="39.2373417" lon="8.616045"><ele>360.0</ele><time>2026-05-02T13:47:01.318Z</time></trkpt><trkpt lat="39.2371867" lon="8.61615"><ele>363.6666666666667</ele><time>2026-05-02T13:47:02.365Z</time></trkpt><trkpt lat="39.2370317" lon="8.6162533"><ele>367.33333333333337</ele><time>2026-05-02T13:47:03.32Z</time></trkpt><trkpt lat="39.2368683" lon="8.6163583"><ele>371.0</ele><time>2026-05-02T13:47:04.314Z</time></trkpt><trkpt lat="39.2367067" lon="8.6164683"><ele>371.0</ele><time>2026-05-02T13:47:05.321Z</time></trkpt><trkpt lat="39.236545" lon="8.6165833"><ele>371.0</ele><time>2026-05-02T13:47:06.32Z</time></trkpt><trkpt lat="39.236385" lon="8.6166983"><ele>371.0</ele><time>2026-05-02T13:47:07.318Z</time></trkpt><trkpt lat="39.2362267" lon="8.6168167"><ele>372.33333333333337</ele><time>2026-05-02T13:47:08.368Z</time></trkpt><trkpt lat="39.236065" lon="8.616935"><ele>373.6666666666667</ele><time>2026-05-02T13:47:09.316Z</time></trkpt><trkpt lat="39.2359033" lon="8.6170533"><ele>375.0</ele><time>2026-05-02T13:47:10.319Z</time></trkpt><trkpt lat="39.23574" lon="8.6171617"><ele>384.0</ele><time>2026-05-02T13:47:11.319Z</time></trkpt><trkpt lat="39.23558" lon="8.6172617"><ele>393.0</ele><time>2026-05-02T13:47:12.32Z</time></trkpt><trkpt lat="39.23541" lon="8.6173467"><ele>402.0</ele><time>2026-05-02T13:47:13.315Z</time></trkpt><trkpt lat="39.2352467" lon="8.6174233"><ele>402.0</ele><time>2026-05-02T13:47:14.367Z</time></trkpt><trkpt lat="39.2350867" lon="8.617495"><ele>402.0</ele><time>2026-05-02T13:47:15.316Z</time></trkpt><trkpt lat="39.2349417" lon="8.6175617"><ele>402.0</ele><time>2026-05-02T13:47:16.317Z</time></trkpt><trkpt lat="39.2348067" lon="8.6176333"><ele>408.0</ele><time>2026-05-02T13:47:17.319Z</time></trkpt><trkpt lat="39.2346867" lon="8.6177117"><ele>414.0</ele><time>2026-05-02T13:47:18.316Z</time></trkpt><trkpt lat="39.2345867" lon="8.6177933"><ele>420.0</ele><time>2026-05-02T13:47:19.319Z</time></trkpt><trkpt lat="39.2344983" lon="8.617895"><ele>426.0</ele><time>2026-05-02T13:47:20.364Z</time></trkpt><trkpt lat="39.234435" lon="8.618005"><ele>426.0</ele><time>2026-05-02T13:47:21.315Z</time></trkpt><trkpt lat="39.2344033" lon="8.6181333"><ele>426.0</ele><time>2026-05-02T13:47:22.319Z</time></trkpt><trkpt lat="39.234475" lon="8.6183017"><ele>426.0</ele><time>2026-05-02T13:47:23.316Z</time></trkpt><trkpt lat="39.2345" lon="8.6184533"><ele>426.0</ele><time>2026-05-02T13:47:24.318Z</time></trkpt><trkpt lat="39.2345083" lon="8.618595"><ele>424.5</ele><time>2026-05-02T13:47:25.319Z</time></trkpt><trkpt lat="39.23448" lon="8.6187233"><ele>423.0</ele><time>2026-05-02T13:47:26.376Z</time></trkpt><trkpt lat="39.2344267" lon="8.618855"><ele>421.5</ele><time>2026-05-02T13:47:27.319Z</time></trkpt><trkpt lat="39.2343583" lon="8.6189783"><ele>420.0</ele><time>2026-05-02T13:47:28.317Z</time></trkpt><trkpt lat="39.2342733" lon="8.6191017"><ele>420.0</ele><time>2026-05-02T13:47:29.317Z</time></trkpt><trkpt lat="39.234185" lon="8.6192317"><ele>420.0</ele><time>2026-05-02T13:47:30.32Z</time></trkpt><trkpt lat="39.234105" lon="8.6193767"><ele>420.0</ele><time>2026-05-02T13:47:31.314Z</time></trkpt><trkpt lat="39.2340333" lon="8.619535"><ele>420.0</ele><time>2026-05-02T13:47:32.365Z</time></trkpt><trkpt lat="39.233975" lon="8.619705"><ele>426.5</ele><time>2026-05-02T13:47:33.319Z</time></trkpt><trkpt lat="39.23392" lon="8.6198617"><ele>433.0</ele><time>2026-05-02T13:47:34.322Z</time></trkpt><trkpt lat="39.2338667" lon="8.620005"><ele>439.5</ele><time>2026-05-02T13:47:35.318Z</time></trkpt><trkpt lat="39.233805" lon="8.6201233"><ele>446.0</ele><time>2026-05-02T13:47:36.317Z</time></trkpt><trkpt lat="39.2337283" lon="8.620185"><ele>445.99999999999994</ele><time>2026-05-02T13:47:37.314Z</time></trkpt><trkpt lat="39.2336483" lon="8.62022"><ele>446.0</ele><time>2026-05-02T13:47:38.366Z</time></trkpt><trkpt lat="39.2335733" lon="8.6202317"><ele>446.0</ele><time>2026-05-02T13:47:39.319Z</time></trkpt><trkpt lat="39.2334917" lon="8.6201967"><ele>446.0</ele><time>2026-05-02T13:47:40.32Z</time></trkpt><trkpt lat="39.2334267" lon="8.6201183"><ele>445.99999999999994</ele><time>2026-05-02T13:47:41.319Z</time></trkpt><trkpt lat="39.233365" lon="8.6200283"><ele>446.0</ele><time>2026-05-02T13:47:42.314Z</time></trkpt><trkpt lat="39.2333083" lon="8.6199033"><ele>446.0</ele><time>2026-05-02T13:47:43.315Z</time></trkpt><trkpt lat="39.2333017" lon="8.6197267"><ele>446.0</ele><time>2026-05-02T13:47:44.364Z</time></trkpt><trkpt lat="39.23333" lon="8.619565"><ele>446.0</ele><time>2026-05-02T13:47:45.318Z</time></trkpt><trkpt lat="39.233385" lon="8.6193667"><ele>446.0</ele><time>2026-05-02T13:47:46.318Z</time></trkpt><trkpt lat="39.233465" lon="8.6191917"><ele>449.3333333333333</ele><time>2026-05-02T13:47:47.315Z</time></trkpt><trkpt lat="39.233525" lon="8.61902"><ele>452.66666666666663</ele><time>2026-05-02T13:47:48.318Z</time></trkpt><trkpt lat="39.23363" lon="8.6188067"><ele>456.0</ele><time>2026-05-02T13:47:49.315Z</time></trkpt><trkpt lat="39.2336767" lon="8.61864"><ele>459.25</ele><time>2026-05-02T13:47:50.367Z</time></trkpt><trkpt lat="39.233715" lon="8.618465"><ele>462.5</ele><time>2026-05-02T13:47:51.319Z</time></trkpt><trkpt lat="39.233635" lon="8.618305"><ele>465.75</ele><time>2026-05-02T13:47:52.318Z</time></trkpt><trkpt lat="39.2335767" lon="8.6181467"><ele>469.0</ele><time>2026-05-02T13:47:53.317Z</time></trkpt><trkpt lat="39.23352" lon="8.6179883"><ele>469.0</ele><time>2026-05-02T13:47:54.316Z</time></trkpt><trkpt lat="39.2335017" lon="8.6178267"><ele>469.0</ele><time>2026-05-02T13:47:55.317Z</time></trkpt><trkpt lat="39.2334933" lon="8.617665"><ele>469.0</ele><time>2026-05-02T13:47:56.378Z</time></trkpt><trkpt lat="39.23353" lon="8.6175083"><ele>469.0</ele><time>2026-05-02T13:47:57.316Z</time></trkpt><trkpt lat="39.23357" lon="8.6173517"><ele>468.0</ele><time>2026-05-02T13:47:58.32Z</time></trkpt><trkpt lat="39.2336533" lon="8.6171833"><ele>467.0</ele><time>2026-05-02T13:47:59.319Z</time></trkpt><trkpt lat="39.2337617" lon="8.6170467"><ele>466.0</ele><time>2026-05-02T13:48:00.317Z</time></trkpt><trkpt lat="39.2338667" lon="8.6169183"><ele>466.0</ele><time>2026-05-02T13:48:01.318Z</time></trkpt><trkpt lat="39.2339167" lon="8.616795"><ele>466.0</ele><time>2026-05-02T13:48:02.365Z</time></trkpt><trkpt lat="39.23402" lon="8.6166883"><ele>466.0</ele><time>2026-05-02T13:48:03.315Z</time></trkpt><trkpt lat="39.2340933" lon="8.6165567"><ele>466.0</ele><time>2026-05-02T13:48:04.316Z</time></trkpt><trkpt lat="39.2341383" lon="8.6164167"><ele>459.5</ele><time>2026-05-02T13:48:05.315Z</time></trkpt><trkpt lat="39.2341617" lon="8.6162633"><ele>453.0</ele><time>2026-05-02T13:48:06.316Z</time></trkpt><trkpt lat="39.2341633" lon="8.6161067"><ele>446.5</ele><time>2026-05-02T13:48:07.32Z</time></trkpt><trkpt lat="39.2341633" lon="8.6159533"><ele>440.0</ele><time>2026-05-02T13:48:08.363Z</time></trkpt><trkpt lat="39.234145" lon="8.6158017"><ele>442.75</ele><time>2026-05-02T13:48:09.315Z</time></trkpt><trkpt lat="39.23405" lon="8.6156917"><ele>445.5</ele><time>2026-05-02T13:48:10.314Z</time></trkpt><trkpt lat="39.23396" lon="8.61555"><ele>448.25</ele><time>2026-05-02T13:48:11.32Z</time></trkpt><trkpt lat="39.23387" lon="8.61541"><ele>451.0</ele><time>2026-05-02T13:48:12.318Z</time></trkpt><trkpt lat="39.23378" lon="8.6152783"><ele>451.5</ele><time>2026-05-02T13:48:13.32Z</time></trkpt><trkpt lat="39.233725" lon="8.61515"><ele>452.0</ele><time>2026-05-02T13:48:14.366Z</time></trkpt><trkpt lat="39.2336433" lon="8.6150383"><ele>452.5</ele><time>2026-05-02T13:48:15.316Z</time></trkpt><trkpt lat="39.2335883" lon="8.6149067"><ele>453.0</ele><time>2026-05-02T13:48:16.315Z</time></trkpt><trkpt lat="39.2335133" lon="8.6147733"><ele>453.0</ele><time>2026-05-02T13:48:17.32Z</time></trkpt><trkpt lat="39.2334367" lon="8.614625"><ele>453.0</ele><time>2026-05-02T13:48:18.316Z</time></trkpt><trkpt lat="39.2333633" lon="8.614465"><ele>453.0</ele><time>2026-05-02T13:48:19.316Z</time></trkpt><trkpt lat="39.2332733" lon="8.6143133"><ele>453.0</ele><time>2026-05-02T13:48:20.368Z</time></trkpt><trkpt lat="39.2331667" lon="8.6141733"><ele>460.0</ele><time>2026-05-02T13:48:21.32Z</time></trkpt><trkpt lat="39.2330533" lon="8.6140317"><ele>467.0</ele><time>2026-05-02T13:48:22.317Z</time></trkpt><trkpt lat="39.2329383" lon="8.613895"><ele>474.0</ele><time>2026-05-02T13:48:23.318Z</time></trkpt><trkpt lat="39.23282" lon="8.6137617"><ele>468.66666666666663</ele><time>2026-05-02T13:48:24.316Z</time></trkpt><trkpt lat="39.2326983" lon="8.6136283"><ele>463.3333333333333</ele><time>2026-05-02T13:48:25.32Z</time></trkpt><trkpt lat="39.2325833" lon="8.6134983"><ele>458.0</ele><time>2026-05-02T13:48:26.354Z</time></trkpt><trkpt lat="39.2324683" lon="8.61338"><ele>458.0</ele><time>2026-05-02T13:48:27.319Z</time></trkpt><trkpt lat="39.2323517" lon="8.6132733"><ele>458.0</ele><time>2026-05-02T13:48:28.32Z</time></trkpt><trkpt lat="39.2322333" lon="8.6131883"><ele>458.0</ele><time>2026-05-02T13:48:29.319Z</time></trkpt><trkpt lat="39.23213" lon="8.6130833"><ele>458.0</ele><time>2026-05-02T13:48:30.318Z</time></trkpt><trkpt lat="39.2320417" lon="8.6129767"><ele>463.4</ele><time>2026-05-02T13:48:31.318Z</time></trkpt><trkpt lat="39.2319683" lon="8.6128583"><ele>468.79999999999995</ele><time>2026-05-02T13:48:32.364Z</time></trkpt><trkpt lat="39.23192" lon="8.6127317"><ele>474.2</ele><time>2026-05-02T13:48:33.32Z</time></trkpt><trkpt lat="39.2318967" lon="8.6126117"><ele>479.6</ele><time>2026-05-02T13:48:34.318Z</time></trkpt><trkpt lat="39.231885" lon="8.612495"><ele>485.0</ele><time>2026-05-02T13:48:35.319Z</time></trkpt><trkpt lat="39.2319683" lon="8.612385"><ele>486.5</ele><time>2026-05-02T13:48:36.321Z</time></trkpt><trkpt lat="39.2320633" lon="8.61229"><ele>488.0</ele><time>2026-05-02T13:48:37.319Z</time></trkpt><trkpt lat="39.23222" lon="8.61222"><ele>489.5</ele><time>2026-05-02T13:48:38.363Z</time></trkpt><trkpt lat="39.232365" lon="8.6121583"><ele>491.0</ele><time>2026-05-02T13:48:39.319Z</time></trkpt><trkpt lat="39.2325183" lon="8.612095"><ele>487.5</ele><time>2026-05-02T13:48:40.319Z</time></trkpt><trkpt lat="39.23267" lon="8.6120417"><ele>484.0</ele><time>2026-05-02T13:48:41.319Z</time></trkpt><trkpt lat="39.2327667" lon="8.61191"><ele>480.5</ele><time>2026-05-02T13:48:42.317Z</time></trkpt><trkpt lat="39.2327717" lon="8.611765"><ele>477.0</ele><time>2026-05-02T13:48:43.32Z</time></trkpt><trkpt lat="39.2327317" lon="8.61166"><ele>477.0</ele><time>2026-05-02T13:48:44.366Z</time></trkpt><trkpt lat="39.232645" lon="8.6116017"><ele>477.00000000000006</ele><time>2026-05-02T13:48:45.32Z</time></trkpt><trkpt lat="39.232535" lon="8.6116167"><ele>477.00000000000006</ele><time>2026-05-02T13:48:46.318Z</time></trkpt><trkpt lat="39.2324433" lon="8.6116617"><ele>477.0</ele><time>2026-05-02T13:48:47.316Z</time></trkpt><trkpt lat="39.2323333" lon="8.611735"><ele>477.0</ele><time>2026-05-02T13:48:48.318Z</time></trkpt><trkpt lat="39.2322133" lon="8.6118217"><ele>480.5</ele><time>2026-05-02T13:48:49.321Z</time></trkpt><trkpt lat="39.232085" lon="8.6119133"><ele>484.0</ele><time>2026-05-02T13:48:50.364Z</time></trkpt><trkpt lat="39.2319583" lon="8.612005"><ele>487.5</ele><time>2026-05-02T13:48:51.315Z</time></trkpt><trkpt lat="39.2318467" lon="8.6121"><ele>491.0</ele><time>2026-05-02T13:48:52.32Z</time></trkpt><trkpt lat="39.2317333" lon="8.612215"><ele>491.0</ele><time>2026-05-02T13:48:53.317Z</time></trkpt><trkpt lat="39.2316383" lon="8.6123533"><ele>491.0</ele><time>2026-05-02T13:48:54.318Z</time></trkpt><trkpt lat="39.2315583" lon="8.61251"><ele>491.0</ele><time>2026-05-02T13:48:55.318Z</time></trkpt><trkpt lat="39.2314883" lon="8.6126867"><ele>491.0</ele><time>2026-05-02T13:48:56.377Z</time></trkpt><trkpt lat="39.231435" lon="8.6128783"><ele>502.3333333333333</ele><time>2026-05-02T13:48:57.317Z</time></trkpt><trkpt lat="39.2313983" lon="8.6130733"><ele>513.6666666666666</ele><time>2026-05-02T13:48:58.319Z</time></trkpt><trkpt lat="39.2313817" lon="8.6132633"><ele>525.0</ele><time>2026-05-02T13:48:59.318Z</time></trkpt><trkpt lat="39.2314067" lon="8.613465"><ele>516.0</ele><time>2026-05-02T13:49:00.321Z</time></trkpt><trkpt lat="39.23148" lon="8.6136583"><ele>507.0</ele><time>2026-05-02T13:49:01.317Z</time></trkpt><trkpt lat="39.2315367" lon="8.6138383"><ele>498.0</ele><time>2026-05-02T13:49:02.365Z</time></trkpt><trkpt lat="39.2316083" lon="8.61401"><ele>498.0</ele><time>2026-05-02T13:49:03.322Z</time></trkpt><trkpt lat="39.231705" lon="8.6141783"><ele>498.0</ele><time>2026-05-02T13:49:04.316Z</time></trkpt><trkpt lat="39.2318017" lon="8.6143517"><ele>498.0</ele><time>2026-05-02T13:49:05.314Z</time></trkpt><trkpt lat="39.2318983" lon="8.6145283"><ele>503.33333333333337</ele><time>2026-05-02T13:49:06.319Z</time></trkpt><trkpt lat="39.2319833" lon="8.6147133"><ele>508.6666666666667</ele><time>2026-05-02T13:49:07.319Z</time></trkpt><trkpt lat="39.2320683" lon="8.61491"><ele>514.0</ele><time>2026-05-02T13:49:08.364Z</time></trkpt><trkpt lat="39.2321317" lon="8.6150967"><ele>514.0</ele><time>2026-05-02T13:49:09.321Z</time></trkpt><trkpt lat="39.2321817" lon="8.615275"><ele>514.0</ele><time>2026-05-02T13:49:10.317Z</time></trkpt><trkpt lat="39.2322183" lon="8.61545"><ele>514.0</ele><time>2026-05-02T13:49:11.32Z</time></trkpt><trkpt lat="39.232205" lon="8.6156083"><ele>514.0</ele><time>2026-05-02T13:49:12.314Z</time></trkpt><trkpt lat="39.2321833" lon="8.6157617"><ele>515.5</ele><time>2026-05-02T13:49:13.319Z</time></trkpt><trkpt lat="39.232135" lon="8.6159183"><ele>517.0</ele><time>2026-05-02T13:49:14.371Z</time></trkpt><trkpt lat="39.2320667" lon="8.61607"><ele>518.5</ele><time>2026-05-02T13:49:15.314Z</time></trkpt><trkpt lat="39.2320083" lon="8.6162183"><ele>520.0</ele><time>2026-05-02T13:49:16.317Z</time></trkpt><trkpt lat="39.2319617" lon="8.6163683"><ele>520.5</ele><time>2026-05-02T13:49:17.318Z</time></trkpt><trkpt lat="39.2319983" lon="8.6165117"><ele>521.0</ele><time>2026-05-02T13:49:18.32Z</time></trkpt><trkpt lat="39.2320717" lon="8.61666"><ele>521.5</ele><time>2026-05-02T13:49:19.314Z</time></trkpt><trkpt lat="39.2321667" lon="8.616805"><ele>522.0</ele><time>2026-05-02T13:49:20.364Z</time></trkpt><trkpt lat="39.232265" lon="8.6169383"><ele>519.5</ele><time>2026-05-02T13:49:21.318Z</time></trkpt><trkpt lat="39.2323517" lon="8.6170633"><ele>517.0</ele><time>2026-05-02T13:49:22.318Z</time></trkpt><trkpt lat="39.2324283" lon="8.6171767"><ele>514.5</ele><time>2026-05-02T13:49:23.32Z</time></trkpt><trkpt lat="39.232475" lon="8.6173067"><ele>512.0</ele><time>2026-05-02T13:49:24.321Z</time></trkpt><trkpt lat="39.23251" lon="8.617445"><ele>512.0</ele><time>2026-05-02T13:49:25.315Z</time></trkpt><trkpt lat="39.2324933" lon="8.6175667"><ele>512.0</ele><time>2026-05-02T13:49:26.377Z</time></trkpt><trkpt lat="39.2324517" lon="8.617665"><ele>512.0</ele><time>2026-05-02T13:49:27.318Z</time></trkpt><trkpt lat="39.23237" lon="8.6177383"><ele>512.0</ele><time>2026-05-02T13:49:28.316Z</time></trkpt><trkpt lat="39.2322883" lon="8.6178167"><ele>512.0</ele><time>2026-05-02T13:49:29.317Z</time></trkpt><trkpt lat="39.232235" lon="8.617915"><ele>518.5</ele><time>2026-05-02T13:49:30.315Z</time></trkpt><trkpt lat="39.2321467" lon="8.6179817"><ele>525.0</ele><time>2026-05-02T13:49:31.314Z</time></trkpt><trkpt lat="39.2320483" lon="8.6180033"><ele>531.5</ele><time>2026-05-02T13:49:32.363Z</time></trkpt><trkpt lat="39.2319167" lon="8.617915"><ele>538.0</ele><time>2026-05-02T13:49:33.314Z</time></trkpt><trkpt lat="39.2317683" lon="8.6177917"><ele>538.0</ele><time>2026-05-02T13:49:34.314Z</time></trkpt><trkpt lat="39.2316267" lon="8.6176883"><ele>538.0</ele><time>2026-05-02T13:49:35.317Z</time></trkpt><trkpt lat="39.2314767" lon="8.617635"><ele>538.0</ele><time>2026-05-02T13:49:36.316Z</time></trkpt><trkpt lat="39.2313333" lon="8.6175583"><ele>543.6666666666667</ele><time>2026-05-02T13:49:37.315Z</time></trkpt><trkpt lat="39.231195" lon="8.6174767"><ele>549.3333333333334</ele><time>2026-05-02T13:49:38.364Z</time></trkpt><trkpt lat="39.2310717" lon="8.6173417"><ele>555.0</ele><time>2026-05-02T13:49:39.317Z</time></trkpt><trkpt lat="39.23104" lon="8.6171383"><ele>552.3333333333334</ele><time>2026-05-02T13:49:40.32Z</time></trkpt><trkpt lat="39.23098" lon="8.6169383"><ele>549.6666666666667</ele><time>2026-05-02T13:49:41.318Z</time></trkpt><trkpt lat="39.2309467" lon="8.6167083"><ele>547.0</ele><time>2026-05-02T13:49:42.316Z</time></trkpt><trkpt lat="39.2309" lon="8.616495"><ele>547.0</ele><time>2026-05-02T13:49:43.319Z</time></trkpt><trkpt lat="39.2308567" lon="8.6162783"><ele>547.0</ele><time>2026-05-02T13:49:44.366Z</time></trkpt><trkpt lat="39.2308133" lon="8.616055"><ele>547.0</ele><time>2026-05-02T13:49:45.315Z</time></trkpt><trkpt lat="39.230745" lon="8.6158633"><ele>547.0</ele><time>2026-05-02T13:49:46.32Z</time></trkpt><trkpt lat="39.2306683" lon="8.61568"><ele>547.0</ele><time>2026-05-02T13:49:47.318Z</time></trkpt><trkpt lat="39.2305717" lon="8.6155167"><ele>547.0</ele><time>2026-05-02T13:49:48.314Z</time></trkpt><trkpt lat="39.230485" lon="8.6153567"><ele>545.5</ele><time>2026-05-02T13:49:49.315Z</time></trkpt><trkpt lat="39.2303833" lon="8.61522"><ele>544.0</ele><time>2026-05-02T13:49:50.362Z</time></trkpt><trkpt lat="39.2302233" lon="8.6152267"><ele>542.5</ele><time>2026-05-02T13:49:51.318Z</time></trkpt><trkpt lat="39.2300883" lon="8.615245"><ele>541.0</ele><time>2026-05-02T13:49:52.319Z</time></trkpt><trkpt lat="39.229965" lon="8.6152717"><ele>542.5</ele><time>2026-05-02T13:49:53.322Z</time></trkpt><trkpt lat="39.22987" lon="8.6153383"><ele>544.0</ele><time>2026-05-02T13:49:54.319Z</time></trkpt><trkpt lat="39.2297817" lon="8.6154667"><ele>545.5</ele><time>2026-05-02T13:49:55.316Z</time></trkpt><trkpt lat="39.229725" lon="8.615615"><ele>547.0</ele><time>2026-05-02T13:49:56.379Z</time></trkpt><trkpt lat="39.229695" lon="8.61578"><ele>542.0</ele><time>2026-05-02T13:49:57.321Z</time></trkpt><trkpt lat="39.22969" lon="8.6159817"><ele>537.0</ele><time>2026-05-02T13:49:58.317Z</time></trkpt><trkpt lat="39.2296767" lon="8.6161883"><ele>532.0</ele><time>2026-05-02T13:49:59.32Z</time></trkpt><trkpt lat="39.2296483" lon="8.6163983"><ele>530.0</ele><time>2026-05-02T13:50:00.321Z</time></trkpt><trkpt lat="39.2296017" lon="8.6166"><ele>528.0</ele><time>2026-05-02T13:50:01.314Z</time></trkpt><trkpt lat="39.229535" lon="8.6168"><ele>526.0</ele><time>2026-05-02T13:50:02.363Z</time></trkpt><trkpt lat="39.22946" lon="8.616985"><ele>526.5</ele><time>2026-05-02T13:50:03.319Z</time></trkpt><trkpt lat="39.2294" lon="8.6171517"><ele>527.0</ele><time>2026-05-02T13:50:04.316Z</time></trkpt><trkpt lat="39.2293667" lon="8.6173233"><ele>527.5</ele><time>2026-05-02T13:50:05.318Z</time></trkpt><trkpt lat="39.22937" lon="8.617495"><ele>528.0</ele><time>2026-05-02T13:50:06.317Z</time></trkpt><trkpt lat="39.2294117" lon="8.617675"><ele>524.3333333333334</ele><time>2026-05-02T13:50:07.32Z</time></trkpt><trkpt lat="39.2294683" lon="8.61786"><ele>520.6666666666667</ele><time>2026-05-02T13:50:08.367Z</time></trkpt><trkpt lat="39.2295483" lon="8.6180417"><ele>517.0</ele><time>2026-05-02T13:50:09.317Z</time></trkpt><trkpt lat="39.229625" lon="8.6182283"><ele>517.0</ele><time>2026-05-02T13:50:10.317Z</time></trkpt><trkpt lat="39.2296817" lon="8.618415"><ele>517.0</ele><time>2026-05-02T13:50:11.321Z</time></trkpt><trkpt lat="39.22972" lon="8.618595"><ele>517.0</ele><time>2026-05-02T13:50:12.317Z</time></trkpt><trkpt lat="39.22971" lon="8.6187783"><ele>517.0</ele><time>2026-05-02T13:50:13.319Z</time></trkpt><trkpt lat="39.2296817" lon="8.6189533"><ele>520.0</ele><time>2026-05-02T13:50:14.365Z</time></trkpt><trkpt lat="39.2296083" lon="8.6191183"><ele>523.0</ele><time>2026-05-02T13:50:15.317Z</time></trkpt><trkpt lat="39.22951" lon="8.6192733"><ele>526.0</ele><time>2026-05-02T13:50:16.319Z</time></trkpt><trkpt lat="39.2293833" lon="8.6194333"><ele>532.3333333333334</ele><time>2026-05-02T13:50:17.317Z</time></trkpt><trkpt lat="39.2292533" lon="8.6196"><ele>538.6666666666666</ele><time>2026-05-02T13:50:18.32Z</time></trkpt><trkpt lat="39.2291483" lon="8.6197833"><ele>545.0</ele><time>2026-05-02T13:50:19.319Z</time></trkpt><trkpt lat="39.2290483" lon="8.6199817"><ele>541.3333333333333</ele><time>2026-05-02T13:50:20.367Z</time></trkpt><trkpt lat="39.228965" lon="8.6202067"><ele>537.6666666666666</ele><time>2026-05-02T13:50:21.32Z</time></trkpt><trkpt lat="39.2288667" lon="8.6204167"><ele>534.0</ele><time>2026-05-02T13:50:22.319Z</time></trkpt><trkpt lat="39.2287567" lon="8.6206117"><ele>534.0</ele><time>2026-05-02T13:50:23.319Z</time></trkpt><trkpt lat="39.228635" lon="8.6207833"><ele>534.0</ele><time>2026-05-02T13:50:24.322Z</time></trkpt><trkpt lat="39.2285067" lon="8.6209383"><ele>534.0</ele><time>2026-05-02T13:50:25.319Z</time></trkpt><trkpt lat="39.2283833" lon="8.6210883"><ele>534.0</ele><time>2026-05-02T13:50:26.379Z</time></trkpt><trkpt lat="39.2282767" lon="8.6212283"><ele>534.0</ele><time>2026-05-02T13:50:27.318Z</time></trkpt><trkpt lat="39.2282033" lon="8.6213817"><ele>534.0</ele><time>2026-05-02T13:50:28.317Z</time></trkpt><trkpt lat="39.2281567" lon="8.6215033"><ele>534.0</ele><time>2026-05-02T13:50:29.319Z</time></trkpt><trkpt lat="39.22818" lon="8.62164"><ele>534.0</ele><time>2026-05-02T13:50:30.321Z</time></trkpt><trkpt lat="39.2282683" lon="8.6217717"><ele>534.0</ele><time>2026-05-02T13:50:31.323Z</time></trkpt><trkpt lat="39.2284083" lon="8.6219017"><ele>534.0</ele><time>2026-05-02T13:50:32.367Z</time></trkpt><trkpt lat="39.2285533" lon="8.6220267"><ele>528.0</ele><time>2026-05-02T13:50:33.317Z</time></trkpt><trkpt lat="39.2287067" lon="8.62215"><ele>522.0</ele><time>2026-05-02T13:50:34.319Z</time></trkpt><trkpt lat="39.2288467" lon="8.6222783"><ele>516.0</ele><time>2026-05-02T13:50:35.319Z</time></trkpt><trkpt lat="39.228975" lon="8.62241"><ele>523.6666666666666</ele><time>2026-05-02T13:50:36.317Z</time></trkpt><trkpt lat="39.229085" lon="8.622555"><ele>531.3333333333333</ele><time>2026-05-02T13:50:37.317Z</time></trkpt><trkpt lat="39.2291767" lon="8.62272"><ele>539.0</ele><time>2026-05-02T13:50:38.367Z</time></trkpt><trkpt lat="39.229255" lon="8.62291"><ele>539.0</ele><time>2026-05-02T13:50:39.319Z</time></trkpt><trkpt lat="39.2292883" lon="8.62312"><ele>539.0</ele><time>2026-05-02T13:50:40.313Z</time></trkpt><trkpt lat="39.2293" lon="8.62332"><ele>539.0</ele><time>2026-05-02T13:50:41.32Z</time></trkpt><trkpt lat="39.2293217" lon="8.6235333"><ele>541.5</ele><time>2026-05-02T13:50:42.319Z</time></trkpt><trkpt lat="39.2293417" lon="8.62373"><ele>544.0</ele><time>2026-05-02T13:50:43.316Z</time></trkpt><trkpt lat="39.22932" lon="8.6238833"><ele>546.5</ele><time>2026-05-02T13:50:44.363Z</time></trkpt><trkpt lat="39.22927" lon="8.6240233"><ele>549.0</ele><time>2026-05-02T13:50:45.318Z</time></trkpt><trkpt lat="39.2292117" lon="8.6241467"><ele>549.0</ele><time>2026-05-02T13:50:46.321Z</time></trkpt><trkpt lat="39.229045" lon="8.6241417"><ele>549.0</ele><time>2026-05-02T13:50:47.32Z</time></trkpt><trkpt lat="39.2288967" lon="8.6240967"><ele>549.0</ele><time>2026-05-02T13:50:48.317Z</time></trkpt><trkpt lat="39.2287433" lon="8.6239983"><ele>546.0</ele><time>2026-05-02T13:50:49.314Z</time></trkpt><trkpt lat="39.2285867" lon="8.6239"><ele>543.0</ele><time>2026-05-02T13:50:50.362Z</time></trkpt><trkpt lat="39.228445" lon="8.6238467"><ele>540.0</ele><time>2026-05-02T13:50:51.319Z</time></trkpt><trkpt lat="39.228305" lon="8.6238483"><ele>540.0</ele><time>2026-05-02T13:50:52.319Z</time></trkpt><trkpt lat="39.2281667" lon="8.62389"><ele>540.0</ele><time>2026-05-02T13:50:53.32Z</time></trkpt><trkpt lat="39.2280433" lon="8.6239467"><ele>540.0</ele><time>2026-05-02T13:50:54.316Z</time></trkpt><trkpt lat="39.227935" lon="8.6240233"><ele>540.0</ele><time>2026-05-02T13:50:55.316Z</time></trkpt><trkpt lat="39.2278717" lon="8.6241667"><ele>539.5</ele><time>2026-05-02T13:50:56.356Z</time></trkpt><trkpt lat="39.227815" lon="8.6243083"><ele>539.0</ele><time>2026-05-02T13:50:57.319Z</time></trkpt><trkpt lat="39.2277533" lon="8.6244567"><ele>538.5</ele><time>2026-05-02T13:50:58.314Z</time></trkpt><trkpt lat="39.2276767" lon="8.6245983"><ele>538.0</ele><time>2026-05-02T13:50:59.32Z</time></trkpt><trkpt lat="39.2275733" lon="8.62472"><ele>538.0</ele><time>2026-05-02T13:51:00.317Z</time></trkpt><trkpt lat="39.2274533" lon="8.6248267"><ele>538.0</ele><time>2026-05-02T13:51:01.318Z</time></trkpt><trkpt lat="39.227325" lon="8.62492"><ele>538.0</ele><time>2026-05-02T13:51:02.367Z</time></trkpt><trkpt lat="39.22719" lon="8.6249883"><ele>538.0</ele><time>2026-05-02T13:51:03.317Z</time></trkpt><trkpt lat="39.227045" lon="8.6250233"><ele>537.25</ele><time>2026-05-02T13:51:04.319Z</time></trkpt><trkpt lat="39.2269083" lon="8.62505"><ele>536.5</ele><time>2026-05-02T13:51:05.322Z</time></trkpt><trkpt lat="39.2267683" lon="8.62498"><ele>535.75</ele><time>2026-05-02T13:51:06.321Z</time></trkpt><trkpt lat="39.2266433" lon="8.6248683"><ele>535.0</ele><time>2026-05-02T13:51:07.316Z</time></trkpt><trkpt lat="39.2265233" lon="8.6247167"><ele>531.5</ele><time>2026-05-02T13:51:08.364Z</time></trkpt><trkpt lat="39.2264067" lon="8.624575"><ele>528.0</ele><time>2026-05-02T13:51:09.316Z</time></trkpt><trkpt lat="39.22629" lon="8.6244567"><ele>524.5</ele><time>2026-05-02T13:51:10.317Z</time></trkpt><trkpt lat="39.226175" lon="8.62438"><ele>521.0</ele><time>2026-05-02T13:51:11.317Z</time></trkpt><trkpt lat="39.2260667" lon="8.6243467"><ele>521.0</ele><time>2026-05-02T13:51:12.32Z</time></trkpt><trkpt lat="39.2259667" lon="8.6243767"><ele>521.0</ele><time>2026-05-02T13:51:13.319Z</time></trkpt><trkpt lat="39.2258717" lon="8.6244317"><ele>521.0</ele><time>2026-05-02T13:51:14.367Z</time></trkpt><trkpt lat="39.2257983" lon="8.62452"><ele>521.0</ele><time>2026-05-02T13:51:15.319Z</time></trkpt><trkpt lat="39.2257317" lon="8.6246417"><ele>521.0</ele><time>2026-05-02T13:51:16.315Z</time></trkpt><trkpt lat="39.2256767" lon="8.6248117"><ele>516.6666666666666</ele><time>2026-05-02T13:51:17.314Z</time></trkpt><trkpt lat="39.225615" lon="8.6249883"><ele>512.3333333333334</ele><time>2026-05-02T13:51:18.318Z</time></trkpt><trkpt lat="39.2255333" lon="8.6251683"><ele>508.0</ele><time>2026-05-02T13:51:19.317Z</time></trkpt><trkpt lat="39.2254417" lon="8.6253483"><ele>508.0</ele><time>2026-05-02T13:51:20.366Z</time></trkpt><trkpt lat="39.22534" lon="8.625515"><ele>508.0</ele><time>2026-05-02T13:51:21.321Z</time></trkpt><trkpt lat="39.22524" lon="8.625665"><ele>508.0</ele><time>2026-05-02T13:51:22.317Z</time></trkpt><trkpt lat="39.225145" lon="8.6258033"><ele>508.0</ele><time>2026-05-02T13:51:23.32Z</time></trkpt><trkpt lat="39.225055" lon="8.6259367"><ele>508.0</ele><time>2026-05-02T13:51:24.321Z</time></trkpt><trkpt lat="39.2249983" lon="8.626085"><ele>508.0</ele><time>2026-05-02T13:51:25.32Z</time></trkpt><trkpt lat="39.2250633" lon="8.6263333"><ele>506.0</ele><time>2026-05-02T13:51:26.377Z</time></trkpt><trkpt lat="39.2250817" lon="8.6264933"><ele>504.0</ele><time>2026-05-02T13:51:27.315Z</time></trkpt><trkpt lat="39.2251267" lon="8.62665"><ele>502.0</ele><time>2026-05-02T13:51:28.314Z</time></trkpt><trkpt lat="39.2251917" lon="8.62679"><ele>500.0</ele><time>2026-05-02T13:51:29.319Z</time></trkpt><trkpt lat="39.2252583" lon="8.6269383"><ele>500.25</ele><time>2026-05-02T13:51:30.323Z</time></trkpt><trkpt lat="39.2253167" lon="8.6270783"><ele>500.5</ele><time>2026-05-02T13:51:31.317Z</time></trkpt><trkpt lat="39.2253533" lon="8.6272233"><ele>500.75</ele><time>2026-05-02T13:51:32.367Z</time></trkpt><trkpt lat="39.225375" lon="8.6273683"><ele>501.0</ele><time>2026-05-02T13:51:33.316Z</time></trkpt><trkpt lat="39.2253733" lon="8.62752"><ele>501.0</ele><time>2026-05-02T13:51:34.322Z</time></trkpt><trkpt lat="39.2252217" lon="8.62763"><ele>501.0</ele><time>2026-05-02T13:51:35.316Z</time></trkpt><trkpt lat="39.2251183" lon="8.62776"><ele>501.0</ele><time>2026-05-02T13:51:36.32Z</time></trkpt><trkpt lat="39.2249833" lon="8.6278633"><ele>499.0</ele><time>2026-05-02T13:51:37.316Z</time></trkpt><trkpt lat="39.2248367" lon="8.62798"><ele>497.0</ele><time>2026-05-02T13:51:38.367Z</time></trkpt><trkpt lat="39.224665" lon="8.6281033"><ele>495.0</ele><time>2026-05-02T13:51:39.316Z</time></trkpt><trkpt lat="39.2244983" lon="8.6282383"><ele>495.0</ele><time>2026-05-02T13:51:40.318Z</time></trkpt><trkpt lat="39.22434" lon="8.6283883"><ele>495.0</ele><time>2026-05-02T13:51:41.32Z</time></trkpt><trkpt lat="39.2241567" lon="8.6285583"><ele>495.0</ele><time>2026-05-02T13:51:42.316Z</time></trkpt><trkpt lat="39.2239883" lon="8.6287433"><ele>491.66666666666663</ele><time>2026-05-02T13:51:43.316Z</time></trkpt><trkpt lat="39.223825" lon="8.6289267"><ele>488.3333333333333</ele><time>2026-05-02T13:51:44.363Z</time></trkpt><trkpt lat="39.22365" lon="8.6290983"><ele>485.0</ele><time>2026-05-02T13:51:45.316Z</time></trkpt><trkpt lat="39.2235" lon="8.6292767"><ele>485.0</ele><time>2026-05-02T13:51:46.318Z</time></trkpt><trkpt lat="39.2233233" lon="8.6294267"><ele>485.0</ele><time>2026-05-02T13:51:47.315Z</time></trkpt><trkpt lat="39.2231417" lon="8.6295583"><ele>485.0</ele><time>2026-05-02T13:51:48.317Z</time></trkpt><trkpt lat="39.222955" lon="8.6296817"><ele>486.0</ele><time>2026-05-02T13:51:49.319Z</time></trkpt><trkpt lat="39.2227733" lon="8.6297767"><ele>487.0</ele><time>2026-05-02T13:51:50.367Z</time></trkpt><trkpt lat="39.2226033" lon="8.6298567"><ele>488.0</ele><time>2026-05-02T13:51:51.314Z</time></trkpt><trkpt lat="39.2224383" lon="8.6299133"><ele>490.0</ele><time>2026-05-02T13:51:52.32Z</time></trkpt><trkpt lat="39.22228" lon="8.6299483"><ele>492.0</ele><time>2026-05-02T13:51:53.321Z</time></trkpt><trkpt lat="39.2221367" lon="8.62997"><ele>494.0</ele><time>2026-05-02T13:51:54.32Z</time></trkpt><trkpt lat="39.2220033" lon="8.62991"><ele>496.0</ele><time>2026-05-02T13:51:55.316Z</time></trkpt><trkpt lat="39.2218917" lon="8.6297783"><ele>496.0</ele><time>2026-05-02T13:51:56.376Z</time></trkpt><trkpt lat="39.2218017" lon="8.6296067"><ele>496.0</ele><time>2026-05-02T13:51:57.317Z</time></trkpt><trkpt lat="39.22174" lon="8.629425"><ele>496.0</ele><time>2026-05-02T13:51:58.32Z</time></trkpt><trkpt lat="39.2216783" lon="8.6292583"><ele>494.5</ele><time>2026-05-02T13:51:59.319Z</time></trkpt><trkpt lat="39.221605" lon="8.6291"><ele>493.0</ele><time>2026-05-02T13:52:00.317Z</time></trkpt><trkpt lat="39.22148" lon="8.6290033"><ele>491.5</ele><time>2026-05-02T13:52:01.318Z</time></trkpt><trkpt lat="39.221345" lon="8.6289633"><ele>490.0</ele><time>2026-05-02T13:52:02.366Z</time></trkpt><trkpt lat="39.2212133" lon="8.62898"><ele>490.0</ele><time>2026-05-02T13:52:03.315Z</time></trkpt><trkpt lat="39.2210817" lon="8.6290333"><ele>490.0</ele><time>2026-05-02T13:52:04.317Z</time></trkpt><trkpt lat="39.22096" lon="8.6291083"><ele>490.0</ele><time>2026-05-02T13:52:05.318Z</time></trkpt><trkpt lat="39.2208267" lon="8.6291833"><ele>490.0</ele><time>2026-05-02T13:52:06.318Z</time></trkpt><trkpt lat="39.2206883" lon="8.62924"><ele>486.6666666666667</ele><time>2026-05-02T13:52:07.314Z</time></trkpt><trkpt lat="39.2205367" lon="8.6292567"><ele>483.33333333333337</ele><time>2026-05-02T13:52:08.366Z</time></trkpt><trkpt lat="39.2203883" lon="8.629255"><ele>480.0</ele><time>2026-05-02T13:52:09.317Z</time></trkpt><trkpt lat="39.22023" lon="8.6292317"><ele>480.0</ele><time>2026-05-02T13:52:10.314Z</time></trkpt><trkpt lat="39.2200667" lon="8.6292483"><ele>480.0</ele><time>2026-05-02T13:52:11.318Z</time></trkpt><trkpt lat="39.2198783" lon="8.6293083"><ele>480.0</ele><time>2026-05-02T13:52:12.316Z</time></trkpt><trkpt lat="39.2197067" lon="8.6294317"><ele>479.66666666666663</ele><time>2026-05-02T13:52:13.316Z</time></trkpt><trkpt lat="39.2195383" lon="8.629555"><ele>479.3333333333333</ele><time>2026-05-02T13:52:14.362Z</time></trkpt><trkpt lat="39.21937" lon="8.6296833"><ele>479.0</ele><time>2026-05-02T13:52:15.318Z</time></trkpt><trkpt lat="39.219205" lon="8.6298017"><ele>479.0</ele><time>2026-05-02T13:52:16.319Z</time></trkpt><trkpt lat="39.219055" lon="8.6299167"><ele>479.0</ele><time>2026-05-02T13:52:17.318Z</time></trkpt><trkpt lat="39.218905" lon="8.630045"><ele>479.0</ele><time>2026-05-02T13:52:18.315Z</time></trkpt><trkpt lat="39.21878" lon="8.6301817"><ele>475.3333333333333</ele><time>2026-05-02T13:52:19.316Z</time></trkpt><trkpt lat="39.2186783" lon="8.6303517"><ele>471.66666666666663</ele><time>2026-05-02T13:52:20.361Z</time></trkpt><trkpt lat="39.2185933" lon="8.6305433"><ele>468.0</ele><time>2026-05-02T13:52:21.318Z</time></trkpt><trkpt lat="39.2185467" lon="8.6307667"><ele>468.0</ele><time>2026-05-02T13:52:22.318Z</time></trkpt><trkpt lat="39.2185317" lon="8.6310167"><ele>468.0</ele><time>2026-05-02T13:52:23.315Z</time></trkpt><trkpt lat="39.2185117" lon="8.63124"><ele>468.0</ele><time>2026-05-02T13:52:24.317Z</time></trkpt><trkpt lat="39.21852" lon="8.6314867"><ele>467.66666666666663</ele><time>2026-05-02T13:52:25.317Z</time></trkpt><trkpt lat="39.2185117" lon="8.6317217"><ele>467.3333333333333</ele><time>2026-05-02T13:52:26.376Z</time></trkpt><trkpt lat="39.2184883" lon="8.6319267"><ele>467.0</ele><time>2026-05-02T13:52:27.316Z</time></trkpt><trkpt lat="39.21843" lon="8.6321183"><ele>467.66666666666663</ele><time>2026-05-02T13:52:28.318Z</time></trkpt><trkpt lat="39.2183433" lon="8.6323267"><ele>468.33333333333337</ele><time>2026-05-02T13:52:29.316Z</time></trkpt><trkpt lat="39.2182567" lon="8.6325267"><ele>469.0</ele><time>2026-05-02T13:52:30.317Z</time></trkpt><trkpt lat="39.2181567" lon="8.632705"><ele>466.6666666666667</ele><time>2026-05-02T13:52:31.313Z</time></trkpt><trkpt lat="39.218045" lon="8.6328983"><ele>464.33333333333337</ele><time>2026-05-02T13:52:32.363Z</time></trkpt><trkpt lat="39.2178917" lon="8.6330983"><ele>462.0</ele><time>2026-05-02T13:52:33.318Z</time></trkpt><trkpt lat="39.2177517" lon="8.633325"><ele>462.0</ele><time>2026-05-02T13:52:34.316Z</time></trkpt><trkpt lat="39.2176" lon="8.6335067"><ele>462.0</ele><time>2026-05-02T13:52:35.319Z</time></trkpt><trkpt lat="39.2174383" lon="8.633675"><ele>462.0</ele><time>2026-05-02T13:52:36.316Z</time></trkpt><trkpt lat="39.2172833" lon="8.6338667"><ele>459.66666666666663</ele><time>2026-05-02T13:52:37.314Z</time></trkpt><trkpt lat="39.2171283" lon="8.6340533"><ele>457.3333333333333</ele><time>2026-05-02T13:52:38.365Z</time></trkpt><trkpt lat="39.2169717" lon="8.6342517"><ele>455.0</ele><time>2026-05-02T13:52:39.312Z</time></trkpt><trkpt lat="39.216815" lon="8.6344467"><ele>455.5</ele><time>2026-05-02T13:52:40.314Z</time></trkpt><trkpt lat="39.216655" lon="8.6346517"><ele>456.0</ele><time>2026-05-02T13:52:41.318Z</time></trkpt><trkpt lat="39.21649" lon="8.63485"><ele>455.5</ele><time>2026-05-02T13:52:42.319Z</time></trkpt><trkpt lat="39.2163267" lon="8.635055"><ele>455.0</ele><time>2026-05-02T13:52:43.318Z</time></trkpt><trkpt lat="39.2161567" lon="8.6352767"><ele>454.66666666666663</ele><time>2026-05-02T13:52:44.364Z</time></trkpt><trkpt lat="39.2160083" lon="8.6354833"><ele>454.33333333333337</ele><time>2026-05-02T13:52:45.317Z</time></trkpt><trkpt lat="39.2158533" lon="8.6357"><ele>454.0</ele><time>2026-05-02T13:52:46.319Z</time></trkpt><trkpt lat="39.215705" lon="8.6359167"><ele>448.0</ele><time>2026-05-02T13:52:47.314Z</time></trkpt><trkpt lat="39.215545" lon="8.6361267"><ele>442.0</ele><time>2026-05-02T13:52:48.316Z</time></trkpt><trkpt lat="39.2153817" lon="8.6363483"><ele>442.0</ele><time>2026-05-02T13:52:49.315Z</time></trkpt><trkpt lat="39.2152233" lon="8.6365783"><ele>442.0</ele><time>2026-05-02T13:52:50.363Z</time></trkpt><trkpt lat="39.2150733" lon="8.6367967"><ele>440.33333333333337</ele><time>2026-05-02T13:52:51.318Z</time></trkpt><trkpt lat="39.2149267" lon="8.6370117"><ele>438.66666666666663</ele><time>2026-05-02T13:52:52.319Z</time></trkpt><trkpt lat="39.2147917" lon="8.63723"><ele>437.0</ele><time>2026-05-02T13:52:53.318Z</time></trkpt><trkpt lat="39.214635" lon="8.6374117"><ele>435.66666666666663</ele><time>2026-05-02T13:52:54.318Z</time></trkpt><trkpt lat="39.2145017" lon="8.63756"><ele>434.33333333333337</ele><time>2026-05-02T13:52:55.318Z</time></trkpt><trkpt lat="39.2143667" lon="8.6377183"><ele>433.0</ele><time>2026-05-02T13:52:56.38Z</time></trkpt><trkpt lat="39.2142367" lon="8.637865"><ele>433.0</ele><time>2026-05-02T13:52:57.317Z</time></trkpt><trkpt lat="39.214105" lon="8.6379783"><ele>433.0</ele><time>2026-05-02T13:52:58.317Z</time></trkpt><trkpt lat="39.2139617" lon="8.6380683"><ele>433.0</ele><time>2026-05-02T13:52:59.317Z</time></trkpt><trkpt lat="39.2138067" lon="8.6381217"><ele>438.33333333333337</ele><time>2026-05-02T13:53:00.318Z</time></trkpt><trkpt lat="39.2136383" lon="8.6380983"><ele>443.66666666666663</ele><time>2026-05-02T13:53:01.313Z</time></trkpt><trkpt lat="39.2134317" lon="8.6380233"><ele>449.0</ele><time>2026-05-02T13:53:02.364Z</time></trkpt><trkpt lat="39.2132683" lon="8.6378683"><ele>449.0</ele><time>2026-05-02T13:53:03.313Z</time></trkpt><trkpt lat="39.2130933" lon="8.6377317"><ele>449.0</ele><time>2026-05-02T13:53:04.319Z</time></trkpt><trkpt lat="39.2129683" lon="8.6376133"><ele>449.0</ele><time>2026-05-02T13:53:05.318Z</time></trkpt><trkpt lat="39.2128517" lon="8.637445"><ele>449.0</ele><time>2026-05-02T13:53:06.319Z</time></trkpt><trkpt lat="39.2127733" lon="8.63719"><ele>449.0</ele><time>2026-05-02T13:53:07.316Z</time></trkpt><trkpt lat="39.2127" lon="8.6369617"><ele>449.0</ele><time>2026-05-02T13:53:08.362Z</time></trkpt><trkpt lat="39.2126367" lon="8.6367217"><ele>446.3333333333333</ele><time>2026-05-02T13:53:09.318Z</time></trkpt><trkpt lat="39.2125933" lon="8.6364517"><ele>443.66666666666663</ele><time>2026-05-02T13:53:10.317Z</time></trkpt><trkpt lat="39.212545" lon="8.6361783"><ele>441.0</ele><time>2026-05-02T13:53:11.319Z</time></trkpt><trkpt lat="39.21249" lon="8.6359167"><ele>439.0</ele><time>2026-05-02T13:53:12.317Z</time></trkpt><trkpt lat="39.2124417" lon="8.6356583"><ele>437.0</ele><time>2026-05-02T13:53:13.318Z</time></trkpt><trkpt lat="39.2124" lon="8.6353817"><ele>435.0</ele><time>2026-05-02T13:53:14.364Z</time></trkpt><trkpt lat="39.2123533" lon="8.635115"><ele>432.33333333333337</ele><time>2026-05-02T13:53:15.314Z</time></trkpt><trkpt lat="39.2122983" lon="8.6349083"><ele>429.6666666666667</ele><time>2026-05-02T13:53:16.319Z</time></trkpt><trkpt lat="39.212225" lon="8.6347"><ele>427.0</ele><time>2026-05-02T13:53:17.319Z</time></trkpt><trkpt lat="39.2121183" lon="8.6345033"><ele>425.6666666666667</ele><time>2026-05-02T13:53:18.318Z</time></trkpt><trkpt lat="39.2119967" lon="8.6343233"><ele>424.33333333333337</ele><time>2026-05-02T13:53:19.316Z</time></trkpt><trkpt lat="39.2118933" lon="8.6341717"><ele>423.0</ele><time>2026-05-02T13:53:20.366Z</time></trkpt><trkpt lat="39.2117917" lon="8.6340367"><ele>423.0</ele><time>2026-05-02T13:53:21.317Z</time></trkpt><trkpt lat="39.2116717" lon="8.6339"><ele>423.0</ele><time>2026-05-02T13:53:22.316Z</time></trkpt><trkpt lat="39.2115533" lon="8.6338067"><ele>423.0</ele><time>2026-05-02T13:53:23.316Z</time></trkpt><trkpt lat="39.211465" lon="8.633735"><ele>423.0</ele><time>2026-05-02T13:53:24.317Z</time></trkpt><trkpt lat="39.211345" lon="8.6336583"><ele>424.0</ele><time>2026-05-02T13:53:25.317Z</time></trkpt><trkpt lat="39.2112283" lon="8.6336033"><ele>425.0</ele><time>2026-05-02T13:53:26.375Z</time></trkpt><trkpt lat="39.21112" lon="8.633565"><ele>426.0</ele><time>2026-05-02T13:53:27.319Z</time></trkpt><trkpt lat="39.2110117" lon="8.633535"><ele>427.0</ele><time>2026-05-02T13:53:28.335Z</time></trkpt><trkpt lat="39.210895" lon="8.633545"><ele>427.0</ele><time>2026-05-02T13:53:29.316Z</time></trkpt><trkpt lat="39.21076" lon="8.6336017"><ele>427.0</ele><time>2026-05-02T13:53:30.318Z</time></trkpt><trkpt lat="39.210615" lon="8.63366"><ele>427.0</ele><time>2026-05-02T13:53:31.314Z</time></trkpt><trkpt lat="39.21047" lon="8.6336867"><ele>427.0</ele><time>2026-05-02T13:53:32.366Z</time></trkpt><trkpt lat="39.210325" lon="8.6337117"><ele>422.75</ele><time>2026-05-02T13:53:33.319Z</time></trkpt><trkpt lat="39.2101733" lon="8.6337233"><ele>418.5</ele><time>2026-05-02T13:53:34.315Z</time></trkpt><trkpt lat="39.2100267" lon="8.6337067"><ele>414.25</ele><time>2026-05-02T13:53:35.313Z</time></trkpt><trkpt lat="39.2098817" lon="8.6336817"><ele>410.0</ele><time>2026-05-02T13:53:36.317Z</time></trkpt><trkpt lat="39.20974" lon="8.6336483"><ele>404.25</ele><time>2026-05-02T13:53:37.316Z</time></trkpt><trkpt lat="39.2096017" lon="8.6336033"><ele>398.5</ele><time>2026-05-02T13:53:38.366Z</time></trkpt><trkpt lat="39.209465" lon="8.633555"><ele>392.75</ele><time>2026-05-02T13:53:39.319Z</time></trkpt><trkpt lat="39.2093367" lon="8.6334983"><ele>387.0</ele><time>2026-05-02T13:53:40.317Z</time></trkpt><trkpt lat="39.2092567" lon="8.6333467"><ele>387.0</ele><time>2026-05-02T13:53:41.316Z</time></trkpt><trkpt lat="39.2091933" lon="8.6331933"><ele>387.0</ele><time>2026-05-02T13:53:42.318Z</time></trkpt><trkpt lat="39.2090967" lon="8.6331067"><ele>387.0</ele><time>2026-05-02T13:53:43.314Z</time></trkpt><trkpt lat="39.2090233" lon="8.6329083"><ele>387.0</ele><time>2026-05-02T13:53:44.361Z</time></trkpt><trkpt lat="39.208935" lon="8.63273"><ele>387.33333333333337</ele><time>2026-05-02T13:53:45.315Z</time></trkpt><trkpt lat="39.2088467" lon="8.6325067"><ele>387.6666666666667</ele><time>2026-05-02T13:53:46.318Z</time></trkpt><trkpt lat="39.2087633" lon="8.6322733"><ele>388.0</ele><time>2026-05-02T13:53:47.319Z</time></trkpt><trkpt lat="39.2086733" lon="8.6320183"><ele>387.33333333333337</ele><time>2026-05-02T13:53:48.316Z</time></trkpt><trkpt lat="39.20859" lon="8.6317517"><ele>386.66666666666663</ele><time>2026-05-02T13:53:49.319Z</time></trkpt><trkpt lat="39.2085167" lon="8.6314833"><ele>386.0</ele><time>2026-05-02T13:53:50.367Z</time></trkpt><trkpt lat="39.2084533" lon="8.6312067"><ele>383.0</ele><time>2026-05-02T13:53:51.314Z</time></trkpt><trkpt lat="39.2084033" lon="8.6309317"><ele>380.0</ele><time>2026-05-02T13:53:52.317Z</time></trkpt><trkpt lat="39.20835" lon="8.63064"><ele>380.0</ele><time>2026-05-02T13:53:53.319Z</time></trkpt><trkpt lat="39.208305" lon="8.6303617"><ele>380.0</ele><time>2026-05-02T13:53:54.318Z</time></trkpt><trkpt lat="39.2082583" lon="8.6300933"><ele>380.0</ele><time>2026-05-02T13:53:55.319Z</time></trkpt><trkpt lat="39.208215" lon="8.62984"><ele>378.33333333333337</ele><time>2026-05-02T13:53:56.378Z</time></trkpt><trkpt lat="39.2081617" lon="8.629605"><ele>376.6666666666667</ele><time>2026-05-02T13:53:57.319Z</time></trkpt><trkpt lat="39.2081" lon="8.6293817"><ele>375.0</ele><time>2026-05-02T13:53:58.315Z</time></trkpt><trkpt lat="39.208035" lon="8.629165"><ele>372.3333333333333</ele><time>2026-05-02T13:53:59.32Z</time></trkpt><trkpt lat="39.2079667" lon="8.6289633"><ele>369.66666666666663</ele><time>2026-05-02T13:54:00.315Z</time></trkpt><trkpt lat="39.2078767" lon="8.6287783"><ele>367.0</ele><time>2026-05-02T13:54:01.317Z</time></trkpt><trkpt lat="39.2077767" lon="8.6286167"><ele>367.0</ele><time>2026-05-02T13:54:02.364Z</time></trkpt><trkpt lat="39.2076583" lon="8.628495"><ele>367.0</ele><time>2026-05-02T13:54:03.319Z</time></trkpt><trkpt lat="39.2075267" lon="8.6283967"><ele>367.0</ele><time>2026-05-02T13:54:04.314Z</time></trkpt><trkpt lat="39.2073733" lon="8.628325"><ele>367.3333333333333</ele><time>2026-05-02T13:54:05.317Z</time></trkpt><trkpt lat="39.2071983" lon="8.6282833"><ele>367.6666666666667</ele><time>2026-05-02T13:54:06.318Z</time></trkpt><trkpt lat="39.2070233" lon="8.628265"><ele>368.0</ele><time>2026-05-02T13:54:07.315Z</time></trkpt><trkpt lat="39.2068783" lon="8.6281983"><ele>368.0</ele><time>2026-05-02T13:54:08.366Z</time></trkpt><trkpt lat="39.2067017" lon="8.6281967"><ele>368.0</ele><time>2026-05-02T13:54:09.314Z</time></trkpt><trkpt lat="39.2065233" lon="8.6282433"><ele>368.0</ele><time>2026-05-02T13:54:10.313Z</time></trkpt><trkpt lat="39.2063483" lon="8.6283083"><ele>366.33333333333337</ele><time>2026-05-02T13:54:11.319Z</time></trkpt><trkpt lat="39.2061667" lon="8.6284017"><ele>364.6666666666667</ele><time>2026-05-02T13:54:12.315Z</time></trkpt><trkpt lat="39.2059817" lon="8.628515"><ele>363.0</ele><time>2026-05-02T13:54:13.318Z</time></trkpt><trkpt lat="39.2058017" lon="8.6286217"><ele>362.3333333333333</ele><time>2026-05-02T13:54:14.361Z</time></trkpt><trkpt lat="39.205615" lon="8.6287233"><ele>361.66666666666663</ele><time>2026-05-02T13:54:15.318Z</time></trkpt><trkpt lat="39.20543" lon="8.6288017"><ele>361.0</ele><time>2026-05-02T13:54:16.317Z</time></trkpt><trkpt lat="39.205235" lon="8.6289033"><ele>361.0</ele><time>2026-05-02T13:54:17.313Z</time></trkpt><trkpt lat="39.205055" lon="8.6289833"><ele>361.0</ele><time>2026-05-02T13:54:18.319Z</time></trkpt><trkpt lat="39.20488" lon="8.62904"><ele>361.0</ele><time>2026-05-02T13:54:19.313Z</time></trkpt><trkpt lat="39.2047083" lon="8.6291"><ele>358.0</ele><time>2026-05-02T13:54:20.366Z</time></trkpt><trkpt lat="39.20454" lon="8.6291767"><ele>355.0</ele><time>2026-05-02T13:54:21.317Z</time></trkpt><trkpt lat="39.2043767" lon="8.62928"><ele>352.0</ele><time>2026-05-02T13:54:22.316Z</time></trkpt><trkpt lat="39.2042233" lon="8.6294017"><ele>353.3333333333333</ele><time>2026-05-02T13:54:23.317Z</time></trkpt><trkpt lat="39.2040767" lon="8.6295383"><ele>354.6666666666667</ele><time>2026-05-02T13:54:24.32Z</time></trkpt><trkpt lat="39.203935" lon="8.6297"><ele>356.0</ele><time>2026-05-02T13:54:25.317Z</time></trkpt><trkpt lat="39.2038033" lon="8.6298783"><ele>353.33333333333337</ele><time>2026-05-02T13:54:26.376Z</time></trkpt><trkpt lat="39.2036883" lon="8.63009"><ele>350.6666666666667</ele><time>2026-05-02T13:54:27.323Z</time></trkpt><trkpt lat="39.2035917" lon="8.6303333"><ele>348.0</ele><time>2026-05-02T13:54:28.315Z</time></trkpt><trkpt lat="39.2035033" lon="8.6305917"><ele>348.0</ele><time>2026-05-02T13:54:29.321Z</time></trkpt><trkpt lat="39.20342" lon="8.630855"><ele>348.0</ele><time>2026-05-02T13:54:30.32Z</time></trkpt><trkpt lat="39.2033433" lon="8.6311083"><ele>348.0</ele><time>2026-05-02T13:54:31.318Z</time></trkpt><trkpt lat="39.2032683" lon="8.6313433"><ele>348.0</ele><time>2026-05-02T13:54:32.377Z</time></trkpt><trkpt lat="39.2031983" lon="8.6315567"><ele>348.0</ele><time>2026-05-02T13:54:33.317Z</time></trkpt><trkpt lat="39.2031333" lon="8.6317483"><ele>348.0</ele><time>2026-05-02T13:54:34.319Z</time></trkpt><trkpt lat="39.203075" lon="8.6319167"><ele>348.79999999999995</ele><time>2026-05-02T13:54:35.319Z</time></trkpt><trkpt lat="39.2030183" lon="8.6320583"><ele>349.6</ele><time>2026-05-02T13:54:36.314Z</time></trkpt><trkpt lat="39.2029617" lon="8.6321767"><ele>350.4</ele><time>2026-05-02T13:54:37.319Z</time></trkpt><trkpt lat="39.202905" lon="8.632275"><ele>351.20000000000005</ele><time>2026-05-02T13:54:38.366Z</time></trkpt><trkpt lat="39.2028517" lon="8.632375"><ele>352.0</ele><time>2026-05-02T13:54:39.319Z</time></trkpt><trkpt lat="39.2027783" lon="8.632475"><ele>352.0</ele><time>2026-05-02T13:54:41.312Z</time></trkpt><trkpt lat="39.2027233" lon="8.632565"><ele>352.0</ele><time>2026-05-02T13:54:44.364Z</time></trkpt><trkpt lat="39.2027333" lon="8.6327167"><ele>352.0</ele><time>2026-05-02T13:54:46.312Z</time></trkpt><trkpt lat="39.202755" lon="8.63284"><ele>352.0</ele><time>2026-05-02T13:54:47.314Z</time></trkpt><trkpt lat="39.2027817" lon="8.632985"><ele>352.0</ele><time>2026-05-02T13:54:48.317Z</time></trkpt><trkpt lat="39.2028117" lon="8.63315"><ele>352.3333333333333</ele><time>2026-05-02T13:54:49.318Z</time></trkpt><trkpt lat="39.2028417" lon="8.6333383"><ele>352.6666666666667</ele><time>2026-05-02T13:54:50.363Z</time></trkpt><trkpt lat="39.202865" lon="8.6335417"><ele>353.0</ele><time>2026-05-02T13:54:51.316Z</time></trkpt><trkpt lat="39.2028783" lon="8.6337533"><ele>351.6666666666667</ele><time>2026-05-02T13:54:52.313Z</time></trkpt><trkpt lat="39.2028767" lon="8.6339583"><ele>350.3333333333333</ele><time>2026-05-02T13:54:53.316Z</time></trkpt><trkpt lat="39.20285" lon="8.634195"><ele>349.0</ele><time>2026-05-02T13:54:54.313Z</time></trkpt><trkpt lat="39.2028117" lon="8.6344417"><ele>347.0</ele><time>2026-05-02T13:54:55.32Z</time></trkpt><trkpt lat="39.2027767" lon="8.6346667"><ele>345.0</ele><time>2026-05-02T13:54:56.374Z</time></trkpt><trkpt lat="39.2027383" lon="8.6348867"><ele>343.0</ele><time>2026-05-02T13:54:57.315Z</time></trkpt><trkpt lat="39.20269" lon="8.6350933"><ele>343.0</ele><time>2026-05-02T13:54:58.317Z</time></trkpt><trkpt lat="39.202625" lon="8.6352983"><ele>343.0</ele><time>2026-05-02T13:54:59.315Z</time></trkpt><trkpt lat="39.2025483" lon="8.6355067"><ele>343.0</ele><time>2026-05-02T13:55:00.321Z</time></trkpt><trkpt lat="39.2024533" lon="8.6357183"><ele>340.66666666666663</ele><time>2026-05-02T13:55:01.32Z</time></trkpt><trkpt lat="39.20234" lon="8.6359217"><ele>338.3333333333333</ele><time>2026-05-02T13:55:02.366Z</time></trkpt><trkpt lat="39.202225" lon="8.6361283"><ele>336.0</ele><time>2026-05-02T13:55:03.318Z</time></trkpt><trkpt lat="39.2021133" lon="8.636345"><ele>335.0</ele><time>2026-05-02T13:55:04.318Z</time></trkpt><trkpt lat="39.2020067" lon="8.63657"><ele>334.0</ele><time>2026-05-02T13:55:05.313Z</time></trkpt><trkpt lat="39.201905" lon="8.636815"><ele>333.0</ele><time>2026-05-02T13:55:06.315Z</time></trkpt><trkpt lat="39.201805" lon="8.6370633"><ele>335.0</ele><time>2026-05-02T13:55:07.321Z</time></trkpt><trkpt lat="39.2017083" lon="8.6373133"><ele>337.0</ele><time>2026-05-02T13:55:08.362Z</time></trkpt><trkpt lat="39.201615" lon="8.63757"><ele>339.0</ele><time>2026-05-02T13:55:09.313Z</time></trkpt><trkpt lat="39.2015283" lon="8.6378233"><ele>345.0</ele><time>2026-05-02T13:55:10.313Z</time></trkpt><trkpt lat="39.2014483" lon="8.638085"><ele>351.0</ele><time>2026-05-02T13:55:11.318Z</time></trkpt><trkpt lat="39.2013733" lon="8.6383517"><ele>357.0</ele><time>2026-05-02T13:55:12.317Z</time></trkpt><trkpt lat="39.2013117" lon="8.6386183"><ele>356.0</ele><time>2026-05-02T13:55:13.318Z</time></trkpt><trkpt lat="39.20124" lon="8.63888"><ele>355.0</ele><time>2026-05-02T13:55:14.367Z</time></trkpt><trkpt lat="39.2011633" lon="8.6391333"><ele>354.0</ele><time>2026-05-02T13:55:15.319Z</time></trkpt><trkpt lat="39.2010767" lon="8.639395"><ele>353.6666666666667</ele><time>2026-05-02T13:55:16.318Z</time></trkpt><trkpt lat="39.2009967" lon="8.639655"><ele>353.33333333333337</ele><time>2026-05-02T13:55:17.318Z</time></trkpt><trkpt lat="39.2009267" lon="8.6399133"><ele>353.0</ele><time>2026-05-02T13:55:18.314Z</time></trkpt><trkpt lat="39.2008733" lon="8.6401817"><ele>353.0</ele><time>2026-05-02T13:55:19.317Z</time></trkpt><trkpt lat="39.2008517" lon="8.64043"><ele>353.0</ele><time>2026-05-02T13:55:20.365Z</time></trkpt><trkpt lat="39.2008417" lon="8.6407033"><ele>353.0</ele><time>2026-05-02T13:55:21.319Z</time></trkpt><trkpt lat="39.2008367" lon="8.6409733"><ele>351.6666666666667</ele><time>2026-05-02T13:55:22.316Z</time></trkpt><trkpt lat="39.200855" lon="8.641215"><ele>350.3333333333333</ele><time>2026-05-02T13:55:23.317Z</time></trkpt><trkpt lat="39.2008517" lon="8.6414817"><ele>349.0</ele><time>2026-05-02T13:55:24.313Z</time></trkpt><trkpt lat="39.2008367" lon="8.641705"><ele>349.0</ele><time>2026-05-02T13:55:25.318Z</time></trkpt><trkpt lat="39.2008067" lon="8.6419383"><ele>349.0</ele><time>2026-05-02T13:55:26.362Z</time></trkpt><trkpt lat="39.2007483" lon="8.6421617"><ele>349.0</ele><time>2026-05-02T13:55:27.316Z</time></trkpt><trkpt lat="39.200685" lon="8.6424117"><ele>349.0</ele><time>2026-05-02T13:55:28.317Z</time></trkpt><trkpt lat="39.2006117" lon="8.6426567"><ele>349.0</ele><time>2026-05-02T13:55:29.315Z</time></trkpt><trkpt lat="39.2005367" lon="8.6429283"><ele>349.0</ele><time>2026-05-02T13:55:30.318Z</time></trkpt><trkpt lat="39.2004583" lon="8.6431883"><ele>347.3333333333333</ele><time>2026-05-02T13:55:31.317Z</time></trkpt><trkpt lat="39.2003817" lon="8.6434567"><ele>345.6666666666667</ele><time>2026-05-02T13:55:32.362Z</time></trkpt><trkpt lat="39.2003033" lon="8.6437283"><ele>344.0</ele><time>2026-05-02T13:55:33.317Z</time></trkpt><trkpt lat="39.2002233" lon="8.6440067"><ele>343.0</ele><time>2026-05-02T13:55:34.313Z</time></trkpt><trkpt lat="39.2001433" lon="8.6442817"><ele>342.0</ele><time>2026-05-02T13:55:35.315Z</time></trkpt><trkpt lat="39.2000633" lon="8.6445517"><ele>341.5</ele><time>2026-05-02T13:55:36.318Z</time></trkpt><trkpt lat="39.1999817" lon="8.6448233"><ele>341.0</ele><time>2026-05-02T13:55:37.313Z</time></trkpt><trkpt lat="39.1999033" lon="8.6451017"><ele>340.6666666666667</ele><time>2026-05-02T13:55:38.364Z</time></trkpt><trkpt lat="39.199845" lon="8.6453983"><ele>340.3333333333333</ele><time>2026-05-02T13:55:39.316Z</time></trkpt><trkpt lat="39.1997933" lon="8.6456533"><ele>340.0</ele><time>2026-05-02T13:55:40.319Z</time></trkpt><trkpt lat="39.1997433" lon="8.6459033"><ele>341.0</ele><time>2026-05-02T13:55:41.318Z</time></trkpt><trkpt lat="39.1996933" lon="8.646165"><ele>342.0</ele><time>2026-05-02T13:55:42.314Z</time></trkpt><trkpt lat="39.1996467" lon="8.6464133"><ele>343.0</ele><time>2026-05-02T13:55:43.317Z</time></trkpt><trkpt lat="39.1995917" lon="8.6466733"><ele>343.0</ele><time>2026-05-02T13:55:44.367Z</time></trkpt><trkpt lat="39.1995317" lon="8.6469067"><ele>343.0</ele><time>2026-05-02T13:55:45.313Z</time></trkpt><trkpt lat="39.199465" lon="8.6471433"><ele>343.0</ele><time>2026-05-02T13:55:46.314Z</time></trkpt><trkpt lat="39.199375" lon="8.6473967"><ele>340.0</ele><time>2026-05-02T13:55:47.317Z</time></trkpt><trkpt lat="39.1992867" lon="8.647665"><ele>337.0</ele><time>2026-05-02T13:55:48.319Z</time></trkpt><trkpt lat="39.1992017" lon="8.6479333"><ele>334.5</ele><time>2026-05-02T13:55:49.317Z</time></trkpt><trkpt lat="39.1991067" lon="8.648205"><ele>332.0</ele><time>2026-05-02T13:55:50.364Z</time></trkpt><trkpt lat="39.1990233" lon="8.648475"><ele>332.0</ele><time>2026-05-02T13:55:51.316Z</time></trkpt><trkpt lat="39.19894" lon="8.6487467"><ele>332.0</ele><time>2026-05-02T13:55:52.313Z</time></trkpt><trkpt lat="39.1988567" lon="8.649025"><ele>332.0</ele><time>2026-05-02T13:55:53.317Z</time></trkpt><trkpt lat="39.1987767" lon="8.6493083"><ele>332.0</ele><time>2026-05-02T13:55:54.314Z</time></trkpt><trkpt lat="39.1986867" lon="8.6495833"><ele>333.5</ele><time>2026-05-02T13:55:55.314Z</time></trkpt><trkpt lat="39.198605" lon="8.6498633"><ele>335.0</ele><time>2026-05-02T13:55:56.364Z</time></trkpt><trkpt lat="39.1985167" lon="8.6501317"><ele>336.33333333333337</ele><time>2026-05-02T13:55:57.315Z</time></trkpt><trkpt lat="39.1984333" lon="8.6503867"><ele>337.6666666666667</ele><time>2026-05-02T13:55:58.316Z</time></trkpt><trkpt lat="39.1983567" lon="8.65064"><ele>339.0</ele><time>2026-05-02T13:55:59.317Z</time></trkpt><trkpt lat="39.19827" lon="8.65089"><ele>339.3333333333333</ele><time>2026-05-02T13:56:00.319Z</time></trkpt><trkpt lat="39.1981667" lon="8.6511417"><ele>339.66666666666663</ele><time>2026-05-02T13:56:01.318Z</time></trkpt><trkpt lat="39.19806" lon="8.6513933"><ele>340.0</ele><time>2026-05-02T13:56:02.363Z</time></trkpt><trkpt lat="39.1979533" lon="8.6516433"><ele>340.0</ele><time>2026-05-02T13:56:03.322Z</time></trkpt><trkpt lat="39.1978417" lon="8.6518817"><ele>340.0</ele><time>2026-05-02T13:56:04.317Z</time></trkpt><trkpt lat="39.1977283" lon="8.6521167"><ele>340.0</ele><time>2026-05-02T13:56:05.318Z</time></trkpt><trkpt lat="39.1976167" lon="8.6523533"><ele>342.0</ele><time>2026-05-02T13:56:06.314Z</time></trkpt><trkpt lat="39.197505" lon="8.6525883"><ele>344.0</ele><time>2026-05-02T13:56:07.313Z</time></trkpt><trkpt lat="39.197395" lon="8.65282"><ele>346.0</ele><time>2026-05-02T13:56:08.362Z</time></trkpt><trkpt lat="39.19729" lon="8.6530483"><ele>349.0</ele><time>2026-05-02T13:56:09.315Z</time></trkpt><trkpt lat="39.1971833" lon="8.6532667"><ele>352.0</ele><time>2026-05-02T13:56:10.317Z</time></trkpt><trkpt lat="39.1970833" lon="8.6534767"><ele>355.0</ele><time>2026-05-02T13:56:11.318Z</time></trkpt><trkpt lat="39.1969833" lon="8.653675"><ele>356.0</ele><time>2026-05-02T13:56:12.316Z</time></trkpt><trkpt lat="39.1968767" lon="8.6538533"><ele>357.0</ele><time>2026-05-02T13:56:13.317Z</time></trkpt><trkpt lat="39.1967517" lon="8.65401"><ele>358.0</ele><time>2026-05-02T13:56:14.363Z</time></trkpt><trkpt lat="39.1966083" lon="8.6541433"><ele>359.66666666666663</ele><time>2026-05-02T13:56:15.313Z</time></trkpt><trkpt lat="39.196455" lon="8.65427"><ele>361.3333333333333</ele><time>2026-05-02T13:56:16.316Z</time></trkpt><trkpt lat="39.1962983" lon="8.654385"><ele>363.0</ele><time>2026-05-02T13:56:17.318Z</time></trkpt><trkpt lat="39.1961417" lon="8.6544967"><ele>360.3333333333333</ele><time>2026-05-02T13:56:18.317Z</time></trkpt><trkpt lat="39.19598" lon="8.6545933"><ele>357.66666666666663</ele><time>2026-05-02T13:56:19.314Z</time></trkpt><trkpt lat="39.195805" lon="8.65465"><ele>355.0</ele><time>2026-05-02T13:56:20.366Z</time></trkpt><trkpt lat="39.1956017" lon="8.65468"><ele>355.0</ele><time>2026-05-02T13:56:21.318Z</time></trkpt><trkpt lat="39.1954067" lon="8.6547133"><ele>355.0</ele><time>2026-05-02T13:56:22.32Z</time></trkpt><trkpt lat="39.1951983" lon="8.6547533"><ele>355.0</ele><time>2026-05-02T13:56:23.318Z</time></trkpt><trkpt lat="39.194985" lon="8.6547767"><ele>347.0</ele><time>2026-05-02T13:56:24.321Z</time></trkpt><trkpt lat="39.1947633" lon="8.6548233"><ele>339.0</ele><time>2026-05-02T13:56:25.318Z</time></trkpt><trkpt lat="39.19446" lon="8.654825"><ele>339.0</ele><time>2026-05-02T13:56:26.365Z</time></trkpt><trkpt lat="39.1942067" lon="8.6548583"><ele>339.0</ele><time>2026-05-02T13:56:27.317Z</time></trkpt><trkpt lat="39.1939667" lon="8.6549"><ele>337.5</ele><time>2026-05-02T13:56:28.318Z</time></trkpt><trkpt lat="39.1937267" lon="8.6549417"><ele>336.0</ele><time>2026-05-02T13:56:29.313Z</time></trkpt><trkpt lat="39.1934917" lon="8.6549833"><ele>336.0</ele><time>2026-05-02T13:56:30.318Z</time></trkpt><trkpt lat="39.1932583" lon="8.65503"><ele>336.0</ele><time>2026-05-02T13:56:31.317Z</time></trkpt><trkpt lat="39.1930333" lon="8.6550817"><ele>334.5</ele><time>2026-05-02T13:56:32.365Z</time></trkpt><trkpt lat="39.19281" lon="8.6551267"><ele>333.0</ele><time>2026-05-02T13:56:33.314Z</time></trkpt><trkpt lat="39.1925867" lon="8.6551783"><ele>333.0</ele><time>2026-05-02T13:56:34.316Z</time></trkpt><trkpt lat="39.19237" lon="8.6552367"><ele>333.0</ele><time>2026-05-02T13:56:35.314Z</time></trkpt><trkpt lat="39.1921583" lon="8.655295"><ele>333.0</ele><time>2026-05-02T13:56:36.314Z</time></trkpt><trkpt lat="39.19195" lon="8.65535"><ele>330.3333333333333</ele><time>2026-05-02T13:56:37.319Z</time></trkpt><trkpt lat="39.19175" lon="8.6554083"><ele>327.66666666666663</ele><time>2026-05-02T13:56:38.364Z</time></trkpt><trkpt lat="39.191555" lon="8.6554733"><ele>325.0</ele><time>2026-05-02T13:56:39.318Z</time></trkpt><trkpt lat="39.191365" lon="8.65554"><ele>324.66666666666663</ele><time>2026-05-02T13:56:40.318Z</time></trkpt><trkpt lat="39.1911817" lon="8.65561"><ele>324.3333333333333</ele><time>2026-05-02T13:56:41.314Z</time></trkpt><trkpt lat="39.1910067" lon="8.6556917"><ele>324.0</ele><time>2026-05-02T13:56:42.318Z</time></trkpt><trkpt lat="39.1908383" lon="8.6557983"><ele>324.0</ele><time>2026-05-02T13:56:43.315Z</time></trkpt><trkpt lat="39.1906783" lon="8.6559283"><ele>324.0</ele><time>2026-05-02T13:56:44.365Z</time></trkpt><trkpt lat="39.1905267" lon="8.6560933"><ele>324.0</ele><time>2026-05-02T13:56:45.315Z</time></trkpt><trkpt lat="39.190385" lon="8.6562867"><ele>322.3333333333333</ele><time>2026-05-02T13:56:46.314Z</time></trkpt><trkpt lat="39.19025" lon="8.6564867"><ele>320.66666666666663</ele><time>2026-05-02T13:56:47.317Z</time></trkpt><trkpt lat="39.1901233" lon="8.65668"><ele>319.0</ele><time>2026-05-02T13:56:48.317Z</time></trkpt><trkpt lat="39.1900017" lon="8.65687"><ele>320.66666666666663</ele><time>2026-05-02T13:56:49.315Z</time></trkpt><trkpt lat="39.1898983" lon="8.6570567"><ele>322.3333333333333</ele><time>2026-05-02T13:56:50.363Z</time></trkpt><trkpt lat="39.18981" lon="8.6572467"><ele>324.0</ele><time>2026-05-02T13:56:51.314Z</time></trkpt><trkpt lat="39.18973" lon="8.6574517"><ele>324.0</ele><time>2026-05-02T13:56:52.316Z</time></trkpt><trkpt lat="39.1896533" lon="8.65768"><ele>324.0</ele><time>2026-05-02T13:56:53.319Z</time></trkpt><trkpt lat="39.1896017" lon="8.657925"><ele>324.0</ele><time>2026-05-02T13:56:54.318Z</time></trkpt><trkpt lat="39.18961" lon="8.6582367"><ele>324.3333333333333</ele><time>2026-05-02T13:56:55.316Z</time></trkpt><trkpt lat="39.189595" lon="8.658525"><ele>324.66666666666663</ele><time>2026-05-02T13:56:56.365Z</time></trkpt><trkpt lat="39.189625" lon="8.658795"><ele>325.0</ele><time>2026-05-02T13:56:57.319Z</time></trkpt><trkpt lat="39.1896417" lon="8.6590633"><ele>324.3333333333333</ele><time>2026-05-02T13:56:58.318Z</time></trkpt><trkpt lat="39.1896583" lon="8.6593183"><ele>323.6666666666667</ele><time>2026-05-02T13:56:59.316Z</time></trkpt><trkpt lat="39.1896683" lon="8.65956"><ele>323.0</ele><time>2026-05-02T13:57:00.32Z</time></trkpt><trkpt lat="39.1896767" lon="8.659795"><ele>317.6666666666667</ele><time>2026-05-02T13:57:01.318Z</time></trkpt><trkpt lat="39.189675" lon="8.66002"><ele>312.3333333333333</ele><time>2026-05-02T13:57:02.364Z</time></trkpt><trkpt lat="39.1896833" lon="8.6602317"><ele>307.0</ele><time>2026-05-02T13:57:03.314Z</time></trkpt><trkpt lat="39.1896317" lon="8.6604117"><ele>298.3333333333333</ele><time>2026-05-02T13:57:04.316Z</time></trkpt><trkpt lat="39.1895717" lon="8.6605867"><ele>289.6666666666667</ele><time>2026-05-02T13:57:05.318Z</time></trkpt><trkpt lat="39.1894883" lon="8.6607517"><ele>281.0</ele><time>2026-05-02T13:57:06.317Z</time></trkpt><trkpt lat="39.1893667" lon="8.6608917"><ele>281.0</ele><time>2026-05-02T13:57:07.317Z</time></trkpt><trkpt lat="39.1892417" lon="8.6610283"><ele>281.0</ele><time>2026-05-02T13:57:08.365Z</time></trkpt><trkpt lat="39.18911" lon="8.6611533"><ele>281.0</ele><time>2026-05-02T13:57:09.316Z</time></trkpt><trkpt lat="39.188985" lon="8.6612683"><ele>279.6666666666667</ele><time>2026-05-02T13:57:10.319Z</time></trkpt><trkpt lat="39.1888783" lon="8.6614133"><ele>278.3333333333333</ele><time>2026-05-02T13:57:11.317Z</time></trkpt><trkpt lat="39.1887783" lon="8.6615533"><ele>277.0</ele><time>2026-05-02T13:57:12.319Z</time></trkpt><trkpt lat="39.188715" lon="8.6617367"><ele>277.0</ele><time>2026-05-02T13:57:13.319Z</time></trkpt><trkpt lat="39.1886867" lon="8.6619417"><ele>277.0</ele><time>2026-05-02T13:57:14.366Z</time></trkpt><trkpt lat="39.1886767" lon="8.6621467"><ele>277.0</ele><time>2026-05-02T13:57:15.315Z</time></trkpt><trkpt lat="39.1886783" lon="8.6623617"><ele>278.0</ele><time>2026-05-02T13:57:16.313Z</time></trkpt><trkpt lat="39.1887" lon="8.6625967"><ele>279.0</ele><time>2026-05-02T13:57:17.32Z</time></trkpt><trkpt lat="39.1887233" lon="8.662835"><ele>280.0</ele><time>2026-05-02T13:57:18.318Z</time></trkpt><trkpt lat="39.1887533" lon="8.6630867"><ele>280.0</ele><time>2026-05-02T13:57:19.318Z</time></trkpt><trkpt lat="39.1887883" lon="8.663345"><ele>280.0</ele><time>2026-05-02T13:57:20.362Z</time></trkpt><trkpt lat="39.1888283" lon="8.6636117"><ele>280.0</ele><time>2026-05-02T13:57:21.318Z</time></trkpt><trkpt lat="39.18887" lon="8.6638883"><ele>280.0</ele><time>2026-05-02T13:57:22.318Z</time></trkpt><trkpt lat="39.188925" lon="8.6641733"><ele>280.0</ele><time>2026-05-02T13:57:23.32Z</time></trkpt><trkpt lat="39.188975" lon="8.6644583"><ele>265.5</ele><time>2026-05-02T13:57:24.319Z</time></trkpt><trkpt lat="39.18902" lon="8.6647467"><ele>251.0</ele><time>2026-05-02T13:57:25.316Z</time></trkpt><trkpt lat="39.1890683" lon="8.6650267"><ele>252.0</ele><time>2026-05-02T13:57:26.374Z</time></trkpt><trkpt lat="39.18911" lon="8.6653"><ele>253.0</ele><time>2026-05-02T13:57:27.319Z</time></trkpt><trkpt lat="39.1891467" lon="8.66557"><ele>254.0</ele><time>2026-05-02T13:57:28.315Z</time></trkpt><trkpt lat="39.1891867" lon="8.66583"><ele>254.0</ele><time>2026-05-02T13:57:29.319Z</time></trkpt><trkpt lat="39.18922" lon="8.666085"><ele>254.0</ele><time>2026-05-02T13:57:30.318Z</time></trkpt><trkpt lat="39.18925" lon="8.6663283"><ele>254.0</ele><time>2026-05-02T13:57:31.313Z</time></trkpt><trkpt lat="39.1892767" lon="8.6665667"><ele>253.0</ele><time>2026-05-02T13:57:32.366Z</time></trkpt><trkpt lat="39.1892983" lon="8.6667967"><ele>252.0</ele><time>2026-05-02T13:57:33.319Z</time></trkpt><trkpt lat="39.18931" lon="8.6670183"><ele>251.0</ele><time>2026-05-02T13:57:34.316Z</time></trkpt><trkpt lat="39.1893017" lon="8.667195"><ele>248.66666666666669</ele><time>2026-05-02T13:57:35.313Z</time></trkpt><trkpt lat="39.18926" lon="8.6673867"><ele>246.33333333333331</ele><time>2026-05-02T13:57:36.316Z</time></trkpt><trkpt lat="39.1892083" lon="8.6675633"><ele>244.0</ele><time>2026-05-02T13:57:37.315Z</time></trkpt><trkpt lat="39.1891117" lon="8.66773"><ele>243.66666666666666</ele><time>2026-05-02T13:57:38.364Z</time></trkpt><trkpt lat="39.188975" lon="8.6678617"><ele>243.33333333333331</ele><time>2026-05-02T13:57:39.313Z</time></trkpt><trkpt lat="39.1888767" lon="8.66801"><ele>243.0</ele><time>2026-05-02T13:57:40.314Z</time></trkpt><trkpt lat="39.1887367" lon="8.66811"><ele>243.0</ele><time>2026-05-02T13:57:41.317Z</time></trkpt><trkpt lat="39.1885917" lon="8.6682133"><ele>243.0</ele><time>2026-05-02T13:57:42.317Z</time></trkpt><trkpt lat="39.1883983" lon="8.668275"><ele>243.0</ele><time>2026-05-02T13:57:43.317Z</time></trkpt><trkpt lat="39.1881967" lon="8.6683483"><ele>243.33333333333331</ele><time>2026-05-02T13:57:44.365Z</time></trkpt><trkpt lat="39.188" lon="8.668395"><ele>243.66666666666666</ele><time>2026-05-02T13:57:45.315Z</time></trkpt><trkpt lat="39.18778" lon="8.6683917"><ele>244.0</ele><time>2026-05-02T13:57:46.317Z</time></trkpt><trkpt lat="39.187525" lon="8.6683417"><ele>243.5</ele><time>2026-05-02T13:57:47.314Z</time></trkpt><trkpt lat="39.1872867" lon="8.6683"><ele>243.0</ele><time>2026-05-02T13:57:48.317Z</time></trkpt><trkpt lat="39.1870617" lon="8.6682467"><ele>243.0</ele><time>2026-05-02T13:57:49.318Z</time></trkpt><trkpt lat="39.1868483" lon="8.6681917"><ele>243.0</ele><time>2026-05-02T13:57:50.363Z</time></trkpt><trkpt lat="39.1866533" lon="8.66816"><ele>243.0</ele><time>2026-05-02T13:57:51.314Z</time></trkpt><trkpt lat="39.1864583" lon="8.66811"><ele>245.0</ele><time>2026-05-02T13:57:52.316Z</time></trkpt><trkpt lat="39.1862633" lon="8.668045"><ele>247.0</ele><time>2026-05-02T13:57:53.316Z</time></trkpt><trkpt lat="39.1860683" lon="8.66796"><ele>249.0</ele><time>2026-05-02T13:57:54.318Z</time></trkpt><trkpt lat="39.1858917" lon="8.6678533"><ele>241.0</ele><time>2026-05-02T13:57:55.318Z</time></trkpt><trkpt lat="39.1857183" lon="8.6677583"><ele>233.0</ele><time>2026-05-02T13:57:56.363Z</time></trkpt><trkpt lat="39.185555" lon="8.667655"><ele>225.0</ele><time>2026-05-02T13:57:57.314Z</time></trkpt><trkpt lat="39.1854" lon="8.6675283"><ele>223.66666666666669</ele><time>2026-05-02T13:57:58.318Z</time></trkpt><trkpt lat="39.185245" lon="8.66754"><ele>222.33333333333334</ele><time>2026-05-02T13:57:59.314Z</time></trkpt><trkpt lat="39.1850933" lon="8.6675767"><ele>221.0</ele><time>2026-05-02T13:58:00.317Z</time></trkpt><trkpt lat="39.18494" lon="8.667595"><ele>219.33333333333334</ele><time>2026-05-02T13:58:01.315Z</time></trkpt><trkpt lat="39.1847883" lon="8.6676017"><ele>217.66666666666669</ele><time>2026-05-02T13:58:02.366Z</time></trkpt><trkpt lat="39.18464" lon="8.66759"><ele>216.0</ele><time>2026-05-02T13:58:03.315Z</time></trkpt><trkpt lat="39.1844783" lon="8.6674933"><ele>216.0</ele><time>2026-05-02T13:58:04.318Z</time></trkpt><trkpt lat="39.1843117" lon="8.6673783"><ele>216.0</ele><time>2026-05-02T13:58:05.319Z</time></trkpt><trkpt lat="39.1841517" lon="8.6672583"><ele>216.0</ele><time>2026-05-02T13:58:06.318Z</time></trkpt><trkpt lat="39.183995" lon="8.6671417"><ele>218.66666666666669</ele><time>2026-05-02T13:58:07.316Z</time></trkpt><trkpt lat="39.1838483" lon="8.6670283"><ele>221.33333333333334</ele><time>2026-05-02T13:58:08.363Z</time></trkpt><trkpt lat="39.18371" lon="8.6669267"><ele>224.0</ele><time>2026-05-02T13:58:09.314Z</time></trkpt><trkpt lat="39.1835683" lon="8.66683"><ele>219.33333333333334</ele><time>2026-05-02T13:58:10.315Z</time></trkpt><trkpt lat="39.1834283" lon="8.6667583"><ele>214.66666666666669</ele><time>2026-05-02T13:58:11.318Z</time></trkpt><trkpt lat="39.1832733" lon="8.6667417"><ele>210.0</ele><time>2026-05-02T13:58:12.313Z</time></trkpt><trkpt lat="39.183115" lon="8.6667333"><ele>210.0</ele><time>2026-05-02T13:58:13.317Z</time></trkpt><trkpt lat="39.1829483" lon="8.6667717"><ele>210.0</ele><time>2026-05-02T13:58:14.363Z</time></trkpt><trkpt lat="39.1827883" lon="8.6668383"><ele>210.0</ele><time>2026-05-02T13:58:15.317Z</time></trkpt><trkpt lat="39.1826167" lon="8.6669367"><ele>209.0</ele><time>2026-05-02T13:58:16.317Z</time></trkpt><trkpt lat="39.1824433" lon="8.6670533"><ele>208.0</ele><time>2026-05-02T13:58:17.316Z</time></trkpt><trkpt lat="39.1822733" lon="8.667195"><ele>207.0</ele><time>2026-05-02T13:58:18.316Z</time></trkpt><trkpt lat="39.18211" lon="8.66734"><ele>204.33333333333331</ele><time>2026-05-02T13:58:19.316Z</time></trkpt><trkpt lat="39.181945" lon="8.66747"><ele>201.66666666666666</ele><time>2026-05-02T13:58:20.365Z</time></trkpt><trkpt lat="39.1817717" lon="8.6676267"><ele>199.0</ele><time>2026-05-02T13:58:21.318Z</time></trkpt><trkpt lat="39.18159" lon="8.6677217"><ele>200.0</ele><time>2026-05-02T13:58:22.314Z</time></trkpt><trkpt lat="39.1814133" lon="8.6678067"><ele>201.0</ele><time>2026-05-02T13:58:23.315Z</time></trkpt><trkpt lat="39.1812133" lon="8.6678367"><ele>202.0</ele><time>2026-05-02T13:58:24.313Z</time></trkpt><trkpt lat="39.181" lon="8.66787"><ele>202.0</ele><time>2026-05-02T13:58:25.316Z</time></trkpt><trkpt lat="39.180795" lon="8.6679067"><ele>202.0</ele><time>2026-05-02T13:58:26.362Z</time></trkpt><trkpt lat="39.180585" lon="8.667945"><ele>202.0</ele><time>2026-05-02T13:58:27.312Z</time></trkpt><trkpt lat="39.1803783" lon="8.6679867"><ele>197.66666666666666</ele><time>2026-05-02T13:58:28.314Z</time></trkpt><trkpt lat="39.1801883" lon="8.6680067"><ele>193.33333333333331</ele><time>2026-05-02T13:58:29.316Z</time></trkpt><trkpt lat="39.18" lon="8.6680467"><ele>189.0</ele><time>2026-05-02T13:58:30.317Z</time></trkpt><trkpt lat="39.1798383" lon="8.66809"><ele>186.5</ele><time>2026-05-02T13:58:31.318Z</time></trkpt><trkpt lat="39.1796933" lon="8.6681717"><ele>184.0</ele><time>2026-05-02T13:58:32.367Z</time></trkpt><trkpt lat="39.1795767" lon="8.66827"><ele>181.5</ele><time>2026-05-02T13:58:33.316Z</time></trkpt><trkpt lat="39.1794533" lon="8.66837"><ele>179.0</ele><time>2026-05-02T13:58:34.319Z</time></trkpt><trkpt lat="39.1793283" lon="8.6684383"><ele>179.0</ele><time>2026-05-02T13:58:35.312Z</time></trkpt><trkpt lat="39.179205" lon="8.668465"><ele>179.0</ele><time>2026-05-02T13:58:36.315Z</time></trkpt><trkpt lat="39.179075" lon="8.6684467"><ele>179.0</ele><time>2026-05-02T13:58:37.314Z</time></trkpt><trkpt lat="39.1789617" lon="8.6683333"><ele>179.0</ele><time>2026-05-02T13:58:38.363Z</time></trkpt><trkpt lat="39.1788433" lon="8.668255"><ele>176.0</ele><time>2026-05-02T13:58:39.317Z</time></trkpt><trkpt lat="39.1787033" lon="8.6681933"><ele>173.0</ele><time>2026-05-02T13:58:40.316Z</time></trkpt><trkpt lat="39.178545" lon="8.6681883"><ele>170.0</ele><time>2026-05-02T13:58:41.312Z</time></trkpt><trkpt lat="39.17839" lon="8.6682383"><ele>170.0</ele><time>2026-05-02T13:58:42.318Z</time></trkpt><trkpt lat="39.1782367" lon="8.6682917"><ele>170.0</ele><time>2026-05-02T13:58:43.319Z</time></trkpt><trkpt lat="39.1780783" lon="8.6683633"><ele>170.0</ele><time>2026-05-02T13:58:44.364Z</time></trkpt><trkpt lat="39.1779133" lon="8.668445"><ele>169.33333333333331</ele><time>2026-05-02T13:58:45.316Z</time></trkpt><trkpt lat="39.17775" lon="8.6685467"><ele>168.66666666666666</ele><time>2026-05-02T13:58:46.317Z</time></trkpt><trkpt lat="39.1775667" lon="8.6686517"><ele>168.0</ele><time>2026-05-02T13:58:47.318Z</time></trkpt><trkpt lat="39.17738" lon="8.668765"><ele>165.33333333333334</ele><time>2026-05-02T13:58:48.314Z</time></trkpt><trkpt lat="39.177205" lon="8.6688533"><ele>162.66666666666669</ele><time>2026-05-02T13:58:49.317Z</time></trkpt><trkpt lat="39.1770233" lon="8.6689517"><ele>160.0</ele><time>2026-05-02T13:58:50.365Z</time></trkpt><trkpt lat="39.1768433" lon="8.669045"><ele>160.0</ele><time>2026-05-02T13:58:51.312Z</time></trkpt><trkpt lat="39.1766467" lon="8.66911"><ele>160.0</ele><time>2026-05-02T13:58:52.317Z</time></trkpt><trkpt lat="39.17644" lon="8.6691717"><ele>160.0</ele><time>2026-05-02T13:58:53.316Z</time></trkpt><trkpt lat="39.1762233" lon="8.6692317"><ele>157.66666666666669</ele><time>2026-05-02T13:58:54.315Z</time></trkpt><trkpt lat="39.17603" lon="8.6692867"><ele>155.33333333333334</ele><time>2026-05-02T13:58:55.317Z</time></trkpt><trkpt lat="39.175845" lon="8.66932"><ele>153.0</ele><time>2026-05-02T13:58:56.366Z</time></trkpt><trkpt lat="39.1756933" lon="8.669365"><ele>152.66666666666666</ele><time>2026-05-02T13:58:57.32Z</time></trkpt><trkpt lat="39.1755283" lon="8.669445"><ele>152.33333333333331</ele><time>2026-05-02T13:58:58.32Z</time></trkpt><trkpt lat="39.1753967" lon="8.6695633"><ele>152.0</ele><time>2026-05-02T13:58:59.317Z</time></trkpt><trkpt lat="39.1752683" lon="8.6697083"><ele>152.0</ele><time>2026-05-02T13:59:00.314Z</time></trkpt><trkpt lat="39.17517" lon="8.6699017"><ele>152.0</ele><time>2026-05-02T13:59:01.315Z</time></trkpt><trkpt lat="39.1750783" lon="8.6701233"><ele>152.0</ele><time>2026-05-02T13:59:02.365Z</time></trkpt><trkpt lat="39.1749817" lon="8.670345"><ele>151.33333333333331</ele><time>2026-05-02T13:59:03.318Z</time></trkpt><trkpt lat="39.1748883" lon="8.6705633"><ele>150.66666666666666</ele><time>2026-05-02T13:59:04.315Z</time></trkpt><trkpt lat="39.174785" lon="8.6707517"><ele>150.0</ele><time>2026-05-02T13:59:05.312Z</time></trkpt><trkpt lat="39.174675" lon="8.6709183"><ele>149.33333333333334</ele><time>2026-05-02T13:59:06.317Z</time></trkpt><trkpt lat="39.17457" lon="8.6710517"><ele>148.66666666666669</ele><time>2026-05-02T13:59:07.319Z</time></trkpt><trkpt lat="39.174445" lon="8.671165"><ele>148.0</ele><time>2026-05-02T13:59:08.363Z</time></trkpt><trkpt lat="39.1743183" lon="8.6712767"><ele>146.66666666666669</ele><time>2026-05-02T13:59:09.315Z</time></trkpt><trkpt lat="39.1741633" lon="8.67136"><ele>145.33333333333334</ele><time>2026-05-02T13:59:10.318Z</time></trkpt><trkpt lat="39.17399" lon="8.6714"><ele>144.0</ele><time>2026-05-02T13:59:11.318Z</time></trkpt><trkpt lat="39.1738217" lon="8.671435"><ele>142.0</ele><time>2026-05-02T13:59:12.318Z</time></trkpt><trkpt lat="39.1736267" lon="8.6714567"><ele>140.0</ele><time>2026-05-02T13:59:13.314Z</time></trkpt><trkpt lat="39.173435" lon="8.671465"><ele>138.0</ele><time>2026-05-02T13:59:14.364Z</time></trkpt><trkpt lat="39.17323" lon="8.6714917"><ele>137.33333333333334</ele><time>2026-05-02T13:59:15.316Z</time></trkpt><trkpt lat="39.173025" lon="8.671515"><ele>136.66666666666669</ele><time>2026-05-02T13:59:16.32Z</time></trkpt><trkpt lat="39.1728217" lon="8.67153"><ele>136.0</ele><time>2026-05-02T13:59:17.322Z</time></trkpt><trkpt lat="39.17264" lon="8.6715483"><ele>136.0</ele><time>2026-05-02T13:59:18.317Z</time></trkpt><trkpt lat="39.1724433" lon="8.6716067"><ele>136.0</ele><time>2026-05-02T13:59:19.318Z</time></trkpt><trkpt lat="39.1722667" lon="8.671625"><ele>136.0</ele><time>2026-05-02T13:59:20.363Z</time></trkpt><trkpt lat="39.1720767" lon="8.6716217"><ele>135.66666666666669</ele><time>2026-05-02T13:59:21.319Z</time></trkpt><trkpt lat="39.17189" lon="8.671595"><ele>135.33333333333334</ele><time>2026-05-02T13:59:22.314Z</time></trkpt><trkpt lat="39.1717017" lon="8.6715483"><ele>135.0</ele><time>2026-05-02T13:59:23.318Z</time></trkpt><trkpt lat="39.1715183" lon="8.671495"><ele>134.33333333333334</ele><time>2026-05-02T13:59:24.316Z</time></trkpt><trkpt lat="39.171335" lon="8.6714317"><ele>133.66666666666669</ele><time>2026-05-02T13:59:25.318Z</time></trkpt><trkpt lat="39.171155" lon="8.6713583"><ele>133.0</ele><time>2026-05-02T13:59:26.366Z</time></trkpt><trkpt lat="39.1709717" lon="8.671285"><ele>133.0</ele><time>2026-05-02T13:59:27.314Z</time></trkpt><trkpt lat="39.17079" lon="8.6712217"><ele>133.0</ele><time>2026-05-02T13:59:28.316Z</time></trkpt><trkpt lat="39.1706067" lon="8.67116"><ele>133.0</ele><time>2026-05-02T13:59:29.317Z</time></trkpt><trkpt lat="39.1704233" lon="8.6711017"><ele>131.66666666666669</ele><time>2026-05-02T13:59:30.318Z</time></trkpt><trkpt lat="39.1702333" lon="8.671045"><ele>130.33333333333334</ele><time>2026-05-02T13:59:31.318Z</time></trkpt><trkpt lat="39.1700417" lon="8.6709817"><ele>129.0</ele><time>2026-05-02T13:59:32.36Z</time></trkpt><trkpt lat="39.1698517" lon="8.6709217"><ele>127.66666666666666</ele><time>2026-05-02T13:59:33.317Z</time></trkpt><trkpt lat="39.1696617" lon="8.6708617"><ele>126.33333333333333</ele><time>2026-05-02T13:59:34.313Z</time></trkpt><trkpt lat="39.1694717" lon="8.6707967"><ele>125.0</ele><time>2026-05-02T13:59:35.316Z</time></trkpt><trkpt lat="39.1692817" lon="8.6707283"><ele>125.0</ele><time>2026-05-02T13:59:36.318Z</time></trkpt><trkpt lat="39.1690933" lon="8.6706583"><ele>125.0</ele><time>2026-05-02T13:59:37.32Z</time></trkpt><trkpt lat="39.1689033" lon="8.6705933"><ele>125.0</ele><time>2026-05-02T13:59:38.319Z</time></trkpt><trkpt lat="39.1687133" lon="8.67053"><ele>124.66666666666666</ele><time>2026-05-02T13:59:39.312Z</time></trkpt><trkpt lat="39.168525" lon="8.6704667"><ele>124.33333333333334</ele><time>2026-05-02T13:59:40.315Z</time></trkpt><trkpt lat="39.168335" lon="8.6704033"><ele>124.0</ele><time>2026-05-02T13:59:41.317Z</time></trkpt><trkpt lat="39.1681467" lon="8.6703417"><ele>125.33333333333334</ele><time>2026-05-02T13:59:42.317Z</time></trkpt><trkpt lat="39.167965" lon="8.6702817"><ele>126.66666666666666</ele><time>2026-05-02T13:59:43.316Z</time></trkpt><trkpt lat="39.1677917" lon="8.670225"><ele>128.0</ele><time>2026-05-02T13:59:44.316Z</time></trkpt><trkpt lat="39.1676283" lon="8.6701683"><ele>128.0</ele><time>2026-05-02T13:59:45.315Z</time></trkpt><trkpt lat="39.1674783" lon="8.6701183"><ele>128.0</ele><time>2026-05-02T13:59:46.319Z</time></trkpt><trkpt lat="39.1673433" lon="8.6700783"><ele>128.0</ele><time>2026-05-02T13:59:47.318Z</time></trkpt><trkpt lat="39.1672217" lon="8.670045"><ele>128.0</ele><time>2026-05-02T13:59:48.316Z</time></trkpt><trkpt lat="39.1671167" lon="8.6700117"><ele>127.99999999999999</ele><time>2026-05-02T13:59:49.313Z</time></trkpt><trkpt lat="39.16703" lon="8.6699833"><ele>128.0</ele><time>2026-05-02T13:59:50.318Z</time></trkpt><trkpt lat="39.166955" lon="8.6699633"><ele>128.0</ele><time>2026-05-02T13:59:51.314Z</time></trkpt><trkpt lat="39.1668833" lon="8.6699483"><ele>128.0</ele><time>2026-05-02T13:59:53.316Z</time></trkpt><trkpt lat="39.1669" lon="8.6700583"><ele>127.99999999999999</ele><time>2026-05-02T14:00:05.313Z</time></trkpt><trkpt lat="39.1669033" lon="8.67019"><ele>128.0</ele><time>2026-05-02T14:00:07.318Z</time></trkpt><trkpt lat="39.1668867" lon="8.6703833"><ele>128.0</ele><time>2026-05-02T14:00:08.314Z</time></trkpt><trkpt lat="39.16687" lon="8.6705433"><ele>128.0</ele><time>2026-05-02T14:00:09.316Z</time></trkpt><trkpt lat="39.1668483" lon="8.670725"><ele>128.0</ele><time>2026-05-02T14:00:10.315Z</time></trkpt><trkpt lat="39.1668533" lon="8.6709333"><ele>128.0</ele><time>2026-05-02T14:00:11.318Z</time></trkpt><trkpt lat="39.166865" lon="8.6711883"><ele>127.66666666666666</ele><time>2026-05-02T14:00:12.314Z</time></trkpt><trkpt lat="39.1668683" lon="8.6714383"><ele>127.33333333333334</ele><time>2026-05-02T14:00:13.317Z</time></trkpt><trkpt lat="39.166875" lon="8.67168"><ele>127.0</ele><time>2026-05-02T14:00:14.313Z</time></trkpt><trkpt lat="39.1668733" lon="8.671955"><ele>126.0</ele><time>2026-05-02T14:00:15.318Z</time></trkpt><trkpt lat="39.1668867" lon="8.6721883"><ele>125.0</ele><time>2026-05-02T14:00:16.317Z</time></trkpt><trkpt lat="39.16691" lon="8.6724133"><ele>124.0</ele><time>2026-05-02T14:00:17.317Z</time></trkpt><trkpt lat="39.1669333" lon="8.6726333"><ele>124.0</ele><time>2026-05-02T14:00:18.317Z</time></trkpt><trkpt lat="39.166955" lon="8.672865"><ele>124.0</ele><time>2026-05-02T14:00:19.318Z</time></trkpt><trkpt lat="39.16697" lon="8.673095"><ele>124.0</ele><time>2026-05-02T14:00:20.316Z</time></trkpt><trkpt lat="39.16698" lon="8.673315"><ele>124.0</ele><time>2026-05-02T14:00:21.316Z</time></trkpt><trkpt lat="39.1669883" lon="8.6735367"><ele>124.0</ele><time>2026-05-02T14:00:22.317Z</time></trkpt><trkpt lat="39.1669933" lon="8.6737583"><ele>124.0</ele><time>2026-05-02T14:00:23.318Z</time></trkpt><trkpt lat="39.1669967" lon="8.6739817"><ele>124.0</ele><time>2026-05-02T14:00:24.315Z</time></trkpt><trkpt lat="39.1669983" lon="8.6742067"><ele>124.0</ele><time>2026-05-02T14:00:25.318Z</time></trkpt><trkpt lat="39.1670017" lon="8.67443"><ele>124.0</ele><time>2026-05-02T14:00:26.384Z</time></trkpt><trkpt lat="39.1669983" lon="8.6746517"><ele>123.33333333333334</ele><time>2026-05-02T14:00:27.313Z</time></trkpt><trkpt lat="39.1669933" lon="8.67488"><ele>122.66666666666666</ele><time>2026-05-02T14:00:28.318Z</time></trkpt><trkpt lat="39.1669917" lon="8.675105"><ele>122.0</ele><time>2026-05-02T14:00:29.316Z</time></trkpt><trkpt lat="39.1669933" lon="8.67533"><ele>121.66666666666666</ele><time>2026-05-02T14:00:30.319Z</time></trkpt><trkpt lat="39.16699" lon="8.6755517"><ele>121.33333333333334</ele><time>2026-05-02T14:00:31.317Z</time></trkpt><trkpt lat="39.1669933" lon="8.6757683"><ele>121.0</ele><time>2026-05-02T14:00:32.372Z</time></trkpt><trkpt lat="39.1669933" lon="8.6759833"><ele>121.0</ele><time>2026-05-02T14:00:33.314Z</time></trkpt><trkpt lat="39.166995" lon="8.6761867"><ele>121.0</ele><time>2026-05-02T14:00:34.315Z</time></trkpt><trkpt lat="39.1669967" lon="8.6763867"><ele>121.0</ele><time>2026-05-02T14:00:35.316Z</time></trkpt><trkpt lat="39.1670133" lon="8.676565"><ele>121.0</ele><time>2026-05-02T14:00:36.315Z</time></trkpt><trkpt lat="39.16705" lon="8.6767383"><ele>121.0</ele><time>2026-05-02T14:00:37.317Z</time></trkpt><trkpt lat="39.16711" lon="8.6769133"><ele>121.0</ele><time>2026-05-02T14:00:38.318Z</time></trkpt><trkpt lat="39.1671783" lon="8.6770817"><ele>121.0</ele><time>2026-05-02T14:00:39.316Z</time></trkpt><trkpt lat="39.167245" lon="8.6772283"><ele>121.25</ele><time>2026-05-02T14:00:40.32Z</time></trkpt><trkpt lat="39.167305" lon="8.6773783"><ele>121.5</ele><time>2026-05-02T14:00:41.319Z</time></trkpt><trkpt lat="39.1673617" lon="8.6775517"><ele>121.75</ele><time>2026-05-02T14:00:42.315Z</time></trkpt><trkpt lat="39.1674067" lon="8.6777117"><ele>122.0</ele><time>2026-05-02T14:00:43.317Z</time></trkpt><trkpt lat="39.1674433" lon="8.6778667"><ele>122.0</ele><time>2026-05-02T14:00:44.314Z</time></trkpt><trkpt lat="39.167515" lon="8.6780167"><ele>122.0</ele><time>2026-05-02T14:00:45.317Z</time></trkpt><trkpt lat="39.1675667" lon="8.6781533"><ele>122.0</ele><time>2026-05-02T14:00:46.315Z</time></trkpt><trkpt lat="39.1676483" lon="8.6782933"><ele>122.0</ele><time>2026-05-02T14:00:47.318Z</time></trkpt><trkpt lat="39.1677283" lon="8.67843"><ele>122.0</ele><time>2026-05-02T14:00:48.317Z</time></trkpt><trkpt lat="39.1678133" lon="8.6785767"><ele>122.0</ele><time>2026-05-02T14:00:49.315Z</time></trkpt><trkpt lat="39.16791" lon="8.6787083"><ele>122.0</ele><time>2026-05-02T14:00:50.318Z</time></trkpt><trkpt lat="39.1679867" lon="8.6789017"><ele>121.66666666666666</ele><time>2026-05-02T14:00:51.318Z</time></trkpt><trkpt lat="39.1680767" lon="8.6790567"><ele>121.33333333333334</ele><time>2026-05-02T14:00:52.316Z</time></trkpt><trkpt lat="39.1682083" lon="8.6791817"><ele>121.0</ele><time>2026-05-02T14:00:53.318Z</time></trkpt><trkpt lat="39.16832" lon="8.6793317"><ele>120.0</ele><time>2026-05-02T14:00:54.317Z</time></trkpt><trkpt lat="39.1684267" lon="8.6794817"><ele>119.0</ele><time>2026-05-02T14:00:55.318Z</time></trkpt><trkpt lat="39.1685317" lon="8.6796417"><ele>118.0</ele><time>2026-05-02T14:00:56.351Z</time></trkpt><trkpt lat="39.1686333" lon="8.6798117"><ele>118.0</ele><time>2026-05-02T14:00:57.316Z</time></trkpt><trkpt lat="39.1687433" lon="8.6799817"><ele>118.0</ele><time>2026-05-02T14:00:58.317Z</time></trkpt><trkpt lat="39.1688517" lon="8.6801367"><ele>118.0</ele><time>2026-05-02T14:00:59.318Z</time></trkpt><trkpt lat="39.1689567" lon="8.6803267"><ele>118.33333333333334</ele><time>2026-05-02T14:01:00.319Z</time></trkpt><trkpt lat="39.1690683" lon="8.6805183"><ele>118.66666666666666</ele><time>2026-05-02T14:01:01.314Z</time></trkpt><trkpt lat="39.1691617" lon="8.6807"><ele>119.0</ele><time>2026-05-02T14:01:02.371Z</time></trkpt><trkpt lat="39.16927" lon="8.6808867"><ele>119.0</ele><time>2026-05-02T14:01:03.319Z</time></trkpt><trkpt lat="39.1693717" lon="8.6810817"><ele>119.0</ele><time>2026-05-02T14:01:04.313Z</time></trkpt><trkpt lat="39.1695033" lon="8.681245"><ele>119.0</ele><time>2026-05-02T14:01:05.317Z</time></trkpt><trkpt lat="39.1696633" lon="8.6813833"><ele>121.0</ele><time>2026-05-02T14:01:06.319Z</time></trkpt><trkpt lat="39.16978" lon="8.6815517"><ele>123.0</ele><time>2026-05-02T14:01:07.316Z</time></trkpt><trkpt lat="39.1699117" lon="8.681695"><ele>125.0</ele><time>2026-05-02T14:01:08.315Z</time></trkpt><trkpt lat="39.1700233" lon="8.6818417"><ele>126.66666666666666</ele><time>2026-05-02T14:01:09.317Z</time></trkpt><trkpt lat="39.1701633" lon="8.6819433"><ele>128.33333333333334</ele><time>2026-05-02T14:01:10.317Z</time></trkpt><trkpt lat="39.17029" lon="8.6820583"><ele>130.0</ele><time>2026-05-02T14:01:11.317Z</time></trkpt><trkpt lat="39.1704283" lon="8.682135"><ele>130.0</ele><time>2026-05-02T14:01:12.318Z</time></trkpt><trkpt lat="39.1705783" lon="8.6822983"><ele>130.0</ele><time>2026-05-02T14:01:13.318Z</time></trkpt><trkpt lat="39.1707217" lon="8.6824017"><ele>130.0</ele><time>2026-05-02T14:01:14.318Z</time></trkpt><trkpt lat="39.170905" lon="8.6824733"><ele>129.66666666666669</ele><time>2026-05-02T14:01:15.318Z</time></trkpt><trkpt lat="39.1710467" lon="8.6825883"><ele>129.33333333333334</ele><time>2026-05-02T14:01:16.317Z</time></trkpt><trkpt lat="39.1712167" lon="8.6826817"><ele>129.0</ele><time>2026-05-02T14:01:17.315Z</time></trkpt><trkpt lat="39.1713467" lon="8.6828267"><ele>128.0</ele><time>2026-05-02T14:01:18.318Z</time></trkpt><trkpt lat="39.1714617" lon="8.682985"><ele>127.0</ele><time>2026-05-02T14:01:19.318Z</time></trkpt><trkpt lat="39.1715783" lon="8.683165"><ele>126.0</ele><time>2026-05-02T14:01:20.319Z</time></trkpt><trkpt lat="39.1716883" lon="8.6833617"><ele>125.66666666666666</ele><time>2026-05-02T14:01:21.319Z</time></trkpt><trkpt lat="39.171805" lon="8.6835617"><ele>125.33333333333333</ele><time>2026-05-02T14:01:22.32Z</time></trkpt><trkpt lat="39.1719217" lon="8.6837683"><ele>125.0</ele><time>2026-05-02T14:01:23.32Z</time></trkpt><trkpt lat="39.1720417" lon="8.6839767"><ele>124.66666666666666</ele><time>2026-05-02T14:01:24.318Z</time></trkpt><trkpt lat="39.17216" lon="8.6841817"><ele>124.33333333333334</ele><time>2026-05-02T14:01:25.316Z</time></trkpt><trkpt lat="39.1722683" lon="8.6843883"><ele>124.0</ele><time>2026-05-02T14:01:26.383Z</time></trkpt><trkpt lat="39.172385" lon="8.6845817"><ele>124.0</ele><time>2026-05-02T14:01:27.318Z</time></trkpt><trkpt lat="39.172505" lon="8.6847717"><ele>124.0</ele><time>2026-05-02T14:01:28.318Z</time></trkpt><trkpt lat="39.172615" lon="8.6849633"><ele>124.0</ele><time>2026-05-02T14:01:29.314Z</time></trkpt><trkpt lat="39.172725" lon="8.6851433"><ele>124.0</ele><time>2026-05-02T14:01:30.317Z</time></trkpt><trkpt lat="39.17284" lon="8.6853517"><ele>124.0</ele><time>2026-05-02T14:01:31.314Z</time></trkpt><trkpt lat="39.172955" lon="8.6855483"><ele>124.0</ele><time>2026-05-02T14:01:32.367Z</time></trkpt><trkpt lat="39.1730717" lon="8.6857617"><ele>124.0</ele><time>2026-05-02T14:01:33.317Z</time></trkpt><trkpt lat="39.1731833" lon="8.6859667"><ele>124.0</ele><time>2026-05-02T14:01:34.318Z</time></trkpt><trkpt lat="39.1732817" lon="8.6861967"><ele>124.0</ele><time>2026-05-02T14:01:35.314Z</time></trkpt><trkpt lat="39.173395" lon="8.6864083"><ele>124.0</ele><time>2026-05-02T14:01:36.318Z</time></trkpt><trkpt lat="39.1735067" lon="8.6866217"><ele>124.0</ele><time>2026-05-02T14:01:37.319Z</time></trkpt><trkpt lat="39.173615" lon="8.6868317"><ele>124.0</ele><time>2026-05-02T14:01:38.317Z</time></trkpt><trkpt lat="39.1737167" lon="8.6870533"><ele>124.33333333333334</ele><time>2026-05-02T14:01:39.316Z</time></trkpt><trkpt lat="39.1738317" lon="8.687265"><ele>124.66666666666666</ele><time>2026-05-02T14:01:40.316Z</time></trkpt><trkpt lat="39.17393" lon="8.687495"><ele>125.0</ele><time>2026-05-02T14:01:41.314Z</time></trkpt><trkpt lat="39.17403" lon="8.68772"><ele>125.0</ele><time>2026-05-02T14:01:42.314Z</time></trkpt><trkpt lat="39.17414" lon="8.6879383"><ele>125.0</ele><time>2026-05-02T14:01:43.316Z</time></trkpt><trkpt lat="39.1742467" lon="8.6881533"><ele>125.0</ele><time>2026-05-02T14:01:44.316Z</time></trkpt><trkpt lat="39.1743783" lon="8.68831"><ele>125.0</ele><time>2026-05-02T14:01:45.317Z</time></trkpt><trkpt lat="39.174495" lon="8.688535"><ele>125.0</ele><time>2026-05-02T14:01:46.317Z</time></trkpt><trkpt lat="39.174635" lon="8.6887217"><ele>125.0</ele><time>2026-05-02T14:01:47.314Z</time></trkpt><trkpt lat="39.174785" lon="8.6889067"><ele>126.66666666666666</ele><time>2026-05-02T14:01:48.316Z</time></trkpt><trkpt lat="39.1749417" lon="8.6890867"><ele>128.33333333333334</ele><time>2026-05-02T14:01:49.32Z</time></trkpt><trkpt lat="39.1750883" lon="8.6892633"><ele>130.0</ele><time>2026-05-02T14:01:50.319Z</time></trkpt><trkpt lat="39.1752367" lon="8.6894183"><ele>130.0</ele><time>2026-05-02T14:01:51.317Z</time></trkpt><trkpt lat="39.1753817" lon="8.6895767"><ele>130.0</ele><time>2026-05-02T14:01:52.318Z</time></trkpt><trkpt lat="39.1755433" lon="8.689735"><ele>130.0</ele><time>2026-05-02T14:01:53.313Z</time></trkpt><trkpt lat="39.17569" lon="8.689895"><ele>132.0</ele><time>2026-05-02T14:01:54.317Z</time></trkpt><trkpt lat="39.1758433" lon="8.690045"><ele>134.0</ele><time>2026-05-02T14:01:55.319Z</time></trkpt><trkpt lat="39.17598" lon="8.6902233"><ele>136.0</ele><time>2026-05-02T14:01:56.381Z</time></trkpt><trkpt lat="39.1761233" lon="8.6904033"><ele>136.0</ele><time>2026-05-02T14:01:57.319Z</time></trkpt><trkpt lat="39.1762583" lon="8.6905883"><ele>136.0</ele><time>2026-05-02T14:01:58.316Z</time></trkpt><trkpt lat="39.176395" lon="8.6907867"><ele>136.0</ele><time>2026-05-02T14:01:59.318Z</time></trkpt><trkpt lat="39.1765233" lon="8.6909767"><ele>137.66666666666669</ele><time>2026-05-02T14:02:00.316Z</time></trkpt><trkpt lat="39.1766583" lon="8.6911583"><ele>139.33333333333334</ele><time>2026-05-02T14:02:01.312Z</time></trkpt><trkpt lat="39.17679" lon="8.69135"><ele>141.0</ele><time>2026-05-02T14:02:02.374Z</time></trkpt><trkpt lat="39.17693" lon="8.6915317"><ele>141.0</ele><time>2026-05-02T14:02:03.317Z</time></trkpt><trkpt lat="39.1770867" lon="8.6916967"><ele>141.0</ele><time>2026-05-02T14:02:04.318Z</time></trkpt><trkpt lat="39.1772467" lon="8.6918283"><ele>141.0</ele><time>2026-05-02T14:02:05.319Z</time></trkpt><trkpt lat="39.1774017" lon="8.6919667"><ele>142.66666666666666</ele><time>2026-05-02T14:02:06.316Z</time></trkpt><trkpt lat="39.1775433" lon="8.6921033"><ele>144.33333333333331</ele><time>2026-05-02T14:02:07.318Z</time></trkpt><trkpt lat="39.1776533" lon="8.6922667"><ele>146.0</ele><time>2026-05-02T14:02:08.318Z</time></trkpt><trkpt lat="39.1777633" lon="8.6924283"><ele>146.0</ele><time>2026-05-02T14:02:09.314Z</time></trkpt><trkpt lat="39.17785" lon="8.692635"><ele>146.0</ele><time>2026-05-02T14:02:10.315Z</time></trkpt><trkpt lat="39.1779017" lon="8.6928783"><ele>146.0</ele><time>2026-05-02T14:02:11.318Z</time></trkpt><trkpt lat="39.1779617" lon="8.6931"><ele>144.66666666666666</ele><time>2026-05-02T14:02:12.317Z</time></trkpt><trkpt lat="39.1779917" lon="8.69336"><ele>143.33333333333334</ele><time>2026-05-02T14:02:13.316Z</time></trkpt><trkpt lat="39.178035" lon="8.693615"><ele>142.0</ele><time>2026-05-02T14:02:14.318Z</time></trkpt><trkpt lat="39.1780933" lon="8.6938667"><ele>141.0</ele><time>2026-05-02T14:02:15.317Z</time></trkpt><trkpt lat="39.1781417" lon="8.6941367"><ele>140.0</ele><time>2026-05-02T14:02:16.319Z</time></trkpt><trkpt lat="39.1781933" lon="8.6943783"><ele>139.0</ele><time>2026-05-02T14:02:17.318Z</time></trkpt><trkpt lat="39.178245" lon="8.694605"><ele>137.33333333333334</ele><time>2026-05-02T14:02:18.319Z</time></trkpt><trkpt lat="39.1782583" lon="8.69485"><ele>135.66666666666666</ele><time>2026-05-02T14:02:19.313Z</time></trkpt><trkpt lat="39.1782667" lon="8.695085"><ele>134.0</ele><time>2026-05-02T14:02:20.314Z</time></trkpt><trkpt lat="39.17827" lon="8.6953233"><ele>133.0</ele><time>2026-05-02T14:02:21.318Z</time></trkpt><trkpt lat="39.17827" lon="8.6955517"><ele>132.0</ele><time>2026-05-02T14:02:22.319Z</time></trkpt><trkpt lat="39.1782817" lon="8.695795"><ele>131.0</ele><time>2026-05-02T14:02:23.318Z</time></trkpt><trkpt lat="39.1783167" lon="8.6960417"><ele>130.66666666666666</ele><time>2026-05-02T14:02:24.314Z</time></trkpt><trkpt lat="39.1783967" lon="8.6962933"><ele>130.33333333333334</ele><time>2026-05-02T14:02:25.314Z</time></trkpt><trkpt lat="39.1784767" lon="8.6965317"><ele>130.0</ele><time>2026-05-02T14:02:26.383Z</time></trkpt><trkpt lat="39.1785667" lon="8.6967733"><ele>131.0</ele><time>2026-05-02T14:02:27.319Z</time></trkpt><trkpt lat="39.1786583" lon="8.6970167"><ele>132.0</ele><time>2026-05-02T14:02:28.317Z</time></trkpt><trkpt lat="39.1787517" lon="8.6972583"><ele>133.0</ele><time>2026-05-02T14:02:29.321Z</time></trkpt><trkpt lat="39.1788433" lon="8.6974967"><ele>133.0</ele><time>2026-05-02T14:02:30.317Z</time></trkpt><trkpt lat="39.1789333" lon="8.69773"><ele>133.0</ele><time>2026-05-02T14:02:31.318Z</time></trkpt><trkpt lat="39.1790183" lon="8.6979567"><ele>133.0</ele><time>2026-05-02T14:02:32.372Z</time></trkpt><trkpt lat="39.1791033" lon="8.6981783"><ele>134.0</ele><time>2026-05-02T14:02:33.318Z</time></trkpt><trkpt lat="39.1791883" lon="8.69836"><ele>135.0</ele><time>2026-05-02T14:02:34.317Z</time></trkpt><trkpt lat="39.179245" lon="8.698555"><ele>136.0</ele><time>2026-05-02T14:02:35.315Z</time></trkpt><trkpt lat="39.1793017" lon="8.6987667"><ele>136.25</ele><time>2026-05-02T14:02:36.319Z</time></trkpt><trkpt lat="39.1793167" lon="8.69895"><ele>136.5</ele><time>2026-05-02T14:02:37.319Z</time></trkpt><trkpt lat="39.1793233" lon="8.6991317"><ele>136.75</ele><time>2026-05-02T14:02:38.319Z</time></trkpt><trkpt lat="39.1793117" lon="8.6993233"><ele>137.0</ele><time>2026-05-02T14:02:39.317Z</time></trkpt><trkpt lat="39.1792667" lon="8.6994867"><ele>137.0</ele><time>2026-05-02T14:02:40.316Z</time></trkpt><trkpt lat="39.1791983" lon="8.6996633"><ele>137.0</ele><time>2026-05-02T14:02:41.317Z</time></trkpt><trkpt lat="39.17912" lon="8.6998533"><ele>137.0</ele><time>2026-05-02T14:02:42.32Z</time></trkpt><trkpt lat="39.17904" lon="8.7000433"><ele>137.0</ele><time>2026-05-02T14:02:43.317Z</time></trkpt><trkpt lat="39.178945" lon="8.7002317"><ele>137.0</ele><time>2026-05-02T14:02:44.316Z</time></trkpt><trkpt lat="39.1788417" lon="8.7004333"><ele>137.0</ele><time>2026-05-02T14:02:45.318Z</time></trkpt><trkpt lat="39.1787417" lon="8.7006333"><ele>137.0</ele><time>2026-05-02T14:02:46.317Z</time></trkpt><trkpt lat="39.1786433" lon="8.7008367"><ele>137.0</ele><time>2026-05-02T14:02:47.317Z</time></trkpt><trkpt lat="39.17857" lon="8.7010167"><ele>137.0</ele><time>2026-05-02T14:02:48.316Z</time></trkpt><trkpt lat="39.1785417" lon="8.7012083"><ele>135.66666666666666</ele><time>2026-05-02T14:02:49.318Z</time></trkpt><trkpt lat="39.1785183" lon="8.7014067"><ele>134.33333333333334</ele><time>2026-05-02T14:02:50.319Z</time></trkpt><trkpt lat="39.17852" lon="8.701625"><ele>133.0</ele><time>2026-05-02T14:02:51.315Z</time></trkpt><trkpt lat="39.1785233" lon="8.7018317"><ele>133.0</ele><time>2026-05-02T14:02:52.317Z</time></trkpt><trkpt lat="39.1785133" lon="8.7020717"><ele>133.0</ele><time>2026-05-02T14:02:53.313Z</time></trkpt><trkpt lat="39.17853" lon="8.702285"><ele>133.0</ele><time>2026-05-02T14:02:54.319Z</time></trkpt><trkpt lat="39.1785683" lon="8.70247"><ele>133.0</ele><time>2026-05-02T14:02:55.315Z</time></trkpt><trkpt lat="39.17863" lon="8.7026583"><ele>133.0</ele><time>2026-05-02T14:02:56.38Z</time></trkpt><trkpt lat="39.1787033" lon="8.7028383"><ele>133.0</ele><time>2026-05-02T14:02:57.314Z</time></trkpt><trkpt lat="39.17878" lon="8.7030267"><ele>132.66666666666669</ele><time>2026-05-02T14:02:58.319Z</time></trkpt><trkpt lat="39.17885" lon="8.7032083"><ele>132.33333333333334</ele><time>2026-05-02T14:02:59.312Z</time></trkpt><trkpt lat="39.1789067" lon="8.703385"><ele>132.0</ele><time>2026-05-02T14:03:00.315Z</time></trkpt><trkpt lat="39.1789683" lon="8.7035683"><ele>132.25</ele><time>2026-05-02T14:03:01.314Z</time></trkpt><trkpt lat="39.1790117" lon="8.7037617"><ele>132.5</ele><time>2026-05-02T14:03:02.369Z</time></trkpt><trkpt lat="39.1790433" lon="8.7039483"><ele>132.75</ele><time>2026-05-02T14:03:03.319Z</time></trkpt><trkpt lat="39.1790733" lon="8.7041233"><ele>133.0</ele><time>2026-05-02T14:03:04.317Z</time></trkpt><trkpt lat="39.1791117" lon="8.704275"><ele>133.25</ele><time>2026-05-02T14:03:05.318Z</time></trkpt><trkpt lat="39.17918" lon="8.7044133"><ele>133.5</ele><time>2026-05-02T14:03:06.319Z</time></trkpt><trkpt lat="39.1792617" lon="8.7045633"><ele>133.75</ele><time>2026-05-02T14:03:07.315Z</time></trkpt><trkpt lat="39.1793683" lon="8.7047317"><ele>134.0</ele><time>2026-05-02T14:03:08.317Z</time></trkpt><trkpt lat="39.179475" lon="8.7049183"><ele>134.0</ele><time>2026-05-02T14:03:09.316Z</time></trkpt><trkpt lat="39.1795833" lon="8.7051033"><ele>134.0</ele><time>2026-05-02T14:03:10.316Z</time></trkpt><trkpt lat="39.1796617" lon="8.70532"><ele>134.0</ele><time>2026-05-02T14:03:11.316Z</time></trkpt><trkpt lat="39.1797317" lon="8.7055183"><ele>134.33333333333331</ele><time>2026-05-02T14:03:12.315Z</time></trkpt><trkpt lat="39.1797933" lon="8.7057283"><ele>134.66666666666666</ele><time>2026-05-02T14:03:13.318Z</time></trkpt><trkpt lat="39.1798417" lon="8.7058967"><ele>135.0</ele><time>2026-05-02T14:03:14.317Z</time></trkpt><trkpt lat="39.1798833" lon="8.7060917"><ele>135.0</ele><time>2026-05-02T14:03:15.318Z</time></trkpt><trkpt lat="39.1799267" lon="8.7062683"><ele>135.0</ele><time>2026-05-02T14:03:16.316Z</time></trkpt><trkpt lat="39.1799433" lon="8.70647"><ele>135.0</ele><time>2026-05-02T14:03:17.314Z</time></trkpt><trkpt lat="39.17994" lon="8.7066717"><ele>135.0</ele><time>2026-05-02T14:03:18.317Z</time></trkpt><trkpt lat="39.1799133" lon="8.7068833"><ele>135.0</ele><time>2026-05-02T14:03:19.319Z</time></trkpt><trkpt lat="39.179825" lon="8.7071083"><ele>135.0</ele><time>2026-05-02T14:03:20.316Z</time></trkpt><trkpt lat="39.1797767" lon="8.7072817"><ele>135.25</ele><time>2026-05-02T14:03:21.318Z</time></trkpt><trkpt lat="39.1797333" lon="8.707455"><ele>135.5</ele><time>2026-05-02T14:03:22.318Z</time></trkpt><trkpt lat="39.1796817" lon="8.7076367"><ele>135.75</ele><time>2026-05-02T14:03:23.317Z</time></trkpt><trkpt lat="39.1796433" lon="8.70782"><ele>136.0</ele><time>2026-05-02T14:03:24.319Z</time></trkpt><trkpt lat="39.17961" lon="8.7080133"><ele>136.0</ele><time>2026-05-02T14:03:25.313Z</time></trkpt><trkpt lat="39.1796033" lon="8.7082083"><ele>136.0</ele><time>2026-05-02T14:03:26.358Z</time></trkpt><trkpt lat="39.179615" lon="8.7084067"><ele>136.0</ele><time>2026-05-02T14:03:27.322Z</time></trkpt><trkpt lat="39.17964" lon="8.7086033"><ele>137.33333333333334</ele><time>2026-05-02T14:03:28.314Z</time></trkpt><trkpt lat="39.1796767" lon="8.7088117"><ele>138.66666666666666</ele><time>2026-05-02T14:03:29.318Z</time></trkpt><trkpt lat="39.17971" lon="8.7089917"><ele>140.0</ele><time>2026-05-02T14:03:30.317Z</time></trkpt><trkpt lat="39.1797533" lon="8.7091867"><ele>140.0</ele><time>2026-05-02T14:03:31.318Z</time></trkpt><trkpt lat="39.1798" lon="8.70939"><ele>140.0</ele><time>2026-05-02T14:03:32.371Z</time></trkpt><trkpt lat="39.1798483" lon="8.70959"><ele>140.0</ele><time>2026-05-02T14:03:33.318Z</time></trkpt><trkpt lat="39.1798967" lon="8.70979"><ele>142.0</ele><time>2026-05-02T14:03:34.318Z</time></trkpt><trkpt lat="39.179955" lon="8.7099783"><ele>144.0</ele><time>2026-05-02T14:03:35.315Z</time></trkpt><trkpt lat="39.1800067" lon="8.7101867"><ele>146.0</ele><time>2026-05-02T14:03:36.311Z</time></trkpt><trkpt lat="39.1800683" lon="8.71037"><ele>147.33333333333331</ele><time>2026-05-02T14:03:37.32Z</time></trkpt><trkpt lat="39.1801267" lon="8.7105683"><ele>148.66666666666666</ele><time>2026-05-02T14:03:38.314Z</time></trkpt><trkpt lat="39.1801717" lon="8.7107717"><ele>150.0</ele><time>2026-05-02T14:03:39.318Z</time></trkpt><trkpt lat="39.18024" lon="8.7109633"><ele>150.25</ele><time>2026-05-02T14:03:40.318Z</time></trkpt><trkpt lat="39.1802783" lon="8.7111317"><ele>150.5</ele><time>2026-05-02T14:03:41.318Z</time></trkpt><trkpt lat="39.1803483" lon="8.71127"><ele>150.75</ele><time>2026-05-02T14:03:42.317Z</time></trkpt><trkpt lat="39.180425" lon="8.7114117"><ele>151.0</ele><time>2026-05-02T14:03:43.314Z</time></trkpt><trkpt lat="39.1805217" lon="8.7115467"><ele>151.0</ele><time>2026-05-02T14:03:44.315Z</time></trkpt><trkpt lat="39.1806567" lon="8.711685"><ele>151.0</ele><time>2026-05-02T14:03:45.316Z</time></trkpt><trkpt lat="39.180775" lon="8.7118317"><ele>151.0</ele><time>2026-05-02T14:03:46.318Z</time></trkpt><trkpt lat="39.1809317" lon="8.711925"><ele>150.0</ele><time>2026-05-02T14:03:47.318Z</time></trkpt><trkpt lat="39.1810717" lon="8.712075"><ele>149.0</ele><time>2026-05-02T14:03:48.312Z</time></trkpt><trkpt lat="39.1812067" lon="8.71223"><ele>148.0</ele><time>2026-05-02T14:03:49.32Z</time></trkpt><trkpt lat="39.1813367" lon="8.71241"><ele>148.0</ele><time>2026-05-02T14:03:50.318Z</time></trkpt><trkpt lat="39.1814567" lon="8.7125833"><ele>148.0</ele><time>2026-05-02T14:03:51.319Z</time></trkpt><trkpt lat="39.181575" lon="8.7127533"><ele>148.0</ele><time>2026-05-02T14:03:52.315Z</time></trkpt><trkpt lat="39.181685" lon="8.71293"><ele>147.0</ele><time>2026-05-02T14:03:53.314Z</time></trkpt><trkpt lat="39.1817983" lon="8.7130833"><ele>146.0</ele><time>2026-05-02T14:03:54.317Z</time></trkpt><trkpt lat="39.1818933" lon="8.7132383"><ele>145.0</ele><time>2026-05-02T14:03:55.318Z</time></trkpt><trkpt lat="39.181975" lon="8.7133967"><ele>145.0</ele><time>2026-05-02T14:03:56.381Z</time></trkpt><trkpt lat="39.1820233" lon="8.7135417"><ele>145.0</ele><time>2026-05-02T14:03:57.32Z</time></trkpt><trkpt lat="39.1820867" lon="8.7136717"><ele>145.0</ele><time>2026-05-02T14:03:58.318Z</time></trkpt><trkpt lat="39.1821233" lon="8.7137933"><ele>145.0</ele><time>2026-05-02T14:03:59.315Z</time></trkpt><trkpt lat="39.1821533" lon="8.7138867"><ele>145.0</ele><time>2026-05-02T14:04:00.321Z</time></trkpt><trkpt lat="39.1822067" lon="8.7139533"><ele>145.2</ele><time>2026-05-02T14:04:01.318Z</time></trkpt><trkpt lat="39.1822783" lon="8.713995"><ele>145.4</ele><time>2026-05-02T14:04:02.373Z</time></trkpt><trkpt lat="39.1823633" lon="8.71401"><ele>145.6</ele><time>2026-05-02T14:04:03.32Z</time></trkpt><trkpt lat="39.18246" lon="8.71402"><ele>145.8</ele><time>2026-05-02T14:04:04.316Z</time></trkpt><trkpt lat="39.182555" lon="8.7140217"><ele>146.0</ele><time>2026-05-02T14:04:05.314Z</time></trkpt><trkpt lat="39.1826633" lon="8.7140467"><ele>146.0</ele><time>2026-05-02T14:04:06.314Z</time></trkpt><trkpt lat="39.182775" lon="8.7141"><ele>146.0</ele><time>2026-05-02T14:04:07.32Z</time></trkpt><trkpt lat="39.1828883" lon="8.714145"><ele>146.0</ele><time>2026-05-02T14:04:08.312Z</time></trkpt><trkpt lat="39.1830017" lon="8.7142"><ele>146.0</ele><time>2026-05-02T14:04:09.317Z</time></trkpt><trkpt lat="39.1831267" lon="8.714255"><ele>146.75</ele><time>2026-05-02T14:04:10.32Z</time></trkpt><trkpt lat="39.1832533" lon="8.714305"><ele>147.5</ele><time>2026-05-02T14:04:11.32Z</time></trkpt><trkpt lat="39.1833967" lon="8.71436"><ele>148.25</ele><time>2026-05-02T14:04:12.318Z</time></trkpt><trkpt lat="39.183545" lon="8.7144383"><ele>149.0</ele><time>2026-05-02T14:04:13.317Z</time></trkpt><trkpt lat="39.1836967" lon="8.7145267"><ele>149.0</ele><time>2026-05-02T14:04:14.319Z</time></trkpt><trkpt lat="39.183835" lon="8.71462"><ele>149.0</ele><time>2026-05-02T14:04:15.319Z</time></trkpt><trkpt lat="39.183975" lon="8.714705"><ele>149.0</ele><time>2026-05-02T14:04:16.319Z</time></trkpt><trkpt lat="39.1841083" lon="8.7147983"><ele>149.25</ele><time>2026-05-02T14:04:17.317Z</time></trkpt><trkpt lat="39.1842267" lon="8.7148867"><ele>149.5</ele><time>2026-05-02T14:04:18.312Z</time></trkpt><trkpt lat="39.1843367" lon="8.71498"><ele>149.75</ele><time>2026-05-02T14:04:19.318Z</time></trkpt><trkpt lat="39.1844317" lon="8.715065"><ele>150.0</ele><time>2026-05-02T14:04:20.318Z</time></trkpt><trkpt lat="39.1845167" lon="8.7151633"><ele>150.75</ele><time>2026-05-02T14:04:21.316Z</time></trkpt><trkpt lat="39.1845817" lon="8.71531"><ele>151.5</ele><time>2026-05-02T14:04:22.315Z</time></trkpt><trkpt lat="39.1846467" lon="8.715455"><ele>152.25</ele><time>2026-05-02T14:04:23.321Z</time></trkpt><trkpt lat="39.18469" lon="8.7156167"><ele>153.0</ele><time>2026-05-02T14:04:24.319Z</time></trkpt><trkpt lat="39.1847483" lon="8.715775"><ele>153.0</ele><time>2026-05-02T14:04:25.314Z</time></trkpt><trkpt lat="39.1847967" lon="8.715975"><ele>153.0</ele><time>2026-05-02T14:04:26.383Z</time></trkpt><trkpt lat="39.1848533" lon="8.7161717"><ele>153.0</ele><time>2026-05-02T14:04:27.314Z</time></trkpt><trkpt lat="39.1849167" lon="8.7163517"><ele>153.33333333333334</ele><time>2026-05-02T14:04:28.318Z</time></trkpt><trkpt lat="39.1849883" lon="8.7165783"><ele>153.66666666666669</ele><time>2026-05-02T14:04:29.317Z</time></trkpt><trkpt lat="39.1850383" lon="8.7167533"><ele>154.0</ele><time>2026-05-02T14:04:30.318Z</time></trkpt><trkpt lat="39.1851083" lon="8.7169383"><ele>154.25</ele><time>2026-05-02T14:04:31.315Z</time></trkpt><trkpt lat="39.1851367" lon="8.7170917"><ele>154.5</ele><time>2026-05-02T14:04:32.369Z</time></trkpt><trkpt lat="39.1852017" lon="8.7172733"><ele>154.75</ele><time>2026-05-02T14:04:33.319Z</time></trkpt><trkpt lat="39.185285" lon="8.7174433"><ele>155.0</ele><time>2026-05-02T14:04:34.318Z</time></trkpt><trkpt lat="39.1853767" lon="8.717615"><ele>155.0</ele><time>2026-05-02T14:04:35.316Z</time></trkpt><trkpt lat="39.18547" lon="8.7177383"><ele>155.0</ele><time>2026-05-02T14:04:36.317Z</time></trkpt><trkpt lat="39.1855883" lon="8.7178883"><ele>155.0</ele><time>2026-05-02T14:04:37.318Z</time></trkpt><trkpt lat="39.18571" lon="8.718015"><ele>155.0</ele><time>2026-05-02T14:04:38.319Z</time></trkpt><trkpt lat="39.1858433" lon="8.7181217"><ele>155.0</ele><time>2026-05-02T14:04:39.317Z</time></trkpt><trkpt lat="39.1859733" lon="8.7182017"><ele>155.0</ele><time>2026-05-02T14:04:40.314Z</time></trkpt><trkpt lat="39.18611" lon="8.7182783"><ele>155.0</ele><time>2026-05-02T14:04:41.32Z</time></trkpt><trkpt lat="39.1862333" lon="8.7183567"><ele>155.0</ele><time>2026-05-02T14:04:42.316Z</time></trkpt><trkpt lat="39.1863767" lon="8.718395"><ele>155.0</ele><time>2026-05-02T14:04:43.319Z</time></trkpt><trkpt lat="39.1865417" lon="8.7183833"><ele>155.0</ele><time>2026-05-02T14:04:44.319Z</time></trkpt><trkpt lat="39.1867117" lon="8.7183783"><ele>155.66666666666666</ele><time>2026-05-02T14:04:45.314Z</time></trkpt><trkpt lat="39.18687" lon="8.7183417"><ele>156.33333333333334</ele><time>2026-05-02T14:04:46.316Z</time></trkpt><trkpt lat="39.1870283" lon="8.7183167"><ele>157.0</ele><time>2026-05-02T14:04:47.317Z</time></trkpt><trkpt lat="39.1871867" lon="8.718275"><ele>157.0</ele><time>2026-05-02T14:04:48.313Z</time></trkpt><trkpt lat="39.1873333" lon="8.718245"><ele>157.0</ele><time>2026-05-02T14:04:49.314Z</time></trkpt><trkpt lat="39.187475" lon="8.7182"><ele>157.0</ele><time>2026-05-02T14:04:50.316Z</time></trkpt><trkpt lat="39.1876033" lon="8.7181383"><ele>157.0</ele><time>2026-05-02T14:04:51.319Z</time></trkpt><trkpt lat="39.1877217" lon="8.7180833"><ele>157.6</ele><time>2026-05-02T14:04:52.315Z</time></trkpt><trkpt lat="39.187835" lon="8.718045"><ele>158.2</ele><time>2026-05-02T14:04:53.319Z</time></trkpt><trkpt lat="39.1879333" lon="8.71802"><ele>158.8</ele><time>2026-05-02T14:04:54.314Z</time></trkpt><trkpt lat="39.1880317" lon="8.7179983"><ele>159.4</ele><time>2026-05-02T14:04:55.316Z</time></trkpt><trkpt lat="39.1881167" lon="8.718005"><ele>160.0</ele><time>2026-05-02T14:04:56.385Z</time></trkpt><trkpt lat="39.1881967" lon="8.71805"><ele>160.5</ele><time>2026-05-02T14:04:57.314Z</time></trkpt><trkpt lat="39.18827" lon="8.7181017"><ele>161.0</ele><time>2026-05-02T14:04:58.316Z</time></trkpt><trkpt lat="39.1883317" lon="8.71816"><ele>161.5</ele><time>2026-05-02T14:04:59.317Z</time></trkpt><trkpt lat="39.1883967" lon="8.7182133"><ele>162.0</ele><time>2026-05-02T14:05:00.313Z</time></trkpt><trkpt lat="39.1884567" lon="8.7182733"><ele>162.5</ele><time>2026-05-02T14:05:01.313Z</time></trkpt><trkpt lat="39.18852" lon="8.718315"><ele>163.0</ele><time>2026-05-02T14:05:02.367Z</time></trkpt><trkpt lat="39.1885883" lon="8.71835"><ele>163.0</ele><time>2026-05-02T14:05:03.315Z</time></trkpt><trkpt lat="39.1886633" lon="8.7183683"><ele>163.0</ele><time>2026-05-02T14:05:04.317Z</time></trkpt><trkpt lat="39.1887467" lon="8.71838"><ele>163.0</ele><time>2026-05-02T14:05:05.317Z</time></trkpt><trkpt lat="39.1888367" lon="8.718385"><ele>163.0</ele><time>2026-05-02T14:05:06.313Z</time></trkpt><trkpt lat="39.1889383" lon="8.7183983"><ele>163.0</ele><time>2026-05-02T14:05:07.317Z</time></trkpt><trkpt lat="39.18905" lon="8.718415"><ele>164.25</ele><time>2026-05-02T14:05:08.317Z</time></trkpt><trkpt lat="39.1891683" lon="8.7184283"><ele>165.5</ele><time>2026-05-02T14:05:09.313Z</time></trkpt><trkpt lat="39.18929" lon="8.7184433"><ele>166.75</ele><time>2026-05-02T14:05:10.311Z</time></trkpt><trkpt lat="39.18941" lon="8.7184533"><ele>168.0</ele><time>2026-05-02T14:05:11.317Z</time></trkpt><trkpt lat="39.189525" lon="8.7184583"><ele>168.0</ele><time>2026-05-02T14:05:12.314Z</time></trkpt><trkpt lat="39.1896283" lon="8.718465"><ele>168.0</ele><time>2026-05-02T14:05:13.317Z</time></trkpt><trkpt lat="39.1897317" lon="8.7184633"><ele>168.0</ele><time>2026-05-02T14:05:14.317Z</time></trkpt><trkpt lat="39.1898333" lon="8.7184767"><ele>168.0</ele><time>2026-05-02T14:05:15.315Z</time></trkpt><trkpt lat="39.18994" lon="8.718475"><ele>168.0</ele><time>2026-05-02T14:05:16.316Z</time></trkpt><trkpt lat="39.1900567" lon="8.71849"><ele>168.25</ele><time>2026-05-02T14:05:17.317Z</time></trkpt><trkpt lat="39.1901717" lon="8.7185117"><ele>168.5</ele><time>2026-05-02T14:05:18.317Z</time></trkpt><trkpt lat="39.1902867" lon="8.718545"><ele>168.75</ele><time>2026-05-02T14:05:19.314Z</time></trkpt><trkpt lat="39.1903733" lon="8.7186033"><ele>169.0</ele><time>2026-05-02T14:05:20.315Z</time></trkpt><trkpt lat="39.1905083" lon="8.718645"><ele>170.6</ele><time>2026-05-02T14:05:21.317Z</time></trkpt><trkpt lat="39.1906183" lon="8.718685"><ele>172.2</ele><time>2026-05-02T14:05:22.314Z</time></trkpt><trkpt lat="39.1907267" lon="8.7187283"><ele>173.79999999999998</ele><time>2026-05-02T14:05:23.317Z</time></trkpt><trkpt lat="39.1908333" lon="8.71877"><ele>175.39999999999998</ele><time>2026-05-02T14:05:24.316Z</time></trkpt><trkpt lat="39.1909383" lon="8.7187767"><ele>177.0</ele><time>2026-05-02T14:05:25.316Z</time></trkpt><trkpt lat="39.1910083" lon="8.718865"><ele>177.0</ele><time>2026-05-02T14:05:26.38Z</time></trkpt><trkpt lat="39.19107" lon="8.718895"><ele>177.0</ele><time>2026-05-02T14:05:27.316Z</time></trkpt><trkpt lat="39.1911367" lon="8.71886"><ele>177.0</ele><time>2026-05-02T14:05:28.317Z</time></trkpt><trkpt lat="39.1912133" lon="8.718805"><ele>177.0</ele><time>2026-05-02T14:05:29.315Z</time></trkpt><trkpt lat="39.1912767" lon="8.7187567"><ele>177.0</ele><time>2026-05-02T14:05:30.314Z</time></trkpt><trkpt lat="39.1913367" lon="8.7186967"><ele>177.0</ele><time>2026-05-02T14:05:31.316Z</time></trkpt><trkpt lat="39.1914067" lon="8.7186233"><ele>176.6</ele><time>2026-05-02T14:05:32.37Z</time></trkpt><trkpt lat="39.1914583" lon="8.7185183"><ele>176.2</ele><time>2026-05-02T14:05:33.314Z</time></trkpt><trkpt lat="39.191525" lon="8.7184633"><ele>175.8</ele><time>2026-05-02T14:05:34.312Z</time></trkpt><trkpt lat="39.1916067" lon="8.7184483"><ele>175.4</ele><time>2026-05-02T14:05:35.314Z</time></trkpt><trkpt lat="39.1917033" lon="8.7184583"><ele>175.0</ele><time>2026-05-02T14:05:36.314Z</time></trkpt><trkpt lat="39.1918117" lon="8.7184883"><ele>175.0</ele><time>2026-05-02T14:05:37.317Z</time></trkpt><trkpt lat="39.191935" lon="8.7185417"><ele>175.0</ele><time>2026-05-02T14:05:38.317Z</time></trkpt><trkpt lat="39.1920633" lon="8.7186117"><ele>175.0</ele><time>2026-05-02T14:05:39.317Z</time></trkpt><trkpt lat="39.192185" lon="8.7186617"><ele>175.0</ele><time>2026-05-02T14:05:40.318Z</time></trkpt><trkpt lat="39.1922933" lon="8.7187067"><ele>176.8</ele><time>2026-05-02T14:05:41.315Z</time></trkpt><trkpt lat="39.1923933" lon="8.7187567"><ele>178.6</ele><time>2026-05-02T14:05:42.316Z</time></trkpt><trkpt lat="39.1924667" lon="8.7188583"><ele>180.39999999999998</ele><time>2026-05-02T14:05:43.316Z</time></trkpt><trkpt lat="39.1925517" lon="8.7188483"><ele>182.2</ele><time>2026-05-02T14:05:44.316Z</time></trkpt><trkpt lat="39.1926217" lon="8.718815"><ele>184.0</ele><time>2026-05-02T14:05:45.316Z</time></trkpt><trkpt lat="39.1926983" lon="8.7187767"><ele>184.0</ele><time>2026-05-02T14:05:46.316Z</time></trkpt><trkpt lat="39.1927767" lon="8.7187217"><ele>184.0</ele><time>2026-05-02T14:05:47.315Z</time></trkpt><trkpt lat="39.19286" lon="8.7186617"><ele>184.0</ele><time>2026-05-02T14:05:48.318Z</time></trkpt><trkpt lat="39.1929567" lon="8.7186033"><ele>184.0</ele><time>2026-05-02T14:05:49.315Z</time></trkpt><trkpt lat="39.1930317" lon="8.71853"><ele>184.0</ele><time>2026-05-02T14:05:50.315Z</time></trkpt><trkpt lat="39.1931133" lon="8.7185233"><ele>186.2</ele><time>2026-05-02T14:05:51.318Z</time></trkpt><trkpt lat="39.1932033" lon="8.7185367"><ele>188.39999999999998</ele><time>2026-05-02T14:05:52.314Z</time></trkpt><trkpt lat="39.1932933" lon="8.7185817"><ele>190.6</ele><time>2026-05-02T14:05:53.316Z</time></trkpt><trkpt lat="39.193395" lon="8.7186317"><ele>192.8</ele><time>2026-05-02T14:05:54.316Z</time></trkpt><trkpt lat="39.1935133" lon="8.7186733"><ele>195.0</ele><time>2026-05-02T14:05:55.315Z</time></trkpt><trkpt lat="39.1936383" lon="8.7187033"><ele>195.0</ele><time>2026-05-02T14:05:56.382Z</time></trkpt><trkpt lat="39.1937717" lon="8.7187383"><ele>195.0</ele><time>2026-05-02T14:05:57.316Z</time></trkpt><trkpt lat="39.1939167" lon="8.7187617"><ele>195.0</ele><time>2026-05-02T14:05:58.314Z</time></trkpt><trkpt lat="39.1940483" lon="8.71878"><ele>195.0</ele><time>2026-05-02T14:05:59.312Z</time></trkpt><trkpt lat="39.1941633" lon="8.71879"><ele>196.2</ele><time>2026-05-02T14:06:00.316Z</time></trkpt><trkpt lat="39.1942717" lon="8.7188233"><ele>197.4</ele><time>2026-05-02T14:06:01.313Z</time></trkpt><trkpt lat="39.1943517" lon="8.7188183"><ele>198.60000000000002</ele><time>2026-05-02T14:06:02.37Z</time></trkpt><trkpt lat="39.194425" lon="8.7187917"><ele>199.8</ele><time>2026-05-02T14:06:03.318Z</time></trkpt><trkpt lat="39.19452" lon="8.7187133"><ele>201.0</ele><time>2026-05-02T14:06:04.314Z</time></trkpt><trkpt lat="39.1946117" lon="8.7185983"><ele>199.5</ele><time>2026-05-02T14:06:05.318Z</time></trkpt><trkpt lat="39.1947133" lon="8.7185067"><ele>198.0</ele><time>2026-05-02T14:06:06.314Z</time></trkpt><trkpt lat="39.1948133" lon="8.7184017"><ele>196.5</ele><time>2026-05-02T14:06:07.313Z</time></trkpt><trkpt lat="39.1949517" lon="8.7183283"><ele>195.0</ele><time>2026-05-02T14:06:08.313Z</time></trkpt><trkpt lat="39.1950667" lon="8.7183"><ele>194.8</ele><time>2026-05-02T14:06:09.316Z</time></trkpt><trkpt lat="39.195175" lon="8.718305"><ele>194.6</ele><time>2026-05-02T14:06:10.312Z</time></trkpt><trkpt lat="39.19527" lon="8.7183367"><ele>194.39999999999998</ele><time>2026-05-02T14:06:11.317Z</time></trkpt><trkpt lat="39.1953917" lon="8.718385"><ele>194.2</ele><time>2026-05-02T14:06:12.315Z</time></trkpt><trkpt lat="39.19548" lon="8.71846"><ele>194.0</ele><time>2026-05-02T14:06:13.316Z</time></trkpt><trkpt lat="39.1955717" lon="8.71852"><ele>194.0</ele><time>2026-05-02T14:06:14.316Z</time></trkpt><trkpt lat="39.1956433" lon="8.7185417"><ele>194.0</ele><time>2026-05-02T14:06:15.316Z</time></trkpt><trkpt lat="39.1957533" lon="8.718515"><ele>194.0</ele><time>2026-05-02T14:06:16.312Z</time></trkpt><trkpt lat="39.1958417" lon="8.7184733"><ele>194.0</ele><time>2026-05-02T14:06:17.314Z</time></trkpt><trkpt lat="39.1959367" lon="8.7183967"><ele>194.0</ele><time>2026-05-02T14:06:18.316Z</time></trkpt><trkpt lat="39.1960133" lon="8.71828"><ele>195.0</ele><time>2026-05-02T14:06:19.313Z</time></trkpt><trkpt lat="39.1961133" lon="8.7181717"><ele>196.0</ele><time>2026-05-02T14:06:20.314Z</time></trkpt><trkpt lat="39.196225" lon="8.7180767"><ele>197.0</ele><time>2026-05-02T14:06:21.32Z</time></trkpt><trkpt lat="39.1963367" lon="8.7179933"><ele>198.0</ele><time>2026-05-02T14:06:22.313Z</time></trkpt><trkpt lat="39.19642" lon="8.717905"><ele>198.0</ele><time>2026-05-02T14:06:23.316Z</time></trkpt><trkpt lat="39.1965017" lon="8.7178467"><ele>198.0</ele><time>2026-05-02T14:06:24.313Z</time></trkpt><trkpt lat="39.1965833" lon="8.7177433"><ele>198.0</ele><time>2026-05-02T14:06:25.317Z</time></trkpt><trkpt lat="39.19667" lon="8.71766"><ele>198.0</ele><time>2026-05-02T14:06:26.381Z</time></trkpt><trkpt lat="39.196745" lon="8.7175433"><ele>198.0</ele><time>2026-05-02T14:06:27.314Z</time></trkpt><trkpt lat="39.1968" lon="8.7174233"><ele>198.5</ele><time>2026-05-02T14:06:28.316Z</time></trkpt><trkpt lat="39.196845" lon="8.7173167"><ele>199.0</ele><time>2026-05-02T14:06:29.315Z</time></trkpt><trkpt lat="39.1968883" lon="8.7172183"><ele>199.5</ele><time>2026-05-02T14:06:30.316Z</time></trkpt><trkpt lat="39.1969333" lon="8.71713"><ele>200.0</ele><time>2026-05-02T14:06:31.313Z</time></trkpt><trkpt lat="39.1969717" lon="8.7170483"><ele>200.5</ele><time>2026-05-02T14:06:32.369Z</time></trkpt><trkpt lat="39.19701" lon="8.71698"><ele>201.0</ele><time>2026-05-02T14:06:33.316Z</time></trkpt><trkpt lat="39.19711" lon="8.7169533"><ele>201.0</ele><time>2026-05-02T14:06:35.317Z</time></trkpt><trkpt lat="39.1972333" lon="8.7169733"><ele>201.0</ele><time>2026-05-02T14:06:37.317Z</time></trkpt><trkpt lat="39.1973" lon="8.71711"><ele>201.0</ele><time>2026-05-02T14:06:38.312Z</time></trkpt><trkpt lat="39.1973483" lon="8.717265"><ele>201.0</ele><time>2026-05-02T14:06:39.317Z</time></trkpt><trkpt lat="39.19739" lon="8.7174433"><ele>203.0</ele><time>2026-05-02T14:06:40.316Z</time></trkpt><trkpt lat="39.19743" lon="8.7176267"><ele>205.0</ele><time>2026-05-02T14:06:41.315Z</time></trkpt><trkpt lat="39.1974717" lon="8.7177817"><ele>207.0</ele><time>2026-05-02T14:06:42.318Z</time></trkpt><trkpt lat="39.19752" lon="8.7179233"><ele>209.0</ele><time>2026-05-02T14:06:43.314Z</time></trkpt><trkpt lat="39.1975617" lon="8.7180433"><ele>209.00000000000003</ele><time>2026-05-02T14:06:44.316Z</time></trkpt><trkpt lat="39.1976067" lon="8.71814"><ele>209.0</ele><time>2026-05-02T14:06:45.313Z</time></trkpt><trkpt lat="39.1976617" lon="8.718215"><ele>209.0</ele><time>2026-05-02T14:06:46.313Z</time></trkpt><trkpt lat="39.1977283" lon="8.7182333"><ele>209.0</ele><time>2026-05-02T14:06:47.312Z</time></trkpt><trkpt lat="39.1978033" lon="8.7182083"><ele>209.00000000000003</ele><time>2026-05-02T14:06:48.317Z</time></trkpt><trkpt lat="39.1978717" lon="8.7181567"><ele>209.0</ele><time>2026-05-02T14:06:49.315Z</time></trkpt><trkpt lat="39.1979367" lon="8.7180833"><ele>209.0</ele><time>2026-05-02T14:06:50.314Z</time></trkpt><trkpt lat="39.1979933" lon="8.7180033"><ele>209.0</ele><time>2026-05-02T14:06:51.316Z</time></trkpt><trkpt lat="39.1980517" lon="8.7179183"><ele>209.0</ele><time>2026-05-02T14:06:52.316Z</time></trkpt><trkpt lat="39.1981117" lon="8.7178133"><ele>209.0</ele><time>2026-05-02T14:06:53.314Z</time></trkpt><trkpt lat="39.1982017" lon="8.7177117"><ele>209.0</ele><time>2026-05-02T14:06:54.315Z</time></trkpt><trkpt lat="39.1982883" lon="8.7176317"><ele>211.6</ele><time>2026-05-02T14:06:55.311Z</time></trkpt><trkpt lat="39.1983967" lon="8.7175517"><ele>214.2</ele><time>2026-05-02T14:06:56.379Z</time></trkpt><trkpt lat="39.1984933" lon="8.7175083"><ele>216.79999999999998</ele><time>2026-05-02T14:06:57.312Z</time></trkpt><trkpt lat="39.198585" lon="8.7174633"><ele>219.39999999999998</ele><time>2026-05-02T14:06:58.311Z</time></trkpt><trkpt lat="39.1986933" lon="8.7174733"><ele>222.0</ele><time>2026-05-02T14:06:59.31Z</time></trkpt><trkpt lat="39.1987833" lon="8.7175033"><ele>222.0</ele><time>2026-05-02T14:07:00.316Z</time></trkpt><trkpt lat="39.198885" lon="8.7175617"><ele>222.0</ele><time>2026-05-02T14:07:01.314Z</time></trkpt><trkpt lat="39.19898" lon="8.7175667"><ele>222.0</ele><time>2026-05-02T14:07:02.382Z</time></trkpt><trkpt lat="39.199075" lon="8.717535"><ele>222.0</ele><time>2026-05-02T14:07:03.316Z</time></trkpt><trkpt lat="39.199165" lon="8.7175133"><ele>222.0</ele><time>2026-05-02T14:07:04.317Z</time></trkpt><trkpt lat="39.1992583" lon="8.71749"><ele>223.0</ele><time>2026-05-02T14:07:05.317Z</time></trkpt><trkpt lat="39.1993333" lon="8.7174267"><ele>224.0</ele><time>2026-05-02T14:07:06.317Z</time></trkpt><trkpt lat="39.19943" lon="8.7174567"><ele>225.0</ele><time>2026-05-02T14:07:07.317Z</time></trkpt><trkpt lat="39.19952" lon="8.7175067"><ele>226.0</ele><time>2026-05-02T14:07:08.316Z</time></trkpt><trkpt lat="39.19961" lon="8.71757"><ele>227.0</ele><time>2026-05-02T14:07:09.318Z</time></trkpt><trkpt lat="39.1996967" lon="8.7176317"><ele>227.0</ele><time>2026-05-02T14:07:10.315Z</time></trkpt><trkpt lat="39.1997767" lon="8.7176633"><ele>227.0</ele><time>2026-05-02T14:07:11.313Z</time></trkpt><trkpt lat="39.199865" lon="8.71774"><ele>227.0</ele><time>2026-05-02T14:07:13.315Z</time></trkpt><trkpt lat="39.19995" lon="8.717855"><ele>227.0</ele><time>2026-05-02T14:07:15.313Z</time></trkpt><trkpt lat="39.1999817" lon="8.7179417"><ele>227.0</ele><time>2026-05-02T14:07:16.318Z</time></trkpt><trkpt lat="39.2000067" lon="8.718055"><ele>228.8</ele><time>2026-05-02T14:07:17.313Z</time></trkpt><trkpt lat="39.2000267" lon="8.718175"><ele>230.6</ele><time>2026-05-02T14:07:18.316Z</time></trkpt><trkpt lat="39.2000317" lon="8.7183083"><ele>232.40000000000003</ele><time>2026-05-02T14:07:19.312Z</time></trkpt><trkpt lat="39.200035" lon="8.7184383"><ele>234.20000000000002</ele><time>2026-05-02T14:07:20.316Z</time></trkpt><trkpt lat="39.200025" lon="8.7185733"><ele>236.0</ele><time>2026-05-02T14:07:21.314Z</time></trkpt><trkpt lat="39.1999967" lon="8.7187017"><ele>237.66666666666669</ele><time>2026-05-02T14:07:22.312Z</time></trkpt><trkpt lat="39.199975" lon="8.7188183"><ele>239.33333333333334</ele><time>2026-05-02T14:07:23.316Z</time></trkpt><trkpt lat="39.1999567" lon="8.7189333"><ele>241.0</ele><time>2026-05-02T14:07:24.316Z</time></trkpt><trkpt lat="39.1999667" lon="8.719035"><ele>242.66666666666669</ele><time>2026-05-02T14:07:25.316Z</time></trkpt><trkpt lat="39.2000167" lon="8.7191033"><ele>244.33333333333334</ele><time>2026-05-02T14:07:26.381Z</time></trkpt><trkpt lat="39.2000683" lon="8.7191633"><ele>246.0</ele><time>2026-05-02T14:07:27.312Z</time></trkpt><trkpt lat="39.2001383" lon="8.7191683"><ele>246.0</ele><time>2026-05-02T14:07:28.315Z</time></trkpt><trkpt lat="39.200215" lon="8.71914"><ele>246.0</ele><time>2026-05-02T14:07:29.315Z</time></trkpt><trkpt lat="39.2002833" lon="8.7190983"><ele>246.0</ele><time>2026-05-02T14:07:30.316Z</time></trkpt><trkpt lat="39.200335" lon="8.7190167"><ele>246.0</ele><time>2026-05-02T14:07:31.318Z</time></trkpt><trkpt lat="39.2003833" lon="8.7189217"><ele>246.0</ele><time>2026-05-02T14:07:32.37Z</time></trkpt><trkpt lat="39.20043" lon="8.71882"><ele>246.0</ele><time>2026-05-02T14:07:33.311Z</time></trkpt><trkpt lat="39.2004817" lon="8.7187133"><ele>246.0</ele><time>2026-05-02T14:07:34.313Z</time></trkpt><trkpt lat="39.2005433" lon="8.718605"><ele>246.0</ele><time>2026-05-02T14:07:35.317Z</time></trkpt><trkpt lat="39.2005983" lon="8.71851"><ele>246.0</ele><time>2026-05-02T14:07:36.313Z</time></trkpt><trkpt lat="39.2006583" lon="8.718425"><ele>246.0</ele><time>2026-05-02T14:07:37.317Z</time></trkpt><trkpt lat="39.2007333" lon="8.7184033"><ele>246.0</ele><time>2026-05-02T14:07:38.316Z</time></trkpt><trkpt lat="39.2008133" lon="8.7183817"><ele>246.0</ele><time>2026-05-02T14:07:39.315Z</time></trkpt><trkpt lat="39.2009067" lon="8.7183983"><ele>245.4</ele><time>2026-05-02T14:07:40.315Z</time></trkpt><trkpt lat="39.201" lon="8.7184183"><ele>244.8</ele><time>2026-05-02T14:07:41.319Z</time></trkpt><trkpt lat="39.2010983" lon="8.7184567"><ele>244.20000000000002</ele><time>2026-05-02T14:07:42.32Z</time></trkpt><trkpt lat="39.20119" lon="8.718515"><ele>243.60000000000002</ele><time>2026-05-02T14:07:43.319Z</time></trkpt><trkpt lat="39.20128" lon="8.7185783"><ele>243.0</ele><time>2026-05-02T14:07:44.317Z</time></trkpt><trkpt lat="39.2013667" lon="8.71865"><ele>244.0</ele><time>2026-05-02T14:07:45.313Z</time></trkpt><trkpt lat="39.20145" lon="8.718725"><ele>245.0</ele><time>2026-05-02T14:07:46.316Z</time></trkpt><trkpt lat="39.2015383" lon="8.7188033"><ele>246.0</ele><time>2026-05-02T14:07:47.314Z</time></trkpt><trkpt lat="39.2016217" lon="8.7188933"><ele>247.0</ele><time>2026-05-02T14:07:48.315Z</time></trkpt><trkpt lat="39.2017033" lon="8.7189617"><ele>248.0</ele><time>2026-05-02T14:07:49.314Z</time></trkpt><trkpt lat="39.2017833" lon="8.7190233"><ele>248.00000000000003</ele><time>2026-05-02T14:07:50.313Z</time></trkpt><trkpt lat="39.2018717" lon="8.7190583"><ele>248.0</ele><time>2026-05-02T14:07:51.317Z</time></trkpt><trkpt lat="39.201955" lon="8.719075"><ele>248.0</ele><time>2026-05-02T14:07:52.319Z</time></trkpt><trkpt lat="39.2020367" lon="8.7190867"><ele>248.0</ele><time>2026-05-02T14:07:53.318Z</time></trkpt><trkpt lat="39.202115" lon="8.7190933"><ele>248.00000000000003</ele><time>2026-05-02T14:07:54.318Z</time></trkpt><trkpt lat="39.202185" lon="8.7190967"><ele>248.0</ele><time>2026-05-02T14:07:55.317Z</time></trkpt><trkpt lat="39.2022917" lon="8.7190967"><ele>248.00000000000003</ele><time>2026-05-02T14:07:57.315Z</time></trkpt><trkpt lat="39.2023567" lon="8.71916"><ele>248.0</ele><time>2026-05-02T14:08:00.314Z</time></trkpt><trkpt lat="39.202425" lon="8.7192467"><ele>248.0</ele><time>2026-05-02T14:08:03.315Z</time></trkpt><trkpt lat="39.20248" lon="8.7192967"><ele>248.0</ele><time>2026-05-02T14:08:05.318Z</time></trkpt><trkpt lat="39.202535" lon="8.7193483"><ele>248.00000000000003</ele><time>2026-05-02T14:08:07.319Z</time></trkpt><trkpt lat="39.202605" lon="8.71932"><ele>248.0</ele><time>2026-05-02T14:08:10.316Z</time></trkpt><trkpt lat="39.2026283" lon="8.7192433"><ele>248.0</ele><time>2026-05-02T14:08:12.319Z</time></trkpt></trkseg></trk></gpx>